<?xml version="1.0" encoding="UTF-8"?>
<gpx xmlns="http://www.topografix.com/GPX/1/1" version="1.1" creator="Nokia Sports Tracker" xmlns:xsi="http://www.w3.org/2001/XMLSchema-instance" xsi:schemaLocation="http://www.topografix.com/GPX/1/1 http://www.topografix.com/GPX/1/1/gpx.xsd">
<metadata>
<name>25.02.2010 16:15</name>
<desc>Nordic Walking on Bodo4</desc>
<author><name>Jörg U.</name></author>
<time>2010-02-25T16:16:05.20</time>
</metadata>
<trk>
<name>25.02.2010 16:15</name>
<trkseg>
<trkpt lat="48.943292" lon="8.662668">
<ele>345.5</ele>
<speed>3.1</speed>
<course>290.8</course>
<desc>Speed 3.1 km/h Distance 0.00 km</desc>
<time>2010-02-25T16:16:06.89</time>
<name>1</name>
</trkpt>
<trkpt lat="48.943295" lon="8.662655">
<ele>344.0</ele>
<speed>3.3</speed>
<course>337.8</course>
<desc>Speed 3.3 km/h Distance 0.00 km</desc>
<time>2010-02-25T16:16:07.48</time>
<name>2</name>
</trkpt>
<trkpt lat="48.943300" lon="8.662652">
<ele>343.0</ele>
<speed>3.3</speed>
<course>327.7</course>
<desc>Speed 3.3 km/h Distance 0.00 km</desc>
<time>2010-02-25T16:16:08.48</time>
<name>3</name>
</trkpt>
<trkpt lat="48.943305" lon="8.662647">
<ele>342.0</ele>
<speed>3.6</speed>
<course>320.6</course>
<desc>Speed 3.6 km/h Distance 0.00 km</desc>
<time>2010-02-25T16:16:09.48</time>
<name>4</name>
</trkpt>
<trkpt lat="48.943312" lon="8.662638">
<ele>341.0</ele>
<speed>2.9</speed>
<course>5.0</course>
<desc>Speed 2.9 km/h Distance 0.00 km</desc>
<time>2010-02-25T16:16:10.48</time>
<name>5</name>
</trkpt>
<trkpt lat="48.943320" lon="8.662638">
<ele>341.5</ele>
<speed>2.4</speed>
<course>339.4</course>
<desc>Speed 2.4 km/h Distance 0.00 km</desc>
<time>2010-02-25T16:16:11.70</time>
<name>6</name>
</trkpt>
<trkpt lat="48.943332" lon="8.662632">
<ele>341.5</ele>
<speed>3.4</speed>
<course>330.6</course>
<desc>Speed 3.4 km/h Distance 0.01 km</desc>
<time>2010-02-25T16:16:12.54</time>
<name>7</name>
</trkpt>
<trkpt lat="48.943343" lon="8.662622">
<ele>341.5</ele>
<speed>4.7</speed>
<course>339.1</course>
<desc>Speed 4.7 km/h Distance 0.01 km</desc>
<time>2010-02-25T16:16:13.54</time>
<name>8</name>
</trkpt>
<trkpt lat="48.943355" lon="8.662615">
<ele>341.0</ele>
<speed>4.5</speed>
<course>330.8</course>
<desc>Speed 4.5 km/h Distance 0.01 km</desc>
<time>2010-02-25T16:16:14.54</time>
<name>9</name>
</trkpt>
<trkpt lat="48.943367" lon="8.662605">
<ele>340.5</ele>
<speed>4.3</speed>
<course>322.5</course>
<desc>Speed 4.3 km/h Distance 0.01 km</desc>
<time>2010-02-25T16:16:15.54</time>
<name>10</name>
</trkpt>
<trkpt lat="48.943377" lon="8.662593">
<ele>341.0</ele>
<speed>3.8</speed>
<course>312.9</course>
<desc>Speed 3.8 km/h Distance 0.01 km</desc>
<time>2010-02-25T16:16:16.54</time>
<name>11</name>
</trkpt>
<trkpt lat="48.943382" lon="8.662585">
<ele>341.0</ele>
<speed>2.8</speed>
<course>0.0</course>
<desc>Speed 2.8 km/h Distance 0.01 km</desc>
<time>2010-02-25T16:16:17.54</time>
<name>12</name>
</trkpt>
<trkpt lat="48.943383" lon="8.662585">
<ele>340.5</ele>
<speed>0.4</speed>
<course>270.0</course>
<desc>Speed 0.4 km/h Distance 0.01 km</desc>
<time>2010-02-25T16:16:18.54</time>
<name>13</name>
</trkpt>
<trkpt lat="48.943383" lon="8.662582">
<ele>340.5</ele>
<speed>1.3</speed>
<course>12.6</course>
<desc>Speed 1.3 km/h Distance 0.01 km</desc>
<time>2010-02-25T16:16:19.54</time>
<name>14</name>
</trkpt>
<trkpt lat="48.943385" lon="8.662582">
<ele>341.0</ele>
<speed>1.0</speed>
<course>326.8</course>
<desc>Speed 1.0 km/h Distance 0.01 km</desc>
<time>2010-02-25T16:16:20.54</time>
<name>15</name>
</trkpt>
<trkpt lat="48.943390" lon="8.662577">
<ele>342.0</ele>
<speed>0.9</speed>
<course>282.3</course>
<desc>Speed 0.9 km/h Distance 0.01 km</desc>
<time>2010-02-25T16:16:21.54</time>
<name>16</name>
</trkpt>
<trkpt lat="48.943392" lon="8.662565">
<ele>343.0</ele>
<speed>1.0</speed>
<course>326.8</course>
<desc>Speed 1.0 km/h Distance 0.01 km</desc>
<time>2010-02-25T16:16:22.54</time>
<name>17</name>
</trkpt>
<trkpt lat="48.943397" lon="8.662560">
<ele>343.5</ele>
<speed>1.0</speed>
<course>299.0</course>
<desc>Speed 1.0 km/h Distance 0.02 km</desc>
<time>2010-02-25T16:16:23.54</time>
<name>18</name>
</trkpt>
<trkpt lat="48.943403" lon="8.662542">
<ele>345.0</ele>
<speed>1.2</speed>
<course>336.2</course>
<desc>Speed 1.2 km/h Distance 0.02 km</desc>
<time>2010-02-25T16:16:24.54</time>
<name>19</name>
</trkpt>
<trkpt lat="48.943408" lon="8.662538">
<ele>345.0</ele>
<speed>0.4</speed>
<course>270.0</course>
<desc>Speed 0.4 km/h Distance 0.02 km</desc>
<time>2010-02-25T16:16:25.54</time>
<name>20</name>
</trkpt>
<trkpt lat="48.943408" lon="8.662527">
<ele>345.5</ele>
<speed>1.5</speed>
<course>294.6</course>
<desc>Speed 1.5 km/h Distance 0.02 km</desc>
<time>2010-02-25T16:16:26.54</time>
<name>21</name>
</trkpt>
<trkpt lat="48.943413" lon="8.662510">
<ele>346.5</ele>
<speed>1.5</speed>
<course>270.0</course>
<desc>Speed 1.5 km/h Distance 0.02 km</desc>
<time>2010-02-25T16:16:27.54</time>
<name>22</name>
</trkpt>
<trkpt lat="48.943413" lon="8.662503">
<ele>346.5</ele>
<speed>1.5</speed>
<course>36.3</course>
<desc>Speed 1.5 km/h Distance 0.02 km</desc>
<time>2010-02-25T16:16:28.54</time>
<name>23</name>
</trkpt>
<trkpt lat="48.943470" lon="8.662567">
<ele>347.0</ele>
<speed>2.3</speed>
<course>321.9</course>
<desc>Speed 2.3 km/h Distance 0.03 km</desc>
<time>2010-02-25T16:16:30.54</time>
<name>24</name>
</trkpt>
<trkpt lat="48.943478" lon="8.662557">
<ele>347.5</ele>
<speed>0.4</speed>
<course>50.9</course>
<desc>Speed 0.4 km/h Distance 0.03 km</desc>
<time>2010-02-25T16:16:31.54</time>
<name>25</name>
</trkpt>
<trkpt lat="48.943518" lon="8.662632">
<ele>347.5</ele>
<speed>14.0</speed>
<course>315.5</course>
<desc>Speed 14.0 km/h Distance 0.04 km</desc>
<time>2010-02-25T16:16:33.54</time>
<name>26</name>
</trkpt>
<trkpt lat="48.943525" lon="8.662622">
<ele>347.5</ele>
<speed>1.3</speed>
<course>333.6</course>
<desc>Speed 1.3 km/h Distance 0.04 km</desc>
<time>2010-02-25T16:16:35.54</time>
<name>27</name>
</trkpt>
<trkpt lat="48.943532" lon="8.662617">
<ele>347.5</ele>
<speed>1.2</speed>
<course>270.0</course>
<desc>Speed 1.2 km/h Distance 0.04 km</desc>
<time>2010-02-25T16:16:36.54</time>
<name>28</name>
</trkpt>
<trkpt lat="48.943532" lon="8.662600">
<ele>347.0</ele>
<speed>2.2</speed>
<course>270.0</course>
<desc>Speed 2.2 km/h Distance 0.04 km</desc>
<time>2010-02-25T16:16:37.54</time>
<name>29</name>
</trkpt>
<trkpt lat="48.943532" lon="8.662587">
<ele>347.0</ele>
<speed>1.5</speed>
<course>317.4</course>
<desc>Speed 1.5 km/h Distance 0.04 km</desc>
<time>2010-02-25T16:16:38.54</time>
<name>30</name>
</trkpt>
<trkpt lat="48.943540" lon="8.662575">
<ele>346.5</ele>
<speed>4.1</speed>
<course>342.4</course>
<desc>Speed 4.1 km/h Distance 0.04 km</desc>
<time>2010-02-25T16:16:39.54</time>
<name>31</name>
</trkpt>
<trkpt lat="48.943550" lon="8.662570">
<ele>346.5</ele>
<speed>3.6</speed>
<course>333.6</course>
<desc>Speed 3.6 km/h Distance 0.04 km</desc>
<time>2010-02-25T16:16:40.54</time>
<name>32</name>
</trkpt>
<trkpt lat="48.943557" lon="8.662565">
<ele>346.5</ele>
<speed>2.6</speed>
<course>310.9</course>
<desc>Speed 2.6 km/h Distance 0.04 km</desc>
<time>2010-02-25T16:16:41.54</time>
<name>33</name>
</trkpt>
<trkpt lat="48.943563" lon="8.662553">
<ele>346.5</ele>
<speed>3.3</speed>
<course>262.1</course>
<desc>Speed 3.3 km/h Distance 0.04 km</desc>
<time>2010-02-25T16:16:42.54</time>
<name>34</name>
</trkpt>
<trkpt lat="48.943562" lon="8.662535">
<ele>346.5</ele>
<speed>4.0</speed>
<course>290.8</course>
<desc>Speed 4.0 km/h Distance 0.05 km</desc>
<time>2010-02-25T16:16:43.54</time>
<name>35</name>
</trkpt>
<trkpt lat="48.943567" lon="8.662515">
<ele>346.0</ele>
<speed>4.1</speed>
<course>323.4</course>
<desc>Speed 4.1 km/h Distance 0.05 km</desc>
<time>2010-02-25T16:16:44.54</time>
<name>36</name>
</trkpt>
<trkpt lat="48.943580" lon="8.662500">
<ele>346.0</ele>
<speed>6.1</speed>
<course>302.4</course>
<desc>Speed 6.1 km/h Distance 0.05 km</desc>
<time>2010-02-25T16:16:45.54</time>
<name>37</name>
</trkpt>
<trkpt lat="48.943588" lon="8.662480">
<ele>345.5</ele>
<speed>5.0</speed>
<course>282.3</course>
<desc>Speed 5.0 km/h Distance 0.05 km</desc>
<time>2010-02-25T16:16:46.54</time>
<name>38</name>
</trkpt>
<trkpt lat="48.943592" lon="8.662457">
<ele>345.0</ele>
<speed>4.6</speed>
<course>282.3</course>
<desc>Speed 4.6 km/h Distance 0.05 km</desc>
<time>2010-02-25T16:16:47.54</time>
<name>39</name>
</trkpt>
<trkpt lat="48.943595" lon="8.662433">
<ele>344.5</ele>
<speed>3.9</speed>
<course>315.5</course>
<desc>Speed 3.9 km/h Distance 0.05 km</desc>
<time>2010-02-25T16:16:48.54</time>
<name>40</name>
</trkpt>
<trkpt lat="48.943602" lon="8.662423">
<ele>344.5</ele>
<speed>3.1</speed>
<course>290.9</course>
<desc>Speed 3.1 km/h Distance 0.06 km</desc>
<time>2010-02-25T16:16:49.54</time>
<name>41</name>
</trkpt>
<trkpt lat="48.943605" lon="8.662410">
<ele>344.0</ele>
<speed>2.7</speed>
<course>279.6</course>
<desc>Speed 2.7 km/h Distance 0.06 km</desc>
<time>2010-02-25T16:16:50.54</time>
<name>42</name>
</trkpt>
<trkpt lat="48.943607" lon="8.662395">
<ele>344.0</ele>
<speed>2.6</speed>
<course>304.0</course>
<desc>Speed 2.6 km/h Distance 0.06 km</desc>
<time>2010-02-25T16:16:51.54</time>
<name>43</name>
</trkpt>
<trkpt lat="48.943613" lon="8.662380">
<ele>343.5</ele>
<speed>3.6</speed>
<course>296.9</course>
<desc>Speed 3.6 km/h Distance 0.06 km</desc>
<time>2010-02-25T16:16:52.54</time>
<name>44</name>
</trkpt>
<trkpt lat="48.943618" lon="8.662365">
<ele>343.5</ele>
<speed>4.1</speed>
<course>331.4</course>
<desc>Speed 4.1 km/h Distance 0.06 km</desc>
<time>2010-02-25T16:16:53.54</time>
<name>45</name>
</trkpt>
<trkpt lat="48.943628" lon="8.662357">
<ele>343.5</ele>
<speed>3.6</speed>
<course>307.3</course>
<desc>Speed 3.6 km/h Distance 0.06 km</desc>
<time>2010-02-25T16:16:54.54</time>
<name>46</name>
</trkpt>
<trkpt lat="48.943635" lon="8.662343">
<ele>343.5</ele>
<speed>4.1</speed>
<course>313.6</course>
<desc>Speed 4.1 km/h Distance 0.06 km</desc>
<time>2010-02-25T16:16:55.54</time>
<name>47</name>
</trkpt>
<trkpt lat="48.943643" lon="8.662330">
<ele>343.5</ele>
<speed>3.6</speed>
<course>315.5</course>
<desc>Speed 3.6 km/h Distance 0.06 km</desc>
<time>2010-02-25T16:16:56.54</time>
<name>48</name>
</trkpt>
<trkpt lat="48.943650" lon="8.662320">
<ele>343.5</ele>
<speed>3.5</speed>
<course>330.6</course>
<desc>Speed 3.5 km/h Distance 0.06 km</desc>
<time>2010-02-25T16:16:57.54</time>
<name>49</name>
</trkpt>
<trkpt lat="48.943662" lon="8.662310">
<ele>343.5</ele>
<speed>4.0</speed>
<course>330.6</course>
<desc>Speed 4.0 km/h Distance 0.07 km</desc>
<time>2010-02-25T16:16:58.54</time>
<name>50</name>
</trkpt>
<trkpt lat="48.943673" lon="8.662300">
<ele>343.5</ele>
<speed>4.0</speed>
<course>331.4</course>
<desc>Speed 4.0 km/h Distance 0.07 km</desc>
<time>2010-02-25T16:16:59.54</time>
<name>51</name>
</trkpt>
<trkpt lat="48.943683" lon="8.662292">
<ele>343.5</ele>
<speed>3.7</speed>
<course>334.8</course>
<desc>Speed 3.7 km/h Distance 0.07 km</desc>
<time>2010-02-25T16:17:00.54</time>
<name>52</name>
</trkpt>
<trkpt lat="48.943695" lon="8.662283">
<ele>343.5</ele>
<speed>4.1</speed>
<course>330.4</course>
<desc>Speed 4.1 km/h Distance 0.07 km</desc>
<time>2010-02-25T16:17:01.54</time>
<name>53</name>
</trkpt>
<trkpt lat="48.943707" lon="8.662273">
<ele>344.0</ele>
<speed>4.8</speed>
<course>330.6</course>
<desc>Speed 4.8 km/h Distance 0.07 km</desc>
<time>2010-02-25T16:17:02.54</time>
<name>54</name>
</trkpt>
<trkpt lat="48.943718" lon="8.662263">
<ele>344.0</ele>
<speed>4.6</speed>
<course>307.3</course>
<desc>Speed 4.6 km/h Distance 0.07 km</desc>
<time>2010-02-25T16:17:03.54</time>
<name>55</name>
</trkpt>
<trkpt lat="48.943727" lon="8.662247">
<ele>344.0</ele>
<speed>3.6</speed>
<course>321.9</course>
<desc>Speed 3.6 km/h Distance 0.08 km</desc>
<time>2010-02-25T16:17:04.54</time>
<name>56</name>
</trkpt>
<trkpt lat="48.943735" lon="8.662237">
<ele>344.5</ele>
<speed>4.1</speed>
<course>285.5</course>
<desc>Speed 4.1 km/h Distance 0.08 km</desc>
<time>2010-02-25T16:17:05.54</time>
<name>57</name>
</trkpt>
<trkpt lat="48.943738" lon="8.662218">
<ele>344.0</ele>
<speed>4.1</speed>
<course>294.5</course>
<desc>Speed 4.1 km/h Distance 0.08 km</desc>
<time>2010-02-25T16:17:06.54</time>
<name>58</name>
</trkpt>
<trkpt lat="48.943743" lon="8.662202">
<ele>344.0</ele>
<speed>3.7</speed>
<course>285.5</course>
<desc>Speed 3.7 km/h Distance 0.08 km</desc>
<time>2010-02-25T16:17:07.54</time>
<name>59</name>
</trkpt>
<trkpt lat="48.943747" lon="8.662183">
<ele>344.0</ele>
<speed>3.2</speed>
<course>276.7</course>
<desc>Speed 3.2 km/h Distance 0.08 km</desc>
<time>2010-02-25T16:17:08.54</time>
<name>60</name>
</trkpt>
<trkpt lat="48.943748" lon="8.662162">
<ele>344.5</ele>
<speed>3.6</speed>
<course>270.0</course>
<desc>Speed 3.6 km/h Distance 0.08 km</desc>
<time>2010-02-25T16:17:09.54</time>
<name>61</name>
</trkpt>
<trkpt lat="48.943748" lon="8.662145">
<ele>344.5</ele>
<speed>3.1</speed>
<course>270.0</course>
<desc>Speed 3.1 km/h Distance 0.08 km</desc>
<time>2010-02-25T16:17:10.54</time>
<name>62</name>
</trkpt>
<trkpt lat="48.943748" lon="8.662128">
<ele>344.0</ele>
<speed>3.5</speed>
<course>277.9</course>
<desc>Speed 3.5 km/h Distance 0.08 km</desc>
<time>2010-02-25T16:17:11.54</time>
<name>63</name>
</trkpt>
<trkpt lat="48.943750" lon="8.662110">
<ele>344.0</ele>
<speed>3.2</speed>
<course>278.7</course>
<desc>Speed 3.2 km/h Distance 0.09 km</desc>
<time>2010-02-25T16:17:12.54</time>
<name>64</name>
</trkpt>
<trkpt lat="48.943752" lon="8.662093">
<ele>344.0</ele>
<speed>4.1</speed>
<course>279.6</course>
<desc>Speed 4.1 km/h Distance 0.09 km</desc>
<time>2010-02-25T16:17:13.54</time>
<name>65</name>
</trkpt>
<trkpt lat="48.943753" lon="8.662078">
<ele>344.0</ele>
<speed>3.1</speed>
<course>286.9</course>
<desc>Speed 3.1 km/h Distance 0.09 km</desc>
<time>2010-02-25T16:17:14.54</time>
<name>66</name>
</trkpt>
<trkpt lat="48.943757" lon="8.662062">
<ele>344.0</ele>
<speed>3.2</speed>
<course>270.0</course>
<desc>Speed 3.2 km/h Distance 0.09 km</desc>
<time>2010-02-25T16:17:15.54</time>
<name>67</name>
</trkpt>
<trkpt lat="48.943757" lon="8.662042">
<ele>344.0</ele>
<speed>3.2</speed>
<course>259.2</course>
<desc>Speed 3.2 km/h Distance 0.09 km</desc>
<time>2010-02-25T16:17:16.54</time>
<name>68</name>
</trkpt>
<trkpt lat="48.943755" lon="8.662028">
<ele>344.0</ele>
<speed>2.1</speed>
<course>261.3</course>
<desc>Speed 2.1 km/h Distance 0.09 km</desc>
<time>2010-02-25T16:17:17.54</time>
<name>69</name>
</trkpt>
<trkpt lat="48.943753" lon="8.662012">
<ele>344.0</ele>
<speed>2.5</speed>
<course>286.9</course>
<desc>Speed 2.5 km/h Distance 0.09 km</desc>
<time>2010-02-25T16:17:18.54</time>
<name>70</name>
</trkpt>
<trkpt lat="48.943757" lon="8.661995">
<ele>344.0</ele>
<speed>3.5</speed>
<course>290.8</course>
<desc>Speed 3.5 km/h Distance 0.09 km</desc>
<time>2010-02-25T16:17:19.54</time>
<name>71</name>
</trkpt>
<trkpt lat="48.943760" lon="8.661982">
<ele>343.5</ele>
<speed>3.0</speed>
<course>290.8</course>
<desc>Speed 3.0 km/h Distance 0.10 km</desc>
<time>2010-02-25T16:17:20.54</time>
<name>72</name>
</trkpt>
<trkpt lat="48.943765" lon="8.661962">
<ele>344.0</ele>
<speed>4.4</speed>
<course>297.0</course>
<desc>Speed 4.4 km/h Distance 0.10 km</desc>
<time>2010-02-25T16:17:21.54</time>
<name>73</name>
</trkpt>
<trkpt lat="48.943768" lon="8.661952">
<ele>343.5</ele>
<speed>2.7</speed>
<course>270.0</course>
<desc>Speed 2.7 km/h Distance 0.10 km</desc>
<time>2010-02-25T16:17:22.54</time>
<name>74</name>
</trkpt>
<trkpt lat="48.943768" lon="8.661937">
<ele>344.0</ele>
<speed>3.0</speed>
<course>279.6</course>
<desc>Speed 3.0 km/h Distance 0.10 km</desc>
<time>2010-02-25T16:17:23.54</time>
<name>75</name>
</trkpt>
<trkpt lat="48.943770" lon="8.661922">
<ele>344.0</ele>
<speed>2.2</speed>
<course>282.3</course>
<desc>Speed 2.2 km/h Distance 0.10 km</desc>
<time>2010-02-25T16:17:24.54</time>
<name>76</name>
</trkpt>
<trkpt lat="48.943772" lon="8.661910">
<ele>344.0</ele>
<speed>2.4</speed>
<course>254.5</course>
<desc>Speed 2.4 km/h Distance 0.10 km</desc>
<time>2010-02-25T16:17:25.54</time>
<name>77</name>
</trkpt>
<trkpt lat="48.943768" lon="8.661892">
<ele>344.0</ele>
<speed>4.0</speed>
<course>270.0</course>
<desc>Speed 4.0 km/h Distance 0.10 km</desc>
<time>2010-02-25T16:17:26.54</time>
<name>78</name>
</trkpt>
<trkpt lat="48.943768" lon="8.661878">
<ele>343.5</ele>
<speed>3.9</speed>
<course>270.0</course>
<desc>Speed 3.9 km/h Distance 0.10 km</desc>
<time>2010-02-25T16:17:27.54</time>
<name>79</name>
</trkpt>
<trkpt lat="48.943768" lon="8.661865">
<ele>343.5</ele>
<speed>3.1</speed>
<course>270.0</course>
<desc>Speed 3.1 km/h Distance 0.10 km</desc>
<time>2010-02-25T16:17:28.54</time>
<name>80</name>
</trkpt>
<trkpt lat="48.943768" lon="8.661855">
<ele>343.5</ele>
<speed>1.8</speed>
<course>270.0</course>
<desc>Speed 1.8 km/h Distance 0.11 km</desc>
<time>2010-02-25T16:17:29.54</time>
<name>81</name>
</trkpt>
<trkpt lat="48.943768" lon="8.661842">
<ele>343.5</ele>
<speed>2.2</speed>
<course>270.0</course>
<desc>Speed 2.2 km/h Distance 0.11 km</desc>
<time>2010-02-25T16:17:30.54</time>
<name>82</name>
</trkpt>
<trkpt lat="48.943768" lon="8.661825">
<ele>343.5</ele>
<speed>2.1</speed>
<course>280.7</course>
<desc>Speed 2.1 km/h Distance 0.11 km</desc>
<time>2010-02-25T16:17:31.54</time>
<name>83</name>
</trkpt>
<trkpt lat="48.943770" lon="8.661812">
<ele>343.5</ele>
<speed>2.9</speed>
<course>280.8</course>
<desc>Speed 2.9 km/h Distance 0.11 km</desc>
<time>2010-02-25T16:17:32.54</time>
<name>84</name>
</trkpt>
<trkpt lat="48.943772" lon="8.661798">
<ele>343.5</ele>
<speed>2.6</speed>
<course>243.1</course>
<desc>Speed 2.6 km/h Distance 0.11 km</desc>
<time>2010-02-25T16:17:33.54</time>
<name>85</name>
</trkpt>
<trkpt lat="48.943767" lon="8.661783">
<ele>343.5</ele>
<speed>3.9</speed>
<course>279.6</course>
<desc>Speed 3.9 km/h Distance 0.11 km</desc>
<time>2010-02-25T16:17:34.54</time>
<name>86</name>
</trkpt>
<trkpt lat="48.943768" lon="8.661768">
<ele>343.0</ele>
<speed>3.2</speed>
<course>279.6</course>
<desc>Speed 3.2 km/h Distance 0.11 km</desc>
<time>2010-02-25T16:17:35.54</time>
<name>87</name>
</trkpt>
<trkpt lat="48.943770" lon="8.661753">
<ele>342.5</ele>
<speed>2.2</speed>
<course>250.6</course>
<desc>Speed 2.2 km/h Distance 0.11 km</desc>
<time>2010-02-25T16:17:36.54</time>
<name>88</name>
</trkpt>
<trkpt lat="48.943765" lon="8.661732">
<ele>342.5</ele>
<speed>3.1</speed>
<course>206.0</course>
<desc>Speed 3.1 km/h Distance 0.11 km</desc>
<time>2010-02-25T16:17:37.58</time>
<name>89</name>
</trkpt>
<trkpt lat="48.943752" lon="8.661722">
<ele>342.0</ele>
<speed>4.4</speed>
<course>246.5</course>
<desc>Speed 4.4 km/h Distance 0.12 km</desc>
<time>2010-02-25T16:17:38.59</time>
<name>90</name>
</trkpt>
<trkpt lat="48.943745" lon="8.661698">
<ele>342.0</ele>
<speed>2.8</speed>
<course>253.1</course>
<desc>Speed 2.8 km/h Distance 0.12 km</desc>
<time>2010-02-25T16:17:39.59</time>
<name>91</name>
</trkpt>
<trkpt lat="48.943742" lon="8.661682">
<ele>342.5</ele>
<speed>3.6</speed>
<course>236.9</course>
<desc>Speed 3.6 km/h Distance 0.12 km</desc>
<time>2010-02-25T16:17:40.59</time>
<name>92</name>
</trkpt>
<trkpt lat="48.943737" lon="8.661670">
<ele>342.0</ele>
<speed>3.6</speed>
<course>243.1</course>
<desc>Speed 3.6 km/h Distance 0.12 km</desc>
<time>2010-02-25T16:17:41.59</time>
<name>93</name>
</trkpt>
<trkpt lat="48.943732" lon="8.661655">
<ele>342.0</ele>
<speed>3.9</speed>
<course>235.3</course>
<desc>Speed 3.9 km/h Distance 0.12 km</desc>
<time>2010-02-25T16:17:42.59</time>
<name>94</name>
</trkpt>
<trkpt lat="48.943723" lon="8.661637">
<ele>342.0</ele>
<speed>4.4</speed>
<course>232.7</course>
<desc>Speed 4.4 km/h Distance 0.12 km</desc>
<time>2010-02-25T16:17:43.59</time>
<name>95</name>
</trkpt>
<trkpt lat="48.943717" lon="8.661623">
<ele>342.0</ele>
<speed>3.0</speed>
<course>229.1</course>
<desc>Speed 3.0 km/h Distance 0.12 km</desc>
<time>2010-02-25T16:17:44.59</time>
<name>96</name>
</trkpt>
<trkpt lat="48.943710" lon="8.661612">
<ele>342.0</ele>
<speed>3.1</speed>
<course>230.4</course>
<desc>Speed 3.1 km/h Distance 0.13 km</desc>
<time>2010-02-25T16:17:45.59</time>
<name>97</name>
</trkpt>
<trkpt lat="48.943700" lon="8.661593">
<ele>342.0</ele>
<speed>4.2</speed>
<course>246.2</course>
<desc>Speed 4.2 km/h Distance 0.13 km</desc>
<time>2010-02-25T16:17:46.59</time>
<name>98</name>
</trkpt>
<trkpt lat="48.943682" lon="8.661530">
<ele>342.5</ele>
<speed>4.2</speed>
<course>220.2</course>
<desc>Speed 4.2 km/h Distance 0.13 km</desc>
<time>2010-02-25T16:17:48.59</time>
<name>99</name>
</trkpt>
<trkpt lat="48.943670" lon="8.661515">
<ele>342.5</ele>
<speed>4.2</speed>
<course>209.4</course>
<desc>Speed 4.2 km/h Distance 0.13 km</desc>
<time>2010-02-25T16:17:49.59</time>
<name>100</name>
</trkpt>
<trkpt lat="48.943658" lon="8.661505">
<ele>343.0</ele>
<speed>3.1</speed>
<course>226.5</course>
<desc>Speed 3.1 km/h Distance 0.14 km</desc>
<time>2010-02-25T16:17:50.59</time>
<name>101</name>
</trkpt>
<trkpt lat="48.943650" lon="8.661492">
<ele>343.0</ele>
<speed>3.1</speed>
<course>225.9</course>
<desc>Speed 3.1 km/h Distance 0.14 km</desc>
<time>2010-02-25T16:17:51.59</time>
<name>102</name>
</trkpt>
<trkpt lat="48.943638" lon="8.661473">
<ele>343.0</ele>
<speed>4.2</speed>
<course>217.5</course>
<desc>Speed 4.2 km/h Distance 0.14 km</desc>
<time>2010-02-25T16:17:52.59</time>
<name>103</name>
</trkpt>
<trkpt lat="48.943628" lon="8.661462">
<ele>343.0</ele>
<speed>3.9</speed>
<course>192.6</course>
<desc>Speed 3.9 km/h Distance 0.14 km</desc>
<time>2010-02-25T16:17:53.59</time>
<name>104</name>
</trkpt>
<trkpt lat="48.943613" lon="8.661457">
<ele>343.5</ele>
<speed>5.8</speed>
<course>224.5</course>
<desc>Speed 5.8 km/h Distance 0.14 km</desc>
<time>2010-02-25T16:17:54.59</time>
<name>105</name>
</trkpt>
<trkpt lat="48.943603" lon="8.661442">
<ele>343.5</ele>
<speed>4.1</speed>
<course>237.6</course>
<desc>Speed 4.1 km/h Distance 0.14 km</desc>
<time>2010-02-25T16:17:55.59</time>
<name>106</name>
</trkpt>
<trkpt lat="48.943595" lon="8.661422">
<ele>343.5</ele>
<speed>4.3</speed>
<course>235.3</course>
<desc>Speed 4.3 km/h Distance 0.14 km</desc>
<time>2010-02-25T16:17:56.59</time>
<name>107</name>
</trkpt>
<trkpt lat="48.943587" lon="8.661403">
<ele>344.0</ele>
<speed>3.5</speed>
<course>213.7</course>
<desc>Speed 3.5 km/h Distance 0.15 km</desc>
<time>2010-02-25T16:17:57.59</time>
<name>108</name>
</trkpt>
<trkpt lat="48.943583" lon="8.661400">
<ele>344.0</ele>
<speed>1.3</speed>
<course>238.6</course>
<desc>Speed 1.3 km/h Distance 0.15 km</desc>
<time>2010-02-25T16:17:58.59</time>
<name>109</name>
</trkpt>
<trkpt lat="48.943580" lon="8.661392">
<ele>344.0</ele>
<speed>1.6</speed>
<course>243.1</course>
<desc>Speed 1.6 km/h Distance 0.15 km</desc>
<time>2010-02-25T16:17:59.59</time>
<name>110</name>
</trkpt>
<trkpt lat="48.943575" lon="8.661377">
<ele>344.0</ele>
<speed>3.2</speed>
<course>238.7</course>
<desc>Speed 3.2 km/h Distance 0.15 km</desc>
<time>2010-02-25T16:18:00.59</time>
<name>111</name>
</trkpt>
<trkpt lat="48.943568" lon="8.661360">
<ele>344.5</ele>
<speed>3.4</speed>
<course>217.5</course>
<desc>Speed 3.4 km/h Distance 0.15 km</desc>
<time>2010-02-25T16:18:01.59</time>
<name>112</name>
</trkpt>
<trkpt lat="48.943558" lon="8.661348">
<ele>344.5</ele>
<speed>4.1</speed>
<course>216.9</course>
<desc>Speed 4.1 km/h Distance 0.15 km</desc>
<time>2010-02-25T16:18:02.59</time>
<name>113</name>
</trkpt>
<trkpt lat="48.943547" lon="8.661335">
<ele>345.0</ele>
<speed>4.6</speed>
<course>229.8</course>
<desc>Speed 4.6 km/h Distance 0.15 km</desc>
<time>2010-02-25T16:18:03.59</time>
<name>114</name>
</trkpt>
<trkpt lat="48.943538" lon="8.661320">
<ele>345.0</ele>
<speed>4.4</speed>
<course>235.3</course>
<desc>Speed 4.4 km/h Distance 0.15 km</desc>
<time>2010-02-25T16:18:04.59</time>
<name>115</name>
</trkpt>
<trkpt lat="48.943530" lon="8.661302">
<ele>345.0</ele>
<speed>5.0</speed>
<course>243.1</course>
<desc>Speed 5.0 km/h Distance 0.16 km</desc>
<time>2010-02-25T16:18:05.59</time>
<name>116</name>
</trkpt>
<trkpt lat="48.943525" lon="8.661287">
<ele>345.5</ele>
<speed>3.2</speed>
<course>227.5</course>
<desc>Speed 3.2 km/h Distance 0.16 km</desc>
<time>2010-02-25T16:18:06.59</time>
<name>117</name>
</trkpt>
<trkpt lat="48.943515" lon="8.661270">
<ele>345.5</ele>
<speed>4.4</speed>
<course>227.5</course>
<desc>Speed 4.4 km/h Distance 0.16 km</desc>
<time>2010-02-25T16:18:07.59</time>
<name>118</name>
</trkpt>
<trkpt lat="48.943505" lon="8.661253">
<ele>345.5</ele>
<speed>3.9</speed>
<course>229.7</course>
<desc>Speed 3.9 km/h Distance 0.16 km</desc>
<time>2010-02-25T16:18:08.59</time>
<name>119</name>
</trkpt>
<trkpt lat="48.943497" lon="8.661238">
<ele>346.0</ele>
<speed>3.9</speed>
<course>227.4</course>
<desc>Speed 3.9 km/h Distance 0.16 km</desc>
<time>2010-02-25T16:18:09.59</time>
<name>120</name>
</trkpt>
<trkpt lat="48.943487" lon="8.661222">
<ele>346.0</ele>
<speed>4.1</speed>
<course>235.9</course>
<desc>Speed 4.1 km/h Distance 0.16 km</desc>
<time>2010-02-25T16:18:10.59</time>
<name>121</name>
</trkpt>
<trkpt lat="48.943480" lon="8.661207">
<ele>346.5</ele>
<speed>3.7</speed>
<course>232.7</course>
<desc>Speed 3.7 km/h Distance 0.17 km</desc>
<time>2010-02-25T16:18:11.59</time>
<name>122</name>
</trkpt>
<trkpt lat="48.943472" lon="8.661190">
<ele>346.5</ele>
<speed>3.7</speed>
<course>235.4</course>
<desc>Speed 3.7 km/h Distance 0.17 km</desc>
<time>2010-02-25T16:18:12.59</time>
<name>123</name>
</trkpt>
<trkpt lat="48.943463" lon="8.661172">
<ele>347.0</ele>
<speed>5.4</speed>
<course>224.7</course>
<desc>Speed 5.4 km/h Distance 0.17 km</desc>
<time>2010-02-25T16:18:13.59</time>
<name>124</name>
</trkpt>
<trkpt lat="48.943453" lon="8.661157">
<ele>347.0</ele>
<speed>4.8</speed>
<course>229.9</course>
<desc>Speed 4.8 km/h Distance 0.17 km</desc>
<time>2010-02-25T16:18:14.59</time>
<name>125</name>
</trkpt>
<trkpt lat="48.943445" lon="8.661142">
<ele>347.0</ele>
<speed>4.2</speed>
<course>232.7</course>
<desc>Speed 4.2 km/h Distance 0.17 km</desc>
<time>2010-02-25T16:18:15.59</time>
<name>126</name>
</trkpt>
<trkpt lat="48.943437" lon="8.661125">
<ele>347.0</ele>
<speed>4.3</speed>
<course>237.6</course>
<desc>Speed 4.3 km/h Distance 0.17 km</desc>
<time>2010-02-25T16:18:16.59</time>
<name>127</name>
</trkpt>
<trkpt lat="48.943428" lon="8.661105">
<ele>347.5</ele>
<speed>4.4</speed>
<course>229.7</course>
<desc>Speed 4.4 km/h Distance 0.17 km</desc>
<time>2010-02-25T16:18:17.59</time>
<name>128</name>
</trkpt>
<trkpt lat="48.943420" lon="8.661090">
<ele>347.5</ele>
<speed>4.6</speed>
<course>222.6</course>
<desc>Speed 4.6 km/h Distance 0.18 km</desc>
<time>2010-02-25T16:18:18.59</time>
<name>129</name>
</trkpt>
<trkpt lat="48.943412" lon="8.661078">
<ele>348.0</ele>
<speed>3.7</speed>
<course>270.0</course>
<desc>Speed 3.7 km/h Distance 0.18 km</desc>
<time>2010-02-25T16:18:19.59</time>
<name>130</name>
</trkpt>
<trkpt lat="48.943412" lon="8.661053">
<ele>348.0</ele>
<speed>5.3</speed>
<course>194.9</course>
<desc>Speed 5.3 km/h Distance 0.18 km</desc>
<time>2010-02-25T16:18:20.59</time>
<name>131</name>
</trkpt>
<trkpt lat="48.943400" lon="8.661048">
<ele>348.0</ele>
<speed>4.9</speed>
<course>227.6</course>
<desc>Speed 4.9 km/h Distance 0.18 km</desc>
<time>2010-02-25T16:18:21.59</time>
<name>132</name>
</trkpt>
<trkpt lat="48.943390" lon="8.661032">
<ele>348.0</ele>
<speed>5.0</speed>
<course>220.2</course>
<desc>Speed 5.0 km/h Distance 0.18 km</desc>
<time>2010-02-25T16:18:22.59</time>
<name>133</name>
</trkpt>
<trkpt lat="48.943378" lon="8.661017">
<ele>348.0</ele>
<speed>5.1</speed>
<course>232.7</course>
<desc>Speed 5.1 km/h Distance 0.18 km</desc>
<time>2010-02-25T16:18:23.59</time>
<name>134</name>
</trkpt>
<trkpt lat="48.943370" lon="8.661000">
<ele>348.0</ele>
<speed>5.1</speed>
<course>240.2</course>
<desc>Speed 5.1 km/h Distance 0.19 km</desc>
<time>2010-02-25T16:18:24.59</time>
<name>135</name>
</trkpt>
<trkpt lat="48.943365" lon="8.660987">
<ele>348.0</ele>
<speed>3.0</speed>
<course>224.5</course>
<desc>Speed 3.0 km/h Distance 0.19 km</desc>
<time>2010-02-25T16:18:25.59</time>
<name>136</name>
</trkpt>
<trkpt lat="48.943355" lon="8.660972">
<ele>348.0</ele>
<speed>4.8</speed>
<course>232.7</course>
<desc>Speed 4.8 km/h Distance 0.19 km</desc>
<time>2010-02-25T16:18:26.59</time>
<name>137</name>
</trkpt>
<trkpt lat="48.943348" lon="8.660958">
<ele>348.0</ele>
<speed>4.0</speed>
<course>220.2</course>
<desc>Speed 4.0 km/h Distance 0.19 km</desc>
<time>2010-02-25T16:18:27.59</time>
<name>138</name>
</trkpt>
<trkpt lat="48.943337" lon="8.660943">
<ele>348.0</ele>
<speed>5.4</speed>
<course>226.4</course>
<desc>Speed 5.4 km/h Distance 0.19 km</desc>
<time>2010-02-25T16:18:28.59</time>
<name>139</name>
</trkpt>
<trkpt lat="48.943328" lon="8.660930">
<ele>348.0</ele>
<speed>4.6</speed>
<course>229.8</course>
<desc>Speed 4.6 km/h Distance 0.19 km</desc>
<time>2010-02-25T16:18:29.59</time>
<name>140</name>
</trkpt>
<trkpt lat="48.943320" lon="8.660915">
<ele>348.0</ele>
<speed>4.4</speed>
<course>239.7</course>
<desc>Speed 4.4 km/h Distance 0.19 km</desc>
<time>2010-02-25T16:18:30.59</time>
<name>141</name>
</trkpt>
<trkpt lat="48.943312" lon="8.660893">
<ele>348.5</ele>
<speed>5.7</speed>
<course>230.3</course>
<desc>Speed 5.7 km/h Distance 0.20 km</desc>
<time>2010-02-25T16:18:31.59</time>
<name>142</name>
</trkpt>
<trkpt lat="48.943302" lon="8.660875">
<ele>348.5</ele>
<speed>5.2</speed>
<course>232.7</course>
<desc>Speed 5.2 km/h Distance 0.20 km</desc>
<time>2010-02-25T16:18:32.59</time>
<name>143</name>
</trkpt>
<trkpt lat="48.943290" lon="8.660852">
<ele>349.0</ele>
<speed>5.4</speed>
<course>257.7</course>
<desc>Speed 5.4 km/h Distance 0.20 km</desc>
<time>2010-02-25T16:18:33.59</time>
<name>144</name>
</trkpt>
<trkpt lat="48.943287" lon="8.660828">
<ele>349.0</ele>
<speed>5.5</speed>
<course>206.0</course>
<desc>Speed 5.5 km/h Distance 0.20 km</desc>
<time>2010-02-25T16:18:34.59</time>
<name>145</name>
</trkpt>
<trkpt lat="48.943273" lon="8.660818">
<ele>349.0</ele>
<speed>5.0</speed>
<course>220.2</course>
<desc>Speed 5.0 km/h Distance 0.20 km</desc>
<time>2010-02-25T16:18:35.59</time>
<name>146</name>
</trkpt>
<trkpt lat="48.943262" lon="8.660803">
<ele>349.0</ele>
<speed>4.9</speed>
<course>226.4</course>
<desc>Speed 4.9 km/h Distance 0.20 km</desc>
<time>2010-02-25T16:18:36.59</time>
<name>147</name>
</trkpt>
<trkpt lat="48.943253" lon="8.660790">
<ele>349.0</ele>
<speed>4.8</speed>
<course>213.2</course>
<desc>Speed 4.8 km/h Distance 0.21 km</desc>
<time>2010-02-25T16:18:37.59</time>
<name>148</name>
</trkpt>
<trkpt lat="48.943240" lon="8.660777">
<ele>349.0</ele>
<speed>5.3</speed>
<course>220.2</course>
<desc>Speed 5.3 km/h Distance 0.21 km</desc>
<time>2010-02-25T16:18:38.59</time>
<name>149</name>
</trkpt>
<trkpt lat="48.943228" lon="8.660762">
<ele>349.5</ele>
<speed>4.9</speed>
<course>222.6</course>
<desc>Speed 4.9 km/h Distance 0.21 km</desc>
<time>2010-02-25T16:18:39.59</time>
<name>150</name>
</trkpt>
<trkpt lat="48.943220" lon="8.660750">
<ele>349.5</ele>
<speed>3.5</speed>
<course>221.3</course>
<desc>Speed 3.5 km/h Distance 0.21 km</desc>
<time>2010-02-25T16:18:40.59</time>
<name>151</name>
</trkpt>
<trkpt lat="48.943210" lon="8.660737">
<ele>349.5</ele>
<speed>4.2</speed>
<course>201.5</course>
<desc>Speed 4.2 km/h Distance 0.21 km</desc>
<time>2010-02-25T16:18:41.59</time>
<name>152</name>
</trkpt>
<trkpt lat="48.943202" lon="8.660732">
<ele>349.5</ele>
<speed>2.8</speed>
<course>230.3</course>
<desc>Speed 2.8 km/h Distance 0.21 km</desc>
<time>2010-02-25T16:18:42.59</time>
<name>153</name>
</trkpt>
<trkpt lat="48.943172" lon="8.660677">
<ele>350.0</ele>
<speed>5.4</speed>
<course>223.3</course>
<desc>Speed 5.4 km/h Distance 0.22 km</desc>
<time>2010-02-25T16:18:44.59</time>
<name>154</name>
</trkpt>
<trkpt lat="48.943160" lon="8.660660">
<ele>350.0</ele>
<speed>4.9</speed>
<course>213.4</course>
<desc>Speed 4.9 km/h Distance 0.22 km</desc>
<time>2010-02-25T16:18:45.59</time>
<name>155</name>
</trkpt>
<trkpt lat="48.943148" lon="8.660648">
<ele>350.0</ele>
<speed>4.8</speed>
<course>223.3</course>
<desc>Speed 4.8 km/h Distance 0.22 km</desc>
<time>2010-02-25T16:18:46.59</time>
<name>156</name>
</trkpt>
<trkpt lat="48.943137" lon="8.660632">
<ele>350.0</ele>
<speed>4.6</speed>
<course>213.3</course>
<desc>Speed 4.6 km/h Distance 0.22 km</desc>
<time>2010-02-25T16:18:47.59</time>
<name>157</name>
</trkpt>
<trkpt lat="48.943122" lon="8.660617">
<ele>350.0</ele>
<speed>5.1</speed>
<course>221.2</course>
<desc>Speed 5.1 km/h Distance 0.23 km</desc>
<time>2010-02-25T16:18:48.59</time>
<name>158</name>
</trkpt>
<trkpt lat="48.943112" lon="8.660603">
<ele>350.0</ele>
<speed>4.5</speed>
<course>221.3</course>
<desc>Speed 4.5 km/h Distance 0.23 km</desc>
<time>2010-02-25T16:18:49.59</time>
<name>159</name>
</trkpt>
<trkpt lat="48.943102" lon="8.660590">
<ele>350.5</ele>
<speed>3.5</speed>
<course>221.2</course>
<desc>Speed 3.5 km/h Distance 0.23 km</desc>
<time>2010-02-25T16:18:50.59</time>
<name>160</name>
</trkpt>
<trkpt lat="48.943092" lon="8.660577">
<ele>350.5</ele>
<speed>4.7</speed>
<course>213.2</course>
<desc>Speed 4.7 km/h Distance 0.23 km</desc>
<time>2010-02-25T16:18:51.59</time>
<name>161</name>
</trkpt>
<trkpt lat="48.943082" lon="8.660567">
<ele>350.0</ele>
<speed>3.6</speed>
<course>213.3</course>
<desc>Speed 3.6 km/h Distance 0.23 km</desc>
<time>2010-02-25T16:18:52.59</time>
<name>162</name>
</trkpt>
<trkpt lat="48.943070" lon="8.660555">
<ele>350.0</ele>
<speed>3.3</speed>
<course>219.4</course>
<desc>Speed 3.3 km/h Distance 0.23 km</desc>
<time>2010-02-25T16:18:53.59</time>
<name>163</name>
</trkpt>
<trkpt lat="48.943057" lon="8.660538">
<ele>350.0</ele>
<speed>4.8</speed>
<course>213.2</course>
<desc>Speed 4.8 km/h Distance 0.23 km</desc>
<time>2010-02-25T16:18:54.59</time>
<name>164</name>
</trkpt>
<trkpt lat="48.943048" lon="8.660530">
<ele>350.0</ele>
<speed>3.3</speed>
<course>90.0</course>
<desc>Speed 3.3 km/h Distance 0.24 km</desc>
<time>2010-02-25T16:18:55.59</time>
<name>165</name>
</trkpt>
<trkpt lat="48.943048" lon="8.660533">
<ele>350.5</ele>
<speed>1.9</speed>
<course>221.2</course>
<desc>Speed 1.9 km/h Distance 0.24 km</desc>
<time>2010-02-25T16:18:56.59</time>
<name>166</name>
</trkpt>
<trkpt lat="48.943018" lon="8.660493">
<ele>350.5</ele>
<speed>3.6</speed>
<course>213.2</course>
<desc>Speed 3.6 km/h Distance 0.24 km</desc>
<time>2010-02-25T16:18:58.59</time>
<name>167</name>
</trkpt>
<trkpt lat="48.943005" lon="8.660480">
<ele>350.5</ele>
<speed>5.6</speed>
<course>219.4</course>
<desc>Speed 5.6 km/h Distance 0.24 km</desc>
<time>2010-02-25T16:18:59.59</time>
<name>168</name>
</trkpt>
<trkpt lat="48.942992" lon="8.660463">
<ele>350.5</ele>
<speed>5.5</speed>
<course>235.3</course>
<desc>Speed 5.5 km/h Distance 0.24 km</desc>
<time>2010-02-25T16:19:00.59</time>
<name>169</name>
</trkpt>
<trkpt lat="48.942983" lon="8.660445">
<ele>350.0</ele>
<speed>3.9</speed>
<course>229.1</course>
<desc>Speed 3.9 km/h Distance 0.25 km</desc>
<time>2010-02-25T16:19:01.59</time>
<name>170</name>
</trkpt>
<trkpt lat="48.942977" lon="8.660433">
<ele>350.5</ele>
<speed>3.0</speed>
<course>209.8</course>
<desc>Speed 3.0 km/h Distance 0.25 km</desc>
<time>2010-02-25T16:19:02.59</time>
<name>171</name>
</trkpt>
<trkpt lat="48.942963" lon="8.660422">
<ele>350.5</ele>
<speed>4.9</speed>
<course>223.2</course>
<desc>Speed 4.9 km/h Distance 0.25 km</desc>
<time>2010-02-25T16:19:03.59</time>
<name>172</name>
</trkpt>
<trkpt lat="48.942952" lon="8.660405">
<ele>350.5</ele>
<speed>5.4</speed>
<course>200.9</course>
<desc>Speed 5.4 km/h Distance 0.25 km</desc>
<time>2010-02-25T16:19:04.59</time>
<name>173</name>
</trkpt>
<trkpt lat="48.942940" lon="8.660398">
<ele>350.5</ele>
<speed>4.8</speed>
<course>201.5</course>
<desc>Speed 4.8 km/h Distance 0.25 km</desc>
<time>2010-02-25T16:19:05.59</time>
<name>174</name>
</trkpt>
<trkpt lat="48.942932" lon="8.660393">
<ele>350.5</ele>
<speed>3.1</speed>
<course>208.6</course>
<desc>Speed 3.1 km/h Distance 0.25 km</desc>
<time>2010-02-25T16:19:06.59</time>
<name>175</name>
</trkpt>
<trkpt lat="48.942922" lon="8.660385">
<ele>350.5</ele>
<speed>3.6</speed>
<course>219.4</course>
<desc>Speed 3.6 km/h Distance 0.25 km</desc>
<time>2010-02-25T16:19:07.59</time>
<name>176</name>
</trkpt>
<trkpt lat="48.942908" lon="8.660368">
<ele>350.5</ele>
<speed>5.1</speed>
<course>217.5</course>
<desc>Speed 5.1 km/h Distance 0.26 km</desc>
<time>2010-02-25T16:19:08.59</time>
<name>177</name>
</trkpt>
<trkpt lat="48.942898" lon="8.660357">
<ele>350.5</ele>
<speed>5.0</speed>
<course>209.8</course>
<desc>Speed 5.0 km/h Distance 0.26 km</desc>
<time>2010-02-25T16:19:09.59</time>
<name>178</name>
</trkpt>
<trkpt lat="48.942885" lon="8.660345">
<ele>350.5</ele>
<speed>5.4</speed>
<course>213.3</course>
<desc>Speed 5.4 km/h Distance 0.26 km</desc>
<time>2010-02-25T16:19:10.59</time>
<name>179</name>
</trkpt>
<trkpt lat="48.942872" lon="8.660332">
<ele>350.5</ele>
<speed>5.5</speed>
<course>216.5</course>
<desc>Speed 5.5 km/h Distance 0.26 km</desc>
<time>2010-02-25T16:19:11.59</time>
<name>180</name>
</trkpt>
<trkpt lat="48.942858" lon="8.660317">
<ele>350.5</ele>
<speed>5.5</speed>
<course>217.3</course>
<desc>Speed 5.5 km/h Distance 0.26 km</desc>
<time>2010-02-25T16:19:12.59</time>
<name>181</name>
</trkpt>
<trkpt lat="48.942848" lon="8.660305">
<ele>350.5</ele>
<speed>3.3</speed>
<course>210.3</course>
<desc>Speed 3.3 km/h Distance 0.26 km</desc>
<time>2010-02-25T16:19:13.59</time>
<name>182</name>
</trkpt>
<trkpt lat="48.942833" lon="8.660292">
<ele>350.5</ele>
<speed>4.4</speed>
<course>210.6</course>
<desc>Speed 4.4 km/h Distance 0.27 km</desc>
<time>2010-02-25T16:19:14.59</time>
<name>183</name>
</trkpt>
<trkpt lat="48.942817" lon="8.660277">
<ele>350.0</ele>
<speed>5.5</speed>
<course>207.7</course>
<desc>Speed 5.5 km/h Distance 0.27 km</desc>
<time>2010-02-25T16:19:16.59</time>
<name>184</name>
</trkpt>
<trkpt lat="48.942800" lon="8.660263">
<ele>350.0</ele>
<speed>5.1</speed>
<course>213.3</course>
<desc>Speed 5.1 km/h Distance 0.27 km</desc>
<time>2010-02-25T16:19:17.59</time>
<name>185</name>
</trkpt>
<trkpt lat="48.942783" lon="8.660247">
<ele>350.0</ele>
<speed>5.5</speed>
<course>216.1</course>
<desc>Speed 5.5 km/h Distance 0.27 km</desc>
<time>2010-02-25T16:19:18.59</time>
<name>186</name>
</trkpt>
<trkpt lat="48.942768" lon="8.660230">
<ele>349.5</ele>
<speed>6.2</speed>
<course>219.4</course>
<desc>Speed 6.2 km/h Distance 0.27 km</desc>
<time>2010-02-25T16:19:19.59</time>
<name>187</name>
</trkpt>
<trkpt lat="48.942755" lon="8.660213">
<ele>349.5</ele>
<speed>5.3</speed>
<course>218.9</course>
<desc>Speed 5.3 km/h Distance 0.28 km</desc>
<time>2010-02-25T16:19:20.59</time>
<name>188</name>
</trkpt>
<trkpt lat="48.942740" lon="8.660195">
<ele>349.5</ele>
<speed>5.7</speed>
<course>205.6</course>
<desc>Speed 5.7 km/h Distance 0.28 km</desc>
<time>2010-02-25T16:19:21.59</time>
<name>189</name>
</trkpt>
<trkpt lat="48.942722" lon="8.660182">
<ele>349.5</ele>
<speed>5.7</speed>
<course>223.3</course>
<desc>Speed 5.7 km/h Distance 0.28 km</desc>
<time>2010-02-25T16:19:22.59</time>
<name>190</name>
</trkpt>
<trkpt lat="48.942710" lon="8.660165">
<ele>349.0</ele>
<speed>5.3</speed>
<course>220.2</course>
<desc>Speed 5.3 km/h Distance 0.28 km</desc>
<time>2010-02-25T16:19:23.59</time>
<name>191</name>
</trkpt>
<trkpt lat="48.942698" lon="8.660150">
<ele>349.0</ele>
<speed>4.8</speed>
<course>169.8</course>
<desc>Speed 4.8 km/h Distance 0.28 km</desc>
<time>2010-02-25T16:19:24.59</time>
<name>192</name>
</trkpt>
<trkpt lat="48.942680" lon="8.660155">
<ele>349.0</ele>
<speed>6.7</speed>
<course>180.0</course>
<desc>Speed 6.7 km/h Distance 0.29 km</desc>
<time>2010-02-25T16:19:25.59</time>
<name>193</name>
</trkpt>
<trkpt lat="48.942675" lon="8.660155">
<ele>349.0</ele>
<speed>1.3</speed>
<course>209.2</course>
<desc>Speed 1.3 km/h Distance 0.29 km</desc>
<time>2010-02-25T16:19:26.59</time>
<name>194</name>
</trkpt>
<trkpt lat="48.942673" lon="8.660153">
<ele>349.0</ele>
<speed>0.4</speed>
<course>270.0</course>
<desc>Speed 0.4 km/h Distance 0.29 km</desc>
<time>2010-02-25T16:19:27.59</time>
<name>195</name>
</trkpt>
<trkpt lat="48.942673" lon="8.660145">
<ele>349.0</ele>
<speed>2.1</speed>
<course>218.1</course>
<desc>Speed 2.1 km/h Distance 0.29 km</desc>
<time>2010-02-25T16:19:28.59</time>
<name>196</name>
</trkpt>
<trkpt lat="48.942665" lon="8.660135">
<ele>349.5</ele>
<speed>3.7</speed>
<course>213.4</course>
<desc>Speed 3.7 km/h Distance 0.29 km</desc>
<time>2010-02-25T16:19:29.59</time>
<name>197</name>
</trkpt>
<trkpt lat="48.942652" lon="8.660122">
<ele>349.5</ele>
<speed>5.1</speed>
<course>220.3</course>
<desc>Speed 5.1 km/h Distance 0.29 km</desc>
<time>2010-02-25T16:19:30.59</time>
<name>198</name>
</trkpt>
<trkpt lat="48.942640" lon="8.660107">
<ele>349.5</ele>
<speed>5.7</speed>
<course>213.4</course>
<desc>Speed 5.7 km/h Distance 0.29 km</desc>
<time>2010-02-25T16:19:31.59</time>
<name>199</name>
</trkpt>
<trkpt lat="48.942627" lon="8.660093">
<ele>349.0</ele>
<speed>5.5</speed>
<course>210.1</course>
<desc>Speed 5.5 km/h Distance 0.29 km</desc>
<time>2010-02-25T16:19:32.59</time>
<name>200</name>
</trkpt>
<trkpt lat="48.942613" lon="8.660082">
<ele>349.0</ele>
<speed>5.3</speed>
<course>210.3</course>
<desc>Speed 5.3 km/h Distance 0.30 km</desc>
<time>2010-02-25T16:19:33.59</time>
<name>201</name>
</trkpt>
<trkpt lat="48.942598" lon="8.660068">
<ele>349.0</ele>
<speed>5.3</speed>
<course>207.2</course>
<desc>Speed 5.3 km/h Distance 0.30 km</desc>
<time>2010-02-25T16:19:34.59</time>
<name>202</name>
</trkpt>
<trkpt lat="48.942583" lon="8.660057">
<ele>348.5</ele>
<speed>5.3</speed>
<course>216.9</course>
<desc>Speed 5.3 km/h Distance 0.30 km</desc>
<time>2010-02-25T16:19:35.59</time>
<name>203</name>
</trkpt>
<trkpt lat="48.942572" lon="8.660043">
<ele>348.5</ele>
<speed>5.4</speed>
<course>220.2</course>
<desc>Speed 5.4 km/h Distance 0.30 km</desc>
<time>2010-02-25T16:19:36.59</time>
<name>204</name>
</trkpt>
<trkpt lat="48.942560" lon="8.660028">
<ele>348.5</ele>
<speed>5.5</speed>
<course>209.8</course>
<desc>Speed 5.5 km/h Distance 0.30 km</desc>
<time>2010-02-25T16:19:37.59</time>
<name>205</name>
</trkpt>
<trkpt lat="48.942547" lon="8.660017">
<ele>348.5</ele>
<speed>5.1</speed>
<course>206.2</course>
<desc>Speed 5.1 km/h Distance 0.31 km</desc>
<time>2010-02-25T16:19:38.59</time>
<name>206</name>
</trkpt>
<trkpt lat="48.942533" lon="8.660007">
<ele>348.5</ele>
<speed>5.0</speed>
<course>220.2</course>
<desc>Speed 5.0 km/h Distance 0.31 km</desc>
<time>2010-02-25T16:19:39.59</time>
<name>207</name>
</trkpt>
<trkpt lat="48.942522" lon="8.659992">
<ele>348.5</ele>
<speed>5.4</speed>
<course>213.4</course>
<desc>Speed 5.4 km/h Distance 0.31 km</desc>
<time>2010-02-25T16:19:40.59</time>
<name>208</name>
</trkpt>
<trkpt lat="48.942508" lon="8.659978">
<ele>348.5</ele>
<speed>5.4</speed>
<course>220.2</course>
<desc>Speed 5.4 km/h Distance 0.31 km</desc>
<time>2010-02-25T16:19:41.59</time>
<name>209</name>
</trkpt>
<trkpt lat="48.942497" lon="8.659963">
<ele>348.5</ele>
<speed>5.4</speed>
<course>216.9</course>
<desc>Speed 5.4 km/h Distance 0.31 km</desc>
<time>2010-02-25T16:19:42.59</time>
<name>210</name>
</trkpt>
<trkpt lat="48.942485" lon="8.659950">
<ele>348.5</ele>
<speed>5.8</speed>
<course>216.6</course>
<desc>Speed 5.8 km/h Distance 0.31 km</desc>
<time>2010-02-25T16:19:43.59</time>
<name>211</name>
</trkpt>
<trkpt lat="48.942472" lon="8.659935">
<ele>348.5</ele>
<speed>6.0</speed>
<course>210.3</course>
<desc>Speed 6.0 km/h Distance 0.32 km</desc>
<time>2010-02-25T16:19:44.59</time>
<name>212</name>
</trkpt>
<trkpt lat="48.942457" lon="8.659922">
<ele>348.5</ele>
<speed>5.9</speed>
<course>219.4</course>
<desc>Speed 5.9 km/h Distance 0.32 km</desc>
<time>2010-02-25T16:19:45.59</time>
<name>213</name>
</trkpt>
<trkpt lat="48.942443" lon="8.659905">
<ele>348.5</ele>
<speed>6.4</speed>
<course>216.6</course>
<desc>Speed 6.4 km/h Distance 0.32 km</desc>
<time>2010-02-25T16:19:46.59</time>
<name>214</name>
</trkpt>
<trkpt lat="48.942430" lon="8.659890">
<ele>348.5</ele>
<speed>5.6</speed>
<course>227.5</course>
<desc>Speed 5.6 km/h Distance 0.32 km</desc>
<time>2010-02-25T16:19:47.59</time>
<name>215</name>
</trkpt>
<trkpt lat="48.942420" lon="8.659873">
<ele>349.0</ele>
<speed>5.0</speed>
<course>243.1</course>
<desc>Speed 5.0 km/h Distance 0.32 km</desc>
<time>2010-02-25T16:19:48.59</time>
<name>216</name>
</trkpt>
<trkpt lat="48.942415" lon="8.659858">
<ele>349.0</ele>
<speed>4.4</speed>
<course>233.0</course>
<desc>Speed 4.4 km/h Distance 0.32 km</desc>
<time>2010-02-25T16:19:49.59</time>
<name>217</name>
</trkpt>
<trkpt lat="48.942412" lon="8.659852">
<ele>349.0</ele>
<speed>2.1</speed>
<course>217.2</course>
<desc>Speed 2.1 km/h Distance 0.32 km</desc>
<time>2010-02-25T16:19:50.59</time>
<name>218</name>
</trkpt>
<trkpt lat="48.942410" lon="8.659850">
<ele>349.0</ele>
<speed>0.5</speed>
<course>189.0</course>
<desc>Speed 0.5 km/h Distance 0.32 km</desc>
<time>2010-02-25T16:19:51.59</time>
<name>219</name>
</trkpt>
<trkpt lat="48.942397" lon="8.659847">
<ele>349.0</ele>
<speed>4.6</speed>
<course>193.5</course>
<desc>Speed 4.6 km/h Distance 0.33 km</desc>
<time>2010-02-25T16:19:52.59</time>
<name>220</name>
</trkpt>
<trkpt lat="48.942383" lon="8.659842">
<ele>349.0</ele>
<speed>5.2</speed>
<course>209.4</course>
<desc>Speed 5.2 km/h Distance 0.33 km</desc>
<time>2010-02-25T16:19:53.59</time>
<name>221</name>
</trkpt>
<trkpt lat="48.942372" lon="8.659832">
<ele>349.5</ele>
<speed>4.1</speed>
<course>189.0</course>
<desc>Speed 4.1 km/h Distance 0.33 km</desc>
<time>2010-02-25T16:19:54.59</time>
<name>222</name>
</trkpt>
<trkpt lat="48.942358" lon="8.659828">
<ele>349.5</ele>
<speed>4.8</speed>
<course>180.0</course>
<desc>Speed 4.8 km/h Distance 0.33 km</desc>
<time>2010-02-25T16:19:55.59</time>
<name>223</name>
</trkpt>
<trkpt lat="48.942347" lon="8.659828">
<ele>349.5</ele>
<speed>4.4</speed>
<course>184.4</course>
<desc>Speed 4.4 km/h Distance 0.33 km</desc>
<time>2010-02-25T16:19:56.59</time>
<name>224</name>
</trkpt>
<trkpt lat="48.942337" lon="8.659827">
<ele>349.5</ele>
<speed>3.6</speed>
<course>194.9</course>
<desc>Speed 3.6 km/h Distance 0.33 km</desc>
<time>2010-02-25T16:19:57.59</time>
<name>225</name>
</trkpt>
<trkpt lat="48.942328" lon="8.659823">
<ele>349.5</ele>
<speed>2.9</speed>
<course>198.1</course>
<desc>Speed 2.9 km/h Distance 0.33 km</desc>
<time>2010-02-25T16:19:58.74</time>
<name>226</name>
</trkpt>
<trkpt lat="48.942315" lon="8.659817">
<ele>349.5</ele>
<speed>4.6</speed>
<course>184.7</course>
<desc>Speed 4.6 km/h Distance 0.34 km</desc>
<time>2010-02-25T16:19:59.60</time>
<name>227</name>
</trkpt>
<trkpt lat="48.942303" lon="8.659815">
<ele>349.5</ele>
<speed>4.2</speed>
<course>183.9</course>
<desc>Speed 4.2 km/h Distance 0.34 km</desc>
<time>2010-02-25T16:20:00.60</time>
<name>228</name>
</trkpt>
<trkpt lat="48.942290" lon="8.659813">
<ele>349.5</ele>
<speed>4.5</speed>
<course>191.2</course>
<desc>Speed 4.5 km/h Distance 0.34 km</desc>
<time>2010-02-25T16:20:01.60</time>
<name>229</name>
</trkpt>
<trkpt lat="48.942278" lon="8.659810">
<ele>349.5</ele>
<speed>4.0</speed>
<course>200.1</course>
<desc>Speed 4.0 km/h Distance 0.34 km</desc>
<time>2010-02-25T16:20:02.60</time>
<name>230</name>
</trkpt>
<trkpt lat="48.942263" lon="8.659802">
<ele>349.5</ele>
<speed>4.7</speed>
<course>205.2</course>
<desc>Speed 4.7 km/h Distance 0.34 km</desc>
<time>2010-02-25T16:20:03.60</time>
<name>231</name>
</trkpt>
<trkpt lat="48.942252" lon="8.659793">
<ele>349.5</ele>
<speed>4.0</speed>
<course>189.7</course>
<desc>Speed 4.0 km/h Distance 0.34 km</desc>
<time>2010-02-25T16:20:04.60</time>
<name>232</name>
</trkpt>
<trkpt lat="48.942238" lon="8.659790">
<ele>349.5</ele>
<speed>4.0</speed>
<course>192.6</course>
<desc>Speed 4.0 km/h Distance 0.34 km</desc>
<time>2010-02-25T16:20:05.60</time>
<name>233</name>
</trkpt>
<trkpt lat="48.942223" lon="8.659785">
<ele>349.5</ele>
<speed>5.4</speed>
<course>192.2</course>
<desc>Speed 5.4 km/h Distance 0.35 km</desc>
<time>2010-02-25T16:20:06.60</time>
<name>234</name>
</trkpt>
<trkpt lat="48.942208" lon="8.659780">
<ele>349.5</ele>
<speed>5.5</speed>
<course>192.6</course>
<desc>Speed 5.5 km/h Distance 0.35 km</desc>
<time>2010-02-25T16:20:07.60</time>
<name>235</name>
</trkpt>
<trkpt lat="48.942193" lon="8.659775">
<ele>349.5</ele>
<speed>5.6</speed>
<course>192.2</course>
<desc>Speed 5.6 km/h Distance 0.35 km</desc>
<time>2010-02-25T16:20:08.60</time>
<name>236</name>
</trkpt>
<trkpt lat="48.942178" lon="8.659770">
<ele>349.5</ele>
<speed>5.2</speed>
<course>189.7</course>
<desc>Speed 5.2 km/h Distance 0.35 km</desc>
<time>2010-02-25T16:20:09.61</time>
<name>237</name>
</trkpt>
<trkpt lat="48.942165" lon="8.659767">
<ele>349.5</ele>
<speed>5.0</speed>
<course>196.0</course>
<desc>Speed 5.0 km/h Distance 0.35 km</desc>
<time>2010-02-25T16:20:10.60</time>
<name>238</name>
</trkpt>
<trkpt lat="48.942153" lon="8.659762">
<ele>349.5</ele>
<speed>4.4</speed>
<course>186.3</course>
<desc>Speed 4.4 km/h Distance 0.35 km</desc>
<time>2010-02-25T16:20:11.60</time>
<name>239</name>
</trkpt>
<trkpt lat="48.942142" lon="8.659760">
<ele>349.0</ele>
<speed>3.9</speed>
<course>193.5</course>
<desc>Speed 3.9 km/h Distance 0.36 km</desc>
<time>2010-02-25T16:20:12.60</time>
<name>240</name>
</trkpt>
<trkpt lat="48.942128" lon="8.659755">
<ele>349.0</ele>
<speed>4.6</speed>
<course>198.1</course>
<desc>Speed 4.6 km/h Distance 0.36 km</desc>
<time>2010-02-25T16:20:13.60</time>
<name>241</name>
</trkpt>
<trkpt lat="48.942115" lon="8.659748">
<ele>349.0</ele>
<speed>4.7</speed>
<course>200.1</course>
<desc>Speed 4.7 km/h Distance 0.36 km</desc>
<time>2010-02-25T16:20:14.60</time>
<name>242</name>
</trkpt>
<trkpt lat="48.942100" lon="8.659740">
<ele>349.0</ele>
<speed>5.5</speed>
<course>189.0</course>
<desc>Speed 5.5 km/h Distance 0.36 km</desc>
<time>2010-02-25T16:20:15.60</time>
<name>243</name>
</trkpt>
<trkpt lat="48.942087" lon="8.659737">
<ele>349.0</ele>
<speed>3.9</speed>
<course>139.1</course>
<desc>Speed 3.9 km/h Distance 0.36 km</desc>
<time>2010-02-25T16:20:16.60</time>
<name>244</name>
</trkpt>
<trkpt lat="48.942082" lon="8.659743">
<ele>349.0</ele>
<speed>1.8</speed>
<course>161.2</course>
<desc>Speed 1.8 km/h Distance 0.36 km</desc>
<time>2010-02-25T16:20:17.60</time>
<name>245</name>
</trkpt>
<trkpt lat="48.942075" lon="8.659747">
<ele>349.0</ele>
<speed>2.6</speed>
<course>198.2</course>
<desc>Speed 2.6 km/h Distance 0.36 km</desc>
<time>2010-02-25T16:20:18.60</time>
<name>246</name>
</trkpt>
<trkpt lat="48.942065" lon="8.659742">
<ele>349.0</ele>
<speed>3.6</speed>
<course>180.0</course>
<desc>Speed 3.6 km/h Distance 0.36 km</desc>
<time>2010-02-25T16:20:19.60</time>
<name>247</name>
</trkpt>
<trkpt lat="48.942055" lon="8.659742">
<ele>349.0</ele>
<speed>3.5</speed>
<course>150.6</course>
<desc>Speed 3.5 km/h Distance 0.37 km</desc>
<time>2010-02-25T16:20:20.60</time>
<name>248</name>
</trkpt>
<trkpt lat="48.942043" lon="8.659752">
<ele>349.0</ele>
<speed>3.6</speed>
<course>159.8</course>
<desc>Speed 3.6 km/h Distance 0.37 km</desc>
<time>2010-02-25T16:20:21.60</time>
<name>249</name>
</trkpt>
<trkpt lat="48.942032" lon="8.659758">
<ele>349.0</ele>
<speed>5.0</speed>
<course>180.0</course>
<desc>Speed 5.0 km/h Distance 0.37 km</desc>
<time>2010-02-25T16:20:22.60</time>
<name>250</name>
</trkpt>
<trkpt lat="48.942023" lon="8.659758">
<ele>349.0</ele>
<speed>2.9</speed>
<course>186.6</course>
<desc>Speed 2.9 km/h Distance 0.37 km</desc>
<time>2010-02-25T16:20:23.60</time>
<name>251</name>
</trkpt>
<trkpt lat="48.942013" lon="8.659757">
<ele>349.0</ele>
<speed>2.4</speed>
<course>184.7</course>
<desc>Speed 2.4 km/h Distance 0.37 km</desc>
<time>2010-02-25T16:20:24.60</time>
<name>252</name>
</trkpt>
<trkpt lat="48.942002" lon="8.659755">
<ele>348.5</ele>
<speed>3.5</speed>
<course>183.9</course>
<desc>Speed 3.5 km/h Distance 0.37 km</desc>
<time>2010-02-25T16:20:25.60</time>
<name>253</name>
</trkpt>
<trkpt lat="48.941988" lon="8.659753">
<ele>348.5</ele>
<speed>3.6</speed>
<course>183.8</course>
<desc>Speed 3.6 km/h Distance 0.37 km</desc>
<time>2010-02-25T16:20:26.60</time>
<name>254</name>
</trkpt>
<trkpt lat="48.941973" lon="8.659752">
<ele>348.0</ele>
<speed>4.1</speed>
<course>178.8</course>
<desc>Speed 4.1 km/h Distance 0.38 km</desc>
<time>2010-02-25T16:20:27.60</time>
<name>255</name>
</trkpt>
<trkpt lat="48.941960" lon="8.659752">
<ele>348.0</ele>
<speed>4.2</speed>
<course>175.0</course>
<desc>Speed 4.2 km/h Distance 0.38 km</desc>
<time>2010-02-25T16:20:28.60</time>
<name>256</name>
</trkpt>
<trkpt lat="48.941943" lon="8.659753">
<ele>348.0</ele>
<speed>5.2</speed>
<course>168.8</course>
<desc>Speed 5.2 km/h Distance 0.38 km</desc>
<time>2010-02-25T16:20:29.61</time>
<name>257</name>
</trkpt>
<trkpt lat="48.941927" lon="8.659758">
<ele>347.5</ele>
<speed>4.9</speed>
<course>177.2</course>
<desc>Speed 4.9 km/h Distance 0.38 km</desc>
<time>2010-02-25T16:20:30.60</time>
<name>258</name>
</trkpt>
<trkpt lat="48.941910" lon="8.659758">
<ele>347.5</ele>
<speed>5.1</speed>
<course>183.8</course>
<desc>Speed 5.1 km/h Distance 0.38 km</desc>
<time>2010-02-25T16:20:31.60</time>
<name>259</name>
</trkpt>
<trkpt lat="48.941895" lon="8.659757">
<ele>347.0</ele>
<speed>4.9</speed>
<course>187.5</course>
<desc>Speed 4.9 km/h Distance 0.38 km</desc>
<time>2010-02-25T16:20:32.60</time>
<name>260</name>
</trkpt>
<trkpt lat="48.941880" lon="8.659753">
<ele>347.0</ele>
<speed>4.5</speed>
<course>178.8</course>
<desc>Speed 4.5 km/h Distance 0.39 km</desc>
<time>2010-02-25T16:20:33.60</time>
<name>261</name>
</trkpt>
<trkpt lat="48.941867" lon="8.659753">
<ele>347.0</ele>
<speed>4.4</speed>
<course>153.8</course>
<desc>Speed 4.4 km/h Distance 0.39 km</desc>
<time>2010-02-25T16:20:34.60</time>
<name>262</name>
</trkpt>
<trkpt lat="48.941847" lon="8.659768">
<ele>347.0</ele>
<speed>8.1</speed>
<course>158.5</course>
<desc>Speed 8.1 km/h Distance 0.39 km</desc>
<time>2010-02-25T16:20:35.60</time>
<name>263</name>
</trkpt>
<trkpt lat="48.941830" lon="8.659778">
<ele>347.0</ele>
<speed>5.1</speed>
<course>185.3</course>
<desc>Speed 5.1 km/h Distance 0.39 km</desc>
<time>2010-02-25T16:20:36.60</time>
<name>264</name>
</trkpt>
<trkpt lat="48.941817" lon="8.659777">
<ele>347.0</ele>
<speed>3.9</speed>
<course>180.0</course>
<desc>Speed 3.9 km/h Distance 0.39 km</desc>
<time>2010-02-25T16:20:37.60</time>
<name>265</name>
</trkpt>
<trkpt lat="48.941800" lon="8.659777">
<ele>347.5</ele>
<speed>5.2</speed>
<course>187.0</course>
<desc>Speed 5.2 km/h Distance 0.39 km</desc>
<time>2010-02-25T16:20:38.60</time>
<name>266</name>
</trkpt>
<trkpt lat="48.941782" lon="8.659773">
<ele>347.5</ele>
<speed>5.9</speed>
<course>236.1</course>
<desc>Speed 5.9 km/h Distance 0.40 km</desc>
<time>2010-02-25T16:20:39.60</time>
<name>267</name>
</trkpt>
<trkpt lat="48.941775" lon="8.659758">
<ele>347.5</ele>
<speed>4.4</speed>
<course>209.4</course>
<desc>Speed 4.4 km/h Distance 0.40 km</desc>
<time>2010-02-25T16:20:40.60</time>
<name>268</name>
</trkpt>
<trkpt lat="48.941763" lon="8.659748">
<ele>347.5</ele>
<speed>5.1</speed>
<course>191.2</course>
<desc>Speed 5.1 km/h Distance 0.40 km</desc>
<time>2010-02-25T16:20:41.60</time>
<name>269</name>
</trkpt>
<trkpt lat="48.941752" lon="8.659745">
<ele>347.5</ele>
<speed>4.5</speed>
<course>169.8</course>
<desc>Speed 4.5 km/h Distance 0.40 km</desc>
<time>2010-02-25T16:20:42.60</time>
<name>270</name>
</trkpt>
<trkpt lat="48.941733" lon="8.659750">
<ele>347.5</ele>
<speed>7.1</speed>
<course>178.8</course>
<desc>Speed 7.1 km/h Distance 0.40 km</desc>
<time>2010-02-25T16:20:43.60</time>
<name>271</name>
</trkpt>
<trkpt lat="48.941720" lon="8.659750">
<ele>347.5</ele>
<speed>4.9</speed>
<course>175.3</course>
<desc>Speed 4.9 km/h Distance 0.40 km</desc>
<time>2010-02-25T16:20:44.60</time>
<name>272</name>
</trkpt>
<trkpt lat="48.941708" lon="8.659752">
<ele>347.5</ele>
<speed>3.9</speed>
<course>207.9</course>
<desc>Speed 3.9 km/h Distance 0.41 km</desc>
<time>2010-02-25T16:20:45.60</time>
<name>273</name>
</trkpt>
<trkpt lat="48.941700" lon="8.659745">
<ele>347.5</ele>
<speed>3.3</speed>
<course>186.6</course>
<desc>Speed 3.3 km/h Distance 0.41 km</desc>
<time>2010-02-25T16:20:46.60</time>
<name>274</name>
</trkpt>
<trkpt lat="48.941690" lon="8.659743">
<ele>348.0</ele>
<speed>2.8</speed>
<course>229.1</course>
<desc>Speed 2.8 km/h Distance 0.41 km</desc>
<time>2010-02-25T16:20:47.60</time>
<name>275</name>
</trkpt>
<trkpt lat="48.941683" lon="8.659732">
<ele>348.0</ele>
<speed>3.8</speed>
<course>180.0</course>
<desc>Speed 3.8 km/h Distance 0.41 km</desc>
<time>2010-02-25T16:20:48.60</time>
<name>276</name>
</trkpt>
<trkpt lat="48.941680" lon="8.659732">
<ele>348.0</ele>
<speed>1.2</speed>
<course>90.0</course>
<desc>Speed 1.2 km/h Distance 0.41 km</desc>
<time>2010-02-25T16:20:49.60</time>
<name>277</name>
</trkpt>
<trkpt lat="48.941680" lon="8.659743">
<ele>348.0</ele>
<speed>3.1</speed>
<course>147.7</course>
<desc>Speed 3.1 km/h Distance 0.41 km</desc>
<time>2010-02-25T16:20:50.60</time>
<name>278</name>
</trkpt>
<trkpt lat="48.941675" lon="8.659748">
<ele>348.0</ele>
<speed>1.9</speed>
<course>165.1</course>
<desc>Speed 1.9 km/h Distance 0.41 km</desc>
<time>2010-02-25T16:20:51.60</time>
<name>279</name>
</trkpt>
<trkpt lat="48.941667" lon="8.659752">
<ele>348.0</ele>
<speed>3.5</speed>
<course>170.5</course>
<desc>Speed 3.5 km/h Distance 0.41 km</desc>
<time>2010-02-25T16:20:52.60</time>
<name>280</name>
</trkpt>
<trkpt lat="48.941655" lon="8.659755">
<ele>348.0</ele>
<speed>4.1</speed>
<course>180.0</course>
<desc>Speed 4.1 km/h Distance 0.41 km</desc>
<time>2010-02-25T16:20:53.60</time>
<name>281</name>
</trkpt>
<trkpt lat="48.941643" lon="8.659755">
<ele>348.0</ele>
<speed>4.1</speed>
<course>177.8</course>
<desc>Speed 4.1 km/h Distance 0.41 km</desc>
<time>2010-02-25T16:20:54.60</time>
<name>282</name>
</trkpt>
<trkpt lat="48.941632" lon="8.659755">
<ele>348.0</ele>
<speed>4.2</speed>
<course>183.9</course>
<desc>Speed 4.2 km/h Distance 0.42 km</desc>
<time>2010-02-25T16:20:55.60</time>
<name>283</name>
</trkpt>
<trkpt lat="48.941618" lon="8.659753">
<ele>348.0</ele>
<speed>4.2</speed>
<course>193.5</course>
<desc>Speed 4.2 km/h Distance 0.42 km</desc>
<time>2010-02-25T16:20:56.60</time>
<name>284</name>
</trkpt>
<trkpt lat="48.941605" lon="8.659748">
<ele>348.0</ele>
<speed>4.2</speed>
<course>195.5</course>
<desc>Speed 4.2 km/h Distance 0.42 km</desc>
<time>2010-02-25T16:20:57.60</time>
<name>285</name>
</trkpt>
<trkpt lat="48.941593" lon="8.659743">
<ele>348.0</ele>
<speed>3.9</speed>
<course>196.3</course>
<desc>Speed 3.9 km/h Distance 0.42 km</desc>
<time>2010-02-25T16:20:58.60</time>
<name>286</name>
</trkpt>
<trkpt lat="48.941578" lon="8.659737">
<ele>348.0</ele>
<speed>4.5</speed>
<course>198.1</course>
<desc>Speed 4.5 km/h Distance 0.42 km</desc>
<time>2010-02-25T16:20:59.60</time>
<name>287</name>
</trkpt>
<trkpt lat="48.941565" lon="8.659730">
<ele>348.0</ele>
<speed>5.4</speed>
<course>208.6</course>
<desc>Speed 5.4 km/h Distance 0.42 km</desc>
<time>2010-02-25T16:21:00.60</time>
<name>288</name>
</trkpt>
<trkpt lat="48.941555" lon="8.659722">
<ele>348.0</ele>
<speed>3.9</speed>
<course>193.5</course>
<desc>Speed 3.9 km/h Distance 0.43 km</desc>
<time>2010-02-25T16:21:01.60</time>
<name>289</name>
</trkpt>
<trkpt lat="48.941542" lon="8.659717">
<ele>348.0</ele>
<speed>4.6</speed>
<course>182.5</course>
<desc>Speed 4.6 km/h Distance 0.43 km</desc>
<time>2010-02-25T16:21:02.60</time>
<name>290</name>
</trkpt>
<trkpt lat="48.941523" lon="8.659715">
<ele>348.0</ele>
<speed>5.8</speed>
<course>183.8</course>
<desc>Speed 5.8 km/h Distance 0.43 km</desc>
<time>2010-02-25T16:21:03.60</time>
<name>291</name>
</trkpt>
<trkpt lat="48.941508" lon="8.659713">
<ele>348.0</ele>
<speed>5.0</speed>
<course>183.8</course>
<desc>Speed 5.0 km/h Distance 0.43 km</desc>
<time>2010-02-25T16:21:04.60</time>
<name>292</name>
</trkpt>
<trkpt lat="48.941493" lon="8.659712">
<ele>348.0</ele>
<speed>4.7</speed>
<course>184.1</course>
<desc>Speed 4.7 km/h Distance 0.43 km</desc>
<time>2010-02-25T16:21:05.60</time>
<name>293</name>
</trkpt>
<trkpt lat="48.941477" lon="8.659710">
<ele>348.0</ele>
<speed>5.3</speed>
<course>167.7</course>
<desc>Speed 5.3 km/h Distance 0.43 km</desc>
<time>2010-02-25T16:21:06.60</time>
<name>294</name>
</trkpt>
<trkpt lat="48.941452" lon="8.659718">
<ele>348.0</ele>
<speed>8.5</speed>
<course>200.9</course>
<desc>Speed 8.5 km/h Distance 0.44 km</desc>
<time>2010-02-25T16:21:07.60</time>
<name>295</name>
</trkpt>
<trkpt lat="48.941440" lon="8.659712">
<ele>348.0</ele>
<speed>4.6</speed>
<course>192.6</course>
<desc>Speed 4.6 km/h Distance 0.44 km</desc>
<time>2010-02-25T16:21:08.60</time>
<name>296</name>
</trkpt>
<trkpt lat="48.941425" lon="8.659707">
<ele>348.0</ele>
<speed>5.2</speed>
<course>195.5</course>
<desc>Speed 5.2 km/h Distance 0.44 km</desc>
<time>2010-02-25T16:21:09.60</time>
<name>297</name>
</trkpt>
<trkpt lat="48.941413" lon="8.659702">
<ele>348.0</ele>
<speed>4.3</speed>
<course>198.4</course>
<desc>Speed 4.3 km/h Distance 0.44 km</desc>
<time>2010-02-25T16:21:10.60</time>
<name>298</name>
</trkpt>
<trkpt lat="48.941400" lon="8.659695">
<ele>348.0</ele>
<speed>5.0</speed>
<course>183.7</course>
<desc>Speed 5.0 km/h Distance 0.44 km</desc>
<time>2010-02-25T16:21:11.60</time>
<name>299</name>
</trkpt>
<trkpt lat="48.941380" lon="8.659693">
<ele>348.0</ele>
<speed>5.8</speed>
<course>190.2</course>
<desc>Speed 5.8 km/h Distance 0.44 km</desc>
<time>2010-02-25T16:21:12.60</time>
<name>300</name>
</trkpt>
<trkpt lat="48.941362" lon="8.659688">
<ele>348.0</ele>
<speed>5.5</speed>
<course>198.2</course>
<desc>Speed 5.5 km/h Distance 0.45 km</desc>
<time>2010-02-25T16:21:13.60</time>
<name>301</name>
</trkpt>
<trkpt lat="48.941352" lon="8.659683">
<ele>348.0</ele>
<speed>4.1</speed>
<course>209.4</course>
<desc>Speed 4.1 km/h Distance 0.45 km</desc>
<time>2010-02-25T16:21:14.60</time>
<name>302</name>
</trkpt>
<trkpt lat="48.941340" lon="8.659673">
<ele>348.0</ele>
<speed>4.3</speed>
<course>180.0</course>
<desc>Speed 4.3 km/h Distance 0.45 km</desc>
<time>2010-02-25T16:21:15.60</time>
<name>303</name>
</trkpt>
<trkpt lat="48.941328" lon="8.659673">
<ele>348.0</ele>
<speed>3.6</speed>
<course>194.9</course>
<desc>Speed 3.6 km/h Distance 0.45 km</desc>
<time>2010-02-25T16:21:16.60</time>
<name>304</name>
</trkpt>
<trkpt lat="48.941312" lon="8.659667">
<ele>348.0</ele>
<speed>5.3</speed>
<course>196.6</course>
<desc>Speed 5.3 km/h Distance 0.45 km</desc>
<time>2010-02-25T16:21:17.60</time>
<name>305</name>
</trkpt>
<trkpt lat="48.941297" lon="8.659660">
<ele>348.0</ele>
<speed>5.0</speed>
<course>187.1</course>
<desc>Speed 5.0 km/h Distance 0.45 km</desc>
<time>2010-02-25T16:21:18.60</time>
<name>306</name>
</trkpt>
<trkpt lat="48.941280" lon="8.659657">
<ele>348.0</ele>
<speed>5.8</speed>
<course>202.1</course>
<desc>Speed 5.8 km/h Distance 0.46 km</desc>
<time>2010-02-25T16:21:19.60</time>
<name>307</name>
</trkpt>
<trkpt lat="48.941267" lon="8.659648">
<ele>348.0</ele>
<speed>4.9</speed>
<course>206.2</course>
<desc>Speed 4.9 km/h Distance 0.46 km</desc>
<time>2010-02-25T16:21:20.60</time>
<name>308</name>
</trkpt>
<trkpt lat="48.941253" lon="8.659638">
<ele>347.5</ele>
<speed>5.1</speed>
<course>191.2</course>
<desc>Speed 5.1 km/h Distance 0.46 km</desc>
<time>2010-02-25T16:21:21.60</time>
<name>309</name>
</trkpt>
<trkpt lat="48.941237" lon="8.659633">
<ele>347.5</ele>
<speed>5.3</speed>
<course>187.5</course>
<desc>Speed 5.3 km/h Distance 0.46 km</desc>
<time>2010-02-25T16:21:22.60</time>
<name>310</name>
</trkpt>
<trkpt lat="48.941222" lon="8.659630">
<ele>347.5</ele>
<speed>3.9</speed>
<course>102.4</course>
<desc>Speed 3.9 km/h Distance 0.46 km</desc>
<time>2010-02-25T16:21:23.60</time>
<name>311</name>
</trkpt>
<trkpt lat="48.941220" lon="8.659642">
<ele>347.5</ele>
<speed>2.8</speed>
<course>123.3</course>
<desc>Speed 2.8 km/h Distance 0.46 km</desc>
<time>2010-02-25T16:21:24.60</time>
<name>312</name>
</trkpt>
<trkpt lat="48.941215" lon="8.659653">
<ele>347.5</ele>
<speed>2.6</speed>
<course>127.6</course>
<desc>Speed 2.6 km/h Distance 0.47 km</desc>
<time>2010-02-25T16:21:25.60</time>
<name>313</name>
</trkpt>
<trkpt lat="48.941212" lon="8.659660">
<ele>347.5</ele>
<speed>2.3</speed>
<course>167.4</course>
<desc>Speed 2.3 km/h Distance 0.47 km</desc>
<time>2010-02-25T16:21:26.60</time>
<name>314</name>
</trkpt>
<trkpt lat="48.941210" lon="8.659660">
<ele>347.5</ele>
<speed>0.4</speed>
<course>270.0</course>
<desc>Speed 0.4 km/h Distance 0.47 km</desc>
<time>2010-02-25T16:21:27.60</time>
<name>315</name>
</trkpt>
<trkpt lat="48.941210" lon="8.659658">
<ele>347.5</ele>
<speed>0.9</speed>
<course>270.0</course>
<desc>Speed 0.9 km/h Distance 0.47 km</desc>
<time>2010-02-25T16:21:28.60</time>
<name>316</name>
</trkpt>
<trkpt lat="48.941210" lon="8.659655">
<ele>348.0</ele>
<speed>0.8</speed>
<course>192.6</course>
<desc>Speed 0.8 km/h Distance 0.47 km</desc>
<time>2010-02-25T16:21:29.60</time>
<name>317</name>
</trkpt>
<trkpt lat="48.941207" lon="8.659653">
<ele>347.5</ele>
<speed>0.8</speed>
<course>242.6</course>
<desc>Speed 0.8 km/h Distance 0.47 km</desc>
<time>2010-02-25T16:21:30.60</time>
<name>318</name>
</trkpt>
<trkpt lat="48.941205" lon="8.659648">
<ele>347.5</ele>
<speed>0.9</speed>
<course>270.0</course>
<desc>Speed 0.9 km/h Distance 0.47 km</desc>
<time>2010-02-25T16:21:31.60</time>
<name>319</name>
</trkpt>
<trkpt lat="48.941205" lon="8.659645">
<ele>347.5</ele>
<speed>0.1</speed>
<course>270.0</course>
<desc>Speed 0.1 km/h Distance 0.47 km</desc>
<time>2010-02-25T16:21:32.60</time>
<name>320</name>
</trkpt>
<trkpt lat="48.941205" lon="8.659643">
<ele>347.5</ele>
<speed>0.3</speed>
<course>150.8</course>
<desc>Speed 0.3 km/h Distance 0.47 km</desc>
<time>2010-02-25T16:21:33.60</time>
<name>321</name>
</trkpt>
<trkpt lat="48.941203" lon="8.659645">
<ele>347.5</ele>
<speed>0.1</speed>
<course>167.4</course>
<desc>Speed 0.1 km/h Distance 0.47 km</desc>
<time>2010-02-25T16:21:34.60</time>
<name>322</name>
</trkpt>
<trkpt lat="48.941202" lon="8.659645">
<ele>347.5</ele>
<speed>0.2</speed>
<course>150.8</course>
<desc>Speed 0.2 km/h Distance 0.47 km</desc>
<time>2010-02-25T16:21:35.60</time>
<name>323</name>
</trkpt>
<trkpt lat="48.941200" lon="8.659647">
<ele>348.0</ele>
<speed>0.1</speed>
<course>167.4</course>
<desc>Speed 0.1 km/h Distance 0.47 km</desc>
<time>2010-02-25T16:21:36.60</time>
<name>324</name>
</trkpt>
<trkpt lat="48.941198" lon="8.659647">
<ele>348.0</ele>
<speed>0.3</speed>
<course>167.4</course>
<desc>Speed 0.3 km/h Distance 0.47 km</desc>
<time>2010-02-25T16:21:37.60</time>
<name>325</name>
</trkpt>
<trkpt lat="48.941197" lon="8.659647">
<ele>348.0</ele>
<speed>0.3</speed>
<course>167.4</course>
<desc>Speed 0.3 km/h Distance 0.47 km</desc>
<time>2010-02-25T16:21:38.60</time>
<name>326</name>
</trkpt>
<trkpt lat="48.941195" lon="8.659647">
<ele>348.0</ele>
<speed>0.3</speed>
<course>90.0</course>
<desc>Speed 0.3 km/h Distance 0.47 km</desc>
<time>2010-02-25T16:21:39.60</time>
<name>327</name>
</trkpt>
<trkpt lat="48.941195" lon="8.659648">
<ele>348.0</ele>
<speed>0.0</speed>
<course>167.4</course>
<desc>Speed 0.0 km/h Distance 0.47 km</desc>
<time>2010-02-25T16:21:40.60</time>
<name>328</name>
</trkpt>
<trkpt lat="48.941193" lon="8.659648">
<ele>348.0</ele>
<speed>0.4</speed>
<course>213.7</course>
<desc>Speed 0.4 km/h Distance 0.47 km</desc>
<time>2010-02-25T16:21:41.60</time>
<name>329</name>
</trkpt>
<trkpt lat="48.941187" lon="8.659642">
<ele>348.5</ele>
<speed>2.7</speed>
<course>227.8</course>
<desc>Speed 2.7 km/h Distance 0.47 km</desc>
<time>2010-02-25T16:21:42.60</time>
<name>330</name>
</trkpt>
<trkpt lat="48.941182" lon="8.659633">
<ele>348.0</ele>
<speed>2.7</speed>
<course>150.8</course>
<desc>Speed 2.7 km/h Distance 0.47 km</desc>
<time>2010-02-25T16:21:43.60</time>
<name>331</name>
</trkpt>
<trkpt lat="48.941180" lon="8.659635">
<ele>348.5</ele>
<speed>0.6</speed>
<course>167.4</course>
<desc>Speed 0.6 km/h Distance 0.47 km</desc>
<time>2010-02-25T16:21:44.60</time>
<name>332</name>
</trkpt>
<trkpt lat="48.941178" lon="8.659637">
<ele>348.5</ele>
<speed>0.3</speed>
<course>167.4</course>
<desc>Speed 0.3 km/h Distance 0.47 km</desc>
<time>2010-02-25T16:21:45.60</time>
<name>333</name>
</trkpt>
<trkpt lat="48.941178" lon="8.659637">
<ele>348.5</ele>
<speed>0.3</speed>
<course>167.4</course>
<desc>Speed 0.3 km/h Distance 0.47 km</desc>
<time>2010-02-25T16:21:46.60</time>
<name>334</name>
</trkpt>
<trkpt lat="48.941178" lon="8.659637">
<ele>348.5</ele>
<speed>0.2</speed>
<course>90.0</course>
<desc>Speed 0.2 km/h Distance 0.47 km</desc>
<time>2010-02-25T16:21:47.60</time>
<name>335</name>
</trkpt>
<trkpt lat="48.941178" lon="8.659638">
<ele>348.5</ele>
<speed>0.4</speed>
<course>184.4</course>
<desc>Speed 0.4 km/h Distance 0.47 km</desc>
<time>2010-02-25T16:21:48.60</time>
<name>336</name>
</trkpt>
<trkpt lat="48.941168" lon="8.659637">
<ele>348.5</ele>
<speed>3.5</speed>
<course>224.5</course>
<desc>Speed 3.5 km/h Distance 0.47 km</desc>
<time>2010-02-25T16:21:49.60</time>
<name>337</name>
</trkpt>
<trkpt lat="48.941158" lon="8.659622">
<ele>348.5</ele>
<speed>5.5</speed>
<course>226.4</course>
<desc>Speed 5.5 km/h Distance 0.47 km</desc>
<time>2010-02-25T16:21:50.60</time>
<name>338</name>
</trkpt>
<trkpt lat="48.941150" lon="8.659608">
<ele>348.5</ele>
<speed>4.8</speed>
<course>229.7</course>
<desc>Speed 4.8 km/h Distance 0.48 km</desc>
<time>2010-02-25T16:21:51.60</time>
<name>339</name>
</trkpt>
<trkpt lat="48.941142" lon="8.659593">
<ele>348.0</ele>
<speed>5.2</speed>
<course>226.4</course>
<desc>Speed 5.2 km/h Distance 0.48 km</desc>
<time>2010-02-25T16:21:52.60</time>
<name>340</name>
</trkpt>
<trkpt lat="48.941133" lon="8.659580">
<ele>348.0</ele>
<speed>4.7</speed>
<course>229.1</course>
<desc>Speed 4.7 km/h Distance 0.48 km</desc>
<time>2010-02-25T16:21:53.60</time>
<name>341</name>
</trkpt>
<trkpt lat="48.941127" lon="8.659568">
<ele>348.0</ele>
<speed>4.4</speed>
<course>296.6</course>
<desc>Speed 4.4 km/h Distance 0.48 km</desc>
<time>2010-02-25T16:21:54.60</time>
<name>342</name>
</trkpt>
<trkpt lat="48.941128" lon="8.659563">
<ele>348.0</ele>
<speed>1.3</speed>
<course>167.4</course>
<desc>Speed 1.3 km/h Distance 0.48 km</desc>
<time>2010-02-25T16:21:55.60</time>
<name>343</name>
</trkpt>
<trkpt lat="48.941127" lon="8.659563">
<ele>348.0</ele>
<speed>0.6</speed>
<course>90.0</course>
<desc>Speed 0.6 km/h Distance 0.48 km</desc>
<time>2010-02-25T16:21:56.60</time>
<name>344</name>
</trkpt>
<trkpt lat="48.941127" lon="8.659565">
<ele>348.0</ele>
<speed>0.4</speed>
<course>167.4</course>
<desc>Speed 0.4 km/h Distance 0.48 km</desc>
<time>2010-02-25T16:21:57.60</time>
<name>345</name>
</trkpt>
<trkpt lat="48.941125" lon="8.659565">
<ele>348.0</ele>
<speed>0.2</speed>
<course>167.4</course>
<desc>Speed 0.2 km/h Distance 0.48 km</desc>
<time>2010-02-25T16:21:58.60</time>
<name>346</name>
</trkpt>
<trkpt lat="48.941125" lon="8.659565">
<ele>348.0</ele>
<speed>0.1</speed>
<course>167.4</course>
<desc>Speed 0.1 km/h Distance 0.48 km</desc>
<time>2010-02-25T16:21:59.60</time>
<name>347</name>
</trkpt>
<trkpt lat="48.941123" lon="8.659565">
<ele>348.0</ele>
<speed>0.3</speed>
<course>167.4</course>
<desc>Speed 0.3 km/h Distance 0.48 km</desc>
<time>2010-02-25T16:22:00.60</time>
<name>348</name>
</trkpt>
<trkpt lat="48.941123" lon="8.659565">
<ele>348.0</ele>
<speed>0.2</speed>
<course>167.4</course>
<desc>Speed 0.2 km/h Distance 0.48 km</desc>
<time>2010-02-25T16:22:01.60</time>
<name>349</name>
</trkpt>
<trkpt lat="48.941123" lon="8.659563">
<ele>348.0</ele>
<speed>0.1</speed>
<course>167.4</course>
<desc>Speed 0.1 km/h Distance 0.48 km</desc>
<time>2010-02-25T16:22:02.60</time>
<name>350</name>
</trkpt>
<trkpt lat="48.941122" lon="8.659563">
<ele>347.5</ele>
<speed>0.1</speed>
<course>167.4</course>
<desc>Speed 0.1 km/h Distance 0.48 km</desc>
<time>2010-02-25T16:22:03.60</time>
<name>351</name>
</trkpt>
<trkpt lat="48.941122" lon="8.659563">
<ele>347.5</ele>
<speed>0.0</speed>
<course>167.4</course>
<desc>Speed 0.0 km/h Distance 0.48 km</desc>
<time>2010-02-25T16:22:04.60</time>
<name>352</name>
</trkpt>
<trkpt lat="48.941122" lon="8.659563">
<ele>347.5</ele>
<speed>0.3</speed>
<course>167.4</course>
<desc>Speed 0.3 km/h Distance 0.48 km</desc>
<time>2010-02-25T16:22:05.60</time>
<name>353</name>
</trkpt>
<trkpt lat="48.941122" lon="8.659563">
<ele>347.5</ele>
<speed>0.1</speed>
<course>209.2</course>
<desc>Speed 0.1 km/h Distance 0.48 km</desc>
<time>2010-02-25T16:22:06.60</time>
<name>354</name>
</trkpt>
<trkpt lat="48.941120" lon="8.659562">
<ele>347.5</ele>
<speed>0.6</speed>
<course>162.5</course>
<desc>Speed 0.6 km/h Distance 0.48 km</desc>
<time>2010-02-25T16:22:07.60</time>
<name>355</name>
</trkpt>
<trkpt lat="48.941113" lon="8.659565">
<ele>347.5</ele>
<speed>1.7</speed>
<course>162.5</course>
<desc>Speed 1.7 km/h Distance 0.48 km</desc>
<time>2010-02-25T16:22:08.60</time>
<name>356</name>
</trkpt>
<trkpt lat="48.941107" lon="8.659568">
<ele>347.5</ele>
<speed>2.2</speed>
<course>209.2</course>
<desc>Speed 2.2 km/h Distance 0.48 km</desc>
<time>2010-02-25T16:22:09.60</time>
<name>357</name>
</trkpt>
<trkpt lat="48.941105" lon="8.659567">
<ele>347.5</ele>
<speed>0.4</speed>
<course>233.0</course>
<desc>Speed 0.4 km/h Distance 0.48 km</desc>
<time>2010-02-25T16:22:10.60</time>
<name>358</name>
</trkpt>
<trkpt lat="48.941102" lon="8.659560">
<ele>347.5</ele>
<speed>2.1</speed>
<course>262.1</course>
<desc>Speed 2.1 km/h Distance 0.48 km</desc>
<time>2010-02-25T16:22:11.60</time>
<name>359</name>
</trkpt>
<trkpt lat="48.941100" lon="8.659542">
<ele>347.5</ele>
<speed>4.3</speed>
<course>262.1</course>
<desc>Speed 4.3 km/h Distance 0.48 km</desc>
<time>2010-02-25T16:22:12.60</time>
<name>360</name>
</trkpt>
<trkpt lat="48.941098" lon="8.659523">
<ele>347.5</ele>
<speed>4.8</speed>
<course>257.7</course>
<desc>Speed 4.8 km/h Distance 0.49 km</desc>
<time>2010-02-25T16:22:13.60</time>
<name>361</name>
</trkpt>
<trkpt lat="48.941095" lon="8.659500">
<ele>347.5</ele>
<speed>5.6</speed>
<course>270.0</course>
<desc>Speed 5.6 km/h Distance 0.49 km</desc>
<time>2010-02-25T16:22:14.60</time>
<name>362</name>
</trkpt>
<trkpt lat="48.941095" lon="8.659478">
<ele>347.5</ele>
<speed>5.5</speed>
<course>270.0</course>
<desc>Speed 5.5 km/h Distance 0.49 km</desc>
<time>2010-02-25T16:22:15.60</time>
<name>363</name>
</trkpt>
<trkpt lat="48.941095" lon="8.659458">
<ele>347.5</ele>
<speed>5.0</speed>
<course>263.3</course>
<desc>Speed 5.0 km/h Distance 0.49 km</desc>
<time>2010-02-25T16:22:16.60</time>
<name>364</name>
</trkpt>
<trkpt lat="48.941093" lon="8.659437">
<ele>347.5</ele>
<speed>5.7</speed>
<course>263.3</course>
<desc>Speed 5.7 km/h Distance 0.49 km</desc>
<time>2010-02-25T16:22:17.60</time>
<name>365</name>
</trkpt>
<trkpt lat="48.941092" lon="8.659415">
<ele>347.5</ele>
<speed>5.3</speed>
<course>263.3</course>
<desc>Speed 5.3 km/h Distance 0.49 km</desc>
<time>2010-02-25T16:22:18.60</time>
<name>366</name>
</trkpt>
<trkpt lat="48.941090" lon="8.659393">
<ele>347.5</ele>
<speed>5.3</speed>
<course>270.0</course>
<desc>Speed 5.3 km/h Distance 0.50 km</desc>
<time>2010-02-25T16:22:19.60</time>
<name>367</name>
</trkpt>
<trkpt lat="48.941090" lon="8.659372">
<ele>347.5</ele>
<speed>5.1</speed>
<course>270.0</course>
<desc>Speed 5.1 km/h Distance 0.50 km</desc>
<time>2010-02-25T16:22:20.60</time>
<name>368</name>
</trkpt>
<trkpt lat="48.941090" lon="8.659350">
<ele>347.5</ele>
<speed>5.0</speed>
<course>263.8</course>
<desc>Speed 5.0 km/h Distance 0.50 km</desc>
<time>2010-02-25T16:22:21.60</time>
<name>369</name>
</trkpt>
<trkpt lat="48.941088" lon="8.659327">
<ele>347.5</ele>
<speed>6.0</speed>
<course>270.0</course>
<desc>Speed 6.0 km/h Distance 0.50 km</desc>
<time>2010-02-25T16:22:22.60</time>
<name>370</name>
</trkpt>
<trkpt lat="48.941088" lon="8.659305">
<ele>347.5</ele>
<speed>5.0</speed>
<course>262.8</course>
<desc>Speed 5.0 km/h Distance 0.50 km</desc>
<time>2010-02-25T16:22:23.60</time>
<name>371</name>
</trkpt>
<trkpt lat="48.941087" lon="8.659285">
<ele>347.0</ele>
<speed>4.9</speed>
<course>261.3</course>
<desc>Speed 4.9 km/h Distance 0.50 km</desc>
<time>2010-02-25T16:22:24.60</time>
<name>372</name>
</trkpt>
<trkpt lat="48.941085" lon="8.659268">
<ele>347.0</ele>
<speed>4.3</speed>
<course>255.7</course>
<desc>Speed 4.3 km/h Distance 0.50 km</desc>
<time>2010-02-25T16:22:25.60</time>
<name>373</name>
</trkpt>
<trkpt lat="48.941082" lon="8.659248">
<ele>347.0</ele>
<speed>5.2</speed>
<course>262.8</course>
<desc>Speed 5.2 km/h Distance 0.51 km</desc>
<time>2010-02-25T16:22:26.60</time>
<name>374</name>
</trkpt>
<trkpt lat="48.941080" lon="8.659228">
<ele>347.0</ele>
<speed>5.3</speed>
<course>270.0</course>
<desc>Speed 5.3 km/h Distance 0.51 km</desc>
<time>2010-02-25T16:22:27.60</time>
<name>375</name>
</trkpt>
<trkpt lat="48.941080" lon="8.659208">
<ele>347.0</ele>
<speed>4.6</speed>
<course>270.0</course>
<desc>Speed 4.6 km/h Distance 0.51 km</desc>
<time>2010-02-25T16:22:28.60</time>
<name>376</name>
</trkpt>
<trkpt lat="48.941080" lon="8.659192">
<ele>347.0</ele>
<speed>4.2</speed>
<course>251.9</course>
<desc>Speed 4.2 km/h Distance 0.51 km</desc>
<time>2010-02-25T16:22:29.60</time>
<name>377</name>
</trkpt>
<trkpt lat="48.941075" lon="8.659168">
<ele>347.0</ele>
<speed>5.6</speed>
<course>247.4</course>
<desc>Speed 5.6 km/h Distance 0.51 km</desc>
<time>2010-02-25T16:22:30.60</time>
<name>378</name>
</trkpt>
<trkpt lat="48.941070" lon="8.659150">
<ele>347.0</ele>
<speed>4.8</speed>
<course>250.6</course>
<desc>Speed 4.8 km/h Distance 0.51 km</desc>
<time>2010-02-25T16:22:31.60</time>
<name>379</name>
</trkpt>
<trkpt lat="48.941065" lon="8.659128">
<ele>347.0</ele>
<speed>5.3</speed>
<course>237.6</course>
<desc>Speed 5.3 km/h Distance 0.52 km</desc>
<time>2010-02-25T16:22:32.60</time>
<name>380</name>
</trkpt>
<trkpt lat="48.941057" lon="8.659108">
<ele>346.5</ele>
<speed>5.7</speed>
<course>243.1</course>
<desc>Speed 5.7 km/h Distance 0.52 km</desc>
<time>2010-02-25T16:22:33.60</time>
<name>381</name>
</trkpt>
<trkpt lat="48.941050" lon="8.659088">
<ele>346.5</ele>
<speed>5.5</speed>
<course>237.7</course>
<desc>Speed 5.5 km/h Distance 0.52 km</desc>
<time>2010-02-25T16:22:34.60</time>
<name>382</name>
</trkpt>
<trkpt lat="48.941042" lon="8.659068">
<ele>346.5</ele>
<speed>6.0</speed>
<course>230.3</course>
<desc>Speed 6.0 km/h Distance 0.52 km</desc>
<time>2010-02-25T16:22:35.60</time>
<name>383</name>
</trkpt>
<trkpt lat="48.941032" lon="8.659050">
<ele>346.5</ele>
<speed>6.0</speed>
<course>226.4</course>
<desc>Speed 6.0 km/h Distance 0.52 km</desc>
<time>2010-02-25T16:22:36.60</time>
<name>384</name>
</trkpt>
<trkpt lat="48.941023" lon="8.659037">
<ele>346.5</ele>
<speed>4.7</speed>
<course>218.1</course>
<desc>Speed 4.7 km/h Distance 0.52 km</desc>
<time>2010-02-25T16:22:37.60</time>
<name>385</name>
</trkpt>
<trkpt lat="48.941015" lon="8.659027">
<ele>346.5</ele>
<speed>3.9</speed>
<course>196.3</course>
<desc>Speed 3.9 km/h Distance 0.52 km</desc>
<time>2010-02-25T16:22:38.60</time>
<name>386</name>
</trkpt>
<trkpt lat="48.941000" lon="8.659020">
<ele>346.5</ele>
<speed>5.8</speed>
<course>189.0</course>
<desc>Speed 5.8 km/h Distance 0.53 km</desc>
<time>2010-02-25T16:22:39.60</time>
<name>387</name>
</trkpt>
<trkpt lat="48.940987" lon="8.659017">
<ele>346.5</ele>
<speed>5.0</speed>
<course>205.2</course>
<desc>Speed 5.0 km/h Distance 0.53 km</desc>
<time>2010-02-25T16:22:40.60</time>
<name>388</name>
</trkpt>
<trkpt lat="48.940975" lon="8.659008">
<ele>346.5</ele>
<speed>4.9</speed>
<course>194.0</course>
<desc>Speed 4.9 km/h Distance 0.53 km</desc>
<time>2010-02-25T16:22:41.60</time>
<name>389</name>
</trkpt>
<trkpt lat="48.940962" lon="8.659003">
<ele>346.5</ele>
<speed>4.8</speed>
<course>202.6</course>
<desc>Speed 4.8 km/h Distance 0.53 km</desc>
<time>2010-02-25T16:22:42.60</time>
<name>390</name>
</trkpt>
<trkpt lat="48.940948" lon="8.658995">
<ele>346.5</ele>
<speed>5.6</speed>
<course>200.1</course>
<desc>Speed 5.6 km/h Distance 0.53 km</desc>
<time>2010-02-25T16:22:43.60</time>
<name>391</name>
</trkpt>
<trkpt lat="48.940933" lon="8.658987">
<ele>346.5</ele>
<speed>6.0</speed>
<course>196.3</course>
<desc>Speed 6.0 km/h Distance 0.53 km</desc>
<time>2010-02-25T16:22:44.60</time>
<name>392</name>
</trkpt>
<trkpt lat="48.940918" lon="8.658980">
<ele>346.5</ele>
<speed>5.8</speed>
<course>196.0</course>
<desc>Speed 5.8 km/h Distance 0.54 km</desc>
<time>2010-02-25T16:22:45.60</time>
<name>393</name>
</trkpt>
<trkpt lat="48.940903" lon="8.658973">
<ele>346.5</ele>
<speed>5.2</speed>
<course>188.1</course>
<desc>Speed 5.2 km/h Distance 0.54 km</desc>
<time>2010-02-25T16:22:46.60</time>
<name>394</name>
</trkpt>
<trkpt lat="48.940888" lon="8.658970">
<ele>346.5</ele>
<speed>5.3</speed>
<course>183.8</course>
<desc>Speed 5.3 km/h Distance 0.54 km</desc>
<time>2010-02-25T16:22:47.60</time>
<name>395</name>
</trkpt>
<trkpt lat="48.940873" lon="8.658968">
<ele>346.5</ele>
<speed>5.4</speed>
<course>206.2</course>
<desc>Speed 5.4 km/h Distance 0.54 km</desc>
<time>2010-02-25T16:22:48.60</time>
<name>396</name>
</trkpt>
<trkpt lat="48.940860" lon="8.658958">
<ele>346.5</ele>
<speed>5.4</speed>
<course>205.2</course>
<desc>Speed 5.4 km/h Distance 0.54 km</desc>
<time>2010-02-25T16:22:49.60</time>
<name>397</name>
</trkpt>
<trkpt lat="48.940848" lon="8.658950">
<ele>346.5</ele>
<speed>5.2</speed>
<course>205.2</course>
<desc>Speed 5.2 km/h Distance 0.54 km</desc>
<time>2010-02-25T16:22:50.60</time>
<name>398</name>
</trkpt>
<trkpt lat="48.940837" lon="8.658942">
<ele>346.5</ele>
<speed>5.3</speed>
<course>209.8</course>
<desc>Speed 5.3 km/h Distance 0.55 km</desc>
<time>2010-02-25T16:22:51.60</time>
<name>399</name>
</trkpt>
<trkpt lat="48.940823" lon="8.658930">
<ele>346.5</ele>
<speed>5.8</speed>
<course>217.5</course>
<desc>Speed 5.8 km/h Distance 0.55 km</desc>
<time>2010-02-25T16:22:52.60</time>
<name>400</name>
</trkpt>
<trkpt lat="48.940813" lon="8.658918">
<ele>346.5</ele>
<speed>5.3</speed>
<course>213.4</course>
<desc>Speed 5.3 km/h Distance 0.55 km</desc>
<time>2010-02-25T16:22:53.60</time>
<name>401</name>
</trkpt>
<trkpt lat="48.940800" lon="8.658905">
<ele>346.5</ele>
<speed>6.2</speed>
<course>220.2</course>
<desc>Speed 6.2 km/h Distance 0.55 km</desc>
<time>2010-02-25T16:22:54.60</time>
<name>402</name>
</trkpt>
<trkpt lat="48.940788" lon="8.658890">
<ele>346.0</ele>
<speed>5.9</speed>
<course>216.9</course>
<desc>Speed 5.9 km/h Distance 0.55 km</desc>
<time>2010-02-25T16:22:55.60</time>
<name>403</name>
</trkpt>
<trkpt lat="48.940777" lon="8.658877">
<ele>346.0</ele>
<speed>5.8</speed>
<course>219.4</course>
<desc>Speed 5.8 km/h Distance 0.55 km</desc>
<time>2010-02-25T16:22:56.60</time>
<name>404</name>
</trkpt>
<trkpt lat="48.940763" lon="8.658860">
<ele>346.0</ele>
<speed>6.0</speed>
<course>216.6</course>
<desc>Speed 6.0 km/h Distance 0.56 km</desc>
<time>2010-02-25T16:22:57.60</time>
<name>405</name>
</trkpt>
<trkpt lat="48.940750" lon="8.658845">
<ele>346.0</ele>
<speed>5.9</speed>
<course>225.9</course>
<desc>Speed 5.9 km/h Distance 0.56 km</desc>
<time>2010-02-25T16:22:58.60</time>
<name>406</name>
</trkpt>
<trkpt lat="48.940738" lon="8.658827">
<ele>346.0</ele>
<speed>6.1</speed>
<course>219.4</course>
<desc>Speed 6.1 km/h Distance 0.56 km</desc>
<time>2010-02-25T16:22:59.60</time>
<name>407</name>
</trkpt>
<trkpt lat="48.940725" lon="8.658810">
<ele>345.5</ele>
<speed>5.7</speed>
<course>225.9</course>
<desc>Speed 5.7 km/h Distance 0.56 km</desc>
<time>2010-02-25T16:23:00.60</time>
<name>408</name>
</trkpt>
<trkpt lat="48.940713" lon="8.658792">
<ele>345.5</ele>
<speed>5.7</speed>
<course>219.4</course>
<desc>Speed 5.7 km/h Distance 0.56 km</desc>
<time>2010-02-25T16:23:01.60</time>
<name>409</name>
</trkpt>
<trkpt lat="48.940700" lon="8.658775">
<ele>345.5</ele>
<speed>6.0</speed>
<course>213.4</course>
<desc>Speed 6.0 km/h Distance 0.57 km</desc>
<time>2010-02-25T16:23:02.60</time>
<name>410</name>
</trkpt>
<trkpt lat="48.940687" lon="8.658762">
<ele>345.5</ele>
<speed>6.0</speed>
<course>220.2</course>
<desc>Speed 6.0 km/h Distance 0.57 km</desc>
<time>2010-02-25T16:23:03.60</time>
<name>411</name>
</trkpt>
<trkpt lat="48.940675" lon="8.658747">
<ele>345.0</ele>
<speed>5.8</speed>
<course>220.2</course>
<desc>Speed 5.8 km/h Distance 0.57 km</desc>
<time>2010-02-25T16:23:04.60</time>
<name>412</name>
</trkpt>
<trkpt lat="48.940663" lon="8.658732">
<ele>345.0</ele>
<speed>5.7</speed>
<course>223.1</course>
<desc>Speed 5.7 km/h Distance 0.57 km</desc>
<time>2010-02-25T16:23:05.60</time>
<name>413</name>
</trkpt>
<trkpt lat="48.940652" lon="8.658715">
<ele>345.0</ele>
<speed>5.7</speed>
<course>228.4</course>
<desc>Speed 5.7 km/h Distance 0.57 km</desc>
<time>2010-02-25T16:23:06.60</time>
<name>414</name>
</trkpt>
<trkpt lat="48.940640" lon="8.658695">
<ele>345.0</ele>
<speed>6.3</speed>
<course>223.3</course>
<desc>Speed 6.3 km/h Distance 0.57 km</desc>
<time>2010-02-25T16:23:07.60</time>
<name>415</name>
</trkpt>
<trkpt lat="48.940628" lon="8.658678">
<ele>344.5</ele>
<speed>6.0</speed>
<course>235.3</course>
<desc>Speed 6.0 km/h Distance 0.58 km</desc>
<time>2010-02-25T16:23:08.60</time>
<name>416</name>
</trkpt>
<trkpt lat="48.940620" lon="8.658660">
<ele>344.5</ele>
<speed>5.7</speed>
<course>220.2</course>
<desc>Speed 5.7 km/h Distance 0.58 km</desc>
<time>2010-02-25T16:23:09.60</time>
<name>417</name>
</trkpt>
<trkpt lat="48.940608" lon="8.658645">
<ele>344.5</ele>
<speed>5.6</speed>
<course>221.3</course>
<desc>Speed 5.6 km/h Distance 0.58 km</desc>
<time>2010-02-25T16:23:10.60</time>
<name>418</name>
</trkpt>
<trkpt lat="48.940598" lon="8.658632">
<ele>344.5</ele>
<speed>5.3</speed>
<course>227.6</course>
<desc>Speed 5.3 km/h Distance 0.58 km</desc>
<time>2010-02-25T16:23:11.60</time>
<name>419</name>
</trkpt>
<trkpt lat="48.940588" lon="8.658615">
<ele>344.5</ele>
<speed>5.5</speed>
<course>216.9</course>
<desc>Speed 5.5 km/h Distance 0.58 km</desc>
<time>2010-02-25T16:23:12.60</time>
<name>420</name>
</trkpt>
<trkpt lat="48.940577" lon="8.658602">
<ele>344.5</ele>
<speed>5.3</speed>
<course>220.2</course>
<desc>Speed 5.3 km/h Distance 0.58 km</desc>
<time>2010-02-25T16:23:13.60</time>
<name>421</name>
</trkpt>
<trkpt lat="48.940565" lon="8.658587">
<ele>344.5</ele>
<speed>5.7</speed>
<course>221.2</course>
<desc>Speed 5.7 km/h Distance 0.59 km</desc>
<time>2010-02-25T16:23:14.60</time>
<name>422</name>
</trkpt>
<trkpt lat="48.940555" lon="8.658573">
<ele>344.5</ele>
<speed>5.3</speed>
<course>213.2</course>
<desc>Speed 5.3 km/h Distance 0.59 km</desc>
<time>2010-02-25T16:23:15.60</time>
<name>423</name>
</trkpt>
<trkpt lat="48.940542" lon="8.658560">
<ele>344.0</ele>
<speed>5.8</speed>
<course>216.9</course>
<desc>Speed 5.8 km/h Distance 0.59 km</desc>
<time>2010-02-25T16:23:16.60</time>
<name>424</name>
</trkpt>
<trkpt lat="48.940530" lon="8.658547">
<ele>344.0</ele>
<speed>5.8</speed>
<course>216.9</course>
<desc>Speed 5.8 km/h Distance 0.59 km</desc>
<time>2010-02-25T16:23:17.60</time>
<name>425</name>
</trkpt>
<trkpt lat="48.940518" lon="8.658533">
<ele>344.0</ele>
<speed>5.4</speed>
<course>213.4</course>
<desc>Speed 5.4 km/h Distance 0.59 km</desc>
<time>2010-02-25T16:23:18.60</time>
<name>426</name>
</trkpt>
<trkpt lat="48.940507" lon="8.658522">
<ele>344.0</ele>
<speed>5.4</speed>
<course>207.0</course>
<desc>Speed 5.4 km/h Distance 0.59 km</desc>
<time>2010-02-25T16:23:19.60</time>
<name>427</name>
</trkpt>
<trkpt lat="48.940492" lon="8.658510">
<ele>343.5</ele>
<speed>5.9</speed>
<course>220.2</course>
<desc>Speed 5.9 km/h Distance 0.60 km</desc>
<time>2010-02-25T16:23:20.60</time>
<name>428</name>
</trkpt>
<trkpt lat="48.940480" lon="8.658495">
<ele>343.5</ele>
<speed>5.8</speed>
<course>217.2</course>
<desc>Speed 5.8 km/h Distance 0.60 km</desc>
<time>2010-02-25T16:23:21.60</time>
<name>429</name>
</trkpt>
<trkpt lat="48.940468" lon="8.658482">
<ele>343.5</ele>
<speed>5.6</speed>
<course>217.0</course>
<desc>Speed 5.6 km/h Distance 0.60 km</desc>
<time>2010-02-25T16:23:22.60</time>
<name>430</name>
</trkpt>
<trkpt lat="48.940457" lon="8.658468">
<ele>343.5</ele>
<speed>5.7</speed>
<course>216.9</course>
<desc>Speed 5.7 km/h Distance 0.60 km</desc>
<time>2010-02-25T16:23:23.60</time>
<name>431</name>
</trkpt>
<trkpt lat="48.940445" lon="8.658455">
<ele>343.5</ele>
<speed>5.7</speed>
<course>217.2</course>
<desc>Speed 5.7 km/h Distance 0.60 km</desc>
<time>2010-02-25T16:23:24.60</time>
<name>432</name>
</trkpt>
<trkpt lat="48.940433" lon="8.658442">
<ele>343.5</ele>
<speed>5.7</speed>
<course>216.9</course>
<desc>Speed 5.7 km/h Distance 0.60 km</desc>
<time>2010-02-25T16:23:25.60</time>
<name>433</name>
</trkpt>
<trkpt lat="48.940422" lon="8.658428">
<ele>343.5</ele>
<speed>5.6</speed>
<course>216.6</course>
<desc>Speed 5.6 km/h Distance 0.61 km</desc>
<time>2010-02-25T16:23:26.60</time>
<name>434</name>
</trkpt>
<trkpt lat="48.940408" lon="8.658413">
<ele>343.0</ele>
<speed>5.8</speed>
<course>220.3</course>
<desc>Speed 5.8 km/h Distance 0.61 km</desc>
<time>2010-02-25T16:23:27.60</time>
<name>435</name>
</trkpt>
<trkpt lat="48.940397" lon="8.658398">
<ele>343.0</ele>
<speed>5.7</speed>
<course>213.3</course>
<desc>Speed 5.7 km/h Distance 0.61 km</desc>
<time>2010-02-25T16:23:28.60</time>
<name>436</name>
</trkpt>
<trkpt lat="48.940385" lon="8.658387">
<ele>343.0</ele>
<speed>5.4</speed>
<course>206.0</course>
<desc>Speed 5.4 km/h Distance 0.61 km</desc>
<time>2010-02-25T16:23:29.60</time>
<name>437</name>
</trkpt>
<trkpt lat="48.940372" lon="8.658377">
<ele>341.5</ele>
<speed>5.4</speed>
<course>216.9</course>
<desc>Speed 5.4 km/h Distance 0.61 km</desc>
<time>2010-02-25T16:23:30.60</time>
<name>438</name>
</trkpt>
<trkpt lat="48.940360" lon="8.658363">
<ele>341.5</ele>
<speed>5.4</speed>
<course>221.3</course>
<desc>Speed 5.4 km/h Distance 0.61 km</desc>
<time>2010-02-25T16:23:31.60</time>
<name>439</name>
</trkpt>
<trkpt lat="48.940350" lon="8.658350">
<ele>341.5</ele>
<speed>5.3</speed>
<course>198.1</course>
<desc>Speed 5.3 km/h Distance 0.62 km</desc>
<time>2010-02-25T16:23:32.60</time>
<name>440</name>
</trkpt>
<trkpt lat="48.940337" lon="8.658343">
<ele>339.5</ele>
<speed>5.1</speed>
<course>209.8</course>
<desc>Speed 5.1 km/h Distance 0.62 km</desc>
<time>2010-02-25T16:23:33.60</time>
<name>441</name>
</trkpt>
<trkpt lat="48.940323" lon="8.658332">
<ele>339.0</ele>
<speed>6.0</speed>
<course>221.2</course>
<desc>Speed 6.0 km/h Distance 0.62 km</desc>
<time>2010-02-25T16:23:34.60</time>
<name>442</name>
</trkpt>
<trkpt lat="48.940313" lon="8.658318">
<ele>339.0</ele>
<speed>5.5</speed>
<course>217.3</course>
<desc>Speed 5.5 km/h Distance 0.62 km</desc>
<time>2010-02-25T16:23:35.60</time>
<name>443</name>
</trkpt>
<trkpt lat="48.940303" lon="8.658307">
<ele>338.5</ele>
<speed>5.0</speed>
<course>209.4</course>
<desc>Speed 5.0 km/h Distance 0.62 km</desc>
<time>2010-02-25T16:23:36.60</time>
<name>444</name>
</trkpt>
<trkpt lat="48.940292" lon="8.658297">
<ele>338.0</ele>
<speed>5.3</speed>
<course>213.4</course>
<desc>Speed 5.3 km/h Distance 0.62 km</desc>
<time>2010-02-25T16:23:37.60</time>
<name>445</name>
</trkpt>
<trkpt lat="48.940280" lon="8.658285">
<ele>338.0</ele>
<speed>5.7</speed>
<course>205.2</course>
<desc>Speed 5.7 km/h Distance 0.62 km</desc>
<time>2010-02-25T16:23:38.60</time>
<name>446</name>
</trkpt>
<trkpt lat="48.940268" lon="8.658277">
<ele>338.0</ele>
<speed>5.0</speed>
<course>209.4</course>
<desc>Speed 5.0 km/h Distance 0.63 km</desc>
<time>2010-02-25T16:23:39.60</time>
<name>447</name>
</trkpt>
<trkpt lat="48.940257" lon="8.658267">
<ele>338.0</ele>
<speed>5.3</speed>
<course>209.4</course>
<desc>Speed 5.3 km/h Distance 0.63 km</desc>
<time>2010-02-25T16:23:40.60</time>
<name>448</name>
</trkpt>
<trkpt lat="48.940245" lon="8.658257">
<ele>338.0</ele>
<speed>5.4</speed>
<course>213.4</course>
<desc>Speed 5.4 km/h Distance 0.63 km</desc>
<time>2010-02-25T16:23:41.60</time>
<name>449</name>
</trkpt>
<trkpt lat="48.940233" lon="8.658245">
<ele>338.0</ele>
<speed>5.2</speed>
<course>222.6</course>
<desc>Speed 5.2 km/h Distance 0.63 km</desc>
<time>2010-02-25T16:23:42.60</time>
<name>450</name>
</trkpt>
<trkpt lat="48.940225" lon="8.658233">
<ele>337.5</ele>
<speed>5.2</speed>
<course>221.2</course>
<desc>Speed 5.2 km/h Distance 0.63 km</desc>
<time>2010-02-25T16:23:43.60</time>
<name>451</name>
</trkpt>
<trkpt lat="48.940215" lon="8.658220">
<ele>337.5</ele>
<speed>5.3</speed>
<course>202.3</course>
<desc>Speed 5.3 km/h Distance 0.63 km</desc>
<time>2010-02-25T16:23:44.60</time>
<name>452</name>
</trkpt>
<trkpt lat="48.940202" lon="8.658212">
<ele>336.0</ele>
<speed>5.8</speed>
<course>221.3</course>
<desc>Speed 5.8 km/h Distance 0.63 km</desc>
<time>2010-02-25T16:23:45.60</time>
<name>453</name>
</trkpt>
<trkpt lat="48.940192" lon="8.658198">
<ele>336.0</ele>
<speed>5.7</speed>
<course>224.5</course>
<desc>Speed 5.7 km/h Distance 0.64 km</desc>
<time>2010-02-25T16:23:46.60</time>
<name>454</name>
</trkpt>
<trkpt lat="48.940182" lon="8.658183">
<ele>336.5</ele>
<speed>5.6</speed>
<course>224.6</course>
<desc>Speed 5.6 km/h Distance 0.64 km</desc>
<time>2010-02-25T16:23:47.60</time>
<name>455</name>
</trkpt>
<trkpt lat="48.940172" lon="8.658168">
<ele>337.0</ele>
<speed>5.8</speed>
<course>213.1</course>
<desc>Speed 5.8 km/h Distance 0.64 km</desc>
<time>2010-02-25T16:23:48.60</time>
<name>456</name>
</trkpt>
<trkpt lat="48.940160" lon="8.658157">
<ele>337.0</ele>
<speed>5.2</speed>
<course>221.2</course>
<desc>Speed 5.2 km/h Distance 0.64 km</desc>
<time>2010-02-25T16:23:49.60</time>
<name>457</name>
</trkpt>
<trkpt lat="48.940150" lon="8.658143">
<ele>337.0</ele>
<speed>5.6</speed>
<course>217.3</course>
<desc>Speed 5.6 km/h Distance 0.64 km</desc>
<time>2010-02-25T16:23:50.60</time>
<name>458</name>
</trkpt>
<trkpt lat="48.940140" lon="8.658132">
<ele>337.0</ele>
<speed>5.3</speed>
<course>161.2</course>
<desc>Speed 5.3 km/h Distance 0.64 km</desc>
<time>2010-02-25T16:23:51.60</time>
<name>459</name>
</trkpt>
<trkpt lat="48.940133" lon="8.658135">
<ele>334.5</ele>
<speed>5.3</speed>
<course>226.4</course>
<desc>Speed 5.3 km/h Distance 0.64 km</desc>
<time>2010-02-25T16:23:52.60</time>
<name>460</name>
</trkpt>
<trkpt lat="48.940125" lon="8.658122">
<ele>334.0</ele>
<speed>5.4</speed>
<course>221.2</course>
<desc>Speed 5.4 km/h Distance 0.65 km</desc>
<time>2010-02-25T16:23:53.60</time>
<name>461</name>
</trkpt>
<trkpt lat="48.940115" lon="8.658108">
<ele>334.0</ele>
<speed>5.3</speed>
<course>221.2</course>
<desc>Speed 5.3 km/h Distance 0.65 km</desc>
<time>2010-02-25T16:23:54.60</time>
<name>462</name>
</trkpt>
<trkpt lat="48.940105" lon="8.658095">
<ele>333.5</ele>
<speed>5.3</speed>
<course>222.6</course>
<desc>Speed 5.3 km/h Distance 0.65 km</desc>
<time>2010-02-25T16:23:55.60</time>
<name>463</name>
</trkpt>
<trkpt lat="48.940097" lon="8.658083">
<ele>333.5</ele>
<speed>5.3</speed>
<course>224.7</course>
<desc>Speed 5.3 km/h Distance 0.65 km</desc>
<time>2010-02-25T16:23:56.60</time>
<name>464</name>
</trkpt>
<trkpt lat="48.940087" lon="8.658068">
<ele>333.0</ele>
<speed>5.5</speed>
<course>135.5</course>
<desc>Speed 5.5 km/h Distance 0.65 km</desc>
<time>2010-02-25T16:23:57.60</time>
<name>465</name>
</trkpt>
<trkpt lat="48.940083" lon="8.658073">
<ele>330.5</ele>
<speed>5.4</speed>
<course>192.6</course>
<desc>Speed 5.4 km/h Distance 0.65 km</desc>
<time>2010-02-25T16:23:58.60</time>
<name>466</name>
</trkpt>
<trkpt lat="48.940078" lon="8.658072">
<ele>328.0</ele>
<speed>5.4</speed>
<course>207.9</course>
<desc>Speed 5.4 km/h Distance 0.65 km</desc>
<time>2010-02-25T16:23:59.60</time>
<name>467</name>
</trkpt>
<trkpt lat="48.940070" lon="8.658065">
<ele>326.5</ele>
<speed>5.4</speed>
<course>217.5</course>
<desc>Speed 5.4 km/h Distance 0.65 km</desc>
<time>2010-02-25T16:24:00.60</time>
<name>468</name>
</trkpt>
<trkpt lat="48.940060" lon="8.658053">
<ele>326.0</ele>
<speed>5.3</speed>
<course>221.2</course>
<desc>Speed 5.3 km/h Distance 0.66 km</desc>
<time>2010-02-25T16:24:01.61</time>
<name>469</name>
</trkpt>
<trkpt lat="48.940040" lon="8.658027">
<ele>326.0</ele>
<speed>5.4</speed>
<course>208.6</course>
<desc>Speed 5.4 km/h Distance 0.66 km</desc>
<time>2010-02-25T16:24:03.11</time>
<name>470</name>
</trkpt>
<trkpt lat="48.940030" lon="8.658018">
<ele>325.0</ele>
<speed>5.4</speed>
<course>213.4</course>
<desc>Speed 5.4 km/h Distance 0.66 km</desc>
<time>2010-02-25T16:24:04.10</time>
<name>471</name>
</trkpt>
<trkpt lat="48.940008" lon="8.657997">
<ele>323.5</ele>
<speed>5.3</speed>
<course>224.5</course>
<desc>Speed 5.3 km/h Distance 0.66 km</desc>
<time>2010-02-25T16:24:06.10</time>
<name>472</name>
</trkpt>
<trkpt lat="48.939998" lon="8.657982">
<ele>323.5</ele>
<speed>5.3</speed>
<course>229.7</course>
<desc>Speed 5.3 km/h Distance 0.66 km</desc>
<time>2010-02-25T16:24:07.10</time>
<name>473</name>
</trkpt>
<trkpt lat="48.939990" lon="8.657967">
<ele>323.5</ele>
<speed>5.3</speed>
<course>218.3</course>
<desc>Speed 5.3 km/h Distance 0.67 km</desc>
<time>2010-02-25T16:24:08.11</time>
<name>474</name>
</trkpt>
<trkpt lat="48.939973" lon="8.657947">
<ele>322.5</ele>
<speed>5.1</speed>
<course>207.9</course>
<desc>Speed 5.1 km/h Distance 0.67 km</desc>
<time>2010-02-25T16:24:10.10</time>
<name>475</name>
</trkpt>
<trkpt lat="48.939965" lon="8.657940">
<ele>321.5</ele>
<speed>5.3</speed>
<course>213.3</course>
<desc>Speed 5.3 km/h Distance 0.67 km</desc>
<time>2010-02-25T16:24:11.11</time>
<name>476</name>
</trkpt>
<trkpt lat="48.939947" lon="8.657922">
<ele>320.5</ele>
<speed>5.1</speed>
<course>217.5</course>
<desc>Speed 5.1 km/h Distance 0.67 km</desc>
<time>2010-02-25T16:24:13.10</time>
<name>477</name>
</trkpt>
<trkpt lat="48.939937" lon="8.657910">
<ele>320.5</ele>
<speed>5.3</speed>
<course>229.8</course>
<desc>Speed 5.3 km/h Distance 0.67 km</desc>
<time>2010-02-25T16:24:14.10</time>
<name>478</name>
</trkpt>
<trkpt lat="48.939928" lon="8.657895">
<ele>321.0</ele>
<speed>5.1</speed>
<course>208.6</course>
<desc>Speed 5.1 km/h Distance 0.67 km</desc>
<time>2010-02-25T16:24:15.10</time>
<name>479</name>
</trkpt>
<trkpt lat="48.939918" lon="8.657887">
<ele>320.5</ele>
<speed>5.3</speed>
<course>208.3</course>
<desc>Speed 5.3 km/h Distance 0.68 km</desc>
<time>2010-02-25T16:24:16.10</time>
<name>480</name>
</trkpt>
<trkpt lat="48.939908" lon="8.657878">
<ele>320.0</ele>
<speed>5.0</speed>
<course>213.2</course>
<desc>Speed 5.0 km/h Distance 0.68 km</desc>
<time>2010-02-25T16:24:17.10</time>
<name>481</name>
</trkpt>
<trkpt lat="48.939900" lon="8.657870">
<ele>319.5</ele>
<speed>5.2</speed>
<course>217.3</course>
<desc>Speed 5.2 km/h Distance 0.68 km</desc>
<time>2010-02-25T16:24:18.10</time>
<name>482</name>
</trkpt>
<trkpt lat="48.939890" lon="8.657858">
<ele>319.5</ele>
<speed>5.3</speed>
<course>221.2</course>
<desc>Speed 5.3 km/h Distance 0.68 km</desc>
<time>2010-02-25T16:24:19.10</time>
<name>483</name>
</trkpt>
<trkpt lat="48.939880" lon="8.657845">
<ele>319.5</ele>
<speed>5.3</speed>
<course>207.9</course>
<desc>Speed 5.3 km/h Distance 0.68 km</desc>
<time>2010-02-25T16:24:20.10</time>
<name>484</name>
</trkpt>
<trkpt lat="48.939872" lon="8.657838">
<ele>319.0</ele>
<speed>4.9</speed>
<course>213.2</course>
<desc>Speed 4.9 km/h Distance 0.68 km</desc>
<time>2010-02-25T16:24:21.10</time>
<name>485</name>
</trkpt>
<trkpt lat="48.939863" lon="8.657830">
<ele>318.5</ele>
<speed>5.0</speed>
<course>217.5</course>
<desc>Speed 5.0 km/h Distance 0.68 km</desc>
<time>2010-02-25T16:24:22.10</time>
<name>486</name>
</trkpt>
<trkpt lat="48.939853" lon="8.657818">
<ele>318.0</ele>
<speed>4.9</speed>
<course>207.9</course>
<desc>Speed 4.9 km/h Distance 0.68 km</desc>
<time>2010-02-25T16:24:23.09</time>
<name>487</name>
</trkpt>
<trkpt lat="48.939845" lon="8.657812">
<ele>317.5</ele>
<speed>4.7</speed>
<course>203.8</course>
<desc>Speed 4.7 km/h Distance 0.69 km</desc>
<time>2010-02-25T16:24:24.10</time>
<name>488</name>
</trkpt>
<trkpt lat="48.939835" lon="8.657805">
<ele>317.0</ele>
<speed>5.0</speed>
<course>208.6</course>
<desc>Speed 5.0 km/h Distance 0.69 km</desc>
<time>2010-02-25T16:24:25.09</time>
<name>489</name>
</trkpt>
<trkpt lat="48.939825" lon="8.657797">
<ele>317.0</ele>
<speed>5.2</speed>
<course>209.4</course>
<desc>Speed 5.2 km/h Distance 0.69 km</desc>
<time>2010-02-25T16:24:26.09</time>
<name>490</name>
</trkpt>
<trkpt lat="48.939813" lon="8.657787">
<ele>316.5</ele>
<speed>5.5</speed>
<course>213.4</course>
<desc>Speed 5.5 km/h Distance 0.69 km</desc>
<time>2010-02-25T16:24:27.09</time>
<name>491</name>
</trkpt>
<trkpt lat="48.939803" lon="8.657777">
<ele>316.0</ele>
<speed>5.3</speed>
<course>217.5</course>
<desc>Speed 5.3 km/h Distance 0.69 km</desc>
<time>2010-02-25T16:24:28.09</time>
<name>492</name>
</trkpt>
<trkpt lat="48.939793" lon="8.657765">
<ele>315.0</ele>
<speed>5.3</speed>
<course>217.5</course>
<desc>Speed 5.3 km/h Distance 0.69 km</desc>
<time>2010-02-25T16:24:29.09</time>
<name>493</name>
</trkpt>
<trkpt lat="48.939783" lon="8.657753">
<ele>314.0</ele>
<speed>5.3</speed>
<course>226.4</course>
<desc>Speed 5.3 km/h Distance 0.69 km</desc>
<time>2010-02-25T16:24:30.09</time>
<name>494</name>
</trkpt>
<trkpt lat="48.939775" lon="8.657740">
<ele>313.5</ele>
<speed>5.4</speed>
<course>213.2</course>
<desc>Speed 5.4 km/h Distance 0.69 km</desc>
<time>2010-02-25T16:24:31.10</time>
<name>495</name>
</trkpt>
<trkpt lat="48.939765" lon="8.657730">
<ele>313.0</ele>
<speed>5.2</speed>
<course>213.2</course>
<desc>Speed 5.2 km/h Distance 0.70 km</desc>
<time>2010-02-25T16:24:32.10</time>
<name>496</name>
</trkpt>
<trkpt lat="48.939755" lon="8.657720">
<ele>313.0</ele>
<speed>5.1</speed>
<course>209.2</course>
<desc>Speed 5.1 km/h Distance 0.70 km</desc>
<time>2010-02-25T16:24:33.09</time>
<name>497</name>
</trkpt>
<trkpt lat="48.939743" lon="8.657710">
<ele>312.0</ele>
<speed>5.3</speed>
<course>208.6</course>
<desc>Speed 5.3 km/h Distance 0.70 km</desc>
<time>2010-02-25T16:24:34.09</time>
<name>498</name>
</trkpt>
<trkpt lat="48.939733" lon="8.657702">
<ele>311.5</ele>
<speed>5.1</speed>
<course>204.9</course>
<desc>Speed 5.1 km/h Distance 0.70 km</desc>
<time>2010-02-25T16:24:35.10</time>
<name>499</name>
</trkpt>
<trkpt lat="48.939722" lon="8.657693">
<ele>310.5</ele>
<speed>5.4</speed>
<course>209.4</course>
<desc>Speed 5.4 km/h Distance 0.70 km</desc>
<time>2010-02-25T16:24:36.10</time>
<name>500</name>
</trkpt>
<trkpt lat="48.939710" lon="8.657683">
<ele>310.0</ele>
<speed>5.5</speed>
<course>221.3</course>
<desc>Speed 5.5 km/h Distance 0.70 km</desc>
<time>2010-02-25T16:24:37.10</time>
<name>501</name>
</trkpt>
<trkpt lat="48.939700" lon="8.657670">
<ele>309.5</ele>
<speed>5.5</speed>
<course>213.1</course>
<desc>Speed 5.5 km/h Distance 0.70 km</desc>
<time>2010-02-25T16:24:38.10</time>
<name>502</name>
</trkpt>
<trkpt lat="48.939688" lon="8.657658">
<ele>309.0</ele>
<speed>5.4</speed>
<course>213.2</course>
<desc>Speed 5.4 km/h Distance 0.71 km</desc>
<time>2010-02-25T16:24:39.09</time>
<name>503</name>
</trkpt>
<trkpt lat="48.939678" lon="8.657648">
<ele>308.5</ele>
<speed>5.1</speed>
<course>217.3</course>
<desc>Speed 5.1 km/h Distance 0.71 km</desc>
<time>2010-02-25T16:24:40.09</time>
<name>504</name>
</trkpt>
<trkpt lat="48.939668" lon="8.657637">
<ele>308.0</ele>
<speed>5.3</speed>
<course>221.2</course>
<desc>Speed 5.3 km/h Distance 0.71 km</desc>
<time>2010-02-25T16:24:41.09</time>
<name>505</name>
</trkpt>
<trkpt lat="48.939658" lon="8.657623">
<ele>307.5</ele>
<speed>5.4</speed>
<course>221.3</course>
<desc>Speed 5.4 km/h Distance 0.71 km</desc>
<time>2010-02-25T16:24:42.09</time>
<name>506</name>
</trkpt>
<trkpt lat="48.939648" lon="8.657610">
<ele>307.5</ele>
<speed>5.5</speed>
<course>216.9</course>
<desc>Speed 5.5 km/h Distance 0.71 km</desc>
<time>2010-02-25T16:24:43.09</time>
<name>507</name>
</trkpt>
<trkpt lat="48.939637" lon="8.657597">
<ele>307.0</ele>
<speed>5.4</speed>
<course>226.4</course>
<desc>Speed 5.4 km/h Distance 0.71 km</desc>
<time>2010-02-25T16:24:44.09</time>
<name>508</name>
</trkpt>
<trkpt lat="48.939628" lon="8.657583">
<ele>307.0</ele>
<speed>5.5</speed>
<course>217.0</course>
<desc>Speed 5.5 km/h Distance 0.71 km</desc>
<time>2010-02-25T16:24:45.08</time>
<name>509</name>
</trkpt>
<trkpt lat="48.939617" lon="8.657570">
<ele>306.5</ele>
<speed>5.6</speed>
<course>217.5</course>
<desc>Speed 5.6 km/h Distance 0.72 km</desc>
<time>2010-02-25T16:24:46.08</time>
<name>510</name>
</trkpt>
<trkpt lat="48.939607" lon="8.657558">
<ele>306.5</ele>
<speed>5.4</speed>
<course>217.3</course>
<desc>Speed 5.4 km/h Distance 0.72 km</desc>
<time>2010-02-25T16:24:47.08</time>
<name>511</name>
</trkpt>
<trkpt lat="48.939597" lon="8.657547">
<ele>306.0</ele>
<speed>5.4</speed>
<course>221.2</course>
<desc>Speed 5.4 km/h Distance 0.72 km</desc>
<time>2010-02-25T16:24:48.08</time>
<name>512</name>
</trkpt>
<trkpt lat="48.939587" lon="8.657533">
<ele>306.0</ele>
<speed>5.3</speed>
<course>221.2</course>
<desc>Speed 5.3 km/h Distance 0.72 km</desc>
<time>2010-02-25T16:24:49.08</time>
<name>513</name>
</trkpt>
<trkpt lat="48.939577" lon="8.657520">
<ele>306.0</ele>
<speed>5.2</speed>
<course>217.3</course>
<desc>Speed 5.2 km/h Distance 0.72 km</desc>
<time>2010-02-25T16:24:50.08</time>
<name>514</name>
</trkpt>
<trkpt lat="48.939567" lon="8.657508">
<ele>306.0</ele>
<speed>5.1</speed>
<course>209.4</course>
<desc>Speed 5.1 km/h Distance 0.72 km</desc>
<time>2010-02-25T16:24:51.08</time>
<name>515</name>
</trkpt>
<trkpt lat="48.939555" lon="8.657498">
<ele>306.0</ele>
<speed>5.2</speed>
<course>217.5</course>
<desc>Speed 5.2 km/h Distance 0.73 km</desc>
<time>2010-02-25T16:24:52.08</time>
<name>516</name>
</trkpt>
<trkpt lat="48.939545" lon="8.657487">
<ele>306.0</ele>
<speed>5.5</speed>
<course>216.9</course>
<desc>Speed 5.5 km/h Distance 0.73 km</desc>
<time>2010-02-25T16:24:53.09</time>
<name>517</name>
</trkpt>
<trkpt lat="48.939533" lon="8.657473">
<ele>306.0</ele>
<speed>5.4</speed>
<course>217.5</course>
<desc>Speed 5.4 km/h Distance 0.73 km</desc>
<time>2010-02-25T16:24:54.08</time>
<name>518</name>
</trkpt>
<trkpt lat="48.939523" lon="8.657462">
<ele>306.0</ele>
<speed>5.3</speed>
<course>221.2</course>
<desc>Speed 5.3 km/h Distance 0.73 km</desc>
<time>2010-02-25T16:24:55.08</time>
<name>519</name>
</trkpt>
<trkpt lat="48.939513" lon="8.657448">
<ele>306.0</ele>
<speed>5.4</speed>
<course>221.2</course>
<desc>Speed 5.4 km/h Distance 0.73 km</desc>
<time>2010-02-25T16:24:56.08</time>
<name>520</name>
</trkpt>
<trkpt lat="48.939503" lon="8.657435">
<ele>305.5</ele>
<speed>5.5</speed>
<course>217.5</course>
<desc>Speed 5.5 km/h Distance 0.73 km</desc>
<time>2010-02-25T16:24:57.08</time>
<name>521</name>
</trkpt>
<trkpt lat="48.939493" lon="8.657423">
<ele>305.5</ele>
<speed>5.1</speed>
<course>217.5</course>
<desc>Speed 5.1 km/h Distance 0.73 km</desc>
<time>2010-02-25T16:24:58.08</time>
<name>522</name>
</trkpt>
<trkpt lat="48.939483" lon="8.657412">
<ele>305.0</ele>
<speed>5.2</speed>
<course>216.9</course>
<desc>Speed 5.2 km/h Distance 0.74 km</desc>
<time>2010-02-25T16:24:59.08</time>
<name>523</name>
</trkpt>
<trkpt lat="48.939472" lon="8.657398">
<ele>305.0</ele>
<speed>5.1</speed>
<course>217.5</course>
<desc>Speed 5.1 km/h Distance 0.74 km</desc>
<time>2010-02-25T16:25:00.08</time>
<name>524</name>
</trkpt>
<trkpt lat="48.939462" lon="8.657387">
<ele>305.0</ele>
<speed>5.3</speed>
<course>221.2</course>
<desc>Speed 5.3 km/h Distance 0.74 km</desc>
<time>2010-02-25T16:25:01.08</time>
<name>525</name>
</trkpt>
<trkpt lat="48.939452" lon="8.657373">
<ele>305.0</ele>
<speed>5.1</speed>
<course>226.5</course>
<desc>Speed 5.1 km/h Distance 0.74 km</desc>
<time>2010-02-25T16:25:02.08</time>
<name>526</name>
</trkpt>
<trkpt lat="48.939443" lon="8.657360">
<ele>305.0</ele>
<speed>5.3</speed>
<course>221.4</course>
<desc>Speed 5.3 km/h Distance 0.74 km</desc>
<time>2010-02-25T16:25:03.08</time>
<name>527</name>
</trkpt>
<trkpt lat="48.939433" lon="8.657347">
<ele>305.0</ele>
<speed>5.3</speed>
<course>216.9</course>
<desc>Speed 5.3 km/h Distance 0.74 km</desc>
<time>2010-02-25T16:25:04.08</time>
<name>528</name>
</trkpt>
<trkpt lat="48.939422" lon="8.657333">
<ele>305.0</ele>
<speed>5.4</speed>
<course>229.7</course>
<desc>Speed 5.4 km/h Distance 0.74 km</desc>
<time>2010-02-25T16:25:05.08</time>
<name>529</name>
</trkpt>
<trkpt lat="48.939413" lon="8.657318">
<ele>304.5</ele>
<speed>5.3</speed>
<course>224.5</course>
<desc>Speed 5.3 km/h Distance 0.75 km</desc>
<time>2010-02-25T16:25:06.07</time>
<name>530</name>
</trkpt>
<trkpt lat="48.939403" lon="8.657303">
<ele>304.5</ele>
<speed>5.4</speed>
<course>221.4</course>
<desc>Speed 5.4 km/h Distance 0.75 km</desc>
<time>2010-02-25T16:25:07.07</time>
<name>531</name>
</trkpt>
<trkpt lat="48.939393" lon="8.657290">
<ele>304.5</ele>
<speed>5.3</speed>
<course>221.3</course>
<desc>Speed 5.3 km/h Distance 0.75 km</desc>
<time>2010-02-25T16:25:08.07</time>
<name>532</name>
</trkpt>
<trkpt lat="48.939383" lon="8.657277">
<ele>304.5</ele>
<speed>5.2</speed>
<course>221.2</course>
<desc>Speed 5.2 km/h Distance 0.75 km</desc>
<time>2010-02-25T16:25:09.08</time>
<name>533</name>
</trkpt>
<trkpt lat="48.939373" lon="8.657263">
<ele>304.5</ele>
<speed>5.3</speed>
<course>221.2</course>
<desc>Speed 5.3 km/h Distance 0.75 km</desc>
<time>2010-02-25T16:25:10.07</time>
<name>534</name>
</trkpt>
<trkpt lat="48.939363" lon="8.657250">
<ele>304.5</ele>
<speed>5.2</speed>
<course>224.6</course>
<desc>Speed 5.2 km/h Distance 0.75 km</desc>
<time>2010-02-25T16:25:11.08</time>
<name>535</name>
</trkpt>
<trkpt lat="48.939353" lon="8.657235">
<ele>304.5</ele>
<speed>5.5</speed>
<course>221.3</course>
<desc>Speed 5.5 km/h Distance 0.75 km</desc>
<time>2010-02-25T16:25:12.07</time>
<name>536</name>
</trkpt>
<trkpt lat="48.939343" lon="8.657222">
<ele>304.5</ele>
<speed>5.5</speed>
<course>221.2</course>
<desc>Speed 5.5 km/h Distance 0.76 km</desc>
<time>2010-02-25T16:25:13.08</time>
<name>537</name>
</trkpt>
<trkpt lat="48.939333" lon="8.657208">
<ele>304.5</ele>
<speed>5.3</speed>
<course>221.2</course>
<desc>Speed 5.3 km/h Distance 0.76 km</desc>
<time>2010-02-25T16:25:14.07</time>
<name>538</name>
</trkpt>
<trkpt lat="48.939323" lon="8.657195">
<ele>304.5</ele>
<speed>5.3</speed>
<course>221.2</course>
<desc>Speed 5.3 km/h Distance 0.76 km</desc>
<time>2010-02-25T16:25:15.07</time>
<name>539</name>
</trkpt>
<trkpt lat="48.939313" lon="8.657182">
<ele>304.5</ele>
<speed>5.3</speed>
<course>221.2</course>
<desc>Speed 5.3 km/h Distance 0.76 km</desc>
<time>2010-02-25T16:25:16.07</time>
<name>540</name>
</trkpt>
<trkpt lat="48.939303" lon="8.657168">
<ele>304.5</ele>
<speed>5.0</speed>
<course>217.5</course>
<desc>Speed 5.0 km/h Distance 0.76 km</desc>
<time>2010-02-25T16:25:17.07</time>
<name>541</name>
</trkpt>
<trkpt lat="48.939293" lon="8.657157">
<ele>304.5</ele>
<speed>5.0</speed>
<course>217.5</course>
<desc>Speed 5.0 km/h Distance 0.76 km</desc>
<time>2010-02-25T16:25:18.07</time>
<name>542</name>
</trkpt>
<trkpt lat="48.939283" lon="8.657145">
<ele>304.5</ele>
<speed>5.1</speed>
<course>218.1</course>
<desc>Speed 5.1 km/h Distance 0.76 km</desc>
<time>2010-02-25T16:25:19.07</time>
<name>543</name>
</trkpt>
<trkpt lat="48.939275" lon="8.657135">
<ele>304.0</ele>
<speed>4.5</speed>
<course>221.3</course>
<desc>Speed 4.5 km/h Distance 0.77 km</desc>
<time>2010-02-25T16:25:20.07</time>
<name>544</name>
</trkpt>
<trkpt lat="48.939265" lon="8.657122">
<ele>304.0</ele>
<speed>5.0</speed>
<course>226.4</course>
<desc>Speed 5.0 km/h Distance 0.77 km</desc>
<time>2010-02-25T16:25:21.07</time>
<name>545</name>
</trkpt>
<trkpt lat="48.939257" lon="8.657108">
<ele>304.0</ele>
<speed>5.0</speed>
<course>229.7</course>
<desc>Speed 5.0 km/h Distance 0.77 km</desc>
<time>2010-02-25T16:25:22.07</time>
<name>546</name>
</trkpt>
<trkpt lat="48.939248" lon="8.657093">
<ele>304.0</ele>
<speed>5.1</speed>
<course>221.2</course>
<desc>Speed 5.1 km/h Distance 0.77 km</desc>
<time>2010-02-25T16:25:23.08</time>
<name>547</name>
</trkpt>
<trkpt lat="48.939238" lon="8.657080">
<ele>304.5</ele>
<speed>5.3</speed>
<course>221.3</course>
<desc>Speed 5.3 km/h Distance 0.77 km</desc>
<time>2010-02-25T16:25:24.07</time>
<name>548</name>
</trkpt>
<trkpt lat="48.939228" lon="8.657067">
<ele>304.5</ele>
<speed>5.2</speed>
<course>217.5</course>
<desc>Speed 5.2 km/h Distance 0.77 km</desc>
<time>2010-02-25T16:25:25.07</time>
<name>549</name>
</trkpt>
<trkpt lat="48.939218" lon="8.657055">
<ele>304.5</ele>
<speed>5.3</speed>
<course>221.2</course>
<desc>Speed 5.3 km/h Distance 0.77 km</desc>
<time>2010-02-25T16:25:26.07</time>
<name>550</name>
</trkpt>
<trkpt lat="48.939208" lon="8.657042">
<ele>304.5</ele>
<speed>5.3</speed>
<course>221.2</course>
<desc>Speed 5.3 km/h Distance 0.78 km</desc>
<time>2010-02-25T16:25:27.07</time>
<name>551</name>
</trkpt>
<trkpt lat="48.939198" lon="8.657028">
<ele>304.5</ele>
<speed>5.3</speed>
<course>226.5</course>
<desc>Speed 5.3 km/h Distance 0.78 km</desc>
<time>2010-02-25T16:25:28.07</time>
<name>552</name>
</trkpt>
<trkpt lat="48.939190" lon="8.657015">
<ele>305.0</ele>
<speed>5.3</speed>
<course>226.5</course>
<desc>Speed 5.3 km/h Distance 0.78 km</desc>
<time>2010-02-25T16:25:29.07</time>
<name>553</name>
</trkpt>
<trkpt lat="48.939182" lon="8.657002">
<ele>305.0</ele>
<speed>4.7</speed>
<course>217.5</course>
<desc>Speed 4.7 km/h Distance 0.78 km</desc>
<time>2010-02-25T16:25:30.06</time>
<name>554</name>
</trkpt>
<trkpt lat="48.939172" lon="8.656990">
<ele>305.0</ele>
<speed>5.0</speed>
<course>226.5</course>
<desc>Speed 5.0 km/h Distance 0.78 km</desc>
<time>2010-02-25T16:25:31.07</time>
<name>555</name>
</trkpt>
<trkpt lat="48.939163" lon="8.656977">
<ele>305.5</ele>
<speed>4.9</speed>
<course>217.3</course>
<desc>Speed 4.9 km/h Distance 0.78 km</desc>
<time>2010-02-25T16:25:32.06</time>
<name>556</name>
</trkpt>
<trkpt lat="48.939153" lon="8.656965">
<ele>305.5</ele>
<speed>4.9</speed>
<course>226.5</course>
<desc>Speed 4.9 km/h Distance 0.78 km</desc>
<time>2010-02-25T16:25:33.06</time>
<name>557</name>
</trkpt>
<trkpt lat="48.939145" lon="8.656952">
<ele>306.0</ele>
<speed>5.0</speed>
<course>221.3</course>
<desc>Speed 5.0 km/h Distance 0.79 km</desc>
<time>2010-02-25T16:25:34.06</time>
<name>558</name>
</trkpt>
<trkpt lat="48.939135" lon="8.656938">
<ele>306.5</ele>
<speed>5.2</speed>
<course>221.2</course>
<desc>Speed 5.2 km/h Distance 0.79 km</desc>
<time>2010-02-25T16:25:35.06</time>
<name>559</name>
</trkpt>
<trkpt lat="48.939125" lon="8.656925">
<ele>306.5</ele>
<speed>5.0</speed>
<course>221.2</course>
<desc>Speed 5.0 km/h Distance 0.79 km</desc>
<time>2010-02-25T16:25:36.06</time>
<name>560</name>
</trkpt>
<trkpt lat="48.939115" lon="8.656912">
<ele>307.0</ele>
<speed>5.3</speed>
<course>221.2</course>
<desc>Speed 5.3 km/h Distance 0.79 km</desc>
<time>2010-02-25T16:25:37.06</time>
<name>561</name>
</trkpt>
<trkpt lat="48.939105" lon="8.656898">
<ele>307.0</ele>
<speed>5.1</speed>
<course>222.6</course>
<desc>Speed 5.1 km/h Distance 0.79 km</desc>
<time>2010-02-25T16:25:38.07</time>
<name>562</name>
</trkpt>
<trkpt lat="48.939097" lon="8.656887">
<ele>307.0</ele>
<speed>4.9</speed>
<course>229.8</course>
<desc>Speed 4.9 km/h Distance 0.79 km</desc>
<time>2010-02-25T16:25:39.06</time>
<name>563</name>
</trkpt>
<trkpt lat="48.939088" lon="8.656872">
<ele>307.0</ele>
<speed>5.1</speed>
<course>221.2</course>
<desc>Speed 5.1 km/h Distance 0.79 km</desc>
<time>2010-02-25T16:25:40.06</time>
<name>564</name>
</trkpt>
<trkpt lat="48.939078" lon="8.656858">
<ele>307.0</ele>
<speed>5.2</speed>
<course>221.2</course>
<desc>Speed 5.2 km/h Distance 0.80 km</desc>
<time>2010-02-25T16:25:41.07</time>
<name>565</name>
</trkpt>
<trkpt lat="48.939068" lon="8.656845">
<ele>307.0</ele>
<speed>5.2</speed>
<course>224.5</course>
<desc>Speed 5.2 km/h Distance 0.80 km</desc>
<time>2010-02-25T16:25:42.06</time>
<name>566</name>
</trkpt>
<trkpt lat="48.939058" lon="8.656830">
<ele>307.0</ele>
<speed>5.4</speed>
<course>229.8</course>
<desc>Speed 5.4 km/h Distance 0.80 km</desc>
<time>2010-02-25T16:25:43.07</time>
<name>567</name>
</trkpt>
<trkpt lat="48.939050" lon="8.656815">
<ele>307.0</ele>
<speed>5.3</speed>
<course>224.5</course>
<desc>Speed 5.3 km/h Distance 0.80 km</desc>
<time>2010-02-25T16:25:44.06</time>
<name>568</name>
</trkpt>
<trkpt lat="48.939040" lon="8.656800">
<ele>307.0</ele>
<speed>5.3</speed>
<course>229.8</course>
<desc>Speed 5.3 km/h Distance 0.80 km</desc>
<time>2010-02-25T16:25:45.06</time>
<name>569</name>
</trkpt>
<trkpt lat="48.939032" lon="8.656785">
<ele>307.0</ele>
<speed>5.4</speed>
<course>224.6</course>
<desc>Speed 5.4 km/h Distance 0.80 km</desc>
<time>2010-02-25T16:25:46.06</time>
<name>570</name>
</trkpt>
<trkpt lat="48.939022" lon="8.656770">
<ele>307.0</ele>
<speed>5.3</speed>
<course>224.6</course>
<desc>Speed 5.3 km/h Distance 0.80 km</desc>
<time>2010-02-25T16:25:47.06</time>
<name>571</name>
</trkpt>
<trkpt lat="48.939012" lon="8.656755">
<ele>307.0</ele>
<speed>5.3</speed>
<course>232.7</course>
<desc>Speed 5.3 km/h Distance 0.81 km</desc>
<time>2010-02-25T16:25:48.05</time>
<name>572</name>
</trkpt>
<trkpt lat="48.939003" lon="8.656738">
<ele>307.0</ele>
<speed>5.4</speed>
<course>232.7</course>
<desc>Speed 5.4 km/h Distance 0.81 km</desc>
<time>2010-02-25T16:25:49.06</time>
<name>573</name>
</trkpt>
<trkpt lat="48.938995" lon="8.656722">
<ele>307.0</ele>
<speed>5.3</speed>
<course>232.7</course>
<desc>Speed 5.3 km/h Distance 0.81 km</desc>
<time>2010-02-25T16:25:50.06</time>
<name>574</name>
</trkpt>
<trkpt lat="48.938987" lon="8.656705">
<ele>307.0</ele>
<speed>5.3</speed>
<course>229.7</course>
<desc>Speed 5.3 km/h Distance 0.81 km</desc>
<time>2010-02-25T16:25:51.05</time>
<name>575</name>
</trkpt>
<trkpt lat="48.938978" lon="8.656690">
<ele>307.0</ele>
<speed>5.3</speed>
<course>232.7</course>
<desc>Speed 5.3 km/h Distance 0.81 km</desc>
<time>2010-02-25T16:25:52.05</time>
<name>576</name>
</trkpt>
<trkpt lat="48.938970" lon="8.656673">
<ele>307.0</ele>
<speed>5.2</speed>
<course>229.8</course>
<desc>Speed 5.2 km/h Distance 0.81 km</desc>
<time>2010-02-25T16:25:53.05</time>
<name>577</name>
</trkpt>
<trkpt lat="48.938962" lon="8.656658">
<ele>307.5</ele>
<speed>5.3</speed>
<course>238.7</course>
<desc>Speed 5.3 km/h Distance 0.82 km</desc>
<time>2010-02-25T16:25:54.06</time>
<name>578</name>
</trkpt>
<trkpt lat="48.938955" lon="8.656642">
<ele>307.5</ele>
<speed>4.9</speed>
<course>238.7</course>
<desc>Speed 4.9 km/h Distance 0.82 km</desc>
<time>2010-02-25T16:25:55.06</time>
<name>579</name>
</trkpt>
<trkpt lat="48.938948" lon="8.656625">
<ele>307.0</ele>
<speed>4.9</speed>
<course>247.5</course>
<desc>Speed 4.9 km/h Distance 0.82 km</desc>
<time>2010-02-25T16:25:56.06</time>
<name>580</name>
</trkpt>
<trkpt lat="48.938943" lon="8.656607">
<ele>307.5</ele>
<speed>5.0</speed>
<course>229.7</course>
<desc>Speed 5.0 km/h Distance 0.82 km</desc>
<time>2010-02-25T16:25:57.06</time>
<name>581</name>
</trkpt>
<trkpt lat="48.938935" lon="8.656592">
<ele>307.5</ele>
<speed>4.8</speed>
<course>238.6</course>
<desc>Speed 4.8 km/h Distance 0.82 km</desc>
<time>2010-02-25T16:25:58.06</time>
<name>582</name>
</trkpt>
<trkpt lat="48.938928" lon="8.656575">
<ele>307.5</ele>
<speed>5.3</speed>
<course>229.7</course>
<desc>Speed 5.3 km/h Distance 0.82 km</desc>
<time>2010-02-25T16:25:59.06</time>
<name>583</name>
</trkpt>
<trkpt lat="48.938920" lon="8.656560">
<ele>307.5</ele>
<speed>5.1</speed>
<course>238.6</course>
<desc>Speed 5.1 km/h Distance 0.82 km</desc>
<time>2010-02-25T16:26:00.05</time>
<name>584</name>
</trkpt>
<trkpt lat="48.938913" lon="8.656543">
<ele>308.0</ele>
<speed>4.7</speed>
<course>240.2</course>
<desc>Speed 4.7 km/h Distance 0.83 km</desc>
<time>2010-02-25T16:26:01.05</time>
<name>585</name>
</trkpt>
<trkpt lat="48.938908" lon="8.656530">
<ele>308.0</ele>
<speed>4.1</speed>
<course>260.4</course>
<desc>Speed 4.1 km/h Distance 0.83 km</desc>
<time>2010-02-25T16:26:02.05</time>
<name>586</name>
</trkpt>
<trkpt lat="48.938907" lon="8.656515">
<ele>307.5</ele>
<speed>3.6</speed>
<course>270.0</course>
<desc>Speed 3.6 km/h Distance 0.83 km</desc>
<time>2010-02-25T16:26:03.06</time>
<name>587</name>
</trkpt>
<trkpt lat="48.938907" lon="8.656512">
<ele>307.5</ele>
<speed>0.9</speed>
<course>270.0</course>
<desc>Speed 0.9 km/h Distance 0.83 km</desc>
<time>2010-02-25T16:26:04.06</time>
<name>588</name>
</trkpt>
<trkpt lat="48.938907" lon="8.656512">
<ele>307.5</ele>
<speed>0.0</speed>
<course>270.0</course>
<desc>Speed 0.0 km/h Distance 0.83 km</desc>
<time>2010-02-25T16:26:05.05</time>
<name>589</name>
</trkpt>
<trkpt lat="48.938907" lon="8.656512">
<ele>307.5</ele>
<speed>0.2</speed>
<course>270.0</course>
<desc>Speed 0.2 km/h Distance 0.83 km</desc>
<time>2010-02-25T16:26:06.05</time>
<name>590</name>
</trkpt>
<trkpt lat="48.938907" lon="8.656512">
<ele>307.5</ele>
<speed>0.1</speed>
<course>270.0</course>
<desc>Speed 0.1 km/h Distance 0.83 km</desc>
<time>2010-02-25T16:26:07.06</time>
<name>591</name>
</trkpt>
<trkpt lat="48.938907" lon="8.656512">
<ele>308.0</ele>
<speed>0.4</speed>
<course>270.0</course>
<desc>Speed 0.4 km/h Distance 0.83 km</desc>
<time>2010-02-25T16:26:08.05</time>
<name>592</name>
</trkpt>
<trkpt lat="48.938907" lon="8.656512">
<ele>307.5</ele>
<speed>0.3</speed>
<course>270.0</course>
<desc>Speed 0.3 km/h Distance 0.83 km</desc>
<time>2010-02-25T16:26:09.05</time>
<name>593</name>
</trkpt>
<trkpt lat="48.938907" lon="8.656512">
<ele>307.5</ele>
<speed>0.2</speed>
<course>167.4</course>
<desc>Speed 0.2 km/h Distance 0.83 km</desc>
<time>2010-02-25T16:26:10.05</time>
<name>594</name>
</trkpt>
<trkpt lat="48.938905" lon="8.656512">
<ele>307.5</ele>
<speed>0.1</speed>
<course>167.4</course>
<desc>Speed 0.1 km/h Distance 0.83 km</desc>
<time>2010-02-25T16:26:11.06</time>
<name>595</name>
</trkpt>
<trkpt lat="48.938905" lon="8.656512">
<ele>307.5</ele>
<speed>0.2</speed>
<course>167.4</course>
<desc>Speed 0.2 km/h Distance 0.83 km</desc>
<time>2010-02-25T16:26:12.05</time>
<name>596</name>
</trkpt>
<trkpt lat="48.938905" lon="8.656512">
<ele>307.5</ele>
<speed>0.1</speed>
<course>167.4</course>
<desc>Speed 0.1 km/h Distance 0.83 km</desc>
<time>2010-02-25T16:26:13.05</time>
<name>597</name>
</trkpt>
<trkpt lat="48.938905" lon="8.656512">
<ele>307.0</ele>
<speed>0.1</speed>
<course>167.4</course>
<desc>Speed 0.1 km/h Distance 0.83 km</desc>
<time>2010-02-25T16:26:14.05</time>
<name>598</name>
</trkpt>
<trkpt lat="48.938905" lon="8.656510">
<ele>307.0</ele>
<speed>0.2</speed>
<course>167.4</course>
<desc>Speed 0.2 km/h Distance 0.83 km</desc>
<time>2010-02-25T16:26:15.04</time>
<name>599</name>
</trkpt>
<trkpt lat="48.938903" lon="8.656510">
<ele>307.0</ele>
<speed>0.2</speed>
<course>167.4</course>
<desc>Speed 0.2 km/h Distance 0.83 km</desc>
<time>2010-02-25T16:26:16.05</time>
<name>600</name>
</trkpt>
<trkpt lat="48.938903" lon="8.656510">
<ele>307.0</ele>
<speed>0.1</speed>
<course>90.0</course>
<desc>Speed 0.1 km/h Distance 0.83 km</desc>
<time>2010-02-25T16:26:17.04</time>
<name>601</name>
</trkpt>
<trkpt lat="48.938903" lon="8.656512">
<ele>307.0</ele>
<speed>0.2</speed>
<course>90.0</course>
<desc>Speed 0.2 km/h Distance 0.83 km</desc>
<time>2010-02-25T16:26:18.05</time>
<name>602</name>
</trkpt>
<trkpt lat="48.938903" lon="8.656512">
<ele>307.0</ele>
<speed>0.1</speed>
<course>90.0</course>
<desc>Speed 0.1 km/h Distance 0.83 km</desc>
<time>2010-02-25T16:26:19.05</time>
<name>603</name>
</trkpt>
<trkpt lat="48.938903" lon="8.656512">
<ele>307.0</ele>
<speed>0.2</speed>
<course>90.0</course>
<desc>Speed 0.2 km/h Distance 0.83 km</desc>
<time>2010-02-25T16:26:20.05</time>
<name>604</name>
</trkpt>
<trkpt lat="48.938903" lon="8.656512">
<ele>307.0</ele>
<speed>0.2</speed>
<course>90.0</course>
<desc>Speed 0.2 km/h Distance 0.83 km</desc>
<time>2010-02-25T16:26:21.05</time>
<name>605</name>
</trkpt>
<trkpt lat="48.938903" lon="8.656512">
<ele>307.0</ele>
<speed>0.1</speed>
<course>90.0</course>
<desc>Speed 0.1 km/h Distance 0.83 km</desc>
<time>2010-02-25T16:26:22.05</time>
<name>606</name>
</trkpt>
<trkpt lat="48.938903" lon="8.656512">
<ele>307.0</ele>
<speed>0.1</speed>
<course>224.5</course>
<desc>Speed 0.1 km/h Distance 0.83 km</desc>
<time>2010-02-25T16:26:23.05</time>
<name>607</name>
</trkpt>
<trkpt lat="48.938900" lon="8.656507">
<ele>307.0</ele>
<speed>1.9</speed>
<course>224.5</course>
<desc>Speed 1.9 km/h Distance 0.83 km</desc>
<time>2010-02-25T16:26:24.05</time>
<name>608</name>
</trkpt>
<trkpt lat="48.938893" lon="8.656497">
<ele>307.0</ele>
<speed>3.3</speed>
<course>218.1</course>
<desc>Speed 3.3 km/h Distance 0.83 km</desc>
<time>2010-02-25T16:26:25.05</time>
<name>609</name>
</trkpt>
<trkpt lat="48.938885" lon="8.656487">
<ele>306.5</ele>
<speed>4.2</speed>
<course>232.7</course>
<desc>Speed 4.2 km/h Distance 0.83 km</desc>
<time>2010-02-25T16:26:26.04</time>
<name>610</name>
</trkpt>
<trkpt lat="48.938878" lon="8.656473">
<ele>306.5</ele>
<speed>4.3</speed>
<course>222.8</course>
<desc>Speed 4.3 km/h Distance 0.83 km</desc>
<time>2010-02-25T16:26:27.04</time>
<name>611</name>
</trkpt>
<trkpt lat="48.938870" lon="8.656462">
<ele>306.0</ele>
<speed>4.6</speed>
<course>236.0</course>
<desc>Speed 4.6 km/h Distance 0.83 km</desc>
<time>2010-02-25T16:26:28.04</time>
<name>612</name>
</trkpt>
<trkpt lat="48.938863" lon="8.656447">
<ele>306.0</ele>
<speed>4.8</speed>
<course>232.7</course>
<desc>Speed 4.8 km/h Distance 0.84 km</desc>
<time>2010-02-25T16:26:29.05</time>
<name>613</name>
</trkpt>
<trkpt lat="48.938857" lon="8.656433">
<ele>306.5</ele>
<speed>4.4</speed>
<course>236.0</course>
<desc>Speed 4.4 km/h Distance 0.84 km</desc>
<time>2010-02-25T16:26:30.04</time>
<name>614</name>
</trkpt>
<trkpt lat="48.938850" lon="8.656418">
<ele>306.5</ele>
<speed>4.3</speed>
<course>229.8</course>
<desc>Speed 4.3 km/h Distance 0.84 km</desc>
<time>2010-02-25T16:26:31.04</time>
<name>615</name>
</trkpt>
<trkpt lat="48.938842" lon="8.656403">
<ele>306.5</ele>
<speed>4.7</speed>
<course>241.0</course>
<desc>Speed 4.7 km/h Distance 0.84 km</desc>
<time>2010-02-25T16:26:32.04</time>
<name>616</name>
</trkpt>
<trkpt lat="48.938835" lon="8.656385">
<ele>307.5</ele>
<speed>4.6</speed>
<course>243.1</course>
<desc>Speed 4.6 km/h Distance 0.84 km</desc>
<time>2010-02-25T16:26:33.04</time>
<name>617</name>
</trkpt>
<trkpt lat="48.938830" lon="8.656370">
<ele>307.0</ele>
<speed>4.6</speed>
<course>236.0</course>
<desc>Speed 4.6 km/h Distance 0.84 km</desc>
<time>2010-02-25T16:26:34.04</time>
<name>618</name>
</trkpt>
<trkpt lat="48.938823" lon="8.656355">
<ele>307.0</ele>
<speed>4.6</speed>
<course>236.0</course>
<desc>Speed 4.6 km/h Distance 0.84 km</desc>
<time>2010-02-25T16:26:35.04</time>
<name>619</name>
</trkpt>
<trkpt lat="48.938817" lon="8.656340">
<ele>307.0</ele>
<speed>4.5</speed>
<course>241.0</course>
<desc>Speed 4.5 km/h Distance 0.84 km</desc>
<time>2010-02-25T16:26:36.04</time>
<name>620</name>
</trkpt>
<trkpt lat="48.938810" lon="8.656322">
<ele>308.0</ele>
<speed>4.4</speed>
<course>238.7</course>
<desc>Speed 4.4 km/h Distance 0.85 km</desc>
<time>2010-02-25T16:26:37.04</time>
<name>621</name>
</trkpt>
<trkpt lat="48.938803" lon="8.656305">
<ele>309.0</ele>
<speed>4.7</speed>
<course>232.8</course>
<desc>Speed 4.7 km/h Distance 0.85 km</desc>
<time>2010-02-25T16:26:38.04</time>
<name>622</name>
</trkpt>
<trkpt lat="48.938797" lon="8.656292">
<ele>309.0</ele>
<speed>4.1</speed>
<course>232.8</course>
<desc>Speed 4.1 km/h Distance 0.85 km</desc>
<time>2010-02-25T16:26:39.04</time>
<name>623</name>
</trkpt>
<trkpt lat="48.938790" lon="8.656278">
<ele>309.0</ele>
<speed>4.6</speed>
<course>232.7</course>
<desc>Speed 4.6 km/h Distance 0.85 km</desc>
<time>2010-02-25T16:26:40.04</time>
<name>624</name>
</trkpt>
<trkpt lat="48.938783" lon="8.656265">
<ele>309.5</ele>
<speed>4.6</speed>
<course>235.9</course>
<desc>Speed 4.6 km/h Distance 0.85 km</desc>
<time>2010-02-25T16:26:41.04</time>
<name>625</name>
</trkpt>
<trkpt lat="48.938777" lon="8.656250">
<ele>309.0</ele>
<speed>4.3</speed>
<course>236.7</course>
<desc>Speed 4.3 km/h Distance 0.85 km</desc>
<time>2010-02-25T16:26:42.04</time>
<name>626</name>
</trkpt>
<trkpt lat="48.938772" lon="8.656238">
<ele>309.5</ele>
<speed>3.6</speed>
<course>238.7</course>
<desc>Speed 3.6 km/h Distance 0.85 km</desc>
<time>2010-02-25T16:26:43.04</time>
<name>627</name>
</trkpt>
<trkpt lat="48.938765" lon="8.656222">
<ele>310.5</ele>
<speed>4.5</speed>
<course>232.7</course>
<desc>Speed 4.5 km/h Distance 0.85 km</desc>
<time>2010-02-25T16:26:44.04</time>
<name>628</name>
</trkpt>
<trkpt lat="48.938758" lon="8.656208">
<ele>310.0</ele>
<speed>4.0</speed>
<course>218.4</course>
<desc>Speed 4.0 km/h Distance 0.86 km</desc>
<time>2010-02-25T16:26:45.04</time>
<name>629</name>
</trkpt>
<trkpt lat="48.938750" lon="8.656198">
<ele>310.5</ele>
<speed>4.1</speed>
<course>224.5</course>
<desc>Speed 4.1 km/h Distance 0.86 km</desc>
<time>2010-02-25T16:26:46.04</time>
<name>630</name>
</trkpt>
<trkpt lat="48.938743" lon="8.656188">
<ele>310.0</ele>
<speed>3.3</speed>
<course>227.8</course>
<desc>Speed 3.3 km/h Distance 0.86 km</desc>
<time>2010-02-25T16:26:47.04</time>
<name>631</name>
</trkpt>
<trkpt lat="48.938738" lon="8.656180">
<ele>310.0</ele>
<speed>3.1</speed>
<course>214.1</course>
<desc>Speed 3.1 km/h Distance 0.86 km</desc>
<time>2010-02-25T16:26:48.03</time>
<name>632</name>
</trkpt>
<trkpt lat="48.938733" lon="8.656175">
<ele>310.5</ele>
<speed>2.3</speed>
<course>209.2</course>
<desc>Speed 2.3 km/h Distance 0.86 km</desc>
<time>2010-02-25T16:26:49.03</time>
<name>633</name>
</trkpt>
<trkpt lat="48.938732" lon="8.656173">
<ele>310.5</ele>
<speed>1.1</speed>
<course>242.6</course>
<desc>Speed 1.1 km/h Distance 0.86 km</desc>
<time>2010-02-25T16:26:50.03</time>
<name>634</name>
</trkpt>
<trkpt lat="48.938730" lon="8.656168">
<ele>310.0</ele>
<speed>1.2</speed>
<course>213.7</course>
<desc>Speed 1.2 km/h Distance 0.86 km</desc>
<time>2010-02-25T16:26:51.03</time>
<name>635</name>
</trkpt>
<trkpt lat="48.938727" lon="8.656165">
<ele>310.0</ele>
<speed>1.0</speed>
<course>270.0</course>
<desc>Speed 1.0 km/h Distance 0.86 km</desc>
<time>2010-02-25T16:26:52.03</time>
<name>636</name>
</trkpt>
<trkpt lat="48.938727" lon="8.656163">
<ele>310.0</ele>
<speed>0.7</speed>
<course>192.6</course>
<desc>Speed 0.7 km/h Distance 0.86 km</desc>
<time>2010-02-25T16:26:53.03</time>
<name>637</name>
</trkpt>
<trkpt lat="48.938722" lon="8.656162">
<ele>310.0</ele>
<speed>2.1</speed>
<course>224.5</course>
<desc>Speed 2.1 km/h Distance 0.86 km</desc>
<time>2010-02-25T16:26:54.03</time>
<name>638</name>
</trkpt>
<trkpt lat="48.938715" lon="8.656152">
<ele>310.0</ele>
<speed>3.7</speed>
<course>222.6</course>
<desc>Speed 3.7 km/h Distance 0.86 km</desc>
<time>2010-02-25T16:26:55.06</time>
<name>639</name>
</trkpt>
<trkpt lat="48.938707" lon="8.656140">
<ele>311.0</ele>
<speed>4.3</speed>
<course>235.9</course>
<desc>Speed 4.3 km/h Distance 0.86 km</desc>
<time>2010-02-25T16:26:56.03</time>
<name>640</name>
</trkpt>
<trkpt lat="48.938700" lon="8.656125">
<ele>311.0</ele>
<speed>4.6</speed>
<course>232.8</course>
<desc>Speed 4.6 km/h Distance 0.87 km</desc>
<time>2010-02-25T16:26:57.03</time>
<name>641</name>
</trkpt>
<trkpt lat="48.938693" lon="8.656112">
<ele>311.0</ele>
<speed>4.0</speed>
<course>243.1</course>
<desc>Speed 4.0 km/h Distance 0.87 km</desc>
<time>2010-02-25T16:26:58.03</time>
<name>642</name>
</trkpt>
<trkpt lat="48.938688" lon="8.656097">
<ele>311.5</ele>
<speed>4.6</speed>
<course>243.1</course>
<desc>Speed 4.6 km/h Distance 0.87 km</desc>
<time>2010-02-25T16:26:59.03</time>
<name>643</name>
</trkpt>
<trkpt lat="48.938683" lon="8.656082">
<ele>311.5</ele>
<speed>4.2</speed>
<course>232.7</course>
<desc>Speed 4.2 km/h Distance 0.87 km</desc>
<time>2010-02-25T16:27:00.04</time>
<name>644</name>
</trkpt>
<trkpt lat="48.938675" lon="8.656065">
<ele>311.5</ele>
<speed>4.9</speed>
<course>232.7</course>
<desc>Speed 4.9 km/h Distance 0.87 km</desc>
<time>2010-02-25T16:27:01.03</time>
<name>645</name>
</trkpt>
<trkpt lat="48.938668" lon="8.656052">
<ele>312.0</ele>
<speed>4.8</speed>
<course>226.5</course>
<desc>Speed 4.8 km/h Distance 0.87 km</desc>
<time>2010-02-25T16:27:02.03</time>
<name>646</name>
</trkpt>
<trkpt lat="48.938660" lon="8.656038">
<ele>312.0</ele>
<speed>4.6</speed>
<course>229.9</course>
<desc>Speed 4.6 km/h Distance 0.87 km</desc>
<time>2010-02-25T16:27:03.03</time>
<name>647</name>
</trkpt>
<trkpt lat="48.938652" lon="8.656023">
<ele>312.5</ele>
<speed>4.8</speed>
<course>222.5</course>
<desc>Speed 4.8 km/h Distance 0.87 km</desc>
<time>2010-02-25T16:27:04.03</time>
<name>648</name>
</trkpt>
<trkpt lat="48.938643" lon="8.656012">
<ele>312.5</ele>
<speed>4.5</speed>
<course>222.6</course>
<desc>Speed 4.5 km/h Distance 0.88 km</desc>
<time>2010-02-25T16:27:05.03</time>
<name>649</name>
</trkpt>
<trkpt lat="48.938635" lon="8.656000">
<ele>312.0</ele>
<speed>4.1</speed>
<course>229.1</course>
<desc>Speed 4.1 km/h Distance 0.88 km</desc>
<time>2010-02-25T16:27:06.03</time>
<name>650</name>
</trkpt>
<trkpt lat="48.938628" lon="8.655988">
<ele>312.0</ele>
<speed>4.0</speed>
<course>229.8</course>
<desc>Speed 4.0 km/h Distance 0.88 km</desc>
<time>2010-02-25T16:27:07.03</time>
<name>651</name>
</trkpt>
<trkpt lat="48.938620" lon="8.655973">
<ele>312.0</ele>
<speed>4.6</speed>
<course>230.3</course>
<desc>Speed 4.6 km/h Distance 0.88 km</desc>
<time>2010-02-25T16:27:08.02</time>
<name>652</name>
</trkpt>
<trkpt lat="48.938610" lon="8.655955">
<ele>312.5</ele>
<speed>5.3</speed>
<course>235.3</course>
<desc>Speed 5.3 km/h Distance 0.88 km</desc>
<time>2010-02-25T16:27:09.03</time>
<name>653</name>
</trkpt>
<trkpt lat="48.938602" lon="8.655937">
<ele>313.5</ele>
<speed>5.7</speed>
<course>224.6</course>
<desc>Speed 5.7 km/h Distance 0.88 km</desc>
<time>2010-02-25T16:27:10.02</time>
<name>654</name>
</trkpt>
<trkpt lat="48.938592" lon="8.655922">
<ele>313.5</ele>
<speed>4.8</speed>
<course>226.4</course>
<desc>Speed 4.8 km/h Distance 0.88 km</desc>
<time>2010-02-25T16:27:11.03</time>
<name>655</name>
</trkpt>
<trkpt lat="48.938583" lon="8.655908">
<ele>313.0</ele>
<speed>4.4</speed>
<course>226.4</course>
<desc>Speed 4.4 km/h Distance 0.89 km</desc>
<time>2010-02-25T16:27:12.02</time>
<name>656</name>
</trkpt>
<trkpt lat="48.938575" lon="8.655895">
<ele>313.0</ele>
<speed>4.5</speed>
<course>229.8</course>
<desc>Speed 4.5 km/h Distance 0.89 km</desc>
<time>2010-02-25T16:27:13.02</time>
<name>657</name>
</trkpt>
<trkpt lat="48.938567" lon="8.655880">
<ele>313.0</ele>
<speed>4.5</speed>
<course>226.4</course>
<desc>Speed 4.5 km/h Distance 0.89 km</desc>
<time>2010-02-25T16:27:14.02</time>
<name>658</name>
</trkpt>
<trkpt lat="48.938558" lon="8.655867">
<ele>313.0</ele>
<speed>4.8</speed>
<course>229.9</course>
<desc>Speed 4.8 km/h Distance 0.89 km</desc>
<time>2010-02-25T16:27:15.02</time>
<name>659</name>
</trkpt>
<trkpt lat="48.938550" lon="8.655852">
<ele>313.5</ele>
<speed>4.8</speed>
<course>221.3</course>
<desc>Speed 4.8 km/h Distance 0.89 km</desc>
<time>2010-02-25T16:27:16.02</time>
<name>660</name>
</trkpt>
<trkpt lat="48.938540" lon="8.655838">
<ele>313.0</ele>
<speed>4.7</speed>
<course>229.7</course>
<desc>Speed 4.7 km/h Distance 0.89 km</desc>
<time>2010-02-25T16:27:17.02</time>
<name>661</name>
</trkpt>
<trkpt lat="48.938532" lon="8.655823">
<ele>313.5</ele>
<speed>4.2</speed>
<course>226.4</course>
<desc>Speed 4.2 km/h Distance 0.89 km</desc>
<time>2010-02-25T16:27:18.02</time>
<name>662</name>
</trkpt>
<trkpt lat="48.938523" lon="8.655810">
<ele>313.0</ele>
<speed>4.2</speed>
<course>221.2</course>
<desc>Speed 4.2 km/h Distance 0.90 km</desc>
<time>2010-02-25T16:27:19.02</time>
<name>663</name>
</trkpt>
<trkpt lat="48.938513" lon="8.655797">
<ele>313.5</ele>
<speed>4.4</speed>
<course>221.3</course>
<desc>Speed 4.4 km/h Distance 0.90 km</desc>
<time>2010-02-25T16:27:20.02</time>
<name>664</name>
</trkpt>
<trkpt lat="48.938503" lon="8.655783">
<ele>314.0</ele>
<speed>4.6</speed>
<course>222.8</course>
<desc>Speed 4.6 km/h Distance 0.90 km</desc>
<time>2010-02-25T16:27:21.02</time>
<name>665</name>
</trkpt>
<trkpt lat="48.938495" lon="8.655772">
<ele>314.0</ele>
<speed>4.4</speed>
<course>221.2</course>
<desc>Speed 4.4 km/h Distance 0.90 km</desc>
<time>2010-02-25T16:27:22.02</time>
<name>666</name>
</trkpt>
<trkpt lat="48.938485" lon="8.655758">
<ele>314.0</ele>
<speed>4.5</speed>
<course>224.5</course>
<desc>Speed 4.5 km/h Distance 0.90 km</desc>
<time>2010-02-25T16:27:23.02</time>
<name>667</name>
</trkpt>
<trkpt lat="48.938475" lon="8.655743">
<ele>314.5</ele>
<speed>4.5</speed>
<course>224.5</course>
<desc>Speed 4.5 km/h Distance 0.90 km</desc>
<time>2010-02-25T16:27:24.02</time>
<name>668</name>
</trkpt>
<trkpt lat="48.938465" lon="8.655728">
<ele>315.0</ele>
<speed>4.2</speed>
<course>227.6</course>
<desc>Speed 4.2 km/h Distance 0.90 km</desc>
<time>2010-02-25T16:27:25.02</time>
<name>669</name>
</trkpt>
<trkpt lat="48.938455" lon="8.655712">
<ele>315.5</ele>
<speed>4.8</speed>
<course>227.6</course>
<desc>Speed 4.8 km/h Distance 0.91 km</desc>
<time>2010-02-25T16:27:26.02</time>
<name>670</name>
</trkpt>
<trkpt lat="48.938445" lon="8.655695">
<ele>316.5</ele>
<speed>4.9</speed>
<course>227.6</course>
<desc>Speed 4.9 km/h Distance 0.91 km</desc>
<time>2010-02-25T16:27:27.02</time>
<name>671</name>
</trkpt>
<trkpt lat="48.938435" lon="8.655678">
<ele>317.5</ele>
<speed>4.6</speed>
<course>222.6</course>
<desc>Speed 4.6 km/h Distance 0.91 km</desc>
<time>2010-02-25T16:27:28.02</time>
<name>672</name>
</trkpt>
<trkpt lat="48.938427" lon="8.655667">
<ele>317.5</ele>
<speed>4.6</speed>
<course>224.6</course>
<desc>Speed 4.6 km/h Distance 0.91 km</desc>
<time>2010-02-25T16:27:29.02</time>
<name>673</name>
</trkpt>
<trkpt lat="48.938417" lon="8.655652">
<ele>317.5</ele>
<speed>4.6</speed>
<course>221.3</course>
<desc>Speed 4.6 km/h Distance 0.91 km</desc>
<time>2010-02-25T16:27:30.01</time>
<name>674</name>
</trkpt>
<trkpt lat="48.938407" lon="8.655638">
<ele>318.0</ele>
<speed>4.5</speed>
<course>221.2</course>
<desc>Speed 4.5 km/h Distance 0.91 km</desc>
<time>2010-02-25T16:27:31.01</time>
<name>675</name>
</trkpt>
<trkpt lat="48.938397" lon="8.655625">
<ele>318.5</ele>
<speed>4.7</speed>
<course>229.7</course>
<desc>Speed 4.7 km/h Distance 0.92 km</desc>
<time>2010-02-25T16:27:32.01</time>
<name>676</name>
</trkpt>
<trkpt lat="48.938388" lon="8.655610">
<ele>319.0</ele>
<speed>4.5</speed>
<course>213.1</course>
<desc>Speed 4.5 km/h Distance 0.92 km</desc>
<time>2010-02-25T16:27:33.01</time>
<name>677</name>
</trkpt>
<trkpt lat="48.938377" lon="8.655598">
<ele>319.0</ele>
<speed>4.7</speed>
<course>217.5</course>
<desc>Speed 4.7 km/h Distance 0.92 km</desc>
<time>2010-02-25T16:27:34.01</time>
<name>678</name>
</trkpt>
<trkpt lat="48.938367" lon="8.655587">
<ele>319.0</ele>
<speed>4.9</speed>
<course>213.3</course>
<desc>Speed 4.9 km/h Distance 0.92 km</desc>
<time>2010-02-25T16:27:35.01</time>
<name>679</name>
</trkpt>
<trkpt lat="48.938355" lon="8.655575">
<ele>319.0</ele>
<speed>5.0</speed>
<course>209.4</course>
<desc>Speed 5.0 km/h Distance 0.92 km</desc>
<time>2010-02-25T16:27:36.01</time>
<name>680</name>
</trkpt>
<trkpt lat="48.938343" lon="8.655565">
<ele>319.5</ele>
<speed>4.8</speed>
<course>217.5</course>
<desc>Speed 4.8 km/h Distance 0.92 km</desc>
<time>2010-02-25T16:27:37.01</time>
<name>681</name>
</trkpt>
<trkpt lat="48.938333" lon="8.655553">
<ele>319.5</ele>
<speed>4.8</speed>
<course>224.6</course>
<desc>Speed 4.8 km/h Distance 0.92 km</desc>
<time>2010-02-25T16:27:38.01</time>
<name>682</name>
</trkpt>
<trkpt lat="48.938323" lon="8.655538">
<ele>319.5</ele>
<speed>4.9</speed>
<course>221.3</course>
<desc>Speed 4.9 km/h Distance 0.93 km</desc>
<time>2010-02-25T16:27:39.01</time>
<name>683</name>
</trkpt>
<trkpt lat="48.938313" lon="8.655525">
<ele>320.0</ele>
<speed>4.7</speed>
<course>224.6</course>
<desc>Speed 4.7 km/h Distance 0.93 km</desc>
<time>2010-02-25T16:27:40.01</time>
<name>684</name>
</trkpt>
<trkpt lat="48.938303" lon="8.655510">
<ele>320.5</ele>
<speed>4.6</speed>
<course>229.7</course>
<desc>Speed 4.6 km/h Distance 0.93 km</desc>
<time>2010-02-25T16:27:41.01</time>
<name>685</name>
</trkpt>
<trkpt lat="48.938295" lon="8.655495">
<ele>321.0</ele>
<speed>4.5</speed>
<course>227.6</course>
<desc>Speed 4.5 km/h Distance 0.93 km</desc>
<time>2010-02-25T16:27:42.01</time>
<name>686</name>
</trkpt>
<trkpt lat="48.938285" lon="8.655478">
<ele>321.5</ele>
<speed>4.5</speed>
<course>235.9</course>
<desc>Speed 4.5 km/h Distance 0.93 km</desc>
<time>2010-02-25T16:27:43.01</time>
<name>687</name>
</trkpt>
<trkpt lat="48.938278" lon="8.655463">
<ele>321.5</ele>
<speed>4.4</speed>
<course>224.5</course>
<desc>Speed 4.4 km/h Distance 0.93 km</desc>
<time>2010-02-25T16:27:44.01</time>
<name>688</name>
</trkpt>
<trkpt lat="48.938268" lon="8.655448">
<ele>322.0</ele>
<speed>4.8</speed>
<course>221.2</course>
<desc>Speed 4.8 km/h Distance 0.93 km</desc>
<time>2010-02-25T16:27:45.01</time>
<name>689</name>
</trkpt>
<trkpt lat="48.938258" lon="8.655435">
<ele>322.0</ele>
<speed>4.9</speed>
<course>226.4</course>
<desc>Speed 4.9 km/h Distance 0.94 km</desc>
<time>2010-02-25T16:27:46.01</time>
<name>690</name>
</trkpt>
<trkpt lat="48.938250" lon="8.655422">
<ele>322.5</ele>
<speed>4.7</speed>
<course>232.7</course>
<desc>Speed 4.7 km/h Distance 0.94 km</desc>
<time>2010-02-25T16:27:47.01</time>
<name>691</name>
</trkpt>
<trkpt lat="48.938242" lon="8.655405">
<ele>322.5</ele>
<speed>4.7</speed>
<course>238.6</course>
<desc>Speed 4.7 km/h Distance 0.94 km</desc>
<time>2010-02-25T16:27:48.01</time>
<name>692</name>
</trkpt>
<trkpt lat="48.938235" lon="8.655388">
<ele>323.0</ele>
<speed>4.7</speed>
<course>232.7</course>
<desc>Speed 4.7 km/h Distance 0.94 km</desc>
<time>2010-02-25T16:27:49.01</time>
<name>693</name>
</trkpt>
<trkpt lat="48.938227" lon="8.655372">
<ele>323.0</ele>
<speed>5.0</speed>
<course>241.0</course>
<desc>Speed 5.0 km/h Distance 0.94 km</desc>
<time>2010-02-25T16:27:50.01</time>
<name>694</name>
</trkpt>
<trkpt lat="48.938220" lon="8.655353">
<ele>323.5</ele>
<speed>5.0</speed>
<course>247.4</course>
<desc>Speed 5.0 km/h Distance 0.94 km</desc>
<time>2010-02-25T16:27:51.01</time>
<name>695</name>
</trkpt>
<trkpt lat="48.938215" lon="8.655335">
<ele>323.5</ele>
<speed>5.1</speed>
<course>255.8</course>
<desc>Speed 5.1 km/h Distance 0.95 km</desc>
<time>2010-02-25T16:27:52.00</time>
<name>696</name>
</trkpt>
<trkpt lat="48.938212" lon="8.655315">
<ele>323.5</ele>
<speed>5.2</speed>
<course>255.8</course>
<desc>Speed 5.2 km/h Distance 0.95 km</desc>
<time>2010-02-25T16:27:53.00</time>
<name>697</name>
</trkpt>
<trkpt lat="48.938208" lon="8.655295">
<ele>323.5</ele>
<speed>5.2</speed>
<course>249.2</course>
<desc>Speed 5.2 km/h Distance 0.95 km</desc>
<time>2010-02-25T16:27:54.00</time>
<name>698</name>
</trkpt>
<trkpt lat="48.938203" lon="8.655275">
<ele>323.5</ele>
<speed>5.1</speed>
<course>262.8</course>
<desc>Speed 5.1 km/h Distance 0.95 km</desc>
<time>2010-02-25T16:27:55.00</time>
<name>699</name>
</trkpt>
<trkpt lat="48.938202" lon="8.655255">
<ele>323.5</ele>
<speed>5.0</speed>
<course>254.5</course>
<desc>Speed 5.0 km/h Distance 0.95 km</desc>
<time>2010-02-25T16:27:56.00</time>
<name>700</name>
</trkpt>
<trkpt lat="48.938198" lon="8.655237">
<ele>323.5</ele>
<speed>4.8</speed>
<course>263.3</course>
<desc>Speed 4.8 km/h Distance 0.95 km</desc>
<time>2010-02-25T16:27:57.00</time>
<name>701</name>
</trkpt>
<trkpt lat="48.938197" lon="8.655215">
<ele>324.0</ele>
<speed>4.9</speed>
<course>255.8</course>
<desc>Speed 4.9 km/h Distance 0.95 km</desc>
<time>2010-02-25T16:27:58.00</time>
<name>702</name>
</trkpt>
<trkpt lat="48.938193" lon="8.655195">
<ele>324.0</ele>
<speed>4.6</speed>
<course>256.8</course>
<desc>Speed 4.6 km/h Distance 0.96 km</desc>
<time>2010-02-25T16:27:59.00</time>
<name>703</name>
</trkpt>
<trkpt lat="48.938190" lon="8.655173">
<ele>324.5</ele>
<speed>5.0</speed>
<course>263.3</course>
<desc>Speed 5.0 km/h Distance 0.96 km</desc>
<time>2010-02-25T16:28:00.00</time>
<name>704</name>
</trkpt>
<trkpt lat="48.938188" lon="8.655152">
<ele>325.0</ele>
<speed>5.0</speed>
<course>257.7</course>
<desc>Speed 5.0 km/h Distance 0.96 km</desc>
<time>2010-02-25T16:28:01.00</time>
<name>705</name>
</trkpt>
<trkpt lat="48.938185" lon="8.655128">
<ele>325.5</ele>
<speed>5.1</speed>
<course>256.8</course>
<desc>Speed 5.1 km/h Distance 0.96 km</desc>
<time>2010-02-25T16:28:02.00</time>
<name>706</name>
</trkpt>
<trkpt lat="48.938182" lon="8.655107">
<ele>326.0</ele>
<speed>5.1</speed>
<course>255.8</course>
<desc>Speed 5.1 km/h Distance 0.96 km</desc>
<time>2010-02-25T16:28:03.00</time>
<name>707</name>
</trkpt>
<trkpt lat="48.938178" lon="8.655087">
<ele>326.5</ele>
<speed>4.9</speed>
<course>255.8</course>
<desc>Speed 4.9 km/h Distance 0.96 km</desc>
<time>2010-02-25T16:28:04.00</time>
<name>708</name>
</trkpt>
<trkpt lat="48.938175" lon="8.655067">
<ele>327.0</ele>
<speed>5.0</speed>
<course>255.8</course>
<desc>Speed 5.0 km/h Distance 0.97 km</desc>
<time>2010-02-25T16:28:05.03</time>
<name>709</name>
</trkpt>
<trkpt lat="48.938172" lon="8.655047">
<ele>327.5</ele>
<speed>5.0</speed>
<course>255.8</course>
<desc>Speed 5.0 km/h Distance 0.97 km</desc>
<time>2010-02-25T16:28:06.00</time>
<name>710</name>
</trkpt>
<trkpt lat="48.938168" lon="8.655027">
<ele>328.0</ele>
<speed>5.3</speed>
<course>262.8</course>
<desc>Speed 5.3 km/h Distance 0.97 km</desc>
<time>2010-02-25T16:28:07.00</time>
<name>711</name>
</trkpt>
<trkpt lat="48.938167" lon="8.655007">
<ele>328.5</ele>
<speed>5.0</speed>
<course>262.8</course>
<desc>Speed 5.0 km/h Distance 0.97 km</desc>
<time>2010-02-25T16:28:08.00</time>
<name>712</name>
</trkpt>
<trkpt lat="48.938165" lon="8.654987">
<ele>329.0</ele>
<speed>5.0</speed>
<course>262.8</course>
<desc>Speed 5.0 km/h Distance 0.97 km</desc>
<time>2010-02-25T16:28:09.00</time>
<name>713</name>
</trkpt>
<trkpt lat="48.938163" lon="8.654967">
<ele>329.0</ele>
<speed>5.0</speed>
<course>262.1</course>
<desc>Speed 5.0 km/h Distance 0.97 km</desc>
<time>2010-02-25T16:28:10.00</time>
<name>714</name>
</trkpt>
<trkpt lat="48.938162" lon="8.654948">
<ele>329.0</ele>
<speed>5.0</speed>
<course>262.1</course>
<desc>Speed 5.0 km/h Distance 0.97 km</desc>
<time>2010-02-25T16:28:11.00</time>
<name>715</name>
</trkpt>
<trkpt lat="48.938160" lon="8.654930">
<ele>329.5</ele>
<speed>4.7</speed>
<course>255.8</course>
<desc>Speed 4.7 km/h Distance 0.98 km</desc>
<time>2010-02-25T16:28:12.00</time>
<name>716</name>
</trkpt>
<trkpt lat="48.938157" lon="8.654910">
<ele>329.5</ele>
<speed>4.8</speed>
<course>254.5</course>
<desc>Speed 4.8 km/h Distance 0.98 km</desc>
<time>2010-02-25T16:28:13.00</time>
<name>717</name>
</trkpt>
<trkpt lat="48.938153" lon="8.654892">
<ele>329.5</ele>
<speed>4.8</speed>
<course>262.8</course>
<desc>Speed 4.8 km/h Distance 0.98 km</desc>
<time>2010-02-25T16:28:13.99</time>
<name>718</name>
</trkpt>
<trkpt lat="48.938152" lon="8.654872">
<ele>330.0</ele>
<speed>4.9</speed>
<course>270.0</course>
<desc>Speed 4.9 km/h Distance 0.98 km</desc>
<time>2010-02-25T16:28:14.99</time>
<name>719</name>
</trkpt>
<trkpt lat="48.938152" lon="8.654852">
<ele>330.0</ele>
<speed>4.8</speed>
<course>262.1</course>
<desc>Speed 4.8 km/h Distance 0.98 km</desc>
<time>2010-02-25T16:28:15.99</time>
<name>720</name>
</trkpt>
<trkpt lat="48.938150" lon="8.654833">
<ele>330.5</ele>
<speed>4.6</speed>
<course>262.1</course>
<desc>Speed 4.6 km/h Distance 0.98 km</desc>
<time>2010-02-25T16:28:16.99</time>
<name>721</name>
</trkpt>
<trkpt lat="48.938148" lon="8.654815">
<ele>331.0</ele>
<speed>4.8</speed>
<course>262.8</course>
<desc>Speed 4.8 km/h Distance 0.98 km</desc>
<time>2010-02-25T16:28:17.99</time>
<name>722</name>
</trkpt>
<trkpt lat="48.938147" lon="8.654795">
<ele>331.0</ele>
<speed>5.0</speed>
<course>270.0</course>
<desc>Speed 5.0 km/h Distance 0.99 km</desc>
<time>2010-02-25T16:28:18.99</time>
<name>723</name>
</trkpt>
<trkpt lat="48.938147" lon="8.654777">
<ele>331.0</ele>
<speed>4.7</speed>
<course>270.0</course>
<desc>Speed 4.7 km/h Distance 0.99 km</desc>
<time>2010-02-25T16:28:19.99</time>
<name>724</name>
</trkpt>
<trkpt lat="48.938147" lon="8.654758">
<ele>331.0</ele>
<speed>4.6</speed>
<course>270.0</course>
<desc>Speed 4.6 km/h Distance 0.99 km</desc>
<time>2010-02-25T16:28:20.98</time>
<name>725</name>
</trkpt>
<trkpt lat="48.938147" lon="8.654743">
<ele>331.5</ele>
<speed>4.2</speed>
<course>254.5</course>
<desc>Speed 4.2 km/h Distance 0.99 km</desc>
<time>2010-02-25T16:28:21.98</time>
<name>726</name>
</trkpt>
<trkpt lat="48.938143" lon="8.654725">
<ele>331.5</ele>
<speed>4.6</speed>
<course>251.3</course>
<desc>Speed 4.6 km/h Distance 0.99 km</desc>
<time>2010-02-25T16:28:22.99</time>
<name>727</name>
</trkpt>
<trkpt lat="48.938140" lon="8.654710">
<ele>332.0</ele>
<speed>4.1</speed>
<course>261.3</course>
<desc>Speed 4.1 km/h Distance 0.99 km</desc>
<time>2010-02-25T16:28:23.99</time>
<name>728</name>
</trkpt>
<trkpt lat="48.938138" lon="8.654693">
<ele>332.0</ele>
<speed>4.3</speed>
<course>262.1</course>
<desc>Speed 4.3 km/h Distance 0.99 km</desc>
<time>2010-02-25T16:28:24.99</time>
<name>729</name>
</trkpt>
<trkpt lat="48.938137" lon="8.654675">
<ele>332.0</ele>
<speed>4.5</speed>
<course>270.0</course>
<desc>Speed 4.5 km/h Distance 0.99 km</desc>
<time>2010-02-25T16:28:25.99</time>
<name>730</name>
</trkpt>
<trkpt lat="48.938137" lon="8.654657">
<ele>332.5</ele>
<speed>4.7</speed>
<course>270.0</course>
<desc>Speed 4.7 km/h Distance 1.00 km</desc>
<time>2010-02-25T16:28:26.99</time>
<name>731</name>
</trkpt>
<trkpt lat="48.938137" lon="8.654638">
<ele>332.5</ele>
<speed>4.5</speed>
<course>262.1</course>
<desc>Speed 4.5 km/h Distance 1.00 km</desc>
<time>2010-02-25T16:28:27.99</time>
<name>732</name>
</trkpt>
<trkpt lat="48.938135" lon="8.654620">
<ele>332.5</ele>
<speed>4.4</speed>
<course>261.3</course>
<desc>Speed 4.4 km/h Distance 1.00 km</desc>
<time>2010-02-25T16:28:28.98</time>
<name>733</name>
</trkpt>
<trkpt lat="48.938133" lon="8.654603">
<ele>333.0</ele>
<speed>4.6</speed>
<course>270.0</course>
<desc>Speed 4.6 km/h Distance 1.00 km</desc>
<time>2010-02-25T16:28:29.98</time>
<name>734</name>
</trkpt>
<trkpt lat="48.938133" lon="8.654585">
<ele>333.0</ele>
<speed>4.6</speed>
<course>262.1</course>
<desc>Speed 4.6 km/h Distance 1.00 km</desc>
<time>2010-02-25T16:28:30.99</time>
<name>735</name>
</trkpt>
<trkpt lat="48.938132" lon="8.654567">
<ele>332.5</ele>
<speed>4.5</speed>
<course>270.0</course>
<desc>Speed 4.5 km/h Distance 1.00 km</desc>
<time>2010-02-25T16:28:31.98</time>
<name>736</name>
</trkpt>
<trkpt lat="48.938132" lon="8.654548">
<ele>332.5</ele>
<speed>4.2</speed>
<course>262.1</course>
<desc>Speed 4.2 km/h Distance 1.00 km</desc>
<time>2010-02-25T16:28:32.98</time>
<name>737</name>
</trkpt>
<trkpt lat="48.938130" lon="8.654530">
<ele>332.5</ele>
<speed>4.7</speed>
<course>270.0</course>
<desc>Speed 4.7 km/h Distance 1.00 km</desc>
<time>2010-02-25T16:28:33.99</time>
<name>738</name>
</trkpt>
<trkpt lat="48.938130" lon="8.654512">
<ele>333.0</ele>
<speed>4.2</speed>
<course>270.0</course>
<desc>Speed 4.2 km/h Distance 1.01 km</desc>
<time>2010-02-25T16:28:34.99</time>
<name>739</name>
</trkpt>
<trkpt lat="48.938130" lon="8.654493">
<ele>332.5</ele>
<speed>4.2</speed>
<course>270.0</course>
<desc>Speed 4.2 km/h Distance 1.01 km</desc>
<time>2010-02-25T16:28:35.98</time>
<name>740</name>
</trkpt>
<trkpt lat="48.938130" lon="8.654477">
<ele>333.0</ele>
<speed>4.5</speed>
<course>262.1</course>
<desc>Speed 4.5 km/h Distance 1.01 km</desc>
<time>2010-02-25T16:28:36.98</time>
<name>741</name>
</trkpt>
<trkpt lat="48.938128" lon="8.654458">
<ele>333.0</ele>
<speed>4.5</speed>
<course>255.8</course>
<desc>Speed 4.5 km/h Distance 1.01 km</desc>
<time>2010-02-25T16:28:37.98</time>
<name>742</name>
</trkpt>
<trkpt lat="48.938125" lon="8.654438">
<ele>333.0</ele>
<speed>4.6</speed>
<course>262.1</course>
<desc>Speed 4.6 km/h Distance 1.01 km</desc>
<time>2010-02-25T16:28:38.98</time>
<name>743</name>
</trkpt>
<trkpt lat="48.938123" lon="8.654420">
<ele>333.0</ele>
<speed>4.5</speed>
<course>262.1</course>
<desc>Speed 4.5 km/h Distance 1.01 km</desc>
<time>2010-02-25T16:28:39.98</time>
<name>744</name>
</trkpt>
<trkpt lat="48.938122" lon="8.654402">
<ele>333.5</ele>
<speed>4.5</speed>
<course>262.8</course>
<desc>Speed 4.5 km/h Distance 1.01 km</desc>
<time>2010-02-25T16:28:40.99</time>
<name>745</name>
</trkpt>
<trkpt lat="48.938120" lon="8.654382">
<ele>334.0</ele>
<speed>4.6</speed>
<course>254.5</course>
<desc>Speed 4.6 km/h Distance 1.02 km</desc>
<time>2010-02-25T16:28:41.98</time>
<name>746</name>
</trkpt>
<trkpt lat="48.938117" lon="8.654363">
<ele>334.5</ele>
<speed>4.5</speed>
<course>262.8</course>
<desc>Speed 4.5 km/h Distance 1.02 km</desc>
<time>2010-02-25T16:28:42.97</time>
<name>747</name>
</trkpt>
<trkpt lat="48.938115" lon="8.654343">
<ele>334.5</ele>
<speed>4.9</speed>
<course>261.3</course>
<desc>Speed 4.9 km/h Distance 1.02 km</desc>
<time>2010-02-25T16:28:43.97</time>
<name>748</name>
</trkpt>
<trkpt lat="48.938113" lon="8.654327">
<ele>334.5</ele>
<speed>4.2</speed>
<course>254.5</course>
<desc>Speed 4.2 km/h Distance 1.02 km</desc>
<time>2010-02-25T16:28:44.97</time>
<name>749</name>
</trkpt>
<trkpt lat="48.938110" lon="8.654308">
<ele>334.5</ele>
<speed>4.5</speed>
<course>249.2</course>
<desc>Speed 4.5 km/h Distance 1.02 km</desc>
<time>2010-02-25T16:28:45.97</time>
<name>750</name>
</trkpt>
<trkpt lat="48.938105" lon="8.654288">
<ele>335.0</ele>
<speed>5.0</speed>
<course>262.1</course>
<desc>Speed 5.0 km/h Distance 1.02 km</desc>
<time>2010-02-25T16:28:46.97</time>
<name>751</name>
</trkpt>
<trkpt lat="48.938103" lon="8.654270">
<ele>335.5</ele>
<speed>4.6</speed>
<course>254.5</course>
<desc>Speed 4.6 km/h Distance 1.02 km</desc>
<time>2010-02-25T16:28:47.98</time>
<name>752</name>
</trkpt>
<trkpt lat="48.938100" lon="8.654252">
<ele>336.0</ele>
<speed>4.7</speed>
<course>262.1</course>
<desc>Speed 4.7 km/h Distance 1.03 km</desc>
<time>2010-02-25T16:28:48.98</time>
<name>753</name>
</trkpt>
<trkpt lat="48.938098" lon="8.654233">
<ele>336.0</ele>
<speed>4.5</speed>
<course>261.3</course>
<desc>Speed 4.5 km/h Distance 1.03 km</desc>
<time>2010-02-25T16:28:49.98</time>
<name>754</name>
</trkpt>
<trkpt lat="48.938097" lon="8.654217">
<ele>336.5</ele>
<speed>4.4</speed>
<course>262.1</course>
<desc>Speed 4.4 km/h Distance 1.03 km</desc>
<time>2010-02-25T16:28:50.98</time>
<name>755</name>
</trkpt>
<trkpt lat="48.938095" lon="8.654198">
<ele>336.5</ele>
<speed>4.1</speed>
<course>261.3</course>
<desc>Speed 4.1 km/h Distance 1.03 km</desc>
<time>2010-02-25T16:28:51.97</time>
<name>756</name>
</trkpt>
<trkpt lat="48.938093" lon="8.654182">
<ele>337.0</ele>
<speed>4.3</speed>
<course>254.5</course>
<desc>Speed 4.3 km/h Distance 1.03 km</desc>
<time>2010-02-25T16:28:52.98</time>
<name>757</name>
</trkpt>
<trkpt lat="48.938090" lon="8.654163">
<ele>337.0</ele>
<speed>4.6</speed>
<course>247.4</course>
<desc>Speed 4.6 km/h Distance 1.03 km</desc>
<time>2010-02-25T16:28:53.97</time>
<name>758</name>
</trkpt>
<trkpt lat="48.938085" lon="8.654145">
<ele>337.0</ele>
<speed>4.7</speed>
<course>238.6</course>
<desc>Speed 4.7 km/h Distance 1.03 km</desc>
<time>2010-02-25T16:28:54.97</time>
<name>759</name>
</trkpt>
<trkpt lat="48.938078" lon="8.654128">
<ele>337.0</ele>
<speed>4.9</speed>
<course>262.1</course>
<desc>Speed 4.9 km/h Distance 1.04 km</desc>
<time>2010-02-25T16:28:55.97</time>
<name>760</name>
</trkpt>
<trkpt lat="48.938077" lon="8.654110">
<ele>337.0</ele>
<speed>4.5</speed>
<course>279.6</course>
<desc>Speed 4.5 km/h Distance 1.04 km</desc>
<time>2010-02-25T16:28:56.97</time>
<name>761</name>
</trkpt>
<trkpt lat="48.938078" lon="8.654095">
<ele>337.0</ele>
<speed>3.9</speed>
<course>278.7</course>
<desc>Speed 3.9 km/h Distance 1.04 km</desc>
<time>2010-02-25T16:28:57.98</time>
<name>762</name>
</trkpt>
<trkpt lat="48.938080" lon="8.654078">
<ele>337.0</ele>
<speed>4.1</speed>
<course>262.1</course>
<desc>Speed 4.1 km/h Distance 1.04 km</desc>
<time>2010-02-25T16:28:58.96</time>
<name>763</name>
</trkpt>
<trkpt lat="48.938078" lon="8.654060">
<ele>337.0</ele>
<speed>4.3</speed>
<course>270.0</course>
<desc>Speed 4.3 km/h Distance 1.04 km</desc>
<time>2010-02-25T16:28:59.96</time>
<name>764</name>
</trkpt>
<trkpt lat="48.938078" lon="8.654043">
<ele>337.5</ele>
<speed>4.1</speed>
<course>262.1</course>
<desc>Speed 4.1 km/h Distance 1.04 km</desc>
<time>2010-02-25T16:29:00.97</time>
<name>765</name>
</trkpt>
<trkpt lat="48.938077" lon="8.654025">
<ele>337.5</ele>
<speed>4.1</speed>
<course>254.5</course>
<desc>Speed 4.1 km/h Distance 1.04 km</desc>
<time>2010-02-25T16:29:02.00</time>
<name>766</name>
</trkpt>
<trkpt lat="48.938073" lon="8.654007">
<ele>337.5</ele>
<speed>4.4</speed>
<course>255.8</course>
<desc>Speed 4.4 km/h Distance 1.04 km</desc>
<time>2010-02-25T16:29:02.97</time>
<name>767</name>
</trkpt>
<trkpt lat="48.938070" lon="8.653987">
<ele>338.0</ele>
<speed>4.6</speed>
<course>262.1</course>
<desc>Speed 4.6 km/h Distance 1.05 km</desc>
<time>2010-02-25T16:29:03.97</time>
<name>768</name>
</trkpt>
<trkpt lat="48.938068" lon="8.653968">
<ele>338.0</ele>
<speed>4.6</speed>
<course>262.1</course>
<desc>Speed 4.6 km/h Distance 1.05 km</desc>
<time>2010-02-25T16:29:04.97</time>
<name>769</name>
</trkpt>
<trkpt lat="48.938067" lon="8.653950">
<ele>338.5</ele>
<speed>4.6</speed>
<course>240.3</course>
<desc>Speed 4.6 km/h Distance 1.05 km</desc>
<time>2010-02-25T16:29:05.97</time>
<name>770</name>
</trkpt>
<trkpt lat="48.938062" lon="8.653937">
<ele>338.5</ele>
<speed>3.5</speed>
<course>0.0</course>
<desc>Speed 3.5 km/h Distance 1.05 km</desc>
<time>2010-02-25T16:29:06.97</time>
<name>771</name>
</trkpt>
<trkpt lat="48.938063" lon="8.653937">
<ele>338.5</ele>
<speed>0.4</speed>
<course>0.0</course>
<desc>Speed 0.4 km/h Distance 1.05 km</desc>
<time>2010-02-25T16:29:07.97</time>
<name>772</name>
</trkpt>
<trkpt lat="48.938063" lon="8.653937">
<ele>338.5</ele>
<speed>0.2</speed>
<course>0.0</course>
<desc>Speed 0.2 km/h Distance 1.05 km</desc>
<time>2010-02-25T16:29:08.97</time>
<name>773</name>
</trkpt>
<trkpt lat="48.938063" lon="8.653937">
<ele>338.5</ele>
<speed>0.4</speed>
<course>0.0</course>
<desc>Speed 0.4 km/h Distance 1.05 km</desc>
<time>2010-02-25T16:29:09.97</time>
<name>774</name>
</trkpt>
<trkpt lat="48.938063" lon="8.653937">
<ele>338.5</ele>
<speed>0.2</speed>
<course>0.0</course>
<desc>Speed 0.2 km/h Distance 1.05 km</desc>
<time>2010-02-25T16:29:10.98</time>
<name>775</name>
</trkpt>
<trkpt lat="48.938063" lon="8.653937">
<ele>338.5</ele>
<speed>0.2</speed>
<course>180.0</course>
<desc>Speed 0.2 km/h Distance 1.05 km</desc>
<time>2010-02-25T16:29:11.97</time>
<name>776</name>
</trkpt>
<trkpt lat="48.938062" lon="8.653937">
<ele>338.5</ele>
<speed>0.0</speed>
<course>180.0</course>
<desc>Speed 0.0 km/h Distance 1.05 km</desc>
<time>2010-02-25T16:29:12.97</time>
<name>777</name>
</trkpt>
<trkpt lat="48.938062" lon="8.653937">
<ele>338.5</ele>
<speed>0.3</speed>
<course>312.6</course>
<desc>Speed 0.3 km/h Distance 1.05 km</desc>
<time>2010-02-25T16:29:13.97</time>
<name>778</name>
</trkpt>
<trkpt lat="48.938067" lon="8.653928">
<ele>338.5</ele>
<speed>2.4</speed>
<course>277.9</course>
<desc>Speed 2.4 km/h Distance 1.05 km</desc>
<time>2010-02-25T16:29:14.97</time>
<name>779</name>
</trkpt>
<trkpt lat="48.938068" lon="8.653910">
<ele>338.5</ele>
<speed>4.4</speed>
<course>270.0</course>
<desc>Speed 4.4 km/h Distance 1.05 km</desc>
<time>2010-02-25T16:29:15.97</time>
<name>780</name>
</trkpt>
<trkpt lat="48.938068" lon="8.653890">
<ele>338.5</ele>
<speed>5.0</speed>
<course>270.0</course>
<desc>Speed 5.0 km/h Distance 1.05 km</desc>
<time>2010-02-25T16:29:16.96</time>
<name>781</name>
</trkpt>
<trkpt lat="48.938068" lon="8.653868">
<ele>339.0</ele>
<speed>5.0</speed>
<course>262.8</course>
<desc>Speed 5.0 km/h Distance 1.06 km</desc>
<time>2010-02-25T16:29:17.96</time>
<name>782</name>
</trkpt>
<trkpt lat="48.938067" lon="8.653848">
<ele>339.0</ele>
<speed>5.1</speed>
<course>256.8</course>
<desc>Speed 5.1 km/h Distance 1.06 km</desc>
<time>2010-02-25T16:29:18.96</time>
<name>783</name>
</trkpt>
<trkpt lat="48.938063" lon="8.653827">
<ele>339.5</ele>
<speed>4.8</speed>
<course>251.3</course>
<desc>Speed 4.8 km/h Distance 1.06 km</desc>
<time>2010-02-25T16:29:19.96</time>
<name>784</name>
</trkpt>
<trkpt lat="48.938060" lon="8.653812">
<ele>339.5</ele>
<speed>3.4</speed>
<course>233.0</course>
<desc>Speed 3.4 km/h Distance 1.06 km</desc>
<time>2010-02-25T16:29:20.96</time>
<name>785</name>
</trkpt>
<trkpt lat="48.938057" lon="8.653805">
<ele>339.5</ele>
<speed>1.3</speed>
<course>259.3</course>
<desc>Speed 1.3 km/h Distance 1.06 km</desc>
<time>2010-02-25T16:29:21.96</time>
<name>786</name>
</trkpt>
<trkpt lat="48.938055" lon="8.653792">
<ele>339.5</ele>
<speed>3.0</speed>
<course>270.0</course>
<desc>Speed 3.0 km/h Distance 1.06 km</desc>
<time>2010-02-25T16:29:22.96</time>
<name>787</name>
</trkpt>
<trkpt lat="48.938055" lon="8.653773">
<ele>339.5</ele>
<speed>4.2</speed>
<course>270.0</course>
<desc>Speed 4.2 km/h Distance 1.06 km</desc>
<time>2010-02-25T16:29:23.96</time>
<name>788</name>
</trkpt>
<trkpt lat="48.938055" lon="8.653753">
<ele>340.0</ele>
<speed>4.8</speed>
<course>284.2</course>
<desc>Speed 4.8 km/h Distance 1.06 km</desc>
<time>2010-02-25T16:29:24.96</time>
<name>789</name>
</trkpt>
<trkpt lat="48.938058" lon="8.653733">
<ele>340.0</ele>
<speed>4.8</speed>
<course>262.1</course>
<desc>Speed 4.8 km/h Distance 1.07 km</desc>
<time>2010-02-25T16:29:25.96</time>
<name>790</name>
</trkpt>
<trkpt lat="48.938057" lon="8.653715">
<ele>340.0</ele>
<speed>4.6</speed>
<course>270.0</course>
<desc>Speed 4.6 km/h Distance 1.07 km</desc>
<time>2010-02-25T16:29:26.95</time>
<name>791</name>
</trkpt>
<trkpt lat="48.938057" lon="8.653693">
<ele>340.0</ele>
<speed>5.0</speed>
<course>262.1</course>
<desc>Speed 5.0 km/h Distance 1.07 km</desc>
<time>2010-02-25T16:29:27.95</time>
<name>792</name>
</trkpt>
<trkpt lat="48.938055" lon="8.653675">
<ele>339.5</ele>
<speed>4.2</speed>
<course>270.0</course>
<desc>Speed 4.2 km/h Distance 1.07 km</desc>
<time>2010-02-25T16:29:28.96</time>
<name>793</name>
</trkpt>
<trkpt lat="48.938055" lon="8.653655">
<ele>339.5</ele>
<speed>4.5</speed>
<course>270.0</course>
<desc>Speed 4.5 km/h Distance 1.07 km</desc>
<time>2010-02-25T16:29:29.96</time>
<name>794</name>
</trkpt>
<trkpt lat="48.938055" lon="8.653637">
<ele>339.5</ele>
<speed>4.6</speed>
<course>262.1</course>
<desc>Speed 4.6 km/h Distance 1.07 km</desc>
<time>2010-02-25T16:29:30.96</time>
<name>795</name>
</trkpt>
<trkpt lat="48.938053" lon="8.653618">
<ele>339.0</ele>
<speed>4.7</speed>
<course>270.0</course>
<desc>Speed 4.7 km/h Distance 1.07 km</desc>
<time>2010-02-25T16:29:31.95</time>
<name>796</name>
</trkpt>
<trkpt lat="48.938053" lon="8.653598">
<ele>339.0</ele>
<speed>4.9</speed>
<course>262.8</course>
<desc>Speed 4.9 km/h Distance 1.08 km</desc>
<time>2010-02-25T16:29:32.96</time>
<name>797</name>
</trkpt>
<trkpt lat="48.938052" lon="8.653578">
<ele>339.5</ele>
<speed>4.7</speed>
<course>262.1</course>
<desc>Speed 4.7 km/h Distance 1.08 km</desc>
<time>2010-02-25T16:29:33.95</time>
<name>798</name>
</trkpt>
<trkpt lat="48.938050" lon="8.653560">
<ele>339.5</ele>
<speed>4.5</speed>
<course>262.8</course>
<desc>Speed 4.5 km/h Distance 1.08 km</desc>
<time>2010-02-25T16:29:34.95</time>
<name>799</name>
</trkpt>
<trkpt lat="48.938048" lon="8.653540">
<ele>339.5</ele>
<speed>4.9</speed>
<course>261.3</course>
<desc>Speed 4.9 km/h Distance 1.08 km</desc>
<time>2010-02-25T16:29:35.95</time>
<name>800</name>
</trkpt>
<trkpt lat="48.938047" lon="8.653523">
<ele>339.5</ele>
<speed>3.9</speed>
<course>262.1</course>
<desc>Speed 3.9 km/h Distance 1.08 km</desc>
<time>2010-02-25T16:29:36.95</time>
<name>801</name>
</trkpt>
<trkpt lat="48.938045" lon="8.653505">
<ele>339.5</ele>
<speed>4.5</speed>
<course>254.6</course>
<desc>Speed 4.5 km/h Distance 1.08 km</desc>
<time>2010-02-25T16:29:37.95</time>
<name>802</name>
</trkpt>
<trkpt lat="48.938042" lon="8.653487">
<ele>340.0</ele>
<speed>4.8</speed>
<course>270.0</course>
<desc>Speed 4.8 km/h Distance 1.08 km</desc>
<time>2010-02-25T16:29:38.95</time>
<name>803</name>
</trkpt>
<trkpt lat="48.938042" lon="8.653467">
<ele>340.0</ele>
<speed>4.7</speed>
<course>262.1</course>
<desc>Speed 4.7 km/h Distance 1.08 km</desc>
<time>2010-02-25T16:29:39.96</time>
<name>804</name>
</trkpt>
<trkpt lat="48.938040" lon="8.653448">
<ele>340.5</ele>
<speed>4.7</speed>
<course>254.5</course>
<desc>Speed 4.7 km/h Distance 1.09 km</desc>
<time>2010-02-25T16:29:40.95</time>
<name>805</name>
</trkpt>
<trkpt lat="48.938037" lon="8.653430">
<ele>340.5</ele>
<speed>4.7</speed>
<course>254.6</course>
<desc>Speed 4.7 km/h Distance 1.09 km</desc>
<time>2010-02-25T16:29:41.95</time>
<name>806</name>
</trkpt>
<trkpt lat="48.938033" lon="8.653412">
<ele>340.5</ele>
<speed>4.8</speed>
<course>255.8</course>
<desc>Speed 4.8 km/h Distance 1.09 km</desc>
<time>2010-02-25T16:29:42.95</time>
<name>807</name>
</trkpt>
<trkpt lat="48.938030" lon="8.653392">
<ele>340.5</ele>
<speed>4.9</speed>
<course>255.8</course>
<desc>Speed 4.9 km/h Distance 1.09 km</desc>
<time>2010-02-25T16:29:43.94</time>
<name>808</name>
</trkpt>
<trkpt lat="48.938027" lon="8.653372">
<ele>340.5</ele>
<speed>5.0</speed>
<course>254.5</course>
<desc>Speed 5.0 km/h Distance 1.09 km</desc>
<time>2010-02-25T16:29:44.95</time>
<name>809</name>
</trkpt>
<trkpt lat="48.938023" lon="8.653353">
<ele>341.0</ele>
<speed>4.9</speed>
<course>262.1</course>
<desc>Speed 4.9 km/h Distance 1.09 km</desc>
<time>2010-02-25T16:29:45.95</time>
<name>810</name>
</trkpt>
<trkpt lat="48.938022" lon="8.653335">
<ele>341.0</ele>
<speed>4.6</speed>
<course>254.5</course>
<desc>Speed 4.6 km/h Distance 1.09 km</desc>
<time>2010-02-25T16:29:46.95</time>
<name>811</name>
</trkpt>
<trkpt lat="48.938018" lon="8.653317">
<ele>341.5</ele>
<speed>4.9</speed>
<course>254.5</course>
<desc>Speed 4.9 km/h Distance 1.10 km</desc>
<time>2010-02-25T16:29:47.95</time>
<name>812</name>
</trkpt>
<trkpt lat="48.938015" lon="8.653298">
<ele>341.5</ele>
<speed>4.8</speed>
<course>253.1</course>
<desc>Speed 4.8 km/h Distance 1.10 km</desc>
<time>2010-02-25T16:29:48.95</time>
<name>813</name>
</trkpt>
<trkpt lat="48.938012" lon="8.653282">
<ele>341.5</ele>
<speed>4.6</speed>
<course>270.0</course>
<desc>Speed 4.6 km/h Distance 1.10 km</desc>
<time>2010-02-25T16:29:49.95</time>
<name>814</name>
</trkpt>
<trkpt lat="48.938012" lon="8.653263">
<ele>341.5</ele>
<speed>4.7</speed>
<course>262.8</course>
<desc>Speed 4.7 km/h Distance 1.10 km</desc>
<time>2010-02-25T16:29:50.95</time>
<name>815</name>
</trkpt>
<trkpt lat="48.938010" lon="8.653243">
<ele>341.5</ele>
<speed>5.0</speed>
<course>270.0</course>
<desc>Speed 5.0 km/h Distance 1.10 km</desc>
<time>2010-02-25T16:29:51.95</time>
<name>816</name>
</trkpt>
<trkpt lat="48.938010" lon="8.653225">
<ele>342.0</ele>
<speed>4.6</speed>
<course>270.0</course>
<desc>Speed 4.6 km/h Distance 1.10 km</desc>
<time>2010-02-25T16:29:52.94</time>
<name>817</name>
</trkpt>
<trkpt lat="48.938010" lon="8.653208">
<ele>342.0</ele>
<speed>4.5</speed>
<course>251.3</course>
<desc>Speed 4.5 km/h Distance 1.10 km</desc>
<time>2010-02-25T16:29:53.95</time>
<name>818</name>
</trkpt>
<trkpt lat="48.938007" lon="8.653193">
<ele>342.5</ele>
<speed>3.9</speed>
<course>240.3</course>
<desc>Speed 3.9 km/h Distance 1.11 km</desc>
<time>2010-02-25T16:29:54.95</time>
<name>819</name>
</trkpt>
<trkpt lat="48.938002" lon="8.653180">
<ele>342.5</ele>
<speed>4.1</speed>
<course>251.4</course>
<desc>Speed 4.1 km/h Distance 1.11 km</desc>
<time>2010-02-25T16:29:55.95</time>
<name>820</name>
</trkpt>
<trkpt lat="48.937998" lon="8.653165">
<ele>342.5</ele>
<speed>4.1</speed>
<course>261.3</course>
<desc>Speed 4.1 km/h Distance 1.11 km</desc>
<time>2010-02-25T16:29:56.94</time>
<name>821</name>
</trkpt>
<trkpt lat="48.937997" lon="8.653148">
<ele>343.0</ele>
<speed>4.2</speed>
<course>278.7</course>
<desc>Speed 4.2 km/h Distance 1.11 km</desc>
<time>2010-02-25T16:29:57.94</time>
<name>822</name>
</trkpt>
<trkpt lat="48.937998" lon="8.653132">
<ele>342.5</ele>
<speed>3.9</speed>
<course>286.9</course>
<desc>Speed 3.9 km/h Distance 1.11 km</desc>
<time>2010-02-25T16:29:58.94</time>
<name>823</name>
</trkpt>
<trkpt lat="48.938002" lon="8.653115">
<ele>342.5</ele>
<speed>4.5</speed>
<course>290.7</course>
<desc>Speed 4.5 km/h Distance 1.11 km</desc>
<time>2010-02-25T16:29:59.94</time>
<name>824</name>
</trkpt>
<trkpt lat="48.938005" lon="8.653102">
<ele>342.5</ele>
<speed>3.8</speed>
<course>278.7</course>
<desc>Speed 3.8 km/h Distance 1.11 km</desc>
<time>2010-02-25T16:30:00.93</time>
<name>825</name>
</trkpt>
<trkpt lat="48.938007" lon="8.653085">
<ele>342.5</ele>
<speed>4.1</speed>
<course>261.3</course>
<desc>Speed 4.1 km/h Distance 1.11 km</desc>
<time>2010-02-25T16:30:01.94</time>
<name>826</name>
</trkpt>
<trkpt lat="48.938005" lon="8.653068">
<ele>342.5</ele>
<speed>4.1</speed>
<course>286.9</course>
<desc>Speed 4.1 km/h Distance 1.11 km</desc>
<time>2010-02-25T16:30:02.94</time>
<name>827</name>
</trkpt>
<trkpt lat="48.938008" lon="8.653052">
<ele>342.5</ele>
<speed>4.1</speed>
<course>332.1</course>
<desc>Speed 4.1 km/h Distance 1.12 km</desc>
<time>2010-02-25T16:30:03.94</time>
<name>828</name>
</trkpt>
<trkpt lat="48.938017" lon="8.653045">
<ele>342.5</ele>
<speed>3.6</speed>
<course>332.1</course>
<desc>Speed 3.6 km/h Distance 1.12 km</desc>
<time>2010-02-25T16:30:04.94</time>
<name>829</name>
</trkpt>
<trkpt lat="48.938017" lon="8.653045">
<ele>342.5</ele>
<speed>0.4</speed>
<course>224.5</course>
<desc>Speed 0.4 km/h Distance 1.12 km</desc>
<time>2010-02-25T16:30:05.94</time>
<name>830</name>
</trkpt>
<trkpt lat="48.938013" lon="8.653040">
<ele>343.0</ele>
<speed>1.5</speed>
<course>297.0</course>
<desc>Speed 1.5 km/h Distance 1.12 km</desc>
<time>2010-02-25T16:30:06.94</time>
<name>831</name>
</trkpt>
<trkpt lat="48.938017" lon="8.653030">
<ele>342.5</ele>
<speed>2.6</speed>
<course>270.0</course>
<desc>Speed 2.6 km/h Distance 1.12 km</desc>
<time>2010-02-25T16:30:07.94</time>
<name>832</name>
</trkpt>
<trkpt lat="48.938017" lon="8.653013">
<ele>343.0</ele>
<speed>3.9</speed>
<course>278.7</course>
<desc>Speed 3.9 km/h Distance 1.12 km</desc>
<time>2010-02-25T16:30:08.94</time>
<name>833</name>
</trkpt>
<trkpt lat="48.938018" lon="8.652997">
<ele>343.0</ele>
<speed>4.2</speed>
<course>270.0</course>
<desc>Speed 4.2 km/h Distance 1.12 km</desc>
<time>2010-02-25T16:30:09.94</time>
<name>834</name>
</trkpt>
<trkpt lat="48.938018" lon="8.652980">
<ele>343.5</ele>
<speed>3.6</speed>
<course>278.7</course>
<desc>Speed 3.6 km/h Distance 1.12 km</desc>
<time>2010-02-25T16:30:10.95</time>
<name>835</name>
</trkpt>
<trkpt lat="48.938020" lon="8.652963">
<ele>344.0</ele>
<speed>3.6</speed>
<course>288.7</course>
<desc>Speed 3.6 km/h Distance 1.12 km</desc>
<time>2010-02-25T16:30:11.94</time>
<name>836</name>
</trkpt>
<trkpt lat="48.938023" lon="8.652948">
<ele>344.0</ele>
<speed>3.7</speed>
<course>270.0</course>
<desc>Speed 3.7 km/h Distance 1.12 km</desc>
<time>2010-02-25T16:30:12.94</time>
<name>837</name>
</trkpt>
<trkpt lat="48.938023" lon="8.652932">
<ele>344.0</ele>
<speed>3.9</speed>
<course>278.7</course>
<desc>Speed 3.9 km/h Distance 1.13 km</desc>
<time>2010-02-25T16:30:13.94</time>
<name>838</name>
</trkpt>
<trkpt lat="48.938025" lon="8.652915">
<ele>344.0</ele>
<speed>4.1</speed>
<course>278.7</course>
<desc>Speed 4.1 km/h Distance 1.13 km</desc>
<time>2010-02-25T16:30:14.94</time>
<name>839</name>
</trkpt>
<trkpt lat="48.938027" lon="8.652898">
<ele>344.0</ele>
<speed>3.4</speed>
<course>288.7</course>
<desc>Speed 3.4 km/h Distance 1.13 km</desc>
<time>2010-02-25T16:30:15.94</time>
<name>840</name>
</trkpt>
<trkpt lat="48.938030" lon="8.652883">
<ele>344.5</ele>
<speed>3.7</speed>
<course>285.5</course>
<desc>Speed 3.7 km/h Distance 1.13 km</desc>
<time>2010-02-25T16:30:16.94</time>
<name>841</name>
</trkpt>
<trkpt lat="48.938033" lon="8.652865">
<ele>345.0</ele>
<speed>3.8</speed>
<course>301.3</course>
<desc>Speed 3.8 km/h Distance 1.13 km</desc>
<time>2010-02-25T16:30:17.93</time>
<name>842</name>
</trkpt>
<trkpt lat="48.938040" lon="8.652848">
<ele>345.5</ele>
<speed>3.9</speed>
<course>284.3</course>
<desc>Speed 3.9 km/h Distance 1.13 km</desc>
<time>2010-02-25T16:30:18.93</time>
<name>843</name>
</trkpt>
<trkpt lat="48.938043" lon="8.652828">
<ele>346.0</ele>
<speed>4.2</speed>
<course>285.5</course>
<desc>Speed 4.2 km/h Distance 1.13 km</desc>
<time>2010-02-25T16:30:19.93</time>
<name>844</name>
</trkpt>
<trkpt lat="48.938047" lon="8.652810">
<ele>346.0</ele>
<speed>4.2</speed>
<course>270.0</course>
<desc>Speed 4.2 km/h Distance 1.14 km</desc>
<time>2010-02-25T16:30:20.93</time>
<name>845</name>
</trkpt>
<trkpt lat="48.938047" lon="8.652792">
<ele>346.0</ele>
<speed>4.2</speed>
<course>277.9</course>
<desc>Speed 4.2 km/h Distance 1.14 km</desc>
<time>2010-02-25T16:30:21.93</time>
<name>846</name>
</trkpt>
<trkpt lat="48.938048" lon="8.652773">
<ele>346.5</ele>
<speed>4.1</speed>
<course>285.5</course>
<desc>Speed 4.1 km/h Distance 1.14 km</desc>
<time>2010-02-25T16:30:22.93</time>
<name>847</name>
</trkpt>
<trkpt lat="48.938052" lon="8.652755">
<ele>346.5</ele>
<speed>4.3</speed>
<course>285.4</course>
<desc>Speed 4.3 km/h Distance 1.14 km</desc>
<time>2010-02-25T16:30:23.93</time>
<name>848</name>
</trkpt>
<trkpt lat="48.938055" lon="8.652737">
<ele>346.5</ele>
<speed>4.1</speed>
<course>278.6</course>
<desc>Speed 4.1 km/h Distance 1.14 km</desc>
<time>2010-02-25T16:30:24.93</time>
<name>849</name>
</trkpt>
<trkpt lat="48.938057" lon="8.652720">
<ele>346.5</ele>
<speed>3.9</speed>
<course>294.5</course>
<desc>Speed 3.9 km/h Distance 1.14 km</desc>
<time>2010-02-25T16:30:25.93</time>
<name>850</name>
</trkpt>
<trkpt lat="48.938062" lon="8.652703">
<ele>346.5</ele>
<speed>4.3</speed>
<course>278.7</course>
<desc>Speed 4.3 km/h Distance 1.14 km</desc>
<time>2010-02-25T16:30:26.93</time>
<name>851</name>
</trkpt>
<trkpt lat="48.938063" lon="8.652687">
<ele>346.5</ele>
<speed>4.1</speed>
<course>290.8</course>
<desc>Speed 4.1 km/h Distance 1.14 km</desc>
<time>2010-02-25T16:30:27.92</time>
<name>852</name>
</trkpt>
<trkpt lat="48.938067" lon="8.652673">
<ele>347.0</ele>
<speed>3.6</speed>
<course>304.1</course>
<desc>Speed 3.6 km/h Distance 1.15 km</desc>
<time>2010-02-25T16:30:28.92</time>
<name>853</name>
</trkpt>
<trkpt lat="48.938073" lon="8.652658">
<ele>346.5</ele>
<speed>4.0</speed>
<course>296.9</course>
<desc>Speed 4.0 km/h Distance 1.15 km</desc>
<time>2010-02-25T16:30:29.93</time>
<name>854</name>
</trkpt>
<trkpt lat="48.938078" lon="8.652643">
<ele>346.5</ele>
<speed>4.1</speed>
<course>288.6</course>
<desc>Speed 4.1 km/h Distance 1.15 km</desc>
<time>2010-02-25T16:30:30.93</time>
<name>855</name>
</trkpt>
<trkpt lat="48.938082" lon="8.652628">
<ele>346.5</ele>
<speed>3.9</speed>
<course>299.7</course>
<desc>Speed 3.9 km/h Distance 1.15 km</desc>
<time>2010-02-25T16:30:31.93</time>
<name>856</name>
</trkpt>
<trkpt lat="48.938087" lon="8.652615">
<ele>346.5</ele>
<speed>4.0</speed>
<course>286.9</course>
<desc>Speed 4.0 km/h Distance 1.15 km</desc>
<time>2010-02-25T16:30:32.93</time>
<name>857</name>
</trkpt>
<trkpt lat="48.938090" lon="8.652598">
<ele>346.5</ele>
<speed>4.2</speed>
<course>278.7</course>
<desc>Speed 4.2 km/h Distance 1.15 km</desc>
<time>2010-02-25T16:30:33.93</time>
<name>858</name>
</trkpt>
<trkpt lat="48.938092" lon="8.652582">
<ele>346.5</ele>
<speed>4.3</speed>
<course>286.9</course>
<desc>Speed 4.3 km/h Distance 1.15 km</desc>
<time>2010-02-25T16:30:34.92</time>
<name>859</name>
</trkpt>
<trkpt lat="48.938095" lon="8.652565">
<ele>347.0</ele>
<speed>4.0</speed>
<course>279.6</course>
<desc>Speed 4.0 km/h Distance 1.15 km</desc>
<time>2010-02-25T16:30:35.93</time>
<name>860</name>
</trkpt>
<trkpt lat="48.938097" lon="8.652550">
<ele>347.0</ele>
<speed>4.0</speed>
<course>296.9</course>
<desc>Speed 4.0 km/h Distance 1.16 km</desc>
<time>2010-02-25T16:30:36.92</time>
<name>861</name>
</trkpt>
<trkpt lat="48.938102" lon="8.652535">
<ele>347.0</ele>
<speed>4.4</speed>
<course>288.7</course>
<desc>Speed 4.4 km/h Distance 1.16 km</desc>
<time>2010-02-25T16:30:37.93</time>
<name>862</name>
</trkpt>
<trkpt lat="48.938105" lon="8.652520">
<ele>347.0</ele>
<speed>4.2</speed>
<course>286.9</course>
<desc>Speed 4.2 km/h Distance 1.16 km</desc>
<time>2010-02-25T16:30:38.92</time>
<name>863</name>
</trkpt>
<trkpt lat="48.938108" lon="8.652503">
<ele>347.0</ele>
<speed>4.1</speed>
<course>278.7</course>
<desc>Speed 4.1 km/h Distance 1.16 km</desc>
<time>2010-02-25T16:30:39.92</time>
<name>864</name>
</trkpt>
<trkpt lat="48.938110" lon="8.652487">
<ele>347.0</ele>
<speed>4.4</speed>
<course>296.9</course>
<desc>Speed 4.4 km/h Distance 1.16 km</desc>
<time>2010-02-25T16:30:40.92</time>
<name>865</name>
</trkpt>
<trkpt lat="48.938115" lon="8.652472">
<ele>347.0</ele>
<speed>4.3</speed>
<course>288.7</course>
<desc>Speed 4.3 km/h Distance 1.16 km</desc>
<time>2010-02-25T16:30:41.92</time>
<name>866</name>
</trkpt>
<trkpt lat="48.938118" lon="8.652457">
<ele>347.0</ele>
<speed>4.1</speed>
<course>304.0</course>
<desc>Speed 4.1 km/h Distance 1.16 km</desc>
<time>2010-02-25T16:30:42.92</time>
<name>867</name>
</trkpt>
<trkpt lat="48.938125" lon="8.652442">
<ele>347.0</ele>
<speed>4.1</speed>
<course>299.7</course>
<desc>Speed 4.1 km/h Distance 1.16 km</desc>
<time>2010-02-25T16:30:43.93</time>
<name>868</name>
</trkpt>
<trkpt lat="48.938130" lon="8.652428">
<ele>347.0</ele>
<speed>4.0</speed>
<course>311.3</course>
<desc>Speed 4.0 km/h Distance 1.16 km</desc>
<time>2010-02-25T16:30:44.92</time>
<name>869</name>
</trkpt>
<trkpt lat="48.938137" lon="8.652417">
<ele>347.0</ele>
<speed>4.1</speed>
<course>310.9</course>
<desc>Speed 4.1 km/h Distance 1.17 km</desc>
<time>2010-02-25T16:30:45.92</time>
<name>870</name>
</trkpt>
<trkpt lat="48.938143" lon="8.652405">
<ele>347.0</ele>
<speed>3.3</speed>
<course>299.7</course>
<desc>Speed 3.3 km/h Distance 1.17 km</desc>
<time>2010-02-25T16:30:46.92</time>
<name>871</name>
</trkpt>
<trkpt lat="48.938148" lon="8.652392">
<ele>347.0</ele>
<speed>3.9</speed>
<course>294.6</course>
<desc>Speed 3.9 km/h Distance 1.17 km</desc>
<time>2010-02-25T16:30:47.92</time>
<name>872</name>
</trkpt>
<trkpt lat="48.938153" lon="8.652375">
<ele>347.5</ele>
<speed>4.0</speed>
<course>293.5</course>
<desc>Speed 4.0 km/h Distance 1.17 km</desc>
<time>2010-02-25T16:30:48.92</time>
<name>873</name>
</trkpt>
<trkpt lat="48.938157" lon="8.652363">
<ele>347.5</ele>
<speed>3.5</speed>
<course>296.9</course>
<desc>Speed 3.5 km/h Distance 1.17 km</desc>
<time>2010-02-25T16:30:49.92</time>
<name>874</name>
</trkpt>
<trkpt lat="48.938162" lon="8.652348">
<ele>347.5</ele>
<speed>3.7</speed>
<course>290.8</course>
<desc>Speed 3.7 km/h Distance 1.17 km</desc>
<time>2010-02-25T16:30:50.92</time>
<name>875</name>
</trkpt>
<trkpt lat="48.938165" lon="8.652335">
<ele>347.5</ele>
<speed>3.5</speed>
<course>278.7</course>
<desc>Speed 3.5 km/h Distance 1.17 km</desc>
<time>2010-02-25T16:30:51.92</time>
<name>876</name>
</trkpt>
<trkpt lat="48.938167" lon="8.652318">
<ele>348.0</ele>
<speed>3.9</speed>
<course>286.9</course>
<desc>Speed 3.9 km/h Distance 1.17 km</desc>
<time>2010-02-25T16:30:52.92</time>
<name>877</name>
</trkpt>
<trkpt lat="48.938170" lon="8.652302">
<ele>348.5</ele>
<speed>3.7</speed>
<course>286.9</course>
<desc>Speed 3.7 km/h Distance 1.18 km</desc>
<time>2010-02-25T16:30:53.92</time>
<name>878</name>
</trkpt>
<trkpt lat="48.938173" lon="8.652285">
<ele>349.0</ele>
<speed>4.0</speed>
<course>285.5</course>
<desc>Speed 4.0 km/h Distance 1.18 km</desc>
<time>2010-02-25T16:30:54.92</time>
<name>879</name>
</trkpt>
<trkpt lat="48.938177" lon="8.652267">
<ele>349.0</ele>
<speed>4.3</speed>
<course>285.5</course>
<desc>Speed 4.3 km/h Distance 1.18 km</desc>
<time>2010-02-25T16:30:55.92</time>
<name>880</name>
</trkpt>
<trkpt lat="48.938180" lon="8.652248">
<ele>349.0</ele>
<speed>4.2</speed>
<course>285.5</course>
<desc>Speed 4.2 km/h Distance 1.18 km</desc>
<time>2010-02-25T16:30:56.91</time>
<name>881</name>
</trkpt>
<trkpt lat="48.938183" lon="8.652230">
<ele>349.0</ele>
<speed>4.2</speed>
<course>277.2</course>
<desc>Speed 4.2 km/h Distance 1.18 km</desc>
<time>2010-02-25T16:30:57.91</time>
<name>882</name>
</trkpt>
<trkpt lat="48.938185" lon="8.652210">
<ele>349.0</ele>
<speed>4.5</speed>
<course>285.5</course>
<desc>Speed 4.5 km/h Distance 1.18 km</desc>
<time>2010-02-25T16:30:58.91</time>
<name>883</name>
</trkpt>
<trkpt lat="48.938188" lon="8.652192">
<ele>349.5</ele>
<speed>4.3</speed>
<course>277.9</course>
<desc>Speed 4.3 km/h Distance 1.18 km</desc>
<time>2010-02-25T16:30:59.91</time>
<name>884</name>
</trkpt>
<trkpt lat="48.938190" lon="8.652173">
<ele>349.5</ele>
<speed>4.4</speed>
<course>285.5</course>
<desc>Speed 4.4 km/h Distance 1.19 km</desc>
<time>2010-02-25T16:31:00.91</time>
<name>885</name>
</trkpt>
<trkpt lat="48.938193" lon="8.652155">
<ele>350.0</ele>
<speed>4.4</speed>
<course>284.2</course>
<desc>Speed 4.4 km/h Distance 1.19 km</desc>
<time>2010-02-25T16:31:01.91</time>
<name>886</name>
</trkpt>
<trkpt lat="48.938197" lon="8.652135">
<ele>350.0</ele>
<speed>4.8</speed>
<course>270.0</course>
<desc>Speed 4.8 km/h Distance 1.19 km</desc>
<time>2010-02-25T16:31:02.92</time>
<name>887</name>
</trkpt>
<trkpt lat="48.938197" lon="8.652117">
<ele>350.0</ele>
<speed>4.8</speed>
<course>277.9</course>
<desc>Speed 4.8 km/h Distance 1.19 km</desc>
<time>2010-02-25T16:31:03.91</time>
<name>888</name>
</trkpt>
<trkpt lat="48.938198" lon="8.652098">
<ele>350.0</ele>
<speed>4.6</speed>
<course>270.0</course>
<desc>Speed 4.6 km/h Distance 1.19 km</desc>
<time>2010-02-25T16:31:04.91</time>
<name>889</name>
</trkpt>
<trkpt lat="48.938198" lon="8.652080">
<ele>350.5</ele>
<speed>4.6</speed>
<course>277.2</course>
<desc>Speed 4.6 km/h Distance 1.19 km</desc>
<time>2010-02-25T16:31:05.91</time>
<name>890</name>
</trkpt>
<trkpt lat="48.938200" lon="8.652060">
<ele>350.5</ele>
<speed>4.8</speed>
<course>270.0</course>
<desc>Speed 4.8 km/h Distance 1.19 km</desc>
<time>2010-02-25T16:31:06.92</time>
<name>891</name>
</trkpt>
<trkpt lat="48.938200" lon="8.652038">
<ele>350.5</ele>
<speed>4.8</speed>
<course>262.8</course>
<desc>Speed 4.8 km/h Distance 1.20 km</desc>
<time>2010-02-25T16:31:07.91</time>
<name>892</name>
</trkpt>
<trkpt lat="48.938198" lon="8.652018">
<ele>350.5</ele>
<speed>4.8</speed>
<course>262.8</course>
<desc>Speed 4.8 km/h Distance 1.20 km</desc>
<time>2010-02-25T16:31:08.91</time>
<name>893</name>
</trkpt>
<trkpt lat="48.938197" lon="8.651998">
<ele>351.0</ele>
<speed>4.6</speed>
<course>262.8</course>
<desc>Speed 4.6 km/h Distance 1.20 km</desc>
<time>2010-02-25T16:31:09.91</time>
<name>894</name>
</trkpt>
<trkpt lat="48.938195" lon="8.651978">
<ele>351.5</ele>
<speed>4.7</speed>
<course>262.8</course>
<desc>Speed 4.7 km/h Distance 1.20 km</desc>
<time>2010-02-25T16:31:10.92</time>
<name>895</name>
</trkpt>
<trkpt lat="48.938193" lon="8.651958">
<ele>351.5</ele>
<speed>4.7</speed>
<course>255.8</course>
<desc>Speed 4.7 km/h Distance 1.20 km</desc>
<time>2010-02-25T16:31:11.91</time>
<name>896</name>
</trkpt>
<trkpt lat="48.938190" lon="8.651938">
<ele>351.5</ele>
<speed>4.7</speed>
<course>261.3</course>
<desc>Speed 4.7 km/h Distance 1.20 km</desc>
<time>2010-02-25T16:31:12.91</time>
<name>897</name>
</trkpt>
<trkpt lat="48.938188" lon="8.651922">
<ele>351.5</ele>
<speed>4.4</speed>
<course>262.1</course>
<desc>Speed 4.4 km/h Distance 1.20 km</desc>
<time>2010-02-25T16:31:13.90</time>
<name>898</name>
</trkpt>
<trkpt lat="48.938187" lon="8.651903">
<ele>351.5</ele>
<speed>4.8</speed>
<course>261.3</course>
<desc>Speed 4.8 km/h Distance 1.21 km</desc>
<time>2010-02-25T16:31:14.90</time>
<name>899</name>
</trkpt>
<trkpt lat="48.938185" lon="8.651887">
<ele>351.5</ele>
<speed>4.8</speed>
<course>262.1</course>
<desc>Speed 4.8 km/h Distance 1.21 km</desc>
<time>2010-02-25T16:31:15.90</time>
<name>900</name>
</trkpt>
<trkpt lat="48.938183" lon="8.651868">
<ele>351.5</ele>
<speed>4.8</speed>
<course>262.1</course>
<desc>Speed 4.8 km/h Distance 1.21 km</desc>
<time>2010-02-25T16:31:16.90</time>
<name>901</name>
</trkpt>
<trkpt lat="48.938182" lon="8.651850">
<ele>351.5</ele>
<speed>4.7</speed>
<course>262.1</course>
<desc>Speed 4.7 km/h Distance 1.21 km</desc>
<time>2010-02-25T16:31:17.91</time>
<name>902</name>
</trkpt>
<trkpt lat="48.938180" lon="8.651832">
<ele>351.5</ele>
<speed>4.8</speed>
<course>254.5</course>
<desc>Speed 4.8 km/h Distance 1.21 km</desc>
<time>2010-02-25T16:31:18.91</time>
<name>903</name>
</trkpt>
<trkpt lat="48.938177" lon="8.651813">
<ele>351.5</ele>
<speed>4.8</speed>
<course>256.8</course>
<desc>Speed 4.8 km/h Distance 1.21 km</desc>
<time>2010-02-25T16:31:19.90</time>
<name>904</name>
</trkpt>
<trkpt lat="48.938173" lon="8.651792">
<ele>351.5</ele>
<speed>5.5</speed>
<course>255.8</course>
<desc>Speed 5.5 km/h Distance 1.21 km</desc>
<time>2010-02-25T16:31:20.90</time>
<name>905</name>
</trkpt>
<trkpt lat="48.938170" lon="8.651772">
<ele>351.5</ele>
<speed>5.5</speed>
<course>249.2</course>
<desc>Speed 5.5 km/h Distance 1.21 km</desc>
<time>2010-02-25T16:31:21.90</time>
<name>906</name>
</trkpt>
<trkpt lat="48.938165" lon="8.651752">
<ele>352.0</ele>
<speed>5.0</speed>
<course>254.5</course>
<desc>Speed 5.0 km/h Distance 1.22 km</desc>
<time>2010-02-25T16:31:22.90</time>
<name>907</name>
</trkpt>
<trkpt lat="48.938162" lon="8.651733">
<ele>352.0</ele>
<speed>5.2</speed>
<course>255.8</course>
<desc>Speed 5.2 km/h Distance 1.22 km</desc>
<time>2010-02-25T16:31:23.90</time>
<name>908</name>
</trkpt>
<trkpt lat="48.938158" lon="8.651713">
<ele>352.0</ele>
<speed>5.3</speed>
<course>262.1</course>
<desc>Speed 5.3 km/h Distance 1.22 km</desc>
<time>2010-02-25T16:31:24.90</time>
<name>909</name>
</trkpt>
<trkpt lat="48.938157" lon="8.651695">
<ele>352.0</ele>
<speed>5.0</speed>
<course>249.1</course>
<desc>Speed 5.0 km/h Distance 1.22 km</desc>
<time>2010-02-25T16:31:25.90</time>
<name>910</name>
</trkpt>
<trkpt lat="48.938152" lon="8.651675">
<ele>352.0</ele>
<speed>5.0</speed>
<course>254.5</course>
<desc>Speed 5.0 km/h Distance 1.22 km</desc>
<time>2010-02-25T16:31:26.89</time>
<name>911</name>
</trkpt>
<trkpt lat="48.938148" lon="8.651657">
<ele>352.0</ele>
<speed>5.0</speed>
<course>247.4</course>
<desc>Speed 5.0 km/h Distance 1.22 km</desc>
<time>2010-02-25T16:31:27.90</time>
<name>912</name>
</trkpt>
<trkpt lat="48.938143" lon="8.651638">
<ele>352.0</ele>
<speed>5.1</speed>
<course>247.4</course>
<desc>Speed 5.1 km/h Distance 1.23 km</desc>
<time>2010-02-25T16:31:28.89</time>
<name>913</name>
</trkpt>
<trkpt lat="48.938138" lon="8.651620">
<ele>352.5</ele>
<speed>5.0</speed>
<course>254.5</course>
<desc>Speed 5.0 km/h Distance 1.23 km</desc>
<time>2010-02-25T16:31:29.89</time>
<name>914</name>
</trkpt>
<trkpt lat="48.938135" lon="8.651602">
<ele>352.5</ele>
<speed>4.9</speed>
<course>238.7</course>
<desc>Speed 4.9 km/h Distance 1.23 km</desc>
<time>2010-02-25T16:31:30.89</time>
<name>915</name>
</trkpt>
<trkpt lat="48.938128" lon="8.651585">
<ele>353.0</ele>
<speed>5.1</speed>
<course>247.5</course>
<desc>Speed 5.1 km/h Distance 1.23 km</desc>
<time>2010-02-25T16:31:31.89</time>
<name>916</name>
</trkpt>
<trkpt lat="48.938123" lon="8.651567">
<ele>353.0</ele>
<speed>5.0</speed>
<course>247.5</course>
<desc>Speed 5.0 km/h Distance 1.23 km</desc>
<time>2010-02-25T16:31:32.89</time>
<name>917</name>
</trkpt>
<trkpt lat="48.938118" lon="8.651548">
<ele>353.0</ele>
<speed>5.1</speed>
<course>254.5</course>
<desc>Speed 5.1 km/h Distance 1.23 km</desc>
<time>2010-02-25T16:31:33.89</time>
<name>918</name>
</trkpt>
<trkpt lat="48.938115" lon="8.651530">
<ele>353.5</ele>
<speed>5.1</speed>
<course>247.5</course>
<desc>Speed 5.1 km/h Distance 1.23 km</desc>
<time>2010-02-25T16:31:34.89</time>
<name>919</name>
</trkpt>
<trkpt lat="48.938110" lon="8.651512">
<ele>353.5</ele>
<speed>5.1</speed>
<course>247.5</course>
<desc>Speed 5.1 km/h Distance 1.24 km</desc>
<time>2010-02-25T16:31:35.89</time>
<name>920</name>
</trkpt>
<trkpt lat="48.938105" lon="8.651493">
<ele>353.5</ele>
<speed>5.1</speed>
<course>241.0</course>
<desc>Speed 5.1 km/h Distance 1.24 km</desc>
<time>2010-02-25T16:31:36.89</time>
<name>921</name>
</trkpt>
<trkpt lat="48.938098" lon="8.651475">
<ele>353.5</ele>
<speed>5.2</speed>
<course>245.5</course>
<desc>Speed 5.2 km/h Distance 1.24 km</desc>
<time>2010-02-25T16:31:37.89</time>
<name>922</name>
</trkpt>
<trkpt lat="48.938093" lon="8.651458">
<ele>353.5</ele>
<speed>5.1</speed>
<course>249.2</course>
<desc>Speed 5.1 km/h Distance 1.24 km</desc>
<time>2010-02-25T16:31:38.89</time>
<name>923</name>
</trkpt>
<trkpt lat="48.938088" lon="8.651438">
<ele>354.0</ele>
<speed>5.3</speed>
<course>247.5</course>
<desc>Speed 5.3 km/h Distance 1.24 km</desc>
<time>2010-02-25T16:31:39.89</time>
<name>924</name>
</trkpt>
<trkpt lat="48.938083" lon="8.651420">
<ele>354.0</ele>
<speed>5.2</speed>
<course>255.8</course>
<desc>Speed 5.2 km/h Distance 1.24 km</desc>
<time>2010-02-25T16:31:40.89</time>
<name>925</name>
</trkpt>
<trkpt lat="48.938080" lon="8.651400">
<ele>354.0</ele>
<speed>5.3</speed>
<course>247.4</course>
<desc>Speed 5.3 km/h Distance 1.24 km</desc>
<time>2010-02-25T16:31:41.89</time>
<name>926</name>
</trkpt>
<trkpt lat="48.938075" lon="8.651382">
<ele>354.0</ele>
<speed>5.1</speed>
<course>241.0</course>
<desc>Speed 5.1 km/h Distance 1.25 km</desc>
<time>2010-02-25T16:31:42.89</time>
<name>927</name>
</trkpt>
<trkpt lat="48.938068" lon="8.651363">
<ele>354.5</ele>
<speed>5.0</speed>
<course>245.5</course>
<desc>Speed 5.0 km/h Distance 1.25 km</desc>
<time>2010-02-25T16:31:43.89</time>
<name>928</name>
</trkpt>
<trkpt lat="48.938063" lon="8.651347">
<ele>354.5</ele>
<speed>5.0</speed>
<course>245.4</course>
<desc>Speed 5.0 km/h Distance 1.25 km</desc>
<time>2010-02-25T16:31:44.89</time>
<name>929</name>
</trkpt>
<trkpt lat="48.938058" lon="8.651330">
<ele>354.5</ele>
<speed>4.8</speed>
<course>241.0</course>
<desc>Speed 4.8 km/h Distance 1.25 km</desc>
<time>2010-02-25T16:31:45.89</time>
<name>930</name>
</trkpt>
<trkpt lat="48.938052" lon="8.651312">
<ele>354.5</ele>
<speed>4.9</speed>
<course>245.4</course>
<desc>Speed 4.9 km/h Distance 1.25 km</desc>
<time>2010-02-25T16:31:46.89</time>
<name>931</name>
</trkpt>
<trkpt lat="48.938047" lon="8.651295">
<ele>354.5</ele>
<speed>4.8</speed>
<course>245.5</course>
<desc>Speed 4.8 km/h Distance 1.25 km</desc>
<time>2010-02-25T16:31:47.88</time>
<name>932</name>
</trkpt>
<trkpt lat="48.938042" lon="8.651278">
<ele>354.5</ele>
<speed>4.9</speed>
<course>247.5</course>
<desc>Speed 4.9 km/h Distance 1.25 km</desc>
<time>2010-02-25T16:31:48.88</time>
<name>933</name>
</trkpt>
<trkpt lat="48.938037" lon="8.651260">
<ele>354.5</ele>
<speed>4.9</speed>
<course>245.5</course>
<desc>Speed 4.9 km/h Distance 1.26 km</desc>
<time>2010-02-25T16:31:49.88</time>
<name>934</name>
</trkpt>
<trkpt lat="48.938032" lon="8.651243">
<ele>354.5</ele>
<speed>4.9</speed>
<course>245.4</course>
<desc>Speed 4.9 km/h Distance 1.26 km</desc>
<time>2010-02-25T16:31:50.88</time>
<name>935</name>
</trkpt>
<trkpt lat="48.938027" lon="8.651227">
<ele>355.0</ele>
<speed>4.9</speed>
<course>247.5</course>
<desc>Speed 4.9 km/h Distance 1.26 km</desc>
<time>2010-02-25T16:31:51.88</time>
<name>936</name>
</trkpt>
<trkpt lat="48.938022" lon="8.651208">
<ele>356.0</ele>
<speed>4.8</speed>
<course>241.0</course>
<desc>Speed 4.8 km/h Distance 1.26 km</desc>
<time>2010-02-25T16:31:52.88</time>
<name>937</name>
</trkpt>
<trkpt lat="48.938015" lon="8.651190">
<ele>356.5</ele>
<speed>5.0</speed>
<course>238.7</course>
<desc>Speed 5.0 km/h Distance 1.26 km</desc>
<time>2010-02-25T16:31:53.89</time>
<name>938</name>
</trkpt>
<trkpt lat="48.938008" lon="8.651173">
<ele>357.0</ele>
<speed>4.9</speed>
<course>245.5</course>
<desc>Speed 4.9 km/h Distance 1.26 km</desc>
<time>2010-02-25T16:31:54.89</time>
<name>939</name>
</trkpt>
<trkpt lat="48.938003" lon="8.651157">
<ele>357.0</ele>
<speed>4.7</speed>
<course>245.5</course>
<desc>Speed 4.7 km/h Distance 1.26 km</desc>
<time>2010-02-25T16:31:55.89</time>
<name>940</name>
</trkpt>
<trkpt lat="48.937998" lon="8.651140">
<ele>357.0</ele>
<speed>4.7</speed>
<course>238.7</course>
<desc>Speed 4.7 km/h Distance 1.27 km</desc>
<time>2010-02-25T16:31:56.88</time>
<name>941</name>
</trkpt>
<trkpt lat="48.937992" lon="8.651123">
<ele>357.0</ele>
<speed>5.0</speed>
<course>245.4</course>
<desc>Speed 5.0 km/h Distance 1.27 km</desc>
<time>2010-02-25T16:31:57.88</time>
<name>942</name>
</trkpt>
<trkpt lat="48.937987" lon="8.651107">
<ele>357.0</ele>
<speed>4.5</speed>
<course>245.5</course>
<desc>Speed 4.5 km/h Distance 1.27 km</desc>
<time>2010-02-25T16:31:58.88</time>
<name>943</name>
</trkpt>
<trkpt lat="48.937982" lon="8.651090">
<ele>357.0</ele>
<speed>4.6</speed>
<course>253.1</course>
<desc>Speed 4.6 km/h Distance 1.27 km</desc>
<time>2010-02-25T16:31:59.89</time>
<name>944</name>
</trkpt>
<trkpt lat="48.937978" lon="8.651073">
<ele>357.0</ele>
<speed>4.5</speed>
<course>238.6</course>
<desc>Speed 4.5 km/h Distance 1.27 km</desc>
<time>2010-02-25T16:32:00.89</time>
<name>945</name>
</trkpt>
<trkpt lat="48.937972" lon="8.651057">
<ele>357.5</ele>
<speed>4.8</speed>
<course>247.4</course>
<desc>Speed 4.8 km/h Distance 1.27 km</desc>
<time>2010-02-25T16:32:01.89</time>
<name>946</name>
</trkpt>
<trkpt lat="48.937967" lon="8.651038">
<ele>357.5</ele>
<speed>5.0</speed>
<course>238.6</course>
<desc>Speed 5.0 km/h Distance 1.27 km</desc>
<time>2010-02-25T16:32:02.88</time>
<name>947</name>
</trkpt>
<trkpt lat="48.937960" lon="8.651022">
<ele>358.0</ele>
<speed>5.1</speed>
<course>243.1</course>
<desc>Speed 5.1 km/h Distance 1.27 km</desc>
<time>2010-02-25T16:32:03.88</time>
<name>948</name>
</trkpt>
<trkpt lat="48.937953" lon="8.651002">
<ele>358.5</ele>
<speed>5.3</speed>
<course>238.7</course>
<desc>Speed 5.3 km/h Distance 1.28 km</desc>
<time>2010-02-25T16:32:04.88</time>
<name>949</name>
</trkpt>
<trkpt lat="48.937947" lon="8.650985">
<ele>358.5</ele>
<speed>5.3</speed>
<course>243.1</course>
<desc>Speed 5.3 km/h Distance 1.28 km</desc>
<time>2010-02-25T16:32:05.88</time>
<name>950</name>
</trkpt>
<trkpt lat="48.937940" lon="8.650965">
<ele>358.5</ele>
<speed>5.5</speed>
<course>243.1</course>
<desc>Speed 5.5 km/h Distance 1.28 km</desc>
<time>2010-02-25T16:32:06.87</time>
<name>951</name>
</trkpt>
<trkpt lat="48.937933" lon="8.650945">
<ele>358.5</ele>
<speed>5.6</speed>
<course>243.1</course>
<desc>Speed 5.6 km/h Distance 1.28 km</desc>
<time>2010-02-25T16:32:07.87</time>
<name>952</name>
</trkpt>
<trkpt lat="48.937927" lon="8.650925">
<ele>358.5</ele>
<speed>5.5</speed>
<course>241.0</course>
<desc>Speed 5.5 km/h Distance 1.28 km</desc>
<time>2010-02-25T16:32:08.87</time>
<name>953</name>
</trkpt>
<trkpt lat="48.937920" lon="8.650907">
<ele>358.5</ele>
<speed>5.4</speed>
<course>249.1</course>
<desc>Speed 5.4 km/h Distance 1.28 km</desc>
<time>2010-02-25T16:32:09.88</time>
<name>954</name>
</trkpt>
<trkpt lat="48.937915" lon="8.650887">
<ele>358.5</ele>
<speed>5.4</speed>
<course>243.1</course>
<desc>Speed 5.4 km/h Distance 1.29 km</desc>
<time>2010-02-25T16:32:10.89</time>
<name>955</name>
</trkpt>
<trkpt lat="48.937908" lon="8.650867">
<ele>358.5</ele>
<speed>5.5</speed>
<course>243.1</course>
<desc>Speed 5.5 km/h Distance 1.29 km</desc>
<time>2010-02-25T16:32:11.88</time>
<name>956</name>
</trkpt>
<trkpt lat="48.937902" lon="8.650847">
<ele>358.5</ele>
<speed>5.4</speed>
<course>243.1</course>
<desc>Speed 5.4 km/h Distance 1.29 km</desc>
<time>2010-02-25T16:32:12.87</time>
<name>957</name>
</trkpt>
<trkpt lat="48.937895" lon="8.650827">
<ele>358.5</ele>
<speed>5.3</speed>
<course>243.1</course>
<desc>Speed 5.3 km/h Distance 1.29 km</desc>
<time>2010-02-25T16:32:13.87</time>
<name>958</name>
</trkpt>
<trkpt lat="48.937888" lon="8.650807">
<ele>358.5</ele>
<speed>5.6</speed>
<course>241.0</course>
<desc>Speed 5.6 km/h Distance 1.29 km</desc>
<time>2010-02-25T16:32:14.87</time>
<name>959</name>
</trkpt>
<trkpt lat="48.937882" lon="8.650788">
<ele>358.5</ele>
<speed>5.4</speed>
<course>241.0</course>
<desc>Speed 5.4 km/h Distance 1.29 km</desc>
<time>2010-02-25T16:32:15.88</time>
<name>960</name>
</trkpt>
<trkpt lat="48.937875" lon="8.650770">
<ele>358.5</ele>
<speed>5.5</speed>
<course>241.0</course>
<desc>Speed 5.5 km/h Distance 1.30 km</desc>
<time>2010-02-25T16:32:16.87</time>
<name>961</name>
</trkpt>
<trkpt lat="48.937868" lon="8.650752">
<ele>358.5</ele>
<speed>5.6</speed>
<course>243.1</course>
<desc>Speed 5.6 km/h Distance 1.30 km</desc>
<time>2010-02-25T16:32:17.87</time>
<name>962</name>
</trkpt>
<trkpt lat="48.937862" lon="8.650732">
<ele>358.5</ele>
<speed>5.4</speed>
<course>238.7</course>
<desc>Speed 5.4 km/h Distance 1.30 km</desc>
<time>2010-02-25T16:32:18.87</time>
<name>963</name>
</trkpt>
<trkpt lat="48.937855" lon="8.650715">
<ele>358.0</ele>
<speed>5.1</speed>
<course>241.0</course>
<desc>Speed 5.1 km/h Distance 1.30 km</desc>
<time>2010-02-25T16:32:19.87</time>
<name>964</name>
</trkpt>
<trkpt lat="48.937848" lon="8.650697">
<ele>358.0</ele>
<speed>5.4</speed>
<course>241.0</course>
<desc>Speed 5.4 km/h Distance 1.30 km</desc>
<time>2010-02-25T16:32:20.87</time>
<name>965</name>
</trkpt>
<trkpt lat="48.937842" lon="8.650678">
<ele>358.0</ele>
<speed>5.0</speed>
<course>241.0</course>
<desc>Speed 5.0 km/h Distance 1.30 km</desc>
<time>2010-02-25T16:32:21.87</time>
<name>966</name>
</trkpt>
<trkpt lat="48.937835" lon="8.650660">
<ele>358.0</ele>
<speed>5.1</speed>
<course>247.4</course>
<desc>Speed 5.1 km/h Distance 1.30 km</desc>
<time>2010-02-25T16:32:22.87</time>
<name>967</name>
</trkpt>
<trkpt lat="48.937830" lon="8.650642">
<ele>358.5</ele>
<speed>5.0</speed>
<course>241.0</course>
<desc>Speed 5.0 km/h Distance 1.31 km</desc>
<time>2010-02-25T16:32:23.87</time>
<name>968</name>
</trkpt>
<trkpt lat="48.937823" lon="8.650623">
<ele>358.5</ele>
<speed>5.3</speed>
<course>247.4</course>
<desc>Speed 5.3 km/h Distance 1.31 km</desc>
<time>2010-02-25T16:32:24.87</time>
<name>969</name>
</trkpt>
<trkpt lat="48.937818" lon="8.650605">
<ele>358.5</ele>
<speed>5.4</speed>
<course>241.0</course>
<desc>Speed 5.4 km/h Distance 1.31 km</desc>
<time>2010-02-25T16:32:25.87</time>
<name>970</name>
</trkpt>
<trkpt lat="48.937812" lon="8.650587">
<ele>358.5</ele>
<speed>5.1</speed>
<course>238.6</course>
<desc>Speed 5.1 km/h Distance 1.31 km</desc>
<time>2010-02-25T16:32:26.87</time>
<name>971</name>
</trkpt>
<trkpt lat="48.937805" lon="8.650570">
<ele>358.5</ele>
<speed>5.0</speed>
<course>241.0</course>
<desc>Speed 5.0 km/h Distance 1.31 km</desc>
<time>2010-02-25T16:32:27.87</time>
<name>972</name>
</trkpt>
<trkpt lat="48.937798" lon="8.650552">
<ele>358.5</ele>
<speed>5.4</speed>
<course>249.2</course>
<desc>Speed 5.4 km/h Distance 1.31 km</desc>
<time>2010-02-25T16:32:28.86</time>
<name>973</name>
</trkpt>
<trkpt lat="48.937793" lon="8.650532">
<ele>358.5</ele>
<speed>5.5</speed>
<course>238.6</course>
<desc>Speed 5.5 km/h Distance 1.32 km</desc>
<time>2010-02-25T16:32:29.87</time>
<name>974</name>
</trkpt>
<trkpt lat="48.937787" lon="8.650515">
<ele>358.0</ele>
<speed>5.3</speed>
<course>249.2</course>
<desc>Speed 5.3 km/h Distance 1.32 km</desc>
<time>2010-02-25T16:32:30.86</time>
<name>975</name>
</trkpt>
<trkpt lat="48.937782" lon="8.650495">
<ele>357.5</ele>
<speed>5.2</speed>
<course>243.1</course>
<desc>Speed 5.2 km/h Distance 1.32 km</desc>
<time>2010-02-25T16:32:31.86</time>
<name>976</name>
</trkpt>
<trkpt lat="48.937775" lon="8.650475">
<ele>357.5</ele>
<speed>5.4</speed>
<course>241.0</course>
<desc>Speed 5.4 km/h Distance 1.32 km</desc>
<time>2010-02-25T16:32:32.86</time>
<name>977</name>
</trkpt>
<trkpt lat="48.937768" lon="8.650457">
<ele>357.5</ele>
<speed>5.5</speed>
<course>249.2</course>
<desc>Speed 5.5 km/h Distance 1.32 km</desc>
<time>2010-02-25T16:32:33.86</time>
<name>978</name>
</trkpt>
<trkpt lat="48.937763" lon="8.650437">
<ele>357.0</ele>
<speed>5.6</speed>
<course>243.1</course>
<desc>Speed 5.6 km/h Distance 1.32 km</desc>
<time>2010-02-25T16:32:34.86</time>
<name>979</name>
</trkpt>
<trkpt lat="48.937757" lon="8.650417">
<ele>357.0</ele>
<speed>5.8</speed>
<course>243.1</course>
<desc>Speed 5.8 km/h Distance 1.32 km</desc>
<time>2010-02-25T16:32:35.86</time>
<name>980</name>
</trkpt>
<trkpt lat="48.937750" lon="8.650397">
<ele>357.0</ele>
<speed>5.5</speed>
<course>241.1</course>
<desc>Speed 5.5 km/h Distance 1.33 km</desc>
<time>2010-02-25T16:32:36.86</time>
<name>981</name>
</trkpt>
<trkpt lat="48.937743" lon="8.650378">
<ele>357.0</ele>
<speed>5.5</speed>
<course>249.2</course>
<desc>Speed 5.5 km/h Distance 1.33 km</desc>
<time>2010-02-25T16:32:37.86</time>
<name>982</name>
</trkpt>
<trkpt lat="48.937738" lon="8.650358">
<ele>356.5</ele>
<speed>5.6</speed>
<course>249.2</course>
<desc>Speed 5.6 km/h Distance 1.33 km</desc>
<time>2010-02-25T16:32:38.86</time>
<name>983</name>
</trkpt>
<trkpt lat="48.937733" lon="8.650338">
<ele>356.5</ele>
<speed>5.3</speed>
<course>235.4</course>
<desc>Speed 5.3 km/h Distance 1.33 km</desc>
<time>2010-02-25T16:32:39.86</time>
<name>984</name>
</trkpt>
<trkpt lat="48.937725" lon="8.650320">
<ele>356.5</ele>
<speed>5.7</speed>
<course>249.2</course>
<desc>Speed 5.7 km/h Distance 1.33 km</desc>
<time>2010-02-25T16:32:40.86</time>
<name>985</name>
</trkpt>
<trkpt lat="48.937720" lon="8.650300">
<ele>356.5</ele>
<speed>5.7</speed>
<course>241.0</course>
<desc>Speed 5.7 km/h Distance 1.33 km</desc>
<time>2010-02-25T16:32:41.86</time>
<name>986</name>
</trkpt>
<trkpt lat="48.937713" lon="8.650282">
<ele>357.0</ele>
<speed>5.5</speed>
<course>241.0</course>
<desc>Speed 5.5 km/h Distance 1.34 km</desc>
<time>2010-02-25T16:32:42.86</time>
<name>987</name>
</trkpt>
<trkpt lat="48.937707" lon="8.650263">
<ele>357.0</ele>
<speed>5.4</speed>
<course>243.1</course>
<desc>Speed 5.4 km/h Distance 1.34 km</desc>
<time>2010-02-25T16:32:43.86</time>
<name>988</name>
</trkpt>
<trkpt lat="48.937700" lon="8.650243">
<ele>357.0</ele>
<speed>5.4</speed>
<course>238.7</course>
<desc>Speed 5.4 km/h Distance 1.34 km</desc>
<time>2010-02-25T16:32:44.87</time>
<name>989</name>
</trkpt>
<trkpt lat="48.937693" lon="8.650227">
<ele>357.0</ele>
<speed>5.3</speed>
<course>243.2</course>
<desc>Speed 5.3 km/h Distance 1.34 km</desc>
<time>2010-02-25T16:32:45.86</time>
<name>990</name>
</trkpt>
<trkpt lat="48.937687" lon="8.650207">
<ele>357.0</ele>
<speed>5.5</speed>
<course>241.0</course>
<desc>Speed 5.5 km/h Distance 1.34 km</desc>
<time>2010-02-25T16:32:46.85</time>
<name>991</name>
</trkpt>
<trkpt lat="48.937680" lon="8.650188">
<ele>357.0</ele>
<speed>5.7</speed>
<course>241.0</course>
<desc>Speed 5.7 km/h Distance 1.34 km</desc>
<time>2010-02-25T16:32:47.86</time>
<name>992</name>
</trkpt>
<trkpt lat="48.937673" lon="8.650170">
<ele>357.0</ele>
<speed>5.7</speed>
<course>237.7</course>
<desc>Speed 5.7 km/h Distance 1.34 km</desc>
<time>2010-02-25T16:32:48.85</time>
<name>993</name>
</trkpt>
<trkpt lat="48.937665" lon="8.650150">
<ele>356.5</ele>
<speed>5.8</speed>
<course>243.1</course>
<desc>Speed 5.8 km/h Distance 1.35 km</desc>
<time>2010-02-25T16:32:49.86</time>
<name>994</name>
</trkpt>
<trkpt lat="48.937658" lon="8.650130">
<ele>356.5</ele>
<speed>5.8</speed>
<course>243.1</course>
<desc>Speed 5.8 km/h Distance 1.35 km</desc>
<time>2010-02-25T16:32:50.85</time>
<name>995</name>
</trkpt>
<trkpt lat="48.937652" lon="8.650110">
<ele>356.5</ele>
<speed>5.9</speed>
<course>237.6</course>
<desc>Speed 5.9 km/h Distance 1.35 km</desc>
<time>2010-02-25T16:32:51.86</time>
<name>996</name>
</trkpt>
<trkpt lat="48.937643" lon="8.650090">
<ele>356.0</ele>
<speed>5.7</speed>
<course>244.9</course>
<desc>Speed 5.7 km/h Distance 1.35 km</desc>
<time>2010-02-25T16:32:52.85</time>
<name>997</name>
</trkpt>
<trkpt lat="48.937637" lon="8.650068">
<ele>356.0</ele>
<speed>5.9</speed>
<course>243.2</course>
<desc>Speed 5.9 km/h Distance 1.35 km</desc>
<time>2010-02-25T16:32:53.85</time>
<name>998</name>
</trkpt>
<trkpt lat="48.937630" lon="8.650048">
<ele>356.0</ele>
<speed>5.7</speed>
<course>235.4</course>
<desc>Speed 5.7 km/h Distance 1.35 km</desc>
<time>2010-02-25T16:32:54.85</time>
<name>999</name>
</trkpt>
<trkpt lat="48.937622" lon="8.650030">
<ele>356.5</ele>
<speed>5.6</speed>
<course>243.1</course>
<desc>Speed 5.6 km/h Distance 1.36 km</desc>
<time>2010-02-25T16:32:55.87</time>
<name>1000</name>
</trkpt>
<trkpt lat="48.937615" lon="8.650010">
<ele>356.5</ele>
<speed>5.9</speed>
<course>243.1</course>
<desc>Speed 5.9 km/h Distance 1.36 km</desc>
<time>2010-02-25T16:32:56.86</time>
<name>1001</name>
</trkpt>
<trkpt lat="48.937608" lon="8.649990">
<ele>356.5</ele>
<speed>5.8</speed>
<course>243.1</course>
<desc>Speed 5.8 km/h Distance 1.36 km</desc>
<time>2010-02-25T16:32:57.85</time>
<name>1002</name>
</trkpt>
<trkpt lat="48.937602" lon="8.649970">
<ele>356.5</ele>
<speed>5.8</speed>
<course>237.6</course>
<desc>Speed 5.8 km/h Distance 1.36 km</desc>
<time>2010-02-25T16:32:58.85</time>
<name>1003</name>
</trkpt>
<trkpt lat="48.937593" lon="8.649950">
<ele>356.5</ele>
<speed>6.0</speed>
<course>243.1</course>
<desc>Speed 6.0 km/h Distance 1.36 km</desc>
<time>2010-02-25T16:32:59.85</time>
<name>1004</name>
</trkpt>
<trkpt lat="48.937587" lon="8.649930">
<ele>356.5</ele>
<speed>5.9</speed>
<course>237.7</course>
<desc>Speed 5.9 km/h Distance 1.36 km</desc>
<time>2010-02-25T16:33:00.85</time>
<name>1005</name>
</trkpt>
<trkpt lat="48.937578" lon="8.649910">
<ele>356.5</ele>
<speed>6.0</speed>
<course>237.6</course>
<desc>Speed 6.0 km/h Distance 1.37 km</desc>
<time>2010-02-25T16:33:01.85</time>
<name>1006</name>
</trkpt>
<trkpt lat="48.937570" lon="8.649890">
<ele>356.5</ele>
<speed>5.9</speed>
<course>237.6</course>
<desc>Speed 5.9 km/h Distance 1.37 km</desc>
<time>2010-02-25T16:33:02.85</time>
<name>1007</name>
</trkpt>
<trkpt lat="48.937562" lon="8.649870">
<ele>356.5</ele>
<speed>6.0</speed>
<course>237.7</course>
<desc>Speed 6.0 km/h Distance 1.37 km</desc>
<time>2010-02-25T16:33:03.85</time>
<name>1008</name>
</trkpt>
<trkpt lat="48.937553" lon="8.649850">
<ele>356.5</ele>
<speed>5.9</speed>
<course>235.4</course>
<desc>Speed 5.9 km/h Distance 1.37 km</desc>
<time>2010-02-25T16:33:04.85</time>
<name>1009</name>
</trkpt>
<trkpt lat="48.937545" lon="8.649832">
<ele>356.5</ele>
<speed>6.0</speed>
<course>230.3</course>
<desc>Speed 6.0 km/h Distance 1.37 km</desc>
<time>2010-02-25T16:33:05.85</time>
<name>1010</name>
</trkpt>
<trkpt lat="48.937535" lon="8.649813">
<ele>356.5</ele>
<speed>5.9</speed>
<course>230.3</course>
<desc>Speed 5.9 km/h Distance 1.38 km</desc>
<time>2010-02-25T16:33:06.85</time>
<name>1011</name>
</trkpt>
<trkpt lat="48.937525" lon="8.649795">
<ele>356.5</ele>
<speed>5.9</speed>
<course>230.3</course>
<desc>Speed 5.9 km/h Distance 1.38 km</desc>
<time>2010-02-25T16:33:07.85</time>
<name>1012</name>
</trkpt>
<trkpt lat="48.937515" lon="8.649777">
<ele>356.5</ele>
<speed>5.9</speed>
<course>227.6</course>
<desc>Speed 5.9 km/h Distance 1.38 km</desc>
<time>2010-02-25T16:33:08.84</time>
<name>1013</name>
</trkpt>
<trkpt lat="48.937505" lon="8.649760">
<ele>356.5</ele>
<speed>5.9</speed>
<course>237.6</course>
<desc>Speed 5.9 km/h Distance 1.38 km</desc>
<time>2010-02-25T16:33:09.84</time>
<name>1014</name>
</trkpt>
<trkpt lat="48.937497" lon="8.649740">
<ele>356.5</ele>
<speed>6.0</speed>
<course>237.6</course>
<desc>Speed 6.0 km/h Distance 1.38 km</desc>
<time>2010-02-25T16:33:10.85</time>
<name>1015</name>
</trkpt>
<trkpt lat="48.937488" lon="8.649720">
<ele>357.0</ele>
<speed>5.9</speed>
<course>237.6</course>
<desc>Speed 5.9 km/h Distance 1.38 km</desc>
<time>2010-02-25T16:33:11.84</time>
<name>1016</name>
</trkpt>
<trkpt lat="48.937480" lon="8.649700">
<ele>357.0</ele>
<speed>5.9</speed>
<course>227.6</course>
<desc>Speed 5.9 km/h Distance 1.39 km</desc>
<time>2010-02-25T16:33:12.84</time>
<name>1017</name>
</trkpt>
<trkpt lat="48.937470" lon="8.649683">
<ele>357.0</ele>
<speed>6.0</speed>
<course>235.3</course>
<desc>Speed 6.0 km/h Distance 1.39 km</desc>
<time>2010-02-25T16:33:13.85</time>
<name>1018</name>
</trkpt>
<trkpt lat="48.937462" lon="8.649665">
<ele>357.0</ele>
<speed>5.9</speed>
<course>230.3</course>
<desc>Speed 5.9 km/h Distance 1.39 km</desc>
<time>2010-02-25T16:33:14.84</time>
<name>1019</name>
</trkpt>
<trkpt lat="48.937452" lon="8.649647">
<ele>357.0</ele>
<speed>5.9</speed>
<course>227.5</course>
<desc>Speed 5.9 km/h Distance 1.39 km</desc>
<time>2010-02-25T16:33:15.84</time>
<name>1020</name>
</trkpt>
<trkpt lat="48.937442" lon="8.649630">
<ele>357.0</ele>
<speed>5.9</speed>
<course>230.3</course>
<desc>Speed 5.9 km/h Distance 1.39 km</desc>
<time>2010-02-25T16:33:16.84</time>
<name>1021</name>
</trkpt>
<trkpt lat="48.937432" lon="8.649612">
<ele>356.5</ele>
<speed>5.9</speed>
<course>235.3</course>
<desc>Speed 5.9 km/h Distance 1.39 km</desc>
<time>2010-02-25T16:33:17.84</time>
<name>1022</name>
</trkpt>
<trkpt lat="48.937423" lon="8.649593">
<ele>356.5</ele>
<speed>5.9</speed>
<course>227.6</course>
<desc>Speed 5.9 km/h Distance 1.40 km</desc>
<time>2010-02-25T16:33:18.84</time>
<name>1023</name>
</trkpt>
<trkpt lat="48.937413" lon="8.649577">
<ele>356.5</ele>
<speed>6.1</speed>
<course>230.4</course>
<desc>Speed 6.1 km/h Distance 1.40 km</desc>
<time>2010-02-25T16:33:19.84</time>
<name>1024</name>
</trkpt>
<trkpt lat="48.937403" lon="8.649558">
<ele>356.5</ele>
<speed>6.0</speed>
<course>230.3</course>
<desc>Speed 6.0 km/h Distance 1.40 km</desc>
<time>2010-02-25T16:33:20.84</time>
<name>1025</name>
</trkpt>
<trkpt lat="48.937393" lon="8.649540">
<ele>356.5</ele>
<speed>6.1</speed>
<course>230.3</course>
<desc>Speed 6.1 km/h Distance 1.40 km</desc>
<time>2010-02-25T16:33:21.84</time>
<name>1026</name>
</trkpt>
<trkpt lat="48.937383" lon="8.649522">
<ele>356.5</ele>
<speed>6.2</speed>
<course>223.2</course>
<desc>Speed 6.2 km/h Distance 1.40 km</desc>
<time>2010-02-25T16:33:22.84</time>
<name>1027</name>
</trkpt>
<trkpt lat="48.937372" lon="8.649505">
<ele>356.5</ele>
<speed>6.1</speed>
<course>224.7</course>
<desc>Speed 6.1 km/h Distance 1.40 km</desc>
<time>2010-02-25T16:33:23.84</time>
<name>1028</name>
</trkpt>
<trkpt lat="48.937362" lon="8.649490">
<ele>356.0</ele>
<speed>6.0</speed>
<course>225.9</course>
<desc>Speed 6.0 km/h Distance 1.41 km</desc>
<time>2010-02-25T16:33:24.84</time>
<name>1029</name>
</trkpt>
<trkpt lat="48.937350" lon="8.649472">
<ele>356.0</ele>
<speed>6.2</speed>
<course>227.6</course>
<desc>Speed 6.2 km/h Distance 1.41 km</desc>
<time>2010-02-25T16:33:25.84</time>
<name>1030</name>
</trkpt>
<trkpt lat="48.937340" lon="8.649455">
<ele>356.0</ele>
<speed>6.4</speed>
<course>225.9</course>
<desc>Speed 6.4 km/h Distance 1.41 km</desc>
<time>2010-02-25T16:33:26.84</time>
<name>1031</name>
</trkpt>
<trkpt lat="48.937328" lon="8.649437">
<ele>356.0</ele>
<speed>6.2</speed>
<course>227.6</course>
<desc>Speed 6.2 km/h Distance 1.41 km</desc>
<time>2010-02-25T16:33:27.84</time>
<name>1032</name>
</trkpt>
<trkpt lat="48.937318" lon="8.649420">
<ele>356.0</ele>
<speed>6.4</speed>
<course>225.9</course>
<desc>Speed 6.4 km/h Distance 1.41 km</desc>
<time>2010-02-25T16:33:28.84</time>
<name>1033</name>
</trkpt>
<trkpt lat="48.937307" lon="8.649402">
<ele>356.0</ele>
<speed>6.3</speed>
<course>227.6</course>
<desc>Speed 6.3 km/h Distance 1.41 km</desc>
<time>2010-02-25T16:33:29.84</time>
<name>1034</name>
</trkpt>
<trkpt lat="48.937297" lon="8.649385">
<ele>356.0</ele>
<speed>6.2</speed>
<course>223.3</course>
<desc>Speed 6.2 km/h Distance 1.42 km</desc>
<time>2010-02-25T16:33:30.84</time>
<name>1035</name>
</trkpt>
<trkpt lat="48.937285" lon="8.649368">
<ele>355.5</ele>
<speed>6.2</speed>
<course>227.6</course>
<desc>Speed 6.2 km/h Distance 1.42 km</desc>
<time>2010-02-25T16:33:31.84</time>
<name>1036</name>
</trkpt>
<trkpt lat="48.937275" lon="8.649352">
<ele>355.5</ele>
<speed>6.2</speed>
<course>223.2</course>
<desc>Speed 6.2 km/h Distance 1.42 km</desc>
<time>2010-02-25T16:33:32.84</time>
<name>1037</name>
</trkpt>
<trkpt lat="48.937263" lon="8.649335">
<ele>355.5</ele>
<speed>6.2</speed>
<course>227.6</course>
<desc>Speed 6.2 km/h Distance 1.42 km</desc>
<time>2010-02-25T16:33:33.84</time>
<name>1038</name>
</trkpt>
<trkpt lat="48.937253" lon="8.649318">
<ele>355.0</ele>
<speed>6.2</speed>
<course>220.3</course>
<desc>Speed 6.2 km/h Distance 1.42 km</desc>
<time>2010-02-25T16:33:34.84</time>
<name>1039</name>
</trkpt>
<trkpt lat="48.937242" lon="8.649303">
<ele>355.0</ele>
<speed>6.1</speed>
<course>227.6</course>
<desc>Speed 6.1 km/h Distance 1.42 km</desc>
<time>2010-02-25T16:33:35.84</time>
<name>1040</name>
</trkpt>
<trkpt lat="48.937232" lon="8.649287">
<ele>355.0</ele>
<speed>6.2</speed>
<course>223.2</course>
<desc>Speed 6.2 km/h Distance 1.43 km</desc>
<time>2010-02-25T16:33:36.83</time>
<name>1041</name>
</trkpt>
<trkpt lat="48.937220" lon="8.649270">
<ele>355.0</ele>
<speed>6.2</speed>
<course>223.2</course>
<desc>Speed 6.2 km/h Distance 1.43 km</desc>
<time>2010-02-25T16:33:37.83</time>
<name>1042</name>
</trkpt>
<trkpt lat="48.937208" lon="8.649253">
<ele>355.0</ele>
<speed>6.3</speed>
<course>224.5</course>
<desc>Speed 6.3 km/h Distance 1.43 km</desc>
<time>2010-02-25T16:33:38.83</time>
<name>1043</name>
</trkpt>
<trkpt lat="48.937198" lon="8.649238">
<ele>354.5</ele>
<speed>6.1</speed>
<course>223.3</course>
<desc>Speed 6.1 km/h Distance 1.43 km</desc>
<time>2010-02-25T16:33:39.83</time>
<name>1044</name>
</trkpt>
<trkpt lat="48.937187" lon="8.649222">
<ele>354.5</ele>
<speed>6.2</speed>
<course>216.5</course>
<desc>Speed 6.2 km/h Distance 1.43 km</desc>
<time>2010-02-25T16:33:40.83</time>
<name>1045</name>
</trkpt>
<trkpt lat="48.937173" lon="8.649207">
<ele>354.5</ele>
<speed>6.4</speed>
<course>220.2</course>
<desc>Speed 6.4 km/h Distance 1.44 km</desc>
<time>2010-02-25T16:33:41.83</time>
<name>1046</name>
</trkpt>
<trkpt lat="48.937162" lon="8.649192">
<ele>354.5</ele>
<speed>6.3</speed>
<course>220.2</course>
<desc>Speed 6.3 km/h Distance 1.44 km</desc>
<time>2010-02-25T16:33:42.83</time>
<name>1047</name>
</trkpt>
<trkpt lat="48.937150" lon="8.649177">
<ele>354.5</ele>
<speed>6.2</speed>
<course>216.4</course>
<desc>Speed 6.2 km/h Distance 1.44 km</desc>
<time>2010-02-25T16:33:43.83</time>
<name>1048</name>
</trkpt>
<trkpt lat="48.937137" lon="8.649162">
<ele>354.5</ele>
<speed>6.3</speed>
<course>220.2</course>
<desc>Speed 6.3 km/h Distance 1.44 km</desc>
<time>2010-02-25T16:33:44.83</time>
<name>1049</name>
</trkpt>
<trkpt lat="48.937125" lon="8.649147">
<ele>354.5</ele>
<speed>6.2</speed>
<course>220.2</course>
<desc>Speed 6.2 km/h Distance 1.44 km</desc>
<time>2010-02-25T16:33:45.83</time>
<name>1050</name>
</trkpt>
<trkpt lat="48.937113" lon="8.649132">
<ele>354.5</ele>
<speed>6.1</speed>
<course>220.2</course>
<desc>Speed 6.1 km/h Distance 1.44 km</desc>
<time>2010-02-25T16:33:46.83</time>
<name>1051</name>
</trkpt>
<trkpt lat="48.937102" lon="8.649117">
<ele>354.5</ele>
<speed>6.1</speed>
<course>220.2</course>
<desc>Speed 6.1 km/h Distance 1.45 km</desc>
<time>2010-02-25T16:33:47.83</time>
<name>1052</name>
</trkpt>
<trkpt lat="48.937090" lon="8.649102">
<ele>354.5</ele>
<speed>6.0</speed>
<course>220.2</course>
<desc>Speed 6.0 km/h Distance 1.45 km</desc>
<time>2010-02-25T16:33:48.83</time>
<name>1053</name>
</trkpt>
<trkpt lat="48.937078" lon="8.649087">
<ele>354.5</ele>
<speed>6.3</speed>
<course>217.2</course>
<desc>Speed 6.3 km/h Distance 1.45 km</desc>
<time>2010-02-25T16:33:49.83</time>
<name>1054</name>
</trkpt>
<trkpt lat="48.937067" lon="8.649073">
<ele>354.0</ele>
<speed>5.9</speed>
<course>220.3</course>
<desc>Speed 5.9 km/h Distance 1.45 km</desc>
<time>2010-02-25T16:33:50.83</time>
<name>1055</name>
</trkpt>
<trkpt lat="48.937055" lon="8.649058">
<ele>354.0</ele>
<speed>5.9</speed>
<course>216.9</course>
<desc>Speed 5.9 km/h Distance 1.45 km</desc>
<time>2010-02-25T16:33:51.83</time>
<name>1056</name>
</trkpt>
<trkpt lat="48.937043" lon="8.649045">
<ele>354.5</ele>
<speed>5.7</speed>
<course>216.9</course>
<desc>Speed 5.7 km/h Distance 1.45 km</desc>
<time>2010-02-25T16:33:52.83</time>
<name>1057</name>
</trkpt>
<trkpt lat="48.937032" lon="8.649032">
<ele>354.5</ele>
<speed>6.0</speed>
<course>216.9</course>
<desc>Speed 6.0 km/h Distance 1.46 km</desc>
<time>2010-02-25T16:33:53.83</time>
<name>1058</name>
</trkpt>
<trkpt lat="48.937020" lon="8.649018">
<ele>354.5</ele>
<speed>5.8</speed>
<course>209.8</course>
<desc>Speed 5.8 km/h Distance 1.46 km</desc>
<time>2010-02-25T16:33:54.83</time>
<name>1059</name>
</trkpt>
<trkpt lat="48.937007" lon="8.649007">
<ele>354.5</ele>
<speed>6.0</speed>
<course>220.3</course>
<desc>Speed 6.0 km/h Distance 1.46 km</desc>
<time>2010-02-25T16:33:55.82</time>
<name>1060</name>
</trkpt>
<trkpt lat="48.936995" lon="8.648992">
<ele>354.5</ele>
<speed>6.1</speed>
<course>220.3</course>
<desc>Speed 6.1 km/h Distance 1.46 km</desc>
<time>2010-02-25T16:33:56.82</time>
<name>1061</name>
</trkpt>
<trkpt lat="48.936983" lon="8.648977">
<ele>354.5</ele>
<speed>6.2</speed>
<course>220.2</course>
<desc>Speed 6.2 km/h Distance 1.46 km</desc>
<time>2010-02-25T16:33:57.82</time>
<name>1062</name>
</trkpt>
<trkpt lat="48.936972" lon="8.648962">
<ele>354.5</ele>
<speed>6.1</speed>
<course>216.9</course>
<desc>Speed 6.1 km/h Distance 1.46 km</desc>
<time>2010-02-25T16:33:58.82</time>
<name>1063</name>
</trkpt>
<trkpt lat="48.936960" lon="8.648948">
<ele>354.5</ele>
<speed>6.2</speed>
<course>220.2</course>
<desc>Speed 6.2 km/h Distance 1.47 km</desc>
<time>2010-02-25T16:33:59.82</time>
<name>1064</name>
</trkpt>
<trkpt lat="48.936948" lon="8.648933">
<ele>354.0</ele>
<speed>6.0</speed>
<course>227.5</course>
<desc>Speed 6.0 km/h Distance 1.47 km</desc>
<time>2010-02-25T16:34:00.82</time>
<name>1065</name>
</trkpt>
<trkpt lat="48.936938" lon="8.648917">
<ele>354.0</ele>
<speed>6.1</speed>
<course>216.5</course>
<desc>Speed 6.1 km/h Distance 1.47 km</desc>
<time>2010-02-25T16:34:01.82</time>
<name>1066</name>
</trkpt>
<trkpt lat="48.936925" lon="8.648902">
<ele>354.5</ele>
<speed>6.3</speed>
<course>220.2</course>
<desc>Speed 6.3 km/h Distance 1.47 km</desc>
<time>2010-02-25T16:34:02.82</time>
<name>1067</name>
</trkpt>
<trkpt lat="48.936913" lon="8.648887">
<ele>354.5</ele>
<speed>6.2</speed>
<course>220.2</course>
<desc>Speed 6.2 km/h Distance 1.47 km</desc>
<time>2010-02-25T16:34:03.82</time>
<name>1068</name>
</trkpt>
<trkpt lat="48.936902" lon="8.648872">
<ele>354.5</ele>
<speed>6.1</speed>
<course>216.9</course>
<desc>Speed 6.1 km/h Distance 1.47 km</desc>
<time>2010-02-25T16:34:04.83</time>
<name>1069</name>
</trkpt>
<trkpt lat="48.936890" lon="8.648858">
<ele>354.5</ele>
<speed>6.1</speed>
<course>223.2</course>
<desc>Speed 6.1 km/h Distance 1.48 km</desc>
<time>2010-02-25T16:34:05.82</time>
<name>1070</name>
</trkpt>
<trkpt lat="48.936878" lon="8.648842">
<ele>354.5</ele>
<speed>6.1</speed>
<course>220.3</course>
<desc>Speed 6.1 km/h Distance 1.48 km</desc>
<time>2010-02-25T16:34:06.82</time>
<name>1071</name>
</trkpt>
<trkpt lat="48.936867" lon="8.648827">
<ele>354.5</ele>
<speed>6.3</speed>
<course>223.3</course>
<desc>Speed 6.3 km/h Distance 1.48 km</desc>
<time>2010-02-25T16:34:07.82</time>
<name>1072</name>
</trkpt>
<trkpt lat="48.936855" lon="8.648810">
<ele>354.5</ele>
<speed>6.3</speed>
<course>223.3</course>
<desc>Speed 6.3 km/h Distance 1.48 km</desc>
<time>2010-02-25T16:34:08.82</time>
<name>1073</name>
</trkpt>
<trkpt lat="48.936843" lon="8.648793">
<ele>354.5</ele>
<speed>6.2</speed>
<course>227.6</course>
<desc>Speed 6.2 km/h Distance 1.48 km</desc>
<time>2010-02-25T16:34:09.81</time>
<name>1074</name>
</trkpt>
<trkpt lat="48.936833" lon="8.648777">
<ele>354.5</ele>
<speed>6.0</speed>
<course>220.2</course>
<desc>Speed 6.0 km/h Distance 1.48 km</desc>
<time>2010-02-25T16:34:10.82</time>
<name>1075</name>
</trkpt>
<trkpt lat="48.936822" lon="8.648762">
<ele>354.5</ele>
<speed>6.0</speed>
<course>224.6</course>
<desc>Speed 6.0 km/h Distance 1.49 km</desc>
<time>2010-02-25T16:34:11.82</time>
<name>1076</name>
</trkpt>
<trkpt lat="48.936812" lon="8.648747">
<ele>354.5</ele>
<speed>6.0</speed>
<course>220.2</course>
<desc>Speed 6.0 km/h Distance 1.49 km</desc>
<time>2010-02-25T16:34:12.82</time>
<name>1077</name>
</trkpt>
<trkpt lat="48.936800" lon="8.648732">
<ele>354.0</ele>
<speed>6.0</speed>
<course>220.2</course>
<desc>Speed 6.0 km/h Distance 1.49 km</desc>
<time>2010-02-25T16:34:13.82</time>
<name>1078</name>
</trkpt>
<trkpt lat="48.936788" lon="8.648717">
<ele>354.0</ele>
<speed>6.1</speed>
<course>220.2</course>
<desc>Speed 6.1 km/h Distance 1.49 km</desc>
<time>2010-02-25T16:34:14.82</time>
<name>1079</name>
</trkpt>
<trkpt lat="48.936777" lon="8.648702">
<ele>354.0</ele>
<speed>6.1</speed>
<course>220.2</course>
<desc>Speed 6.1 km/h Distance 1.49 km</desc>
<time>2010-02-25T16:34:15.81</time>
<name>1080</name>
</trkpt>
<trkpt lat="48.936765" lon="8.648687">
<ele>354.0</ele>
<speed>6.1</speed>
<course>224.5</course>
<desc>Speed 6.1 km/h Distance 1.49 km</desc>
<time>2010-02-25T16:34:16.81</time>
<name>1081</name>
</trkpt>
<trkpt lat="48.936755" lon="8.648672">
<ele>354.0</ele>
<speed>6.0</speed>
<course>220.2</course>
<desc>Speed 6.0 km/h Distance 1.50 km</desc>
<time>2010-02-25T16:34:17.81</time>
<name>1082</name>
</trkpt>
<trkpt lat="48.936743" lon="8.648657">
<ele>353.5</ele>
<speed>5.9</speed>
<course>227.6</course>
<desc>Speed 5.9 km/h Distance 1.50 km</desc>
<time>2010-02-25T16:34:18.81</time>
<name>1083</name>
</trkpt>
<trkpt lat="48.936733" lon="8.648640">
<ele>353.5</ele>
<speed>6.0</speed>
<course>224.5</course>
<desc>Speed 6.0 km/h Distance 1.50 km</desc>
<time>2010-02-25T16:34:19.81</time>
<name>1084</name>
</trkpt>
<trkpt lat="48.936723" lon="8.648625">
<ele>353.5</ele>
<speed>6.0</speed>
<course>224.5</course>
<desc>Speed 6.0 km/h Distance 1.50 km</desc>
<time>2010-02-25T16:34:20.81</time>
<name>1085</name>
</trkpt>
<trkpt lat="48.936713" lon="8.648610">
<ele>353.0</ele>
<speed>6.0</speed>
<course>223.2</course>
<desc>Speed 6.0 km/h Distance 1.50 km</desc>
<time>2010-02-25T16:34:21.81</time>
<name>1086</name>
</trkpt>
<trkpt lat="48.936702" lon="8.648593">
<ele>353.0</ele>
<speed>6.0</speed>
<course>224.5</course>
<desc>Speed 6.0 km/h Distance 1.50 km</desc>
<time>2010-02-25T16:34:22.81</time>
<name>1087</name>
</trkpt>
<trkpt lat="48.936692" lon="8.648578">
<ele>352.5</ele>
<speed>6.1</speed>
<course>223.3</course>
<desc>Speed 6.1 km/h Distance 1.51 km</desc>
<time>2010-02-25T16:34:23.81</time>
<name>1088</name>
</trkpt>
<trkpt lat="48.936680" lon="8.648562">
<ele>352.5</ele>
<speed>6.2</speed>
<course>220.2</course>
<desc>Speed 6.2 km/h Distance 1.51 km</desc>
<time>2010-02-25T16:34:24.81</time>
<name>1089</name>
</trkpt>
<trkpt lat="48.936668" lon="8.648547">
<ele>352.5</ele>
<speed>6.1</speed>
<course>224.5</course>
<desc>Speed 6.1 km/h Distance 1.51 km</desc>
<time>2010-02-25T16:34:25.81</time>
<name>1090</name>
</trkpt>
<trkpt lat="48.936658" lon="8.648532">
<ele>352.0</ele>
<speed>6.1</speed>
<course>216.6</course>
<desc>Speed 6.1 km/h Distance 1.51 km</desc>
<time>2010-02-25T16:34:26.81</time>
<name>1091</name>
</trkpt>
<trkpt lat="48.936645" lon="8.648517">
<ele>352.0</ele>
<speed>6.2</speed>
<course>224.5</course>
<desc>Speed 6.2 km/h Distance 1.51 km</desc>
<time>2010-02-25T16:34:27.81</time>
<name>1092</name>
</trkpt>
<trkpt lat="48.936635" lon="8.648502">
<ele>352.0</ele>
<speed>6.0</speed>
<course>220.2</course>
<desc>Speed 6.0 km/h Distance 1.51 km</desc>
<time>2010-02-25T16:34:28.81</time>
<name>1093</name>
</trkpt>
<trkpt lat="48.936623" lon="8.648487">
<ele>351.5</ele>
<speed>5.9</speed>
<course>220.3</course>
<desc>Speed 5.9 km/h Distance 1.52 km</desc>
<time>2010-02-25T16:34:29.81</time>
<name>1094</name>
</trkpt>
<trkpt lat="48.936612" lon="8.648472">
<ele>351.5</ele>
<speed>6.0</speed>
<course>224.7</course>
<desc>Speed 6.0 km/h Distance 1.52 km</desc>
<time>2010-02-25T16:34:30.81</time>
<name>1095</name>
</trkpt>
<trkpt lat="48.936602" lon="8.648457">
<ele>351.5</ele>
<speed>6.0</speed>
<course>223.1</course>
<desc>Speed 6.0 km/h Distance 1.52 km</desc>
<time>2010-02-25T16:34:31.81</time>
<name>1096</name>
</trkpt>
<trkpt lat="48.936590" lon="8.648440">
<ele>351.5</ele>
<speed>6.2</speed>
<course>220.2</course>
<desc>Speed 6.2 km/h Distance 1.52 km</desc>
<time>2010-02-25T16:34:32.81</time>
<name>1097</name>
</trkpt>
<trkpt lat="48.936578" lon="8.648425">
<ele>351.5</ele>
<speed>6.3</speed>
<course>225.9</course>
<desc>Speed 6.3 km/h Distance 1.52 km</desc>
<time>2010-02-25T16:34:33.81</time>
<name>1098</name>
</trkpt>
<trkpt lat="48.936567" lon="8.648407">
<ele>351.5</ele>
<speed>6.3</speed>
<course>220.2</course>
<desc>Speed 6.3 km/h Distance 1.52 km</desc>
<time>2010-02-25T16:34:34.81</time>
<name>1099</name>
</trkpt>
<trkpt lat="48.936555" lon="8.648392">
<ele>351.5</ele>
<speed>6.2</speed>
<course>223.1</course>
<desc>Speed 6.2 km/h Distance 1.53 km</desc>
<time>2010-02-25T16:34:35.81</time>
<name>1100</name>
</trkpt>
<trkpt lat="48.936543" lon="8.648375">
<ele>351.5</ele>
<speed>6.2</speed>
<course>223.3</course>
<desc>Speed 6.2 km/h Distance 1.53 km</desc>
<time>2010-02-25T16:34:36.80</time>
<name>1101</name>
</trkpt>
<trkpt lat="48.936532" lon="8.648358">
<ele>351.5</ele>
<speed>6.3</speed>
<course>223.3</course>
<desc>Speed 6.3 km/h Distance 1.53 km</desc>
<time>2010-02-25T16:34:37.80</time>
<name>1102</name>
</trkpt>
<trkpt lat="48.936520" lon="8.648342">
<ele>351.0</ele>
<speed>6.6</speed>
<course>219.5</course>
<desc>Speed 6.6 km/h Distance 1.53 km</desc>
<time>2010-02-25T16:34:38.80</time>
<name>1103</name>
</trkpt>
<trkpt lat="48.936507" lon="8.648325">
<ele>351.0</ele>
<speed>6.4</speed>
<course>223.3</course>
<desc>Speed 6.4 km/h Distance 1.53 km</desc>
<time>2010-02-25T16:34:39.80</time>
<name>1104</name>
</trkpt>
<trkpt lat="48.936495" lon="8.648308">
<ele>351.0</ele>
<speed>6.4</speed>
<course>223.3</course>
<desc>Speed 6.4 km/h Distance 1.54 km</desc>
<time>2010-02-25T16:34:40.80</time>
<name>1105</name>
</trkpt>
<trkpt lat="48.936483" lon="8.648292">
<ele>351.0</ele>
<speed>6.3</speed>
<course>220.3</course>
<desc>Speed 6.3 km/h Distance 1.54 km</desc>
<time>2010-02-25T16:34:41.80</time>
<name>1106</name>
</trkpt>
<trkpt lat="48.936472" lon="8.648277">
<ele>351.0</ele>
<speed>6.0</speed>
<course>223.3</course>
<desc>Speed 6.0 km/h Distance 1.54 km</desc>
<time>2010-02-25T16:34:42.80</time>
<name>1107</name>
</trkpt>
<trkpt lat="48.936460" lon="8.648260">
<ele>351.0</ele>
<speed>6.2</speed>
<course>223.2</course>
<desc>Speed 6.2 km/h Distance 1.54 km</desc>
<time>2010-02-25T16:34:43.80</time>
<name>1108</name>
</trkpt>
<trkpt lat="48.936448" lon="8.648243">
<ele>351.0</ele>
<speed>6.1</speed>
<course>227.5</course>
<desc>Speed 6.1 km/h Distance 1.54 km</desc>
<time>2010-02-25T16:34:44.80</time>
<name>1109</name>
</trkpt>
<trkpt lat="48.936438" lon="8.648227">
<ele>351.0</ele>
<speed>6.1</speed>
<course>223.3</course>
<desc>Speed 6.1 km/h Distance 1.54 km</desc>
<time>2010-02-25T16:34:45.80</time>
<name>1110</name>
</trkpt>
<trkpt lat="48.936427" lon="8.648210">
<ele>351.0</ele>
<speed>6.1</speed>
<course>220.2</course>
<desc>Speed 6.1 km/h Distance 1.55 km</desc>
<time>2010-02-25T16:34:46.80</time>
<name>1111</name>
</trkpt>
<trkpt lat="48.936415" lon="8.648195">
<ele>351.0</ele>
<speed>6.0</speed>
<course>223.3</course>
<desc>Speed 6.0 km/h Distance 1.55 km</desc>
<time>2010-02-25T16:34:47.80</time>
<name>1112</name>
</trkpt>
<trkpt lat="48.936403" lon="8.648178">
<ele>351.0</ele>
<speed>6.3</speed>
<course>223.3</course>
<desc>Speed 6.3 km/h Distance 1.55 km</desc>
<time>2010-02-25T16:34:48.80</time>
<name>1113</name>
</trkpt>
<trkpt lat="48.936392" lon="8.648162">
<ele>351.0</ele>
<speed>6.1</speed>
<course>216.9</course>
<desc>Speed 6.1 km/h Distance 1.55 km</desc>
<time>2010-02-25T16:34:49.80</time>
<name>1114</name>
</trkpt>
<trkpt lat="48.936380" lon="8.648148">
<ele>351.0</ele>
<speed>6.0</speed>
<course>220.2</course>
<desc>Speed 6.0 km/h Distance 1.55 km</desc>
<time>2010-02-25T16:34:50.80</time>
<name>1115</name>
</trkpt>
<trkpt lat="48.936368" lon="8.648133">
<ele>351.0</ele>
<speed>6.1</speed>
<course>230.3</course>
<desc>Speed 6.1 km/h Distance 1.55 km</desc>
<time>2010-02-25T16:34:51.80</time>
<name>1116</name>
</trkpt>
<trkpt lat="48.936358" lon="8.648115">
<ele>351.0</ele>
<speed>6.3</speed>
<course>223.2</course>
<desc>Speed 6.3 km/h Distance 1.56 km</desc>
<time>2010-02-25T16:34:52.80</time>
<name>1117</name>
</trkpt>
<trkpt lat="48.936347" lon="8.648098">
<ele>351.0</ele>
<speed>6.3</speed>
<course>227.6</course>
<desc>Speed 6.3 km/h Distance 1.56 km</desc>
<time>2010-02-25T16:34:53.80</time>
<name>1118</name>
</trkpt>
<trkpt lat="48.936337" lon="8.648082">
<ele>351.0</ele>
<speed>6.2</speed>
<course>223.3</course>
<desc>Speed 6.2 km/h Distance 1.56 km</desc>
<time>2010-02-25T16:34:54.80</time>
<name>1119</name>
</trkpt>
<trkpt lat="48.936325" lon="8.648065">
<ele>351.0</ele>
<speed>6.2</speed>
<course>223.3</course>
<desc>Speed 6.2 km/h Distance 1.56 km</desc>
<time>2010-02-25T16:34:55.80</time>
<name>1120</name>
</trkpt>
<trkpt lat="48.936313" lon="8.648048">
<ele>351.0</ele>
<speed>6.2</speed>
<course>220.2</course>
<desc>Speed 6.2 km/h Distance 1.56 km</desc>
<time>2010-02-25T16:34:56.80</time>
<name>1121</name>
</trkpt>
<trkpt lat="48.936302" lon="8.648033">
<ele>351.0</ele>
<speed>6.2</speed>
<course>223.3</course>
<desc>Speed 6.2 km/h Distance 1.57 km</desc>
<time>2010-02-25T16:34:57.80</time>
<name>1122</name>
</trkpt>
<trkpt lat="48.936290" lon="8.648017">
<ele>351.0</ele>
<speed>6.2</speed>
<course>220.2</course>
<desc>Speed 6.2 km/h Distance 1.57 km</desc>
<time>2010-02-25T16:34:58.79</time>
<name>1123</name>
</trkpt>
<trkpt lat="48.936278" lon="8.648002">
<ele>351.0</ele>
<speed>6.1</speed>
<course>223.3</course>
<desc>Speed 6.1 km/h Distance 1.57 km</desc>
<time>2010-02-25T16:34:59.79</time>
<name>1124</name>
</trkpt>
<trkpt lat="48.936267" lon="8.647985">
<ele>350.5</ele>
<speed>6.2</speed>
<course>224.7</course>
<desc>Speed 6.2 km/h Distance 1.57 km</desc>
<time>2010-02-25T16:35:00.79</time>
<name>1125</name>
</trkpt>
<trkpt lat="48.936257" lon="8.647970">
<ele>350.5</ele>
<speed>6.1</speed>
<course>220.3</course>
<desc>Speed 6.1 km/h Distance 1.57 km</desc>
<time>2010-02-25T16:35:01.79</time>
<name>1126</name>
</trkpt>
<trkpt lat="48.936245" lon="8.647955">
<ele>350.5</ele>
<speed>6.2</speed>
<course>220.2</course>
<desc>Speed 6.2 km/h Distance 1.57 km</desc>
<time>2010-02-25T16:35:02.79</time>
<name>1127</name>
</trkpt>
<trkpt lat="48.936233" lon="8.647940">
<ele>350.5</ele>
<speed>6.0</speed>
<course>224.5</course>
<desc>Speed 6.0 km/h Distance 1.58 km</desc>
<time>2010-02-25T16:35:03.80</time>
<name>1128</name>
</trkpt>
<trkpt lat="48.936223" lon="8.647925">
<ele>350.5</ele>
<speed>5.9</speed>
<course>220.2</course>
<desc>Speed 5.9 km/h Distance 1.58 km</desc>
<time>2010-02-25T16:35:04.79</time>
<name>1129</name>
</trkpt>
<trkpt lat="48.936212" lon="8.647910">
<ele>350.5</ele>
<speed>6.0</speed>
<course>220.2</course>
<desc>Speed 6.0 km/h Distance 1.58 km</desc>
<time>2010-02-25T16:35:05.79</time>
<name>1130</name>
</trkpt>
<trkpt lat="48.936200" lon="8.647895">
<ele>350.5</ele>
<speed>6.0</speed>
<course>220.2</course>
<desc>Speed 6.0 km/h Distance 1.58 km</desc>
<time>2010-02-25T16:35:06.79</time>
<name>1131</name>
</trkpt>
<trkpt lat="48.936188" lon="8.647880">
<ele>350.5</ele>
<speed>5.9</speed>
<course>216.9</course>
<desc>Speed 5.9 km/h Distance 1.58 km</desc>
<time>2010-02-25T16:35:07.79</time>
<name>1132</name>
</trkpt>
<trkpt lat="48.936177" lon="8.647867">
<ele>350.5</ele>
<speed>5.8</speed>
<course>224.7</course>
<desc>Speed 5.8 km/h Distance 1.58 km</desc>
<time>2010-02-25T16:35:08.80</time>
<name>1133</name>
</trkpt>
<trkpt lat="48.936167" lon="8.647852">
<ele>350.5</ele>
<speed>5.8</speed>
<course>224.6</course>
<desc>Speed 5.8 km/h Distance 1.59 km</desc>
<time>2010-02-25T16:35:09.79</time>
<name>1134</name>
</trkpt>
<trkpt lat="48.936157" lon="8.647837">
<ele>350.5</ele>
<speed>5.7</speed>
<course>221.2</course>
<desc>Speed 5.7 km/h Distance 1.59 km</desc>
<time>2010-02-25T16:35:10.80</time>
<name>1135</name>
</trkpt>
<trkpt lat="48.936147" lon="8.647823">
<ele>350.5</ele>
<speed>5.2</speed>
<course>224.5</course>
<desc>Speed 5.2 km/h Distance 1.59 km</desc>
<time>2010-02-25T16:35:11.79</time>
<name>1136</name>
</trkpt>
<trkpt lat="48.936137" lon="8.647808">
<ele>350.5</ele>
<speed>5.8</speed>
<course>216.9</course>
<desc>Speed 5.8 km/h Distance 1.59 km</desc>
<time>2010-02-25T16:35:12.79</time>
<name>1137</name>
</trkpt>
<trkpt lat="48.936125" lon="8.647795">
<ele>350.5</ele>
<speed>5.7</speed>
<course>221.2</course>
<desc>Speed 5.7 km/h Distance 1.59 km</desc>
<time>2010-02-25T16:35:13.79</time>
<name>1138</name>
</trkpt>
<trkpt lat="48.936115" lon="8.647782">
<ele>350.5</ele>
<speed>5.4</speed>
<course>224.5</course>
<desc>Speed 5.4 km/h Distance 1.59 km</desc>
<time>2010-02-25T16:35:14.79</time>
<name>1139</name>
</trkpt>
<trkpt lat="48.936105" lon="8.647767">
<ele>350.5</ele>
<speed>5.7</speed>
<course>216.9</course>
<desc>Speed 5.7 km/h Distance 1.59 km</desc>
<time>2010-02-25T16:35:15.79</time>
<name>1140</name>
</trkpt>
<trkpt lat="48.936093" lon="8.647753">
<ele>350.5</ele>
<speed>5.8</speed>
<course>221.2</course>
<desc>Speed 5.8 km/h Distance 1.60 km</desc>
<time>2010-02-25T16:35:16.79</time>
<name>1141</name>
</trkpt>
<trkpt lat="48.936083" lon="8.647740">
<ele>350.5</ele>
<speed>5.5</speed>
<course>220.2</course>
<desc>Speed 5.5 km/h Distance 1.60 km</desc>
<time>2010-02-25T16:35:17.79</time>
<name>1142</name>
</trkpt>
<trkpt lat="48.936072" lon="8.647725">
<ele>350.5</ele>
<speed>5.9</speed>
<course>221.4</course>
<desc>Speed 5.9 km/h Distance 1.60 km</desc>
<time>2010-02-25T16:35:18.79</time>
<name>1143</name>
</trkpt>
<trkpt lat="48.936062" lon="8.647712">
<ele>350.5</ele>
<speed>5.8</speed>
<course>220.2</course>
<desc>Speed 5.8 km/h Distance 1.60 km</desc>
<time>2010-02-25T16:35:19.79</time>
<name>1144</name>
</trkpt>
<trkpt lat="48.936050" lon="8.647697">
<ele>350.5</ele>
<speed>5.9</speed>
<course>220.2</course>
<desc>Speed 5.9 km/h Distance 1.60 km</desc>
<time>2010-02-25T16:35:20.80</time>
<name>1145</name>
</trkpt>
<trkpt lat="48.936038" lon="8.647682">
<ele>350.5</ele>
<speed>5.8</speed>
<course>216.9</course>
<desc>Speed 5.8 km/h Distance 1.60 km</desc>
<time>2010-02-25T16:35:21.78</time>
<name>1146</name>
</trkpt>
<trkpt lat="48.936027" lon="8.647668">
<ele>350.5</ele>
<speed>6.0</speed>
<course>223.3</course>
<desc>Speed 6.0 km/h Distance 1.61 km</desc>
<time>2010-02-25T16:35:22.78</time>
<name>1147</name>
</trkpt>
<trkpt lat="48.936015" lon="8.647652">
<ele>350.5</ele>
<speed>6.2</speed>
<course>223.3</course>
<desc>Speed 6.2 km/h Distance 1.61 km</desc>
<time>2010-02-25T16:35:23.78</time>
<name>1148</name>
</trkpt>
<trkpt lat="48.936003" lon="8.647635">
<ele>351.0</ele>
<speed>6.1</speed>
<course>216.9</course>
<desc>Speed 6.1 km/h Distance 1.61 km</desc>
<time>2010-02-25T16:35:24.79</time>
<name>1149</name>
</trkpt>
<trkpt lat="48.935992" lon="8.647622">
<ele>350.5</ele>
<speed>5.9</speed>
<course>220.2</course>
<desc>Speed 5.9 km/h Distance 1.61 km</desc>
<time>2010-02-25T16:35:25.78</time>
<name>1150</name>
</trkpt>
<trkpt lat="48.935980" lon="8.647607">
<ele>350.5</ele>
<speed>6.0</speed>
<course>220.2</course>
<desc>Speed 6.0 km/h Distance 1.61 km</desc>
<time>2010-02-25T16:35:26.78</time>
<name>1151</name>
</trkpt>
<trkpt lat="48.935968" lon="8.647592">
<ele>351.0</ele>
<speed>6.0</speed>
<course>223.2</course>
<desc>Speed 6.0 km/h Distance 1.61 km</desc>
<time>2010-02-25T16:35:27.78</time>
<name>1152</name>
</trkpt>
<trkpt lat="48.935957" lon="8.647575">
<ele>351.0</ele>
<speed>6.0</speed>
<course>216.6</course>
<desc>Speed 6.0 km/h Distance 1.62 km</desc>
<time>2010-02-25T16:35:28.78</time>
<name>1153</name>
</trkpt>
<trkpt lat="48.935943" lon="8.647560">
<ele>351.0</ele>
<speed>6.2</speed>
<course>220.2</course>
<desc>Speed 6.2 km/h Distance 1.62 km</desc>
<time>2010-02-25T16:35:29.78</time>
<name>1154</name>
</trkpt>
<trkpt lat="48.935932" lon="8.647545">
<ele>351.0</ele>
<speed>6.1</speed>
<course>220.3</course>
<desc>Speed 6.1 km/h Distance 1.62 km</desc>
<time>2010-02-25T16:35:30.78</time>
<name>1155</name>
</trkpt>
<trkpt lat="48.935920" lon="8.647530">
<ele>351.0</ele>
<speed>6.3</speed>
<course>220.3</course>
<desc>Speed 6.3 km/h Distance 1.62 km</desc>
<time>2010-02-25T16:35:31.78</time>
<name>1156</name>
</trkpt>
<trkpt lat="48.935908" lon="8.647515">
<ele>351.0</ele>
<speed>5.9</speed>
<course>220.3</course>
<desc>Speed 5.9 km/h Distance 1.62 km</desc>
<time>2010-02-25T16:35:32.79</time>
<name>1157</name>
</trkpt>
<trkpt lat="48.935897" lon="8.647500">
<ele>351.5</ele>
<speed>5.9</speed>
<course>220.3</course>
<desc>Speed 5.9 km/h Distance 1.62 km</desc>
<time>2010-02-25T16:35:33.78</time>
<name>1158</name>
</trkpt>
<trkpt lat="48.935885" lon="8.647485">
<ele>351.0</ele>
<speed>5.8</speed>
<course>216.9</course>
<desc>Speed 5.8 km/h Distance 1.63 km</desc>
<time>2010-02-25T16:35:34.78</time>
<name>1159</name>
</trkpt>
<trkpt lat="48.935873" lon="8.647472">
<ele>351.0</ele>
<speed>5.8</speed>
<course>224.7</course>
<desc>Speed 5.8 km/h Distance 1.63 km</desc>
<time>2010-02-25T16:35:35.78</time>
<name>1160</name>
</trkpt>
<trkpt lat="48.935863" lon="8.647457">
<ele>351.0</ele>
<speed>5.9</speed>
<course>220.2</course>
<desc>Speed 5.9 km/h Distance 1.63 km</desc>
<time>2010-02-25T16:35:36.79</time>
<name>1161</name>
</trkpt>
<trkpt lat="48.935852" lon="8.647442">
<ele>351.0</ele>
<speed>6.0</speed>
<course>223.2</course>
<desc>Speed 6.0 km/h Distance 1.63 km</desc>
<time>2010-02-25T16:35:37.78</time>
<name>1162</name>
</trkpt>
<trkpt lat="48.935840" lon="8.647425">
<ele>351.0</ele>
<speed>6.1</speed>
<course>220.3</course>
<desc>Speed 6.1 km/h Distance 1.63 km</desc>
<time>2010-02-25T16:35:38.78</time>
<name>1163</name>
</trkpt>
<trkpt lat="48.935828" lon="8.647410">
<ele>351.0</ele>
<speed>6.0</speed>
<course>224.6</course>
<desc>Speed 6.0 km/h Distance 1.63 km</desc>
<time>2010-02-25T16:35:39.78</time>
<name>1164</name>
</trkpt>
<trkpt lat="48.935818" lon="8.647395">
<ele>351.0</ele>
<speed>6.1</speed>
<course>219.4</course>
<desc>Speed 6.1 km/h Distance 1.64 km</desc>
<time>2010-02-25T16:35:40.78</time>
<name>1165</name>
</trkpt>
<trkpt lat="48.935805" lon="8.647378">
<ele>351.0</ele>
<speed>6.4</speed>
<course>227.6</course>
<desc>Speed 6.4 km/h Distance 1.64 km</desc>
<time>2010-02-25T16:35:41.78</time>
<name>1166</name>
</trkpt>
<trkpt lat="48.935795" lon="8.647362">
<ele>351.0</ele>
<speed>6.0</speed>
<course>216.6</course>
<desc>Speed 6.0 km/h Distance 1.64 km</desc>
<time>2010-02-25T16:35:42.78</time>
<name>1167</name>
</trkpt>
<trkpt lat="48.935782" lon="8.647347">
<ele>351.0</ele>
<speed>6.3</speed>
<course>223.3</course>
<desc>Speed 6.3 km/h Distance 1.64 km</desc>
<time>2010-02-25T16:35:43.78</time>
<name>1168</name>
</trkpt>
<trkpt lat="48.935770" lon="8.647330">
<ele>351.0</ele>
<speed>6.2</speed>
<course>220.2</course>
<desc>Speed 6.2 km/h Distance 1.64 km</desc>
<time>2010-02-25T16:35:44.77</time>
<name>1169</name>
</trkpt>
<trkpt lat="48.935758" lon="8.647315">
<ele>351.0</ele>
<speed>6.0</speed>
<course>216.9</course>
<desc>Speed 6.0 km/h Distance 1.65 km</desc>
<time>2010-02-25T16:35:45.77</time>
<name>1170</name>
</trkpt>
<trkpt lat="48.935747" lon="8.647302">
<ele>350.5</ele>
<speed>5.7</speed>
<course>216.9</course>
<desc>Speed 5.7 km/h Distance 1.65 km</desc>
<time>2010-02-25T16:35:46.78</time>
<name>1171</name>
</trkpt>
<trkpt lat="48.935735" lon="8.647288">
<ele>350.5</ele>
<speed>5.7</speed>
<course>216.9</course>
<desc>Speed 5.7 km/h Distance 1.65 km</desc>
<time>2010-02-25T16:35:47.77</time>
<name>1172</name>
</trkpt>
<trkpt lat="48.935723" lon="8.647275">
<ele>350.5</ele>
<speed>5.5</speed>
<course>224.6</course>
<desc>Speed 5.5 km/h Distance 1.65 km</desc>
<time>2010-02-25T16:35:48.77</time>
<name>1173</name>
</trkpt>
<trkpt lat="48.935713" lon="8.647260">
<ele>350.5</ele>
<speed>5.7</speed>
<course>217.0</course>
<desc>Speed 5.7 km/h Distance 1.65 km</desc>
<time>2010-02-25T16:35:49.77</time>
<name>1174</name>
</trkpt>
<trkpt lat="48.935702" lon="8.647247">
<ele>351.0</ele>
<speed>5.3</speed>
<course>220.3</course>
<desc>Speed 5.3 km/h Distance 1.65 km</desc>
<time>2010-02-25T16:35:50.77</time>
<name>1175</name>
</trkpt>
<trkpt lat="48.935690" lon="8.647232">
<ele>351.5</ele>
<speed>5.8</speed>
<course>227.6</course>
<desc>Speed 5.8 km/h Distance 1.65 km</desc>
<time>2010-02-25T16:35:51.77</time>
<name>1176</name>
</trkpt>
<trkpt lat="48.935680" lon="8.647215">
<ele>352.0</ele>
<speed>5.7</speed>
<course>216.9</course>
<desc>Speed 5.7 km/h Distance 1.66 km</desc>
<time>2010-02-25T16:35:52.77</time>
<name>1177</name>
</trkpt>
<trkpt lat="48.935668" lon="8.647202">
<ele>352.0</ele>
<speed>5.5</speed>
<course>224.5</course>
<desc>Speed 5.5 km/h Distance 1.66 km</desc>
<time>2010-02-25T16:35:53.77</time>
<name>1178</name>
</trkpt>
<trkpt lat="48.935658" lon="8.647187">
<ele>352.0</ele>
<speed>5.4</speed>
<course>224.5</course>
<desc>Speed 5.4 km/h Distance 1.66 km</desc>
<time>2010-02-25T16:35:54.77</time>
<name>1179</name>
</trkpt>
<trkpt lat="48.935648" lon="8.647172">
<ele>352.0</ele>
<speed>5.5</speed>
<course>232.7</course>
<desc>Speed 5.5 km/h Distance 1.66 km</desc>
<time>2010-02-25T16:35:55.77</time>
<name>1180</name>
</trkpt>
<trkpt lat="48.935640" lon="8.647155">
<ele>352.0</ele>
<speed>5.4</speed>
<course>221.3</course>
<desc>Speed 5.4 km/h Distance 1.66 km</desc>
<time>2010-02-25T16:35:56.77</time>
<name>1181</name>
</trkpt>
<trkpt lat="48.935630" lon="8.647142">
<ele>352.0</ele>
<speed>5.4</speed>
<course>224.5</course>
<desc>Speed 5.4 km/h Distance 1.66 km</desc>
<time>2010-02-25T16:35:57.77</time>
<name>1182</name>
</trkpt>
<trkpt lat="48.935620" lon="8.647127">
<ele>351.5</ele>
<speed>5.4</speed>
<course>221.3</course>
<desc>Speed 5.4 km/h Distance 1.67 km</desc>
<time>2010-02-25T16:35:58.77</time>
<name>1183</name>
</trkpt>
<trkpt lat="48.935610" lon="8.647113">
<ele>351.0</ele>
<speed>5.3</speed>
<course>224.6</course>
<desc>Speed 5.3 km/h Distance 1.67 km</desc>
<time>2010-02-25T16:35:59.77</time>
<name>1184</name>
</trkpt>
<trkpt lat="48.935600" lon="8.647098">
<ele>351.0</ele>
<speed>5.3</speed>
<course>224.5</course>
<desc>Speed 5.3 km/h Distance 1.67 km</desc>
<time>2010-02-25T16:36:00.77</time>
<name>1185</name>
</trkpt>
<trkpt lat="48.935590" lon="8.647083">
<ele>351.0</ele>
<speed>5.7</speed>
<course>224.6</course>
<desc>Speed 5.7 km/h Distance 1.67 km</desc>
<time>2010-02-25T16:36:01.77</time>
<name>1186</name>
</trkpt>
<trkpt lat="48.935580" lon="8.647068">
<ele>351.5</ele>
<speed>5.4</speed>
<course>227.6</course>
<desc>Speed 5.4 km/h Distance 1.67 km</desc>
<time>2010-02-25T16:36:02.76</time>
<name>1187</name>
</trkpt>
<trkpt lat="48.935570" lon="8.647052">
<ele>351.5</ele>
<speed>5.8</speed>
<course>224.6</course>
<desc>Speed 5.8 km/h Distance 1.67 km</desc>
<time>2010-02-25T16:36:03.76</time>
<name>1188</name>
</trkpt>
<trkpt lat="48.935560" lon="8.647037">
<ele>351.5</ele>
<speed>5.7</speed>
<course>230.3</course>
<desc>Speed 5.7 km/h Distance 1.68 km</desc>
<time>2010-02-25T16:36:04.76</time>
<name>1189</name>
</trkpt>
<trkpt lat="48.935550" lon="8.647018">
<ele>352.0</ele>
<speed>5.8</speed>
<course>232.7</course>
<desc>Speed 5.8 km/h Distance 1.68 km</desc>
<time>2010-02-25T16:36:05.76</time>
<name>1190</name>
</trkpt>
<trkpt lat="48.935542" lon="8.647002">
<ele>352.0</ele>
<speed>5.5</speed>
<course>221.3</course>
<desc>Speed 5.5 km/h Distance 1.68 km</desc>
<time>2010-02-25T16:36:06.76</time>
<name>1191</name>
</trkpt>
<trkpt lat="48.935532" lon="8.646988">
<ele>352.0</ele>
<speed>5.2</speed>
<course>226.4</course>
<desc>Speed 5.2 km/h Distance 1.68 km</desc>
<time>2010-02-25T16:36:07.76</time>
<name>1192</name>
</trkpt>
<trkpt lat="48.935523" lon="8.646975">
<ele>352.0</ele>
<speed>5.3</speed>
<course>217.5</course>
<desc>Speed 5.3 km/h Distance 1.68 km</desc>
<time>2010-02-25T16:36:08.76</time>
<name>1193</name>
</trkpt>
<trkpt lat="48.935513" lon="8.646963">
<ele>352.0</ele>
<speed>5.1</speed>
<course>224.5</course>
<desc>Speed 5.1 km/h Distance 1.68 km</desc>
<time>2010-02-25T16:36:09.76</time>
<name>1194</name>
</trkpt>
<trkpt lat="48.935503" lon="8.646948">
<ele>352.5</ele>
<speed>5.4</speed>
<course>220.2</course>
<desc>Speed 5.4 km/h Distance 1.68 km</desc>
<time>2010-02-25T16:36:10.77</time>
<name>1195</name>
</trkpt>
<trkpt lat="48.935492" lon="8.646933">
<ele>352.0</ele>
<speed>5.8</speed>
<course>224.5</course>
<desc>Speed 5.8 km/h Distance 1.69 km</desc>
<time>2010-02-25T16:36:11.76</time>
<name>1196</name>
</trkpt>
<trkpt lat="48.935482" lon="8.646918">
<ele>352.0</ele>
<speed>5.6</speed>
<course>229.7</course>
<desc>Speed 5.6 km/h Distance 1.69 km</desc>
<time>2010-02-25T16:36:12.76</time>
<name>1197</name>
</trkpt>
<trkpt lat="48.935473" lon="8.646903">
<ele>351.5</ele>
<speed>5.1</speed>
<course>227.6</course>
<desc>Speed 5.1 km/h Distance 1.69 km</desc>
<time>2010-02-25T16:36:13.76</time>
<name>1198</name>
</trkpt>
<trkpt lat="48.935463" lon="8.646887">
<ele>351.5</ele>
<speed>5.5</speed>
<course>224.5</course>
<desc>Speed 5.5 km/h Distance 1.69 km</desc>
<time>2010-02-25T16:36:14.76</time>
<name>1199</name>
</trkpt>
<trkpt lat="48.935453" lon="8.646872">
<ele>351.5</ele>
<speed>5.7</speed>
<course>235.3</course>
<desc>Speed 5.7 km/h Distance 1.69 km</desc>
<time>2010-02-25T16:36:15.76</time>
<name>1200</name>
</trkpt>
<trkpt lat="48.935445" lon="8.646853">
<ele>351.0</ele>
<speed>5.2</speed>
<course>229.7</course>
<desc>Speed 5.2 km/h Distance 1.69 km</desc>
<time>2010-02-25T16:36:16.76</time>
<name>1201</name>
</trkpt>
<trkpt lat="48.935437" lon="8.646838">
<ele>351.0</ele>
<speed>5.3</speed>
<course>235.3</course>
<desc>Speed 5.3 km/h Distance 1.70 km</desc>
<time>2010-02-25T16:36:17.76</time>
<name>1202</name>
</trkpt>
<trkpt lat="48.935428" lon="8.646820">
<ele>351.0</ele>
<speed>5.3</speed>
<course>238.7</course>
<desc>Speed 5.3 km/h Distance 1.70 km</desc>
<time>2010-02-25T16:36:18.76</time>
<name>1203</name>
</trkpt>
<trkpt lat="48.935422" lon="8.646803">
<ele>351.0</ele>
<speed>5.1</speed>
<course>238.6</course>
<desc>Speed 5.1 km/h Distance 1.70 km</desc>
<time>2010-02-25T16:36:19.76</time>
<name>1204</name>
</trkpt>
<trkpt lat="48.935415" lon="8.646787">
<ele>351.0</ele>
<speed>5.2</speed>
<course>232.7</course>
<desc>Speed 5.2 km/h Distance 1.70 km</desc>
<time>2010-02-25T16:36:20.76</time>
<name>1205</name>
</trkpt>
<trkpt lat="48.935407" lon="8.646770">
<ele>351.0</ele>
<speed>5.4</speed>
<course>243.1</course>
<desc>Speed 5.4 km/h Distance 1.70 km</desc>
<time>2010-02-25T16:36:21.77</time>
<name>1206</name>
</trkpt>
<trkpt lat="48.935400" lon="8.646750">
<ele>351.0</ele>
<speed>5.9</speed>
<course>244.9</course>
<desc>Speed 5.9 km/h Distance 1.70 km</desc>
<time>2010-02-25T16:36:22.76</time>
<name>1207</name>
</trkpt>
<trkpt lat="48.935393" lon="8.646728">
<ele>350.5</ele>
<speed>6.0</speed>
<course>243.1</course>
<desc>Speed 6.0 km/h Distance 1.70 km</desc>
<time>2010-02-25T16:36:23.76</time>
<name>1208</name>
</trkpt>
<trkpt lat="48.935387" lon="8.646708">
<ele>350.5</ele>
<speed>5.7</speed>
<course>243.1</course>
<desc>Speed 5.7 km/h Distance 1.71 km</desc>
<time>2010-02-25T16:36:24.75</time>
<name>1209</name>
</trkpt>
<trkpt lat="48.935380" lon="8.646688">
<ele>350.5</ele>
<speed>5.9</speed>
<course>243.1</course>
<desc>Speed 5.9 km/h Distance 1.71 km</desc>
<time>2010-02-25T16:36:25.75</time>
<name>1210</name>
</trkpt>
<trkpt lat="48.935373" lon="8.646668">
<ele>350.5</ele>
<speed>5.8</speed>
<course>250.6</course>
<desc>Speed 5.8 km/h Distance 1.71 km</desc>
<time>2010-02-25T16:36:26.75</time>
<name>1211</name>
</trkpt>
<trkpt lat="48.935368" lon="8.646647">
<ele>350.5</ele>
<speed>5.7</speed>
<course>250.6</course>
<desc>Speed 5.7 km/h Distance 1.71 km</desc>
<time>2010-02-25T16:36:27.75</time>
<name>1212</name>
</trkpt>
<trkpt lat="48.935363" lon="8.646625">
<ele>350.5</ele>
<speed>5.8</speed>
<course>249.2</course>
<desc>Speed 5.8 km/h Distance 1.71 km</desc>
<time>2010-02-25T16:36:28.75</time>
<name>1213</name>
</trkpt>
<trkpt lat="48.935358" lon="8.646605">
<ele>350.5</ele>
<speed>5.6</speed>
<course>257.7</course>
<desc>Speed 5.6 km/h Distance 1.71 km</desc>
<time>2010-02-25T16:36:29.75</time>
<name>1214</name>
</trkpt>
<trkpt lat="48.935355" lon="8.646582">
<ele>350.5</ele>
<speed>5.8</speed>
<course>256.8</course>
<desc>Speed 5.8 km/h Distance 1.72 km</desc>
<time>2010-02-25T16:36:30.75</time>
<name>1215</name>
</trkpt>
<trkpt lat="48.935352" lon="8.646560">
<ele>351.0</ele>
<speed>5.9</speed>
<course>256.8</course>
<desc>Speed 5.9 km/h Distance 1.72 km</desc>
<time>2010-02-25T16:36:31.75</time>
<name>1216</name>
</trkpt>
<trkpt lat="48.935348" lon="8.646538">
<ele>350.5</ele>
<speed>5.9</speed>
<course>256.8</course>
<desc>Speed 5.9 km/h Distance 1.72 km</desc>
<time>2010-02-25T16:36:32.75</time>
<name>1217</name>
</trkpt>
<trkpt lat="48.935345" lon="8.646517">
<ele>351.0</ele>
<speed>5.8</speed>
<course>263.3</course>
<desc>Speed 5.8 km/h Distance 1.72 km</desc>
<time>2010-02-25T16:36:33.75</time>
<name>1218</name>
</trkpt>
<trkpt lat="48.935343" lon="8.646495">
<ele>351.0</ele>
<speed>5.7</speed>
<course>263.8</course>
<desc>Speed 5.7 km/h Distance 1.72 km</desc>
<time>2010-02-25T16:36:34.75</time>
<name>1219</name>
</trkpt>
<trkpt lat="48.935342" lon="8.646472">
<ele>351.5</ele>
<speed>5.8</speed>
<course>263.3</course>
<desc>Speed 5.8 km/h Distance 1.72 km</desc>
<time>2010-02-25T16:36:35.75</time>
<name>1220</name>
</trkpt>
<trkpt lat="48.935340" lon="8.646450">
<ele>351.5</ele>
<speed>5.8</speed>
<course>257.7</course>
<desc>Speed 5.8 km/h Distance 1.73 km</desc>
<time>2010-02-25T16:36:36.75</time>
<name>1221</name>
</trkpt>
<trkpt lat="48.935337" lon="8.646427">
<ele>351.5</ele>
<speed>5.8</speed>
<course>270.0</course>
<desc>Speed 5.8 km/h Distance 1.73 km</desc>
<time>2010-02-25T16:36:37.75</time>
<name>1222</name>
</trkpt>
<trkpt lat="48.935337" lon="8.646405">
<ele>351.5</ele>
<speed>5.9</speed>
<course>263.8</course>
<desc>Speed 5.9 km/h Distance 1.73 km</desc>
<time>2010-02-25T16:36:38.76</time>
<name>1223</name>
</trkpt>
<trkpt lat="48.935335" lon="8.646382">
<ele>351.5</ele>
<speed>5.9</speed>
<course>263.8</course>
<desc>Speed 5.9 km/h Distance 1.73 km</desc>
<time>2010-02-25T16:36:39.75</time>
<name>1224</name>
</trkpt>
<trkpt lat="48.935333" lon="8.646358">
<ele>351.0</ele>
<speed>5.8</speed>
<course>263.3</course>
<desc>Speed 5.8 km/h Distance 1.73 km</desc>
<time>2010-02-25T16:36:40.75</time>
<name>1225</name>
</trkpt>
<trkpt lat="48.935332" lon="8.646337">
<ele>351.0</ele>
<speed>5.9</speed>
<course>270.0</course>
<desc>Speed 5.9 km/h Distance 1.73 km</desc>
<time>2010-02-25T16:36:41.75</time>
<name>1226</name>
</trkpt>
<trkpt lat="48.935332" lon="8.646313">
<ele>351.0</ele>
<speed>5.9</speed>
<course>270.0</course>
<desc>Speed 5.9 km/h Distance 1.74 km</desc>
<time>2010-02-25T16:36:42.75</time>
<name>1227</name>
</trkpt>
<trkpt lat="48.935332" lon="8.646292">
<ele>350.5</ele>
<speed>5.7</speed>
<course>276.2</course>
<desc>Speed 5.7 km/h Distance 1.74 km</desc>
<time>2010-02-25T16:36:43.75</time>
<name>1228</name>
</trkpt>
<trkpt lat="48.935333" lon="8.646268">
<ele>350.5</ele>
<speed>5.7</speed>
<course>270.0</course>
<desc>Speed 5.7 km/h Distance 1.74 km</desc>
<time>2010-02-25T16:36:44.75</time>
<name>1229</name>
</trkpt>
<trkpt lat="48.935333" lon="8.646245">
<ele>350.5</ele>
<speed>5.9</speed>
<course>276.7</course>
<desc>Speed 5.9 km/h Distance 1.74 km</desc>
<time>2010-02-25T16:36:45.75</time>
<name>1230</name>
</trkpt>
<trkpt lat="48.935335" lon="8.646223">
<ele>350.0</ele>
<speed>5.6</speed>
<course>284.3</course>
<desc>Speed 5.6 km/h Distance 1.74 km</desc>
<time>2010-02-25T16:36:46.75</time>
<name>1231</name>
</trkpt>
<trkpt lat="48.935338" lon="8.646203">
<ele>350.0</ele>
<speed>5.3</speed>
<course>283.2</course>
<desc>Speed 5.3 km/h Distance 1.74 km</desc>
<time>2010-02-25T16:36:47.74</time>
<name>1232</name>
</trkpt>
<trkpt lat="48.935342" lon="8.646182">
<ele>350.0</ele>
<speed>5.5</speed>
<course>276.7</course>
<desc>Speed 5.5 km/h Distance 1.75 km</desc>
<time>2010-02-25T16:36:48.75</time>
<name>1233</name>
</trkpt>
<trkpt lat="48.935343" lon="8.646160">
<ele>350.0</ele>
<speed>5.4</speed>
<course>277.2</course>
<desc>Speed 5.4 km/h Distance 1.75 km</desc>
<time>2010-02-25T16:36:49.75</time>
<name>1234</name>
</trkpt>
<trkpt lat="48.935345" lon="8.646140">
<ele>349.5</ele>
<speed>5.0</speed>
<course>276.2</course>
<desc>Speed 5.0 km/h Distance 1.75 km</desc>
<time>2010-02-25T16:36:50.74</time>
<name>1235</name>
</trkpt>
<trkpt lat="48.935347" lon="8.646117">
<ele>350.0</ele>
<speed>5.7</speed>
<course>276.7</course>
<desc>Speed 5.7 km/h Distance 1.75 km</desc>
<time>2010-02-25T16:36:51.74</time>
<name>1236</name>
</trkpt>
<trkpt lat="48.935348" lon="8.646095">
<ele>350.0</ele>
<speed>5.4</speed>
<course>270.0</course>
<desc>Speed 5.4 km/h Distance 1.75 km</desc>
<time>2010-02-25T16:36:52.74</time>
<name>1237</name>
</trkpt>
<trkpt lat="48.935348" lon="8.646075">
<ele>350.5</ele>
<speed>5.0</speed>
<course>277.2</course>
<desc>Speed 5.0 km/h Distance 1.75 km</desc>
<time>2010-02-25T16:36:53.74</time>
<name>1238</name>
</trkpt>
<trkpt lat="48.935350" lon="8.646055">
<ele>350.5</ele>
<speed>4.8</speed>
<course>276.7</course>
<desc>Speed 4.8 km/h Distance 1.76 km</desc>
<time>2010-02-25T16:36:54.74</time>
<name>1239</name>
</trkpt>
<trkpt lat="48.935352" lon="8.646033">
<ele>350.5</ele>
<speed>5.4</speed>
<course>270.0</course>
<desc>Speed 5.4 km/h Distance 1.76 km</desc>
<time>2010-02-25T16:36:55.74</time>
<name>1240</name>
</trkpt>
<trkpt lat="48.935352" lon="8.646010">
<ele>350.5</ele>
<speed>5.6</speed>
<course>270.0</course>
<desc>Speed 5.6 km/h Distance 1.76 km</desc>
<time>2010-02-25T16:36:56.76</time>
<name>1241</name>
</trkpt>
<trkpt lat="48.935352" lon="8.645987">
<ele>350.0</ele>
<speed>5.5</speed>
<course>263.3</course>
<desc>Speed 5.5 km/h Distance 1.76 km</desc>
<time>2010-02-25T16:36:57.74</time>
<name>1242</name>
</trkpt>
<trkpt lat="48.935350" lon="8.645965">
<ele>350.5</ele>
<speed>5.3</speed>
<course>263.3</course>
<desc>Speed 5.3 km/h Distance 1.76 km</desc>
<time>2010-02-25T16:36:58.74</time>
<name>1243</name>
</trkpt>
<trkpt lat="48.935348" lon="8.645943">
<ele>350.5</ele>
<speed>5.4</speed>
<course>263.3</course>
<desc>Speed 5.4 km/h Distance 1.76 km</desc>
<time>2010-02-25T16:36:59.74</time>
<name>1244</name>
</trkpt>
<trkpt lat="48.935347" lon="8.645922">
<ele>351.0</ele>
<speed>5.3</speed>
<course>256.8</course>
<desc>Speed 5.3 km/h Distance 1.77 km</desc>
<time>2010-02-25T16:37:00.74</time>
<name>1245</name>
</trkpt>
<trkpt lat="48.935343" lon="8.645900">
<ele>351.0</ele>
<speed>5.3</speed>
<course>255.8</course>
<desc>Speed 5.3 km/h Distance 1.77 km</desc>
<time>2010-02-25T16:37:01.74</time>
<name>1246</name>
</trkpt>
<trkpt lat="48.935340" lon="8.645880">
<ele>351.5</ele>
<speed>5.3</speed>
<course>257.7</course>
<desc>Speed 5.3 km/h Distance 1.77 km</desc>
<time>2010-02-25T16:37:02.74</time>
<name>1247</name>
</trkpt>
<trkpt lat="48.935337" lon="8.645857">
<ele>351.5</ele>
<speed>5.5</speed>
<course>256.8</course>
<desc>Speed 5.5 km/h Distance 1.77 km</desc>
<time>2010-02-25T16:37:03.74</time>
<name>1248</name>
</trkpt>
<trkpt lat="48.935333" lon="8.645835">
<ele>352.0</ele>
<speed>5.6</speed>
<course>250.6</course>
<desc>Speed 5.6 km/h Distance 1.77 km</desc>
<time>2010-02-25T16:37:04.74</time>
<name>1249</name>
</trkpt>
<trkpt lat="48.935328" lon="8.645813">
<ele>352.0</ele>
<speed>5.3</speed>
<course>250.6</course>
<desc>Speed 5.3 km/h Distance 1.77 km</desc>
<time>2010-02-25T16:37:05.74</time>
<name>1250</name>
</trkpt>
<trkpt lat="48.935323" lon="8.645792">
<ele>352.5</ele>
<speed>5.5</speed>
<course>243.2</course>
<desc>Speed 5.5 km/h Distance 1.77 km</desc>
<time>2010-02-25T16:37:06.74</time>
<name>1251</name>
</trkpt>
<trkpt lat="48.935317" lon="8.645772">
<ele>353.0</ele>
<speed>5.4</speed>
<course>244.9</course>
<desc>Speed 5.4 km/h Distance 1.78 km</desc>
<time>2010-02-25T16:37:07.74</time>
<name>1252</name>
</trkpt>
<trkpt lat="48.935310" lon="8.645750">
<ele>353.0</ele>
<speed>5.6</speed>
<course>243.1</course>
<desc>Speed 5.6 km/h Distance 1.78 km</desc>
<time>2010-02-25T16:37:08.74</time>
<name>1253</name>
</trkpt>
<trkpt lat="48.935303" lon="8.645730">
<ele>353.0</ele>
<speed>5.5</speed>
<course>243.1</course>
<desc>Speed 5.5 km/h Distance 1.78 km</desc>
<time>2010-02-25T16:37:09.74</time>
<name>1254</name>
</trkpt>
<trkpt lat="48.935297" lon="8.645710">
<ele>353.0</ele>
<speed>5.7</speed>
<course>235.3</course>
<desc>Speed 5.7 km/h Distance 1.78 km</desc>
<time>2010-02-25T16:37:10.75</time>
<name>1255</name>
</trkpt>
<trkpt lat="48.935288" lon="8.645692">
<ele>353.5</ele>
<speed>5.4</speed>
<course>240.9</course>
<desc>Speed 5.4 km/h Distance 1.78 km</desc>
<time>2010-02-25T16:37:11.74</time>
<name>1256</name>
</trkpt>
<trkpt lat="48.935282" lon="8.645673">
<ele>354.0</ele>
<speed>5.2</speed>
<course>235.3</course>
<desc>Speed 5.2 km/h Distance 1.78 km</desc>
<time>2010-02-25T16:37:12.74</time>
<name>1257</name>
</trkpt>
<trkpt lat="48.935273" lon="8.645655">
<ele>354.0</ele>
<speed>5.3</speed>
<course>224.6</course>
<desc>Speed 5.3 km/h Distance 1.79 km</desc>
<time>2010-02-25T16:37:13.73</time>
<name>1258</name>
</trkpt>
<trkpt lat="48.935263" lon="8.645640">
<ele>354.5</ele>
<speed>5.5</speed>
<course>235.3</course>
<desc>Speed 5.5 km/h Distance 1.79 km</desc>
<time>2010-02-25T16:37:14.74</time>
<name>1259</name>
</trkpt>
<trkpt lat="48.935255" lon="8.645622">
<ele>354.5</ele>
<speed>5.5</speed>
<course>227.6</course>
<desc>Speed 5.5 km/h Distance 1.79 km</desc>
<time>2010-02-25T16:37:15.73</time>
<name>1260</name>
</trkpt>
<trkpt lat="48.935245" lon="8.645605">
<ele>355.0</ele>
<speed>5.5</speed>
<course>227.6</course>
<desc>Speed 5.5 km/h Distance 1.79 km</desc>
<time>2010-02-25T16:37:16.73</time>
<name>1261</name>
</trkpt>
<trkpt lat="48.935235" lon="8.645588">
<ele>355.0</ele>
<speed>5.4</speed>
<course>229.7</course>
<desc>Speed 5.4 km/h Distance 1.79 km</desc>
<time>2010-02-25T16:37:17.73</time>
<name>1262</name>
</trkpt>
<trkpt lat="48.935227" lon="8.645573">
<ele>355.0</ele>
<speed>5.2</speed>
<course>224.5</course>
<desc>Speed 5.2 km/h Distance 1.79 km</desc>
<time>2010-02-25T16:37:18.73</time>
<name>1263</name>
</trkpt>
<trkpt lat="48.935217" lon="8.645558">
<ele>355.5</ele>
<speed>5.1</speed>
<course>216.9</course>
<desc>Speed 5.1 km/h Distance 1.80 km</desc>
<time>2010-02-25T16:37:19.73</time>
<name>1264</name>
</trkpt>
<trkpt lat="48.935205" lon="8.645545">
<ele>356.0</ele>
<speed>5.1</speed>
<course>229.7</course>
<desc>Speed 5.1 km/h Distance 1.80 km</desc>
<time>2010-02-25T16:37:20.73</time>
<name>1265</name>
</trkpt>
<trkpt lat="48.935197" lon="8.645530">
<ele>356.0</ele>
<speed>5.2</speed>
<course>221.4</course>
<desc>Speed 5.2 km/h Distance 1.80 km</desc>
<time>2010-02-25T16:37:21.73</time>
<name>1266</name>
</trkpt>
<trkpt lat="48.935187" lon="8.645517">
<ele>356.0</ele>
<speed>5.0</speed>
<course>226.5</course>
<desc>Speed 5.0 km/h Distance 1.80 km</desc>
<time>2010-02-25T16:37:22.73</time>
<name>1267</name>
</trkpt>
<trkpt lat="48.935178" lon="8.645503">
<ele>356.0</ele>
<speed>4.9</speed>
<course>229.8</course>
<desc>Speed 4.9 km/h Distance 1.80 km</desc>
<time>2010-02-25T16:37:23.73</time>
<name>1268</name>
</trkpt>
<trkpt lat="48.935170" lon="8.645488">
<ele>356.0</ele>
<speed>5.0</speed>
<course>224.6</course>
<desc>Speed 5.0 km/h Distance 1.80 km</desc>
<time>2010-02-25T16:37:24.73</time>
<name>1269</name>
</trkpt>
<trkpt lat="48.935160" lon="8.645473">
<ele>356.0</ele>
<speed>5.0</speed>
<course>221.3</course>
<desc>Speed 5.0 km/h Distance 1.80 km</desc>
<time>2010-02-25T16:37:25.73</time>
<name>1270</name>
</trkpt>
<trkpt lat="48.935150" lon="8.645460">
<ele>356.5</ele>
<speed>5.1</speed>
<course>221.2</course>
<desc>Speed 5.1 km/h Distance 1.81 km</desc>
<time>2010-02-25T16:37:26.73</time>
<name>1271</name>
</trkpt>
<trkpt lat="48.935140" lon="8.645447">
<ele>356.5</ele>
<speed>5.1</speed>
<course>217.3</course>
<desc>Speed 5.1 km/h Distance 1.81 km</desc>
<time>2010-02-25T16:37:27.73</time>
<name>1272</name>
</trkpt>
<trkpt lat="48.935130" lon="8.645435">
<ele>356.5</ele>
<speed>5.1</speed>
<course>221.2</course>
<desc>Speed 5.1 km/h Distance 1.81 km</desc>
<time>2010-02-25T16:37:28.73</time>
<name>1273</name>
</trkpt>
<trkpt lat="48.935120" lon="8.645422">
<ele>356.5</ele>
<speed>5.1</speed>
<course>221.2</course>
<desc>Speed 5.1 km/h Distance 1.81 km</desc>
<time>2010-02-25T16:37:29.73</time>
<name>1274</name>
</trkpt>
<trkpt lat="48.935110" lon="8.645408">
<ele>357.0</ele>
<speed>5.1</speed>
<course>221.3</course>
<desc>Speed 5.1 km/h Distance 1.81 km</desc>
<time>2010-02-25T16:37:30.73</time>
<name>1275</name>
</trkpt>
<trkpt lat="48.935100" lon="8.645395">
<ele>357.0</ele>
<speed>5.1</speed>
<course>224.5</course>
<desc>Speed 5.1 km/h Distance 1.81 km</desc>
<time>2010-02-25T16:37:31.73</time>
<name>1276</name>
</trkpt>
<trkpt lat="48.935090" lon="8.645380">
<ele>357.5</ele>
<speed>5.3</speed>
<course>224.5</course>
<desc>Speed 5.3 km/h Distance 1.82 km</desc>
<time>2010-02-25T16:37:32.73</time>
<name>1277</name>
</trkpt>
<trkpt lat="48.935080" lon="8.645365">
<ele>358.0</ele>
<speed>5.3</speed>
<course>221.2</course>
<desc>Speed 5.3 km/h Distance 1.82 km</desc>
<time>2010-02-25T16:37:33.73</time>
<name>1278</name>
</trkpt>
<trkpt lat="48.935070" lon="8.645352">
<ele>358.0</ele>
<speed>5.2</speed>
<course>226.4</course>
<desc>Speed 5.2 km/h Distance 1.82 km</desc>
<time>2010-02-25T16:37:34.73</time>
<name>1279</name>
</trkpt>
<trkpt lat="48.935062" lon="8.645338">
<ele>358.5</ele>
<speed>5.0</speed>
<course>229.7</course>
<desc>Speed 5.0 km/h Distance 1.82 km</desc>
<time>2010-02-25T16:37:35.73</time>
<name>1280</name>
</trkpt>
<trkpt lat="48.935053" lon="8.645323">
<ele>358.5</ele>
<speed>5.0</speed>
<course>221.2</course>
<desc>Speed 5.0 km/h Distance 1.82 km</desc>
<time>2010-02-25T16:37:36.72</time>
<name>1281</name>
</trkpt>
<trkpt lat="48.935043" lon="8.645310">
<ele>358.5</ele>
<speed>5.1</speed>
<course>224.5</course>
<desc>Speed 5.1 km/h Distance 1.82 km</desc>
<time>2010-02-25T16:37:37.73</time>
<name>1282</name>
</trkpt>
<trkpt lat="48.935033" lon="8.645295">
<ele>359.0</ele>
<speed>5.1</speed>
<course>221.3</course>
<desc>Speed 5.1 km/h Distance 1.82 km</desc>
<time>2010-02-25T16:37:38.72</time>
<name>1283</name>
</trkpt>
<trkpt lat="48.935023" lon="8.645282">
<ele>359.0</ele>
<speed>5.5</speed>
<course>221.2</course>
<desc>Speed 5.5 km/h Distance 1.83 km</desc>
<time>2010-02-25T16:37:39.72</time>
<name>1284</name>
</trkpt>
<trkpt lat="48.935013" lon="8.645268">
<ele>359.5</ele>
<speed>5.3</speed>
<course>216.9</course>
<desc>Speed 5.3 km/h Distance 1.83 km</desc>
<time>2010-02-25T16:37:40.72</time>
<name>1285</name>
</trkpt>
<trkpt lat="48.935002" lon="8.645255">
<ele>359.5</ele>
<speed>5.3</speed>
<course>221.3</course>
<desc>Speed 5.3 km/h Distance 1.83 km</desc>
<time>2010-02-25T16:37:41.72</time>
<name>1286</name>
</trkpt>
<trkpt lat="48.934992" lon="8.645242">
<ele>359.5</ele>
<speed>5.3</speed>
<course>216.9</course>
<desc>Speed 5.3 km/h Distance 1.83 km</desc>
<time>2010-02-25T16:37:42.72</time>
<name>1287</name>
</trkpt>
<trkpt lat="48.934980" lon="8.645228">
<ele>359.5</ele>
<speed>5.4</speed>
<course>220.2</course>
<desc>Speed 5.4 km/h Distance 1.83 km</desc>
<time>2010-02-25T16:37:43.72</time>
<name>1288</name>
</trkpt>
<trkpt lat="48.934968" lon="8.645213">
<ele>359.5</ele>
<speed>5.5</speed>
<course>221.3</course>
<desc>Speed 5.5 km/h Distance 1.83 km</desc>
<time>2010-02-25T16:37:44.72</time>
<name>1289</name>
</trkpt>
<trkpt lat="48.934958" lon="8.645200">
<ele>359.5</ele>
<speed>5.5</speed>
<course>216.9</course>
<desc>Speed 5.5 km/h Distance 1.83 km</desc>
<time>2010-02-25T16:37:45.72</time>
<name>1290</name>
</trkpt>
<trkpt lat="48.934947" lon="8.645187">
<ele>359.5</ele>
<speed>5.7</speed>
<course>227.5</course>
<desc>Speed 5.7 km/h Distance 1.84 km</desc>
<time>2010-02-25T16:37:46.72</time>
<name>1291</name>
</trkpt>
<trkpt lat="48.934937" lon="8.645170">
<ele>360.0</ele>
<speed>5.8</speed>
<course>223.1</course>
<desc>Speed 5.8 km/h Distance 1.84 km</desc>
<time>2010-02-25T16:37:47.72</time>
<name>1292</name>
</trkpt>
<trkpt lat="48.934925" lon="8.645153">
<ele>360.0</ele>
<speed>5.8</speed>
<course>227.4</course>
<desc>Speed 5.8 km/h Distance 1.84 km</desc>
<time>2010-02-25T16:37:48.72</time>
<name>1293</name>
</trkpt>
<trkpt lat="48.934915" lon="8.645137">
<ele>360.0</ele>
<speed>5.8</speed>
<course>220.2</course>
<desc>Speed 5.8 km/h Distance 1.84 km</desc>
<time>2010-02-25T16:37:49.72</time>
<name>1294</name>
</trkpt>
<trkpt lat="48.934903" lon="8.645122">
<ele>360.0</ele>
<speed>5.7</speed>
<course>216.9</course>
<desc>Speed 5.7 km/h Distance 1.84 km</desc>
<time>2010-02-25T16:37:50.72</time>
<name>1295</name>
</trkpt>
<trkpt lat="48.934892" lon="8.645108">
<ele>360.0</ele>
<speed>5.8</speed>
<course>220.2</course>
<desc>Speed 5.8 km/h Distance 1.84 km</desc>
<time>2010-02-25T16:37:51.72</time>
<name>1296</name>
</trkpt>
<trkpt lat="48.934880" lon="8.645093">
<ele>360.0</ele>
<speed>5.8</speed>
<course>216.9</course>
<desc>Speed 5.8 km/h Distance 1.85 km</desc>
<time>2010-02-25T16:37:52.72</time>
<name>1297</name>
</trkpt>
<trkpt lat="48.934868" lon="8.645080">
<ele>360.0</ele>
<speed>5.8</speed>
<course>216.6</course>
<desc>Speed 5.8 km/h Distance 1.85 km</desc>
<time>2010-02-25T16:37:53.72</time>
<name>1298</name>
</trkpt>
<trkpt lat="48.934855" lon="8.645065">
<ele>360.0</ele>
<speed>5.7</speed>
<course>216.9</course>
<desc>Speed 5.7 km/h Distance 1.85 km</desc>
<time>2010-02-25T16:37:54.72</time>
<name>1299</name>
</trkpt>
<trkpt lat="48.934843" lon="8.645052">
<ele>360.5</ele>
<speed>5.8</speed>
<course>216.9</course>
<desc>Speed 5.8 km/h Distance 1.85 km</desc>
<time>2010-02-25T16:37:55.72</time>
<name>1300</name>
</trkpt>
<trkpt lat="48.934832" lon="8.645038">
<ele>360.5</ele>
<speed>6.0</speed>
<course>220.2</course>
<desc>Speed 6.0 km/h Distance 1.85 km</desc>
<time>2010-02-25T16:37:56.71</time>
<name>1301</name>
</trkpt>
<trkpt lat="48.934820" lon="8.645023">
<ele>360.5</ele>
<speed>5.9</speed>
<course>220.2</course>
<desc>Speed 5.9 km/h Distance 1.86 km</desc>
<time>2010-02-25T16:37:57.71</time>
<name>1302</name>
</trkpt>
<trkpt lat="48.934808" lon="8.645008">
<ele>360.5</ele>
<speed>5.8</speed>
<course>254.5</course>
<desc>Speed 5.8 km/h Distance 1.86 km</desc>
<time>2010-02-25T16:37:58.71</time>
<name>1303</name>
</trkpt>
<trkpt lat="48.934805" lon="8.644990">
<ele>360.0</ele>
<speed>4.4</speed>
<course>277.9</course>
<desc>Speed 4.4 km/h Distance 1.86 km</desc>
<time>2010-02-25T16:37:59.71</time>
<name>1304</name>
</trkpt>
<trkpt lat="48.934807" lon="8.644972">
<ele>360.5</ele>
<speed>4.6</speed>
<course>249.1</course>
<desc>Speed 4.6 km/h Distance 1.86 km</desc>
<time>2010-02-25T16:38:00.71</time>
<name>1305</name>
</trkpt>
<trkpt lat="48.934803" lon="8.644958">
<ele>360.5</ele>
<speed>3.6</speed>
<course>328.4</course>
<desc>Speed 3.6 km/h Distance 1.86 km</desc>
<time>2010-02-25T16:38:01.71</time>
<name>1306</name>
</trkpt>
<trkpt lat="48.934807" lon="8.644955">
<ele>360.5</ele>
<speed>1.0</speed>
<course>270.0</course>
<desc>Speed 1.0 km/h Distance 1.86 km</desc>
<time>2010-02-25T16:38:02.71</time>
<name>1307</name>
</trkpt>
<trkpt lat="48.934807" lon="8.644953">
<ele>360.5</ele>
<speed>0.3</speed>
<course>150.8</course>
<desc>Speed 0.3 km/h Distance 1.86 km</desc>
<time>2010-02-25T16:38:03.71</time>
<name>1308</name>
</trkpt>
<trkpt lat="48.934805" lon="8.644955">
<ele>360.5</ele>
<speed>1.0</speed>
<course>128.1</course>
<desc>Speed 1.0 km/h Distance 1.86 km</desc>
<time>2010-02-25T16:38:04.71</time>
<name>1309</name>
</trkpt>
<trkpt lat="48.934803" lon="8.644958">
<ele>360.5</ele>
<speed>1.2</speed>
<course>175.0</course>
<desc>Speed 1.2 km/h Distance 1.86 km</desc>
<time>2010-02-25T16:38:05.72</time>
<name>1310</name>
</trkpt>
<trkpt lat="48.934795" lon="8.644958">
<ele>360.5</ele>
<speed>3.2</speed>
<course>185.0</course>
<desc>Speed 3.2 km/h Distance 1.86 km</desc>
<time>2010-02-25T16:38:06.72</time>
<name>1311</name>
</trkpt>
<trkpt lat="48.934780" lon="8.644957">
<ele>360.0</ele>
<speed>5.7</speed>
<course>196.6</course>
<desc>Speed 5.7 km/h Distance 1.86 km</desc>
<time>2010-02-25T16:38:07.71</time>
<name>1312</name>
</trkpt>
<trkpt lat="48.934765" lon="8.644950">
<ele>360.0</ele>
<speed>5.9</speed>
<course>196.6</course>
<desc>Speed 5.9 km/h Distance 1.87 km</desc>
<time>2010-02-25T16:38:08.72</time>
<name>1313</name>
</trkpt>
<trkpt lat="48.934750" lon="8.644943">
<ele>359.5</ele>
<speed>5.7</speed>
<course>190.4</course>
<desc>Speed 5.7 km/h Distance 1.87 km</desc>
<time>2010-02-25T16:38:09.71</time>
<name>1314</name>
</trkpt>
<trkpt lat="48.934738" lon="8.644940">
<ele>359.5</ele>
<speed>4.9</speed>
<course>175.3</course>
<desc>Speed 4.9 km/h Distance 1.87 km</desc>
<time>2010-02-25T16:38:10.72</time>
<name>1315</name>
</trkpt>
<trkpt lat="48.934727" lon="8.644942">
<ele>359.5</ele>
<speed>4.5</speed>
<course>165.6</course>
<desc>Speed 4.5 km/h Distance 1.87 km</desc>
<time>2010-02-25T16:38:11.71</time>
<name>1316</name>
</trkpt>
<trkpt lat="48.934713" lon="8.644947">
<ele>359.5</ele>
<speed>5.1</speed>
<course>168.8</course>
<desc>Speed 5.1 km/h Distance 1.87 km</desc>
<time>2010-02-25T16:38:12.71</time>
<name>1317</name>
</trkpt>
<trkpt lat="48.934702" lon="8.644950">
<ele>359.5</ele>
<speed>4.7</speed>
<course>159.9</course>
<desc>Speed 4.7 km/h Distance 1.87 km</desc>
<time>2010-02-25T16:38:13.71</time>
<name>1318</name>
</trkpt>
<trkpt lat="48.934687" lon="8.644958">
<ele>359.5</ele>
<speed>6.5</speed>
<course>161.9</course>
<desc>Speed 6.5 km/h Distance 1.87 km</desc>
<time>2010-02-25T16:38:14.71</time>
<name>1319</name>
</trkpt>
<trkpt lat="48.934673" lon="8.644965">
<ele>359.5</ele>
<speed>5.4</speed>
<course>154.8</course>
<desc>Speed 5.4 km/h Distance 1.88 km</desc>
<time>2010-02-25T16:38:15.71</time>
<name>1320</name>
</trkpt>
<trkpt lat="48.934662" lon="8.644973">
<ele>359.0</ele>
<speed>5.5</speed>
<course>161.9</course>
<desc>Speed 5.5 km/h Distance 1.88 km</desc>
<time>2010-02-25T16:38:16.70</time>
<name>1321</name>
</trkpt>
<trkpt lat="48.934648" lon="8.644980">
<ele>359.0</ele>
<speed>5.4</speed>
<course>151.4</course>
<desc>Speed 5.4 km/h Distance 1.88 km</desc>
<time>2010-02-25T16:38:17.70</time>
<name>1322</name>
</trkpt>
<trkpt lat="48.934638" lon="8.644988">
<ele>359.0</ele>
<speed>5.2</speed>
<course>157.7</course>
<desc>Speed 5.2 km/h Distance 1.88 km</desc>
<time>2010-02-25T16:38:18.70</time>
<name>1323</name>
</trkpt>
<trkpt lat="48.934625" lon="8.644997">
<ele>359.0</ele>
<speed>5.6</speed>
<course>161.9</course>
<desc>Speed 5.6 km/h Distance 1.88 km</desc>
<time>2010-02-25T16:38:19.70</time>
<name>1324</name>
</trkpt>
<trkpt lat="48.934612" lon="8.645003">
<ele>358.5</ele>
<speed>5.3</speed>
<course>159.8</course>
<desc>Speed 5.3 km/h Distance 1.88 km</desc>
<time>2010-02-25T16:38:20.70</time>
<name>1325</name>
</trkpt>
<trkpt lat="48.934600" lon="8.645010">
<ele>358.5</ele>
<speed>5.4</speed>
<course>157.7</course>
<desc>Speed 5.4 km/h Distance 1.89 km</desc>
<time>2010-02-25T16:38:21.70</time>
<name>1326</name>
</trkpt>
<trkpt lat="48.934587" lon="8.645018">
<ele>358.5</ele>
<speed>5.3</speed>
<course>150.6</course>
<desc>Speed 5.3 km/h Distance 1.89 km</desc>
<time>2010-02-25T16:38:22.70</time>
<name>1327</name>
</trkpt>
<trkpt lat="48.934575" lon="8.645028">
<ele>358.5</ele>
<speed>5.5</speed>
<course>150.6</course>
<desc>Speed 5.5 km/h Distance 1.89 km</desc>
<time>2010-02-25T16:38:23.70</time>
<name>1328</name>
</trkpt>
<trkpt lat="48.934563" lon="8.645038">
<ele>358.5</ele>
<speed>5.6</speed>
<course>146.8</course>
<desc>Speed 5.6 km/h Distance 1.89 km</desc>
<time>2010-02-25T16:38:24.70</time>
<name>1329</name>
</trkpt>
<trkpt lat="48.934553" lon="8.645048">
<ele>358.0</ele>
<speed>5.1</speed>
<course>146.9</course>
<desc>Speed 5.1 km/h Distance 1.89 km</desc>
<time>2010-02-25T16:38:25.70</time>
<name>1330</name>
</trkpt>
<trkpt lat="48.934542" lon="8.645060">
<ele>358.0</ele>
<speed>5.4</speed>
<course>146.6</course>
<desc>Speed 5.4 km/h Distance 1.89 km</desc>
<time>2010-02-25T16:38:26.70</time>
<name>1331</name>
</trkpt>
<trkpt lat="48.934530" lon="8.645072">
<ele>358.0</ele>
<speed>5.5</speed>
<course>157.7</course>
<desc>Speed 5.5 km/h Distance 1.89 km</desc>
<time>2010-02-25T16:38:27.70</time>
<name>1332</name>
</trkpt>
<trkpt lat="48.934517" lon="8.645080">
<ele>358.0</ele>
<speed>5.3</speed>
<course>151.0</course>
<desc>Speed 5.3 km/h Distance 1.90 km</desc>
<time>2010-02-25T16:38:28.71</time>
<name>1333</name>
</trkpt>
<trkpt lat="48.934505" lon="8.645090">
<ele>358.0</ele>
<speed>5.2</speed>
<course>150.6</course>
<desc>Speed 5.2 km/h Distance 1.90 km</desc>
<time>2010-02-25T16:38:29.70</time>
<name>1334</name>
</trkpt>
<trkpt lat="48.934493" lon="8.645100">
<ele>358.0</ele>
<speed>5.7</speed>
<course>161.9</course>
<desc>Speed 5.7 km/h Distance 1.90 km</desc>
<time>2010-02-25T16:38:30.70</time>
<name>1335</name>
</trkpt>
<trkpt lat="48.934480" lon="8.645107">
<ele>358.0</ele>
<speed>5.4</speed>
<course>161.9</course>
<desc>Speed 5.4 km/h Distance 1.90 km</desc>
<time>2010-02-25T16:38:31.70</time>
<name>1336</name>
</trkpt>
<trkpt lat="48.934467" lon="8.645113">
<ele>358.0</ele>
<speed>5.4</speed>
<course>154.8</course>
<desc>Speed 5.4 km/h Distance 1.90 km</desc>
<time>2010-02-25T16:38:32.70</time>
<name>1337</name>
</trkpt>
<trkpt lat="48.934455" lon="8.645122">
<ele>358.0</ele>
<speed>5.4</speed>
<course>157.4</course>
<desc>Speed 5.4 km/h Distance 1.90 km</desc>
<time>2010-02-25T16:38:33.70</time>
<name>1338</name>
</trkpt>
<trkpt lat="48.934442" lon="8.645130">
<ele>358.0</ele>
<speed>5.5</speed>
<course>163.4</course>
<desc>Speed 5.5 km/h Distance 1.91 km</desc>
<time>2010-02-25T16:38:34.70</time>
<name>1339</name>
</trkpt>
<trkpt lat="48.934427" lon="8.645137">
<ele>357.5</ele>
<speed>5.8</speed>
<course>154.8</course>
<desc>Speed 5.8 km/h Distance 1.91 km</desc>
<time>2010-02-25T16:38:35.70</time>
<name>1340</name>
</trkpt>
<trkpt lat="48.934415" lon="8.645145">
<ele>357.5</ele>
<speed>4.8</speed>
<course>150.6</course>
<desc>Speed 4.8 km/h Distance 1.91 km</desc>
<time>2010-02-25T16:38:36.69</time>
<name>1341</name>
</trkpt>
<trkpt lat="48.934403" lon="8.645155">
<ele>357.5</ele>
<speed>5.3</speed>
<course>143.1</course>
<desc>Speed 5.3 km/h Distance 1.91 km</desc>
<time>2010-02-25T16:38:37.69</time>
<name>1342</name>
</trkpt>
<trkpt lat="48.934392" lon="8.645168">
<ele>357.5</ele>
<speed>5.1</speed>
<course>146.8</course>
<desc>Speed 5.1 km/h Distance 1.91 km</desc>
<time>2010-02-25T16:38:38.69</time>
<name>1343</name>
</trkpt>
<trkpt lat="48.934382" lon="8.645178">
<ele>357.5</ele>
<speed>4.7</speed>
<course>131.1</course>
<desc>Speed 4.7 km/h Distance 1.91 km</desc>
<time>2010-02-25T16:38:39.69</time>
<name>1344</name>
</trkpt>
<trkpt lat="48.934375" lon="8.645190">
<ele>357.5</ele>
<speed>3.7</speed>
<course>140.6</course>
<desc>Speed 3.7 km/h Distance 1.91 km</desc>
<time>2010-02-25T16:38:40.69</time>
<name>1345</name>
</trkpt>
<trkpt lat="48.934368" lon="8.645198">
<ele>357.5</ele>
<speed>3.6</speed>
<course>102.3</course>
<desc>Speed 3.6 km/h Distance 1.91 km</desc>
<time>2010-02-25T16:38:41.69</time>
<name>1346</name>
</trkpt>
<trkpt lat="48.934367" lon="8.645210">
<ele>357.0</ele>
<speed>3.1</speed>
<course>114.5</course>
<desc>Speed 3.1 km/h Distance 1.92 km</desc>
<time>2010-02-25T16:38:42.69</time>
<name>1347</name>
</trkpt>
<trkpt lat="48.934362" lon="8.645227">
<ele>357.0</ele>
<speed>4.4</speed>
<course>116.9</course>
<desc>Speed 4.4 km/h Distance 1.92 km</desc>
<time>2010-02-25T16:38:43.69</time>
<name>1348</name>
</trkpt>
<trkpt lat="48.934357" lon="8.645242">
<ele>357.0</ele>
<speed>4.6</speed>
<course>116.9</course>
<desc>Speed 4.6 km/h Distance 1.92 km</desc>
<time>2010-02-25T16:38:44.69</time>
<name>1349</name>
</trkpt>
<trkpt lat="48.934352" lon="8.645257">
<ele>357.0</ele>
<speed>4.2</speed>
<course>127.2</course>
<desc>Speed 4.2 km/h Distance 1.92 km</desc>
<time>2010-02-25T16:38:45.69</time>
<name>1350</name>
</trkpt>
<trkpt lat="48.934347" lon="8.645267">
<ele>357.0</ele>
<speed>3.9</speed>
<course>135.5</course>
<desc>Speed 3.9 km/h Distance 1.92 km</desc>
<time>2010-02-25T16:38:46.69</time>
<name>1351</name>
</trkpt>
<trkpt lat="48.934340" lon="8.645277">
<ele>356.5</ele>
<speed>3.6</speed>
<course>141.9</course>
<desc>Speed 3.6 km/h Distance 1.92 km</desc>
<time>2010-02-25T16:38:47.69</time>
<name>1352</name>
</trkpt>
<trkpt lat="48.934332" lon="8.645287">
<ele>356.5</ele>
<speed>4.2</speed>
<course>150.8</course>
<desc>Speed 4.2 km/h Distance 1.92 km</desc>
<time>2010-02-25T16:38:48.69</time>
<name>1353</name>
</trkpt>
<trkpt lat="48.934320" lon="8.645297">
<ele>356.5</ele>
<speed>4.9</speed>
<course>138.8</course>
<desc>Speed 4.9 km/h Distance 1.92 km</desc>
<time>2010-02-25T16:38:49.69</time>
<name>1354</name>
</trkpt>
<trkpt lat="48.934310" lon="8.645310">
<ele>356.5</ele>
<speed>5.3</speed>
<course>146.6</course>
<desc>Speed 5.3 km/h Distance 1.93 km</desc>
<time>2010-02-25T16:38:50.69</time>
<name>1355</name>
</trkpt>
<trkpt lat="48.934298" lon="8.645322">
<ele>356.5</ele>
<speed>5.2</speed>
<course>137.4</course>
<desc>Speed 5.2 km/h Distance 1.93 km</desc>
<time>2010-02-25T16:38:51.69</time>
<name>1356</name>
</trkpt>
<trkpt lat="48.934290" lon="8.645333">
<ele>357.0</ele>
<speed>4.7</speed>
<course>142.5</course>
<desc>Speed 4.7 km/h Distance 1.93 km</desc>
<time>2010-02-25T16:38:52.69</time>
<name>1357</name>
</trkpt>
<trkpt lat="48.934280" lon="8.645345">
<ele>357.0</ele>
<speed>5.1</speed>
<course>142.5</course>
<desc>Speed 5.1 km/h Distance 1.93 km</desc>
<time>2010-02-25T16:38:53.69</time>
<name>1358</name>
</trkpt>
<trkpt lat="48.934270" lon="8.645357">
<ele>357.0</ele>
<speed>5.2</speed>
<course>127.3</course>
<desc>Speed 5.2 km/h Distance 1.93 km</desc>
<time>2010-02-25T16:38:54.70</time>
<name>1359</name>
</trkpt>
<trkpt lat="48.934262" lon="8.645373">
<ele>357.0</ele>
<speed>5.0</speed>
<course>114.5</course>
<desc>Speed 5.0 km/h Distance 1.93 km</desc>
<time>2010-02-25T16:38:55.70</time>
<name>1360</name>
</trkpt>
<trkpt lat="48.934257" lon="8.645390">
<ele>357.0</ele>
<speed>5.0</speed>
<course>110.8</course>
<desc>Speed 5.0 km/h Distance 1.93 km</desc>
<time>2010-02-25T16:38:56.69</time>
<name>1361</name>
</trkpt>
<trkpt lat="48.934252" lon="8.645410">
<ele>357.5</ele>
<speed>5.0</speed>
<course>119.0</course>
<desc>Speed 5.0 km/h Distance 1.94 km</desc>
<time>2010-02-25T16:38:57.68</time>
<name>1362</name>
</trkpt>
<trkpt lat="48.934245" lon="8.645428">
<ele>357.5</ele>
<speed>5.1</speed>
<course>119.0</course>
<desc>Speed 5.1 km/h Distance 1.94 km</desc>
<time>2010-02-25T16:38:58.68</time>
<name>1363</name>
</trkpt>
<trkpt lat="48.934238" lon="8.645447">
<ele>358.0</ele>
<speed>5.2</speed>
<course>110.8</course>
<desc>Speed 5.2 km/h Distance 1.94 km</desc>
<time>2010-02-25T16:38:59.69</time>
<name>1364</name>
</trkpt>
<trkpt lat="48.934233" lon="8.645467">
<ele>358.0</ele>
<speed>5.0</speed>
<course>110.8</course>
<desc>Speed 5.0 km/h Distance 1.94 km</desc>
<time>2010-02-25T16:39:00.69</time>
<name>1365</name>
</trkpt>
<trkpt lat="48.934228" lon="8.645487">
<ele>358.5</ele>
<speed>5.0</speed>
<course>109.3</course>
<desc>Speed 5.0 km/h Distance 1.94 km</desc>
<time>2010-02-25T16:39:01.68</time>
<name>1366</name>
</trkpt>
<trkpt lat="48.934223" lon="8.645508">
<ele>358.5</ele>
<speed>5.2</speed>
<course>116.9</course>
<desc>Speed 5.2 km/h Distance 1.94 km</desc>
<time>2010-02-25T16:39:02.68</time>
<name>1367</name>
</trkpt>
<trkpt lat="48.934217" lon="8.645528">
<ele>358.5</ele>
<speed>5.1</speed>
<course>110.8</course>
<desc>Speed 5.1 km/h Distance 1.95 km</desc>
<time>2010-02-25T16:39:03.68</time>
<name>1368</name>
</trkpt>
<trkpt lat="48.934212" lon="8.645548">
<ele>359.0</ele>
<speed>5.1</speed>
<course>119.0</course>
<desc>Speed 5.1 km/h Distance 1.95 km</desc>
<time>2010-02-25T16:39:04.67</time>
<name>1369</name>
</trkpt>
<trkpt lat="48.934205" lon="8.645567">
<ele>359.0</ele>
<speed>5.0</speed>
<course>112.5</course>
<desc>Speed 5.0 km/h Distance 1.95 km</desc>
<time>2010-02-25T16:39:05.68</time>
<name>1370</name>
</trkpt>
<trkpt lat="48.934200" lon="8.645585">
<ele>359.5</ele>
<speed>5.0</speed>
<course>112.6</course>
<desc>Speed 5.0 km/h Distance 1.95 km</desc>
<time>2010-02-25T16:39:06.67</time>
<name>1371</name>
</trkpt>
<trkpt lat="48.934195" lon="8.645603">
<ele>359.5</ele>
<speed>5.2</speed>
<course>105.5</course>
<desc>Speed 5.2 km/h Distance 1.95 km</desc>
<time>2010-02-25T16:39:07.68</time>
<name>1372</name>
</trkpt>
<trkpt lat="48.934192" lon="8.645622">
<ele>359.5</ele>
<speed>5.1</speed>
<course>90.0</course>
<desc>Speed 5.1 km/h Distance 1.95 km</desc>
<time>2010-02-25T16:39:08.68</time>
<name>1373</name>
</trkpt>
<trkpt lat="48.934192" lon="8.645642">
<ele>359.5</ele>
<speed>5.0</speed>
<course>105.5</course>
<desc>Speed 5.0 km/h Distance 1.95 km</desc>
<time>2010-02-25T16:39:09.68</time>
<name>1374</name>
</trkpt>
<trkpt lat="48.934188" lon="8.645660">
<ele>359.5</ele>
<speed>5.3</speed>
<course>105.5</course>
<desc>Speed 5.3 km/h Distance 1.96 km</desc>
<time>2010-02-25T16:39:10.68</time>
<name>1375</name>
</trkpt>
<trkpt lat="48.934185" lon="8.645678">
<ele>359.0</ele>
<speed>5.1</speed>
<course>124.1</course>
<desc>Speed 5.1 km/h Distance 1.96 km</desc>
<time>2010-02-25T16:39:11.68</time>
<name>1376</name>
</trkpt>
<trkpt lat="48.934178" lon="8.645693">
<ele>359.0</ele>
<speed>5.0</speed>
<course>114.6</course>
<desc>Speed 5.0 km/h Distance 1.96 km</desc>
<time>2010-02-25T16:39:12.68</time>
<name>1377</name>
</trkpt>
<trkpt lat="48.934173" lon="8.645710">
<ele>359.0</ele>
<speed>5.0</speed>
<course>124.1</course>
<desc>Speed 5.0 km/h Distance 1.96 km</desc>
<time>2010-02-25T16:39:13.68</time>
<name>1378</name>
</trkpt>
<trkpt lat="48.934167" lon="8.645725">
<ele>359.0</ele>
<speed>5.5</speed>
<course>121.3</course>
<desc>Speed 5.5 km/h Distance 1.96 km</desc>
<time>2010-02-25T16:39:14.67</time>
<name>1379</name>
</trkpt>
<trkpt lat="48.934160" lon="8.645742">
<ele>359.0</ele>
<speed>5.3</speed>
<course>121.4</course>
<desc>Speed 5.3 km/h Distance 1.96 km</desc>
<time>2010-02-25T16:39:15.68</time>
<name>1380</name>
</trkpt>
<trkpt lat="48.934153" lon="8.645758">
<ele>359.0</ele>
<speed>5.3</speed>
<course>114.6</course>
<desc>Speed 5.3 km/h Distance 1.96 km</desc>
<time>2010-02-25T16:39:16.67</time>
<name>1381</name>
</trkpt>
<trkpt lat="48.934148" lon="8.645775">
<ele>359.0</ele>
<speed>5.2</speed>
<course>112.5</course>
<desc>Speed 5.2 km/h Distance 1.97 km</desc>
<time>2010-02-25T16:39:17.67</time>
<name>1382</name>
</trkpt>
<trkpt lat="48.934143" lon="8.645793">
<ele>359.0</ele>
<speed>5.1</speed>
<course>112.5</course>
<desc>Speed 5.1 km/h Distance 1.97 km</desc>
<time>2010-02-25T16:39:18.67</time>
<name>1383</name>
</trkpt>
<trkpt lat="48.934138" lon="8.645812">
<ele>359.5</ele>
<speed>5.2</speed>
<course>114.5</course>
<desc>Speed 5.2 km/h Distance 1.97 km</desc>
<time>2010-02-25T16:39:19.67</time>
<name>1384</name>
</trkpt>
<trkpt lat="48.934133" lon="8.645828">
<ele>359.5</ele>
<speed>5.1</speed>
<course>114.6</course>
<desc>Speed 5.1 km/h Distance 1.97 km</desc>
<time>2010-02-25T16:39:20.67</time>
<name>1385</name>
</trkpt>
<trkpt lat="48.934128" lon="8.645845">
<ele>359.5</ele>
<speed>5.0</speed>
<course>114.6</course>
<desc>Speed 5.0 km/h Distance 1.97 km</desc>
<time>2010-02-25T16:39:21.67</time>
<name>1386</name>
</trkpt>
<trkpt lat="48.934123" lon="8.645862">
<ele>359.5</ele>
<speed>5.1</speed>
<course>114.6</course>
<desc>Speed 5.1 km/h Distance 1.97 km</desc>
<time>2010-02-25T16:39:22.67</time>
<name>1387</name>
</trkpt>
<trkpt lat="48.934118" lon="8.645878">
<ele>359.5</ele>
<speed>5.1</speed>
<course>112.5</course>
<desc>Speed 5.1 km/h Distance 1.97 km</desc>
<time>2010-02-25T16:39:23.67</time>
<name>1388</name>
</trkpt>
<trkpt lat="48.934113" lon="8.645897">
<ele>359.5</ele>
<speed>5.0</speed>
<course>114.5</course>
<desc>Speed 5.0 km/h Distance 1.97 km</desc>
<time>2010-02-25T16:39:24.67</time>
<name>1389</name>
</trkpt>
<trkpt lat="48.934108" lon="8.645913">
<ele>360.0</ele>
<speed>5.1</speed>
<course>114.6</course>
<desc>Speed 5.1 km/h Distance 1.98 km</desc>
<time>2010-02-25T16:39:25.67</time>
<name>1390</name>
</trkpt>
<trkpt lat="48.934103" lon="8.645930">
<ele>360.0</ele>
<speed>5.0</speed>
<course>112.5</course>
<desc>Speed 5.0 km/h Distance 1.98 km</desc>
<time>2010-02-25T16:39:26.67</time>
<name>1391</name>
</trkpt>
<trkpt lat="48.934098" lon="8.645948">
<ele>360.0</ele>
<speed>4.9</speed>
<course>112.5</course>
<desc>Speed 4.9 km/h Distance 1.98 km</desc>
<time>2010-02-25T16:39:27.67</time>
<name>1392</name>
</trkpt>
<trkpt lat="48.934093" lon="8.645967">
<ele>360.0</ele>
<speed>5.1</speed>
<course>112.5</course>
<desc>Speed 5.1 km/h Distance 1.98 km</desc>
<time>2010-02-25T16:39:28.67</time>
<name>1393</name>
</trkpt>
<trkpt lat="48.934088" lon="8.645985">
<ele>360.5</ele>
<speed>5.1</speed>
<course>112.6</course>
<desc>Speed 5.1 km/h Distance 1.98 km</desc>
<time>2010-02-25T16:39:29.67</time>
<name>1394</name>
</trkpt>
<trkpt lat="48.934083" lon="8.646003">
<ele>360.5</ele>
<speed>5.1</speed>
<course>112.6</course>
<desc>Speed 5.1 km/h Distance 1.98 km</desc>
<time>2010-02-25T16:39:30.67</time>
<name>1395</name>
</trkpt>
<trkpt lat="48.934078" lon="8.646022">
<ele>360.5</ele>
<speed>5.1</speed>
<course>112.6</course>
<desc>Speed 5.1 km/h Distance 1.98 km</desc>
<time>2010-02-25T16:39:31.67</time>
<name>1396</name>
</trkpt>
<trkpt lat="48.934073" lon="8.646040">
<ele>360.5</ele>
<speed>5.1</speed>
<course>112.5</course>
<desc>Speed 5.1 km/h Distance 1.99 km</desc>
<time>2010-02-25T16:39:32.67</time>
<name>1397</name>
</trkpt>
<trkpt lat="48.934068" lon="8.646058">
<ele>360.5</ele>
<speed>5.1</speed>
<course>114.6</course>
<desc>Speed 5.1 km/h Distance 1.99 km</desc>
<time>2010-02-25T16:39:33.67</time>
<name>1398</name>
</trkpt>
<trkpt lat="48.934063" lon="8.646075">
<ele>361.0</ele>
<speed>5.1</speed>
<course>114.5</course>
<desc>Speed 5.1 km/h Distance 1.99 km</desc>
<time>2010-02-25T16:39:34.67</time>
<name>1399</name>
</trkpt>
<trkpt lat="48.934058" lon="8.646092">
<ele>361.0</ele>
<speed>5.0</speed>
<course>106.9</course>
<desc>Speed 5.0 km/h Distance 1.99 km</desc>
<time>2010-02-25T16:39:35.67</time>
<name>1400</name>
</trkpt>
<trkpt lat="48.934055" lon="8.646108">
<ele>361.0</ele>
<speed>5.0</speed>
<course>119.0</course>
<desc>Speed 5.0 km/h Distance 1.99 km</desc>
<time>2010-02-25T16:39:36.66</time>
<name>1401</name>
</trkpt>
<trkpt lat="48.934048" lon="8.646127">
<ele>361.0</ele>
<speed>4.9</speed>
<course>114.5</course>
<desc>Speed 4.9 km/h Distance 1.99 km</desc>
<time>2010-02-25T16:39:37.66</time>
<name>1402</name>
</trkpt>
<trkpt lat="48.934043" lon="8.646143">
<ele>361.0</ele>
<speed>4.9</speed>
<course>114.5</course>
<desc>Speed 4.9 km/h Distance 1.99 km</desc>
<time>2010-02-25T16:39:38.66</time>
<name>1403</name>
</trkpt>
<trkpt lat="48.934038" lon="8.646160">
<ele>361.5</ele>
<speed>5.0</speed>
<course>114.6</course>
<desc>Speed 5.0 km/h Distance 2.00 km</desc>
<time>2010-02-25T16:39:39.66</time>
<name>1404</name>
</trkpt>
<trkpt lat="48.934033" lon="8.646177">
<ele>361.5</ele>
<speed>4.9</speed>
<course>112.5</course>
<desc>Speed 4.9 km/h Distance 2.00 km</desc>
<time>2010-02-25T16:39:40.66</time>
<name>1405</name>
</trkpt>
<trkpt lat="48.934028" lon="8.646195">
<ele>361.5</ele>
<speed>5.0</speed>
<course>114.6</course>
<desc>Speed 5.0 km/h Distance 2.00 km</desc>
<time>2010-02-25T16:39:41.66</time>
<name>1406</name>
</trkpt>
<trkpt lat="48.934023" lon="8.646212">
<ele>361.5</ele>
<speed>4.9</speed>
<course>114.6</course>
<desc>Speed 4.9 km/h Distance 2.00 km</desc>
<time>2010-02-25T16:39:42.66</time>
<name>1407</name>
</trkpt>
<trkpt lat="48.934018" lon="8.646228">
<ele>362.0</ele>
<speed>4.9</speed>
<course>114.6</course>
<desc>Speed 4.9 km/h Distance 2.00 km</desc>
<time>2010-02-25T16:39:43.66</time>
<name>1408</name>
</trkpt>
<trkpt lat="48.934013" lon="8.646245">
<ele>362.0</ele>
<speed>4.8</speed>
<course>114.6</course>
<desc>Speed 4.8 km/h Distance 2.00 km</desc>
<time>2010-02-25T16:39:44.66</time>
<name>1409</name>
</trkpt>
<trkpt lat="48.934008" lon="8.646262">
<ele>362.0</ele>
<speed>4.9</speed>
<course>121.3</course>
<desc>Speed 4.9 km/h Distance 2.00 km</desc>
<time>2010-02-25T16:39:45.66</time>
<name>1410</name>
</trkpt>
<trkpt lat="48.934002" lon="8.646278">
<ele>362.0</ele>
<speed>5.0</speed>
<course>124.1</course>
<desc>Speed 5.0 km/h Distance 2.01 km</desc>
<time>2010-02-25T16:39:46.66</time>
<name>1411</name>
</trkpt>
<trkpt lat="48.933995" lon="8.646293">
<ele>362.0</ele>
<speed>5.0</speed>
<course>124.0</course>
<desc>Speed 5.0 km/h Distance 2.01 km</desc>
<time>2010-02-25T16:39:47.66</time>
<name>1412</name>
</trkpt>
<trkpt lat="48.933988" lon="8.646308">
<ele>362.0</ele>
<speed>4.9</speed>
<course>114.5</course>
<desc>Speed 4.9 km/h Distance 2.01 km</desc>
<time>2010-02-25T16:39:48.66</time>
<name>1413</name>
</trkpt>
<trkpt lat="48.933983" lon="8.646325">
<ele>362.0</ele>
<speed>5.0</speed>
<course>121.3</course>
<desc>Speed 5.0 km/h Distance 2.01 km</desc>
<time>2010-02-25T16:39:49.66</time>
<name>1414</name>
</trkpt>
<trkpt lat="48.933977" lon="8.646342">
<ele>362.0</ele>
<speed>5.0</speed>
<course>114.6</course>
<desc>Speed 5.0 km/h Distance 2.01 km</desc>
<time>2010-02-25T16:39:50.66</time>
<name>1415</name>
</trkpt>
<trkpt lat="48.933972" lon="8.646358">
<ele>362.0</ele>
<speed>4.9</speed>
<course>112.6</course>
<desc>Speed 4.9 km/h Distance 2.01 km</desc>
<time>2010-02-25T16:39:51.66</time>
<name>1416</name>
</trkpt>
<trkpt lat="48.933967" lon="8.646377">
<ele>362.0</ele>
<speed>5.1</speed>
<course>124.0</course>
<desc>Speed 5.1 km/h Distance 2.01 km</desc>
<time>2010-02-25T16:39:52.66</time>
<name>1417</name>
</trkpt>
<trkpt lat="48.933960" lon="8.646392">
<ele>362.5</ele>
<speed>4.8</speed>
<course>124.1</course>
<desc>Speed 4.8 km/h Distance 2.01 km</desc>
<time>2010-02-25T16:39:53.66</time>
<name>1418</name>
</trkpt>
<trkpt lat="48.933953" lon="8.646407">
<ele>362.5</ele>
<speed>4.9</speed>
<course>114.5</course>
<desc>Speed 4.9 km/h Distance 2.02 km</desc>
<time>2010-02-25T16:39:54.66</time>
<name>1419</name>
</trkpt>
<trkpt lat="48.933948" lon="8.646423">
<ele>362.5</ele>
<speed>4.8</speed>
<course>123.9</course>
<desc>Speed 4.8 km/h Distance 2.02 km</desc>
<time>2010-02-25T16:39:55.66</time>
<name>1420</name>
</trkpt>
<trkpt lat="48.933942" lon="8.646438">
<ele>362.5</ele>
<speed>4.9</speed>
<course>114.5</course>
<desc>Speed 4.9 km/h Distance 2.02 km</desc>
<time>2010-02-25T16:39:56.66</time>
<name>1421</name>
</trkpt>
<trkpt lat="48.933937" lon="8.646455">
<ele>362.5</ele>
<speed>5.0</speed>
<course>121.3</course>
<desc>Speed 5.0 km/h Distance 2.02 km</desc>
<time>2010-02-25T16:39:57.65</time>
<name>1422</name>
</trkpt>
<trkpt lat="48.933930" lon="8.646472">
<ele>362.5</ele>
<speed>5.0</speed>
<course>124.0</course>
<desc>Speed 5.0 km/h Distance 2.02 km</desc>
<time>2010-02-25T16:39:58.65</time>
<name>1423</name>
</trkpt>
<trkpt lat="48.933923" lon="8.646487">
<ele>362.5</ele>
<speed>4.8</speed>
<course>114.6</course>
<desc>Speed 4.8 km/h Distance 2.02 km</desc>
<time>2010-02-25T16:39:59.65</time>
<name>1424</name>
</trkpt>
<trkpt lat="48.933918" lon="8.646503">
<ele>362.5</ele>
<speed>4.8</speed>
<course>124.1</course>
<desc>Speed 4.8 km/h Distance 2.02 km</desc>
<time>2010-02-25T16:40:00.65</time>
<name>1425</name>
</trkpt>
<trkpt lat="48.933912" lon="8.646518">
<ele>363.0</ele>
<speed>4.8</speed>
<course>114.6</course>
<desc>Speed 4.8 km/h Distance 2.03 km</desc>
<time>2010-02-25T16:40:01.66</time>
<name>1426</name>
</trkpt>
<trkpt lat="48.933907" lon="8.646535">
<ele>363.0</ele>
<speed>5.0</speed>
<course>121.3</course>
<desc>Speed 5.0 km/h Distance 2.03 km</desc>
<time>2010-02-25T16:40:02.65</time>
<name>1427</name>
</trkpt>
<trkpt lat="48.933900" lon="8.646552">
<ele>363.0</ele>
<speed>5.0</speed>
<course>124.0</course>
<desc>Speed 5.0 km/h Distance 2.03 km</desc>
<time>2010-02-25T16:40:03.65</time>
<name>1428</name>
</trkpt>
<trkpt lat="48.933893" lon="8.646567">
<ele>363.0</ele>
<speed>4.9</speed>
<course>114.5</course>
<desc>Speed 4.9 km/h Distance 2.03 km</desc>
<time>2010-02-25T16:40:04.65</time>
<name>1429</name>
</trkpt>
<trkpt lat="48.933888" lon="8.646583">
<ele>363.0</ele>
<speed>4.9</speed>
<course>112.6</course>
<desc>Speed 4.9 km/h Distance 2.03 km</desc>
<time>2010-02-25T16:40:05.65</time>
<name>1430</name>
</trkpt>
<trkpt lat="48.933883" lon="8.646602">
<ele>363.0</ele>
<speed>5.1</speed>
<course>121.4</course>
<desc>Speed 5.1 km/h Distance 2.03 km</desc>
<time>2010-02-25T16:40:06.66</time>
<name>1431</name>
</trkpt>
<trkpt lat="48.933877" lon="8.646618">
<ele>363.5</ele>
<speed>5.2</speed>
<course>112.6</course>
<desc>Speed 5.2 km/h Distance 2.03 km</desc>
<time>2010-02-25T16:40:07.65</time>
<name>1432</name>
</trkpt>
<trkpt lat="48.933872" lon="8.646637">
<ele>363.5</ele>
<speed>5.2</speed>
<course>121.3</course>
<desc>Speed 5.2 km/h Distance 2.04 km</desc>
<time>2010-02-25T16:40:08.65</time>
<name>1433</name>
</trkpt>
<trkpt lat="48.933865" lon="8.646653">
<ele>363.5</ele>
<speed>5.2</speed>
<course>119.0</course>
<desc>Speed 5.2 km/h Distance 2.04 km</desc>
<time>2010-02-25T16:40:09.65</time>
<name>1434</name>
</trkpt>
<trkpt lat="48.933858" lon="8.646672">
<ele>363.5</ele>
<speed>5.3</speed>
<course>114.5</course>
<desc>Speed 5.3 km/h Distance 2.04 km</desc>
<time>2010-02-25T16:40:10.66</time>
<name>1435</name>
</trkpt>
<trkpt lat="48.933853" lon="8.646688">
<ele>363.5</ele>
<speed>5.0</speed>
<course>112.5</course>
<desc>Speed 5.0 km/h Distance 2.04 km</desc>
<time>2010-02-25T16:40:11.64</time>
<name>1436</name>
</trkpt>
<trkpt lat="48.933848" lon="8.646707">
<ele>363.5</ele>
<speed>5.3</speed>
<course>121.3</course>
<desc>Speed 5.3 km/h Distance 2.04 km</desc>
<time>2010-02-25T16:40:12.64</time>
<name>1437</name>
</trkpt>
<trkpt lat="48.933842" lon="8.646723">
<ele>364.0</ele>
<speed>5.2</speed>
<course>130.1</course>
<desc>Speed 5.2 km/h Distance 2.04 km</desc>
<time>2010-02-25T16:40:13.64</time>
<name>1438</name>
</trkpt>
<trkpt lat="48.933833" lon="8.646738">
<ele>364.0</ele>
<speed>5.2</speed>
<course>121.3</course>
<desc>Speed 5.2 km/h Distance 2.04 km</desc>
<time>2010-02-25T16:40:14.64</time>
<name>1439</name>
</trkpt>
<trkpt lat="48.933827" lon="8.646755">
<ele>364.0</ele>
<speed>5.3</speed>
<course>121.4</course>
<desc>Speed 5.3 km/h Distance 2.05 km</desc>
<time>2010-02-25T16:40:15.64</time>
<name>1440</name>
</trkpt>
<trkpt lat="48.933820" lon="8.646772">
<ele>364.0</ele>
<speed>5.2</speed>
<course>119.0</course>
<desc>Speed 5.2 km/h Distance 2.05 km</desc>
<time>2010-02-25T16:40:16.64</time>
<name>1441</name>
</trkpt>
<trkpt lat="48.933813" lon="8.646790">
<ele>364.5</ele>
<speed>5.1</speed>
<course>116.9</course>
<desc>Speed 5.1 km/h Distance 2.05 km</desc>
<time>2010-02-25T16:40:17.64</time>
<name>1442</name>
</trkpt>
<trkpt lat="48.933808" lon="8.646805">
<ele>364.5</ele>
<speed>4.9</speed>
<course>119.0</course>
<desc>Speed 4.9 km/h Distance 2.05 km</desc>
<time>2010-02-25T16:40:18.64</time>
<name>1443</name>
</trkpt>
<trkpt lat="48.933802" lon="8.646823">
<ele>364.5</ele>
<speed>5.1</speed>
<course>121.4</course>
<desc>Speed 5.1 km/h Distance 2.05 km</desc>
<time>2010-02-25T16:40:19.64</time>
<name>1444</name>
</trkpt>
<trkpt lat="48.933795" lon="8.646840">
<ele>364.5</ele>
<speed>5.3</speed>
<course>112.6</course>
<desc>Speed 5.3 km/h Distance 2.05 km</desc>
<time>2010-02-25T16:40:20.64</time>
<name>1445</name>
</trkpt>
<trkpt lat="48.933790" lon="8.646858">
<ele>364.5</ele>
<speed>5.2</speed>
<course>121.3</course>
<desc>Speed 5.2 km/h Distance 2.05 km</desc>
<time>2010-02-25T16:40:21.64</time>
<name>1446</name>
</trkpt>
<trkpt lat="48.933783" lon="8.646875">
<ele>364.5</ele>
<speed>5.1</speed>
<course>112.5</course>
<desc>Speed 5.1 km/h Distance 2.06 km</desc>
<time>2010-02-25T16:40:22.64</time>
<name>1447</name>
</trkpt>
<trkpt lat="48.933778" lon="8.646893">
<ele>364.5</ele>
<speed>5.2</speed>
<course>121.3</course>
<desc>Speed 5.2 km/h Distance 2.06 km</desc>
<time>2010-02-25T16:40:23.64</time>
<name>1448</name>
</trkpt>
<trkpt lat="48.933772" lon="8.646910">
<ele>364.5</ele>
<speed>4.9</speed>
<course>114.6</course>
<desc>Speed 4.9 km/h Distance 2.06 km</desc>
<time>2010-02-25T16:40:24.64</time>
<name>1449</name>
</trkpt>
<trkpt lat="48.933767" lon="8.646927">
<ele>365.0</ele>
<speed>5.2</speed>
<course>119.0</course>
<desc>Speed 5.2 km/h Distance 2.06 km</desc>
<time>2010-02-25T16:40:25.64</time>
<name>1450</name>
</trkpt>
<trkpt lat="48.933760" lon="8.646945">
<ele>365.0</ele>
<speed>5.3</speed>
<course>121.3</course>
<desc>Speed 5.3 km/h Distance 2.06 km</desc>
<time>2010-02-25T16:40:26.64</time>
<name>1451</name>
</trkpt>
<trkpt lat="48.933753" lon="8.646962">
<ele>365.0</ele>
<speed>5.3</speed>
<course>124.7</course>
<desc>Speed 5.3 km/h Distance 2.06 km</desc>
<time>2010-02-25T16:40:27.63</time>
<name>1452</name>
</trkpt>
<trkpt lat="48.933745" lon="8.646980">
<ele>365.0</ele>
<speed>5.5</speed>
<course>119.0</course>
<desc>Speed 5.5 km/h Distance 2.06 km</desc>
<time>2010-02-25T16:40:28.63</time>
<name>1453</name>
</trkpt>
<trkpt lat="48.933738" lon="8.646998">
<ele>365.0</ele>
<speed>5.5</speed>
<course>124.7</course>
<desc>Speed 5.5 km/h Distance 2.07 km</desc>
<time>2010-02-25T16:40:29.63</time>
<name>1454</name>
</trkpt>
<trkpt lat="48.933730" lon="8.647017">
<ele>365.0</ele>
<speed>5.5</speed>
<course>119.0</course>
<desc>Speed 5.5 km/h Distance 2.07 km</desc>
<time>2010-02-25T16:40:30.64</time>
<name>1455</name>
</trkpt>
<trkpt lat="48.933723" lon="8.647035">
<ele>365.5</ele>
<speed>5.4</speed>
<course>112.6</course>
<desc>Speed 5.4 km/h Distance 2.07 km</desc>
<time>2010-02-25T16:40:31.64</time>
<name>1456</name>
</trkpt>
<trkpt lat="48.933718" lon="8.647053">
<ele>365.5</ele>
<speed>5.4</speed>
<course>124.7</course>
<desc>Speed 5.4 km/h Distance 2.07 km</desc>
<time>2010-02-25T16:40:32.64</time>
<name>1457</name>
</trkpt>
<trkpt lat="48.933710" lon="8.647072">
<ele>365.5</ele>
<speed>5.7</speed>
<course>119.0</course>
<desc>Speed 5.7 km/h Distance 2.07 km</desc>
<time>2010-02-25T16:40:33.64</time>
<name>1458</name>
</trkpt>
<trkpt lat="48.933703" lon="8.647090">
<ele>365.5</ele>
<speed>5.7</speed>
<course>116.9</course>
<desc>Speed 5.7 km/h Distance 2.07 km</desc>
<time>2010-02-25T16:40:34.64</time>
<name>1459</name>
</trkpt>
<trkpt lat="48.933697" lon="8.647110">
<ele>366.0</ele>
<speed>5.7</speed>
<course>112.6</course>
<desc>Speed 5.7 km/h Distance 2.08 km</desc>
<time>2010-02-25T16:40:35.63</time>
<name>1460</name>
</trkpt>
<trkpt lat="48.933692" lon="8.647128">
<ele>366.0</ele>
<speed>5.2</speed>
<course>112.6</course>
<desc>Speed 5.2 km/h Distance 2.08 km</desc>
<time>2010-02-25T16:40:36.64</time>
<name>1461</name>
</trkpt>
<trkpt lat="48.933687" lon="8.647147">
<ele>366.0</ele>
<speed>5.5</speed>
<course>105.5</course>
<desc>Speed 5.5 km/h Distance 2.08 km</desc>
<time>2010-02-25T16:40:37.64</time>
<name>1462</name>
</trkpt>
<trkpt lat="48.933683" lon="8.647165">
<ele>366.0</ele>
<speed>4.9</speed>
<course>103.2</course>
<desc>Speed 4.9 km/h Distance 2.08 km</desc>
<time>2010-02-25T16:40:38.64</time>
<name>1463</name>
</trkpt>
<trkpt lat="48.933680" lon="8.647187">
<ele>366.0</ele>
<speed>5.7</speed>
<course>110.8</course>
<desc>Speed 5.7 km/h Distance 2.08 km</desc>
<time>2010-02-25T16:40:39.63</time>
<name>1464</name>
</trkpt>
<trkpt lat="48.933675" lon="8.647207">
<ele>366.0</ele>
<speed>6.0</speed>
<course>112.5</course>
<desc>Speed 6.0 km/h Distance 2.08 km</desc>
<time>2010-02-25T16:40:40.63</time>
<name>1465</name>
</trkpt>
<trkpt lat="48.933670" lon="8.647225">
<ele>366.0</ele>
<speed>5.3</speed>
<course>105.5</course>
<desc>Speed 5.3 km/h Distance 2.08 km</desc>
<time>2010-02-25T16:40:41.63</time>
<name>1466</name>
</trkpt>
<trkpt lat="48.933667" lon="8.647243">
<ele>366.0</ele>
<speed>5.3</speed>
<course>114.5</course>
<desc>Speed 5.3 km/h Distance 2.09 km</desc>
<time>2010-02-25T16:40:42.63</time>
<name>1467</name>
</trkpt>
<trkpt lat="48.933662" lon="8.647260">
<ele>366.0</ele>
<speed>5.3</speed>
<course>112.5</course>
<desc>Speed 5.3 km/h Distance 2.09 km</desc>
<time>2010-02-25T16:40:43.63</time>
<name>1468</name>
</trkpt>
<trkpt lat="48.933657" lon="8.647278">
<ele>366.5</ele>
<speed>5.2</speed>
<course>121.3</course>
<desc>Speed 5.2 km/h Distance 2.09 km</desc>
<time>2010-02-25T16:40:44.63</time>
<name>1469</name>
</trkpt>
<trkpt lat="48.933650" lon="8.647295">
<ele>366.5</ele>
<speed>5.2</speed>
<course>121.4</course>
<desc>Speed 5.2 km/h Distance 2.09 km</desc>
<time>2010-02-25T16:40:45.63</time>
<name>1470</name>
</trkpt>
<trkpt lat="48.933643" lon="8.647312">
<ele>366.5</ele>
<speed>5.4</speed>
<course>127.3</course>
<desc>Speed 5.4 km/h Distance 2.09 km</desc>
<time>2010-02-25T16:40:46.63</time>
<name>1471</name>
</trkpt>
<trkpt lat="48.933635" lon="8.647328">
<ele>367.0</ele>
<speed>5.3</speed>
<course>124.1</course>
<desc>Speed 5.3 km/h Distance 2.09 km</desc>
<time>2010-02-25T16:40:47.63</time>
<name>1472</name>
</trkpt>
<trkpt lat="48.933628" lon="8.647343">
<ele>367.0</ele>
<speed>5.1</speed>
<course>121.3</course>
<desc>Speed 5.1 km/h Distance 2.09 km</desc>
<time>2010-02-25T16:40:48.62</time>
<name>1473</name>
</trkpt>
<trkpt lat="48.933622" lon="8.647360">
<ele>367.5</ele>
<speed>5.3</speed>
<course>124.1</course>
<desc>Speed 5.3 km/h Distance 2.10 km</desc>
<time>2010-02-25T16:40:49.63</time>
<name>1474</name>
</trkpt>
<trkpt lat="48.933615" lon="8.647375">
<ele>367.5</ele>
<speed>5.1</speed>
<course>112.6</course>
<desc>Speed 5.1 km/h Distance 2.10 km</desc>
<time>2010-02-25T16:40:50.63</time>
<name>1475</name>
</trkpt>
<trkpt lat="48.933610" lon="8.647393">
<ele>368.0</ele>
<speed>5.1</speed>
<course>114.6</course>
<desc>Speed 5.1 km/h Distance 2.10 km</desc>
<time>2010-02-25T16:40:51.63</time>
<name>1476</name>
</trkpt>
<trkpt lat="48.933605" lon="8.647410">
<ele>368.0</ele>
<speed>5.2</speed>
<course>114.5</course>
<desc>Speed 5.2 km/h Distance 2.10 km</desc>
<time>2010-02-25T16:40:52.63</time>
<name>1477</name>
</trkpt>
<trkpt lat="48.933600" lon="8.647427">
<ele>368.5</ele>
<speed>4.8</speed>
<course>114.6</course>
<desc>Speed 4.8 km/h Distance 2.10 km</desc>
<time>2010-02-25T16:40:53.62</time>
<name>1478</name>
</trkpt>
<trkpt lat="48.933595" lon="8.647443">
<ele>368.5</ele>
<speed>5.1</speed>
<course>114.5</course>
<desc>Speed 5.1 km/h Distance 2.10 km</desc>
<time>2010-02-25T16:40:54.62</time>
<name>1479</name>
</trkpt>
<trkpt lat="48.933590" lon="8.647460">
<ele>368.5</ele>
<speed>5.0</speed>
<course>112.6</course>
<desc>Speed 5.0 km/h Distance 2.10 km</desc>
<time>2010-02-25T16:40:55.62</time>
<name>1480</name>
</trkpt>
<trkpt lat="48.933585" lon="8.647478">
<ele>368.5</ele>
<speed>5.1</speed>
<course>114.5</course>
<desc>Speed 5.1 km/h Distance 2.11 km</desc>
<time>2010-02-25T16:40:56.62</time>
<name>1481</name>
</trkpt>
<trkpt lat="48.933580" lon="8.647495">
<ele>368.5</ele>
<speed>5.1</speed>
<course>121.3</course>
<desc>Speed 5.1 km/h Distance 2.11 km</desc>
<time>2010-02-25T16:40:57.62</time>
<name>1482</name>
</trkpt>
<trkpt lat="48.933573" lon="8.647512">
<ele>368.5</ele>
<speed>5.0</speed>
<course>105.5</course>
<desc>Speed 5.0 km/h Distance 2.11 km</desc>
<time>2010-02-25T16:40:58.62</time>
<name>1483</name>
</trkpt>
<trkpt lat="48.933570" lon="8.647530">
<ele>369.0</ele>
<speed>4.8</speed>
<course>114.6</course>
<desc>Speed 4.8 km/h Distance 2.11 km</desc>
<time>2010-02-25T16:40:59.62</time>
<name>1484</name>
</trkpt>
<trkpt lat="48.933565" lon="8.647547">
<ele>369.0</ele>
<speed>5.0</speed>
<course>105.5</course>
<desc>Speed 5.0 km/h Distance 2.11 km</desc>
<time>2010-02-25T16:41:00.62</time>
<name>1485</name>
</trkpt>
<trkpt lat="48.933562" lon="8.647565">
<ele>369.0</ele>
<speed>5.0</speed>
<course>105.5</course>
<desc>Speed 5.0 km/h Distance 2.11 km</desc>
<time>2010-02-25T16:41:01.62</time>
<name>1486</name>
</trkpt>
<trkpt lat="48.933558" lon="8.647583">
<ele>369.0</ele>
<speed>5.4</speed>
<course>97.9</course>
<desc>Speed 5.4 km/h Distance 2.11 km</desc>
<time>2010-02-25T16:41:02.62</time>
<name>1487</name>
</trkpt>
<trkpt lat="48.933557" lon="8.647602">
<ele>369.0</ele>
<speed>4.9</speed>
<course>97.2</course>
<desc>Speed 4.9 km/h Distance 2.11 km</desc>
<time>2010-02-25T16:41:03.62</time>
<name>1488</name>
</trkpt>
<trkpt lat="48.933555" lon="8.647622">
<ele>369.0</ele>
<speed>5.3</speed>
<course>97.2</course>
<desc>Speed 5.3 km/h Distance 2.12 km</desc>
<time>2010-02-25T16:41:04.62</time>
<name>1489</name>
</trkpt>
<trkpt lat="48.933553" lon="8.647642">
<ele>369.0</ele>
<speed>5.4</speed>
<course>90.0</course>
<desc>Speed 5.4 km/h Distance 2.12 km</desc>
<time>2010-02-25T16:41:05.62</time>
<name>1490</name>
</trkpt>
<trkpt lat="48.933553" lon="8.647663">
<ele>369.0</ele>
<speed>5.4</speed>
<course>74.5</course>
<desc>Speed 5.4 km/h Distance 2.12 km</desc>
<time>2010-02-25T16:41:06.62</time>
<name>1491</name>
</trkpt>
<trkpt lat="48.933557" lon="8.647682">
<ele>369.0</ele>
<speed>5.2</speed>
<course>75.8</course>
<desc>Speed 5.2 km/h Distance 2.12 km</desc>
<time>2010-02-25T16:41:07.62</time>
<name>1492</name>
</trkpt>
<trkpt lat="48.933560" lon="8.647702">
<ele>369.0</ele>
<speed>5.4</speed>
<course>67.4</course>
<desc>Speed 5.4 km/h Distance 2.12 km</desc>
<time>2010-02-25T16:41:08.63</time>
<name>1493</name>
</trkpt>
<trkpt lat="48.933565" lon="8.647720">
<ele>369.0</ele>
<speed>5.5</speed>
<course>61.0</course>
<desc>Speed 5.5 km/h Distance 2.12 km</desc>
<time>2010-02-25T16:41:09.62</time>
<name>1494</name>
</trkpt>
<trkpt lat="48.933572" lon="8.647738">
<ele>369.0</ele>
<speed>5.5</speed>
<course>61.0</course>
<desc>Speed 5.5 km/h Distance 2.13 km</desc>
<time>2010-02-25T16:41:10.63</time>
<name>1495</name>
</trkpt>
<trkpt lat="48.933578" lon="8.647757">
<ele>369.0</ele>
<speed>5.6</speed>
<course>63.2</course>
<desc>Speed 5.6 km/h Distance 2.13 km</desc>
<time>2010-02-25T16:41:11.62</time>
<name>1496</name>
</trkpt>
<trkpt lat="48.933585" lon="8.647777">
<ele>369.0</ele>
<speed>5.7</speed>
<course>55.3</course>
<desc>Speed 5.7 km/h Distance 2.13 km</desc>
<time>2010-02-25T16:41:12.62</time>
<name>1497</name>
</trkpt>
<trkpt lat="48.933593" lon="8.647795">
<ele>369.0</ele>
<speed>5.6</speed>
<course>55.3</course>
<desc>Speed 5.6 km/h Distance 2.13 km</desc>
<time>2010-02-25T16:41:13.62</time>
<name>1498</name>
</trkpt>
<trkpt lat="48.933602" lon="8.647813">
<ele>369.0</ele>
<speed>5.7</speed>
<course>58.6</course>
<desc>Speed 5.7 km/h Distance 2.13 km</desc>
<time>2010-02-25T16:41:14.62</time>
<name>1499</name>
</trkpt>
<trkpt lat="48.933608" lon="8.647830">
<ele>368.5</ele>
<speed>5.6</speed>
<course>55.3</course>
<desc>Speed 5.6 km/h Distance 2.13 km</desc>
<time>2010-02-25T16:41:15.62</time>
<name>1500</name>
</trkpt>
<trkpt lat="48.933617" lon="8.647848">
<ele>369.0</ele>
<speed>5.8</speed>
<course>52.7</course>
<desc>Speed 5.8 km/h Distance 2.13 km</desc>
<time>2010-02-25T16:41:16.62</time>
<name>1501</name>
</trkpt>
<trkpt lat="48.933630" lon="8.647875">
<ele>367.5</ele>
<speed>7.3</speed>
<course>49.7</course>
<desc>Speed 7.3 km/h Distance 2.14 km</desc>
<time>2010-02-25T16:41:17.62</time>
<name>1502</name>
</trkpt>
<trkpt lat="48.933638" lon="8.647890">
<ele>367.5</ele>
<speed>5.2</speed>
<course>42.6</course>
<desc>Speed 5.2 km/h Distance 2.14 km</desc>
<time>2010-02-25T16:41:18.73</time>
<name>1503</name>
</trkpt>
<trkpt lat="48.933647" lon="8.647902">
<ele>367.5</ele>
<speed>4.4</speed>
<course>52.7</course>
<desc>Speed 4.4 km/h Distance 2.14 km</desc>
<time>2010-02-25T16:41:19.70</time>
<name>1504</name>
</trkpt>
<trkpt lat="48.933655" lon="8.647918">
<ele>367.5</ele>
<speed>5.3</speed>
<course>52.7</course>
<desc>Speed 5.3 km/h Distance 2.14 km</desc>
<time>2010-02-25T16:41:20.70</time>
<name>1505</name>
</trkpt>
<trkpt lat="48.933663" lon="8.647935">
<ele>367.0</ele>
<speed>5.4</speed>
<course>65.5</course>
<desc>Speed 5.4 km/h Distance 2.14 km</desc>
<time>2010-02-25T16:41:21.70</time>
<name>1506</name>
</trkpt>
<trkpt lat="48.933668" lon="8.647952">
<ele>367.0</ele>
<speed>5.0</speed>
<course>61.0</course>
<desc>Speed 5.0 km/h Distance 2.14 km</desc>
<time>2010-02-25T16:41:22.70</time>
<name>1507</name>
</trkpt>
<trkpt lat="48.933675" lon="8.647970">
<ele>366.5</ele>
<speed>5.0</speed>
<course>52.7</course>
<desc>Speed 5.0 km/h Distance 2.15 km</desc>
<time>2010-02-25T16:41:23.86</time>
<name>1508</name>
</trkpt>
<trkpt lat="48.933683" lon="8.647987">
<ele>366.5</ele>
<speed>5.2</speed>
<course>63.1</course>
<desc>Speed 5.2 km/h Distance 2.15 km</desc>
<time>2010-02-25T16:41:24.71</time>
<name>1509</name>
</trkpt>
<trkpt lat="48.933688" lon="8.648002">
<ele>366.0</ele>
<speed>4.5</speed>
<course>58.7</course>
<desc>Speed 4.5 km/h Distance 2.15 km</desc>
<time>2010-02-25T16:41:25.71</time>
<name>1510</name>
</trkpt>
<trkpt lat="48.933695" lon="8.648018">
<ele>365.5</ele>
<speed>5.0</speed>
<course>49.7</course>
<desc>Speed 5.0 km/h Distance 2.15 km</desc>
<time>2010-02-25T16:41:26.71</time>
<name>1511</name>
</trkpt>
<trkpt lat="48.933703" lon="8.648033">
<ele>365.0</ele>
<speed>4.8</speed>
<course>55.3</course>
<desc>Speed 4.8 km/h Distance 2.15 km</desc>
<time>2010-02-25T16:41:27.71</time>
<name>1512</name>
</trkpt>
<trkpt lat="48.933712" lon="8.648052">
<ele>365.0</ele>
<speed>5.4</speed>
<course>47.5</course>
<desc>Speed 5.4 km/h Distance 2.15 km</desc>
<time>2010-02-25T16:41:29.00</time>
<name>1513</name>
</trkpt>
<trkpt lat="48.933722" lon="8.648068">
<ele>365.5</ele>
<speed>5.5</speed>
<course>57.6</course>
<desc>Speed 5.5 km/h Distance 2.15 km</desc>
<time>2010-02-25T16:41:29.73</time>
<name>1514</name>
</trkpt>
<trkpt lat="48.933730" lon="8.648088">
<ele>365.5</ele>
<speed>5.8</speed>
<course>57.6</course>
<desc>Speed 5.8 km/h Distance 2.16 km</desc>
<time>2010-02-25T16:41:30.73</time>
<name>1515</name>
</trkpt>
<trkpt lat="48.933738" lon="8.648108">
<ele>366.0</ele>
<speed>5.7</speed>
<course>52.7</course>
<desc>Speed 5.7 km/h Distance 2.16 km</desc>
<time>2010-02-25T16:41:31.73</time>
<name>1516</name>
</trkpt>
<trkpt lat="48.933748" lon="8.648128">
<ele>366.5</ele>
<speed>5.7</speed>
<course>52.7</course>
<desc>Speed 5.7 km/h Distance 2.16 km</desc>
<time>2010-02-25T16:41:32.73</time>
<name>1517</name>
</trkpt>
<trkpt lat="48.933758" lon="8.648148">
<ele>367.0</ele>
<speed>5.8</speed>
<course>57.6</course>
<desc>Speed 5.8 km/h Distance 2.16 km</desc>
<time>2010-02-25T16:41:33.73</time>
<name>1518</name>
</trkpt>
<trkpt lat="48.933767" lon="8.648168">
<ele>367.5</ele>
<speed>5.5</speed>
<course>69.2</course>
<desc>Speed 5.5 km/h Distance 2.16 km</desc>
<time>2010-02-25T16:41:34.73</time>
<name>1519</name>
</trkpt>
<trkpt lat="48.933772" lon="8.648188">
<ele>368.0</ele>
<speed>4.8</speed>
<course>61.0</course>
<desc>Speed 4.8 km/h Distance 2.16 km</desc>
<time>2010-02-25T16:41:35.73</time>
<name>1520</name>
</trkpt>
<trkpt lat="48.933778" lon="8.648207">
<ele>368.0</ele>
<speed>5.1</speed>
<course>63.1</course>
<desc>Speed 5.1 km/h Distance 2.17 km</desc>
<time>2010-02-25T16:41:36.75</time>
<name>1521</name>
</trkpt>
<trkpt lat="48.933785" lon="8.648227">
<ele>368.5</ele>
<speed>5.5</speed>
<course>73.1</course>
<desc>Speed 5.5 km/h Distance 2.17 km</desc>
<time>2010-02-25T16:41:37.73</time>
<name>1522</name>
</trkpt>
<trkpt lat="48.933788" lon="8.648243">
<ele>368.5</ele>
<speed>3.7</speed>
<course>68.2</course>
<desc>Speed 3.7 km/h Distance 2.17 km</desc>
<time>2010-02-25T16:41:38.73</time>
<name>1523</name>
</trkpt>
<trkpt lat="48.933797" lon="8.648275">
<ele>370.0</ele>
<speed>8.4</speed>
<course>67.4</course>
<desc>Speed 8.4 km/h Distance 2.17 km</desc>
<time>2010-02-25T16:41:39.73</time>
<name>1524</name>
</trkpt>
<trkpt lat="48.933802" lon="8.648293">
<ele>370.5</ele>
<speed>5.0</speed>
<course>90.0</course>
<desc>Speed 5.0 km/h Distance 2.17 km</desc>
<time>2010-02-25T16:41:40.73</time>
<name>1525</name>
</trkpt>
<trkpt lat="48.933802" lon="8.648313">
<ele>371.0</ele>
<speed>5.4</speed>
<course>102.3</course>
<desc>Speed 5.4 km/h Distance 2.17 km</desc>
<time>2010-02-25T16:41:41.73</time>
<name>1526</name>
</trkpt>
<trkpt lat="48.933798" lon="8.648337">
<ele>371.5</ele>
<speed>6.3</speed>
<course>97.2</course>
<desc>Speed 6.3 km/h Distance 2.18 km</desc>
<time>2010-02-25T16:41:42.73</time>
<name>1527</name>
</trkpt>
<trkpt lat="48.933797" lon="8.648357">
<ele>371.5</ele>
<speed>5.1</speed>
<course>103.2</course>
<desc>Speed 5.1 km/h Distance 2.18 km</desc>
<time>2010-02-25T16:41:43.73</time>
<name>1528</name>
</trkpt>
<trkpt lat="48.933793" lon="8.648378">
<ele>372.0</ele>
<speed>6.0</speed>
<course>104.3</course>
<desc>Speed 6.0 km/h Distance 2.18 km</desc>
<time>2010-02-25T16:41:44.73</time>
<name>1529</name>
</trkpt>
<trkpt lat="48.933790" lon="8.648398">
<ele>372.0</ele>
<speed>5.3</speed>
<course>104.2</course>
<desc>Speed 5.3 km/h Distance 2.18 km</desc>
<time>2010-02-25T16:41:45.73</time>
<name>1530</name>
</trkpt>
<trkpt lat="48.933787" lon="8.648418">
<ele>372.5</ele>
<speed>5.5</speed>
<course>98.7</course>
<desc>Speed 5.5 km/h Distance 2.18 km</desc>
<time>2010-02-25T16:41:46.73</time>
<name>1531</name>
</trkpt>
<trkpt lat="48.933785" lon="8.648435">
<ele>372.5</ele>
<speed>4.6</speed>
<course>110.8</course>
<desc>Speed 4.6 km/h Distance 2.18 km</desc>
<time>2010-02-25T16:41:47.73</time>
<name>1532</name>
</trkpt>
<trkpt lat="48.933780" lon="8.648455">
<ele>372.5</ele>
<speed>5.5</speed>
<course>125.7</course>
<desc>Speed 5.5 km/h Distance 2.19 km</desc>
<time>2010-02-25T16:41:48.82</time>
<name>1533</name>
</trkpt>
<trkpt lat="48.933738" lon="8.648543">
<ele>375.5</ele>
<speed>10.1</speed>
<course>118.7</course>
<desc>Speed 10.1 km/h Distance 2.19 km</desc>
<time>2010-02-25T16:41:50.79</time>
<name>1534</name>
</trkpt>
<trkpt lat="48.933723" lon="8.648585">
<ele>375.5</ele>
<speed>13.1</speed>
<course>125.6</course>
<desc>Speed 13.1 km/h Distance 2.20 km</desc>
<time>2010-02-25T16:41:51.79</time>
<name>1535</name>
</trkpt>
<trkpt lat="48.933710" lon="8.648613">
<ele>376.0</ele>
<speed>5.3</speed>
<course>117.0</course>
<desc>Speed 5.3 km/h Distance 2.20 km</desc>
<time>2010-02-25T16:41:53.79</time>
<name>1536</name>
</trkpt>
<trkpt lat="48.933707" lon="8.648623">
<ele>376.0</ele>
<speed>5.5</speed>
<course>125.1</course>
<desc>Speed 5.5 km/h Distance 2.20 km</desc>
<time>2010-02-25T16:41:54.79</time>
<name>1537</name>
</trkpt>
<trkpt lat="48.933697" lon="8.648645">
<ele>376.0</ele>
<speed>7.6</speed>
<course>127.2</course>
<desc>Speed 7.6 km/h Distance 2.20 km</desc>
<time>2010-02-25T16:41:55.79</time>
<name>1538</name>
</trkpt>
<trkpt lat="48.933690" lon="8.648658">
<ele>376.0</ele>
<speed>5.5</speed>
<course>121.3</course>
<desc>Speed 5.5 km/h Distance 2.20 km</desc>
<time>2010-02-25T16:41:56.79</time>
<name>1539</name>
</trkpt>
<trkpt lat="48.933683" lon="8.648675">
<ele>376.5</ele>
<speed>6.3</speed>
<course>119.7</course>
<desc>Speed 6.3 km/h Distance 2.20 km</desc>
<time>2010-02-25T16:41:57.79</time>
<name>1540</name>
</trkpt>
<trkpt lat="48.933678" lon="8.648688">
<ele>377.0</ele>
<speed>5.7</speed>
<course>138.7</course>
<desc>Speed 5.7 km/h Distance 2.21 km</desc>
<time>2010-02-25T16:41:58.79</time>
<name>1541</name>
</trkpt>
<trkpt lat="48.933668" lon="8.648702">
<ele>377.5</ele>
<speed>5.5</speed>
<course>132.4</course>
<desc>Speed 5.5 km/h Distance 2.21 km</desc>
<time>2010-02-25T16:41:59.79</time>
<name>1542</name>
</trkpt>
<trkpt lat="48.933658" lon="8.648718">
<ele>378.0</ele>
<speed>6.2</speed>
<course>133.6</course>
<desc>Speed 6.2 km/h Distance 2.21 km</desc>
<time>2010-02-25T16:42:00.79</time>
<name>1543</name>
</trkpt>
<trkpt lat="48.933650" lon="8.648732">
<ele>378.0</ele>
<speed>5.7</speed>
<course>116.9</course>
<desc>Speed 5.7 km/h Distance 2.21 km</desc>
<time>2010-02-25T16:42:01.79</time>
<name>1544</name>
</trkpt>
<trkpt lat="48.933645" lon="8.648747">
<ele>378.0</ele>
<speed>5.8</speed>
<course>112.6</course>
<desc>Speed 5.8 km/h Distance 2.21 km</desc>
<time>2010-02-25T16:42:02.79</time>
<name>1545</name>
</trkpt>
<trkpt lat="48.933640" lon="8.648765">
<ele>378.0</ele>
<speed>5.9</speed>
<course>114.6</course>
<desc>Speed 5.9 km/h Distance 2.21 km</desc>
<time>2010-02-25T16:42:03.79</time>
<name>1546</name>
</trkpt>
<trkpt lat="48.933635" lon="8.648782">
<ele>378.0</ele>
<speed>5.7</speed>
<course>124.1</course>
<desc>Speed 5.7 km/h Distance 2.21 km</desc>
<time>2010-02-25T16:42:04.79</time>
<name>1547</name>
</trkpt>
<trkpt lat="48.933628" lon="8.648797">
<ele>378.0</ele>
<speed>5.8</speed>
<course>114.5</course>
<desc>Speed 5.8 km/h Distance 2.22 km</desc>
<time>2010-02-25T16:42:05.79</time>
<name>1548</name>
</trkpt>
<trkpt lat="48.933623" lon="8.648813">
<ele>378.0</ele>
<speed>5.6</speed>
<course>121.3</course>
<desc>Speed 5.6 km/h Distance 2.22 km</desc>
<time>2010-02-25T16:42:06.79</time>
<name>1549</name>
</trkpt>
<trkpt lat="48.933617" lon="8.648830">
<ele>377.5</ele>
<speed>6.0</speed>
<course>121.3</course>
<desc>Speed 6.0 km/h Distance 2.22 km</desc>
<time>2010-02-25T16:42:07.79</time>
<name>1550</name>
</trkpt>
<trkpt lat="48.933610" lon="8.648847">
<ele>378.0</ele>
<speed>5.8</speed>
<course>121.4</course>
<desc>Speed 5.8 km/h Distance 2.22 km</desc>
<time>2010-02-25T16:42:08.79</time>
<name>1551</name>
</trkpt>
<trkpt lat="48.933603" lon="8.648863">
<ele>378.0</ele>
<speed>5.7</speed>
<course>114.6</course>
<desc>Speed 5.7 km/h Distance 2.22 km</desc>
<time>2010-02-25T16:42:09.79</time>
<name>1552</name>
</trkpt>
<trkpt lat="48.933598" lon="8.648880">
<ele>378.0</ele>
<speed>5.6</speed>
<course>114.6</course>
<desc>Speed 5.6 km/h Distance 2.22 km</desc>
<time>2010-02-25T16:42:10.79</time>
<name>1553</name>
</trkpt>
<trkpt lat="48.933593" lon="8.648897">
<ele>377.5</ele>
<speed>5.4</speed>
<course>114.5</course>
<desc>Speed 5.4 km/h Distance 2.22 km</desc>
<time>2010-02-25T16:42:11.79</time>
<name>1554</name>
</trkpt>
<trkpt lat="48.933588" lon="8.648913">
<ele>377.5</ele>
<speed>5.5</speed>
<course>121.3</course>
<desc>Speed 5.5 km/h Distance 2.23 km</desc>
<time>2010-02-25T16:42:12.79</time>
<name>1555</name>
</trkpt>
<trkpt lat="48.933582" lon="8.648930">
<ele>377.5</ele>
<speed>5.7</speed>
<course>112.5</course>
<desc>Speed 5.7 km/h Distance 2.23 km</desc>
<time>2010-02-25T16:42:13.79</time>
<name>1556</name>
</trkpt>
<trkpt lat="48.933577" lon="8.648948">
<ele>377.5</ele>
<speed>5.5</speed>
<course>124.7</course>
<desc>Speed 5.5 km/h Distance 2.23 km</desc>
<time>2010-02-25T16:42:14.79</time>
<name>1557</name>
</trkpt>
<trkpt lat="48.933568" lon="8.648967">
<ele>377.5</ele>
<speed>5.8</speed>
<course>118.9</course>
<desc>Speed 5.8 km/h Distance 2.23 km</desc>
<time>2010-02-25T16:42:15.79</time>
<name>1558</name>
</trkpt>
<trkpt lat="48.933562" lon="8.648985">
<ele>377.5</ele>
<speed>5.9</speed>
<course>119.0</course>
<desc>Speed 5.9 km/h Distance 2.23 km</desc>
<time>2010-02-25T16:42:16.79</time>
<name>1559</name>
</trkpt>
<trkpt lat="48.933555" lon="8.649003">
<ele>377.5</ele>
<speed>5.7</speed>
<course>112.6</course>
<desc>Speed 5.7 km/h Distance 2.23 km</desc>
<time>2010-02-25T16:42:17.79</time>
<name>1560</name>
</trkpt>
<trkpt lat="48.933550" lon="8.649022">
<ele>377.5</ele>
<speed>5.7</speed>
<course>110.8</course>
<desc>Speed 5.7 km/h Distance 2.23 km</desc>
<time>2010-02-25T16:42:18.79</time>
<name>1561</name>
</trkpt>
<trkpt lat="48.933545" lon="8.649042">
<ele>377.5</ele>
<speed>5.7</speed>
<course>119.0</course>
<desc>Speed 5.7 km/h Distance 2.24 km</desc>
<time>2010-02-25T16:42:19.79</time>
<name>1562</name>
</trkpt>
<trkpt lat="48.933538" lon="8.649060">
<ele>377.5</ele>
<speed>5.7</speed>
<course>127.3</course>
<desc>Speed 5.7 km/h Distance 2.24 km</desc>
<time>2010-02-25T16:42:20.79</time>
<name>1563</name>
</trkpt>
<trkpt lat="48.933530" lon="8.649077">
<ele>377.5</ele>
<speed>5.7</speed>
<course>116.8</course>
<desc>Speed 5.7 km/h Distance 2.24 km</desc>
<time>2010-02-25T16:42:21.79</time>
<name>1564</name>
</trkpt>
<trkpt lat="48.933523" lon="8.649097">
<ele>377.5</ele>
<speed>5.9</speed>
<course>121.3</course>
<desc>Speed 5.9 km/h Distance 2.24 km</desc>
<time>2010-02-25T16:42:22.79</time>
<name>1565</name>
</trkpt>
<trkpt lat="48.933517" lon="8.649113">
<ele>377.5</ele>
<speed>5.8</speed>
<course>124.7</course>
<desc>Speed 5.8 km/h Distance 2.24 km</desc>
<time>2010-02-25T16:42:23.79</time>
<name>1566</name>
</trkpt>
<trkpt lat="48.933508" lon="8.649132">
<ele>377.5</ele>
<speed>5.9</speed>
<course>119.0</course>
<desc>Speed 5.9 km/h Distance 2.24 km</desc>
<time>2010-02-25T16:42:24.79</time>
<name>1567</name>
</trkpt>
<trkpt lat="48.933502" lon="8.649150">
<ele>377.5</ele>
<speed>5.7</speed>
<course>121.3</course>
<desc>Speed 5.7 km/h Distance 2.25 km</desc>
<time>2010-02-25T16:42:25.79</time>
<name>1568</name>
</trkpt>
<trkpt lat="48.933495" lon="8.649167">
<ele>377.5</ele>
<speed>5.5</speed>
<course>124.7</course>
<desc>Speed 5.5 km/h Distance 2.25 km</desc>
<time>2010-02-25T16:42:26.79</time>
<name>1569</name>
</trkpt>
<trkpt lat="48.933487" lon="8.649185">
<ele>377.5</ele>
<speed>5.7</speed>
<course>119.0</course>
<desc>Speed 5.7 km/h Distance 2.25 km</desc>
<time>2010-02-25T16:42:27.79</time>
<name>1570</name>
</trkpt>
<trkpt lat="48.933480" lon="8.649203">
<ele>377.5</ele>
<speed>5.5</speed>
<course>122.4</course>
<desc>Speed 5.5 km/h Distance 2.25 km</desc>
<time>2010-02-25T16:42:28.79</time>
<name>1571</name>
</trkpt>
<trkpt lat="48.933472" lon="8.649223">
<ele>377.5</ele>
<speed>6.0</speed>
<course>124.7</course>
<desc>Speed 6.0 km/h Distance 2.25 km</desc>
<time>2010-02-25T16:42:29.79</time>
<name>1572</name>
</trkpt>
<trkpt lat="48.933463" lon="8.649242">
<ele>377.5</ele>
<speed>5.3</speed>
<course>119.1</course>
<desc>Speed 5.3 km/h Distance 2.25 km</desc>
<time>2010-02-25T16:42:30.79</time>
<name>1573</name>
</trkpt>
<trkpt lat="48.933457" lon="8.649260">
<ele>377.5</ele>
<speed>5.8</speed>
<course>116.9</course>
<desc>Speed 5.8 km/h Distance 2.25 km</desc>
<time>2010-02-25T16:42:31.79</time>
<name>1574</name>
</trkpt>
<trkpt lat="48.933450" lon="8.649280">
<ele>378.0</ele>
<speed>5.8</speed>
<course>115.1</course>
<desc>Speed 5.8 km/h Distance 2.26 km</desc>
<time>2010-02-25T16:42:32.79</time>
<name>1575</name>
</trkpt>
<trkpt lat="48.933443" lon="8.649302">
<ele>378.0</ele>
<speed>6.0</speed>
<course>127.3</course>
<desc>Speed 6.0 km/h Distance 2.26 km</desc>
<time>2010-02-25T16:42:33.79</time>
<name>1576</name>
</trkpt>
<trkpt lat="48.933435" lon="8.649318">
<ele>378.0</ele>
<speed>5.7</speed>
<course>119.0</course>
<desc>Speed 5.7 km/h Distance 2.26 km</desc>
<time>2010-02-25T16:42:34.79</time>
<name>1577</name>
</trkpt>
<trkpt lat="48.933428" lon="8.649337">
<ele>378.0</ele>
<speed>5.5</speed>
<course>121.3</course>
<desc>Speed 5.5 km/h Distance 2.26 km</desc>
<time>2010-02-25T16:42:35.79</time>
<name>1578</name>
</trkpt>
<trkpt lat="48.933422" lon="8.649353">
<ele>378.0</ele>
<speed>5.0</speed>
<course>121.4</course>
<desc>Speed 5.0 km/h Distance 2.26 km</desc>
<time>2010-02-25T16:42:36.79</time>
<name>1579</name>
</trkpt>
<trkpt lat="48.933415" lon="8.649370">
<ele>378.0</ele>
<speed>5.0</speed>
<course>119.0</course>
<desc>Speed 5.0 km/h Distance 2.26 km</desc>
<time>2010-02-25T16:42:37.79</time>
<name>1580</name>
</trkpt>
<trkpt lat="48.933408" lon="8.649388">
<ele>378.0</ele>
<speed>5.7</speed>
<course>110.8</course>
<desc>Speed 5.7 km/h Distance 2.27 km</desc>
<time>2010-02-25T16:42:38.79</time>
<name>1581</name>
</trkpt>
<trkpt lat="48.933403" lon="8.649408">
<ele>377.5</ele>
<speed>5.6</speed>
<course>119.0</course>
<desc>Speed 5.6 km/h Distance 2.27 km</desc>
<time>2010-02-25T16:42:39.79</time>
<name>1582</name>
</trkpt>
<trkpt lat="48.933397" lon="8.649427">
<ele>377.5</ele>
<speed>5.0</speed>
<course>114.6</course>
<desc>Speed 5.0 km/h Distance 2.27 km</desc>
<time>2010-02-25T16:42:40.79</time>
<name>1583</name>
</trkpt>
<trkpt lat="48.933392" lon="8.649443">
<ele>377.5</ele>
<speed>5.1</speed>
<course>112.6</course>
<desc>Speed 5.1 km/h Distance 2.27 km</desc>
<time>2010-02-25T16:42:41.79</time>
<name>1584</name>
</trkpt>
<trkpt lat="48.933387" lon="8.649462">
<ele>378.0</ele>
<speed>5.1</speed>
<course>112.6</course>
<desc>Speed 5.1 km/h Distance 2.27 km</desc>
<time>2010-02-25T16:42:42.79</time>
<name>1585</name>
</trkpt>
<trkpt lat="48.933382" lon="8.649480">
<ele>378.0</ele>
<speed>5.4</speed>
<course>116.9</course>
<desc>Speed 5.4 km/h Distance 2.27 km</desc>
<time>2010-02-25T16:42:43.79</time>
<name>1586</name>
</trkpt>
<trkpt lat="48.933375" lon="8.649500">
<ele>378.0</ele>
<speed>5.6</speed>
<course>109.4</course>
<desc>Speed 5.6 km/h Distance 2.27 km</desc>
<time>2010-02-25T16:42:44.79</time>
<name>1587</name>
</trkpt>
<trkpt lat="48.933370" lon="8.649522">
<ele>378.0</ele>
<speed>6.0</speed>
<course>109.3</course>
<desc>Speed 6.0 km/h Distance 2.28 km</desc>
<time>2010-02-25T16:42:45.79</time>
<name>1588</name>
</trkpt>
<trkpt lat="48.933365" lon="8.649543">
<ele>378.0</ele>
<speed>6.1</speed>
<course>109.4</course>
<desc>Speed 6.1 km/h Distance 2.28 km</desc>
<time>2010-02-25T16:42:46.79</time>
<name>1589</name>
</trkpt>
<trkpt lat="48.933360" lon="8.649565">
<ele>378.5</ele>
<speed>5.8</speed>
<course>115.1</course>
<desc>Speed 5.8 km/h Distance 2.28 km</desc>
<time>2010-02-25T16:42:47.79</time>
<name>1590</name>
</trkpt>
<trkpt lat="48.933353" lon="8.649587">
<ele>378.5</ele>
<speed>6.0</speed>
<course>109.3</course>
<desc>Speed 6.0 km/h Distance 2.28 km</desc>
<time>2010-02-25T16:42:48.79</time>
<name>1591</name>
</trkpt>
<trkpt lat="48.933348" lon="8.649608">
<ele>378.5</ele>
<speed>6.0</speed>
<course>116.9</course>
<desc>Speed 6.0 km/h Distance 2.28 km</desc>
<time>2010-02-25T16:42:49.79</time>
<name>1592</name>
</trkpt>
<trkpt lat="48.933342" lon="8.649628">
<ele>379.0</ele>
<speed>5.8</speed>
<course>104.2</course>
<desc>Speed 5.8 km/h Distance 2.28 km</desc>
<time>2010-02-25T16:42:50.79</time>
<name>1593</name>
</trkpt>
<trkpt lat="48.933338" lon="8.649648">
<ele>379.0</ele>
<speed>5.5</speed>
<course>109.4</course>
<desc>Speed 5.5 km/h Distance 2.29 km</desc>
<time>2010-02-25T16:42:51.79</time>
<name>1594</name>
</trkpt>
<trkpt lat="48.933333" lon="8.649670">
<ele>379.5</ele>
<speed>5.7</speed>
<course>109.4</course>
<desc>Speed 5.7 km/h Distance 2.29 km</desc>
<time>2010-02-25T16:42:52.79</time>
<name>1595</name>
</trkpt>
<trkpt lat="48.933328" lon="8.649692">
<ele>379.5</ele>
<speed>5.6</speed>
<course>104.2</course>
<desc>Speed 5.6 km/h Distance 2.29 km</desc>
<time>2010-02-25T16:42:53.79</time>
<name>1596</name>
</trkpt>
<trkpt lat="48.933325" lon="8.649712">
<ele>379.5</ele>
<speed>5.5</speed>
<course>90.0</course>
<desc>Speed 5.5 km/h Distance 2.29 km</desc>
<time>2010-02-25T16:42:54.79</time>
<name>1597</name>
</trkpt>
<trkpt lat="48.933325" lon="8.649733">
<ele>379.5</ele>
<speed>5.4</speed>
<course>90.0</course>
<desc>Speed 5.4 km/h Distance 2.29 km</desc>
<time>2010-02-25T16:42:55.79</time>
<name>1598</name>
</trkpt>
<trkpt lat="48.933325" lon="8.649757">
<ele>379.5</ele>
<speed>5.9</speed>
<course>90.0</course>
<desc>Speed 5.9 km/h Distance 2.29 km</desc>
<time>2010-02-25T16:42:56.79</time>
<name>1599</name>
</trkpt>
<trkpt lat="48.933325" lon="8.649777">
<ele>379.5</ele>
<speed>5.4</speed>
<course>90.0</course>
<desc>Speed 5.4 km/h Distance 2.30 km</desc>
<time>2010-02-25T16:42:57.79</time>
<name>1600</name>
</trkpt>
<trkpt lat="48.933325" lon="8.649798">
<ele>379.5</ele>
<speed>5.2</speed>
<course>82.1</course>
<desc>Speed 5.2 km/h Distance 2.30 km</desc>
<time>2010-02-25T16:42:58.79</time>
<name>1601</name>
</trkpt>
<trkpt lat="48.933327" lon="8.649817">
<ele>379.5</ele>
<speed>4.9</speed>
<course>83.3</course>
<desc>Speed 4.9 km/h Distance 2.30 km</desc>
<time>2010-02-25T16:42:59.79</time>
<name>1602</name>
</trkpt>
<trkpt lat="48.933328" lon="8.649838">
<ele>379.5</ele>
<speed>5.5</speed>
<course>82.8</course>
<desc>Speed 5.5 km/h Distance 2.30 km</desc>
<time>2010-02-25T16:43:00.79</time>
<name>1603</name>
</trkpt>
<trkpt lat="48.933330" lon="8.649858">
<ele>379.5</ele>
<speed>5.3</speed>
<course>83.3</course>
<desc>Speed 5.3 km/h Distance 2.30 km</desc>
<time>2010-02-25T16:43:01.79</time>
<name>1604</name>
</trkpt>
<trkpt lat="48.933332" lon="8.649880">
<ele>379.5</ele>
<speed>5.4</speed>
<course>83.3</course>
<desc>Speed 5.4 km/h Distance 2.30 km</desc>
<time>2010-02-25T16:43:02.79</time>
<name>1605</name>
</trkpt>
<trkpt lat="48.933333" lon="8.649902">
<ele>379.0</ele>
<speed>5.7</speed>
<course>83.3</course>
<desc>Speed 5.7 km/h Distance 2.31 km</desc>
<time>2010-02-25T16:43:03.79</time>
<name>1606</name>
</trkpt>
<trkpt lat="48.933335" lon="8.649923">
<ele>379.0</ele>
<speed>5.6</speed>
<course>90.0</course>
<desc>Speed 5.6 km/h Distance 2.31 km</desc>
<time>2010-02-25T16:43:04.79</time>
<name>1607</name>
</trkpt>
<trkpt lat="48.933335" lon="8.649945">
<ele>378.5</ele>
<speed>5.5</speed>
<course>90.0</course>
<desc>Speed 5.5 km/h Distance 2.31 km</desc>
<time>2010-02-25T16:43:05.79</time>
<name>1608</name>
</trkpt>
<trkpt lat="48.933335" lon="8.649965">
<ele>378.5</ele>
<speed>5.2</speed>
<course>90.0</course>
<desc>Speed 5.2 km/h Distance 2.31 km</desc>
<time>2010-02-25T16:43:06.79</time>
<name>1609</name>
</trkpt>
<trkpt lat="48.933335" lon="8.649985">
<ele>379.0</ele>
<speed>5.1</speed>
<course>99.6</course>
<desc>Speed 5.1 km/h Distance 2.31 km</desc>
<time>2010-02-25T16:43:07.79</time>
<name>1610</name>
</trkpt>
<trkpt lat="48.933333" lon="8.650000">
<ele>378.5</ele>
<speed>3.6</speed>
<course>112.5</course>
<desc>Speed 3.6 km/h Distance 2.31 km</desc>
<time>2010-02-25T16:43:08.79</time>
<name>1611</name>
</trkpt>
<trkpt lat="48.933328" lon="8.650018">
<ele>378.5</ele>
<speed>4.8</speed>
<course>110.8</course>
<desc>Speed 4.8 km/h Distance 2.31 km</desc>
<time>2010-02-25T16:43:09.79</time>
<name>1612</name>
</trkpt>
<trkpt lat="48.933323" lon="8.650038">
<ele>378.0</ele>
<speed>5.3</speed>
<course>97.2</course>
<desc>Speed 5.3 km/h Distance 2.32 km</desc>
<time>2010-02-25T16:43:10.79</time>
<name>1613</name>
</trkpt>
<trkpt lat="48.933322" lon="8.650058">
<ele>377.5</ele>
<speed>4.9</speed>
<course>114.6</course>
<desc>Speed 4.9 km/h Distance 2.32 km</desc>
<time>2010-02-25T16:43:11.79</time>
<name>1614</name>
</trkpt>
<trkpt lat="48.933317" lon="8.650075">
<ele>377.0</ele>
<speed>4.4</speed>
<course>108.6</course>
<desc>Speed 4.4 km/h Distance 2.32 km</desc>
<time>2010-02-25T16:43:12.79</time>
<name>1615</name>
</trkpt>
<trkpt lat="48.933313" lon="8.650090">
<ele>377.0</ele>
<speed>4.3</speed>
<course>100.8</course>
<desc>Speed 4.3 km/h Distance 2.32 km</desc>
<time>2010-02-25T16:43:13.79</time>
<name>1616</name>
</trkpt>
<trkpt lat="48.933312" lon="8.650103">
<ele>377.0</ele>
<speed>4.0</speed>
<course>106.9</course>
<desc>Speed 4.0 km/h Distance 2.32 km</desc>
<time>2010-02-25T16:43:14.79</time>
<name>1617</name>
</trkpt>
<trkpt lat="48.933308" lon="8.650120">
<ele>377.5</ele>
<speed>4.7</speed>
<course>119.7</course>
<desc>Speed 4.7 km/h Distance 2.32 km</desc>
<time>2010-02-25T16:43:15.79</time>
<name>1618</name>
</trkpt>
<trkpt lat="48.933303" lon="8.650133">
<ele>377.5</ele>
<speed>4.5</speed>
<course>119.7</course>
<desc>Speed 4.5 km/h Distance 2.32 km</desc>
<time>2010-02-25T16:43:16.79</time>
<name>1619</name>
</trkpt>
<trkpt lat="48.933298" lon="8.650147">
<ele>378.5</ele>
<speed>4.0</speed>
<course>112.6</course>
<desc>Speed 4.0 km/h Distance 2.32 km</desc>
<time>2010-02-25T16:43:17.79</time>
<name>1620</name>
</trkpt>
<trkpt lat="48.933293" lon="8.650165">
<ele>378.5</ele>
<speed>5.2</speed>
<course>124.1</course>
<desc>Speed 5.2 km/h Distance 2.33 km</desc>
<time>2010-02-25T16:43:18.79</time>
<name>1621</name>
</trkpt>
<trkpt lat="48.933287" lon="8.650180">
<ele>378.5</ele>
<speed>5.0</speed>
<course>130.3</course>
<desc>Speed 5.0 km/h Distance 2.33 km</desc>
<time>2010-02-25T16:43:19.79</time>
<name>1622</name>
</trkpt>
<trkpt lat="48.933278" lon="8.650195">
<ele>379.0</ele>
<speed>5.5</speed>
<course>129.6</course>
<desc>Speed 5.5 km/h Distance 2.33 km</desc>
<time>2010-02-25T16:43:20.79</time>
<name>1623</name>
</trkpt>
<trkpt lat="48.933268" lon="8.650213">
<ele>379.0</ele>
<speed>5.8</speed>
<course>124.6</course>
<desc>Speed 5.8 km/h Distance 2.33 km</desc>
<time>2010-02-25T16:43:21.79</time>
<name>1624</name>
</trkpt>
<trkpt lat="48.933260" lon="8.650232">
<ele>379.5</ele>
<speed>6.0</speed>
<course>124.6</course>
<desc>Speed 6.0 km/h Distance 2.33 km</desc>
<time>2010-02-25T16:43:22.79</time>
<name>1625</name>
</trkpt>
<trkpt lat="48.933252" lon="8.650250">
<ele>379.5</ele>
<speed>5.4</speed>
<course>116.9</course>
<desc>Speed 5.4 km/h Distance 2.33 km</desc>
<time>2010-02-25T16:43:23.79</time>
<name>1626</name>
</trkpt>
<trkpt lat="48.933245" lon="8.650270">
<ele>379.5</ele>
<speed>5.5</speed>
<course>124.7</course>
<desc>Speed 5.5 km/h Distance 2.33 km</desc>
<time>2010-02-25T16:43:24.79</time>
<name>1627</name>
</trkpt>
<trkpt lat="48.933237" lon="8.650288">
<ele>379.5</ele>
<speed>5.4</speed>
<course>121.3</course>
<desc>Speed 5.4 km/h Distance 2.34 km</desc>
<time>2010-02-25T16:43:25.79</time>
<name>1628</name>
</trkpt>
<trkpt lat="48.933230" lon="8.650305">
<ele>379.0</ele>
<speed>5.4</speed>
<course>132.4</course>
<desc>Speed 5.4 km/h Distance 2.34 km</desc>
<time>2010-02-25T16:43:26.79</time>
<name>1629</name>
</trkpt>
<trkpt lat="48.933220" lon="8.650322">
<ele>379.5</ele>
<speed>5.8</speed>
<course>139.9</course>
<desc>Speed 5.8 km/h Distance 2.34 km</desc>
<time>2010-02-25T16:43:27.79</time>
<name>1630</name>
</trkpt>
<trkpt lat="48.933208" lon="8.650337">
<ele>379.5</ele>
<speed>5.3</speed>
<course>135.5</course>
<desc>Speed 5.3 km/h Distance 2.34 km</desc>
<time>2010-02-25T16:43:28.79</time>
<name>1631</name>
</trkpt>
<trkpt lat="48.933198" lon="8.650352">
<ele>379.5</ele>
<speed>5.3</speed>
<course>130.3</course>
<desc>Speed 5.3 km/h Distance 2.34 km</desc>
<time>2010-02-25T16:43:29.79</time>
<name>1632</name>
</trkpt>
<trkpt lat="48.933190" lon="8.650367">
<ele>379.5</ele>
<speed>5.3</speed>
<course>138.7</course>
<desc>Speed 5.3 km/h Distance 2.34 km</desc>
<time>2010-02-25T16:43:30.79</time>
<name>1633</name>
</trkpt>
<trkpt lat="48.933180" lon="8.650380">
<ele>379.5</ele>
<speed>5.3</speed>
<course>130.2</course>
<desc>Speed 5.3 km/h Distance 2.35 km</desc>
<time>2010-02-25T16:43:31.79</time>
<name>1634</name>
</trkpt>
<trkpt lat="48.933172" lon="8.650395">
<ele>379.5</ele>
<speed>5.2</speed>
<course>127.3</course>
<desc>Speed 5.2 km/h Distance 2.35 km</desc>
<time>2010-02-25T16:43:32.79</time>
<name>1635</name>
</trkpt>
<trkpt lat="48.933163" lon="8.650412">
<ele>379.5</ele>
<speed>5.3</speed>
<course>124.7</course>
<desc>Speed 5.3 km/h Distance 2.35 km</desc>
<time>2010-02-25T16:43:33.79</time>
<name>1636</name>
</trkpt>
<trkpt lat="48.933155" lon="8.650430">
<ele>380.0</ele>
<speed>5.4</speed>
<course>119.0</course>
<desc>Speed 5.4 km/h Distance 2.35 km</desc>
<time>2010-02-25T16:43:34.79</time>
<name>1637</name>
</trkpt>
<trkpt lat="48.933148" lon="8.650448">
<ele>380.0</ele>
<speed>5.5</speed>
<course>122.4</course>
<desc>Speed 5.5 km/h Distance 2.35 km</desc>
<time>2010-02-25T16:43:35.79</time>
<name>1638</name>
</trkpt>
<trkpt lat="48.933140" lon="8.650468">
<ele>380.0</ele>
<speed>5.5</speed>
<course>122.4</course>
<desc>Speed 5.5 km/h Distance 2.35 km</desc>
<time>2010-02-25T16:43:36.79</time>
<name>1639</name>
</trkpt>
<trkpt lat="48.933132" lon="8.650488">
<ele>380.0</ele>
<speed>5.6</speed>
<course>115.1</course>
<desc>Speed 5.6 km/h Distance 2.36 km</desc>
<time>2010-02-25T16:43:37.79</time>
<name>1640</name>
</trkpt>
<trkpt lat="48.933125" lon="8.650510">
<ele>380.0</ele>
<speed>5.8</speed>
<course>120.3</course>
<desc>Speed 5.8 km/h Distance 2.36 km</desc>
<time>2010-02-25T16:43:38.79</time>
<name>1641</name>
</trkpt>
<trkpt lat="48.933117" lon="8.650532">
<ele>380.5</ele>
<speed>5.8</speed>
<course>116.9</course>
<desc>Speed 5.8 km/h Distance 2.36 km</desc>
<time>2010-02-25T16:43:39.79</time>
<name>1642</name>
</trkpt>
<trkpt lat="48.933110" lon="8.650552">
<ele>380.5</ele>
<speed>5.5</speed>
<course>116.9</course>
<desc>Speed 5.5 km/h Distance 2.36 km</desc>
<time>2010-02-25T16:43:40.79</time>
<name>1643</name>
</trkpt>
<trkpt lat="48.933103" lon="8.650572">
<ele>381.0</ele>
<speed>5.6</speed>
<course>115.1</course>
<desc>Speed 5.6 km/h Distance 2.36 km</desc>
<time>2010-02-25T16:43:41.79</time>
<name>1644</name>
</trkpt>
<trkpt lat="48.933097" lon="8.650593">
<ele>381.0</ele>
<speed>5.4</speed>
<course>116.9</course>
<desc>Speed 5.4 km/h Distance 2.36 km</desc>
<time>2010-02-25T16:43:42.79</time>
<name>1645</name>
</trkpt>
<trkpt lat="48.933090" lon="8.650613">
<ele>381.0</ele>
<speed>5.5</speed>
<course>122.4</course>
<desc>Speed 5.5 km/h Distance 2.37 km</desc>
<time>2010-02-25T16:43:43.79</time>
<name>1646</name>
</trkpt>
<trkpt lat="48.933082" lon="8.650633">
<ele>381.0</ele>
<speed>5.6</speed>
<course>116.9</course>
<desc>Speed 5.6 km/h Distance 2.37 km</desc>
<time>2010-02-25T16:43:44.79</time>
<name>1647</name>
</trkpt>
<trkpt lat="48.933075" lon="8.650653">
<ele>381.0</ele>
<speed>5.7</speed>
<course>109.4</course>
<desc>Speed 5.7 km/h Distance 2.37 km</desc>
<time>2010-02-25T16:43:45.79</time>
<name>1648</name>
</trkpt>
<trkpt lat="48.933070" lon="8.650675">
<ele>381.0</ele>
<speed>5.8</speed>
<course>115.1</course>
<desc>Speed 5.8 km/h Distance 2.37 km</desc>
<time>2010-02-25T16:43:46.79</time>
<name>1649</name>
</trkpt>
<trkpt lat="48.933063" lon="8.650697">
<ele>381.0</ele>
<speed>5.8</speed>
<course>115.1</course>
<desc>Speed 5.8 km/h Distance 2.37 km</desc>
<time>2010-02-25T16:43:47.79</time>
<name>1650</name>
</trkpt>
<trkpt lat="48.933057" lon="8.650718">
<ele>381.0</ele>
<speed>5.7</speed>
<course>109.4</course>
<desc>Speed 5.7 km/h Distance 2.37 km</desc>
<time>2010-02-25T16:43:48.79</time>
<name>1651</name>
</trkpt>
<trkpt lat="48.933052" lon="8.650740">
<ele>381.0</ele>
<speed>5.9</speed>
<course>110.8</course>
<desc>Speed 5.9 km/h Distance 2.38 km</desc>
<time>2010-02-25T16:43:49.79</time>
<name>1652</name>
</trkpt>
<trkpt lat="48.933047" lon="8.650760">
<ele>381.0</ele>
<speed>5.7</speed>
<course>116.9</course>
<desc>Speed 5.7 km/h Distance 2.38 km</desc>
<time>2010-02-25T16:43:50.79</time>
<name>1653</name>
</trkpt>
<trkpt lat="48.933040" lon="8.650780">
<ele>381.0</ele>
<speed>5.5</speed>
<course>122.4</course>
<desc>Speed 5.5 km/h Distance 2.38 km</desc>
<time>2010-02-25T16:43:51.79</time>
<name>1654</name>
</trkpt>
<trkpt lat="48.933032" lon="8.650800">
<ele>380.5</ele>
<speed>5.7</speed>
<course>116.9</course>
<desc>Speed 5.7 km/h Distance 2.38 km</desc>
<time>2010-02-25T16:43:52.79</time>
<name>1655</name>
</trkpt>
<trkpt lat="48.933025" lon="8.650820">
<ele>380.5</ele>
<speed>5.8</speed>
<course>122.4</course>
<desc>Speed 5.8 km/h Distance 2.38 km</desc>
<time>2010-02-25T16:43:53.79</time>
<name>1656</name>
</trkpt>
<trkpt lat="48.933017" lon="8.650840">
<ele>380.5</ele>
<speed>5.7</speed>
<course>124.7</course>
<desc>Speed 5.7 km/h Distance 2.38 km</desc>
<time>2010-02-25T16:43:54.79</time>
<name>1657</name>
</trkpt>
<trkpt lat="48.933008" lon="8.650858">
<ele>380.5</ele>
<speed>5.7</speed>
<course>132.5</course>
<desc>Speed 5.7 km/h Distance 2.39 km</desc>
<time>2010-02-25T16:43:55.79</time>
<name>1658</name>
</trkpt>
<trkpt lat="48.932998" lon="8.650875">
<ele>380.5</ele>
<speed>5.4</speed>
<course>135.5</course>
<desc>Speed 5.4 km/h Distance 2.39 km</desc>
<time>2010-02-25T16:43:56.79</time>
<name>1659</name>
</trkpt>
<trkpt lat="48.932988" lon="8.650890">
<ele>380.5</ele>
<speed>5.5</speed>
<course>130.3</course>
<desc>Speed 5.5 km/h Distance 2.39 km</desc>
<time>2010-02-25T16:43:57.79</time>
<name>1660</name>
</trkpt>
<trkpt lat="48.932980" lon="8.650905">
<ele>380.5</ele>
<speed>5.4</speed>
<course>127.3</course>
<desc>Speed 5.4 km/h Distance 2.39 km</desc>
<time>2010-02-25T16:43:58.79</time>
<name>1661</name>
</trkpt>
<trkpt lat="48.932972" lon="8.650922">
<ele>380.5</ele>
<speed>5.5</speed>
<course>124.7</course>
<desc>Speed 5.5 km/h Distance 2.39 km</desc>
<time>2010-02-25T16:43:59.79</time>
<name>1662</name>
</trkpt>
<trkpt lat="48.932963" lon="8.650940">
<ele>380.5</ele>
<speed>5.7</speed>
<course>119.0</course>
<desc>Speed 5.7 km/h Distance 2.39 km</desc>
<time>2010-02-25T16:44:00.79</time>
<name>1663</name>
</trkpt>
<trkpt lat="48.932957" lon="8.650958">
<ele>380.5</ele>
<speed>5.6</speed>
<course>129.7</course>
<desc>Speed 5.6 km/h Distance 2.39 km</desc>
<time>2010-02-25T16:44:01.79</time>
<name>1664</name>
</trkpt>
<trkpt lat="48.932947" lon="8.650977">
<ele>380.5</ele>
<speed>6.0</speed>
<course>119.0</course>
<desc>Speed 6.0 km/h Distance 2.40 km</desc>
<time>2010-02-25T16:44:02.79</time>
<name>1665</name>
</trkpt>
<trkpt lat="48.932940" lon="8.650995">
<ele>380.5</ele>
<speed>5.7</speed>
<course>122.4</course>
<desc>Speed 5.7 km/h Distance 2.40 km</desc>
<time>2010-02-25T16:44:03.79</time>
<name>1666</name>
</trkpt>
<trkpt lat="48.932932" lon="8.651015">
<ele>380.5</ele>
<speed>5.6</speed>
<course>116.9</course>
<desc>Speed 5.6 km/h Distance 2.40 km</desc>
<time>2010-02-25T16:44:04.79</time>
<name>1667</name>
</trkpt>
<trkpt lat="48.932925" lon="8.651035">
<ele>380.5</ele>
<speed>5.9</speed>
<course>122.4</course>
<desc>Speed 5.9 km/h Distance 2.40 km</desc>
<time>2010-02-25T16:44:05.79</time>
<name>1668</name>
</trkpt>
<trkpt lat="48.932917" lon="8.651055">
<ele>380.0</ele>
<speed>5.8</speed>
<course>119.0</course>
<desc>Speed 5.8 km/h Distance 2.40 km</desc>
<time>2010-02-25T16:44:06.79</time>
<name>1669</name>
</trkpt>
<trkpt lat="48.932910" lon="8.651073">
<ele>380.0</ele>
<speed>5.8</speed>
<course>122.4</course>
<desc>Speed 5.8 km/h Distance 2.40 km</desc>
<time>2010-02-25T16:44:07.79</time>
<name>1670</name>
</trkpt>
<trkpt lat="48.932902" lon="8.651093">
<ele>380.0</ele>
<speed>5.8</speed>
<course>124.7</course>
<desc>Speed 5.8 km/h Distance 2.41 km</desc>
<time>2010-02-25T16:44:08.79</time>
<name>1671</name>
</trkpt>
<trkpt lat="48.932893" lon="8.651112">
<ele>380.0</ele>
<speed>5.8</speed>
<course>116.9</course>
<desc>Speed 5.8 km/h Distance 2.41 km</desc>
<time>2010-02-25T16:44:09.79</time>
<name>1672</name>
</trkpt>
<trkpt lat="48.932887" lon="8.651132">
<ele>380.0</ele>
<speed>5.8</speed>
<course>122.3</course>
<desc>Speed 5.8 km/h Distance 2.41 km</desc>
<time>2010-02-25T16:44:10.79</time>
<name>1673</name>
</trkpt>
<trkpt lat="48.932878" lon="8.651152">
<ele>380.0</ele>
<speed>5.9</speed>
<course>116.8</course>
<desc>Speed 5.9 km/h Distance 2.41 km</desc>
<time>2010-02-25T16:44:11.79</time>
<name>1674</name>
</trkpt>
<trkpt lat="48.932872" lon="8.651172">
<ele>380.0</ele>
<speed>5.9</speed>
<course>122.3</course>
<desc>Speed 5.9 km/h Distance 2.41 km</desc>
<time>2010-02-25T16:44:12.79</time>
<name>1675</name>
</trkpt>
<trkpt lat="48.932863" lon="8.651192">
<ele>380.0</ele>
<speed>5.9</speed>
<course>124.6</course>
<desc>Speed 5.9 km/h Distance 2.41 km</desc>
<time>2010-02-25T16:44:13.79</time>
<name>1676</name>
</trkpt>
<trkpt lat="48.932855" lon="8.651210">
<ele>380.0</ele>
<speed>5.8</speed>
<course>122.4</course>
<desc>Speed 5.8 km/h Distance 2.42 km</desc>
<time>2010-02-25T16:44:14.79</time>
<name>1677</name>
</trkpt>
<trkpt lat="48.932847" lon="8.651230">
<ele>380.0</ele>
<speed>5.8</speed>
<course>124.7</course>
<desc>Speed 5.8 km/h Distance 2.42 km</desc>
<time>2010-02-25T16:44:15.79</time>
<name>1678</name>
</trkpt>
<trkpt lat="48.932838" lon="8.651248">
<ele>380.0</ele>
<speed>5.9</speed>
<course>116.9</course>
<desc>Speed 5.9 km/h Distance 2.42 km</desc>
<time>2010-02-25T16:44:16.79</time>
<name>1679</name>
</trkpt>
<trkpt lat="48.932832" lon="8.651268">
<ele>380.0</ele>
<speed>5.8</speed>
<course>116.9</course>
<desc>Speed 5.8 km/h Distance 2.42 km</desc>
<time>2010-02-25T16:44:17.79</time>
<name>1680</name>
</trkpt>
<trkpt lat="48.932825" lon="8.651288">
<ele>380.0</ele>
<speed>5.9</speed>
<course>120.4</course>
<desc>Speed 5.9 km/h Distance 2.42 km</desc>
<time>2010-02-25T16:44:18.79</time>
<name>1681</name>
</trkpt>
<trkpt lat="48.932817" lon="8.651310">
<ele>380.0</ele>
<speed>5.9</speed>
<course>122.4</course>
<desc>Speed 5.9 km/h Distance 2.43 km</desc>
<time>2010-02-25T16:44:19.79</time>
<name>1682</name>
</trkpt>
<trkpt lat="48.932808" lon="8.651330">
<ele>380.0</ele>
<speed>5.7</speed>
<course>124.7</course>
<desc>Speed 5.7 km/h Distance 2.43 km</desc>
<time>2010-02-25T16:44:20.79</time>
<name>1683</name>
</trkpt>
<trkpt lat="48.932800" lon="8.651348">
<ele>380.0</ele>
<speed>5.8</speed>
<course>124.7</course>
<desc>Speed 5.8 km/h Distance 2.43 km</desc>
<time>2010-02-25T16:44:21.79</time>
<name>1684</name>
</trkpt>
<trkpt lat="48.932792" lon="8.651367">
<ele>380.0</ele>
<speed>5.9</speed>
<course>127.3</course>
<desc>Speed 5.9 km/h Distance 2.43 km</desc>
<time>2010-02-25T16:44:22.79</time>
<name>1685</name>
</trkpt>
<trkpt lat="48.932783" lon="8.651383">
<ele>380.0</ele>
<speed>5.8</speed>
<course>119.0</course>
<desc>Speed 5.8 km/h Distance 2.43 km</desc>
<time>2010-02-25T16:44:23.79</time>
<name>1686</name>
</trkpt>
<trkpt lat="48.932777" lon="8.651402">
<ele>380.0</ele>
<speed>5.7</speed>
<course>122.4</course>
<desc>Speed 5.7 km/h Distance 2.43 km</desc>
<time>2010-02-25T16:44:24.79</time>
<name>1687</name>
</trkpt>
<trkpt lat="48.932768" lon="8.651422">
<ele>380.0</ele>
<speed>5.8</speed>
<course>122.4</course>
<desc>Speed 5.8 km/h Distance 2.43 km</desc>
<time>2010-02-25T16:44:25.79</time>
<name>1688</name>
</trkpt>
<trkpt lat="48.932760" lon="8.651442">
<ele>380.0</ele>
<speed>5.9</speed>
<course>124.7</course>
<desc>Speed 5.9 km/h Distance 2.44 km</desc>
<time>2010-02-25T16:44:26.79</time>
<name>1689</name>
</trkpt>
<trkpt lat="48.932752" lon="8.651460">
<ele>380.0</ele>
<speed>5.9</speed>
<course>124.6</course>
<desc>Speed 5.9 km/h Distance 2.44 km</desc>
<time>2010-02-25T16:44:27.79</time>
<name>1690</name>
</trkpt>
<trkpt lat="48.932743" lon="8.651478">
<ele>380.0</ele>
<speed>5.6</speed>
<course>127.3</course>
<desc>Speed 5.6 km/h Distance 2.44 km</desc>
<time>2010-02-25T16:44:28.79</time>
<name>1691</name>
</trkpt>
<trkpt lat="48.932735" lon="8.651495">
<ele>380.5</ele>
<speed>5.7</speed>
<course>119.0</course>
<desc>Speed 5.7 km/h Distance 2.44 km</desc>
<time>2010-02-25T16:44:29.79</time>
<name>1692</name>
</trkpt>
<trkpt lat="48.932728" lon="8.651513">
<ele>380.5</ele>
<speed>5.6</speed>
<course>124.7</course>
<desc>Speed 5.6 km/h Distance 2.44 km</desc>
<time>2010-02-25T16:44:30.79</time>
<name>1693</name>
</trkpt>
<trkpt lat="48.932720" lon="8.651532">
<ele>380.5</ele>
<speed>5.5</speed>
<course>119.0</course>
<desc>Speed 5.5 km/h Distance 2.44 km</desc>
<time>2010-02-25T16:44:31.79</time>
<name>1694</name>
</trkpt>
<trkpt lat="48.932713" lon="8.651550">
<ele>380.5</ele>
<speed>5.4</speed>
<course>119.0</course>
<desc>Speed 5.4 km/h Distance 2.45 km</desc>
<time>2010-02-25T16:44:32.79</time>
<name>1695</name>
</trkpt>
<trkpt lat="48.932707" lon="8.651568">
<ele>380.5</ele>
<speed>5.6</speed>
<course>119.0</course>
<desc>Speed 5.6 km/h Distance 2.45 km</desc>
<time>2010-02-25T16:44:33.79</time>
<name>1696</name>
</trkpt>
<trkpt lat="48.932700" lon="8.651587">
<ele>380.5</ele>
<speed>5.4</speed>
<course>119.0</course>
<desc>Speed 5.4 km/h Distance 2.45 km</desc>
<time>2010-02-25T16:44:34.79</time>
<name>1697</name>
</trkpt>
<trkpt lat="48.932693" lon="8.651605">
<ele>381.0</ele>
<speed>5.5</speed>
<course>122.3</course>
<desc>Speed 5.5 km/h Distance 2.45 km</desc>
<time>2010-02-25T16:44:35.79</time>
<name>1698</name>
</trkpt>
<trkpt lat="48.932685" lon="8.651625">
<ele>381.0</ele>
<speed>5.8</speed>
<course>119.0</course>
<desc>Speed 5.8 km/h Distance 2.45 km</desc>
<time>2010-02-25T16:44:36.79</time>
<name>1699</name>
</trkpt>
<trkpt lat="48.932678" lon="8.651643">
<ele>381.0</ele>
<speed>5.7</speed>
<course>122.4</course>
<desc>Speed 5.7 km/h Distance 2.45 km</desc>
<time>2010-02-25T16:44:37.79</time>
<name>1700</name>
</trkpt>
<trkpt lat="48.932670" lon="8.651663">
<ele>381.0</ele>
<speed>5.8</speed>
<course>129.7</course>
<desc>Speed 5.8 km/h Distance 2.46 km</desc>
<time>2010-02-25T16:44:38.79</time>
<name>1701</name>
</trkpt>
<trkpt lat="48.932660" lon="8.651682">
<ele>381.0</ele>
<speed>6.0</speed>
<course>122.4</course>
<desc>Speed 6.0 km/h Distance 2.46 km</desc>
<time>2010-02-25T16:44:39.79</time>
<name>1702</name>
</trkpt>
<trkpt lat="48.932652" lon="8.651702">
<ele>381.0</ele>
<speed>5.9</speed>
<course>120.4</course>
<desc>Speed 5.9 km/h Distance 2.46 km</desc>
<time>2010-02-25T16:44:40.79</time>
<name>1703</name>
</trkpt>
<trkpt lat="48.932643" lon="8.651723">
<ele>381.0</ele>
<speed>6.0</speed>
<course>116.9</course>
<desc>Speed 6.0 km/h Distance 2.46 km</desc>
<time>2010-02-25T16:44:41.79</time>
<name>1704</name>
</trkpt>
<trkpt lat="48.932637" lon="8.651743">
<ele>381.0</ele>
<speed>5.9</speed>
<course>122.4</course>
<desc>Speed 5.9 km/h Distance 2.46 km</desc>
<time>2010-02-25T16:44:42.79</time>
<name>1705</name>
</trkpt>
<trkpt lat="48.932628" lon="8.651763">
<ele>381.0</ele>
<speed>6.0</speed>
<course>127.3</course>
<desc>Speed 6.0 km/h Distance 2.46 km</desc>
<time>2010-02-25T16:44:43.79</time>
<name>1706</name>
</trkpt>
<trkpt lat="48.932618" lon="8.651783">
<ele>381.0</ele>
<speed>6.1</speed>
<course>124.6</course>
<desc>Speed 6.1 km/h Distance 2.47 km</desc>
<time>2010-02-25T16:44:44.79</time>
<name>1707</name>
</trkpt>
<trkpt lat="48.932610" lon="8.651802">
<ele>381.0</ele>
<speed>5.9</speed>
<course>124.7</course>
<desc>Speed 5.9 km/h Distance 2.47 km</desc>
<time>2010-02-25T16:44:45.79</time>
<name>1708</name>
</trkpt>
<trkpt lat="48.932602" lon="8.651820">
<ele>381.0</ele>
<speed>6.0</speed>
<course>124.8</course>
<desc>Speed 6.0 km/h Distance 2.47 km</desc>
<time>2010-02-25T16:44:46.79</time>
<name>1709</name>
</trkpt>
<trkpt lat="48.932593" lon="8.651838">
<ele>381.0</ele>
<speed>5.7</speed>
<course>124.7</course>
<desc>Speed 5.7 km/h Distance 2.47 km</desc>
<time>2010-02-25T16:44:47.79</time>
<name>1710</name>
</trkpt>
<trkpt lat="48.932585" lon="8.651857">
<ele>381.0</ele>
<speed>6.0</speed>
<course>129.7</course>
<desc>Speed 6.0 km/h Distance 2.47 km</desc>
<time>2010-02-25T16:44:48.79</time>
<name>1711</name>
</trkpt>
<trkpt lat="48.932575" lon="8.651875">
<ele>381.0</ele>
<speed>5.9</speed>
<course>127.3</course>
<desc>Speed 5.9 km/h Distance 2.47 km</desc>
<time>2010-02-25T16:44:49.79</time>
<name>1712</name>
</trkpt>
<trkpt lat="48.932567" lon="8.651892">
<ele>381.0</ele>
<speed>5.3</speed>
<course>135.3</course>
<desc>Speed 5.3 km/h Distance 2.48 km</desc>
<time>2010-02-25T16:44:50.79</time>
<name>1713</name>
</trkpt>
<trkpt lat="48.932557" lon="8.651907">
<ele>381.0</ele>
<speed>5.8</speed>
<course>139.8</course>
<desc>Speed 5.8 km/h Distance 2.48 km</desc>
<time>2010-02-25T16:44:51.79</time>
<name>1714</name>
</trkpt>
<trkpt lat="48.932545" lon="8.651922">
<ele>381.0</ele>
<speed>5.8</speed>
<course>135.5</course>
<desc>Speed 5.8 km/h Distance 2.48 km</desc>
<time>2010-02-25T16:44:52.79</time>
<name>1715</name>
</trkpt>
<trkpt lat="48.932535" lon="8.651937">
<ele>381.0</ele>
<speed>5.6</speed>
<course>132.4</course>
<desc>Speed 5.6 km/h Distance 2.48 km</desc>
<time>2010-02-25T16:44:53.79</time>
<name>1716</name>
</trkpt>
<trkpt lat="48.932525" lon="8.651953">
<ele>381.0</ele>
<speed>5.7</speed>
<course>124.7</course>
<desc>Speed 5.7 km/h Distance 2.48 km</desc>
<time>2010-02-25T16:44:54.79</time>
<name>1717</name>
</trkpt>
<trkpt lat="48.932517" lon="8.651972">
<ele>381.0</ele>
<speed>6.0</speed>
<course>132.4</course>
<desc>Speed 6.0 km/h Distance 2.48 km</desc>
<time>2010-02-25T16:44:55.79</time>
<name>1718</name>
</trkpt>
<trkpt lat="48.932507" lon="8.651988">
<ele>380.5</ele>
<speed>5.9</speed>
<course>132.4</course>
<desc>Speed 5.9 km/h Distance 2.49 km</desc>
<time>2010-02-25T16:44:56.79</time>
<name>1719</name>
</trkpt>
<trkpt lat="48.932497" lon="8.652005">
<ele>380.5</ele>
<speed>5.5</speed>
<course>133.6</course>
<desc>Speed 5.5 km/h Distance 2.49 km</desc>
<time>2010-02-25T16:44:57.79</time>
<name>1720</name>
</trkpt>
<trkpt lat="48.932488" lon="8.652018">
<ele>380.5</ele>
<speed>5.2</speed>
<course>132.4</course>
<desc>Speed 5.2 km/h Distance 2.49 km</desc>
<time>2010-02-25T16:44:58.79</time>
<name>1721</name>
</trkpt>
<trkpt lat="48.932478" lon="8.652035">
<ele>380.0</ele>
<speed>5.4</speed>
<course>132.5</course>
<desc>Speed 5.4 km/h Distance 2.49 km</desc>
<time>2010-02-25T16:44:59.79</time>
<name>1722</name>
</trkpt>
<trkpt lat="48.932468" lon="8.652052">
<ele>380.0</ele>
<speed>6.0</speed>
<course>135.5</course>
<desc>Speed 6.0 km/h Distance 2.49 km</desc>
<time>2010-02-25T16:45:00.79</time>
<name>1723</name>
</trkpt>
<trkpt lat="48.932458" lon="8.652067">
<ele>380.0</ele>
<speed>5.2</speed>
<course>135.5</course>
<desc>Speed 5.2 km/h Distance 2.49 km</desc>
<time>2010-02-25T16:45:01.79</time>
<name>1724</name>
</trkpt>
<trkpt lat="48.932448" lon="8.652082">
<ele>379.5</ele>
<speed>5.7</speed>
<course>133.5</course>
<desc>Speed 5.7 km/h Distance 2.50 km</desc>
<time>2010-02-25T16:45:02.79</time>
<name>1725</name>
</trkpt>
<trkpt lat="48.932440" lon="8.652095">
<ele>379.5</ele>
<speed>4.8</speed>
<course>133.6</course>
<desc>Speed 4.8 km/h Distance 2.50 km</desc>
<time>2010-02-25T16:45:03.79</time>
<name>1726</name>
</trkpt>
<trkpt lat="48.932432" lon="8.652108">
<ele>379.5</ele>
<speed>5.0</speed>
<course>138.8</course>
<desc>Speed 5.0 km/h Distance 2.50 km</desc>
<time>2010-02-25T16:45:04.79</time>
<name>1727</name>
</trkpt>
<trkpt lat="48.932422" lon="8.652122">
<ele>379.0</ele>
<speed>5.1</speed>
<course>138.7</course>
<desc>Speed 5.1 km/h Distance 2.50 km</desc>
<time>2010-02-25T16:45:05.79</time>
<name>1728</name>
</trkpt>
<trkpt lat="48.932412" lon="8.652135">
<ele>379.0</ele>
<speed>5.2</speed>
<course>143.1</course>
<desc>Speed 5.2 km/h Distance 2.50 km</desc>
<time>2010-02-25T16:45:06.79</time>
<name>1729</name>
</trkpt>
<trkpt lat="48.932400" lon="8.652148">
<ele>379.0</ele>
<speed>5.5</speed>
<course>146.9</course>
<desc>Speed 5.5 km/h Distance 2.50 km</desc>
<time>2010-02-25T16:45:07.79</time>
<name>1730</name>
</trkpt>
<trkpt lat="48.932388" lon="8.652160">
<ele>379.0</ele>
<speed>5.0</speed>
<course>138.7</course>
<desc>Speed 5.0 km/h Distance 2.50 km</desc>
<time>2010-02-25T16:45:08.79</time>
<name>1731</name>
</trkpt>
<trkpt lat="48.932378" lon="8.652173">
<ele>379.0</ele>
<speed>5.0</speed>
<course>146.6</course>
<desc>Speed 5.0 km/h Distance 2.51 km</desc>
<time>2010-02-25T16:45:09.79</time>
<name>1732</name>
</trkpt>
<trkpt lat="48.932368" lon="8.652183">
<ele>379.0</ele>
<speed>4.7</speed>
<course>150.6</course>
<desc>Speed 4.7 km/h Distance 2.51 km</desc>
<time>2010-02-25T16:45:10.79</time>
<name>1733</name>
</trkpt>
<trkpt lat="48.932357" lon="8.652193">
<ele>379.0</ele>
<speed>4.9</speed>
<course>155.1</course>
<desc>Speed 4.9 km/h Distance 2.51 km</desc>
<time>2010-02-25T16:45:11.79</time>
<name>1734</name>
</trkpt>
<trkpt lat="48.932345" lon="8.652202">
<ele>379.0</ele>
<speed>5.3</speed>
<course>155.1</course>
<desc>Speed 5.3 km/h Distance 2.51 km</desc>
<time>2010-02-25T16:45:12.79</time>
<name>1735</name>
</trkpt>
<trkpt lat="48.932333" lon="8.652210">
<ele>378.5</ele>
<speed>4.9</speed>
<course>146.8</course>
<desc>Speed 4.9 km/h Distance 2.51 km</desc>
<time>2010-02-25T16:45:13.79</time>
<name>1736</name>
</trkpt>
<trkpt lat="48.932323" lon="8.652220">
<ele>379.0</ele>
<speed>4.9</speed>
<course>138.8</course>
<desc>Speed 4.9 km/h Distance 2.51 km</desc>
<time>2010-02-25T16:45:14.79</time>
<name>1737</name>
</trkpt>
<trkpt lat="48.932313" lon="8.652233">
<ele>378.5</ele>
<speed>5.1</speed>
<course>138.7</course>
<desc>Speed 5.1 km/h Distance 2.51 km</desc>
<time>2010-02-25T16:45:15.79</time>
<name>1738</name>
</trkpt>
<trkpt lat="48.932303" lon="8.652247">
<ele>378.5</ele>
<speed>4.9</speed>
<course>138.6</course>
<desc>Speed 4.9 km/h Distance 2.52 km</desc>
<time>2010-02-25T16:45:16.79</time>
<name>1739</name>
</trkpt>
<trkpt lat="48.932293" lon="8.652260">
<ele>379.0</ele>
<speed>5.1</speed>
<course>130.3</course>
<desc>Speed 5.1 km/h Distance 2.52 km</desc>
<time>2010-02-25T16:45:17.79</time>
<name>1740</name>
</trkpt>
<trkpt lat="48.932285" lon="8.652275">
<ele>379.0</ele>
<speed>5.3</speed>
<course>130.3</course>
<desc>Speed 5.3 km/h Distance 2.52 km</desc>
<time>2010-02-25T16:45:18.79</time>
<name>1741</name>
</trkpt>
<trkpt lat="48.932277" lon="8.652290">
<ele>379.5</ele>
<speed>5.3</speed>
<course>124.7</course>
<desc>Speed 5.3 km/h Distance 2.52 km</desc>
<time>2010-02-25T16:45:19.79</time>
<name>1742</name>
</trkpt>
<trkpt lat="48.932268" lon="8.652308">
<ele>379.0</ele>
<speed>5.5</speed>
<course>129.6</course>
<desc>Speed 5.5 km/h Distance 2.52 km</desc>
<time>2010-02-25T16:45:20.79</time>
<name>1743</name>
</trkpt>
<trkpt lat="48.932258" lon="8.652327">
<ele>379.5</ele>
<speed>5.6</speed>
<course>122.4</course>
<desc>Speed 5.6 km/h Distance 2.52 km</desc>
<time>2010-02-25T16:45:21.79</time>
<name>1744</name>
</trkpt>
<trkpt lat="48.932250" lon="8.652347">
<ele>379.5</ele>
<speed>5.8</speed>
<course>118.5</course>
<desc>Speed 5.8 km/h Distance 2.52 km</desc>
<time>2010-02-25T16:45:22.79</time>
<name>1745</name>
</trkpt>
<trkpt lat="48.932242" lon="8.652370">
<ele>379.5</ele>
<speed>6.1</speed>
<course>115.1</course>
<desc>Speed 6.1 km/h Distance 2.53 km</desc>
<time>2010-02-25T16:45:23.79</time>
<name>1746</name>
</trkpt>
<trkpt lat="48.932235" lon="8.652392">
<ele>379.0</ele>
<speed>6.0</speed>
<course>118.5</course>
<desc>Speed 6.0 km/h Distance 2.53 km</desc>
<time>2010-02-25T16:45:24.79</time>
<name>1747</name>
</trkpt>
<trkpt lat="48.932227" lon="8.652415">
<ele>379.0</ele>
<speed>5.9</speed>
<course>109.4</course>
<desc>Speed 5.9 km/h Distance 2.53 km</desc>
<time>2010-02-25T16:45:25.79</time>
<name>1748</name>
</trkpt>
<trkpt lat="48.932222" lon="8.652437">
<ele>379.5</ele>
<speed>5.9</speed>
<course>116.9</course>
<desc>Speed 5.9 km/h Distance 2.53 km</desc>
<time>2010-02-25T16:45:26.79</time>
<name>1749</name>
</trkpt>
<trkpt lat="48.932213" lon="8.652462">
<ele>379.0</ele>
<speed>6.0</speed>
<course>113.5</course>
<desc>Speed 6.0 km/h Distance 2.53 km</desc>
<time>2010-02-25T16:45:27.79</time>
<name>1750</name>
</trkpt>
<trkpt lat="48.932207" lon="8.652485">
<ele>379.0</ele>
<speed>6.0</speed>
<course>113.5</course>
<desc>Speed 6.0 km/h Distance 2.54 km</desc>
<time>2010-02-25T16:45:28.79</time>
<name>1751</name>
</trkpt>
<trkpt lat="48.932200" lon="8.652508">
<ele>379.0</ele>
<speed>6.1</speed>
<course>112.1</course>
<desc>Speed 6.1 km/h Distance 2.54 km</desc>
<time>2010-02-25T16:45:29.79</time>
<name>1752</name>
</trkpt>
<trkpt lat="48.932193" lon="8.652533">
<ele>379.0</ele>
<speed>5.9</speed>
<course>122.4</course>
<desc>Speed 5.9 km/h Distance 2.54 km</desc>
<time>2010-02-25T16:45:30.79</time>
<name>1753</name>
</trkpt>
<trkpt lat="48.932185" lon="8.652553">
<ele>379.0</ele>
<speed>5.8</speed>
<course>118.5</course>
<desc>Speed 5.8 km/h Distance 2.54 km</desc>
<time>2010-02-25T16:45:31.79</time>
<name>1754</name>
</trkpt>
<trkpt lat="48.932177" lon="8.652577">
<ele>379.0</ele>
<speed>5.9</speed>
<course>113.5</course>
<desc>Speed 5.9 km/h Distance 2.54 km</desc>
<time>2010-02-25T16:45:32.79</time>
<name>1755</name>
</trkpt>
<trkpt lat="48.932170" lon="8.652600">
<ele>379.0</ele>
<speed>6.0</speed>
<course>120.4</course>
<desc>Speed 6.0 km/h Distance 2.55 km</desc>
<time>2010-02-25T16:45:33.79</time>
<name>1756</name>
</trkpt>
<trkpt lat="48.932162" lon="8.652622">
<ele>379.0</ele>
<speed>5.9</speed>
<course>113.5</course>
<desc>Speed 5.9 km/h Distance 2.55 km</desc>
<time>2010-02-25T16:45:34.79</time>
<name>1757</name>
</trkpt>
<trkpt lat="48.932155" lon="8.652645">
<ele>378.5</ele>
<speed>5.7</speed>
<course>118.5</course>
<desc>Speed 5.7 km/h Distance 2.55 km</desc>
<time>2010-02-25T16:45:35.79</time>
<name>1758</name>
</trkpt>
<trkpt lat="48.932147" lon="8.652668">
<ele>378.5</ele>
<speed>5.8</speed>
<course>108.1</course>
<desc>Speed 5.8 km/h Distance 2.55 km</desc>
<time>2010-02-25T16:45:36.79</time>
<name>1759</name>
</trkpt>
<trkpt lat="48.932142" lon="8.652692">
<ele>379.0</ele>
<speed>6.0</speed>
<course>113.5</course>
<desc>Speed 6.0 km/h Distance 2.55 km</desc>
<time>2010-02-25T16:45:37.79</time>
<name>1760</name>
</trkpt>
<trkpt lat="48.932135" lon="8.652715">
<ele>378.5</ele>
<speed>6.3</speed>
<course>120.4</course>
<desc>Speed 6.3 km/h Distance 2.55 km</desc>
<time>2010-02-25T16:45:38.79</time>
<name>1761</name>
</trkpt>
<trkpt lat="48.932127" lon="8.652737">
<ele>379.0</ele>
<speed>6.1</speed>
<course>116.9</course>
<desc>Speed 6.1 km/h Distance 2.56 km</desc>
<time>2010-02-25T16:45:39.79</time>
<name>1762</name>
</trkpt>
<trkpt lat="48.932120" lon="8.652757">
<ele>378.5</ele>
<speed>5.9</speed>
<course>115.1</course>
<desc>Speed 5.9 km/h Distance 2.56 km</desc>
<time>2010-02-25T16:45:40.79</time>
<name>1763</name>
</trkpt>
<trkpt lat="48.932113" lon="8.652778">
<ele>378.5</ele>
<speed>5.9</speed>
<course>115.1</course>
<desc>Speed 5.9 km/h Distance 2.56 km</desc>
<time>2010-02-25T16:45:41.79</time>
<name>1764</name>
</trkpt>
<trkpt lat="48.932107" lon="8.652800">
<ele>378.5</ele>
<speed>5.8</speed>
<course>113.5</course>
<desc>Speed 5.8 km/h Distance 2.56 km</desc>
<time>2010-02-25T16:45:42.79</time>
<name>1765</name>
</trkpt>
<trkpt lat="48.932100" lon="8.652823">
<ele>378.0</ele>
<speed>5.9</speed>
<course>115.1</course>
<desc>Speed 5.9 km/h Distance 2.56 km</desc>
<time>2010-02-25T16:45:43.79</time>
<name>1766</name>
</trkpt>
<trkpt lat="48.932093" lon="8.652845">
<ele>378.0</ele>
<speed>5.9</speed>
<course>113.5</course>
<desc>Speed 5.9 km/h Distance 2.57 km</desc>
<time>2010-02-25T16:45:44.79</time>
<name>1767</name>
</trkpt>
<trkpt lat="48.932087" lon="8.652868">
<ele>377.5</ele>
<speed>5.9</speed>
<course>115.1</course>
<desc>Speed 5.9 km/h Distance 2.57 km</desc>
<time>2010-02-25T16:45:45.79</time>
<name>1768</name>
</trkpt>
<trkpt lat="48.932080" lon="8.652890">
<ele>377.5</ele>
<speed>5.9</speed>
<course>116.9</course>
<desc>Speed 5.9 km/h Distance 2.57 km</desc>
<time>2010-02-25T16:45:46.79</time>
<name>1769</name>
</trkpt>
<trkpt lat="48.932073" lon="8.652910">
<ele>377.5</ele>
<speed>5.9</speed>
<course>115.1</course>
<desc>Speed 5.9 km/h Distance 2.57 km</desc>
<time>2010-02-25T16:45:47.79</time>
<name>1770</name>
</trkpt>
<trkpt lat="48.932067" lon="8.652932">
<ele>377.0</ele>
<speed>5.9</speed>
<course>115.1</course>
<desc>Speed 5.9 km/h Distance 2.57 km</desc>
<time>2010-02-25T16:45:48.79</time>
<name>1771</name>
</trkpt>
<trkpt lat="48.932060" lon="8.652953">
<ele>377.0</ele>
<speed>5.9</speed>
<course>115.1</course>
<desc>Speed 5.9 km/h Distance 2.57 km</desc>
<time>2010-02-25T16:45:49.79</time>
<name>1772</name>
</trkpt>
<trkpt lat="48.932053" lon="8.652975">
<ele>377.0</ele>
<speed>6.0</speed>
<course>109.4</course>
<desc>Speed 6.0 km/h Distance 2.58 km</desc>
<time>2010-02-25T16:45:50.79</time>
<name>1773</name>
</trkpt>
<trkpt lat="48.932048" lon="8.652997">
<ele>377.0</ele>
<speed>6.0</speed>
<course>120.3</course>
<desc>Speed 6.0 km/h Distance 2.58 km</desc>
<time>2010-02-25T16:45:51.79</time>
<name>1774</name>
</trkpt>
<trkpt lat="48.932040" lon="8.653018">
<ele>377.0</ele>
<speed>6.0</speed>
<course>109.4</course>
<desc>Speed 6.0 km/h Distance 2.58 km</desc>
<time>2010-02-25T16:45:52.79</time>
<name>1775</name>
</trkpt>
<trkpt lat="48.932035" lon="8.653040">
<ele>377.0</ele>
<speed>5.9</speed>
<course>103.2</course>
<desc>Speed 5.9 km/h Distance 2.58 km</desc>
<time>2010-02-25T16:45:53.79</time>
<name>1776</name>
</trkpt>
<trkpt lat="48.932032" lon="8.653062">
<ele>376.5</ele>
<speed>5.7</speed>
<course>109.3</course>
<desc>Speed 5.7 km/h Distance 2.58 km</desc>
<time>2010-02-25T16:45:54.79</time>
<name>1777</name>
</trkpt>
<trkpt lat="48.932027" lon="8.653083">
<ele>376.5</ele>
<speed>5.7</speed>
<course>116.9</course>
<desc>Speed 5.7 km/h Distance 2.58 km</desc>
<time>2010-02-25T16:45:55.79</time>
<name>1778</name>
</trkpt>
<trkpt lat="48.932020" lon="8.653103">
<ele>377.0</ele>
<speed>5.7</speed>
<course>119.0</course>
<desc>Speed 5.7 km/h Distance 2.59 km</desc>
<time>2010-02-25T16:45:56.79</time>
<name>1779</name>
</trkpt>
<trkpt lat="48.932013" lon="8.653122">
<ele>377.0</ele>
<speed>5.6</speed>
<course>124.7</course>
<desc>Speed 5.6 km/h Distance 2.59 km</desc>
<time>2010-02-25T16:45:57.79</time>
<name>1780</name>
</trkpt>
<trkpt lat="48.932005" lon="8.653140">
<ele>377.0</ele>
<speed>5.8</speed>
<course>119.0</course>
<desc>Speed 5.8 km/h Distance 2.59 km</desc>
<time>2010-02-25T16:45:58.79</time>
<name>1781</name>
</trkpt>
<trkpt lat="48.931998" lon="8.653158">
<ele>377.0</ele>
<speed>5.6</speed>
<course>129.7</course>
<desc>Speed 5.6 km/h Distance 2.59 km</desc>
<time>2010-02-25T16:45:59.79</time>
<name>1782</name>
</trkpt>
<trkpt lat="48.931988" lon="8.653177">
<ele>377.0</ele>
<speed>6.0</speed>
<course>130.1</course>
<desc>Speed 6.0 km/h Distance 2.59 km</desc>
<time>2010-02-25T16:46:00.79</time>
<name>1783</name>
</trkpt>
<trkpt lat="48.931980" lon="8.653192">
<ele>377.0</ele>
<speed>5.7</speed>
<course>135.5</course>
<desc>Speed 5.7 km/h Distance 2.59 km</desc>
<time>2010-02-25T16:46:01.79</time>
<name>1784</name>
</trkpt>
<trkpt lat="48.931970" lon="8.653207">
<ele>377.0</ele>
<speed>5.4</speed>
<course>146.6</course>
<desc>Speed 5.4 km/h Distance 2.60 km</desc>
<time>2010-02-25T16:46:02.79</time>
<name>1785</name>
</trkpt>
<trkpt lat="48.931958" lon="8.653218">
<ele>376.5</ele>
<speed>5.6</speed>
<course>154.8</course>
<desc>Speed 5.6 km/h Distance 2.60 km</desc>
<time>2010-02-25T16:46:03.79</time>
<name>1786</name>
</trkpt>
<trkpt lat="48.931947" lon="8.653227">
<ele>376.0</ele>
<speed>5.0</speed>
<course>137.5</course>
<desc>Speed 5.0 km/h Distance 2.60 km</desc>
<time>2010-02-25T16:46:04.79</time>
<name>1787</name>
</trkpt>
<trkpt lat="48.931938" lon="8.653238">
<ele>375.5</ele>
<speed>4.9</speed>
<course>137.4</course>
<desc>Speed 4.9 km/h Distance 2.60 km</desc>
<time>2010-02-25T16:46:05.79</time>
<name>1788</name>
</trkpt>
<trkpt lat="48.931930" lon="8.653250">
<ele>376.0</ele>
<speed>4.5</speed>
<course>156.6</course>
<desc>Speed 4.5 km/h Distance 2.60 km</desc>
<time>2010-02-25T16:46:06.79</time>
<name>1789</name>
</trkpt>
<trkpt lat="48.931920" lon="8.653257">
<ele>375.0</ele>
<speed>4.4</speed>
<course>164.0</course>
<desc>Speed 4.4 km/h Distance 2.60 km</desc>
<time>2010-02-25T16:46:07.79</time>
<name>1790</name>
</trkpt>
<trkpt lat="48.931913" lon="8.653260">
<ele>374.5</ele>
<speed>3.1</speed>
<course>152.5</course>
<desc>Speed 3.1 km/h Distance 2.60 km</desc>
<time>2010-02-25T16:46:08.79</time>
<name>1791</name>
</trkpt>
<trkpt lat="48.931905" lon="8.653267">
<ele>374.0</ele>
<speed>3.6</speed>
<course>141.9</course>
<desc>Speed 3.6 km/h Distance 2.60 km</desc>
<time>2010-02-25T16:46:09.79</time>
<name>1792</name>
</trkpt>
<trkpt lat="48.931897" lon="8.653277">
<ele>374.0</ele>
<speed>4.4</speed>
<course>135.5</course>
<desc>Speed 4.4 km/h Distance 2.61 km</desc>
<time>2010-02-25T16:46:10.79</time>
<name>1793</name>
</trkpt>
<trkpt lat="48.931890" lon="8.653287">
<ele>373.5</ele>
<speed>4.0</speed>
<course>140.6</course>
<desc>Speed 4.0 km/h Distance 2.61 km</desc>
<time>2010-02-25T16:46:11.79</time>
<name>1794</name>
</trkpt>
<trkpt lat="48.931883" lon="8.653295">
<ele>374.0</ele>
<speed>3.5</speed>
<course>127.2</course>
<desc>Speed 3.5 km/h Distance 2.61 km</desc>
<time>2010-02-25T16:46:12.79</time>
<name>1795</name>
</trkpt>
<trkpt lat="48.931877" lon="8.653308">
<ele>374.0</ele>
<speed>4.3</speed>
<course>130.9</course>
<desc>Speed 4.3 km/h Distance 2.61 km</desc>
<time>2010-02-25T16:46:13.79</time>
<name>1796</name>
</trkpt>
<trkpt lat="48.931870" lon="8.653320">
<ele>374.0</ele>
<speed>4.1</speed>
<course>130.2</course>
<desc>Speed 4.1 km/h Distance 2.61 km</desc>
<time>2010-02-25T16:46:14.79</time>
<name>1797</name>
</trkpt>
<trkpt lat="48.931862" lon="8.653335">
<ele>373.0</ele>
<speed>5.0</speed>
<course>119.7</course>
<desc>Speed 5.0 km/h Distance 2.61 km</desc>
<time>2010-02-25T16:46:15.79</time>
<name>1798</name>
</trkpt>
<trkpt lat="48.931857" lon="8.653348">
<ele>373.5</ele>
<speed>3.9</speed>
<course>116.9</course>
<desc>Speed 3.9 km/h Distance 2.61 km</desc>
<time>2010-02-25T16:46:16.79</time>
<name>1799</name>
</trkpt>
<trkpt lat="48.931852" lon="8.653363">
<ele>373.5</ele>
<speed>4.4</speed>
<course>131.3</course>
<desc>Speed 4.4 km/h Distance 2.61 km</desc>
<time>2010-02-25T16:46:17.79</time>
<name>1800</name>
</trkpt>
<trkpt lat="48.931845" lon="8.653375">
<ele>374.0</ele>
<speed>3.2</speed>
<course>113.6</course>
<desc>Speed 3.2 km/h Distance 2.61 km</desc>
<time>2010-02-25T16:46:18.79</time>
<name>1801</name>
</trkpt>
<trkpt lat="48.931842" lon="8.653387">
<ele>374.0</ele>
<speed>3.4</speed>
<course>130.3</course>
<desc>Speed 3.4 km/h Distance 2.62 km</desc>
<time>2010-02-25T16:46:19.79</time>
<name>1802</name>
</trkpt>
<trkpt lat="48.931833" lon="8.653402">
<ele>373.5</ele>
<speed>4.8</speed>
<course>130.9</course>
<desc>Speed 4.8 km/h Distance 2.62 km</desc>
<time>2010-02-25T16:46:20.79</time>
<name>1803</name>
</trkpt>
<trkpt lat="48.931827" lon="8.653413">
<ele>374.5</ele>
<speed>4.5</speed>
<course>147.4</course>
<desc>Speed 4.5 km/h Distance 2.62 km</desc>
<time>2010-02-25T16:46:21.79</time>
<name>1804</name>
</trkpt>
<trkpt lat="48.931820" lon="8.653420">
<ele>375.0</ele>
<speed>3.2</speed>
<course>140.6</course>
<desc>Speed 3.2 km/h Distance 2.62 km</desc>
<time>2010-02-25T16:46:22.79</time>
<name>1805</name>
</trkpt>
<trkpt lat="48.931813" lon="8.653428">
<ele>375.0</ele>
<speed>3.2</speed>
<course>130.9</course>
<desc>Speed 3.2 km/h Distance 2.62 km</desc>
<time>2010-02-25T16:46:23.79</time>
<name>1806</name>
</trkpt>
<trkpt lat="48.931807" lon="8.653440">
<ele>375.0</ele>
<speed>4.2</speed>
<course>146.8</course>
<desc>Speed 4.2 km/h Distance 2.62 km</desc>
<time>2010-02-25T16:46:24.79</time>
<name>1807</name>
</trkpt>
<trkpt lat="48.931798" lon="8.653448">
<ele>375.0</ele>
<speed>4.3</speed>
<course>152.5</course>
<desc>Speed 4.3 km/h Distance 2.62 km</desc>
<time>2010-02-25T16:46:25.79</time>
<name>1808</name>
</trkpt>
<trkpt lat="48.931790" lon="8.653455">
<ele>375.5</ele>
<speed>3.7</speed>
<course>146.8</course>
<desc>Speed 3.7 km/h Distance 2.62 km</desc>
<time>2010-02-25T16:46:26.79</time>
<name>1809</name>
</trkpt>
<trkpt lat="48.931785" lon="8.653460">
<ele>375.5</ele>
<speed>2.4</speed>
<course>138.1</course>
<desc>Speed 2.4 km/h Distance 2.62 km</desc>
<time>2010-02-25T16:46:27.79</time>
<name>1810</name>
</trkpt>
<trkpt lat="48.931780" lon="8.653467">
<ele>376.0</ele>
<speed>3.0</speed>
<course>140.6</course>
<desc>Speed 3.0 km/h Distance 2.62 km</desc>
<time>2010-02-25T16:46:28.79</time>
<name>1811</name>
</trkpt>
<trkpt lat="48.931773" lon="8.653475">
<ele>376.5</ele>
<speed>3.5</speed>
<course>155.1</course>
<desc>Speed 3.5 km/h Distance 2.63 km</desc>
<time>2010-02-25T16:46:29.79</time>
<name>1812</name>
</trkpt>
<trkpt lat="48.931762" lon="8.653483">
<ele>376.5</ele>
<speed>5.0</speed>
<course>146.8</course>
<desc>Speed 5.0 km/h Distance 2.63 km</desc>
<time>2010-02-25T16:46:30.79</time>
<name>1813</name>
</trkpt>
<trkpt lat="48.931752" lon="8.653493">
<ele>377.0</ele>
<speed>4.9</speed>
<course>135.5</course>
<desc>Speed 4.9 km/h Distance 2.63 km</desc>
<time>2010-02-25T16:46:31.79</time>
<name>1814</name>
</trkpt>
<trkpt lat="48.931745" lon="8.653503">
<ele>378.0</ele>
<speed>4.3</speed>
<course>137.4</course>
<desc>Speed 4.3 km/h Distance 2.63 km</desc>
<time>2010-02-25T16:46:32.79</time>
<name>1815</name>
</trkpt>
<trkpt lat="48.931737" lon="8.653515">
<ele>378.5</ele>
<speed>4.4</speed>
<course>121.4</course>
<desc>Speed 4.4 km/h Distance 2.63 km</desc>
<time>2010-02-25T16:46:33.79</time>
<name>1816</name>
</trkpt>
<trkpt lat="48.931730" lon="8.653532">
<ele>378.5</ele>
<speed>5.4</speed>
<course>137.4</course>
<desc>Speed 5.4 km/h Distance 2.63 km</desc>
<time>2010-02-25T16:46:34.79</time>
<name>1817</name>
</trkpt>
<trkpt lat="48.931722" lon="8.653543">
<ele>379.5</ele>
<speed>4.6</speed>
<course>151.4</course>
<desc>Speed 4.6 km/h Distance 2.63 km</desc>
<time>2010-02-25T16:46:35.79</time>
<name>1818</name>
</trkpt>
<trkpt lat="48.931712" lon="8.653552">
<ele>379.0</ele>
<speed>4.3</speed>
<course>133.6</course>
<desc>Speed 4.3 km/h Distance 2.63 km</desc>
<time>2010-02-25T16:46:36.79</time>
<name>1819</name>
</trkpt>
<trkpt lat="48.931703" lon="8.653565">
<ele>379.0</ele>
<speed>4.9</speed>
<course>142.8</course>
<desc>Speed 4.9 km/h Distance 2.64 km</desc>
<time>2010-02-25T16:46:37.79</time>
<name>1820</name>
</trkpt>
<trkpt lat="48.931692" lon="8.653578">
<ele>379.0</ele>
<speed>5.0</speed>
<course>135.3</course>
<desc>Speed 5.0 km/h Distance 2.64 km</desc>
<time>2010-02-25T16:46:38.79</time>
<name>1821</name>
</trkpt>
<trkpt lat="48.931682" lon="8.653593">
<ele>379.5</ele>
<speed>5.1</speed>
<course>136.8</course>
<desc>Speed 5.1 km/h Distance 2.64 km</desc>
<time>2010-02-25T16:46:39.79</time>
<name>1822</name>
</trkpt>
<trkpt lat="48.931670" lon="8.653610">
<ele>379.5</ele>
<speed>5.0</speed>
<course>146.8</course>
<desc>Speed 5.0 km/h Distance 2.64 km</desc>
<time>2010-02-25T16:46:40.79</time>
<name>1823</name>
</trkpt>
<trkpt lat="48.931662" lon="8.653618">
<ele>380.0</ele>
<speed>3.9</speed>
<course>162.4</course>
<desc>Speed 3.9 km/h Distance 2.64 km</desc>
<time>2010-02-25T16:46:41.79</time>
<name>1824</name>
</trkpt>
<trkpt lat="48.931652" lon="8.653623">
<ele>380.5</ele>
<speed>4.0</speed>
<course>165.1</course>
<desc>Speed 4.0 km/h Distance 2.64 km</desc>
<time>2010-02-25T16:46:42.79</time>
<name>1825</name>
</trkpt>
<trkpt lat="48.931643" lon="8.653627">
<ele>382.0</ele>
<speed>3.9</speed>
<course>142.5</course>
<desc>Speed 3.9 km/h Distance 2.64 km</desc>
<time>2010-02-25T16:46:43.79</time>
<name>1826</name>
</trkpt>
<trkpt lat="48.931633" lon="8.653638">
<ele>382.0</ele>
<speed>4.9</speed>
<course>141.9</course>
<desc>Speed 4.9 km/h Distance 2.65 km</desc>
<time>2010-02-25T16:46:44.79</time>
<name>1827</name>
</trkpt>
<trkpt lat="48.931625" lon="8.653648">
<ele>382.5</ele>
<speed>4.2</speed>
<course>132.2</course>
<desc>Speed 4.2 km/h Distance 2.65 km</desc>
<time>2010-02-25T16:46:45.79</time>
<name>1828</name>
</trkpt>
<trkpt lat="48.931620" lon="8.653657">
<ele>383.0</ele>
<speed>3.3</speed>
<course>132.2</course>
<desc>Speed 3.3 km/h Distance 2.65 km</desc>
<time>2010-02-25T16:46:46.79</time>
<name>1829</name>
</trkpt>
<trkpt lat="48.931615" lon="8.653665">
<ele>383.0</ele>
<speed>3.1</speed>
<course>146.8</course>
<desc>Speed 3.1 km/h Distance 2.65 km</desc>
<time>2010-02-25T16:46:47.79</time>
<name>1830</name>
</trkpt>
<trkpt lat="48.931607" lon="8.653673">
<ele>383.5</ele>
<speed>3.9</speed>
<course>135.5</course>
<desc>Speed 3.9 km/h Distance 2.65 km</desc>
<time>2010-02-25T16:46:48.79</time>
<name>1831</name>
</trkpt>
<trkpt lat="48.931600" lon="8.653683">
<ele>384.0</ele>
<speed>4.0</speed>
<course>130.9</course>
<desc>Speed 4.0 km/h Distance 2.65 km</desc>
<time>2010-02-25T16:46:49.79</time>
<name>1832</name>
</trkpt>
<trkpt lat="48.931593" lon="8.653695">
<ele>384.0</ele>
<speed>4.2</speed>
<course>138.8</course>
<desc>Speed 4.2 km/h Distance 2.65 km</desc>
<time>2010-02-25T16:46:50.79</time>
<name>1833</name>
</trkpt>
<trkpt lat="48.931578" lon="8.653715">
<ele>384.0</ele>
<speed>5.4</speed>
<course>138.8</course>
<desc>Speed 5.4 km/h Distance 2.65 km</desc>
<time>2010-02-25T16:46:51.79</time>
<name>1834</name>
</trkpt>
<trkpt lat="48.931568" lon="8.653728">
<ele>384.5</ele>
<speed>5.2</speed>
<course>138.8</course>
<desc>Speed 5.2 km/h Distance 2.66 km</desc>
<time>2010-02-25T16:46:52.79</time>
<name>1835</name>
</trkpt>
<trkpt lat="48.931558" lon="8.653742">
<ele>385.0</ele>
<speed>5.4</speed>
<course>146.8</course>
<desc>Speed 5.4 km/h Distance 2.66 km</desc>
<time>2010-02-25T16:46:53.79</time>
<name>1836</name>
</trkpt>
<trkpt lat="48.931550" lon="8.653750">
<ele>385.5</ele>
<speed>3.7</speed>
<course>146.8</course>
<desc>Speed 3.7 km/h Distance 2.66 km</desc>
<time>2010-02-25T16:46:54.79</time>
<name>1837</name>
</trkpt>
<trkpt lat="48.931542" lon="8.653758">
<ele>386.0</ele>
<speed>4.2</speed>
<course>141.6</course>
<desc>Speed 4.2 km/h Distance 2.66 km</desc>
<time>2010-02-25T16:46:55.79</time>
<name>1838</name>
</trkpt>
<trkpt lat="48.931533" lon="8.653768">
<ele>386.0</ele>
<speed>4.0</speed>
<course>138.8</course>
<desc>Speed 4.0 km/h Distance 2.66 km</desc>
<time>2010-02-25T16:46:56.79</time>
<name>1839</name>
</trkpt>
<trkpt lat="48.931523" lon="8.653782">
<ele>385.5</ele>
<speed>4.6</speed>
<course>130.9</course>
<desc>Speed 4.6 km/h Distance 2.66 km</desc>
<time>2010-02-25T16:46:57.79</time>
<name>1840</name>
</trkpt>
<trkpt lat="48.931517" lon="8.653793">
<ele>386.0</ele>
<speed>4.7</speed>
<course>303.1</course>
<desc>Speed 4.7 km/h Distance 2.66 km</desc>
<time>2010-02-25T16:46:58.79</time>
<name>1841</name>
</trkpt>
<trkpt lat="48.931522" lon="8.653782">
<ele>386.5</ele>
<speed>4.1</speed>
<course>131.6</course>
<desc>Speed 4.1 km/h Distance 2.66 km</desc>
<time>2010-02-25T16:46:59.79</time>
<name>1842</name>
</trkpt>
<trkpt lat="48.931510" lon="8.653802">
<ele>388.0</ele>
<speed>7.3</speed>
<course>137.4</course>
<desc>Speed 7.3 km/h Distance 2.67 km</desc>
<time>2010-02-25T16:47:00.79</time>
<name>1843</name>
</trkpt>
<trkpt lat="48.931502" lon="8.653813">
<ele>388.0</ele>
<speed>4.2</speed>
<course>130.9</course>
<desc>Speed 4.2 km/h Distance 2.67 km</desc>
<time>2010-02-25T16:47:01.79</time>
<name>1844</name>
</trkpt>
<trkpt lat="48.931495" lon="8.653825">
<ele>388.0</ele>
<speed>3.7</speed>
<course>140.6</course>
<desc>Speed 3.7 km/h Distance 2.67 km</desc>
<time>2010-02-25T16:47:02.79</time>
<name>1845</name>
</trkpt>
<trkpt lat="48.931488" lon="8.653833">
<ele>388.5</ele>
<speed>3.7</speed>
<course>135.5</course>
<desc>Speed 3.7 km/h Distance 2.67 km</desc>
<time>2010-02-25T16:47:03.79</time>
<name>1846</name>
</trkpt>
<trkpt lat="48.931482" lon="8.653843">
<ele>388.5</ele>
<speed>3.9</speed>
<course>135.5</course>
<desc>Speed 3.9 km/h Distance 2.67 km</desc>
<time>2010-02-25T16:47:04.79</time>
<name>1847</name>
</trkpt>
<trkpt lat="48.931472" lon="8.653858">
<ele>388.5</ele>
<speed>5.2</speed>
<course>138.8</course>
<desc>Speed 5.2 km/h Distance 2.67 km</desc>
<time>2010-02-25T16:47:05.79</time>
<name>1848</name>
</trkpt>
<trkpt lat="48.931462" lon="8.653872">
<ele>388.5</ele>
<speed>4.8</speed>
<course>135.5</course>
<desc>Speed 4.8 km/h Distance 2.67 km</desc>
<time>2010-02-25T16:47:06.79</time>
<name>1849</name>
</trkpt>
<trkpt lat="48.931455" lon="8.653882">
<ele>389.5</ele>
<speed>3.2</speed>
<course>131.1</course>
<desc>Speed 3.2 km/h Distance 2.67 km</desc>
<time>2010-02-25T16:47:07.79</time>
<name>1850</name>
</trkpt>
<trkpt lat="48.931448" lon="8.653893">
<ele>390.0</ele>
<speed>3.4</speed>
<course>151.4</course>
<desc>Speed 3.4 km/h Distance 2.68 km</desc>
<time>2010-02-25T16:47:08.79</time>
<name>1851</name>
</trkpt>
<trkpt lat="48.931438" lon="8.653902">
<ele>389.5</ele>
<speed>4.0</speed>
<course>133.6</course>
<desc>Speed 4.0 km/h Distance 2.68 km</desc>
<time>2010-02-25T16:47:09.79</time>
<name>1852</name>
</trkpt>
<trkpt lat="48.931430" lon="8.653915">
<ele>389.5</ele>
<speed>4.7</speed>
<course>142.5</course>
<desc>Speed 4.7 km/h Distance 2.68 km</desc>
<time>2010-02-25T16:47:10.79</time>
<name>1853</name>
</trkpt>
<trkpt lat="48.931420" lon="8.653927">
<ele>389.5</ele>
<speed>4.6</speed>
<course>135.5</course>
<desc>Speed 4.6 km/h Distance 2.68 km</desc>
<time>2010-02-25T16:47:11.79</time>
<name>1854</name>
</trkpt>
<trkpt lat="48.931413" lon="8.653937">
<ele>389.0</ele>
<speed>3.3</speed>
<course>135.5</course>
<desc>Speed 3.3 km/h Distance 2.68 km</desc>
<time>2010-02-25T16:47:12.79</time>
<name>1855</name>
</trkpt>
<trkpt lat="48.931407" lon="8.653947">
<ele>389.5</ele>
<speed>3.7</speed>
<course>127.2</course>
<desc>Speed 3.7 km/h Distance 2.68 km</desc>
<time>2010-02-25T16:47:13.79</time>
<name>1856</name>
</trkpt>
<trkpt lat="48.931402" lon="8.653957">
<ele>389.0</ele>
<speed>2.8</speed>
<course>127.4</course>
<desc>Speed 2.8 km/h Distance 2.68 km</desc>
<time>2010-02-25T16:47:14.79</time>
<name>1857</name>
</trkpt>
<trkpt lat="48.931397" lon="8.653967">
<ele>388.0</ele>
<speed>2.5</speed>
<course>164.0</course>
<desc>Speed 2.5 km/h Distance 2.68 km</desc>
<time>2010-02-25T16:47:15.79</time>
<name>1858</name>
</trkpt>
<trkpt lat="48.931390" lon="8.653970">
<ele>389.5</ele>
<speed>2.7</speed>
<course>140.9</course>
<desc>Speed 2.7 km/h Distance 2.68 km</desc>
<time>2010-02-25T16:47:16.79</time>
<name>1859</name>
</trkpt>
<trkpt lat="48.931362" lon="8.654005">
<ele>392.5</ele>
<speed>3.5</speed>
<course>135.5</course>
<desc>Speed 3.5 km/h Distance 2.69 km</desc>
<time>2010-02-25T16:47:18.79</time>
<name>1860</name>
</trkpt>
<trkpt lat="48.931345" lon="8.654030">
<ele>393.0</ele>
<speed>1.7</speed>
<course>132.2</course>
<desc>Speed 1.7 km/h Distance 2.69 km</desc>
<time>2010-02-25T16:47:19.79</time>
<name>1861</name>
</trkpt>
<trkpt lat="48.931308" lon="8.654092">
<ele>394.0</ele>
<speed>10.2</speed>
<course>141.9</course>
<desc>Speed 10.2 km/h Distance 2.70 km</desc>
<time>2010-02-25T16:47:21.79</time>
<name>1862</name>
</trkpt>
<trkpt lat="48.931300" lon="8.654102">
<ele>394.5</ele>
<speed>4.2</speed>
<course>139.8</course>
<desc>Speed 4.2 km/h Distance 2.70 km</desc>
<time>2010-02-25T16:47:22.79</time>
<name>1863</name>
</trkpt>
<trkpt lat="48.931288" lon="8.654117">
<ele>394.5</ele>
<speed>5.7</speed>
<course>139.8</course>
<desc>Speed 5.7 km/h Distance 2.70 km</desc>
<time>2010-02-25T16:47:23.79</time>
<name>1864</name>
</trkpt>
<trkpt lat="48.931277" lon="8.654132">
<ele>395.0</ele>
<speed>4.2</speed>
<course>146.5</course>
<desc>Speed 4.2 km/h Distance 2.70 km</desc>
<time>2010-02-25T16:47:24.79</time>
<name>1865</name>
</trkpt>
<trkpt lat="48.931268" lon="8.654140">
<ele>395.5</ele>
<speed>3.3</speed>
<course>135.5</course>
<desc>Speed 3.3 km/h Distance 2.70 km</desc>
<time>2010-02-25T16:47:25.79</time>
<name>1866</name>
</trkpt>
<trkpt lat="48.931262" lon="8.654150">
<ele>395.5</ele>
<speed>3.3</speed>
<course>140.6</course>
<desc>Speed 3.3 km/h Distance 2.70 km</desc>
<time>2010-02-25T16:47:26.79</time>
<name>1867</name>
</trkpt>
<trkpt lat="48.931255" lon="8.654158">
<ele>396.0</ele>
<speed>2.8</speed>
<course>141.9</course>
<desc>Speed 2.8 km/h Distance 2.70 km</desc>
<time>2010-02-25T16:47:27.79</time>
<name>1868</name>
</trkpt>
<trkpt lat="48.931247" lon="8.654168">
<ele>395.0</ele>
<speed>3.5</speed>
<course>133.6</course>
<desc>Speed 3.5 km/h Distance 2.71 km</desc>
<time>2010-02-25T16:47:28.79</time>
<name>1869</name>
</trkpt>
<trkpt lat="48.931238" lon="8.654182">
<ele>394.0</ele>
<speed>4.3</speed>
<course>143.1</course>
<desc>Speed 4.3 km/h Distance 2.71 km</desc>
<time>2010-02-25T16:47:29.79</time>
<name>1870</name>
</trkpt>
<trkpt lat="48.931227" lon="8.654195">
<ele>394.0</ele>
<speed>4.8</speed>
<course>146.8</course>
<desc>Speed 4.8 km/h Distance 2.71 km</desc>
<time>2010-02-25T16:47:30.79</time>
<name>1871</name>
</trkpt>
<trkpt lat="48.931217" lon="8.654205">
<ele>393.5</ele>
<speed>3.9</speed>
<course>156.6</course>
<desc>Speed 3.9 km/h Distance 2.71 km</desc>
<time>2010-02-25T16:47:31.79</time>
<name>1872</name>
</trkpt>
<trkpt lat="48.931207" lon="8.654212">
<ele>394.5</ele>
<speed>4.1</speed>
<course>151.4</course>
<desc>Speed 4.1 km/h Distance 2.71 km</desc>
<time>2010-02-25T16:47:32.79</time>
<name>1873</name>
</trkpt>
<trkpt lat="48.931197" lon="8.654220">
<ele>395.0</ele>
<speed>4.0</speed>
<course>146.5</course>
<desc>Speed 4.0 km/h Distance 2.71 km</desc>
<time>2010-02-25T16:47:33.79</time>
<name>1874</name>
</trkpt>
<trkpt lat="48.931188" lon="8.654228">
<ele>395.0</ele>
<speed>3.0</speed>
<course>146.8</course>
<desc>Speed 3.0 km/h Distance 2.71 km</desc>
<time>2010-02-25T16:47:34.79</time>
<name>1875</name>
</trkpt>
<trkpt lat="48.931180" lon="8.654237">
<ele>396.0</ele>
<speed>3.2</speed>
<course>138.1</course>
<desc>Speed 3.2 km/h Distance 2.71 km</desc>
<time>2010-02-25T16:47:35.79</time>
<name>1876</name>
</trkpt>
<trkpt lat="48.931175" lon="8.654243">
<ele>395.0</ele>
<speed>2.1</speed>
<course>146.3</course>
<desc>Speed 2.1 km/h Distance 2.72 km</desc>
<time>2010-02-25T16:47:36.79</time>
<name>1877</name>
</trkpt>
<trkpt lat="48.931168" lon="8.654250">
<ele>395.5</ele>
<speed>2.6</speed>
<course>135.5</course>
<desc>Speed 2.6 km/h Distance 2.72 km</desc>
<time>2010-02-25T16:47:37.79</time>
<name>1878</name>
</trkpt>
<trkpt lat="48.931162" lon="8.654260">
<ele>395.0</ele>
<speed>3.0</speed>
<course>141.9</course>
<desc>Speed 3.0 km/h Distance 2.72 km</desc>
<time>2010-02-25T16:47:38.79</time>
<name>1879</name>
</trkpt>
<trkpt lat="48.931153" lon="8.654270">
<ele>394.5</ele>
<speed>3.3</speed>
<course>133.4</course>
<desc>Speed 3.3 km/h Distance 2.72 km</desc>
<time>2010-02-25T16:47:39.79</time>
<name>1880</name>
</trkpt>
<trkpt lat="48.931145" lon="8.654283">
<ele>395.0</ele>
<speed>4.0</speed>
<course>138.8</course>
<desc>Speed 4.0 km/h Distance 2.72 km</desc>
<time>2010-02-25T16:47:40.79</time>
<name>1881</name>
</trkpt>
<trkpt lat="48.931135" lon="8.654297">
<ele>395.5</ele>
<speed>4.6</speed>
<course>133.6</course>
<desc>Speed 4.6 km/h Distance 2.72 km</desc>
<time>2010-02-25T16:47:41.79</time>
<name>1882</name>
</trkpt>
<trkpt lat="48.931127" lon="8.654310">
<ele>396.0</ele>
<speed>3.9</speed>
<course>146.8</course>
<desc>Speed 3.9 km/h Distance 2.72 km</desc>
<time>2010-02-25T16:47:42.79</time>
<name>1883</name>
</trkpt>
<trkpt lat="48.931117" lon="8.654320">
<ele>397.5</ele>
<speed>3.6</speed>
<course>151.4</course>
<desc>Speed 3.6 km/h Distance 2.72 km</desc>
<time>2010-02-25T16:47:43.79</time>
<name>1884</name>
</trkpt>
<trkpt lat="48.931107" lon="8.654328">
<ele>398.5</ele>
<speed>4.4</speed>
<course>146.8</course>
<desc>Speed 4.4 km/h Distance 2.73 km</desc>
<time>2010-02-25T16:47:44.79</time>
<name>1885</name>
</trkpt>
<trkpt lat="48.931097" lon="8.654338">
<ele>399.0</ele>
<speed>4.3</speed>
<course>141.9</course>
<desc>Speed 4.3 km/h Distance 2.73 km</desc>
<time>2010-02-25T16:47:45.79</time>
<name>1886</name>
</trkpt>
<trkpt lat="48.931088" lon="8.654348">
<ele>399.0</ele>
<speed>3.6</speed>
<course>146.8</course>
<desc>Speed 3.6 km/h Distance 2.73 km</desc>
<time>2010-02-25T16:47:46.79</time>
<name>1887</name>
</trkpt>
<trkpt lat="48.931080" lon="8.654357">
<ele>399.0</ele>
<speed>3.3</speed>
<course>153.6</course>
<desc>Speed 3.3 km/h Distance 2.73 km</desc>
<time>2010-02-25T16:47:47.79</time>
<name>1888</name>
</trkpt>
<trkpt lat="48.931073" lon="8.654362">
<ele>399.5</ele>
<speed>2.4</speed>
<course>140.6</course>
<desc>Speed 2.4 km/h Distance 2.73 km</desc>
<time>2010-02-25T16:47:48.79</time>
<name>1889</name>
</trkpt>
<trkpt lat="48.931067" lon="8.654370">
<ele>399.5</ele>
<speed>2.6</speed>
<course>127.2</course>
<desc>Speed 2.6 km/h Distance 2.73 km</desc>
<time>2010-02-25T16:47:49.79</time>
<name>1890</name>
</trkpt>
<trkpt lat="48.931062" lon="8.654380">
<ele>398.5</ele>
<speed>3.0</speed>
<course>146.8</course>
<desc>Speed 3.0 km/h Distance 2.73 km</desc>
<time>2010-02-25T16:47:50.79</time>
<name>1891</name>
</trkpt>
<trkpt lat="48.931052" lon="8.654390">
<ele>399.0</ele>
<speed>3.5</speed>
<course>142.5</course>
<desc>Speed 3.5 km/h Distance 2.73 km</desc>
<time>2010-02-25T16:47:51.79</time>
<name>1892</name>
</trkpt>
<trkpt lat="48.931042" lon="8.654402">
<ele>400.0</ele>
<speed>4.0</speed>
<course>146.8</course>
<desc>Speed 4.0 km/h Distance 2.73 km</desc>
<time>2010-02-25T16:47:52.79</time>
<name>1893</name>
</trkpt>
<trkpt lat="48.931032" lon="8.654412">
<ele>400.0</ele>
<speed>3.0</speed>
<course>133.9</course>
<desc>Speed 3.0 km/h Distance 2.74 km</desc>
<time>2010-02-25T16:47:53.79</time>
<name>1894</name>
</trkpt>
<trkpt lat="48.930992" lon="8.654475">
<ele>404.0</ele>
<speed>3.1</speed>
<course>141.9</course>
<desc>Speed 3.1 km/h Distance 2.74 km</desc>
<time>2010-02-25T16:47:55.79</time>
<name>1895</name>
</trkpt>
<trkpt lat="48.930983" lon="8.654485">
<ele>404.0</ele>
<speed>4.0</speed>
<course>146.8</course>
<desc>Speed 4.0 km/h Distance 2.74 km</desc>
<time>2010-02-25T16:47:56.79</time>
<name>1896</name>
</trkpt>
<trkpt lat="48.930975" lon="8.654493">
<ele>405.0</ele>
<speed>3.0</speed>
<course>131.3</course>
<desc>Speed 3.0 km/h Distance 2.74 km</desc>
<time>2010-02-25T16:47:57.79</time>
<name>1897</name>
</trkpt>
<trkpt lat="48.930968" lon="8.654505">
<ele>406.0</ele>
<speed>3.4</speed>
<course>137.4</course>
<desc>Speed 3.4 km/h Distance 2.75 km</desc>
<time>2010-02-25T16:47:58.79</time>
<name>1898</name>
</trkpt>
<trkpt lat="48.930960" lon="8.654517">
<ele>407.0</ele>
<speed>3.9</speed>
<course>125.1</course>
<desc>Speed 3.9 km/h Distance 2.75 km</desc>
<time>2010-02-25T16:47:59.79</time>
<name>1899</name>
</trkpt>
<trkpt lat="48.930950" lon="8.654538">
<ele>406.5</ele>
<speed>3.7</speed>
<course>146.8</course>
<desc>Speed 3.7 km/h Distance 2.75 km</desc>
<time>2010-02-25T16:48:00.79</time>
<name>1900</name>
</trkpt>
<trkpt lat="48.930942" lon="8.654547">
<ele>406.5</ele>
<speed>3.5</speed>
<course>133.6</course>
<desc>Speed 3.5 km/h Distance 2.75 km</desc>
<time>2010-02-25T16:48:01.79</time>
<name>1901</name>
</trkpt>
<trkpt lat="48.930933" lon="8.654560">
<ele>406.0</ele>
<speed>4.0</speed>
<course>130.9</course>
<desc>Speed 4.0 km/h Distance 2.75 km</desc>
<time>2010-02-25T16:48:02.79</time>
<name>1902</name>
</trkpt>
<trkpt lat="48.930927" lon="8.654572">
<ele>405.5</ele>
<speed>3.4</speed>
<course>133.5</course>
<desc>Speed 3.4 km/h Distance 2.75 km</desc>
<time>2010-02-25T16:48:03.79</time>
<name>1903</name>
</trkpt>
<trkpt lat="48.930918" lon="8.654585">
<ele>406.0</ele>
<speed>4.1</speed>
<course>142.5</course>
<desc>Speed 4.1 km/h Distance 2.75 km</desc>
<time>2010-02-25T16:48:04.79</time>
<name>1904</name>
</trkpt>
<trkpt lat="48.930908" lon="8.654597">
<ele>406.0</ele>
<speed>4.1</speed>
<course>130.3</course>
<desc>Speed 4.1 km/h Distance 2.76 km</desc>
<time>2010-02-25T16:48:05.79</time>
<name>1905</name>
</trkpt>
<trkpt lat="48.930900" lon="8.654612">
<ele>405.0</ele>
<speed>4.2</speed>
<course>139.8</course>
<desc>Speed 4.2 km/h Distance 2.76 km</desc>
<time>2010-02-25T16:48:06.79</time>
<name>1906</name>
</trkpt>
<trkpt lat="48.930888" lon="8.654627">
<ele>405.0</ele>
<speed>5.0</speed>
<course>151.4</course>
<desc>Speed 5.0 km/h Distance 2.76 km</desc>
<time>2010-02-25T16:48:07.79</time>
<name>1907</name>
</trkpt>
<trkpt lat="48.930878" lon="8.654635">
<ele>405.5</ele>
<speed>3.7</speed>
<course>127.3</course>
<desc>Speed 3.7 km/h Distance 2.76 km</desc>
<time>2010-02-25T16:48:08.79</time>
<name>1908</name>
</trkpt>
<trkpt lat="48.930872" lon="8.654648">
<ele>404.0</ele>
<speed>3.3</speed>
<course>142.2</course>
<desc>Speed 3.3 km/h Distance 2.76 km</desc>
<time>2010-02-25T16:48:09.79</time>
<name>1909</name>
</trkpt>
<trkpt lat="48.930853" lon="8.654670">
<ele>405.5</ele>
<speed>3.9</speed>
<course>135.5</course>
<desc>Speed 3.9 km/h Distance 2.76 km</desc>
<time>2010-02-25T16:48:10.79</time>
<name>1910</name>
</trkpt>
<trkpt lat="48.930843" lon="8.654685">
<ele>405.5</ele>
<speed>3.7</speed>
<course>142.1</course>
<desc>Speed 3.7 km/h Distance 2.76 km</desc>
<time>2010-02-25T16:48:11.79</time>
<name>1911</name>
</trkpt>
<trkpt lat="48.930835" lon="8.654695">
<ele>406.0</ele>
<speed>4.2</speed>
<course>130.2</course>
<desc>Speed 4.2 km/h Distance 2.77 km</desc>
<time>2010-02-25T16:48:12.79</time>
<name>1912</name>
</trkpt>
<trkpt lat="48.930818" lon="8.654725">
<ele>406.5</ele>
<speed>4.8</speed>
<course>141.3</course>
<desc>Speed 4.8 km/h Distance 2.77 km</desc>
<time>2010-02-25T16:48:13.79</time>
<name>1913</name>
</trkpt>
<trkpt lat="48.930803" lon="8.654743">
<ele>408.5</ele>
<speed>4.2</speed>
<course>138.8</course>
<desc>Speed 4.2 km/h Distance 2.77 km</desc>
<time>2010-02-25T16:48:14.79</time>
<name>1914</name>
</trkpt>
<trkpt lat="48.930783" lon="8.654770">
<ele>409.5</ele>
<speed>4.4</speed>
<course>147.0</course>
<desc>Speed 4.4 km/h Distance 2.77 km</desc>
<time>2010-02-25T16:48:15.79</time>
<name>1915</name>
</trkpt>
<trkpt lat="48.930773" lon="8.654780">
<ele>410.5</ele>
<speed>4.5</speed>
<course>133.6</course>
<desc>Speed 4.5 km/h Distance 2.78 km</desc>
<time>2010-02-25T16:48:16.79</time>
<name>1916</name>
</trkpt>
<trkpt lat="48.930765" lon="8.654793">
<ele>410.5</ele>
<speed>4.8</speed>
<course>137.4</course>
<desc>Speed 4.8 km/h Distance 2.78 km</desc>
<time>2010-02-25T16:48:17.79</time>
<name>1917</name>
</trkpt>
<trkpt lat="48.930757" lon="8.654805">
<ele>410.0</ele>
<speed>4.0</speed>
<course>130.9</course>
<desc>Speed 4.0 km/h Distance 2.78 km</desc>
<time>2010-02-25T16:48:18.79</time>
<name>1918</name>
</trkpt>
<trkpt lat="48.930750" lon="8.654817">
<ele>409.0</ele>
<speed>3.3</speed>
<course>132.6</course>
<desc>Speed 3.3 km/h Distance 2.78 km</desc>
<time>2010-02-25T16:48:19.79</time>
<name>1919</name>
</trkpt>
<trkpt lat="48.930745" lon="8.654825">
<ele>408.0</ele>
<speed>2.7</speed>
<course>152.1</course>
<desc>Speed 2.7 km/h Distance 2.78 km</desc>
<time>2010-02-25T16:48:20.79</time>
<name>1920</name>
</trkpt>
<trkpt lat="48.930737" lon="8.654832">
<ele>408.5</ele>
<speed>2.6</speed>
<course>131.7</course>
<desc>Speed 2.6 km/h Distance 2.78 km</desc>
<time>2010-02-25T16:48:21.79</time>
<name>1921</name>
</trkpt>
<trkpt lat="48.930708" lon="8.654880">
<ele>407.0</ele>
<speed>3.9</speed>
<course>140.6</course>
<desc>Speed 3.9 km/h Distance 2.79 km</desc>
<time>2010-02-25T16:48:23.79</time>
<name>1922</name>
</trkpt>
<trkpt lat="48.930702" lon="8.654888">
<ele>407.0</ele>
<speed>3.0</speed>
<course>137.4</course>
<desc>Speed 3.0 km/h Distance 2.79 km</desc>
<time>2010-02-25T16:48:24.79</time>
<name>1923</name>
</trkpt>
<trkpt lat="48.930693" lon="8.654900">
<ele>406.0</ele>
<speed>3.6</speed>
<course>127.2</course>
<desc>Speed 3.6 km/h Distance 2.79 km</desc>
<time>2010-02-25T16:48:25.79</time>
<name>1924</name>
</trkpt>
<trkpt lat="48.930687" lon="8.654913">
<ele>405.0</ele>
<speed>3.9</speed>
<course>161.2</course>
<desc>Speed 3.9 km/h Distance 2.79 km</desc>
<time>2010-02-25T16:48:26.79</time>
<name>1925</name>
</trkpt>
<trkpt lat="48.930680" lon="8.654917">
<ele>406.5</ele>
<speed>2.3</speed>
<course>135.5</course>
<desc>Speed 2.3 km/h Distance 2.79 km</desc>
<time>2010-02-25T16:48:27.79</time>
<name>1926</name>
</trkpt>
<trkpt lat="48.930673" lon="8.654927">
<ele>407.0</ele>
<speed>3.0</speed>
<course>135.7</course>
<desc>Speed 3.0 km/h Distance 2.79 km</desc>
<time>2010-02-25T16:48:28.79</time>
<name>1927</name>
</trkpt>
<trkpt lat="48.930667" lon="8.654937">
<ele>406.0</ele>
<speed>3.3</speed>
<course>135.5</course>
<desc>Speed 3.3 km/h Distance 2.79 km</desc>
<time>2010-02-25T16:48:29.79</time>
<name>1928</name>
</trkpt>
<trkpt lat="48.930657" lon="8.654952">
<ele>407.0</ele>
<speed>4.2</speed>
<course>137.4</course>
<desc>Speed 4.2 km/h Distance 2.79 km</desc>
<time>2010-02-25T16:48:30.79</time>
<name>1929</name>
</trkpt>
<trkpt lat="48.930648" lon="8.654963">
<ele>408.0</ele>
<speed>3.5</speed>
<course>138.8</course>
<desc>Speed 3.5 km/h Distance 2.79 km</desc>
<time>2010-02-25T16:48:31.79</time>
<name>1930</name>
</trkpt>
<trkpt lat="48.930638" lon="8.654977">
<ele>408.0</ele>
<speed>4.6</speed>
<course>110.8</course>
<desc>Speed 4.6 km/h Distance 2.80 km</desc>
<time>2010-02-25T16:48:32.79</time>
<name>1931</name>
</trkpt>
<trkpt lat="48.930632" lon="8.655003">
<ele>405.0</ele>
<speed>4.6</speed>
<course>142.5</course>
<desc>Speed 4.6 km/h Distance 2.80 km</desc>
<time>2010-02-25T16:48:33.79</time>
<name>1932</name>
</trkpt>
<trkpt lat="48.930622" lon="8.655015">
<ele>405.0</ele>
<speed>4.4</speed>
<course>121.3</course>
<desc>Speed 4.4 km/h Distance 2.80 km</desc>
<time>2010-02-25T16:48:34.79</time>
<name>1933</name>
</trkpt>
<trkpt lat="48.930615" lon="8.655032">
<ele>402.5</ele>
<speed>3.6</speed>
<course>142.5</course>
<desc>Speed 3.6 km/h Distance 2.80 km</desc>
<time>2010-02-25T16:48:35.79</time>
<name>1934</name>
</trkpt>
<trkpt lat="48.930605" lon="8.655043">
<ele>403.0</ele>
<speed>4.4</speed>
<course>136.5</course>
<desc>Speed 4.4 km/h Distance 2.80 km</desc>
<time>2010-02-25T16:48:36.79</time>
<name>1935</name>
</trkpt>
<trkpt lat="48.930590" lon="8.655065">
<ele>403.0</ele>
<speed>4.7</speed>
<course>132.5</course>
<desc>Speed 4.7 km/h Distance 2.80 km</desc>
<time>2010-02-25T16:48:37.79</time>
<name>1936</name>
</trkpt>
<trkpt lat="48.930580" lon="8.655082">
<ele>403.0</ele>
<speed>5.1</speed>
<course>138.8</course>
<desc>Speed 5.1 km/h Distance 2.81 km</desc>
<time>2010-02-25T16:48:38.79</time>
<name>1937</name>
</trkpt>
<trkpt lat="48.930560" lon="8.655108">
<ele>404.5</ele>
<speed>4.0</speed>
<course>135.5</course>
<desc>Speed 4.0 km/h Distance 2.81 km</desc>
<time>2010-02-25T16:48:39.79</time>
<name>1938</name>
</trkpt>
<trkpt lat="48.930550" lon="8.655123">
<ele>404.5</ele>
<speed>5.0</speed>
<course>142.7</course>
<desc>Speed 5.0 km/h Distance 2.81 km</desc>
<time>2010-02-25T16:48:40.79</time>
<name>1939</name>
</trkpt>
<trkpt lat="48.930540" lon="8.655135">
<ele>405.5</ele>
<speed>4.6</speed>
<course>142.5</course>
<desc>Speed 4.6 km/h Distance 2.81 km</desc>
<time>2010-02-25T16:48:41.79</time>
<name>1940</name>
</trkpt>
<trkpt lat="48.930530" lon="8.655147">
<ele>406.0</ele>
<speed>3.7</speed>
<course>132.4</course>
<desc>Speed 3.7 km/h Distance 2.81 km</desc>
<time>2010-02-25T16:48:42.79</time>
<name>1941</name>
</trkpt>
<trkpt lat="48.930520" lon="8.655163">
<ele>406.0</ele>
<speed>4.2</speed>
<course>147.1</course>
<desc>Speed 4.2 km/h Distance 2.82 km</desc>
<time>2010-02-25T16:48:43.79</time>
<name>1942</name>
</trkpt>
<trkpt lat="48.930512" lon="8.655172">
<ele>406.0</ele>
<speed>3.5</speed>
<course>152.5</course>
<desc>Speed 3.5 km/h Distance 2.82 km</desc>
<time>2010-02-25T16:48:44.79</time>
<name>1943</name>
</trkpt>
<trkpt lat="48.930503" lon="8.655178">
<ele>407.0</ele>
<speed>3.1</speed>
<course>146.8</course>
<desc>Speed 3.1 km/h Distance 2.82 km</desc>
<time>2010-02-25T16:48:45.79</time>
<name>1944</name>
</trkpt>
<trkpt lat="48.930495" lon="8.655187">
<ele>407.5</ele>
<speed>3.3</speed>
<course>130.9</course>
<desc>Speed 3.3 km/h Distance 2.82 km</desc>
<time>2010-02-25T16:48:46.79</time>
<name>1945</name>
</trkpt>
<trkpt lat="48.930453" lon="8.655260">
<ele>409.5</ele>
<speed>4.4</speed>
<course>129.6</course>
<desc>Speed 4.4 km/h Distance 2.83 km</desc>
<time>2010-02-25T16:48:48.79</time>
<name>1946</name>
</trkpt>
<trkpt lat="48.930422" lon="8.655318">
<ele>410.0</ele>
<speed>4.1</speed>
<course>141.9</course>
<desc>Speed 4.1 km/h Distance 2.83 km</desc>
<time>2010-02-25T16:48:50.79</time>
<name>1947</name>
</trkpt>
<trkpt lat="48.930413" lon="8.655328">
<ele>410.0</ele>
<speed>3.8</speed>
<course>135.5</course>
<desc>Speed 3.8 km/h Distance 2.83 km</desc>
<time>2010-02-25T16:48:51.79</time>
<name>1948</name>
</trkpt>
<trkpt lat="48.930407" lon="8.655338">
<ele>410.0</ele>
<speed>3.3</speed>
<course>141.9</course>
<desc>Speed 3.3 km/h Distance 2.83 km</desc>
<time>2010-02-25T16:48:52.79</time>
<name>1949</name>
</trkpt>
<trkpt lat="48.930398" lon="8.655348">
<ele>410.5</ele>
<speed>3.7</speed>
<course>138.6</course>
<desc>Speed 3.7 km/h Distance 2.83 km</desc>
<time>2010-02-25T16:48:53.79</time>
<name>1950</name>
</trkpt>
<trkpt lat="48.930388" lon="8.655362">
<ele>410.5</ele>
<speed>4.9</speed>
<course>137.4</course>
<desc>Speed 4.9 km/h Distance 2.84 km</desc>
<time>2010-02-25T16:48:54.79</time>
<name>1951</name>
</trkpt>
<trkpt lat="48.930380" lon="8.655373">
<ele>411.0</ele>
<speed>4.1</speed>
<course>150.6</course>
<desc>Speed 4.1 km/h Distance 2.84 km</desc>
<time>2010-02-25T16:48:55.79</time>
<name>1952</name>
</trkpt>
<trkpt lat="48.930368" lon="8.655383">
<ele>411.0</ele>
<speed>4.6</speed>
<course>138.7</course>
<desc>Speed 4.6 km/h Distance 2.84 km</desc>
<time>2010-02-25T16:48:56.79</time>
<name>1953</name>
</trkpt>
<trkpt lat="48.930358" lon="8.655397">
<ele>411.5</ele>
<speed>4.5</speed>
<course>135.5</course>
<desc>Speed 4.5 km/h Distance 2.84 km</desc>
<time>2010-02-25T16:48:57.79</time>
<name>1954</name>
</trkpt>
<trkpt lat="48.930352" lon="8.655407">
<ele>411.5</ele>
<speed>3.7</speed>
<course>137.4</course>
<desc>Speed 3.7 km/h Distance 2.84 km</desc>
<time>2010-02-25T16:48:58.79</time>
<name>1955</name>
</trkpt>
<trkpt lat="48.930343" lon="8.655418">
<ele>411.5</ele>
<speed>4.1</speed>
<course>128.7</course>
<desc>Speed 4.1 km/h Distance 2.84 km</desc>
<time>2010-02-25T16:48:59.79</time>
<name>1956</name>
</trkpt>
<trkpt lat="48.930327" lon="8.655450">
<ele>412.0</ele>
<speed>3.6</speed>
<course>138.8</course>
<desc>Speed 3.6 km/h Distance 2.85 km</desc>
<time>2010-02-25T16:49:00.79</time>
<name>1957</name>
</trkpt>
<trkpt lat="48.930297" lon="8.655490">
<ele>413.5</ele>
<speed>4.7</speed>
<course>135.4</course>
<desc>Speed 4.7 km/h Distance 2.85 km</desc>
<time>2010-02-25T16:49:02.79</time>
<name>1958</name>
</trkpt>
<trkpt lat="48.930283" lon="8.655510">
<ele>414.5</ele>
<speed>3.7</speed>
<course>124.6</course>
<desc>Speed 3.7 km/h Distance 2.85 km</desc>
<time>2010-02-25T16:49:03.79</time>
<name>1959</name>
</trkpt>
<trkpt lat="48.930275" lon="8.655528">
<ele>412.0</ele>
<speed>4.9</speed>
<course>136.3</course>
<desc>Speed 4.9 km/h Distance 2.85 km</desc>
<time>2010-02-25T16:49:04.79</time>
<name>1960</name>
</trkpt>
<trkpt lat="48.930257" lon="8.655555">
<ele>412.0</ele>
<speed>4.9</speed>
<course>142.7</course>
<desc>Speed 4.9 km/h Distance 2.86 km</desc>
<time>2010-02-25T16:49:05.79</time>
<name>1961</name>
</trkpt>
<trkpt lat="48.930247" lon="8.655567">
<ele>412.5</ele>
<speed>4.6</speed>
<course>139.5</course>
<desc>Speed 4.6 km/h Distance 2.86 km</desc>
<time>2010-02-25T16:49:06.79</time>
<name>1962</name>
</trkpt>
<trkpt lat="48.930230" lon="8.655588">
<ele>414.5</ele>
<speed>3.9</speed>
<course>127.2</course>
<desc>Speed 3.9 km/h Distance 2.86 km</desc>
<time>2010-02-25T16:49:07.79</time>
<name>1963</name>
</trkpt>
<trkpt lat="48.930225" lon="8.655598">
<ele>415.0</ele>
<speed>3.5</speed>
<course>144.2</course>
<desc>Speed 3.5 km/h Distance 2.86 km</desc>
<time>2010-02-25T16:49:08.79</time>
<name>1964</name>
</trkpt>
<trkpt lat="48.930208" lon="8.655617">
<ele>417.5</ele>
<speed>3.1</speed>
<course>146.6</course>
<desc>Speed 3.1 km/h Distance 2.86 km</desc>
<time>2010-02-25T16:49:09.79</time>
<name>1965</name>
</trkpt>
<trkpt lat="48.930197" lon="8.655628">
<ele>418.5</ele>
<speed>3.7</speed>
<course>132.4</course>
<desc>Speed 3.7 km/h Distance 2.87 km</desc>
<time>2010-02-25T16:49:10.79</time>
<name>1966</name>
</trkpt>
<trkpt lat="48.930187" lon="8.655645">
<ele>418.5</ele>
<speed>3.8</speed>
<course>102.2</course>
<desc>Speed 3.8 km/h Distance 2.87 km</desc>
<time>2010-02-25T16:49:11.79</time>
<name>1967</name>
</trkpt>
<trkpt lat="48.930185" lon="8.655657">
<ele>416.5</ele>
<speed>1.0</speed>
<course>153.6</course>
<desc>Speed 1.0 km/h Distance 2.87 km</desc>
<time>2010-02-25T16:49:12.79</time>
<name>1968</name>
</trkpt>
<trkpt lat="48.930172" lon="8.655667">
<ele>416.5</ele>
<speed>5.7</speed>
<course>138.3</course>
<desc>Speed 5.7 km/h Distance 2.87 km</desc>
<time>2010-02-25T16:49:13.79</time>
<name>1969</name>
</trkpt>
<trkpt lat="48.930148" lon="8.655698">
<ele>416.0</ele>
<speed>6.3</speed>
<course>122.5</course>
<desc>Speed 6.3 km/h Distance 2.87 km</desc>
<time>2010-02-25T16:49:14.79</time>
<name>1970</name>
</trkpt>
<trkpt lat="48.930110" lon="8.655790">
<ele>408.5</ele>
<speed>5.1</speed>
<course>123.7</course>
<desc>Speed 5.1 km/h Distance 2.88 km</desc>
<time>2010-02-25T16:49:17.79</time>
<name>1971</name>
</trkpt>
<trkpt lat="48.930098" lon="8.655817">
<ele>403.5</ele>
<speed>5.6</speed>
<course>156.2</course>
<desc>Speed 5.6 km/h Distance 2.88 km</desc>
<time>2010-02-25T16:49:18.79</time>
<name>1972</name>
</trkpt>
<trkpt lat="48.930088" lon="8.655823">
<ele>404.0</ele>
<speed>3.6</speed>
<course>146.8</course>
<desc>Speed 3.6 km/h Distance 2.88 km</desc>
<time>2010-02-25T16:49:19.79</time>
<name>1973</name>
</trkpt>
<trkpt lat="48.930080" lon="8.655832">
<ele>404.5</ele>
<speed>2.8</speed>
<course>53.0</course>
<desc>Speed 2.8 km/h Distance 2.89 km</desc>
<time>2010-02-25T16:49:20.79</time>
<name>1974</name>
</trkpt>
<trkpt lat="48.930083" lon="8.655838">
<ele>406.5</ele>
<speed>2.2</speed>
<course>187.4</course>
<desc>Speed 2.2 km/h Distance 2.89 km</desc>
<time>2010-02-25T16:49:21.79</time>
<name>1975</name>
</trkpt>
<trkpt lat="48.930077" lon="8.655837">
<ele>406.0</ele>
<speed>2.3</speed>
<course>156.2</course>
<desc>Speed 2.3 km/h Distance 2.89 km</desc>
<time>2010-02-25T16:49:22.79</time>
<name>1976</name>
</trkpt>
<trkpt lat="48.930067" lon="8.655843">
<ele>406.0</ele>
<speed>3.2</speed>
<course>152.1</course>
<desc>Speed 3.2 km/h Distance 2.89 km</desc>
<time>2010-02-25T16:49:23.79</time>
<name>1977</name>
</trkpt>
<trkpt lat="48.930058" lon="8.655850">
<ele>405.0</ele>
<speed>3.4</speed>
<course>127.4</course>
<desc>Speed 3.4 km/h Distance 2.89 km</desc>
<time>2010-02-25T16:49:24.79</time>
<name>1978</name>
</trkpt>
<trkpt lat="48.930053" lon="8.655860">
<ele>403.5</ele>
<speed>2.2</speed>
<course>161.2</course>
<desc>Speed 2.2 km/h Distance 2.89 km</desc>
<time>2010-02-25T16:49:25.79</time>
<name>1979</name>
</trkpt>
<trkpt lat="48.930050" lon="8.655862">
<ele>403.5</ele>
<speed>1.1</speed>
<course>157.0</course>
<desc>Speed 1.1 km/h Distance 2.89 km</desc>
<time>2010-02-25T16:49:26.79</time>
<name>1980</name>
</trkpt>
<trkpt lat="48.930047" lon="8.655863">
<ele>403.5</ele>
<speed>1.0</speed>
<course>127.3</course>
<desc>Speed 1.0 km/h Distance 2.89 km</desc>
<time>2010-02-25T16:49:27.79</time>
<name>1981</name>
</trkpt>
<trkpt lat="48.930040" lon="8.655877">
<ele>403.0</ele>
<speed>0.2</speed>
<course>121.3</course>
<desc>Speed 0.2 km/h Distance 2.89 km</desc>
<time>2010-02-25T16:49:28.79</time>
<name>1982</name>
</trkpt>
<trkpt lat="48.930033" lon="8.655893">
<ele>401.5</ele>
<speed>0.6</speed>
<course>180.0</course>
<desc>Speed 0.6 km/h Distance 2.89 km</desc>
<time>2010-02-25T16:49:29.79</time>
<name>1983</name>
</trkpt>
<trkpt lat="48.930028" lon="8.655893">
<ele>402.0</ele>
<speed>1.2</speed>
<course>139.8</course>
<desc>Speed 1.2 km/h Distance 2.89 km</desc>
<time>2010-02-25T16:49:30.79</time>
<name>1984</name>
</trkpt>
<trkpt lat="48.930017" lon="8.655908">
<ele>403.0</ele>
<speed>1.2</speed>
<course>136.7</course>
<desc>Speed 1.2 km/h Distance 2.90 km</desc>
<time>2010-02-25T16:49:31.79</time>
<name>1985</name>
</trkpt>
<trkpt lat="48.930005" lon="8.655925">
<ele>403.0</ele>
<speed>4.3</speed>
<course>129.1</course>
<desc>Speed 4.3 km/h Distance 2.90 km</desc>
<time>2010-02-25T16:49:32.79</time>
<name>1986</name>
</trkpt>
<trkpt lat="48.929992" lon="8.655950">
<ele>403.0</ele>
<speed>6.3</speed>
<course>130.9</course>
<desc>Speed 6.3 km/h Distance 2.90 km</desc>
<time>2010-02-25T16:49:33.79</time>
<name>1987</name>
</trkpt>
<trkpt lat="48.929978" lon="8.655973">
<ele>403.0</ele>
<speed>5.1</speed>
<course>120.6</course>
<desc>Speed 5.1 km/h Distance 2.90 km</desc>
<time>2010-02-25T16:49:34.79</time>
<name>1988</name>
</trkpt>
<trkpt lat="48.929967" lon="8.656003">
<ele>402.5</ele>
<speed>4.4</speed>
<course>132.4</course>
<desc>Speed 4.4 km/h Distance 2.90 km</desc>
<time>2010-02-25T16:49:35.79</time>
<name>1989</name>
</trkpt>
<trkpt lat="48.929957" lon="8.656020">
<ele>402.0</ele>
<speed>4.6</speed>
<course>133.1</course>
<desc>Speed 4.6 km/h Distance 2.91 km</desc>
<time>2010-02-25T16:49:36.79</time>
<name>1990</name>
</trkpt>
<trkpt lat="48.929943" lon="8.656042">
<ele>402.0</ele>
<speed>5.4</speed>
<course>130.3</course>
<desc>Speed 5.4 km/h Distance 2.91 km</desc>
<time>2010-02-25T16:49:37.79</time>
<name>1991</name>
</trkpt>
<trkpt lat="48.929935" lon="8.656057">
<ele>401.5</ele>
<speed>4.8</speed>
<course>135.4</course>
<desc>Speed 4.8 km/h Distance 2.91 km</desc>
<time>2010-02-25T16:49:38.79</time>
<name>1992</name>
</trkpt>
<trkpt lat="48.929925" lon="8.656072">
<ele>403.0</ele>
<speed>4.4</speed>
<course>140.6</course>
<desc>Speed 4.4 km/h Distance 2.91 km</desc>
<time>2010-02-25T16:49:39.79</time>
<name>1993</name>
</trkpt>
<trkpt lat="48.929912" lon="8.656088">
<ele>403.0</ele>
<speed>5.3</speed>
<course>151.1</course>
<desc>Speed 5.3 km/h Distance 2.91 km</desc>
<time>2010-02-25T16:49:40.79</time>
<name>1994</name>
</trkpt>
<trkpt lat="48.929902" lon="8.656097">
<ele>404.0</ele>
<speed>4.4</speed>
<course>138.7</course>
<desc>Speed 4.4 km/h Distance 2.91 km</desc>
<time>2010-02-25T16:49:41.79</time>
<name>1995</name>
</trkpt>
<trkpt lat="48.929892" lon="8.656110">
<ele>403.5</ele>
<speed>5.5</speed>
<course>134.4</course>
<desc>Speed 5.5 km/h Distance 2.92 km</desc>
<time>2010-02-25T16:49:42.79</time>
<name>1996</name>
</trkpt>
<trkpt lat="48.929877" lon="8.656133">
<ele>404.0</ele>
<speed>4.1</speed>
<course>146.8</course>
<desc>Speed 4.1 km/h Distance 2.92 km</desc>
<time>2010-02-25T16:49:43.79</time>
<name>1997</name>
</trkpt>
<trkpt lat="48.929867" lon="8.656143">
<ele>404.5</ele>
<speed>4.7</speed>
<course>129.7</course>
<desc>Speed 4.7 km/h Distance 2.92 km</desc>
<time>2010-02-25T16:49:44.79</time>
<name>1998</name>
</trkpt>
<trkpt lat="48.929837" lon="8.656198">
<ele>401.5</ele>
<speed>4.6</speed>
<course>135.3</course>
<desc>Speed 4.6 km/h Distance 2.93 km</desc>
<time>2010-02-25T16:49:46.79</time>
<name>1999</name>
</trkpt>
<trkpt lat="48.929827" lon="8.656213">
<ele>400.0</ele>
<speed>3.9</speed>
<course>127.2</course>
<desc>Speed 3.9 km/h Distance 2.93 km</desc>
<time>2010-02-25T16:49:47.79</time>
<name>2000</name>
</trkpt>
<trkpt lat="48.929820" lon="8.656227">
<ele>398.5</ele>
<speed>3.7</speed>
<course>142.5</course>
<desc>Speed 3.7 km/h Distance 2.93 km</desc>
<time>2010-02-25T16:49:48.79</time>
<name>2001</name>
</trkpt>
<trkpt lat="48.929810" lon="8.656238">
<ele>398.5</ele>
<speed>4.1</speed>
<course>127.3</course>
<desc>Speed 4.1 km/h Distance 2.93 km</desc>
<time>2010-02-25T16:49:49.79</time>
<name>2002</name>
</trkpt>
<trkpt lat="48.929802" lon="8.656255">
<ele>398.0</ele>
<speed>2.7</speed>
<course>125.1</course>
<desc>Speed 2.7 km/h Distance 2.93 km</desc>
<time>2010-02-25T16:49:50.79</time>
<name>2003</name>
</trkpt>
<trkpt lat="48.929792" lon="8.656277">
<ele>396.5</ele>
<speed>3.2</speed>
<course>131.9</course>
<desc>Speed 3.2 km/h Distance 2.93 km</desc>
<time>2010-02-25T16:49:51.79</time>
<name>2004</name>
</trkpt>
<trkpt lat="48.929775" lon="8.656305">
<ele>395.0</ele>
<speed>4.6</speed>
<course>136.3</course>
<desc>Speed 4.6 km/h Distance 2.94 km</desc>
<time>2010-02-25T16:49:52.79</time>
<name>2005</name>
</trkpt>
<trkpt lat="48.929757" lon="8.656332">
<ele>395.0</ele>
<speed>4.3</speed>
<course>119.7</course>
<desc>Speed 4.3 km/h Distance 2.94 km</desc>
<time>2010-02-25T16:49:53.79</time>
<name>2006</name>
</trkpt>
<trkpt lat="48.929752" lon="8.656345">
<ele>394.0</ele>
<speed>3.6</speed>
<course>119.7</course>
<desc>Speed 3.6 km/h Distance 2.94 km</desc>
<time>2010-02-25T16:49:54.79</time>
<name>2007</name>
</trkpt>
<trkpt lat="48.929747" lon="8.656358">
<ele>393.0</ele>
<speed>3.3</speed>
<course>131.1</course>
<desc>Speed 3.3 km/h Distance 2.94 km</desc>
<time>2010-02-25T16:49:55.79</time>
<name>2008</name>
</trkpt>
<trkpt lat="48.929740" lon="8.656370">
<ele>391.0</ele>
<speed>3.5</speed>
<course>135.5</course>
<desc>Speed 3.5 km/h Distance 2.94 km</desc>
<time>2010-02-25T16:49:56.79</time>
<name>2009</name>
</trkpt>
<trkpt lat="48.929733" lon="8.656380">
<ele>389.5</ele>
<speed>2.6</speed>
<course>153.8</course>
<desc>Speed 2.6 km/h Distance 2.94 km</desc>
<time>2010-02-25T16:49:57.79</time>
<name>2010</name>
</trkpt>
<trkpt lat="48.929720" lon="8.656390">
<ele>387.0</ele>
<speed>5.9</speed>
<course>102.3</course>
<desc>Speed 5.9 km/h Distance 2.94 km</desc>
<time>2010-02-25T16:49:58.79</time>
<name>2011</name>
</trkpt>
<trkpt lat="48.929718" lon="8.656402">
<ele>386.0</ele>
<speed>2.1</speed>
<course>138.8</course>
<desc>Speed 2.1 km/h Distance 2.95 km</desc>
<time>2010-02-25T16:49:59.79</time>
<name>2012</name>
</trkpt>
<trkpt lat="48.929703" lon="8.656422">
<ele>385.5</ele>
<speed>4.2</speed>
<course>114.6</course>
<desc>Speed 4.2 km/h Distance 2.95 km</desc>
<time>2010-02-25T16:50:00.79</time>
<name>2013</name>
</trkpt>
<trkpt lat="48.929698" lon="8.656438">
<ele>385.0</ele>
<speed>4.1</speed>
<course>119.0</course>
<desc>Speed 4.1 km/h Distance 2.95 km</desc>
<time>2010-02-25T16:50:01.79</time>
<name>2014</name>
</trkpt>
<trkpt lat="48.929692" lon="8.656457">
<ele>384.0</ele>
<speed>4.2</speed>
<course>124.7</course>
<desc>Speed 4.2 km/h Distance 2.95 km</desc>
<time>2010-02-25T16:50:02.79</time>
<name>2015</name>
</trkpt>
<trkpt lat="48.929683" lon="8.656475">
<ele>383.5</ele>
<speed>3.7</speed>
<course>130.9</course>
<desc>Speed 3.7 km/h Distance 2.95 km</desc>
<time>2010-02-25T16:50:03.79</time>
<name>2016</name>
</trkpt>
<trkpt lat="48.929677" lon="8.656487">
<ele>384.0</ele>
<speed>4.1</speed>
<course>140.6</course>
<desc>Speed 4.1 km/h Distance 2.95 km</desc>
<time>2010-02-25T16:50:04.79</time>
<name>2017</name>
</trkpt>
<trkpt lat="48.929663" lon="8.656503">
<ele>384.0</ele>
<speed>3.3</speed>
<course>137.5</course>
<desc>Speed 3.3 km/h Distance 2.96 km</desc>
<time>2010-02-25T16:50:05.79</time>
<name>2018</name>
</trkpt>
<trkpt lat="48.929655" lon="8.656515">
<ele>384.0</ele>
<speed>4.0</speed>
<course>146.8</course>
<desc>Speed 4.0 km/h Distance 2.96 km</desc>
<time>2010-02-25T16:50:06.79</time>
<name>2019</name>
</trkpt>
<trkpt lat="48.929648" lon="8.656522">
<ele>384.0</ele>
<speed>3.6</speed>
<course>146.8</course>
<desc>Speed 3.6 km/h Distance 2.96 km</desc>
<time>2010-02-25T16:50:07.79</time>
<name>2020</name>
</trkpt>
<trkpt lat="48.929640" lon="8.656530">
<ele>384.5</ele>
<speed>4.0</speed>
<course>153.6</course>
<desc>Speed 4.0 km/h Distance 2.96 km</desc>
<time>2010-02-25T16:50:08.79</time>
<name>2021</name>
</trkpt>
<trkpt lat="48.929633" lon="8.656535">
<ele>385.0</ele>
<speed>3.0</speed>
<course>152.3</course>
<desc>Speed 3.0 km/h Distance 2.96 km</desc>
<time>2010-02-25T16:50:09.79</time>
<name>2022</name>
</trkpt>
<trkpt lat="48.929617" lon="8.656548">
<ele>385.0</ele>
<speed>4.2</speed>
<course>180.0</course>
<desc>Speed 4.2 km/h Distance 2.96 km</desc>
<time>2010-02-25T16:50:10.79</time>
<name>2023</name>
</trkpt>
<trkpt lat="48.929612" lon="8.656548">
<ele>384.5</ele>
<speed>2.2</speed>
<course>175.3</course>
<desc>Speed 2.2 km/h Distance 2.96 km</desc>
<time>2010-02-25T16:50:11.79</time>
<name>2024</name>
</trkpt>
<trkpt lat="48.929600" lon="8.656550">
<ele>383.0</ele>
<speed>4.3</speed>
<course>90.0</course>
<desc>Speed 4.3 km/h Distance 2.96 km</desc>
<time>2010-02-25T16:50:12.79</time>
<name>2025</name>
</trkpt>
<trkpt lat="48.929600" lon="8.656552">
<ele>383.0</ele>
<speed>0.5</speed>
<course>33.7</course>
<desc>Speed 0.5 km/h Distance 2.96 km</desc>
<time>2010-02-25T16:50:13.79</time>
<name>2026</name>
</trkpt>
<trkpt lat="48.929603" lon="8.656555">
<ele>383.5</ele>
<speed>1.9</speed>
<course>104.2</course>
<desc>Speed 1.9 km/h Distance 2.96 km</desc>
<time>2010-02-25T16:50:14.79</time>
<name>2027</name>
</trkpt>
<trkpt lat="48.929602" lon="8.656565">
<ele>383.5</ele>
<speed>2.3</speed>
<course>123.3</course>
<desc>Speed 2.3 km/h Distance 2.96 km</desc>
<time>2010-02-25T16:50:15.79</time>
<name>2028</name>
</trkpt>
<trkpt lat="48.929597" lon="8.656577">
<ele>383.0</ele>
<speed>3.7</speed>
<course>133.1</course>
<desc>Speed 3.7 km/h Distance 2.97 km</desc>
<time>2010-02-25T16:50:16.79</time>
<name>2029</name>
</trkpt>
<trkpt lat="48.929570" lon="8.656620">
<ele>382.0</ele>
<speed>4.4</speed>
<course>141.0</course>
<desc>Speed 4.4 km/h Distance 2.97 km</desc>
<time>2010-02-25T16:50:18.79</time>
<name>2030</name>
</trkpt>
<trkpt lat="48.929563" lon="8.656628">
<ele>382.0</ele>
<speed>3.1</speed>
<course>135.7</course>
<desc>Speed 3.1 km/h Distance 2.97 km</desc>
<time>2010-02-25T16:50:19.79</time>
<name>2031</name>
</trkpt>
<trkpt lat="48.929557" lon="8.656638">
<ele>381.5</ele>
<speed>3.7</speed>
<course>132.4</course>
<desc>Speed 3.7 km/h Distance 2.97 km</desc>
<time>2010-02-25T16:50:20.79</time>
<name>2032</name>
</trkpt>
<trkpt lat="48.929542" lon="8.656663">
<ele>381.5</ele>
<speed>4.1</speed>
<course>127.3</course>
<desc>Speed 4.1 km/h Distance 2.97 km</desc>
<time>2010-02-25T16:50:21.79</time>
<name>2033</name>
</trkpt>
<trkpt lat="48.929527" lon="8.656693">
<ele>381.5</ele>
<speed>3.7</speed>
<course>123.1</course>
<desc>Speed 3.7 km/h Distance 2.98 km</desc>
<time>2010-02-25T16:50:22.79</time>
<name>2034</name>
</trkpt>
<trkpt lat="48.929522" lon="8.656705">
<ele>381.0</ele>
<speed>3.6</speed>
<course>131.3</course>
<desc>Speed 3.6 km/h Distance 2.98 km</desc>
<time>2010-02-25T16:50:23.79</time>
<name>2035</name>
</trkpt>
<trkpt lat="48.929515" lon="8.656717">
<ele>380.5</ele>
<speed>4.4</speed>
<course>141.9</course>
<desc>Speed 4.4 km/h Distance 2.98 km</desc>
<time>2010-02-25T16:50:24.79</time>
<name>2036</name>
</trkpt>
<trkpt lat="48.929507" lon="8.656727">
<ele>380.5</ele>
<speed>4.4</speed>
<course>137.4</course>
<desc>Speed 4.4 km/h Distance 2.98 km</desc>
<time>2010-02-25T16:50:25.79</time>
<name>2037</name>
</trkpt>
<trkpt lat="48.929498" lon="8.656738">
<ele>381.0</ele>
<speed>4.4</speed>
<course>135.7</course>
<desc>Speed 4.4 km/h Distance 2.98 km</desc>
<time>2010-02-25T16:50:26.79</time>
<name>2038</name>
</trkpt>
<trkpt lat="48.929492" lon="8.656748">
<ele>381.5</ele>
<speed>3.7</speed>
<course>133.4</course>
<desc>Speed 3.7 km/h Distance 2.98 km</desc>
<time>2010-02-25T16:50:27.79</time>
<name>2039</name>
</trkpt>
<trkpt lat="48.929462" lon="8.656797">
<ele>381.5</ele>
<speed>4.6</speed>
<course>127.3</course>
<desc>Speed 4.6 km/h Distance 2.99 km</desc>
<time>2010-02-25T16:50:29.79</time>
<name>2040</name>
</trkpt>
<trkpt lat="48.929445" lon="8.656830">
<ele>382.0</ele>
<speed>4.1</speed>
<course>142.7</course>
<desc>Speed 4.1 km/h Distance 2.99 km</desc>
<time>2010-02-25T16:50:30.79</time>
<name>2041</name>
</trkpt>
<trkpt lat="48.929435" lon="8.656842">
<ele>381.5</ele>
<speed>4.6</speed>
<course>136.9</course>
<desc>Speed 4.6 km/h Distance 2.99 km</desc>
<time>2010-02-25T16:50:31.79</time>
<name>2042</name>
</trkpt>
<trkpt lat="48.929423" lon="8.656858">
<ele>381.5</ele>
<speed>4.0</speed>
<course>141.9</course>
<desc>Speed 4.0 km/h Distance 2.99 km</desc>
<time>2010-02-25T16:50:32.79</time>
<name>2043</name>
</trkpt>
<trkpt lat="48.929415" lon="8.656868">
<ele>381.0</ele>
<speed>3.6</speed>
<course>132.4</course>
<desc>Speed 3.6 km/h Distance 3.00 km</desc>
<time>2010-02-25T16:50:33.79</time>
<name>2044</name>
</trkpt>
<trkpt lat="48.929400" lon="8.656893">
<ele>382.0</ele>
<speed>4.6</speed>
<course>146.8</course>
<desc>Speed 4.6 km/h Distance 3.00 km</desc>
<time>2010-02-25T16:50:34.79</time>
<name>2045</name>
</trkpt>
<trkpt lat="48.929392" lon="8.656902">
<ele>382.0</ele>
<speed>4.3</speed>
<course>133.6</course>
<desc>Speed 4.3 km/h Distance 3.00 km</desc>
<time>2010-02-25T16:50:35.79</time>
<name>2046</name>
</trkpt>
<trkpt lat="48.929383" lon="8.656915">
<ele>382.5</ele>
<speed>4.6</speed>
<course>137.4</course>
<desc>Speed 4.6 km/h Distance 3.00 km</desc>
<time>2010-02-25T16:50:36.79</time>
<name>2047</name>
</trkpt>
<trkpt lat="48.929375" lon="8.656927">
<ele>382.0</ele>
<speed>4.6</speed>
<course>129.2</course>
<desc>Speed 4.6 km/h Distance 3.00 km</desc>
<time>2010-02-25T16:50:37.79</time>
<name>2048</name>
</trkpt>
<trkpt lat="48.929350" lon="8.656973">
<ele>382.0</ele>
<speed>3.7</speed>
<course>137.5</course>
<desc>Speed 3.7 km/h Distance 3.01 km</desc>
<time>2010-02-25T16:50:39.79</time>
<name>2049</name>
</trkpt>
<trkpt lat="48.929342" lon="8.656985">
<ele>382.0</ele>
<speed>4.2</speed>
<course>135.5</course>
<desc>Speed 4.2 km/h Distance 3.01 km</desc>
<time>2010-02-25T16:50:40.79</time>
<name>2050</name>
</trkpt>
<trkpt lat="48.929335" lon="8.656995">
<ele>382.0</ele>
<speed>3.3</speed>
<course>135.5</course>
<desc>Speed 3.3 km/h Distance 3.01 km</desc>
<time>2010-02-25T16:50:41.79</time>
<name>2051</name>
</trkpt>
<trkpt lat="48.929328" lon="8.657005">
<ele>382.5</ele>
<speed>3.5</speed>
<course>135.5</course>
<desc>Speed 3.5 km/h Distance 3.01 km</desc>
<time>2010-02-25T16:50:42.79</time>
<name>2052</name>
</trkpt>
<trkpt lat="48.929322" lon="8.657015">
<ele>383.0</ele>
<speed>3.6</speed>
<course>132.9</course>
<desc>Speed 3.6 km/h Distance 3.01 km</desc>
<time>2010-02-25T16:50:43.79</time>
<name>2053</name>
</trkpt>
<trkpt lat="48.929317" lon="8.657023">
<ele>383.0</ele>
<speed>2.8</speed>
<course>132.6</course>
<desc>Speed 2.8 km/h Distance 3.01 km</desc>
<time>2010-02-25T16:50:44.79</time>
<name>2054</name>
</trkpt>
<trkpt lat="48.929312" lon="8.657032">
<ele>383.5</ele>
<speed>3.3</speed>
<course>127.2</course>
<desc>Speed 3.3 km/h Distance 3.01 km</desc>
<time>2010-02-25T16:50:45.79</time>
<name>2055</name>
</trkpt>
<trkpt lat="48.929307" lon="8.657042">
<ele>383.5</ele>
<speed>3.2</speed>
<course>138.1</course>
<desc>Speed 3.2 km/h Distance 3.01 km</desc>
<time>2010-02-25T16:50:46.79</time>
<name>2056</name>
</trkpt>
<trkpt lat="48.929302" lon="8.657048">
<ele>384.0</ele>
<speed>2.7</speed>
<course>139.1</course>
<desc>Speed 2.7 km/h Distance 3.01 km</desc>
<time>2010-02-25T16:50:47.79</time>
<name>2057</name>
</trkpt>
<trkpt lat="48.929297" lon="8.657055">
<ele>384.0</ele>
<speed>2.5</speed>
<course>139.1</course>
<desc>Speed 2.5 km/h Distance 3.01 km</desc>
<time>2010-02-25T16:50:48.79</time>
<name>2058</name>
</trkpt>
<trkpt lat="48.929292" lon="8.657062">
<ele>383.5</ele>
<speed>2.1</speed>
<course>180.0</course>
<desc>Speed 2.1 km/h Distance 3.01 km</desc>
<time>2010-02-25T16:50:49.79</time>
<name>2059</name>
</trkpt>
<trkpt lat="48.929288" lon="8.657062">
<ele>382.5</ele>
<speed>1.6</speed>
<course>37.2</course>
<desc>Speed 1.6 km/h Distance 3.02 km</desc>
<time>2010-02-25T16:50:50.79</time>
<name>2060</name>
</trkpt>
<trkpt lat="48.929290" lon="8.657063">
<ele>382.0</ele>
<speed>0.8</speed>
<course>90.0</course>
<desc>Speed 0.8 km/h Distance 3.02 km</desc>
<time>2010-02-25T16:50:51.79</time>
<name>2061</name>
</trkpt>
<trkpt lat="48.929290" lon="8.657067">
<ele>381.5</ele>
<speed>0.6</speed>
<course>167.4</course>
<desc>Speed 0.6 km/h Distance 3.02 km</desc>
<time>2010-02-25T16:50:52.79</time>
<name>2062</name>
</trkpt>
<trkpt lat="48.929288" lon="8.657067">
<ele>381.5</ele>
<speed>0.2</speed>
<course>167.4</course>
<desc>Speed 0.2 km/h Distance 3.02 km</desc>
<time>2010-02-25T16:50:53.79</time>
<name>2063</name>
</trkpt>
<trkpt lat="48.929288" lon="8.657067">
<ele>381.5</ele>
<speed>0.2</speed>
<course>167.4</course>
<desc>Speed 0.2 km/h Distance 3.02 km</desc>
<time>2010-02-25T16:50:54.79</time>
<name>2064</name>
</trkpt>
<trkpt lat="48.929288" lon="8.657067">
<ele>381.5</ele>
<speed>0.3</speed>
<course>128.1</course>
<desc>Speed 0.3 km/h Distance 3.02 km</desc>
<time>2010-02-25T16:50:55.79</time>
<name>2065</name>
</trkpt>
<trkpt lat="48.929285" lon="8.657073">
<ele>382.0</ele>
<speed>1.9</speed>
<course>135.5</course>
<desc>Speed 1.9 km/h Distance 3.02 km</desc>
<time>2010-02-25T16:50:56.79</time>
<name>2066</name>
</trkpt>
<trkpt lat="48.929278" lon="8.657083">
<ele>382.5</ele>
<speed>3.7</speed>
<course>142.5</course>
<desc>Speed 3.7 km/h Distance 3.02 km</desc>
<time>2010-02-25T16:50:57.79</time>
<name>2067</name>
</trkpt>
<trkpt lat="48.929268" lon="8.657095">
<ele>383.0</ele>
<speed>4.9</speed>
<course>151.1</course>
<desc>Speed 4.9 km/h Distance 3.02 km</desc>
<time>2010-02-25T16:50:58.79</time>
<name>2068</name>
</trkpt>
<trkpt lat="48.929258" lon="8.657103">
<ele>384.0</ele>
<speed>3.9</speed>
<course>135.5</course>
<desc>Speed 3.9 km/h Distance 3.02 km</desc>
<time>2010-02-25T16:50:59.79</time>
<name>2069</name>
</trkpt>
<trkpt lat="48.929252" lon="8.657113">
<ele>384.5</ele>
<speed>3.7</speed>
<course>122.9</course>
<desc>Speed 3.7 km/h Distance 3.02 km</desc>
<time>2010-02-25T16:51:00.79</time>
<name>2070</name>
</trkpt>
<trkpt lat="48.929247" lon="8.657125">
<ele>385.0</ele>
<speed>3.8</speed>
<course>152.1</course>
<desc>Speed 3.8 km/h Distance 3.02 km</desc>
<time>2010-02-25T16:51:01.79</time>
<name>2071</name>
</trkpt>
<trkpt lat="48.929238" lon="8.657132">
<ele>386.0</ele>
<speed>3.4</speed>
<course>141.9</course>
<desc>Speed 3.4 km/h Distance 3.02 km</desc>
<time>2010-02-25T16:51:02.79</time>
<name>2072</name>
</trkpt>
<trkpt lat="48.929230" lon="8.657142">
<ele>386.0</ele>
<speed>3.9</speed>
<course>147.4</course>
<desc>Speed 3.9 km/h Distance 3.02 km</desc>
<time>2010-02-25T16:51:03.79</time>
<name>2073</name>
</trkpt>
<trkpt lat="48.929223" lon="8.657148">
<ele>386.5</ele>
<speed>2.7</speed>
<course>131.0</course>
<desc>Speed 2.7 km/h Distance 3.03 km</desc>
<time>2010-02-25T16:51:04.79</time>
<name>2074</name>
</trkpt>
<trkpt lat="48.929210" lon="8.657172">
<ele>387.0</ele>
<speed>3.8</speed>
<course>146.3</course>
<desc>Speed 3.8 km/h Distance 3.03 km</desc>
<time>2010-02-25T16:51:05.79</time>
<name>2075</name>
</trkpt>
<trkpt lat="48.929207" lon="8.657175">
<ele>387.0</ele>
<speed>1.5</speed>
<course>117.4</course>
<desc>Speed 1.5 km/h Distance 3.03 km</desc>
<time>2010-02-25T16:51:06.79</time>
<name>2076</name>
</trkpt>
<trkpt lat="48.929205" lon="8.657180">
<ele>387.5</ele>
<speed>0.5</speed>
<course>117.4</course>
<desc>Speed 0.5 km/h Distance 3.03 km</desc>
<time>2010-02-25T16:51:07.79</time>
<name>2077</name>
</trkpt>
<trkpt lat="48.929205" lon="8.657180">
<ele>387.5</ele>
<speed>0.1</speed>
<course>150.8</course>
<desc>Speed 0.1 km/h Distance 3.03 km</desc>
<time>2010-02-25T16:51:08.79</time>
<name>2078</name>
</trkpt>
<trkpt lat="48.929203" lon="8.657182">
<ele>387.0</ele>
<speed>0.9</speed>
<course>150.8</course>
<desc>Speed 0.9 km/h Distance 3.03 km</desc>
<time>2010-02-25T16:51:09.79</time>
<name>2079</name>
</trkpt>
<trkpt lat="48.929202" lon="8.657183">
<ele>387.5</ele>
<speed>0.4</speed>
<course>142.8</course>
<desc>Speed 0.4 km/h Distance 3.03 km</desc>
<time>2010-02-25T16:51:10.79</time>
<name>2080</name>
</trkpt>
<trkpt lat="48.929200" lon="8.657185">
<ele>387.5</ele>
<speed>0.3</speed>
<course>142.8</course>
<desc>Speed 0.3 km/h Distance 3.03 km</desc>
<time>2010-02-25T16:51:11.79</time>
<name>2081</name>
</trkpt>
<trkpt lat="48.929198" lon="8.657187">
<ele>388.0</ele>
<speed>0.2</speed>
<course>131.6</course>
<desc>Speed 0.2 km/h Distance 3.03 km</desc>
<time>2010-02-25T16:51:12.79</time>
<name>2082</name>
</trkpt>
<trkpt lat="48.929187" lon="8.657207">
<ele>390.5</ele>
<speed>0.1</speed>
<course>124.1</course>
<desc>Speed 0.1 km/h Distance 3.03 km</desc>
<time>2010-02-25T16:51:13.79</time>
<name>2083</name>
</trkpt>
<trkpt lat="48.929180" lon="8.657222">
<ele>391.5</ele>
<speed>0.2</speed>
<course>90.0</course>
<desc>Speed 0.2 km/h Distance 3.03 km</desc>
<time>2010-02-25T16:51:14.79</time>
<name>2084</name>
</trkpt>
<trkpt lat="48.929180" lon="8.657223">
<ele>391.5</ele>
<speed>0.4</speed>
<course>167.4</course>
<desc>Speed 0.4 km/h Distance 3.03 km</desc>
<time>2010-02-25T16:51:15.79</time>
<name>2085</name>
</trkpt>
<trkpt lat="48.929178" lon="8.657225">
<ele>391.5</ele>
<speed>0.1</speed>
<course>90.0</course>
<desc>Speed 0.1 km/h Distance 3.03 km</desc>
<time>2010-02-25T16:51:16.79</time>
<name>2086</name>
</trkpt>
<trkpt lat="48.929178" lon="8.657227">
<ele>391.5</ele>
<speed>0.1</speed>
<course>90.0</course>
<desc>Speed 0.1 km/h Distance 3.03 km</desc>
<time>2010-02-25T16:51:17.79</time>
<name>2087</name>
</trkpt>
<trkpt lat="48.929178" lon="8.657227">
<ele>391.5</ele>
<speed>0.2</speed>
<course>128.1</course>
<desc>Speed 0.2 km/h Distance 3.03 km</desc>
<time>2010-02-25T16:51:18.79</time>
<name>2088</name>
</trkpt>
<trkpt lat="48.929177" lon="8.657230">
<ele>392.0</ele>
<speed>0.3</speed>
<course>167.4</course>
<desc>Speed 0.3 km/h Distance 3.03 km</desc>
<time>2010-02-25T16:51:19.79</time>
<name>2089</name>
</trkpt>
<trkpt lat="48.929175" lon="8.657230">
<ele>391.5</ele>
<speed>0.4</speed>
<course>146.5</course>
<desc>Speed 0.4 km/h Distance 3.03 km</desc>
<time>2010-02-25T16:51:20.79</time>
<name>2090</name>
</trkpt>
<trkpt lat="48.929167" lon="8.657238">
<ele>392.5</ele>
<speed>1.4</speed>
<course>128.1</course>
<desc>Speed 1.4 km/h Distance 3.03 km</desc>
<time>2010-02-25T16:51:21.79</time>
<name>2091</name>
</trkpt>
<trkpt lat="48.929165" lon="8.657242">
<ele>392.0</ele>
<speed>0.5</speed>
<course>90.0</course>
<desc>Speed 0.5 km/h Distance 3.04 km</desc>
<time>2010-02-25T16:51:22.79</time>
<name>2092</name>
</trkpt>
<trkpt lat="48.929165" lon="8.657245">
<ele>391.5</ele>
<speed>0.4</speed>
<course>90.0</course>
<desc>Speed 0.4 km/h Distance 3.04 km</desc>
<time>2010-02-25T16:51:23.79</time>
<name>2093</name>
</trkpt>
<trkpt lat="48.929165" lon="8.657248">
<ele>391.0</ele>
<speed>0.2</speed>
<course>128.1</course>
<desc>Speed 0.2 km/h Distance 3.04 km</desc>
<time>2010-02-25T16:51:24.79</time>
<name>2094</name>
</trkpt>
<trkpt lat="48.929163" lon="8.657252">
<ele>391.0</ele>
<speed>0.6</speed>
<course>128.1</course>
<desc>Speed 0.6 km/h Distance 3.04 km</desc>
<time>2010-02-25T16:51:25.79</time>
<name>2095</name>
</trkpt>
<trkpt lat="48.929163" lon="8.657252">
<ele>390.5</ele>
<speed>0.3</speed>
<course>128.1</course>
<desc>Speed 0.3 km/h Distance 3.04 km</desc>
<time>2010-02-25T16:51:26.79</time>
<name>2096</name>
</trkpt>
<trkpt lat="48.929163" lon="8.657252">
<ele>391.0</ele>
<speed>0.3</speed>
<course>128.1</course>
<desc>Speed 0.3 km/h Distance 3.04 km</desc>
<time>2010-02-25T16:51:27.79</time>
<name>2097</name>
</trkpt>
<trkpt lat="48.929163" lon="8.657253">
<ele>390.5</ele>
<speed>0.1</speed>
<course>142.8</course>
<desc>Speed 0.1 km/h Distance 3.04 km</desc>
<time>2010-02-25T16:51:28.79</time>
<name>2098</name>
</trkpt>
<trkpt lat="48.929162" lon="8.657255">
<ele>390.5</ele>
<speed>0.3</speed>
<course>142.8</course>
<desc>Speed 0.3 km/h Distance 3.04 km</desc>
<time>2010-02-25T16:51:29.79</time>
<name>2099</name>
</trkpt>
<trkpt lat="48.929162" lon="8.657255">
<ele>390.5</ele>
<speed>0.3</speed>
<course>52.8</course>
<desc>Speed 0.3 km/h Distance 3.04 km</desc>
<time>2010-02-25T16:51:30.79</time>
<name>2100</name>
</trkpt>
<trkpt lat="48.929167" lon="8.657265">
<ele>390.5</ele>
<speed>0.3</speed>
<course>12.6</course>
<desc>Speed 0.3 km/h Distance 3.04 km</desc>
<time>2010-02-25T16:51:31.79</time>
<name>2101</name>
</trkpt>
<trkpt lat="48.929168" lon="8.657265">
<ele>390.5</ele>
<speed>1.0</speed>
<course>270.0</course>
<desc>Speed 1.0 km/h Distance 3.04 km</desc>
<time>2010-02-25T16:51:32.79</time>
<name>2102</name>
</trkpt>
<trkpt lat="48.929168" lon="8.657262">
<ele>390.5</ele>
<speed>1.0</speed>
<course>90.0</course>
<desc>Speed 1.0 km/h Distance 3.04 km</desc>
<time>2010-02-25T16:51:33.79</time>
<name>2103</name>
</trkpt>
<trkpt lat="48.929168" lon="8.657267">
<ele>390.5</ele>
<speed>1.0</speed>
<course>136.8</course>
<desc>Speed 1.0 km/h Distance 3.04 km</desc>
<time>2010-02-25T16:51:34.79</time>
<name>2104</name>
</trkpt>
<trkpt lat="48.929157" lon="8.657283">
<ele>390.5</ele>
<speed>4.7</speed>
<course>130.2</course>
<desc>Speed 4.7 km/h Distance 3.04 km</desc>
<time>2010-02-25T16:51:35.79</time>
<name>2105</name>
</trkpt>
<trkpt lat="48.929148" lon="8.657298">
<ele>390.0</ele>
<speed>4.7</speed>
<course>125.6</course>
<desc>Speed 4.7 km/h Distance 3.04 km</desc>
<time>2010-02-25T16:51:36.79</time>
<name>2106</name>
</trkpt>
<trkpt lat="48.929135" lon="8.657327">
<ele>390.0</ele>
<speed>4.6</speed>
<course>130.2</course>
<desc>Speed 4.6 km/h Distance 3.04 km</desc>
<time>2010-02-25T16:51:37.79</time>
<name>2107</name>
</trkpt>
<trkpt lat="48.929093" lon="8.657402">
<ele>389.5</ele>
<speed>6.4</speed>
<course>121.9</course>
<desc>Speed 6.4 km/h Distance 3.05 km</desc>
<time>2010-02-25T16:51:39.79</time>
<name>2108</name>
</trkpt>
<trkpt lat="48.929078" lon="8.657438">
<ele>389.5</ele>
<speed>4.8</speed>
<course>133.4</course>
<desc>Speed 4.8 km/h Distance 3.05 km</desc>
<time>2010-02-25T16:51:40.79</time>
<name>2109</name>
</trkpt>
<trkpt lat="48.929070" lon="8.657452">
<ele>390.0</ele>
<speed>4.9</speed>
<course>127.2</course>
<desc>Speed 4.9 km/h Distance 3.06 km</desc>
<time>2010-02-25T16:51:41.79</time>
<name>2110</name>
</trkpt>
<trkpt lat="48.929063" lon="8.657465">
<ele>390.0</ele>
<speed>4.7</speed>
<course>119.7</course>
<desc>Speed 4.7 km/h Distance 3.06 km</desc>
<time>2010-02-25T16:51:42.79</time>
<name>2111</name>
</trkpt>
<trkpt lat="48.929058" lon="8.657478">
<ele>390.0</ele>
<speed>4.7</speed>
<course>146.6</course>
<desc>Speed 4.7 km/h Distance 3.06 km</desc>
<time>2010-02-25T16:51:43.79</time>
<name>2112</name>
</trkpt>
<trkpt lat="48.929047" lon="8.657490">
<ele>389.5</ele>
<speed>4.7</speed>
<course>141.9</course>
<desc>Speed 4.7 km/h Distance 3.06 km</desc>
<time>2010-02-25T16:51:44.79</time>
<name>2113</name>
</trkpt>
<trkpt lat="48.929038" lon="8.657500">
<ele>389.5</ele>
<speed>3.9</speed>
<course>141.9</course>
<desc>Speed 3.9 km/h Distance 3.06 km</desc>
<time>2010-02-25T16:51:45.79</time>
<name>2114</name>
</trkpt>
<trkpt lat="48.929030" lon="8.657510">
<ele>390.0</ele>
<speed>4.1</speed>
<course>132.2</course>
<desc>Speed 4.1 km/h Distance 3.06 km</desc>
<time>2010-02-25T16:51:46.79</time>
<name>2115</name>
</trkpt>
<trkpt lat="48.929025" lon="8.657518">
<ele>390.0</ele>
<speed>3.3</speed>
<course>135.5</course>
<desc>Speed 3.3 km/h Distance 3.06 km</desc>
<time>2010-02-25T16:51:47.79</time>
<name>2116</name>
</trkpt>
<trkpt lat="48.929018" lon="8.657528">
<ele>390.0</ele>
<speed>3.7</speed>
<course>127.3</course>
<desc>Speed 3.7 km/h Distance 3.06 km</desc>
<time>2010-02-25T16:51:48.79</time>
<name>2117</name>
</trkpt>
<trkpt lat="48.929012" lon="8.657542">
<ele>390.0</ele>
<speed>4.0</speed>
<course>123.3</course>
<desc>Speed 4.0 km/h Distance 3.06 km</desc>
<time>2010-02-25T16:51:49.79</time>
<name>2118</name>
</trkpt>
<trkpt lat="48.929007" lon="8.657553">
<ele>390.5</ele>
<speed>3.2</speed>
<course>140.6</course>
<desc>Speed 3.2 km/h Distance 3.07 km</desc>
<time>2010-02-25T16:51:50.79</time>
<name>2119</name>
</trkpt>
<trkpt lat="48.929000" lon="8.657562">
<ele>391.0</ele>
<speed>3.3</speed>
<course>130.9</course>
<desc>Speed 3.3 km/h Distance 3.07 km</desc>
<time>2010-02-25T16:51:51.79</time>
<name>2120</name>
</trkpt>
<trkpt lat="48.928993" lon="8.657573">
<ele>391.5</ele>
<speed>3.5</speed>
<course>127.6</course>
<desc>Speed 3.5 km/h Distance 3.07 km</desc>
<time>2010-02-25T16:51:52.79</time>
<name>2121</name>
</trkpt>
<trkpt lat="48.928988" lon="8.657583">
<ele>391.5</ele>
<speed>2.8</speed>
<course>133.5</course>
<desc>Speed 2.8 km/h Distance 3.07 km</desc>
<time>2010-02-25T16:51:53.79</time>
<name>2122</name>
</trkpt>
<trkpt lat="48.928980" lon="8.657597">
<ele>391.5</ele>
<speed>4.3</speed>
<course>130.2</course>
<desc>Speed 4.3 km/h Distance 3.07 km</desc>
<time>2010-02-25T16:51:54.79</time>
<name>2123</name>
</trkpt>
<trkpt lat="48.928972" lon="8.657612">
<ele>391.0</ele>
<speed>4.1</speed>
<course>130.9</course>
<desc>Speed 4.1 km/h Distance 3.07 km</desc>
<time>2010-02-25T16:51:55.79</time>
<name>2124</name>
</trkpt>
<trkpt lat="48.928965" lon="8.657623">
<ele>391.0</ele>
<speed>3.2</speed>
<course>140.6</course>
<desc>Speed 3.2 km/h Distance 3.07 km</desc>
<time>2010-02-25T16:51:56.79</time>
<name>2125</name>
</trkpt>
<trkpt lat="48.928958" lon="8.657632">
<ele>391.0</ele>
<speed>3.4</speed>
<course>152.1</course>
<desc>Speed 3.4 km/h Distance 3.07 km</desc>
<time>2010-02-25T16:51:57.79</time>
<name>2126</name>
</trkpt>
<trkpt lat="48.928950" lon="8.657638">
<ele>391.0</ele>
<speed>3.0</speed>
<course>152.1</course>
<desc>Speed 3.0 km/h Distance 3.07 km</desc>
<time>2010-02-25T16:51:58.79</time>
<name>2127</name>
</trkpt>
<trkpt lat="48.928942" lon="8.657645">
<ele>391.5</ele>
<speed>3.2</speed>
<course>141.0</course>
<desc>Speed 3.2 km/h Distance 3.08 km</desc>
<time>2010-02-25T16:51:59.79</time>
<name>2128</name>
</trkpt>
<trkpt lat="48.928935" lon="8.657653">
<ele>391.5</ele>
<speed>2.7</speed>
<course>141.9</course>
<desc>Speed 2.7 km/h Distance 3.08 km</desc>
<time>2010-02-25T16:52:00.79</time>
<name>2129</name>
</trkpt>
<trkpt lat="48.928927" lon="8.657663">
<ele>391.5</ele>
<speed>3.6</speed>
<course>131.1</course>
<desc>Speed 3.6 km/h Distance 3.08 km</desc>
<time>2010-02-25T16:52:01.79</time>
<name>2130</name>
</trkpt>
<trkpt lat="48.928920" lon="8.657675">
<ele>391.5</ele>
<speed>3.9</speed>
<course>151.4</course>
<desc>Speed 3.9 km/h Distance 3.08 km</desc>
<time>2010-02-25T16:52:02.79</time>
<name>2131</name>
</trkpt>
<trkpt lat="48.928910" lon="8.657683">
<ele>392.0</ele>
<speed>3.5</speed>
<course>152.1</course>
<desc>Speed 3.5 km/h Distance 3.08 km</desc>
<time>2010-02-25T16:52:03.79</time>
<name>2132</name>
</trkpt>
<trkpt lat="48.928902" lon="8.657690">
<ele>392.5</ele>
<speed>3.5</speed>
<course>152.1</course>
<desc>Speed 3.5 km/h Distance 3.08 km</desc>
<time>2010-02-25T16:52:04.79</time>
<name>2133</name>
</trkpt>
<trkpt lat="48.928893" lon="8.657697">
<ele>392.5</ele>
<speed>2.9</speed>
<course>146.3</course>
<desc>Speed 2.9 km/h Distance 3.08 km</desc>
<time>2010-02-25T16:52:05.79</time>
<name>2134</name>
</trkpt>
<trkpt lat="48.928887" lon="8.657703">
<ele>393.0</ele>
<speed>2.5</speed>
<course>127.0</course>
<desc>Speed 2.5 km/h Distance 3.08 km</desc>
<time>2010-02-25T16:52:06.79</time>
<name>2135</name>
</trkpt>
<trkpt lat="48.928883" lon="8.657710">
<ele>393.0</ele>
<speed>1.6</speed>
<course>127.2</course>
<desc>Speed 1.6 km/h Distance 3.08 km</desc>
<time>2010-02-25T16:52:07.79</time>
<name>2136</name>
</trkpt>
<trkpt lat="48.928878" lon="8.657720">
<ele>393.0</ele>
<speed>3.0</speed>
<course>127.0</course>
<desc>Speed 3.0 km/h Distance 3.08 km</desc>
<time>2010-02-25T16:52:08.79</time>
<name>2137</name>
</trkpt>
<trkpt lat="48.928875" lon="8.657727">
<ele>392.5</ele>
<speed>1.3</speed>
<course>133.4</course>
<desc>Speed 1.3 km/h Distance 3.09 km</desc>
<time>2010-02-25T16:52:09.79</time>
<name>2138</name>
</trkpt>
<trkpt lat="48.928867" lon="8.657740">
<ele>392.5</ele>
<speed>4.0</speed>
<course>123.3</course>
<desc>Speed 4.0 km/h Distance 3.09 km</desc>
<time>2010-02-25T16:52:10.79</time>
<name>2139</name>
</trkpt>
<trkpt lat="48.928862" lon="8.657752">
<ele>392.0</ele>
<speed>3.4</speed>
<course>141.9</course>
<desc>Speed 3.4 km/h Distance 3.09 km</desc>
<time>2010-02-25T16:52:11.79</time>
<name>2140</name>
</trkpt>
<trkpt lat="48.928853" lon="8.657762">
<ele>391.5</ele>
<speed>3.6</speed>
<course>134.2</course>
<desc>Speed 3.6 km/h Distance 3.09 km</desc>
<time>2010-02-25T16:52:12.79</time>
<name>2141</name>
</trkpt>
<trkpt lat="48.928827" lon="8.657803">
<ele>391.5</ele>
<speed>2.5</speed>
<course>141.9</course>
<desc>Speed 2.5 km/h Distance 3.09 km</desc>
<time>2010-02-25T16:52:14.79</time>
<name>2142</name>
</trkpt>
<trkpt lat="48.928818" lon="8.657813">
<ele>391.5</ele>
<speed>3.5</speed>
<course>135.5</course>
<desc>Speed 3.5 km/h Distance 3.09 km</desc>
<time>2010-02-25T16:52:15.79</time>
<name>2143</name>
</trkpt>
<trkpt lat="48.928812" lon="8.657823">
<ele>391.0</ele>
<speed>2.6</speed>
<course>125.9</course>
<desc>Speed 2.6 km/h Distance 3.10 km</desc>
<time>2010-02-25T16:52:16.79</time>
<name>2144</name>
</trkpt>
<trkpt lat="48.928778" lon="8.657893">
<ele>391.0</ele>
<speed>3.9</speed>
<course>132.6</course>
<desc>Speed 3.9 km/h Distance 3.10 km</desc>
<time>2010-02-25T16:52:18.79</time>
<name>2145</name>
</trkpt>
<trkpt lat="48.928773" lon="8.657902">
<ele>391.0</ele>
<speed>2.8</speed>
<course>140.6</course>
<desc>Speed 2.8 km/h Distance 3.10 km</desc>
<time>2010-02-25T16:52:19.79</time>
<name>2146</name>
</trkpt>
<trkpt lat="48.928767" lon="8.657910">
<ele>390.5</ele>
<speed>2.7</speed>
<course>130.9</course>
<desc>Speed 2.7 km/h Distance 3.10 km</desc>
<time>2010-02-25T16:52:20.79</time>
<name>2147</name>
</trkpt>
<trkpt lat="48.928760" lon="8.657922">
<ele>391.0</ele>
<speed>2.9</speed>
<course>133.1</course>
<desc>Speed 2.9 km/h Distance 3.10 km</desc>
<time>2010-02-25T16:52:21.79</time>
<name>2148</name>
</trkpt>
<trkpt lat="48.928733" lon="8.657965">
<ele>391.5</ele>
<speed>4.3</speed>
<course>119.8</course>
<desc>Speed 4.3 km/h Distance 3.11 km</desc>
<time>2010-02-25T16:52:23.79</time>
<name>2149</name>
</trkpt>
<trkpt lat="48.928728" lon="8.657978">
<ele>390.5</ele>
<speed>3.3</speed>
<course>146.8</course>
<desc>Speed 3.3 km/h Distance 3.11 km</desc>
<time>2010-02-25T16:52:24.79</time>
<name>2150</name>
</trkpt>
<trkpt lat="48.928720" lon="8.657987">
<ele>390.5</ele>
<speed>3.4</speed>
<course>142.5</course>
<desc>Speed 3.4 km/h Distance 3.11 km</desc>
<time>2010-02-25T16:52:25.79</time>
<name>2151</name>
</trkpt>
<trkpt lat="48.928710" lon="8.657998">
<ele>390.5</ele>
<speed>4.5</speed>
<course>143.1</course>
<desc>Speed 4.5 km/h Distance 3.11 km</desc>
<time>2010-02-25T16:52:26.79</time>
<name>2152</name>
</trkpt>
<trkpt lat="48.928698" lon="8.658012">
<ele>390.5</ele>
<speed>4.5</speed>
<course>133.6</course>
<desc>Speed 4.5 km/h Distance 3.11 km</desc>
<time>2010-02-25T16:52:27.79</time>
<name>2153</name>
</trkpt>
<trkpt lat="48.928690" lon="8.658025">
<ele>390.5</ele>
<speed>4.0</speed>
<course>141.9</course>
<desc>Speed 4.0 km/h Distance 3.12 km</desc>
<time>2010-02-25T16:52:28.79</time>
<name>2154</name>
</trkpt>
<trkpt lat="48.928682" lon="8.658035">
<ele>391.0</ele>
<speed>3.6</speed>
<course>141.9</course>
<desc>Speed 3.6 km/h Distance 3.12 km</desc>
<time>2010-02-25T16:52:29.79</time>
<name>2155</name>
</trkpt>
<trkpt lat="48.928673" lon="8.658045">
<ele>391.5</ele>
<speed>3.9</speed>
<course>146.8</course>
<desc>Speed 3.9 km/h Distance 3.12 km</desc>
<time>2010-02-25T16:52:30.79</time>
<name>2156</name>
</trkpt>
<trkpt lat="48.928665" lon="8.658053">
<ele>391.5</ele>
<speed>3.7</speed>
<course>152.1</course>
<desc>Speed 3.7 km/h Distance 3.12 km</desc>
<time>2010-02-25T16:52:31.79</time>
<name>2157</name>
</trkpt>
<trkpt lat="48.928657" lon="8.658060">
<ele>392.0</ele>
<speed>2.8</speed>
<course>152.1</course>
<desc>Speed 2.8 km/h Distance 3.12 km</desc>
<time>2010-02-25T16:52:32.79</time>
<name>2158</name>
</trkpt>
<trkpt lat="48.928648" lon="8.658067">
<ele>392.5</ele>
<speed>3.5</speed>
<course>137.4</course>
<desc>Speed 3.5 km/h Distance 3.12 km</desc>
<time>2010-02-25T16:52:33.79</time>
<name>2159</name>
</trkpt>
<trkpt lat="48.928640" lon="8.658078">
<ele>392.5</ele>
<speed>4.2</speed>
<course>135.5</course>
<desc>Speed 4.2 km/h Distance 3.12 km</desc>
<time>2010-02-25T16:52:34.79</time>
<name>2160</name>
</trkpt>
<trkpt lat="48.928633" lon="8.658088">
<ele>392.0</ele>
<speed>3.4</speed>
<course>135.5</course>
<desc>Speed 3.4 km/h Distance 3.12 km</desc>
<time>2010-02-25T16:52:35.79</time>
<name>2161</name>
</trkpt>
<trkpt lat="48.928627" lon="8.658098">
<ele>392.5</ele>
<speed>3.1</speed>
<course>127.3</course>
<desc>Speed 3.1 km/h Distance 3.12 km</desc>
<time>2010-02-25T16:52:36.79</time>
<name>2162</name>
</trkpt>
<trkpt lat="48.928620" lon="8.658112">
<ele>392.5</ele>
<speed>3.7</speed>
<course>135.5</course>
<desc>Speed 3.7 km/h Distance 3.13 km</desc>
<time>2010-02-25T16:52:37.79</time>
<name>2163</name>
</trkpt>
<trkpt lat="48.928610" lon="8.658127">
<ele>393.0</ele>
<speed>4.1</speed>
<course>142.5</course>
<desc>Speed 4.1 km/h Distance 3.13 km</desc>
<time>2010-02-25T16:52:38.79</time>
<name>2164</name>
</trkpt>
<trkpt lat="48.928600" lon="8.658138">
<ele>393.0</ele>
<speed>4.1</speed>
<course>130.9</course>
<desc>Speed 4.1 km/h Distance 3.13 km</desc>
<time>2010-02-25T16:52:39.79</time>
<name>2165</name>
</trkpt>
<trkpt lat="48.928593" lon="8.658150">
<ele>392.5</ele>
<speed>4.0</speed>
<course>133.6</course>
<desc>Speed 4.0 km/h Distance 3.13 km</desc>
<time>2010-02-25T16:52:40.79</time>
<name>2166</name>
</trkpt>
<trkpt lat="48.928585" lon="8.658163">
<ele>392.0</ele>
<speed>4.2</speed>
<course>142.8</course>
<desc>Speed 4.2 km/h Distance 3.13 km</desc>
<time>2010-02-25T16:52:41.79</time>
<name>2167</name>
</trkpt>
<trkpt lat="48.928575" lon="8.658175">
<ele>392.5</ele>
<speed>4.2</speed>
<course>151.4</course>
<desc>Speed 4.2 km/h Distance 3.13 km</desc>
<time>2010-02-25T16:52:42.79</time>
<name>2168</name>
</trkpt>
<trkpt lat="48.928565" lon="8.658183">
<ele>392.5</ele>
<speed>3.7</speed>
<course>146.5</course>
<desc>Speed 3.7 km/h Distance 3.13 km</desc>
<time>2010-02-25T16:52:43.79</time>
<name>2169</name>
</trkpt>
<trkpt lat="48.928557" lon="8.658192">
<ele>392.5</ele>
<speed>3.6</speed>
<course>146.5</course>
<desc>Speed 3.6 km/h Distance 3.14 km</desc>
<time>2010-02-25T16:52:44.79</time>
<name>2170</name>
</trkpt>
<trkpt lat="48.928548" lon="8.658200">
<ele>392.5</ele>
<speed>3.9</speed>
<course>142.5</course>
<desc>Speed 3.9 km/h Distance 3.14 km</desc>
<time>2010-02-25T16:52:45.79</time>
<name>2171</name>
</trkpt>
<trkpt lat="48.928538" lon="8.658212">
<ele>392.5</ele>
<speed>4.1</speed>
<course>141.9</course>
<desc>Speed 4.1 km/h Distance 3.14 km</desc>
<time>2010-02-25T16:52:46.79</time>
<name>2172</name>
</trkpt>
<trkpt lat="48.928530" lon="8.658222">
<ele>392.5</ele>
<speed>3.7</speed>
<course>150.6</course>
<desc>Speed 3.7 km/h Distance 3.14 km</desc>
<time>2010-02-25T16:52:47.79</time>
<name>2173</name>
</trkpt>
<trkpt lat="48.928518" lon="8.658232">
<ele>392.5</ele>
<speed>4.0</speed>
<course>141.9</course>
<desc>Speed 4.0 km/h Distance 3.14 km</desc>
<time>2010-02-25T16:52:48.79</time>
<name>2174</name>
</trkpt>
<trkpt lat="48.928510" lon="8.658242">
<ele>392.5</ele>
<speed>3.2</speed>
<course>141.9</course>
<desc>Speed 3.2 km/h Distance 3.14 km</desc>
<time>2010-02-25T16:52:49.79</time>
<name>2175</name>
</trkpt>
<trkpt lat="48.928502" lon="8.658252">
<ele>393.0</ele>
<speed>3.2</speed>
<course>161.2</course>
<desc>Speed 3.2 km/h Distance 3.14 km</desc>
<time>2010-02-25T16:52:50.79</time>
<name>2176</name>
</trkpt>
<trkpt lat="48.928495" lon="8.658255">
<ele>393.5</ele>
<speed>2.2</speed>
<course>140.6</course>
<desc>Speed 2.2 km/h Distance 3.14 km</desc>
<time>2010-02-25T16:52:51.79</time>
<name>2177</name>
</trkpt>
<trkpt lat="48.928488" lon="8.658263">
<ele>393.0</ele>
<speed>3.1</speed>
<course>140.6</course>
<desc>Speed 3.1 km/h Distance 3.14 km</desc>
<time>2010-02-25T16:52:52.79</time>
<name>2178</name>
</trkpt>
<trkpt lat="48.928482" lon="8.658272">
<ele>393.0</ele>
<speed>3.0</speed>
<course>142.7</course>
<desc>Speed 3.0 km/h Distance 3.15 km</desc>
<time>2010-02-25T16:52:53.79</time>
<name>2179</name>
</trkpt>
<trkpt lat="48.928472" lon="8.658283">
<ele>393.0</ele>
<speed>4.1</speed>
<course>154.8</course>
<desc>Speed 4.1 km/h Distance 3.15 km</desc>
<time>2010-02-25T16:52:54.79</time>
<name>2180</name>
</trkpt>
<trkpt lat="48.928460" lon="8.658292">
<ele>392.5</ele>
<speed>3.8</speed>
<course>138.6</course>
<desc>Speed 3.8 km/h Distance 3.15 km</desc>
<time>2010-02-25T16:52:55.79</time>
<name>2181</name>
</trkpt>
<trkpt lat="48.928450" lon="8.658305">
<ele>393.5</ele>
<speed>3.1</speed>
<course>132.4</course>
<desc>Speed 3.1 km/h Distance 3.15 km</desc>
<time>2010-02-25T16:52:56.79</time>
<name>2182</name>
</trkpt>
<trkpt lat="48.928410" lon="8.658372">
<ele>394.0</ele>
<speed>3.2</speed>
<course>135.5</course>
<desc>Speed 3.2 km/h Distance 3.16 km</desc>
<time>2010-02-25T16:52:58.79</time>
<name>2183</name>
</trkpt>
<trkpt lat="48.928400" lon="8.658387">
<ele>393.5</ele>
<speed>4.7</speed>
<course>127.3</course>
<desc>Speed 4.7 km/h Distance 3.16 km</desc>
<time>2010-02-25T16:52:59.79</time>
<name>2184</name>
</trkpt>
<trkpt lat="48.928392" lon="8.658403">
<ele>393.0</ele>
<speed>4.6</speed>
<course>108.7</course>
<desc>Speed 4.6 km/h Distance 3.16 km</desc>
<time>2010-02-25T16:53:00.79</time>
<name>2185</name>
</trkpt>
<trkpt lat="48.928388" lon="8.658418">
<ele>393.5</ele>
<speed>3.6</speed>
<course>137.6</course>
<desc>Speed 3.6 km/h Distance 3.16 km</desc>
<time>2010-02-25T16:53:01.79</time>
<name>2186</name>
</trkpt>
<trkpt lat="48.928350" lon="8.658472">
<ele>395.0</ele>
<speed>4.7</speed>
<course>141.9</course>
<desc>Speed 4.7 km/h Distance 3.17 km</desc>
<time>2010-02-25T16:53:03.79</time>
<name>2187</name>
</trkpt>
<trkpt lat="48.928342" lon="8.658482">
<ele>395.0</ele>
<speed>3.7</speed>
<course>140.6</course>
<desc>Speed 3.7 km/h Distance 3.17 km</desc>
<time>2010-02-25T16:53:04.79</time>
<name>2188</name>
</trkpt>
<trkpt lat="48.928335" lon="8.658490">
<ele>395.0</ele>
<speed>3.2</speed>
<course>141.9</course>
<desc>Speed 3.2 km/h Distance 3.17 km</desc>
<time>2010-02-25T16:53:05.79</time>
<name>2189</name>
</trkpt>
<trkpt lat="48.928327" lon="8.658500">
<ele>395.0</ele>
<speed>3.7</speed>
<course>135.5</course>
<desc>Speed 3.7 km/h Distance 3.17 km</desc>
<time>2010-02-25T16:53:06.79</time>
<name>2190</name>
</trkpt>
<trkpt lat="48.928320" lon="8.658510">
<ele>395.0</ele>
<speed>3.5</speed>
<course>137.4</course>
<desc>Speed 3.5 km/h Distance 3.17 km</desc>
<time>2010-02-25T16:53:07.79</time>
<name>2191</name>
</trkpt>
<trkpt lat="48.928312" lon="8.658522">
<ele>395.0</ele>
<speed>4.1</speed>
<course>130.3</course>
<desc>Speed 4.1 km/h Distance 3.17 km</desc>
<time>2010-02-25T16:53:08.79</time>
<name>2192</name>
</trkpt>
<trkpt lat="48.928303" lon="8.658537">
<ele>394.5</ele>
<speed>4.5</speed>
<course>138.8</course>
<desc>Speed 4.5 km/h Distance 3.17 km</desc>
<time>2010-02-25T16:53:09.79</time>
<name>2193</name>
</trkpt>
<trkpt lat="48.928293" lon="8.658550">
<ele>394.5</ele>
<speed>5.0</speed>
<course>127.3</course>
<desc>Speed 5.0 km/h Distance 3.17 km</desc>
<time>2010-02-25T16:53:10.79</time>
<name>2194</name>
</trkpt>
<trkpt lat="48.928287" lon="8.658563">
<ele>394.0</ele>
<speed>4.2</speed>
<course>146.6</course>
<desc>Speed 4.2 km/h Distance 3.18 km</desc>
<time>2010-02-25T16:53:11.79</time>
<name>2195</name>
</trkpt>
<trkpt lat="48.928275" lon="8.658575">
<ele>394.0</ele>
<speed>4.7</speed>
<course>152.1</course>
<desc>Speed 4.7 km/h Distance 3.18 km</desc>
<time>2010-02-25T16:53:12.79</time>
<name>2196</name>
</trkpt>
<trkpt lat="48.928267" lon="8.658582">
<ele>395.0</ele>
<speed>3.6</speed>
<course>141.9</course>
<desc>Speed 3.6 km/h Distance 3.18 km</desc>
<time>2010-02-25T16:53:13.79</time>
<name>2197</name>
</trkpt>
<trkpt lat="48.928258" lon="8.658592">
<ele>395.5</ele>
<speed>3.8</speed>
<course>141.9</course>
<desc>Speed 3.8 km/h Distance 3.18 km</desc>
<time>2010-02-25T16:53:14.79</time>
<name>2198</name>
</trkpt>
<trkpt lat="48.928250" lon="8.658602">
<ele>395.0</ele>
<speed>3.1</speed>
<course>140.6</course>
<desc>Speed 3.1 km/h Distance 3.18 km</desc>
<time>2010-02-25T16:53:15.79</time>
<name>2199</name>
</trkpt>
<trkpt lat="48.928243" lon="8.658610">
<ele>395.5</ele>
<speed>2.6</speed>
<course>133.6</course>
<desc>Speed 2.6 km/h Distance 3.18 km</desc>
<time>2010-02-25T16:53:16.79</time>
<name>2200</name>
</trkpt>
<trkpt lat="48.928235" lon="8.658623">
<ele>396.0</ele>
<speed>3.3</speed>
<course>141.9</course>
<desc>Speed 3.3 km/h Distance 3.18 km</desc>
<time>2010-02-25T16:53:17.79</time>
<name>2201</name>
</trkpt>
<trkpt lat="48.928227" lon="8.658633">
<ele>395.5</ele>
<speed>3.5</speed>
<course>130.9</course>
<desc>Speed 3.5 km/h Distance 3.18 km</desc>
<time>2010-02-25T16:53:18.79</time>
<name>2202</name>
</trkpt>
<trkpt lat="48.928220" lon="8.658645">
<ele>395.5</ele>
<speed>2.8</speed>
<course>123.3</course>
<desc>Speed 2.8 km/h Distance 3.19 km</desc>
<time>2010-02-25T16:53:19.79</time>
<name>2203</name>
</trkpt>
<trkpt lat="48.928215" lon="8.658657">
<ele>395.5</ele>
<speed>3.4</speed>
<course>133.5</course>
<desc>Speed 3.4 km/h Distance 3.19 km</desc>
<time>2010-02-25T16:53:20.79</time>
<name>2204</name>
</trkpt>
<trkpt lat="48.928207" lon="8.658670">
<ele>396.0</ele>
<speed>4.1</speed>
<course>137.5</course>
<desc>Speed 4.1 km/h Distance 3.19 km</desc>
<time>2010-02-25T16:53:21.79</time>
<name>2205</name>
</trkpt>
<trkpt lat="48.928198" lon="8.658682">
<ele>397.0</ele>
<speed>3.6</speed>
<course>135.4</course>
<desc>Speed 3.6 km/h Distance 3.19 km</desc>
<time>2010-02-25T16:53:22.79</time>
<name>2206</name>
</trkpt>
<trkpt lat="48.928188" lon="8.658697">
<ele>396.0</ele>
<speed>4.8</speed>
<course>124.1</course>
<desc>Speed 4.8 km/h Distance 3.19 km</desc>
<time>2010-02-25T16:53:23.79</time>
<name>2207</name>
</trkpt>
<trkpt lat="48.928182" lon="8.658712">
<ele>394.5</ele>
<speed>4.4</speed>
<course>132.6</course>
<desc>Speed 4.4 km/h Distance 3.19 km</desc>
<time>2010-02-25T16:53:24.79</time>
<name>2208</name>
</trkpt>
<trkpt lat="48.928177" lon="8.658720">
<ele>394.5</ele>
<speed>2.6</speed>
<course>130.2</course>
<desc>Speed 2.6 km/h Distance 3.19 km</desc>
<time>2010-02-25T16:53:25.79</time>
<name>2209</name>
</trkpt>
<trkpt lat="48.928152" lon="8.658765">
<ele>394.0</ele>
<speed>3.1</speed>
<course>135.5</course>
<desc>Speed 3.1 km/h Distance 3.20 km</desc>
<time>2010-02-25T16:53:27.79</time>
<name>2210</name>
</trkpt>
<trkpt lat="48.928145" lon="8.658775">
<ele>394.5</ele>
<speed>3.9</speed>
<course>135.4</course>
<desc>Speed 3.9 km/h Distance 3.20 km</desc>
<time>2010-02-25T16:53:28.79</time>
<name>2211</name>
</trkpt>
<trkpt lat="48.928112" lon="8.658825">
<ele>395.5</ele>
<speed>3.2</speed>
<course>137.4</course>
<desc>Speed 3.2 km/h Distance 3.20 km</desc>
<time>2010-02-25T16:53:30.79</time>
<name>2212</name>
</trkpt>
<trkpt lat="48.928103" lon="8.658837">
<ele>395.5</ele>
<speed>4.1</speed>
<course>133.6</course>
<desc>Speed 4.1 km/h Distance 3.20 km</desc>
<time>2010-02-25T16:53:31.79</time>
<name>2213</name>
</trkpt>
<trkpt lat="48.928095" lon="8.658850">
<ele>395.5</ele>
<speed>4.5</speed>
<course>141.6</course>
<desc>Speed 4.5 km/h Distance 3.21 km</desc>
<time>2010-02-25T16:53:32.79</time>
<name>2214</name>
</trkpt>
<trkpt lat="48.928087" lon="8.658860">
<ele>396.5</ele>
<speed>4.1</speed>
<course>130.2</course>
<desc>Speed 4.1 km/h Distance 3.21 km</desc>
<time>2010-02-25T16:53:33.79</time>
<name>2215</name>
</trkpt>
<trkpt lat="48.928078" lon="8.658875">
<ele>397.0</ele>
<speed>4.4</speed>
<course>154.4</course>
<desc>Speed 4.4 km/h Distance 3.21 km</desc>
<time>2010-02-25T16:53:34.79</time>
<name>2216</name>
</trkpt>
<trkpt lat="48.928072" lon="8.658880">
<ele>398.0</ele>
<speed>3.2</speed>
<course>146.8</course>
<desc>Speed 3.2 km/h Distance 3.21 km</desc>
<time>2010-02-25T16:53:35.79</time>
<name>2217</name>
</trkpt>
<trkpt lat="48.928065" lon="8.658887">
<ele>399.5</ele>
<speed>3.0</speed>
<course>146.8</course>
<desc>Speed 3.0 km/h Distance 3.21 km</desc>
<time>2010-02-25T16:53:36.79</time>
<name>2218</name>
</trkpt>
<trkpt lat="48.928057" lon="8.658895">
<ele>400.0</ele>
<speed>3.5</speed>
<course>146.8</course>
<desc>Speed 3.5 km/h Distance 3.21 km</desc>
<time>2010-02-25T16:53:37.79</time>
<name>2219</name>
</trkpt>
<trkpt lat="48.928048" lon="8.658903">
<ele>401.0</ele>
<speed>3.6</speed>
<course>142.5</course>
<desc>Speed 3.6 km/h Distance 3.21 km</desc>
<time>2010-02-25T16:53:38.79</time>
<name>2220</name>
</trkpt>
<trkpt lat="48.928038" lon="8.658915">
<ele>401.5</ele>
<speed>4.0</speed>
<course>140.6</course>
<desc>Speed 4.0 km/h Distance 3.21 km</desc>
<time>2010-02-25T16:53:39.79</time>
<name>2221</name>
</trkpt>
<trkpt lat="48.928032" lon="8.658923">
<ele>403.0</ele>
<speed>3.3</speed>
<course>151.4</course>
<desc>Speed 3.3 km/h Distance 3.22 km</desc>
<time>2010-02-25T16:53:40.79</time>
<name>2222</name>
</trkpt>
<trkpt lat="48.928022" lon="8.658932">
<ele>404.0</ele>
<speed>3.9</speed>
<course>133.6</course>
<desc>Speed 3.9 km/h Distance 3.22 km</desc>
<time>2010-02-25T16:53:41.79</time>
<name>2223</name>
</trkpt>
<trkpt lat="48.928013" lon="8.658945">
<ele>404.0</ele>
<speed>4.6</speed>
<course>146.8</course>
<desc>Speed 4.6 km/h Distance 3.22 km</desc>
<time>2010-02-25T16:53:42.79</time>
<name>2224</name>
</trkpt>
<trkpt lat="48.928003" lon="8.658955">
<ele>404.5</ele>
<speed>4.0</speed>
<course>130.0</course>
<desc>Speed 4.0 km/h Distance 3.22 km</desc>
<time>2010-02-25T16:53:43.79</time>
<name>2225</name>
</trkpt>
<trkpt lat="48.927950" lon="8.659052">
<ele>406.0</ele>
<speed>4.6</speed>
<course>133.7</course>
<desc>Speed 4.6 km/h Distance 3.23 km</desc>
<time>2010-02-25T16:53:45.79</time>
<name>2226</name>
</trkpt>
<trkpt lat="48.927913" lon="8.659110">
<ele>405.0</ele>
<speed>3.7</speed>
<course>146.8</course>
<desc>Speed 3.7 km/h Distance 3.23 km</desc>
<time>2010-02-25T16:53:47.79</time>
<name>2227</name>
</trkpt>
<trkpt lat="48.927905" lon="8.659118">
<ele>404.5</ele>
<speed>3.3</speed>
<course>141.9</course>
<desc>Speed 3.3 km/h Distance 3.24 km</desc>
<time>2010-02-25T16:53:48.79</time>
<name>2228</name>
</trkpt>
<trkpt lat="48.927897" lon="8.659128">
<ele>404.0</ele>
<speed>3.5</speed>
<course>146.8</course>
<desc>Speed 3.5 km/h Distance 3.24 km</desc>
<time>2010-02-25T16:53:49.79</time>
<name>2229</name>
</trkpt>
<trkpt lat="48.927888" lon="8.659137">
<ele>404.0</ele>
<speed>3.3</speed>
<course>135.5</course>
<desc>Speed 3.3 km/h Distance 3.24 km</desc>
<time>2010-02-25T16:53:50.79</time>
<name>2230</name>
</trkpt>
<trkpt lat="48.927882" lon="8.659147">
<ele>404.0</ele>
<speed>3.6</speed>
<course>141.9</course>
<desc>Speed 3.6 km/h Distance 3.24 km</desc>
<time>2010-02-25T16:53:51.79</time>
<name>2231</name>
</trkpt>
<trkpt lat="48.927873" lon="8.659157">
<ele>404.0</ele>
<speed>3.8</speed>
<course>133.6</course>
<desc>Speed 3.8 km/h Distance 3.24 km</desc>
<time>2010-02-25T16:53:52.79</time>
<name>2232</name>
</trkpt>
<trkpt lat="48.927865" lon="8.659170">
<ele>403.5</ele>
<speed>4.3</speed>
<course>137.4</course>
<desc>Speed 4.3 km/h Distance 3.24 km</desc>
<time>2010-02-25T16:53:53.79</time>
<name>2233</name>
</trkpt>
<trkpt lat="48.927857" lon="8.659182">
<ele>403.5</ele>
<speed>4.0</speed>
<course>131.1</course>
<desc>Speed 4.0 km/h Distance 3.24 km</desc>
<time>2010-02-25T16:53:54.79</time>
<name>2234</name>
</trkpt>
<trkpt lat="48.927850" lon="8.659193">
<ele>404.5</ele>
<speed>3.7</speed>
<course>137.4</course>
<desc>Speed 3.7 km/h Distance 3.24 km</desc>
<time>2010-02-25T16:53:55.79</time>
<name>2235</name>
</trkpt>
<trkpt lat="48.927842" lon="8.659205">
<ele>404.0</ele>
<speed>4.3</speed>
<course>124.8</course>
<desc>Speed 4.3 km/h Distance 3.24 km</desc>
<time>2010-02-25T16:53:56.79</time>
<name>2236</name>
</trkpt>
<trkpt lat="48.927833" lon="8.659223">
<ele>404.0</ele>
<speed>4.9</speed>
<course>141.9</course>
<desc>Speed 4.9 km/h Distance 3.25 km</desc>
<time>2010-02-25T16:53:57.79</time>
<name>2237</name>
</trkpt>
<trkpt lat="48.927825" lon="8.659233">
<ele>403.5</ele>
<speed>3.7</speed>
<course>142.5</course>
<desc>Speed 3.7 km/h Distance 3.25 km</desc>
<time>2010-02-25T16:53:58.79</time>
<name>2238</name>
</trkpt>
<trkpt lat="48.927815" lon="8.659245">
<ele>404.0</ele>
<speed>4.1</speed>
<course>133.8</course>
<desc>Speed 4.1 km/h Distance 3.25 km</desc>
<time>2010-02-25T16:53:59.79</time>
<name>2239</name>
</trkpt>
<trkpt lat="48.927767" lon="8.659322">
<ele>403.5</ele>
<speed>4.6</speed>
<course>134.1</course>
<desc>Speed 4.6 km/h Distance 3.26 km</desc>
<time>2010-02-25T16:54:01.79</time>
<name>2240</name>
</trkpt>
<trkpt lat="48.927755" lon="8.659340">
<ele>404.5</ele>
<speed>4.1</speed>
<course>134.3</course>
<desc>Speed 4.1 km/h Distance 3.26 km</desc>
<time>2010-02-25T16:54:02.79</time>
<name>2241</name>
</trkpt>
<trkpt lat="48.927740" lon="8.659363">
<ele>404.5</ele>
<speed>4.5</speed>
<course>141.6</course>
<desc>Speed 4.5 km/h Distance 3.26 km</desc>
<time>2010-02-25T16:54:03.79</time>
<name>2242</name>
</trkpt>
<trkpt lat="48.927732" lon="8.659373">
<ele>404.5</ele>
<speed>3.6</speed>
<course>135.4</course>
<desc>Speed 3.6 km/h Distance 3.26 km</desc>
<time>2010-02-25T16:54:04.79</time>
<name>2243</name>
</trkpt>
<trkpt lat="48.927722" lon="8.659388">
<ele>404.5</ele>
<speed>3.7</speed>
<course>135.5</course>
<desc>Speed 3.7 km/h Distance 3.26 km</desc>
<time>2010-02-25T16:54:05.79</time>
<name>2244</name>
</trkpt>
<trkpt lat="48.927715" lon="8.659398">
<ele>405.0</ele>
<speed>3.5</speed>
<course>146.8</course>
<desc>Speed 3.5 km/h Distance 3.26 km</desc>
<time>2010-02-25T16:54:06.79</time>
<name>2245</name>
</trkpt>
<trkpt lat="48.927708" lon="8.659405">
<ele>405.0</ele>
<speed>3.0</speed>
<course>146.3</course>
<desc>Speed 3.0 km/h Distance 3.27 km</desc>
<time>2010-02-25T16:54:07.79</time>
<name>2246</name>
</trkpt>
<trkpt lat="48.927702" lon="8.659412">
<ele>405.0</ele>
<speed>2.9</speed>
<course>146.8</course>
<desc>Speed 2.9 km/h Distance 3.27 km</desc>
<time>2010-02-25T16:54:08.79</time>
<name>2247</name>
</trkpt>
<trkpt lat="48.927697" lon="8.659417">
<ele>405.5</ele>
<speed>2.2</speed>
<course>139.1</course>
<desc>Speed 2.2 km/h Distance 3.27 km</desc>
<time>2010-02-25T16:54:09.79</time>
<name>2248</name>
</trkpt>
<trkpt lat="48.927692" lon="8.659423">
<ele>406.0</ele>
<speed>2.7</speed>
<course>135.5</course>
<desc>Speed 2.7 km/h Distance 3.27 km</desc>
<time>2010-02-25T16:54:10.79</time>
<name>2249</name>
</trkpt>
<trkpt lat="48.927685" lon="8.659433">
<ele>406.0</ele>
<speed>2.6</speed>
<course>138.6</course>
<desc>Speed 2.6 km/h Distance 3.27 km</desc>
<time>2010-02-25T16:54:11.79</time>
<name>2250</name>
</trkpt>
<trkpt lat="48.927680" lon="8.659440">
<ele>405.5</ele>
<speed>2.1</speed>
<course>130.9</course>
<desc>Speed 2.1 km/h Distance 3.27 km</desc>
<time>2010-02-25T16:54:12.79</time>
<name>2251</name>
</trkpt>
<trkpt lat="48.927673" lon="8.659452">
<ele>404.5</ele>
<speed>3.1</speed>
<course>146.5</course>
<desc>Speed 3.1 km/h Distance 3.27 km</desc>
<time>2010-02-25T16:54:13.79</time>
<name>2252</name>
</trkpt>
<trkpt lat="48.927665" lon="8.659460">
<ele>404.0</ele>
<speed>3.6</speed>
<course>130.9</course>
<desc>Speed 3.6 km/h Distance 3.27 km</desc>
<time>2010-02-25T16:54:14.79</time>
<name>2253</name>
</trkpt>
<trkpt lat="48.927658" lon="8.659472">
<ele>403.0</ele>
<speed>4.1</speed>
<course>142.5</course>
<desc>Speed 4.1 km/h Distance 3.27 km</desc>
<time>2010-02-25T16:54:15.79</time>
<name>2254</name>
</trkpt>
<trkpt lat="48.927648" lon="8.659483">
<ele>402.5</ele>
<speed>4.2</speed>
<course>138.8</course>
<desc>Speed 4.2 km/h Distance 3.27 km</desc>
<time>2010-02-25T16:54:16.79</time>
<name>2255</name>
</trkpt>
<trkpt lat="48.927638" lon="8.659497">
<ele>402.0</ele>
<speed>5.2</speed>
<course>131.1</course>
<desc>Speed 5.2 km/h Distance 3.28 km</desc>
<time>2010-02-25T16:54:17.79</time>
<name>2256</name>
</trkpt>
<trkpt lat="48.927632" lon="8.659508">
<ele>402.0</ele>
<speed>4.1</speed>
<course>133.6</course>
<desc>Speed 4.1 km/h Distance 3.28 km</desc>
<time>2010-02-25T16:54:18.79</time>
<name>2257</name>
</trkpt>
<trkpt lat="48.927623" lon="8.659522">
<ele>402.0</ele>
<speed>4.3</speed>
<course>133.4</course>
<desc>Speed 4.3 km/h Distance 3.28 km</desc>
<time>2010-02-25T16:54:19.79</time>
<name>2258</name>
</trkpt>
<trkpt lat="48.927615" lon="8.659535">
<ele>402.0</ele>
<speed>4.6</speed>
<course>133.6</course>
<desc>Speed 4.6 km/h Distance 3.28 km</desc>
<time>2010-02-25T16:54:20.79</time>
<name>2259</name>
</trkpt>
<trkpt lat="48.927607" lon="8.659548">
<ele>401.0</ele>
<speed>3.9</speed>
<course>146.8</course>
<desc>Speed 3.9 km/h Distance 3.28 km</desc>
<time>2010-02-25T16:54:21.79</time>
<name>2260</name>
</trkpt>
<trkpt lat="48.927597" lon="8.659558">
<ele>401.0</ele>
<speed>4.8</speed>
<course>158.5</course>
<desc>Speed 4.8 km/h Distance 3.28 km</desc>
<time>2010-02-25T16:54:22.79</time>
<name>2261</name>
</trkpt>
<trkpt lat="48.927588" lon="8.659563">
<ele>401.5</ele>
<speed>3.0</speed>
<course>135.5</course>
<desc>Speed 3.0 km/h Distance 3.28 km</desc>
<time>2010-02-25T16:54:23.79</time>
<name>2262</name>
</trkpt>
<trkpt lat="48.927582" lon="8.659573">
<ele>401.0</ele>
<speed>3.3</speed>
<course>146.3</course>
<desc>Speed 3.3 km/h Distance 3.28 km</desc>
<time>2010-02-25T16:54:24.79</time>
<name>2263</name>
</trkpt>
<trkpt lat="48.927575" lon="8.659580">
<ele>400.5</ele>
<speed>3.0</speed>
<course>142.5</course>
<desc>Speed 3.0 km/h Distance 3.29 km</desc>
<time>2010-02-25T16:54:25.79</time>
<name>2264</name>
</trkpt>
<trkpt lat="48.927565" lon="8.659592">
<ele>400.5</ele>
<speed>4.2</speed>
<course>138.8</course>
<desc>Speed 4.2 km/h Distance 3.29 km</desc>
<time>2010-02-25T16:54:26.79</time>
<name>2265</name>
</trkpt>
<trkpt lat="48.927550" lon="8.659612">
<ele>401.0</ele>
<speed>4.8</speed>
<course>130.9</course>
<desc>Speed 4.8 km/h Distance 3.29 km</desc>
<time>2010-02-25T16:54:27.79</time>
<name>2266</name>
</trkpt>
<trkpt lat="48.927543" lon="8.659623">
<ele>401.5</ele>
<speed>3.4</speed>
<course>130.9</course>
<desc>Speed 3.4 km/h Distance 3.29 km</desc>
<time>2010-02-25T16:54:28.79</time>
<name>2267</name>
</trkpt>
<trkpt lat="48.927537" lon="8.659635">
<ele>402.0</ele>
<speed>3.7</speed>
<course>132.5</course>
<desc>Speed 3.7 km/h Distance 3.29 km</desc>
<time>2010-02-25T16:54:29.79</time>
<name>2268</name>
</trkpt>
<trkpt lat="48.927527" lon="8.659652">
<ele>402.5</ele>
<speed>4.8</speed>
<course>130.3</course>
<desc>Speed 4.8 km/h Distance 3.29 km</desc>
<time>2010-02-25T16:54:30.79</time>
<name>2269</name>
</trkpt>
<trkpt lat="48.927518" lon="8.659667">
<ele>403.0</ele>
<speed>4.7</speed>
<course>131.1</course>
<desc>Speed 4.7 km/h Distance 3.29 km</desc>
<time>2010-02-25T16:54:31.79</time>
<name>2270</name>
</trkpt>
<trkpt lat="48.927512" lon="8.659678">
<ele>403.0</ele>
<speed>3.6</speed>
<course>141.9</course>
<desc>Speed 3.6 km/h Distance 3.30 km</desc>
<time>2010-02-25T16:54:32.79</time>
<name>2271</name>
</trkpt>
<trkpt lat="48.927503" lon="8.659688">
<ele>403.0</ele>
<speed>3.9</speed>
<course>137.4</course>
<desc>Speed 3.9 km/h Distance 3.30 km</desc>
<time>2010-02-25T16:54:33.79</time>
<name>2272</name>
</trkpt>
<trkpt lat="48.927495" lon="8.659700">
<ele>403.5</ele>
<speed>3.7</speed>
<course>152.5</course>
<desc>Speed 3.7 km/h Distance 3.30 km</desc>
<time>2010-02-25T16:54:34.79</time>
<name>2273</name>
</trkpt>
<trkpt lat="48.927487" lon="8.659707">
<ele>403.5</ele>
<speed>3.4</speed>
<course>141.0</course>
<desc>Speed 3.4 km/h Distance 3.30 km</desc>
<time>2010-02-25T16:54:35.79</time>
<name>2274</name>
</trkpt>
<trkpt lat="48.927480" lon="8.659715">
<ele>404.0</ele>
<speed>3.2</speed>
<course>180.0</course>
<desc>Speed 3.2 km/h Distance 3.30 km</desc>
<time>2010-02-25T16:54:36.79</time>
<name>2275</name>
</trkpt>
<trkpt lat="48.927472" lon="8.659715">
<ele>405.5</ele>
<speed>2.7</speed>
<course>152.1</course>
<desc>Speed 2.7 km/h Distance 3.30 km</desc>
<time>2010-02-25T16:54:37.79</time>
<name>2276</name>
</trkpt>
<trkpt lat="48.927463" lon="8.659722">
<ele>406.5</ele>
<speed>3.4</speed>
<course>152.1</course>
<desc>Speed 3.4 km/h Distance 3.30 km</desc>
<time>2010-02-25T16:54:38.79</time>
<name>2277</name>
</trkpt>
<trkpt lat="48.927455" lon="8.659728">
<ele>406.0</ele>
<speed>3.5</speed>
<course>146.8</course>
<desc>Speed 3.5 km/h Distance 3.30 km</desc>
<time>2010-02-25T16:54:39.79</time>
<name>2278</name>
</trkpt>
<trkpt lat="48.927447" lon="8.659737">
<ele>406.5</ele>
<speed>2.8</speed>
<course>114.6</course>
<desc>Speed 2.8 km/h Distance 3.30 km</desc>
<time>2010-02-25T16:54:40.79</time>
<name>2279</name>
</trkpt>
<trkpt lat="48.927442" lon="8.659753">
<ele>407.0</ele>
<speed>3.2</speed>
<course>113.7</course>
<desc>Speed 3.2 km/h Distance 3.31 km</desc>
<time>2010-02-25T16:54:41.79</time>
<name>2280</name>
</trkpt>
<trkpt lat="48.927438" lon="8.659765">
<ele>407.0</ele>
<speed>2.7</speed>
<course>125.6</course>
<desc>Speed 2.7 km/h Distance 3.31 km</desc>
<time>2010-02-25T16:54:42.79</time>
<name>2281</name>
</trkpt>
<trkpt lat="48.927425" lon="8.659793">
<ele>407.5</ele>
<speed>4.2</speed>
<course>120.6</course>
<desc>Speed 4.2 km/h Distance 3.31 km</desc>
<time>2010-02-25T16:54:43.79</time>
<name>2282</name>
</trkpt>
<trkpt lat="48.927413" lon="8.659823">
<ele>408.0</ele>
<speed>3.2</speed>
<course>117.0</course>
<desc>Speed 3.2 km/h Distance 3.31 km</desc>
<time>2010-02-25T16:54:44.79</time>
<name>2283</name>
</trkpt>
<trkpt lat="48.927410" lon="8.659833">
<ele>407.5</ele>
<speed>3.1</speed>
<course>175.3</course>
<desc>Speed 3.1 km/h Distance 3.31 km</desc>
<time>2010-02-25T16:54:45.79</time>
<name>2284</name>
</trkpt>
<trkpt lat="48.927398" lon="8.659835">
<ele>406.5</ele>
<speed>4.6</speed>
<course>175.3</course>
<desc>Speed 4.6 km/h Distance 3.31 km</desc>
<time>2010-02-25T16:54:46.79</time>
<name>2285</name>
</trkpt>
<trkpt lat="48.927398" lon="8.659835">
<ele>406.5</ele>
<speed>0.3</speed>
<course>167.4</course>
<desc>Speed 0.3 km/h Distance 3.31 km</desc>
<time>2010-02-25T16:54:47.79</time>
<name>2286</name>
</trkpt>
<trkpt lat="48.927397" lon="8.659835">
<ele>406.5</ele>
<speed>0.5</speed>
<course>167.4</course>
<desc>Speed 0.5 km/h Distance 3.31 km</desc>
<time>2010-02-25T16:54:48.79</time>
<name>2287</name>
</trkpt>
<trkpt lat="48.927397" lon="8.659835">
<ele>407.5</ele>
<speed>0.8</speed>
<course>206.4</course>
<desc>Speed 0.8 km/h Distance 3.31 km</desc>
<time>2010-02-25T16:54:49.79</time>
<name>2288</name>
</trkpt>
<trkpt lat="48.927390" lon="8.659830">
<ele>407.5</ele>
<speed>2.2</speed>
<course>146.7</course>
<desc>Speed 2.2 km/h Distance 3.31 km</desc>
<time>2010-02-25T16:54:50.79</time>
<name>2289</name>
</trkpt>
<trkpt lat="48.927372" lon="8.659848">
<ele>408.0</ele>
<speed>3.7</speed>
<course>213.2</course>
<desc>Speed 3.7 km/h Distance 3.32 km</desc>
<time>2010-02-25T16:54:51.79</time>
<name>2290</name>
</trkpt>
<trkpt lat="48.927367" lon="8.659843">
<ele>408.5</ele>
<speed>3.5</speed>
<course>180.0</course>
<desc>Speed 3.5 km/h Distance 3.32 km</desc>
<time>2010-02-25T16:54:52.79</time>
<name>2291</name>
</trkpt>
<trkpt lat="48.927362" lon="8.659843">
<ele>409.0</ele>
<speed>1.9</speed>
<course>180.0</course>
<desc>Speed 1.9 km/h Distance 3.32 km</desc>
<time>2010-02-25T16:54:53.79</time>
<name>2292</name>
</trkpt>
<trkpt lat="48.927357" lon="8.659843">
<ele>409.5</ele>
<speed>1.3</speed>
<course>127.0</course>
<desc>Speed 1.3 km/h Distance 3.32 km</desc>
<time>2010-02-25T16:54:54.79</time>
<name>2293</name>
</trkpt>
<trkpt lat="48.927353" lon="8.659850">
<ele>409.5</ele>
<speed>1.5</speed>
<course>132.2</course>
<desc>Speed 1.5 km/h Distance 3.32 km</desc>
<time>2010-02-25T16:54:55.79</time>
<name>2294</name>
</trkpt>
<trkpt lat="48.927348" lon="8.659858">
<ele>410.0</ele>
<speed>2.8</speed>
<course>152.1</course>
<desc>Speed 2.8 km/h Distance 3.32 km</desc>
<time>2010-02-25T16:54:56.79</time>
<name>2295</name>
</trkpt>
<trkpt lat="48.927340" lon="8.659865">
<ele>410.5</ele>
<speed>3.5</speed>
<course>146.8</course>
<desc>Speed 3.5 km/h Distance 3.32 km</desc>
<time>2010-02-25T16:54:57.79</time>
<name>2296</name>
</trkpt>
<trkpt lat="48.927332" lon="8.659873">
<ele>409.5</ele>
<speed>2.8</speed>
<course>152.1</course>
<desc>Speed 2.8 km/h Distance 3.32 km</desc>
<time>2010-02-25T16:54:58.79</time>
<name>2297</name>
</trkpt>
<trkpt lat="48.927323" lon="8.659880">
<ele>410.0</ele>
<speed>3.8</speed>
<course>152.1</course>
<desc>Speed 3.8 km/h Distance 3.32 km</desc>
<time>2010-02-25T16:54:59.79</time>
<name>2298</name>
</trkpt>
<trkpt lat="48.927315" lon="8.659887">
<ele>410.0</ele>
<speed>2.8</speed>
<course>139.1</course>
<desc>Speed 2.8 km/h Distance 3.32 km</desc>
<time>2010-02-25T16:55:00.79</time>
<name>2299</name>
</trkpt>
<trkpt lat="48.927310" lon="8.659893">
<ele>409.5</ele>
<speed>3.0</speed>
<course>175.0</course>
<desc>Speed 3.0 km/h Distance 3.33 km</desc>
<time>2010-02-25T16:55:01.79</time>
<name>2300</name>
</trkpt>
<trkpt lat="48.927302" lon="8.659895">
<ele>408.5</ele>
<speed>3.1</speed>
<course>175.0</course>
<desc>Speed 3.1 km/h Distance 3.33 km</desc>
<time>2010-02-25T16:55:02.79</time>
<name>2301</name>
</trkpt>
<trkpt lat="48.927302" lon="8.659895">
<ele>407.5</ele>
<speed>1.0</speed>
<course>51.9</course>
<desc>Speed 1.0 km/h Distance 3.33 km</desc>
<time>2010-02-25T16:55:03.79</time>
<name>2302</name>
</trkpt>
<trkpt lat="48.927303" lon="8.659898">
<ele>407.0</ele>
<speed>0.9</speed>
<course>12.6</course>
<desc>Speed 0.9 km/h Distance 3.33 km</desc>
<time>2010-02-25T16:55:04.79</time>
<name>2303</name>
</trkpt>
<trkpt lat="48.927307" lon="8.659898">
<ele>407.0</ele>
<speed>1.1</speed>
<course>270.0</course>
<desc>Speed 1.1 km/h Distance 3.33 km</desc>
<time>2010-02-25T16:55:05.79</time>
<name>2304</name>
</trkpt>
<trkpt lat="48.927307" lon="8.659897">
<ele>406.5</ele>
<speed>0.8</speed>
<course>128.1</course>
<desc>Speed 0.8 km/h Distance 3.33 km</desc>
<time>2010-02-25T16:55:06.79</time>
<name>2305</name>
</trkpt>
<trkpt lat="48.927305" lon="8.659900">
<ele>406.5</ele>
<speed>0.3</speed>
<course>79.2</course>
<desc>Speed 0.3 km/h Distance 3.33 km</desc>
<time>2010-02-25T16:55:07.79</time>
<name>2306</name>
</trkpt>
<trkpt lat="48.927307" lon="8.659913">
<ele>406.5</ele>
<speed>1.2</speed>
<course>107.6</course>
<desc>Speed 1.2 km/h Distance 3.33 km</desc>
<time>2010-02-25T16:55:09.29</time>
<name>2307</name>
</trkpt>
<trkpt lat="48.927298" lon="8.659953">
<ele>404.5</ele>
<speed>2.1</speed>
<course>124.2</course>
<desc>Speed 2.1 km/h Distance 3.33 km</desc>
<time>2010-02-25T16:55:10.79</time>
<name>2308</name>
</trkpt>
<trkpt lat="48.927270" lon="8.660017">
<ele>403.0</ele>
<speed>1.8</speed>
<course>124.2</course>
<desc>Speed 1.8 km/h Distance 3.34 km</desc>
<time>2010-02-25T16:55:13.29</time>
<name>2309</name>
</trkpt>
<trkpt lat="48.927270" lon="8.660017">
<ele>403.0</ele>
<speed>1.8</speed>
<course>132.4</course>
<desc>Speed 1.8 km/h Distance 3.34 km</desc>
<time>2010-02-25T16:55:13.79</time>
<name>2310</name>
</trkpt>
<trkpt lat="48.927215" lon="8.660108">
<ele>405.0</ele>
<speed>3.4</speed>
<course>132.4</course>
<desc>Speed 3.4 km/h Distance 3.35 km</desc>
<time>2010-02-25T16:55:16.29</time>
<name>2311</name>
</trkpt>
<trkpt lat="48.927215" lon="8.660108">
<ele>405.0</ele>
<speed>3.4</speed>
<course>134.3</course>
<desc>Speed 3.4 km/h Distance 3.35 km</desc>
<time>2010-02-25T16:55:16.79</time>
<name>2312</name>
</trkpt>
<trkpt lat="48.927200" lon="8.660132">
<ele>405.5</ele>
<speed>2.9</speed>
<course>122.4</course>
<desc>Speed 2.9 km/h Distance 3.35 km</desc>
<time>2010-02-25T16:55:18.29</time>
<name>2313</name>
</trkpt>
<trkpt lat="48.927192" lon="8.660152">
<ele>407.0</ele>
<speed>2.8</speed>
<course>122.4</course>
<desc>Speed 2.8 km/h Distance 3.35 km</desc>
<time>2010-02-25T16:55:19.29</time>
<name>2314</name>
</trkpt>
<trkpt lat="48.927192" lon="8.660152">
<ele>407.0</ele>
<speed>2.8</speed>
<course>136.5</course>
<desc>Speed 2.8 km/h Distance 3.35 km</desc>
<time>2010-02-25T16:55:19.79</time>
<name>2315</name>
</trkpt>
<trkpt lat="48.927177" lon="8.660173">
<ele>406.5</ele>
<speed>4.2</speed>
<course>127.3</course>
<desc>Speed 4.2 km/h Distance 3.35 km</desc>
<time>2010-02-25T16:55:21.29</time>
<name>2316</name>
</trkpt>
<trkpt lat="48.927168" lon="8.660190">
<ele>406.0</ele>
<speed>5.3</speed>
<course>136.5</course>
<desc>Speed 5.3 km/h Distance 3.35 km</desc>
<time>2010-02-25T16:55:22.29</time>
<name>2317</name>
</trkpt>
<trkpt lat="48.927153" lon="8.660212">
<ele>406.0</ele>
<speed>4.5</speed>
<course>138.2</course>
<desc>Speed 4.5 km/h Distance 3.36 km</desc>
<time>2010-02-25T16:55:23.29</time>
<name>2318</name>
</trkpt>
<trkpt lat="48.927135" lon="8.660237">
<ele>406.5</ele>
<speed>4.1</speed>
<course>127.3</course>
<desc>Speed 4.1 km/h Distance 3.36 km</desc>
<time>2010-02-25T16:55:24.29</time>
<name>2319</name>
</trkpt>
<trkpt lat="48.927127" lon="8.660253">
<ele>405.5</ele>
<speed>4.2</speed>
<course>133.0</course>
<desc>Speed 4.2 km/h Distance 3.36 km</desc>
<time>2010-02-25T16:55:25.29</time>
<name>2320</name>
</trkpt>
<trkpt lat="48.927095" lon="8.660305">
<ele>406.0</ele>
<speed>4.1</speed>
<course>124.1</course>
<desc>Speed 4.1 km/h Distance 3.37 km</desc>
<time>2010-02-25T16:55:27.29</time>
<name>2321</name>
</trkpt>
<trkpt lat="48.927088" lon="8.660320">
<ele>405.0</ele>
<speed>4.3</speed>
<course>127.0</course>
<desc>Speed 4.3 km/h Distance 3.37 km</desc>
<time>2010-02-25T16:55:28.29</time>
<name>2322</name>
</trkpt>
<trkpt lat="48.927082" lon="8.660333">
<ele>404.0</ele>
<speed>3.6</speed>
<course>132.4</course>
<desc>Speed 3.6 km/h Distance 3.37 km</desc>
<time>2010-02-25T16:55:29.29</time>
<name>2323</name>
</trkpt>
<trkpt lat="48.927042" lon="8.660400">
<ele>404.5</ele>
<speed>4.3</speed>
<course>142.5</course>
<desc>Speed 4.3 km/h Distance 3.37 km</desc>
<time>2010-02-25T16:55:31.29</time>
<name>2324</name>
</trkpt>
<trkpt lat="48.927032" lon="8.660412">
<ele>405.0</ele>
<speed>4.7</speed>
<course>146.8</course>
<desc>Speed 4.7 km/h Distance 3.38 km</desc>
<time>2010-02-25T16:55:32.29</time>
<name>2325</name>
</trkpt>
<trkpt lat="48.927022" lon="8.660422">
<ele>405.5</ele>
<speed>4.5</speed>
<course>141.9</course>
<desc>Speed 4.5 km/h Distance 3.38 km</desc>
<time>2010-02-25T16:55:33.29</time>
<name>2326</name>
</trkpt>
<trkpt lat="48.927013" lon="8.660432">
<ele>405.5</ele>
<speed>4.6</speed>
<course>135.4</course>
<desc>Speed 4.6 km/h Distance 3.38 km</desc>
<time>2010-02-25T16:55:34.29</time>
<name>2327</name>
</trkpt>
<trkpt lat="48.927003" lon="8.660447">
<ele>406.5</ele>
<speed>5.0</speed>
<course>133.3</course>
<desc>Speed 5.0 km/h Distance 3.38 km</desc>
<time>2010-02-25T16:55:35.29</time>
<name>2328</name>
</trkpt>
<trkpt lat="48.926960" lon="8.660517">
<ele>406.5</ele>
<speed>4.0</speed>
<course>133.5</course>
<desc>Speed 4.0 km/h Distance 3.39 km</desc>
<time>2010-02-25T16:55:37.29</time>
<name>2329</name>
</trkpt>
<trkpt lat="48.926952" lon="8.660530">
<ele>406.5</ele>
<speed>4.8</speed>
<course>132.9</course>
<desc>Speed 4.8 km/h Distance 3.39 km</desc>
<time>2010-02-25T16:55:38.28</time>
<name>2330</name>
</trkpt>
<trkpt lat="48.926933" lon="8.660560">
<ele>407.0</ele>
<speed>4.4</speed>
<course>141.9</course>
<desc>Speed 4.4 km/h Distance 3.39 km</desc>
<time>2010-02-25T16:55:39.29</time>
<name>2331</name>
</trkpt>
<trkpt lat="48.926925" lon="8.660570">
<ele>407.0</ele>
<speed>4.0</speed>
<course>141.9</course>
<desc>Speed 4.0 km/h Distance 3.39 km</desc>
<time>2010-02-25T16:55:40.28</time>
<name>2332</name>
</trkpt>
<trkpt lat="48.926917" lon="8.660580">
<ele>407.5</ele>
<speed>4.3</speed>
<course>127.0</course>
<desc>Speed 4.3 km/h Distance 3.39 km</desc>
<time>2010-02-25T16:55:41.28</time>
<name>2333</name>
</trkpt>
<trkpt lat="48.926910" lon="8.660593">
<ele>408.0</ele>
<speed>4.2</speed>
<course>127.3</course>
<desc>Speed 4.2 km/h Distance 3.40 km</desc>
<time>2010-02-25T16:55:42.28</time>
<name>2334</name>
</trkpt>
<trkpt lat="48.926903" lon="8.660607">
<ele>408.0</ele>
<speed>4.3</speed>
<course>124.0</course>
<desc>Speed 4.3 km/h Distance 3.40 km</desc>
<time>2010-02-25T16:55:43.28</time>
<name>2335</name>
</trkpt>
<trkpt lat="48.926897" lon="8.660622">
<ele>408.5</ele>
<speed>4.5</speed>
<course>127.3</course>
<desc>Speed 4.5 km/h Distance 3.40 km</desc>
<time>2010-02-25T16:55:44.28</time>
<name>2336</name>
</trkpt>
<trkpt lat="48.926890" lon="8.660635">
<ele>408.5</ele>
<speed>4.5</speed>
<course>119.0</course>
<desc>Speed 4.5 km/h Distance 3.40 km</desc>
<time>2010-02-25T16:55:45.28</time>
<name>2337</name>
</trkpt>
<trkpt lat="48.926877" lon="8.660672">
<ele>405.5</ele>
<speed>4.5</speed>
<course>137.4</course>
<desc>Speed 4.5 km/h Distance 3.40 km</desc>
<time>2010-02-25T16:55:46.28</time>
<name>2338</name>
</trkpt>
<trkpt lat="48.926868" lon="8.660683">
<ele>406.0</ele>
<speed>4.0</speed>
<course>127.3</course>
<desc>Speed 4.0 km/h Distance 3.40 km</desc>
<time>2010-02-25T16:55:47.28</time>
<name>2339</name>
</trkpt>
<trkpt lat="48.926862" lon="8.660697">
<ele>406.0</ele>
<speed>4.6</speed>
<course>119.0</course>
<desc>Speed 4.6 km/h Distance 3.40 km</desc>
<time>2010-02-25T16:55:48.28</time>
<name>2340</name>
</trkpt>
<trkpt lat="48.926855" lon="8.660715">
<ele>405.5</ele>
<speed>4.5</speed>
<course>127.2</course>
<desc>Speed 4.5 km/h Distance 3.41 km</desc>
<time>2010-02-25T16:55:49.28</time>
<name>2341</name>
</trkpt>
<trkpt lat="48.926848" lon="8.660728">
<ele>405.0</ele>
<speed>4.1</speed>
<course>135.4</course>
<desc>Speed 4.1 km/h Distance 3.41 km</desc>
<time>2010-02-25T16:55:50.28</time>
<name>2342</name>
</trkpt>
<trkpt lat="48.926832" lon="8.660753">
<ele>405.5</ele>
<speed>4.6</speed>
<course>138.6</course>
<desc>Speed 4.6 km/h Distance 3.41 km</desc>
<time>2010-02-25T16:55:51.28</time>
<name>2343</name>
</trkpt>
<trkpt lat="48.926822" lon="8.660767">
<ele>404.5</ele>
<speed>4.6</speed>
<course>141.9</course>
<desc>Speed 4.6 km/h Distance 3.41 km</desc>
<time>2010-02-25T16:55:52.28</time>
<name>2344</name>
</trkpt>
<trkpt lat="48.926813" lon="8.660777">
<ele>405.0</ele>
<speed>4.4</speed>
<course>127.3</course>
<desc>Speed 4.4 km/h Distance 3.41 km</desc>
<time>2010-02-25T16:55:53.28</time>
<name>2345</name>
</trkpt>
<trkpt lat="48.926805" lon="8.660793">
<ele>404.0</ele>
<speed>4.4</speed>
<course>121.3</course>
<desc>Speed 4.4 km/h Distance 3.41 km</desc>
<time>2010-02-25T16:55:54.28</time>
<name>2346</name>
</trkpt>
<trkpt lat="48.926798" lon="8.660810">
<ele>402.5</ele>
<speed>4.2</speed>
<course>130.2</course>
<desc>Speed 4.2 km/h Distance 3.42 km</desc>
<time>2010-02-25T16:55:55.28</time>
<name>2347</name>
</trkpt>
<trkpt lat="48.926790" lon="8.660825">
<ele>400.5</ele>
<speed>4.2</speed>
<course>142.5</course>
<desc>Speed 4.2 km/h Distance 3.42 km</desc>
<time>2010-02-25T16:55:56.28</time>
<name>2348</name>
</trkpt>
<trkpt lat="48.926780" lon="8.660837">
<ele>400.0</ele>
<speed>4.5</speed>
<course>138.7</course>
<desc>Speed 4.5 km/h Distance 3.42 km</desc>
<time>2010-02-25T16:55:57.28</time>
<name>2349</name>
</trkpt>
<trkpt lat="48.926770" lon="8.660850">
<ele>399.0</ele>
<speed>4.3</speed>
<course>127.3</course>
<desc>Speed 4.3 km/h Distance 3.42 km</desc>
<time>2010-02-25T16:55:58.28</time>
<name>2350</name>
</trkpt>
<trkpt lat="48.926762" lon="8.660867">
<ele>397.5</ele>
<speed>4.3</speed>
<course>133.6</course>
<desc>Speed 4.3 km/h Distance 3.42 km</desc>
<time>2010-02-25T16:55:59.28</time>
<name>2351</name>
</trkpt>
<trkpt lat="48.926753" lon="8.660880">
<ele>396.5</ele>
<speed>4.5</speed>
<course>121.4</course>
<desc>Speed 4.5 km/h Distance 3.42 km</desc>
<time>2010-02-25T16:56:00.28</time>
<name>2352</name>
</trkpt>
<trkpt lat="48.926747" lon="8.660897">
<ele>395.0</ele>
<speed>4.6</speed>
<course>127.3</course>
<desc>Speed 4.6 km/h Distance 3.42 km</desc>
<time>2010-02-25T16:56:01.27</time>
<name>2353</name>
</trkpt>
<trkpt lat="48.926738" lon="8.660913">
<ele>395.5</ele>
<speed>4.7</speed>
<course>130.3</course>
<desc>Speed 4.7 km/h Distance 3.43 km</desc>
<time>2010-02-25T16:56:02.27</time>
<name>2354</name>
</trkpt>
<trkpt lat="48.926730" lon="8.660928">
<ele>396.0</ele>
<speed>5.0</speed>
<course>135.5</course>
<desc>Speed 5.0 km/h Distance 3.43 km</desc>
<time>2010-02-25T16:56:03.27</time>
<name>2355</name>
</trkpt>
<trkpt lat="48.926720" lon="8.660943">
<ele>396.5</ele>
<speed>5.0</speed>
<course>137.4</course>
<desc>Speed 5.0 km/h Distance 3.43 km</desc>
<time>2010-02-25T16:56:04.27</time>
<name>2356</name>
</trkpt>
<trkpt lat="48.926712" lon="8.660955">
<ele>397.0</ele>
<speed>4.5</speed>
<course>133.5</course>
<desc>Speed 4.5 km/h Distance 3.43 km</desc>
<time>2010-02-25T16:56:05.27</time>
<name>2357</name>
</trkpt>
<trkpt lat="48.926703" lon="8.660968">
<ele>397.5</ele>
<speed>4.6</speed>
<course>137.4</course>
<desc>Speed 4.6 km/h Distance 3.43 km</desc>
<time>2010-02-25T16:56:06.27</time>
<name>2358</name>
</trkpt>
<trkpt lat="48.926695" lon="8.660980">
<ele>398.0</ele>
<speed>4.3</speed>
<course>127.2</course>
<desc>Speed 4.3 km/h Distance 3.43 km</desc>
<time>2010-02-25T16:56:07.28</time>
<name>2359</name>
</trkpt>
<trkpt lat="48.926688" lon="8.660993">
<ele>397.5</ele>
<speed>4.2</speed>
<course>137.4</course>
<desc>Speed 4.2 km/h Distance 3.43 km</desc>
<time>2010-02-25T16:56:08.27</time>
<name>2360</name>
</trkpt>
<trkpt lat="48.926680" lon="8.661005">
<ele>397.0</ele>
<speed>4.1</speed>
<course>133.5</course>
<desc>Speed 4.1 km/h Distance 3.44 km</desc>
<time>2010-02-25T16:56:09.27</time>
<name>2361</name>
</trkpt>
<trkpt lat="48.926672" lon="8.661018">
<ele>396.5</ele>
<speed>4.5</speed>
<course>127.3</course>
<desc>Speed 4.5 km/h Distance 3.44 km</desc>
<time>2010-02-25T16:56:10.27</time>
<name>2362</name>
</trkpt>
<trkpt lat="48.926665" lon="8.661032">
<ele>396.0</ele>
<speed>4.6</speed>
<course>127.3</course>
<desc>Speed 4.6 km/h Distance 3.44 km</desc>
<time>2010-02-25T16:56:11.28</time>
<name>2363</name>
</trkpt>
<trkpt lat="48.926657" lon="8.661048">
<ele>395.5</ele>
<speed>5.1</speed>
<course>130.3</course>
<desc>Speed 5.1 km/h Distance 3.44 km</desc>
<time>2010-02-25T16:56:12.27</time>
<name>2364</name>
</trkpt>
<trkpt lat="48.926648" lon="8.661063">
<ele>395.5</ele>
<speed>5.3</speed>
<course>138.8</course>
<desc>Speed 5.3 km/h Distance 3.44 km</desc>
<time>2010-02-25T16:56:13.27</time>
<name>2365</name>
</trkpt>
<trkpt lat="48.926638" lon="8.661077">
<ele>395.0</ele>
<speed>5.1</speed>
<course>130.2</course>
<desc>Speed 5.1 km/h Distance 3.44 km</desc>
<time>2010-02-25T16:56:14.27</time>
<name>2366</name>
</trkpt>
<trkpt lat="48.926630" lon="8.661092">
<ele>395.0</ele>
<speed>5.1</speed>
<course>127.3</course>
<desc>Speed 5.1 km/h Distance 3.44 km</desc>
<time>2010-02-25T16:56:15.27</time>
<name>2367</name>
</trkpt>
<trkpt lat="48.926622" lon="8.661108">
<ele>394.5</ele>
<speed>4.8</speed>
<course>138.7</course>
<desc>Speed 4.8 km/h Distance 3.45 km</desc>
<time>2010-02-25T16:56:16.27</time>
<name>2368</name>
</trkpt>
<trkpt lat="48.926612" lon="8.661122">
<ele>394.5</ele>
<speed>4.6</speed>
<course>146.8</course>
<desc>Speed 4.6 km/h Distance 3.45 km</desc>
<time>2010-02-25T16:56:17.26</time>
<name>2369</name>
</trkpt>
<trkpt lat="48.926603" lon="8.661130">
<ele>394.0</ele>
<speed>4.3</speed>
<course>135.5</course>
<desc>Speed 4.3 km/h Distance 3.45 km</desc>
<time>2010-02-25T16:56:18.27</time>
<name>2370</name>
</trkpt>
<trkpt lat="48.926593" lon="8.661145">
<ele>394.5</ele>
<speed>4.6</speed>
<course>133.5</course>
<desc>Speed 4.6 km/h Distance 3.45 km</desc>
<time>2010-02-25T16:56:19.26</time>
<name>2371</name>
</trkpt>
<trkpt lat="48.926585" lon="8.661158">
<ele>395.0</ele>
<speed>4.4</speed>
<course>133.6</course>
<desc>Speed 4.4 km/h Distance 3.45 km</desc>
<time>2010-02-25T16:56:20.26</time>
<name>2372</name>
</trkpt>
<trkpt lat="48.926577" lon="8.661172">
<ele>394.5</ele>
<speed>4.2</speed>
<course>131.1</course>
<desc>Speed 4.2 km/h Distance 3.45 km</desc>
<time>2010-02-25T16:56:21.26</time>
<name>2373</name>
</trkpt>
<trkpt lat="48.926570" lon="8.661183">
<ele>394.5</ele>
<speed>4.0</speed>
<course>132.4</course>
<desc>Speed 4.0 km/h Distance 3.45 km</desc>
<time>2010-02-25T16:56:22.26</time>
<name>2374</name>
</trkpt>
<trkpt lat="48.926560" lon="8.661200">
<ele>393.5</ele>
<speed>4.7</speed>
<course>138.8</course>
<desc>Speed 4.7 km/h Distance 3.45 km</desc>
<time>2010-02-25T16:56:23.26</time>
<name>2375</name>
</trkpt>
<trkpt lat="48.926550" lon="8.661213">
<ele>394.0</ele>
<speed>5.1</speed>
<course>146.8</course>
<desc>Speed 5.1 km/h Distance 3.46 km</desc>
<time>2010-02-25T16:56:24.26</time>
<name>2376</name>
</trkpt>
<trkpt lat="48.926540" lon="8.661223">
<ele>393.5</ele>
<speed>4.6</speed>
<course>139.8</course>
<desc>Speed 4.6 km/h Distance 3.46 km</desc>
<time>2010-02-25T16:56:25.26</time>
<name>2377</name>
</trkpt>
<trkpt lat="48.926528" lon="8.661238">
<ele>394.5</ele>
<speed>5.0</speed>
<course>133.5</course>
<desc>Speed 5.0 km/h Distance 3.46 km</desc>
<time>2010-02-25T16:56:26.26</time>
<name>2378</name>
</trkpt>
<trkpt lat="48.926520" lon="8.661252">
<ele>394.0</ele>
<speed>4.4</speed>
<course>140.3</course>
<desc>Speed 4.4 km/h Distance 3.46 km</desc>
<time>2010-02-25T16:56:27.26</time>
<name>2379</name>
</trkpt>
<trkpt lat="48.926513" lon="8.661260">
<ele>394.0</ele>
<speed>3.6</speed>
<course>133.4</course>
<desc>Speed 3.6 km/h Distance 3.46 km</desc>
<time>2010-02-25T16:56:28.26</time>
<name>2380</name>
</trkpt>
<trkpt lat="48.926505" lon="8.661273">
<ele>393.5</ele>
<speed>4.0</speed>
<course>124.0</course>
<desc>Speed 4.0 km/h Distance 3.46 km</desc>
<time>2010-02-25T16:56:29.26</time>
<name>2381</name>
</trkpt>
<trkpt lat="48.926498" lon="8.661288">
<ele>393.0</ele>
<speed>4.5</speed>
<course>124.7</course>
<desc>Speed 4.5 km/h Distance 3.46 km</desc>
<time>2010-02-25T16:56:30.25</time>
<name>2382</name>
</trkpt>
<trkpt lat="48.926490" lon="8.661307">
<ele>393.0</ele>
<speed>4.6</speed>
<course>141.9</course>
<desc>Speed 4.6 km/h Distance 3.47 km</desc>
<time>2010-02-25T16:56:31.25</time>
<name>2383</name>
</trkpt>
<trkpt lat="48.926482" lon="8.661317">
<ele>393.5</ele>
<speed>4.2</speed>
<course>152.1</course>
<desc>Speed 4.2 km/h Distance 3.47 km</desc>
<time>2010-02-25T16:56:32.25</time>
<name>2384</name>
</trkpt>
<trkpt lat="48.926473" lon="8.661323">
<ele>394.5</ele>
<speed>3.4</speed>
<course>139.8</course>
<desc>Speed 3.4 km/h Distance 3.47 km</desc>
<time>2010-02-25T16:56:33.25</time>
<name>2385</name>
</trkpt>
<trkpt lat="48.926462" lon="8.661338">
<ele>395.0</ele>
<speed>5.4</speed>
<course>130.3</course>
<desc>Speed 5.4 km/h Distance 3.47 km</desc>
<time>2010-02-25T16:56:34.26</time>
<name>2386</name>
</trkpt>
<trkpt lat="48.926453" lon="8.661353">
<ele>396.0</ele>
<speed>4.7</speed>
<course>124.1</course>
<desc>Speed 4.7 km/h Distance 3.47 km</desc>
<time>2010-02-25T16:56:35.25</time>
<name>2387</name>
</trkpt>
<trkpt lat="48.926447" lon="8.661368">
<ele>396.0</ele>
<speed>4.0</speed>
<course>151.4</course>
<desc>Speed 4.0 km/h Distance 3.47 km</desc>
<time>2010-02-25T16:56:36.26</time>
<name>2388</name>
</trkpt>
<trkpt lat="48.926437" lon="8.661377">
<ele>397.0</ele>
<speed>3.9</speed>
<course>152.5</course>
<desc>Speed 3.9 km/h Distance 3.47 km</desc>
<time>2010-02-25T16:56:37.25</time>
<name>2389</name>
</trkpt>
<trkpt lat="48.926428" lon="8.661383">
<ele>398.5</ele>
<speed>3.1</speed>
<course>146.3</course>
<desc>Speed 3.1 km/h Distance 3.47 km</desc>
<time>2010-02-25T16:56:38.25</time>
<name>2390</name>
</trkpt>
<trkpt lat="48.926422" lon="8.661390">
<ele>399.5</ele>
<speed>2.7</speed>
<course>137.4</course>
<desc>Speed 2.7 km/h Distance 3.48 km</desc>
<time>2010-02-25T16:56:39.26</time>
<name>2391</name>
</trkpt>
<trkpt lat="48.926413" lon="8.661402">
<ele>399.5</ele>
<speed>3.2</speed>
<course>134.1</course>
<desc>Speed 3.2 km/h Distance 3.48 km</desc>
<time>2010-02-25T16:56:40.26</time>
<name>2392</name>
</trkpt>
<trkpt lat="48.926378" lon="8.661457">
<ele>400.0</ele>
<speed>4.7</speed>
<course>138.7</course>
<desc>Speed 4.7 km/h Distance 3.48 km</desc>
<time>2010-02-25T16:56:42.26</time>
<name>2393</name>
</trkpt>
<trkpt lat="48.926368" lon="8.661470">
<ele>400.5</ele>
<speed>4.6</speed>
<course>130.3</course>
<desc>Speed 4.6 km/h Distance 3.48 km</desc>
<time>2010-02-25T16:56:43.26</time>
<name>2394</name>
</trkpt>
<trkpt lat="48.926360" lon="8.661485">
<ele>399.5</ele>
<speed>4.2</speed>
<course>141.9</course>
<desc>Speed 4.2 km/h Distance 3.49 km</desc>
<time>2010-02-25T16:56:44.26</time>
<name>2395</name>
</trkpt>
<trkpt lat="48.926352" lon="8.661495">
<ele>399.5</ele>
<speed>3.7</speed>
<course>138.8</course>
<desc>Speed 3.7 km/h Distance 3.49 km</desc>
<time>2010-02-25T16:56:45.26</time>
<name>2396</name>
</trkpt>
<trkpt lat="48.926342" lon="8.661508">
<ele>400.0</ele>
<speed>4.4</speed>
<course>123.1</course>
<desc>Speed 4.4 km/h Distance 3.49 km</desc>
<time>2010-02-25T16:56:46.25</time>
<name>2397</name>
</trkpt>
<trkpt lat="48.926337" lon="8.661520">
<ele>399.5</ele>
<speed>3.8</speed>
<course>133.6</course>
<desc>Speed 3.8 km/h Distance 3.49 km</desc>
<time>2010-02-25T16:56:47.26</time>
<name>2398</name>
</trkpt>
<trkpt lat="48.926328" lon="8.661533">
<ele>399.0</ele>
<speed>4.2</speed>
<course>127.3</course>
<desc>Speed 4.2 km/h Distance 3.49 km</desc>
<time>2010-02-25T16:56:48.26</time>
<name>2399</name>
</trkpt>
<trkpt lat="48.926320" lon="8.661550">
<ele>399.0</ele>
<speed>4.8</speed>
<course>124.7</course>
<desc>Speed 4.8 km/h Distance 3.49 km</desc>
<time>2010-02-25T16:56:49.25</time>
<name>2400</name>
</trkpt>
<trkpt lat="48.926312" lon="8.661568">
<ele>399.0</ele>
<speed>5.1</speed>
<course>138.7</course>
<desc>Speed 5.1 km/h Distance 3.49 km</desc>
<time>2010-02-25T16:56:50.25</time>
<name>2401</name>
</trkpt>
<trkpt lat="48.926302" lon="8.661582">
<ele>399.0</ele>
<speed>5.0</speed>
<course>142.5</course>
<desc>Speed 5.0 km/h Distance 3.50 km</desc>
<time>2010-02-25T16:56:51.26</time>
<name>2402</name>
</trkpt>
<trkpt lat="48.926292" lon="8.661593">
<ele>399.5</ele>
<speed>5.0</speed>
<course>146.7</course>
<desc>Speed 5.0 km/h Distance 3.50 km</desc>
<time>2010-02-25T16:56:52.25</time>
<name>2403</name>
</trkpt>
<trkpt lat="48.926280" lon="8.661605">
<ele>400.0</ele>
<speed>4.2</speed>
<course>127.3</course>
<desc>Speed 4.2 km/h Distance 3.50 km</desc>
<time>2010-02-25T16:56:53.25</time>
<name>2404</name>
</trkpt>
<trkpt lat="48.926272" lon="8.661622">
<ele>400.5</ele>
<speed>4.6</speed>
<course>146.8</course>
<desc>Speed 4.6 km/h Distance 3.50 km</desc>
<time>2010-02-25T16:56:54.25</time>
<name>2405</name>
</trkpt>
<trkpt lat="48.926262" lon="8.661632">
<ele>401.5</ele>
<speed>4.1</speed>
<course>130.9</course>
<desc>Speed 4.1 km/h Distance 3.50 km</desc>
<time>2010-02-25T16:56:55.25</time>
<name>2406</name>
</trkpt>
<trkpt lat="48.926255" lon="8.661643">
<ele>401.5</ele>
<speed>4.1</speed>
<course>133.5</course>
<desc>Speed 4.1 km/h Distance 3.50 km</desc>
<time>2010-02-25T16:56:56.25</time>
<name>2407</name>
</trkpt>
<trkpt lat="48.926247" lon="8.661657">
<ele>401.5</ele>
<speed>4.6</speed>
<course>147.0</course>
<desc>Speed 4.6 km/h Distance 3.50 km</desc>
<time>2010-02-25T16:56:57.25</time>
<name>2408</name>
</trkpt>
<trkpt lat="48.926237" lon="8.661667">
<ele>401.5</ele>
<speed>4.5</speed>
<course>180.0</course>
<desc>Speed 4.5 km/h Distance 3.50 km</desc>
<time>2010-02-25T16:56:58.25</time>
<name>2409</name>
</trkpt>
<trkpt lat="48.926233" lon="8.661667">
<ele>401.5</ele>
<speed>1.3</speed>
<course>131.6</course>
<desc>Speed 1.3 km/h Distance 3.51 km</desc>
<time>2010-02-25T16:56:59.25</time>
<name>2410</name>
</trkpt>
<trkpt lat="48.926222" lon="8.661687">
<ele>402.5</ele>
<speed>0.5</speed>
<course>104.2</course>
<desc>Speed 0.5 km/h Distance 3.51 km</desc>
<time>2010-02-25T16:57:00.25</time>
<name>2411</name>
</trkpt>
<trkpt lat="48.926220" lon="8.661697">
<ele>402.0</ele>
<speed>2.6</speed>
<course>140.3</course>
<desc>Speed 2.6 km/h Distance 3.51 km</desc>
<time>2010-02-25T16:57:01.25</time>
<name>2412</name>
</trkpt>
<trkpt lat="48.926213" lon="8.661705">
<ele>401.5</ele>
<speed>3.3</speed>
<course>133.4</course>
<desc>Speed 3.3 km/h Distance 3.51 km</desc>
<time>2010-02-25T16:57:02.25</time>
<name>2413</name>
</trkpt>
<trkpt lat="48.926205" lon="8.661718">
<ele>401.0</ele>
<speed>4.0</speed>
<course>142.7</course>
<desc>Speed 4.0 km/h Distance 3.51 km</desc>
<time>2010-02-25T16:57:03.25</time>
<name>2414</name>
</trkpt>
<trkpt lat="48.926195" lon="8.661730">
<ele>400.5</ele>
<speed>4.3</speed>
<course>142.7</course>
<desc>Speed 4.3 km/h Distance 3.51 km</desc>
<time>2010-02-25T16:57:04.25</time>
<name>2415</name>
</trkpt>
<trkpt lat="48.926185" lon="8.661742">
<ele>401.0</ele>
<speed>4.4</speed>
<course>159.4</course>
<desc>Speed 4.4 km/h Distance 3.51 km</desc>
<time>2010-02-25T16:57:05.25</time>
<name>2416</name>
</trkpt>
<trkpt lat="48.926173" lon="8.661748">
<ele>402.0</ele>
<speed>4.6</speed>
<course>161.8</course>
<desc>Speed 4.6 km/h Distance 3.51 km</desc>
<time>2010-02-25T16:57:06.25</time>
<name>2417</name>
</trkpt>
<trkpt lat="48.926163" lon="8.661753">
<ele>401.5</ele>
<speed>3.4</speed>
<course>167.4</course>
<desc>Speed 3.4 km/h Distance 3.52 km</desc>
<time>2010-02-25T16:57:07.25</time>
<name>2418</name>
</trkpt>
<trkpt lat="48.926153" lon="8.661757">
<ele>401.5</ele>
<speed>3.6</speed>
<course>146.6</course>
<desc>Speed 3.6 km/h Distance 3.52 km</desc>
<time>2010-02-25T16:57:08.25</time>
<name>2419</name>
</trkpt>
<trkpt lat="48.926142" lon="8.661768">
<ele>401.0</ele>
<speed>4.3</speed>
<course>130.2</course>
<desc>Speed 4.3 km/h Distance 3.52 km</desc>
<time>2010-02-25T16:57:09.25</time>
<name>2420</name>
</trkpt>
<trkpt lat="48.926100" lon="8.661843">
<ele>399.5</ele>
<speed>4.3</speed>
<course>123.9</course>
<desc>Speed 4.3 km/h Distance 3.53 km</desc>
<time>2010-02-25T16:57:11.26</time>
<name>2421</name>
</trkpt>
<trkpt lat="48.926093" lon="8.661858">
<ele>399.5</ele>
<speed>4.5</speed>
<course>114.5</course>
<desc>Speed 4.5 km/h Distance 3.53 km</desc>
<time>2010-02-25T16:57:12.25</time>
<name>2422</name>
</trkpt>
<trkpt lat="48.926088" lon="8.661875">
<ele>400.0</ele>
<speed>4.4</speed>
<course>114.6</course>
<desc>Speed 4.4 km/h Distance 3.53 km</desc>
<time>2010-02-25T16:57:13.25</time>
<name>2423</name>
</trkpt>
<trkpt lat="48.926083" lon="8.661892">
<ele>400.0</ele>
<speed>4.2</speed>
<course>121.3</course>
<desc>Speed 4.2 km/h Distance 3.53 km</desc>
<time>2010-02-25T16:57:14.25</time>
<name>2424</name>
</trkpt>
<trkpt lat="48.926077" lon="8.661908">
<ele>400.5</ele>
<speed>4.4</speed>
<course>110.8</course>
<desc>Speed 4.4 km/h Distance 3.53 km</desc>
<time>2010-02-25T16:57:15.25</time>
<name>2425</name>
</trkpt>
<trkpt lat="48.926072" lon="8.661928">
<ele>401.0</ele>
<speed>5.3</speed>
<course>100.8</course>
<desc>Speed 5.3 km/h Distance 3.53 km</desc>
<time>2010-02-25T16:57:16.25</time>
<name>2426</name>
</trkpt>
<trkpt lat="48.926068" lon="8.661955">
<ele>399.0</ele>
<speed>5.5</speed>
<course>110.8</course>
<desc>Speed 5.5 km/h Distance 3.53 km</desc>
<time>2010-02-25T16:57:17.24</time>
<name>2427</name>
</trkpt>
<trkpt lat="48.926063" lon="8.661975">
<ele>399.0</ele>
<speed>5.3</speed>
<course>116.1</course>
<desc>Speed 5.3 km/h Distance 3.54 km</desc>
<time>2010-02-25T16:57:18.24</time>
<name>2428</name>
</trkpt>
<trkpt lat="48.926030" lon="8.662078">
<ele>398.5</ele>
<speed>5.5</speed>
<course>116.9</course>
<desc>Speed 5.5 km/h Distance 3.54 km</desc>
<time>2010-02-25T16:57:20.24</time>
<name>2429</name>
</trkpt>
<trkpt lat="48.926005" lon="8.662153">
<ele>399.0</ele>
<speed>5.2</speed>
<course>110.8</course>
<desc>Speed 5.2 km/h Distance 3.55 km</desc>
<time>2010-02-25T16:57:22.24</time>
<name>2430</name>
</trkpt>
<trkpt lat="48.925997" lon="8.662187">
<ele>399.5</ele>
<speed>5.1</speed>
<course>103.2</course>
<desc>Speed 5.1 km/h Distance 3.55 km</desc>
<time>2010-02-25T16:57:23.24</time>
<name>2431</name>
</trkpt>
<trkpt lat="48.925990" lon="8.662230">
<ele>400.0</ele>
<speed>5.2</speed>
<course>100.0</course>
<desc>Speed 5.2 km/h Distance 3.56 km</desc>
<time>2010-02-25T16:57:24.23</time>
<name>2432</name>
</trkpt>
<trkpt lat="48.925985" lon="8.662273">
<ele>400.0</ele>
<speed>5.5</speed>
<course>96.1</course>
<desc>Speed 5.5 km/h Distance 3.56 km</desc>
<time>2010-02-25T16:57:25.23</time>
<name>2433</name>
</trkpt>
<trkpt lat="48.925978" lon="8.662368">
<ele>396.5</ele>
<speed>5.2</speed>
<course>88.5</course>
<desc>Speed 5.2 km/h Distance 3.57 km</desc>
<time>2010-02-25T16:57:27.24</time>
<name>2434</name>
</trkpt>
<trkpt lat="48.925980" lon="8.662463">
<ele>389.5</ele>
<speed>4.9</speed>
<course>83.8</course>
<desc>Speed 4.9 km/h Distance 3.57 km</desc>
<time>2010-02-25T16:57:29.23</time>
<name>2435</name>
</trkpt>
<trkpt lat="48.925982" lon="8.662487">
<ele>390.0</ele>
<speed>4.6</speed>
<course>69.2</course>
<desc>Speed 4.6 km/h Distance 3.58 km</desc>
<time>2010-02-25T16:57:30.23</time>
<name>2436</name>
</trkpt>
<trkpt lat="48.925987" lon="8.662507">
<ele>390.0</ele>
<speed>4.6</speed>
<course>75.8</course>
<desc>Speed 4.6 km/h Distance 3.58 km</desc>
<time>2010-02-25T16:57:31.23</time>
<name>2437</name>
</trkpt>
<trkpt lat="48.925990" lon="8.662527">
<ele>390.5</ele>
<speed>4.5</speed>
<course>52.7</course>
<desc>Speed 4.5 km/h Distance 3.58 km</desc>
<time>2010-02-25T16:57:32.23</time>
<name>2438</name>
</trkpt>
<trkpt lat="48.925997" lon="8.662540">
<ele>391.0</ele>
<speed>4.3</speed>
<course>38.1</course>
<desc>Speed 4.3 km/h Distance 3.58 km</desc>
<time>2010-02-25T16:57:33.24</time>
<name>2439</name>
</trkpt>
<trkpt lat="48.926005" lon="8.662550">
<ele>392.0</ele>
<speed>4.4</speed>
<course>33.2</course>
<desc>Speed 4.4 km/h Distance 3.58 km</desc>
<time>2010-02-25T16:57:34.24</time>
<name>2440</name>
</trkpt>
<trkpt lat="48.926013" lon="8.662558">
<ele>392.0</ele>
<speed>4.4</speed>
<course>38.1</course>
<desc>Speed 4.4 km/h Distance 3.58 km</desc>
<time>2010-02-25T16:57:35.27</time>
<name>2441</name>
</trkpt>
<trkpt lat="48.926022" lon="8.662568">
<ele>392.5</ele>
<speed>4.1</speed>
<course>38.1</course>
<desc>Speed 4.1 km/h Distance 3.58 km</desc>
<time>2010-02-25T16:57:36.23</time>
<name>2442</name>
</trkpt>
<trkpt lat="48.926030" lon="8.662578">
<ele>392.5</ele>
<speed>4.4</speed>
<course>33.2</course>
<desc>Speed 4.4 km/h Distance 3.58 km</desc>
<time>2010-02-25T16:57:37.23</time>
<name>2443</name>
</trkpt>
<trkpt lat="48.926038" lon="8.662587">
<ele>393.0</ele>
<speed>4.2</speed>
<course>42.6</course>
<desc>Speed 4.2 km/h Distance 3.59 km</desc>
<time>2010-02-25T16:57:38.23</time>
<name>2444</name>
</trkpt>
<trkpt lat="48.926047" lon="8.662598">
<ele>393.0</ele>
<speed>4.3</speed>
<course>33.2</course>
<desc>Speed 4.3 km/h Distance 3.59 km</desc>
<time>2010-02-25T16:57:39.24</time>
<name>2445</name>
</trkpt>
<trkpt lat="48.926057" lon="8.662608">
<ele>393.0</ele>
<speed>4.2</speed>
<course>49.1</course>
<desc>Speed 4.2 km/h Distance 3.59 km</desc>
<time>2010-02-25T16:57:40.23</time>
<name>2446</name>
</trkpt>
<trkpt lat="48.926063" lon="8.662620">
<ele>393.5</ele>
<speed>3.9</speed>
<course>49.1</course>
<desc>Speed 3.9 km/h Distance 3.59 km</desc>
<time>2010-02-25T16:57:41.23</time>
<name>2447</name>
</trkpt>
<trkpt lat="48.926070" lon="8.662632">
<ele>393.5</ele>
<speed>4.0</speed>
<course>39.4</course>
<desc>Speed 4.0 km/h Distance 3.59 km</desc>
<time>2010-02-25T16:57:42.23</time>
<name>2448</name>
</trkpt>
<trkpt lat="48.926077" lon="8.662640">
<ele>393.5</ele>
<speed>3.4</speed>
<course>33.7</course>
<desc>Speed 3.4 km/h Distance 3.59 km</desc>
<time>2010-02-25T16:57:43.23</time>
<name>2449</name>
</trkpt>
<trkpt lat="48.926083" lon="8.662647">
<ele>394.5</ele>
<speed>3.4</speed>
<course>52.6</course>
<desc>Speed 3.4 km/h Distance 3.59 km</desc>
<time>2010-02-25T16:57:44.23</time>
<name>2450</name>
</trkpt>
<trkpt lat="48.926088" lon="8.662657">
<ele>396.0</ele>
<speed>3.2</speed>
<course>52.7</course>
<desc>Speed 3.2 km/h Distance 3.59 km</desc>
<time>2010-02-25T16:57:45.23</time>
<name>2451</name>
</trkpt>
<trkpt lat="48.926095" lon="8.662670">
<ele>396.5</ele>
<speed>3.9</speed>
<course>52.8</course>
<desc>Speed 3.9 km/h Distance 3.59 km</desc>
<time>2010-02-25T16:57:46.23</time>
<name>2452</name>
</trkpt>
<trkpt lat="48.926100" lon="8.662680">
<ele>398.0</ele>
<speed>3.5</speed>
<course>90.0</course>
<desc>Speed 3.5 km/h Distance 3.60 km</desc>
<time>2010-02-25T16:57:47.23</time>
<name>2453</name>
</trkpt>
<trkpt lat="48.926100" lon="8.662697">
<ele>398.0</ele>
<speed>3.2</speed>
<course>39.4</course>
<desc>Speed 3.2 km/h Distance 3.60 km</desc>
<time>2010-02-25T16:57:48.23</time>
<name>2454</name>
</trkpt>
<trkpt lat="48.926107" lon="8.662705">
<ele>398.0</ele>
<speed>3.7</speed>
<course>49.1</course>
<desc>Speed 3.7 km/h Distance 3.60 km</desc>
<time>2010-02-25T16:57:49.23</time>
<name>2455</name>
</trkpt>
<trkpt lat="48.926113" lon="8.662717">
<ele>398.0</ele>
<speed>3.9</speed>
<course>55.9</course>
<desc>Speed 3.9 km/h Distance 3.60 km</desc>
<time>2010-02-25T16:57:50.23</time>
<name>2456</name>
</trkpt>
<trkpt lat="48.926120" lon="8.662732">
<ele>397.5</ele>
<speed>4.5</speed>
<course>69.2</course>
<desc>Speed 4.5 km/h Distance 3.60 km</desc>
<time>2010-02-25T16:57:51.23</time>
<name>2457</name>
</trkpt>
<trkpt lat="48.926123" lon="8.662745">
<ele>398.5</ele>
<speed>3.4</speed>
<course>58.6</course>
<desc>Speed 3.4 km/h Distance 3.60 km</desc>
<time>2010-02-25T16:57:52.23</time>
<name>2458</name>
</trkpt>
<trkpt lat="48.926127" lon="8.662753">
<ele>399.0</ele>
<speed>2.3</speed>
<course>90.0</course>
<desc>Speed 2.3 km/h Distance 3.60 km</desc>
<time>2010-02-25T16:57:53.23</time>
<name>2459</name>
</trkpt>
<trkpt lat="48.926127" lon="8.662760">
<ele>399.0</ele>
<speed>0.9</speed>
<course>90.0</course>
<desc>Speed 0.9 km/h Distance 3.60 km</desc>
<time>2010-02-25T16:57:54.23</time>
<name>2460</name>
</trkpt>
<trkpt lat="48.926127" lon="8.662763">
<ele>399.5</ele>
<speed>0.8</speed>
<course>32.3</course>
<desc>Speed 0.8 km/h Distance 3.60 km</desc>
<time>2010-02-25T16:57:55.23</time>
<name>2461</name>
</trkpt>
<trkpt lat="48.926132" lon="8.662768">
<ele>400.0</ele>
<speed>1.9</speed>
<course>47.8</course>
<desc>Speed 1.9 km/h Distance 3.60 km</desc>
<time>2010-02-25T16:57:56.23</time>
<name>2462</name>
</trkpt>
<trkpt lat="48.926137" lon="8.662777">
<ele>400.5</ele>
<speed>3.0</speed>
<course>77.8</course>
<desc>Speed 3.0 km/h Distance 3.60 km</desc>
<time>2010-02-25T16:57:57.23</time>
<name>2463</name>
</trkpt>
<trkpt lat="48.926138" lon="8.662788">
<ele>401.5</ele>
<speed>3.4</speed>
<course>49.1</course>
<desc>Speed 3.4 km/h Distance 3.60 km</desc>
<time>2010-02-25T16:57:58.23</time>
<name>2464</name>
</trkpt>
<trkpt lat="48.926145" lon="8.662800">
<ele>401.5</ele>
<speed>3.7</speed>
<course>60.3</course>
<desc>Speed 3.7 km/h Distance 3.61 km</desc>
<time>2010-02-25T16:57:59.23</time>
<name>2465</name>
</trkpt>
<trkpt lat="48.926150" lon="8.662813">
<ele>402.0</ele>
<speed>3.2</speed>
<course>69.3</course>
<desc>Speed 3.2 km/h Distance 3.61 km</desc>
<time>2010-02-25T16:58:00.23</time>
<name>2466</name>
</trkpt>
<trkpt lat="48.926153" lon="8.662827">
<ele>402.5</ele>
<speed>3.3</speed>
<course>74.6</course>
<desc>Speed 3.3 km/h Distance 3.61 km</desc>
<time>2010-02-25T16:58:01.23</time>
<name>2467</name>
</trkpt>
<trkpt lat="48.926157" lon="8.662845">
<ele>403.0</ele>
<speed>3.6</speed>
<course>49.1</course>
<desc>Speed 3.6 km/h Distance 3.61 km</desc>
<time>2010-02-25T16:58:02.23</time>
<name>2468</name>
</trkpt>
<trkpt lat="48.926163" lon="8.662857">
<ele>403.5</ele>
<speed>3.9</speed>
<course>52.8</course>
<desc>Speed 3.9 km/h Distance 3.61 km</desc>
<time>2010-02-25T16:58:03.23</time>
<name>2469</name>
</trkpt>
<trkpt lat="48.926168" lon="8.662867">
<ele>404.0</ele>
<speed>3.3</speed>
<course>69.3</course>
<desc>Speed 3.3 km/h Distance 3.61 km</desc>
<time>2010-02-25T16:58:04.23</time>
<name>2470</name>
</trkpt>
<trkpt lat="48.926172" lon="8.662880">
<ele>404.0</ele>
<speed>3.4</speed>
<course>60.2</course>
<desc>Speed 3.4 km/h Distance 3.61 km</desc>
<time>2010-02-25T16:58:05.23</time>
<name>2471</name>
</trkpt>
<trkpt lat="48.926177" lon="8.662893">
<ele>404.5</ele>
<speed>3.7</speed>
<course>39.4</course>
<desc>Speed 3.7 km/h Distance 3.61 km</desc>
<time>2010-02-25T16:58:06.23</time>
<name>2472</name>
</trkpt>
<trkpt lat="48.926183" lon="8.662902">
<ele>404.0</ele>
<speed>3.3</speed>
<course>52.7</course>
<desc>Speed 3.3 km/h Distance 3.61 km</desc>
<time>2010-02-25T16:58:07.23</time>
<name>2473</name>
</trkpt>
<trkpt lat="48.926192" lon="8.662918">
<ele>404.5</ele>
<speed>3.7</speed>
<course>48.9</course>
<desc>Speed 3.7 km/h Distance 3.62 km</desc>
<time>2010-02-25T16:58:08.23</time>
<name>2474</name>
</trkpt>
<trkpt lat="48.926198" lon="8.662930">
<ele>404.0</ele>
<speed>3.8</speed>
<course>37.2</course>
<desc>Speed 3.8 km/h Distance 3.62 km</desc>
<time>2010-02-25T16:58:09.23</time>
<name>2475</name>
</trkpt>
<trkpt lat="48.926208" lon="8.662942">
<ele>404.0</ele>
<speed>3.3</speed>
<course>39.4</course>
<desc>Speed 3.3 km/h Distance 3.62 km</desc>
<time>2010-02-25T16:58:10.23</time>
<name>2476</name>
</trkpt>
<trkpt lat="48.926215" lon="8.662950">
<ele>403.5</ele>
<speed>3.6</speed>
<course>38.4</course>
<desc>Speed 3.6 km/h Distance 3.62 km</desc>
<time>2010-02-25T16:58:11.24</time>
<name>2477</name>
</trkpt>
<trkpt lat="48.926223" lon="8.662960">
<ele>403.5</ele>
<speed>4.0</speed>
<course>38.1</course>
<desc>Speed 4.0 km/h Distance 3.62 km</desc>
<time>2010-02-25T16:58:12.23</time>
<name>2478</name>
</trkpt>
<trkpt lat="48.926232" lon="8.662970">
<ele>402.5</ele>
<speed>3.7</speed>
<course>29.2</course>
<desc>Speed 3.7 km/h Distance 3.62 km</desc>
<time>2010-02-25T16:58:13.23</time>
<name>2479</name>
</trkpt>
<trkpt lat="48.926242" lon="8.662978">
<ele>402.0</ele>
<speed>3.9</speed>
<course>33.2</course>
<desc>Speed 3.9 km/h Distance 3.62 km</desc>
<time>2010-02-25T16:58:14.23</time>
<name>2480</name>
</trkpt>
<trkpt lat="48.926250" lon="8.662987">
<ele>401.5</ele>
<speed>3.6</speed>
<course>27.9</course>
<desc>Speed 3.6 km/h Distance 3.62 km</desc>
<time>2010-02-25T16:58:15.23</time>
<name>2481</name>
</trkpt>
<trkpt lat="48.926258" lon="8.662993">
<ele>401.0</ele>
<speed>3.3</speed>
<course>33.7</course>
<desc>Speed 3.3 km/h Distance 3.63 km</desc>
<time>2010-02-25T16:58:16.23</time>
<name>2482</name>
</trkpt>
<trkpt lat="48.926265" lon="8.663000">
<ele>400.0</ele>
<speed>2.6</speed>
<course>33.5</course>
<desc>Speed 2.6 km/h Distance 3.63 km</desc>
<time>2010-02-25T16:58:17.23</time>
<name>2483</name>
</trkpt>
<trkpt lat="48.926273" lon="8.663008">
<ele>399.0</ele>
<speed>3.4</speed>
<course>22.1</course>
<desc>Speed 3.4 km/h Distance 3.63 km</desc>
<time>2010-02-25T16:58:18.23</time>
<name>2484</name>
</trkpt>
<trkpt lat="48.926282" lon="8.663013">
<ele>398.0</ele>
<speed>3.0</speed>
<course>33.5</course>
<desc>Speed 3.0 km/h Distance 3.63 km</desc>
<time>2010-02-25T16:58:19.22</time>
<name>2485</name>
</trkpt>
<trkpt lat="48.926290" lon="8.663022">
<ele>397.5</ele>
<speed>3.2</speed>
<course>21.5</course>
<desc>Speed 3.2 km/h Distance 3.63 km</desc>
<time>2010-02-25T16:58:20.22</time>
<name>2486</name>
</trkpt>
<trkpt lat="48.926298" lon="8.663027">
<ele>396.5</ele>
<speed>3.5</speed>
<course>38.1</course>
<desc>Speed 3.5 km/h Distance 3.63 km</desc>
<time>2010-02-25T16:58:21.22</time>
<name>2487</name>
</trkpt>
<trkpt lat="48.926307" lon="8.663037">
<ele>397.0</ele>
<speed>4.2</speed>
<course>20.9</course>
<desc>Speed 4.2 km/h Distance 3.63 km</desc>
<time>2010-02-25T16:58:22.22</time>
<name>2488</name>
</trkpt>
<trkpt lat="48.926318" lon="8.663043">
<ele>396.5</ele>
<speed>4.2</speed>
<course>18.2</course>
<desc>Speed 4.2 km/h Distance 3.63 km</desc>
<time>2010-02-25T16:58:23.22</time>
<name>2489</name>
</trkpt>
<trkpt lat="48.926328" lon="8.663048">
<ele>396.5</ele>
<speed>3.7</speed>
<course>33.2</course>
<desc>Speed 3.7 km/h Distance 3.63 km</desc>
<time>2010-02-25T16:58:24.22</time>
<name>2490</name>
</trkpt>
<trkpt lat="48.926337" lon="8.663057">
<ele>397.0</ele>
<speed>3.6</speed>
<course>26.0</course>
<desc>Speed 3.6 km/h Distance 3.64 km</desc>
<time>2010-02-25T16:58:25.22</time>
<name>2491</name>
</trkpt>
<trkpt lat="48.926350" lon="8.663067">
<ele>397.5</ele>
<speed>4.3</speed>
<course>33.2</course>
<desc>Speed 4.3 km/h Distance 3.64 km</desc>
<time>2010-02-25T16:58:26.22</time>
<name>2492</name>
</trkpt>
<trkpt lat="48.926360" lon="8.663077">
<ele>398.0</ele>
<speed>4.3</speed>
<course>49.1</course>
<desc>Speed 4.3 km/h Distance 3.64 km</desc>
<time>2010-02-25T16:58:27.22</time>
<name>2493</name>
</trkpt>
<trkpt lat="48.926367" lon="8.663088">
<ele>398.5</ele>
<speed>4.0</speed>
<course>37.5</course>
<desc>Speed 4.0 km/h Distance 3.64 km</desc>
<time>2010-02-25T16:58:28.22</time>
<name>2494</name>
</trkpt>
<trkpt lat="48.926377" lon="8.663100">
<ele>398.5</ele>
<speed>4.5</speed>
<course>49.1</course>
<desc>Speed 4.5 km/h Distance 3.64 km</desc>
<time>2010-02-25T16:58:29.22</time>
<name>2495</name>
</trkpt>
<trkpt lat="48.926383" lon="8.663112">
<ele>398.0</ele>
<speed>3.8</speed>
<course>33.2</course>
<desc>Speed 3.8 km/h Distance 3.64 km</desc>
<time>2010-02-25T16:58:30.22</time>
<name>2496</name>
</trkpt>
<trkpt lat="48.926393" lon="8.663122">
<ele>397.0</ele>
<speed>4.0</speed>
<course>46.4</course>
<desc>Speed 4.0 km/h Distance 3.64 km</desc>
<time>2010-02-25T16:58:31.22</time>
<name>2497</name>
</trkpt>
<trkpt lat="48.926402" lon="8.663135">
<ele>397.0</ele>
<speed>4.4</speed>
<course>46.4</course>
<desc>Speed 4.4 km/h Distance 3.64 km</desc>
<time>2010-02-25T16:58:32.22</time>
<name>2498</name>
</trkpt>
<trkpt lat="48.926410" lon="8.663148">
<ele>396.5</ele>
<speed>4.4</speed>
<course>48.9</course>
<desc>Speed 4.4 km/h Distance 3.65 km</desc>
<time>2010-02-25T16:58:33.22</time>
<name>2499</name>
</trkpt>
<trkpt lat="48.926417" lon="8.663160">
<ele>396.0</ele>
<speed>3.8</speed>
<course>33.2</course>
<desc>Speed 3.8 km/h Distance 3.65 km</desc>
<time>2010-02-25T16:58:34.22</time>
<name>2500</name>
</trkpt>
<trkpt lat="48.926425" lon="8.663168">
<ele>395.0</ele>
<speed>3.9</speed>
<course>48.9</course>
<desc>Speed 3.9 km/h Distance 3.65 km</desc>
<time>2010-02-25T16:58:35.22</time>
<name>2501</name>
</trkpt>
<trkpt lat="48.926432" lon="8.663180">
<ele>395.0</ele>
<speed>3.9</speed>
<course>84.9</course>
<desc>Speed 3.9 km/h Distance 3.65 km</desc>
<time>2010-02-25T16:58:36.22</time>
<name>2502</name>
</trkpt>
<trkpt lat="48.926433" lon="8.663208">
<ele>393.5</ele>
<speed>4.1</speed>
<course>46.4</course>
<desc>Speed 4.1 km/h Distance 3.65 km</desc>
<time>2010-02-25T16:58:37.22</time>
<name>2503</name>
</trkpt>
<trkpt lat="48.926442" lon="8.663222">
<ele>393.0</ele>
<speed>4.4</speed>
<course>33.3</course>
<desc>Speed 4.4 km/h Distance 3.65 km</desc>
<time>2010-02-25T16:58:38.22</time>
<name>2504</name>
</trkpt>
<trkpt lat="48.926453" lon="8.663233">
<ele>392.0</ele>
<speed>4.6</speed>
<course>20.6</course>
<desc>Speed 4.6 km/h Distance 3.65 km</desc>
<time>2010-02-25T16:58:39.22</time>
<name>2505</name>
</trkpt>
<trkpt lat="48.926465" lon="8.663240">
<ele>391.5</ele>
<speed>4.6</speed>
<course>16.0</course>
<desc>Speed 4.6 km/h Distance 3.66 km</desc>
<time>2010-02-25T16:58:40.22</time>
<name>2506</name>
</trkpt>
<trkpt lat="48.926477" lon="8.663245">
<ele>391.0</ele>
<speed>4.4</speed>
<course>11.2</course>
<desc>Speed 4.4 km/h Distance 3.66 km</desc>
<time>2010-02-25T16:58:41.22</time>
<name>2507</name>
</trkpt>
<trkpt lat="48.926493" lon="8.663250">
<ele>391.0</ele>
<speed>5.3</speed>
<course>11.2</course>
<desc>Speed 5.3 km/h Distance 3.66 km</desc>
<time>2010-02-25T16:58:42.21</time>
<name>2508</name>
</trkpt>
<trkpt lat="48.926505" lon="8.663253">
<ele>391.0</ele>
<speed>5.0</speed>
<course>1.2</course>
<desc>Speed 5.0 km/h Distance 3.66 km</desc>
<time>2010-02-25T16:58:43.22</time>
<name>2509</name>
</trkpt>
<trkpt lat="48.926518" lon="8.663253">
<ele>390.0</ele>
<speed>5.0</speed>
<course>355.3</course>
<desc>Speed 5.0 km/h Distance 3.66 km</desc>
<time>2010-02-25T16:58:44.22</time>
<name>2510</name>
</trkpt>
<trkpt lat="48.926530" lon="8.663252">
<ele>389.5</ele>
<speed>4.8</speed>
<course>351.0</course>
<desc>Speed 4.8 km/h Distance 3.66 km</desc>
<time>2010-02-25T16:58:45.21</time>
<name>2511</name>
</trkpt>
<trkpt lat="48.926543" lon="8.663248">
<ele>389.0</ele>
<speed>4.6</speed>
<course>344.0</course>
<desc>Speed 4.6 km/h Distance 3.66 km</desc>
<time>2010-02-25T16:58:46.21</time>
<name>2512</name>
</trkpt>
<trkpt lat="48.926555" lon="8.663243">
<ele>389.0</ele>
<speed>4.7</speed>
<course>355.3</course>
<desc>Speed 4.7 km/h Distance 3.67 km</desc>
<time>2010-02-25T16:58:47.21</time>
<name>2513</name>
</trkpt>
<trkpt lat="48.926567" lon="8.663242">
<ele>388.5</ele>
<speed>4.2</speed>
<course>348.8</course>
<desc>Speed 4.2 km/h Distance 3.67 km</desc>
<time>2010-02-25T16:58:48.21</time>
<name>2514</name>
</trkpt>
<trkpt lat="48.926578" lon="8.663238">
<ele>388.5</ele>
<speed>3.9</speed>
<course>351.9</course>
<desc>Speed 3.9 km/h Distance 3.67 km</desc>
<time>2010-02-25T16:58:49.21</time>
<name>2515</name>
</trkpt>
<trkpt lat="48.926588" lon="8.663237">
<ele>388.0</ele>
<speed>3.4</speed>
<course>0.0</course>
<desc>Speed 3.4 km/h Distance 3.67 km</desc>
<time>2010-02-25T16:58:50.21</time>
<name>2516</name>
</trkpt>
<trkpt lat="48.926597" lon="8.663237">
<ele>388.0</ele>
<speed>4.4</speed>
<course>345.1</course>
<desc>Speed 4.4 km/h Distance 3.67 km</desc>
<time>2010-02-25T16:58:51.21</time>
<name>2517</name>
</trkpt>
<trkpt lat="48.926608" lon="8.663232">
<ele>387.5</ele>
<speed>4.6</speed>
<course>345.1</course>
<desc>Speed 4.6 km/h Distance 3.67 km</desc>
<time>2010-02-25T16:58:52.21</time>
<name>2518</name>
</trkpt>
<trkpt lat="48.926620" lon="8.663227">
<ele>387.0</ele>
<speed>3.9</speed>
<course>346.5</course>
<desc>Speed 3.9 km/h Distance 3.67 km</desc>
<time>2010-02-25T16:58:53.21</time>
<name>2519</name>
</trkpt>
<trkpt lat="48.926633" lon="8.663222">
<ele>386.0</ele>
<speed>4.2</speed>
<course>339.1</course>
<desc>Speed 4.2 km/h Distance 3.67 km</desc>
<time>2010-02-25T16:58:54.21</time>
<name>2520</name>
</trkpt>
<trkpt lat="48.926645" lon="8.663215">
<ele>385.0</ele>
<speed>3.9</speed>
<course>351.0</course>
<desc>Speed 3.9 km/h Distance 3.68 km</desc>
<time>2010-02-25T16:58:55.21</time>
<name>2521</name>
</trkpt>
<trkpt lat="48.926658" lon="8.663212">
<ele>385.0</ele>
<speed>4.6</speed>
<course>345.1</course>
<desc>Speed 4.6 km/h Distance 3.68 km</desc>
<time>2010-02-25T16:58:56.21</time>
<name>2522</name>
</trkpt>
<trkpt lat="48.926670" lon="8.663207">
<ele>385.0</ele>
<speed>4.0</speed>
<course>345.1</course>
<desc>Speed 4.0 km/h Distance 3.68 km</desc>
<time>2010-02-25T16:58:57.21</time>
<name>2523</name>
</trkpt>
<trkpt lat="48.926682" lon="8.663202">
<ele>385.0</ele>
<speed>4.6</speed>
<course>341.8</course>
<desc>Speed 4.6 km/h Distance 3.68 km</desc>
<time>2010-02-25T16:58:58.21</time>
<name>2524</name>
</trkpt>
<trkpt lat="48.926692" lon="8.663197">
<ele>384.5</ele>
<speed>4.2</speed>
<course>342.4</course>
<desc>Speed 4.2 km/h Distance 3.68 km</desc>
<time>2010-02-25T16:58:59.21</time>
<name>2525</name>
</trkpt>
<trkpt lat="48.926702" lon="8.663192">
<ele>384.5</ele>
<speed>3.5</speed>
<course>338.5</course>
<desc>Speed 3.5 km/h Distance 3.68 km</desc>
<time>2010-02-25T16:59:00.21</time>
<name>2526</name>
</trkpt>
<trkpt lat="48.926710" lon="8.663187">
<ele>384.5</ele>
<speed>3.6</speed>
<course>345.1</course>
<desc>Speed 3.6 km/h Distance 3.68 km</desc>
<time>2010-02-25T16:59:01.21</time>
<name>2527</name>
</trkpt>
<trkpt lat="48.926722" lon="8.663182">
<ele>384.0</ele>
<speed>4.1</speed>
<course>355.3</course>
<desc>Speed 4.1 km/h Distance 3.69 km</desc>
<time>2010-02-25T16:59:02.21</time>
<name>2528</name>
</trkpt>
<trkpt lat="48.926733" lon="8.663180">
<ele>384.0</ele>
<speed>4.6</speed>
<course>346.5</course>
<desc>Speed 4.6 km/h Distance 3.69 km</desc>
<time>2010-02-25T16:59:03.21</time>
<name>2529</name>
</trkpt>
<trkpt lat="48.926747" lon="8.663175">
<ele>384.0</ele>
<speed>4.6</speed>
<course>4.7</course>
<desc>Speed 4.6 km/h Distance 3.69 km</desc>
<time>2010-02-25T16:59:04.21</time>
<name>2530</name>
</trkpt>
<trkpt lat="48.926758" lon="8.663177">
<ele>384.5</ele>
<speed>4.6</speed>
<course>351.0</course>
<desc>Speed 4.6 km/h Distance 3.69 km</desc>
<time>2010-02-25T16:59:05.21</time>
<name>2531</name>
</trkpt>
<trkpt lat="48.926772" lon="8.663173">
<ele>384.5</ele>
<speed>4.4</speed>
<course>346.5</course>
<desc>Speed 4.4 km/h Distance 3.69 km</desc>
<time>2010-02-25T16:59:06.21</time>
<name>2532</name>
</trkpt>
<trkpt lat="48.926785" lon="8.663168">
<ele>384.0</ele>
<speed>4.9</speed>
<course>350.5</course>
<desc>Speed 4.9 km/h Distance 3.69 km</desc>
<time>2010-02-25T16:59:07.21</time>
<name>2533</name>
</trkpt>
<trkpt lat="48.926797" lon="8.663165">
<ele>383.5</ele>
<speed>4.4</speed>
<course>33.5</course>
<desc>Speed 4.4 km/h Distance 3.69 km</desc>
<time>2010-02-25T16:59:08.21</time>
<name>2534</name>
</trkpt>
<trkpt lat="48.926805" lon="8.663173">
<ele>383.5</ele>
<speed>4.4</speed>
<course>33.2</course>
<desc>Speed 4.4 km/h Distance 3.69 km</desc>
<time>2010-02-25T16:59:09.21</time>
<name>2535</name>
</trkpt>
<trkpt lat="48.926813" lon="8.663182">
<ele>384.0</ele>
<speed>4.2</speed>
<course>356.1</course>
<desc>Speed 4.2 km/h Distance 3.70 km</desc>
<time>2010-02-25T16:59:10.20</time>
<name>2536</name>
</trkpt>
<trkpt lat="48.926827" lon="8.663180">
<ele>384.0</ele>
<speed>4.6</speed>
<course>351.0</course>
<desc>Speed 4.6 km/h Distance 3.70 km</desc>
<time>2010-02-25T16:59:11.21</time>
<name>2537</name>
</trkpt>
<trkpt lat="48.926840" lon="8.663177">
<ele>383.5</ele>
<speed>4.6</speed>
<course>9.6</course>
<desc>Speed 4.6 km/h Distance 3.70 km</desc>
<time>2010-02-25T16:59:12.20</time>
<name>2538</name>
</trkpt>
<trkpt lat="48.926848" lon="8.663178">
<ele>383.0</ele>
<speed>4.5</speed>
<course>4.7</course>
<desc>Speed 4.5 km/h Distance 3.70 km</desc>
<time>2010-02-25T16:59:13.20</time>
<name>2539</name>
</trkpt>
<trkpt lat="48.926860" lon="8.663180">
<ele>383.0</ele>
<speed>5.3</speed>
<course>347.8</course>
<desc>Speed 5.3 km/h Distance 3.70 km</desc>
<time>2010-02-25T16:59:14.20</time>
<name>2540</name>
</trkpt>
<trkpt lat="48.926875" lon="8.663175">
<ele>382.5</ele>
<speed>5.3</speed>
<course>354.7</course>
<desc>Speed 5.3 km/h Distance 3.70 km</desc>
<time>2010-02-25T16:59:15.21</time>
<name>2541</name>
</trkpt>
<trkpt lat="48.926888" lon="8.663173">
<ele>382.0</ele>
<speed>5.5</speed>
<course>356.2</course>
<desc>Speed 5.5 km/h Distance 3.70 km</desc>
<time>2010-02-25T16:59:16.21</time>
<name>2542</name>
</trkpt>
<trkpt lat="48.926903" lon="8.663172">
<ele>381.5</ele>
<speed>5.9</speed>
<course>354.7</course>
<desc>Speed 5.9 km/h Distance 3.71 km</desc>
<time>2010-02-25T16:59:17.20</time>
<name>2543</name>
</trkpt>
<trkpt lat="48.926917" lon="8.663170">
<ele>381.5</ele>
<speed>4.6</speed>
<course>355.3</course>
<desc>Speed 4.6 km/h Distance 3.71 km</desc>
<time>2010-02-25T16:59:18.20</time>
<name>2544</name>
</trkpt>
<trkpt lat="48.926928" lon="8.663168">
<ele>381.0</ele>
<speed>4.2</speed>
<course>351.9</course>
<desc>Speed 4.2 km/h Distance 3.71 km</desc>
<time>2010-02-25T16:59:19.19</time>
<name>2545</name>
</trkpt>
<trkpt lat="48.926943" lon="8.663165">
<ele>380.5</ele>
<speed>4.8</speed>
<course>355.3</course>
<desc>Speed 4.8 km/h Distance 3.71 km</desc>
<time>2010-02-25T16:59:20.19</time>
<name>2546</name>
</trkpt>
<trkpt lat="48.926955" lon="8.663163">
<ele>380.5</ele>
<speed>4.5</speed>
<course>351.0</course>
<desc>Speed 4.5 km/h Distance 3.71 km</desc>
<time>2010-02-25T16:59:21.20</time>
<name>2547</name>
</trkpt>
<trkpt lat="48.926968" lon="8.663160">
<ele>380.5</ele>
<speed>4.8</speed>
<course>348.3</course>
<desc>Speed 4.8 km/h Distance 3.71 km</desc>
<time>2010-02-25T16:59:22.19</time>
<name>2548</name>
</trkpt>
<trkpt lat="48.926983" lon="8.663155">
<ele>380.5</ele>
<speed>5.2</speed>
<course>350.3</course>
<desc>Speed 5.2 km/h Distance 3.71 km</desc>
<time>2010-02-25T16:59:23.19</time>
<name>2549</name>
</trkpt>
<trkpt lat="48.926997" lon="8.663152">
<ele>380.0</ele>
<speed>4.9</speed>
<course>347.4</course>
<desc>Speed 4.9 km/h Distance 3.72 km</desc>
<time>2010-02-25T16:59:24.19</time>
<name>2550</name>
</trkpt>
<trkpt lat="48.927012" lon="8.663147">
<ele>379.5</ele>
<speed>4.8</speed>
<course>346.5</course>
<desc>Speed 4.8 km/h Distance 3.72 km</desc>
<time>2010-02-25T16:59:25.20</time>
<name>2551</name>
</trkpt>
<trkpt lat="48.927025" lon="8.663142">
<ele>379.5</ele>
<speed>5.0</speed>
<course>20.6</course>
<desc>Speed 5.0 km/h Distance 3.72 km</desc>
<time>2010-02-25T16:59:26.19</time>
<name>2552</name>
</trkpt>
<trkpt lat="48.927037" lon="8.663148">
<ele>380.0</ele>
<speed>5.2</speed>
<course>11.2</course>
<desc>Speed 5.2 km/h Distance 3.72 km</desc>
<time>2010-02-25T16:59:27.19</time>
<name>2553</name>
</trkpt>
<trkpt lat="48.927048" lon="8.663152">
<ele>380.0</ele>
<speed>4.2</speed>
<course>10.4</course>
<desc>Speed 4.2 km/h Distance 3.72 km</desc>
<time>2010-02-25T16:59:28.19</time>
<name>2554</name>
</trkpt>
<trkpt lat="48.927060" lon="8.663155">
<ele>380.5</ele>
<speed>4.8</speed>
<course>348.8</course>
<desc>Speed 4.8 km/h Distance 3.72 km</desc>
<time>2010-02-25T16:59:29.20</time>
<name>2555</name>
</trkpt>
<trkpt lat="48.927072" lon="8.663152">
<ele>380.0</ele>
<speed>4.8</speed>
<course>5.3</course>
<desc>Speed 4.8 km/h Distance 3.73 km</desc>
<time>2010-02-25T16:59:30.20</time>
<name>2556</name>
</trkpt>
<trkpt lat="48.927085" lon="8.663153">
<ele>380.0</ele>
<speed>4.7</speed>
<course>0.0</course>
<desc>Speed 4.7 km/h Distance 3.73 km</desc>
<time>2010-02-25T16:59:31.19</time>
<name>2557</name>
</trkpt>
<trkpt lat="48.927097" lon="8.663153">
<ele>380.0</ele>
<speed>5.1</speed>
<course>2.2</course>
<desc>Speed 5.1 km/h Distance 3.73 km</desc>
<time>2010-02-25T16:59:32.20</time>
<name>2558</name>
</trkpt>
<trkpt lat="48.927108" lon="8.663155">
<ele>380.0</ele>
<speed>4.8</speed>
<course>354.7</course>
<desc>Speed 4.8 km/h Distance 3.73 km</desc>
<time>2010-02-25T16:59:33.19</time>
<name>2559</name>
</trkpt>
<trkpt lat="48.927122" lon="8.663153">
<ele>380.5</ele>
<speed>5.1</speed>
<course>356.1</course>
<desc>Speed 5.1 km/h Distance 3.73 km</desc>
<time>2010-02-25T16:59:34.19</time>
<name>2560</name>
</trkpt>
<trkpt lat="48.927135" lon="8.663152">
<ele>380.0</ele>
<speed>4.3</speed>
<course>350.5</course>
<desc>Speed 4.3 km/h Distance 3.73 km</desc>
<time>2010-02-25T16:59:35.19</time>
<name>2561</name>
</trkpt>
<trkpt lat="48.927147" lon="8.663148">
<ele>380.0</ele>
<speed>5.1</speed>
<course>351.0</course>
<desc>Speed 5.1 km/h Distance 3.73 km</desc>
<time>2010-02-25T16:59:36.19</time>
<name>2562</name>
</trkpt>
<trkpt lat="48.927160" lon="8.663145">
<ele>379.0</ele>
<speed>4.1</speed>
<course>341.8</course>
<desc>Speed 4.1 km/h Distance 3.73 km</desc>
<time>2010-02-25T16:59:37.19</time>
<name>2563</name>
</trkpt>
<trkpt lat="48.927170" lon="8.663140">
<ele>379.0</ele>
<speed>3.9</speed>
<course>1.2</course>
<desc>Speed 3.9 km/h Distance 3.74 km</desc>
<time>2010-02-25T16:59:38.18</time>
<name>2564</name>
</trkpt>
<trkpt lat="48.927183" lon="8.663140">
<ele>378.5</ele>
<speed>5.7</speed>
<course>4.4</course>
<desc>Speed 5.7 km/h Distance 3.74 km</desc>
<time>2010-02-25T16:59:39.18</time>
<name>2565</name>
</trkpt>
<trkpt lat="48.927193" lon="8.663142">
<ele>378.5</ele>
<speed>3.9</speed>
<course>355.3</course>
<desc>Speed 3.9 km/h Distance 3.74 km</desc>
<time>2010-02-25T16:59:40.18</time>
<name>2566</name>
</trkpt>
<trkpt lat="48.927205" lon="8.663140">
<ele>378.0</ele>
<speed>4.3</speed>
<course>341.8</course>
<desc>Speed 4.3 km/h Distance 3.74 km</desc>
<time>2010-02-25T16:59:41.18</time>
<name>2567</name>
</trkpt>
<trkpt lat="48.927215" lon="8.663135">
<ele>377.0</ele>
<speed>3.3</speed>
<course>355.6</course>
<desc>Speed 3.3 km/h Distance 3.74 km</desc>
<time>2010-02-25T16:59:42.19</time>
<name>2568</name>
</trkpt>
<trkpt lat="48.927225" lon="8.663133">
<ele>377.0</ele>
<speed>4.1</speed>
<course>355.0</course>
<desc>Speed 4.1 km/h Distance 3.74 km</desc>
<time>2010-02-25T16:59:43.18</time>
<name>2569</name>
</trkpt>
<trkpt lat="48.927233" lon="8.663132">
<ele>376.0</ele>
<speed>2.9</speed>
<course>354.7</course>
<desc>Speed 2.9 km/h Distance 3.74 km</desc>
<time>2010-02-25T16:59:44.18</time>
<name>2570</name>
</trkpt>
<trkpt lat="48.927247" lon="8.663130">
<ele>375.5</ele>
<speed>4.6</speed>
<course>348.8</course>
<desc>Speed 4.6 km/h Distance 3.74 km</desc>
<time>2010-02-25T16:59:45.18</time>
<name>2571</name>
</trkpt>
<trkpt lat="48.927263" lon="8.663125">
<ele>375.0</ele>
<speed>5.2</speed>
<course>348.4</course>
<desc>Speed 5.2 km/h Distance 3.75 km</desc>
<time>2010-02-25T16:59:46.18</time>
<name>2572</name>
</trkpt>
<trkpt lat="48.927273" lon="8.663122">
<ele>375.0</ele>
<speed>4.0</speed>
<course>347.4</course>
<desc>Speed 4.0 km/h Distance 3.75 km</desc>
<time>2010-02-25T16:59:47.19</time>
<name>2573</name>
</trkpt>
<trkpt lat="48.927283" lon="8.663118">
<ele>375.0</ele>
<speed>4.1</speed>
<course>350.5</course>
<desc>Speed 4.1 km/h Distance 3.75 km</desc>
<time>2010-02-25T16:59:48.18</time>
<name>2574</name>
</trkpt>
<trkpt lat="48.927295" lon="8.663115">
<ele>374.5</ele>
<speed>4.1</speed>
<course>350.5</course>
<desc>Speed 4.1 km/h Distance 3.75 km</desc>
<time>2010-02-25T16:59:49.19</time>
<name>2575</name>
</trkpt>
<trkpt lat="48.927307" lon="8.663112">
<ele>374.0</ele>
<speed>4.0</speed>
<course>339.1</course>
<desc>Speed 4.0 km/h Distance 3.75 km</desc>
<time>2010-02-25T16:59:50.18</time>
<name>2576</name>
</trkpt>
<trkpt lat="48.927318" lon="8.663105">
<ele>374.5</ele>
<speed>3.7</speed>
<course>351.0</course>
<desc>Speed 3.7 km/h Distance 3.75 km</desc>
<time>2010-02-25T16:59:51.19</time>
<name>2577</name>
</trkpt>
<trkpt lat="48.927332" lon="8.663102">
<ele>374.5</ele>
<speed>4.5</speed>
<course>356.2</course>
<desc>Speed 4.5 km/h Distance 3.75 km</desc>
<time>2010-02-25T16:59:52.19</time>
<name>2578</name>
</trkpt>
<trkpt lat="48.927347" lon="8.663100">
<ele>374.0</ele>
<speed>4.4</speed>
<course>3.8</course>
<desc>Speed 4.4 km/h Distance 3.76 km</desc>
<time>2010-02-25T16:59:53.18</time>
<name>2579</name>
</trkpt>
<trkpt lat="48.927362" lon="8.663102">
<ele>374.0</ele>
<speed>4.6</speed>
<course>9.8</course>
<desc>Speed 4.6 km/h Distance 3.76 km</desc>
<time>2010-02-25T16:59:54.18</time>
<name>2580</name>
</trkpt>
<trkpt lat="48.927380" lon="8.663107">
<ele>373.5</ele>
<speed>4.8</speed>
<course>9.7</course>
<desc>Speed 4.8 km/h Distance 3.76 km</desc>
<time>2010-02-25T16:59:55.18</time>
<name>2581</name>
</trkpt>
<trkpt lat="48.927393" lon="8.663110">
<ele>373.0</ele>
<speed>4.7</speed>
<course>18.1</course>
<desc>Speed 4.7 km/h Distance 3.76 km</desc>
<time>2010-02-25T16:59:56.18</time>
<name>2582</name>
</trkpt>
<trkpt lat="48.927407" lon="8.663117">
<ele>372.5</ele>
<speed>4.6</speed>
<course>23.5</course>
<desc>Speed 4.6 km/h Distance 3.76 km</desc>
<time>2010-02-25T16:59:57.18</time>
<name>2583</name>
</trkpt>
<trkpt lat="48.927422" lon="8.663127">
<ele>372.0</ele>
<speed>5.5</speed>
<course>33.3</course>
<desc>Speed 5.5 km/h Distance 3.76 km</desc>
<time>2010-02-25T16:59:58.18</time>
<name>2584</name>
</trkpt>
<trkpt lat="48.927437" lon="8.663142">
<ele>372.0</ele>
<speed>5.8</speed>
<course>45.9</course>
<desc>Speed 5.8 km/h Distance 3.77 km</desc>
<time>2010-02-25T16:59:59.18</time>
<name>2585</name>
</trkpt>
<trkpt lat="48.927448" lon="8.663160">
<ele>371.5</ele>
<speed>5.9</speed>
<course>52.7</course>
<desc>Speed 5.9 km/h Distance 3.77 km</desc>
<time>2010-02-25T17:00:00.18</time>
<name>2586</name>
</trkpt>
<trkpt lat="48.927458" lon="8.663180">
<ele>371.5</ele>
<speed>6.1</speed>
<course>55.3</course>
<desc>Speed 6.1 km/h Distance 3.77 km</desc>
<time>2010-02-25T17:00:01.17</time>
<name>2587</name>
</trkpt>
<trkpt lat="48.927467" lon="8.663198">
<ele>371.5</ele>
<speed>5.7</speed>
<course>64.9</course>
<desc>Speed 5.7 km/h Distance 3.77 km</desc>
<time>2010-02-25T17:00:02.17</time>
<name>2588</name>
</trkpt>
<trkpt lat="48.927473" lon="8.663220">
<ele>372.5</ele>
<speed>5.9</speed>
<course>76.8</course>
<desc>Speed 5.9 km/h Distance 3.77 km</desc>
<time>2010-02-25T17:00:03.17</time>
<name>2589</name>
</trkpt>
<trkpt lat="48.927477" lon="8.663242">
<ele>372.5</ele>
<speed>5.8</speed>
<course>77.7</course>
<desc>Speed 5.8 km/h Distance 3.78 km</desc>
<time>2010-02-25T17:00:04.17</time>
<name>2590</name>
</trkpt>
<trkpt lat="48.927480" lon="8.663265">
<ele>373.0</ele>
<speed>6.0</speed>
<course>77.7</course>
<desc>Speed 6.0 km/h Distance 3.78 km</desc>
<time>2010-02-25T17:00:05.18</time>
<name>2591</name>
</trkpt>
<trkpt lat="48.927483" lon="8.663288">
<ele>373.0</ele>
<speed>6.1</speed>
<course>83.8</course>
<desc>Speed 6.1 km/h Distance 3.78 km</desc>
<time>2010-02-25T17:00:06.17</time>
<name>2592</name>
</trkpt>
<trkpt lat="48.927485" lon="8.663312">
<ele>373.5</ele>
<speed>6.2</speed>
<course>74.1</course>
<desc>Speed 6.2 km/h Distance 3.78 km</desc>
<time>2010-02-25T17:00:07.18</time>
<name>2593</name>
</trkpt>
<trkpt lat="48.927490" lon="8.663338">
<ele>374.0</ele>
<speed>5.9</speed>
<course>83.8</course>
<desc>Speed 5.9 km/h Distance 3.78 km</desc>
<time>2010-02-25T17:00:08.17</time>
<name>2594</name>
</trkpt>
<trkpt lat="48.927492" lon="8.663362">
<ele>374.5</ele>
<speed>6.0</speed>
<course>76.8</course>
<desc>Speed 6.0 km/h Distance 3.78 km</desc>
<time>2010-02-25T17:00:09.17</time>
<name>2595</name>
</trkpt>
<trkpt lat="48.927495" lon="8.663383">
<ele>374.5</ele>
<speed>5.9</speed>
<course>90.0</course>
<desc>Speed 5.9 km/h Distance 3.79 km</desc>
<time>2010-02-25T17:00:10.17</time>
<name>2596</name>
</trkpt>
<trkpt lat="48.927495" lon="8.663407">
<ele>374.0</ele>
<speed>5.9</speed>
<course>83.3</course>
<desc>Speed 5.9 km/h Distance 3.79 km</desc>
<time>2010-02-25T17:00:11.18</time>
<name>2597</name>
</trkpt>
<trkpt lat="48.927497" lon="8.663428">
<ele>374.0</ele>
<speed>5.9</speed>
<course>43.5</course>
<desc>Speed 5.9 km/h Distance 3.79 km</desc>
<time>2010-02-25T17:00:12.17</time>
<name>2598</name>
</trkpt>
<trkpt lat="48.927512" lon="8.663450">
<ele>373.0</ele>
<speed>6.0</speed>
<course>54.9</course>
<desc>Speed 6.0 km/h Distance 3.79 km</desc>
<time>2010-02-25T17:00:13.18</time>
<name>2599</name>
</trkpt>
<trkpt lat="48.927522" lon="8.663472">
<ele>372.5</ele>
<speed>5.8</speed>
<course>76.8</course>
<desc>Speed 5.8 km/h Distance 3.79 km</desc>
<time>2010-02-25T17:00:14.17</time>
<name>2600</name>
</trkpt>
<trkpt lat="48.927525" lon="8.663493">
<ele>372.5</ele>
<speed>5.7</speed>
<course>76.8</course>
<desc>Speed 5.7 km/h Distance 3.80 km</desc>
<time>2010-02-25T17:00:15.17</time>
<name>2601</name>
</trkpt>
<trkpt lat="48.927528" lon="8.663515">
<ele>373.0</ele>
<speed>5.9</speed>
<course>83.3</course>
<desc>Speed 5.9 km/h Distance 3.80 km</desc>
<time>2010-02-25T17:00:16.17</time>
<name>2602</name>
</trkpt>
<trkpt lat="48.927530" lon="8.663537">
<ele>373.0</ele>
<speed>5.6</speed>
<course>83.3</course>
<desc>Speed 5.6 km/h Distance 3.80 km</desc>
<time>2010-02-25T17:00:17.17</time>
<name>2603</name>
</trkpt>
<trkpt lat="48.927532" lon="8.663558">
<ele>373.5</ele>
<speed>6.0</speed>
<course>83.3</course>
<desc>Speed 6.0 km/h Distance 3.80 km</desc>
<time>2010-02-25T17:00:18.17</time>
<name>2604</name>
</trkpt>
<trkpt lat="48.927533" lon="8.663580">
<ele>373.5</ele>
<speed>6.0</speed>
<course>82.8</course>
<desc>Speed 6.0 km/h Distance 3.80 km</desc>
<time>2010-02-25T17:00:19.17</time>
<name>2605</name>
</trkpt>
<trkpt lat="48.927535" lon="8.663600">
<ele>373.5</ele>
<speed>5.9</speed>
<course>76.8</course>
<desc>Speed 5.9 km/h Distance 3.80 km</desc>
<time>2010-02-25T17:00:20.17</time>
<name>2606</name>
</trkpt>
<trkpt lat="48.927538" lon="8.663622">
<ele>373.0</ele>
<speed>5.7</speed>
<course>76.8</course>
<desc>Speed 5.7 km/h Distance 3.80 km</desc>
<time>2010-02-25T17:00:21.18</time>
<name>2607</name>
</trkpt>
<trkpt lat="48.927542" lon="8.663643">
<ele>373.5</ele>
<speed>5.4</speed>
<course>82.8</course>
<desc>Speed 5.4 km/h Distance 3.81 km</desc>
<time>2010-02-25T17:00:22.17</time>
<name>2608</name>
</trkpt>
<trkpt lat="48.927543" lon="8.663663">
<ele>373.0</ele>
<speed>5.3</speed>
<course>83.3</course>
<desc>Speed 5.3 km/h Distance 3.81 km</desc>
<time>2010-02-25T17:00:23.17</time>
<name>2609</name>
</trkpt>
<trkpt lat="48.927545" lon="8.663685">
<ele>373.0</ele>
<speed>5.5</speed>
<course>83.3</course>
<desc>Speed 5.5 km/h Distance 3.81 km</desc>
<time>2010-02-25T17:00:24.17</time>
<name>2610</name>
</trkpt>
<trkpt lat="48.927547" lon="8.663707">
<ele>373.0</ele>
<speed>5.7</speed>
<course>76.8</course>
<desc>Speed 5.7 km/h Distance 3.81 km</desc>
<time>2010-02-25T17:00:25.17</time>
<name>2611</name>
</trkpt>
<trkpt lat="48.927550" lon="8.663728">
<ele>373.0</ele>
<speed>5.5</speed>
<course>82.8</course>
<desc>Speed 5.5 km/h Distance 3.81 km</desc>
<time>2010-02-25T17:00:26.17</time>
<name>2612</name>
</trkpt>
<trkpt lat="48.927552" lon="8.663748">
<ele>373.0</ele>
<speed>5.4</speed>
<course>83.3</course>
<desc>Speed 5.4 km/h Distance 3.81 km</desc>
<time>2010-02-25T17:00:27.17</time>
<name>2613</name>
</trkpt>
<trkpt lat="48.927553" lon="8.663770">
<ele>373.5</ele>
<speed>5.8</speed>
<course>102.3</course>
<desc>Speed 5.8 km/h Distance 3.82 km</desc>
<time>2010-02-25T17:00:28.17</time>
<name>2614</name>
</trkpt>
<trkpt lat="48.927550" lon="8.663793">
<ele>373.0</ele>
<speed>6.1</speed>
<course>63.1</course>
<desc>Speed 6.1 km/h Distance 3.82 km</desc>
<time>2010-02-25T17:00:29.16</time>
<name>2615</name>
</trkpt>
<trkpt lat="48.927558" lon="8.663818">
<ele>373.0</ele>
<speed>5.9</speed>
<course>77.7</course>
<desc>Speed 5.9 km/h Distance 3.82 km</desc>
<time>2010-02-25T17:00:30.16</time>
<name>2616</name>
</trkpt>
<trkpt lat="48.927562" lon="8.663842">
<ele>373.5</ele>
<speed>5.9</speed>
<course>83.8</course>
<desc>Speed 5.9 km/h Distance 3.82 km</desc>
<time>2010-02-25T17:00:31.16</time>
<name>2617</name>
</trkpt>
<trkpt lat="48.927563" lon="8.663865">
<ele>373.5</ele>
<speed>5.9</speed>
<course>96.7</course>
<desc>Speed 5.9 km/h Distance 3.82 km</desc>
<time>2010-02-25T17:00:32.16</time>
<name>2618</name>
</trkpt>
<trkpt lat="48.927562" lon="8.663887">
<ele>373.5</ele>
<speed>5.8</speed>
<course>70.6</course>
<desc>Speed 5.8 km/h Distance 3.82 km</desc>
<time>2010-02-25T17:00:33.16</time>
<name>2619</name>
</trkpt>
<trkpt lat="48.927567" lon="8.663908">
<ele>373.5</ele>
<speed>5.7</speed>
<course>74.1</course>
<desc>Speed 5.7 km/h Distance 3.83 km</desc>
<time>2010-02-25T17:00:34.17</time>
<name>2620</name>
</trkpt>
<trkpt lat="48.927572" lon="8.663935">
<ele>374.0</ele>
<speed>6.0</speed>
<course>66.5</course>
<desc>Speed 6.0 km/h Distance 3.83 km</desc>
<time>2010-02-25T17:00:35.17</time>
<name>2621</name>
</trkpt>
<trkpt lat="48.927578" lon="8.663958">
<ele>374.0</ele>
<speed>5.9</speed>
<course>63.1</course>
<desc>Speed 5.9 km/h Distance 3.83 km</desc>
<time>2010-02-25T17:00:36.16</time>
<name>2622</name>
</trkpt>
<trkpt lat="48.927587" lon="8.663983">
<ele>374.5</ele>
<speed>5.9</speed>
<course>66.5</course>
<desc>Speed 5.9 km/h Distance 3.83 km</desc>
<time>2010-02-25T17:00:37.17</time>
<name>2623</name>
</trkpt>
<trkpt lat="48.927593" lon="8.664007">
<ele>374.5</ele>
<speed>5.8</speed>
<course>70.6</course>
<desc>Speed 5.8 km/h Distance 3.83 km</desc>
<time>2010-02-25T17:00:38.16</time>
<name>2624</name>
</trkpt>
<trkpt lat="48.927598" lon="8.664028">
<ele>374.5</ele>
<speed>5.9</speed>
<course>70.6</course>
<desc>Speed 5.9 km/h Distance 3.84 km</desc>
<time>2010-02-25T17:00:39.17</time>
<name>2625</name>
</trkpt>
<trkpt lat="48.927603" lon="8.664050">
<ele>374.0</ele>
<speed>5.7</speed>
<course>82.8</course>
<desc>Speed 5.7 km/h Distance 3.84 km</desc>
<time>2010-02-25T17:00:40.16</time>
<name>2626</name>
</trkpt>
<trkpt lat="48.927605" lon="8.664070">
<ele>374.0</ele>
<speed>5.5</speed>
<course>90.0</course>
<desc>Speed 5.5 km/h Distance 3.84 km</desc>
<time>2010-02-25T17:00:41.16</time>
<name>2627</name>
</trkpt>
<trkpt lat="48.927605" lon="8.664090">
<ele>373.5</ele>
<speed>5.3</speed>
<course>76.8</course>
<desc>Speed 5.3 km/h Distance 3.84 km</desc>
<time>2010-02-25T17:00:42.16</time>
<name>2628</name>
</trkpt>
<trkpt lat="48.927608" lon="8.664112">
<ele>373.5</ele>
<speed>5.4</speed>
<course>70.6</course>
<desc>Speed 5.4 km/h Distance 3.84 km</desc>
<time>2010-02-25T17:00:43.16</time>
<name>2629</name>
</trkpt>
<trkpt lat="48.927613" lon="8.664133">
<ele>374.0</ele>
<speed>5.8</speed>
<course>75.8</course>
<desc>Speed 5.8 km/h Distance 3.84 km</desc>
<time>2010-02-25T17:00:44.16</time>
<name>2630</name>
</trkpt>
<trkpt lat="48.927617" lon="8.664153">
<ele>374.0</ele>
<speed>5.2</speed>
<course>76.8</course>
<desc>Speed 5.2 km/h Distance 3.85 km</desc>
<time>2010-02-25T17:00:45.16</time>
<name>2631</name>
</trkpt>
<trkpt lat="48.927620" lon="8.664175">
<ele>374.0</ele>
<speed>5.9</speed>
<course>83.8</course>
<desc>Speed 5.9 km/h Distance 3.85 km</desc>
<time>2010-02-25T17:00:46.16</time>
<name>2632</name>
</trkpt>
<trkpt lat="48.927622" lon="8.664198">
<ele>374.0</ele>
<speed>5.9</speed>
<course>90.0</course>
<desc>Speed 5.9 km/h Distance 3.85 km</desc>
<time>2010-02-25T17:00:47.16</time>
<name>2633</name>
</trkpt>
<trkpt lat="48.927622" lon="8.664220">
<ele>374.0</ele>
<speed>5.8</speed>
<course>77.7</course>
<desc>Speed 5.8 km/h Distance 3.85 km</desc>
<time>2010-02-25T17:00:48.16</time>
<name>2634</name>
</trkpt>
<trkpt lat="48.927625" lon="8.664243">
<ele>374.0</ele>
<speed>5.8</speed>
<course>77.7</course>
<desc>Speed 5.8 km/h Distance 3.85 km</desc>
<time>2010-02-25T17:00:49.16</time>
<name>2635</name>
</trkpt>
<trkpt lat="48.927628" lon="8.664267">
<ele>374.0</ele>
<speed>6.1</speed>
<course>76.8</course>
<desc>Speed 6.1 km/h Distance 3.85 km</desc>
<time>2010-02-25T17:00:50.16</time>
<name>2636</name>
</trkpt>
<trkpt lat="48.927632" lon="8.664288">
<ele>374.0</ele>
<speed>5.9</speed>
<course>76.8</course>
<desc>Speed 5.9 km/h Distance 3.86 km</desc>
<time>2010-02-25T17:00:51.16</time>
<name>2637</name>
</trkpt>
<trkpt lat="48.927635" lon="8.664310">
<ele>374.5</ele>
<speed>5.8</speed>
<course>70.6</course>
<desc>Speed 5.8 km/h Distance 3.86 km</desc>
<time>2010-02-25T17:00:52.16</time>
<name>2638</name>
</trkpt>
<trkpt lat="48.927640" lon="8.664332">
<ele>374.5</ele>
<speed>5.8</speed>
<course>69.2</course>
<desc>Speed 5.8 km/h Distance 3.86 km</desc>
<time>2010-02-25T17:00:53.16</time>
<name>2639</name>
</trkpt>
<trkpt lat="48.927645" lon="8.664352">
<ele>374.5</ele>
<speed>5.1</speed>
<course>55.3</course>
<desc>Speed 5.1 km/h Distance 3.86 km</desc>
<time>2010-02-25T17:00:54.16</time>
<name>2640</name>
</trkpt>
<trkpt lat="48.927653" lon="8.664370">
<ele>374.0</ele>
<speed>5.0</speed>
<course>52.7</course>
<desc>Speed 5.0 km/h Distance 3.86 km</desc>
<time>2010-02-25T17:00:55.16</time>
<name>2641</name>
</trkpt>
<trkpt lat="48.927662" lon="8.664387">
<ele>374.5</ele>
<speed>4.6</speed>
<course>39.4</course>
<desc>Speed 4.6 km/h Distance 3.86 km</desc>
<time>2010-02-25T17:00:56.16</time>
<name>2642</name>
</trkpt>
<trkpt lat="48.927668" lon="8.664395">
<ele>374.5</ele>
<speed>2.4</speed>
<course>31.6</course>
<desc>Speed 2.4 km/h Distance 3.86 km</desc>
<time>2010-02-25T17:00:57.16</time>
<name>2643</name>
</trkpt>
<trkpt lat="48.927672" lon="8.664398">
<ele>373.5</ele>
<speed>0.9</speed>
<course>31.6</course>
<desc>Speed 0.9 km/h Distance 3.86 km</desc>
<time>2010-02-25T17:00:58.15</time>
<name>2644</name>
</trkpt>
<trkpt lat="48.927672" lon="8.664398">
<ele>373.5</ele>
<speed>0.1</speed>
<course>12.6</course>
<desc>Speed 0.1 km/h Distance 3.86 km</desc>
<time>2010-02-25T17:00:59.15</time>
<name>2645</name>
</trkpt>
<trkpt lat="48.927673" lon="8.664398">
<ele>373.5</ele>
<speed>0.3</speed>
<course>0.0</course>
<desc>Speed 0.3 km/h Distance 3.86 km</desc>
<time>2010-02-25T17:01:00.16</time>
<name>2646</name>
</trkpt>
<trkpt lat="48.927677" lon="8.664398">
<ele>374.0</ele>
<speed>0.2</speed>
<course>90.0</course>
<desc>Speed 0.2 km/h Distance 3.87 km</desc>
<time>2010-02-25T17:01:01.16</time>
<name>2647</name>
</trkpt>
<trkpt lat="48.927677" lon="8.664402">
<ele>374.0</ele>
<speed>0.8</speed>
<course>90.0</course>
<desc>Speed 0.8 km/h Distance 3.87 km</desc>
<time>2010-02-25T17:01:02.16</time>
<name>2648</name>
</trkpt>
<trkpt lat="48.927677" lon="8.664402">
<ele>374.0</ele>
<speed>0.5</speed>
<course>347.4</course>
<desc>Speed 0.5 km/h Distance 3.87 km</desc>
<time>2010-02-25T17:01:03.16</time>
<name>2649</name>
</trkpt>
<trkpt lat="48.927682" lon="8.664400">
<ele>374.5</ele>
<speed>0.3</speed>
<course>0.0</course>
<desc>Speed 0.3 km/h Distance 3.87 km</desc>
<time>2010-02-25T17:01:04.16</time>
<name>2650</name>
</trkpt>
<trkpt lat="48.927687" lon="8.664400">
<ele>375.5</ele>
<speed>0.2</speed>
<course>44.5</course>
<desc>Speed 0.2 km/h Distance 3.87 km</desc>
<time>2010-02-25T17:01:05.16</time>
<name>2651</name>
</trkpt>
<trkpt lat="48.927690" lon="8.664405">
<ele>374.0</ele>
<speed>1.4</speed>
<course>44.5</course>
<desc>Speed 1.4 km/h Distance 3.87 km</desc>
<time>2010-02-25T17:01:06.15</time>
<name>2652</name>
</trkpt>
<trkpt lat="48.927690" lon="8.664405">
<ele>374.0</ele>
<speed>0.3</speed>
<course>44.5</course>
<desc>Speed 0.3 km/h Distance 3.87 km</desc>
<time>2010-02-25T17:01:07.18</time>
<name>2653</name>
</trkpt>
<trkpt lat="48.927690" lon="8.664405">
<ele>374.0</ele>
<speed>0.3</speed>
<course>51.9</course>
<desc>Speed 0.3 km/h Distance 3.87 km</desc>
<time>2010-02-25T17:01:08.15</time>
<name>2654</name>
</trkpt>
<trkpt lat="48.927692" lon="8.664408">
<ele>374.0</ele>
<speed>1.4</speed>
<course>0.0</course>
<desc>Speed 1.4 km/h Distance 3.87 km</desc>
<time>2010-02-25T17:01:09.16</time>
<name>2655</name>
</trkpt>
<trkpt lat="48.927697" lon="8.664408">
<ele>374.5</ele>
<speed>0.4</speed>
<course>347.4</course>
<desc>Speed 0.4 km/h Distance 3.87 km</desc>
<time>2010-02-25T17:01:10.15</time>
<name>2656</name>
</trkpt>
<trkpt lat="48.927702" lon="8.664407">
<ele>375.0</ele>
<speed>0.5</speed>
<course>4.7</course>
<desc>Speed 0.5 km/h Distance 3.87 km</desc>
<time>2010-02-25T17:01:11.17</time>
<name>2657</name>
</trkpt>
<trkpt lat="48.927713" lon="8.664408">
<ele>374.5</ele>
<speed>1.7</speed>
<course>142.8</course>
<desc>Speed 1.7 km/h Distance 3.87 km</desc>
<time>2010-02-25T17:01:12.15</time>
<name>2658</name>
</trkpt>
<trkpt lat="48.927712" lon="8.664410">
<ele>375.5</ele>
<speed>1.4</speed>
<course>58.9</course>
<desc>Speed 1.4 km/h Distance 3.87 km</desc>
<time>2010-02-25T17:01:13.15</time>
<name>2659</name>
</trkpt>
<trkpt lat="48.927715" lon="8.664418">
<ele>376.0</ele>
<speed>2.1</speed>
<course>100.8</course>
<desc>Speed 2.1 km/h Distance 3.87 km</desc>
<time>2010-02-25T17:01:14.15</time>
<name>2660</name>
</trkpt>
<trkpt lat="48.927713" lon="8.664432">
<ele>375.5</ele>
<speed>3.3</speed>
<course>110.8</course>
<desc>Speed 3.3 km/h Distance 3.87 km</desc>
<time>2010-02-25T17:01:15.16</time>
<name>2661</name>
</trkpt>
<trkpt lat="48.927710" lon="8.664445">
<ele>375.5</ele>
<speed>4.4</speed>
<course>99.6</course>
<desc>Speed 4.4 km/h Distance 3.87 km</desc>
<time>2010-02-25T17:01:16.16</time>
<name>2662</name>
</trkpt>
<trkpt lat="48.927708" lon="8.664460">
<ele>375.5</ele>
<speed>3.7</speed>
<course>108.7</course>
<desc>Speed 3.7 km/h Distance 3.87 km</desc>
<time>2010-02-25T17:01:17.16</time>
<name>2663</name>
</trkpt>
<trkpt lat="48.927705" lon="8.664475">
<ele>375.0</ele>
<speed>4.9</speed>
<course>96.7</course>
<desc>Speed 4.9 km/h Distance 3.88 km</desc>
<time>2010-02-25T17:01:18.15</time>
<name>2664</name>
</trkpt>
<trkpt lat="48.927703" lon="8.664497">
<ele>374.0</ele>
<speed>5.4</speed>
<course>96.7</course>
<desc>Speed 5.4 km/h Distance 3.88 km</desc>
<time>2010-02-25T17:01:19.15</time>
<name>2665</name>
</trkpt>
<trkpt lat="48.927702" lon="8.664518">
<ele>373.0</ele>
<speed>5.3</speed>
<course>104.2</course>
<desc>Speed 5.3 km/h Distance 3.88 km</desc>
<time>2010-02-25T17:01:20.16</time>
<name>2666</name>
</trkpt>
<trkpt lat="48.927698" lon="8.664538">
<ele>373.0</ele>
<speed>5.7</speed>
<course>90.0</course>
<desc>Speed 5.7 km/h Distance 3.88 km</desc>
<time>2010-02-25T17:01:21.15</time>
<name>2667</name>
</trkpt>
<trkpt lat="48.927698" lon="8.664558">
<ele>373.0</ele>
<speed>5.4</speed>
<course>83.3</course>
<desc>Speed 5.4 km/h Distance 3.88 km</desc>
<time>2010-02-25T17:01:22.15</time>
<name>2668</name>
</trkpt>
<trkpt lat="48.927700" lon="8.664580">
<ele>373.5</ele>
<speed>5.4</speed>
<course>90.0</course>
<desc>Speed 5.4 km/h Distance 3.88 km</desc>
<time>2010-02-25T17:01:23.14</time>
<name>2669</name>
</trkpt>
<trkpt lat="48.927700" lon="8.664600">
<ele>374.0</ele>
<speed>5.6</speed>
<course>82.1</course>
<desc>Speed 5.6 km/h Distance 3.88 km</desc>
<time>2010-02-25T17:01:24.14</time>
<name>2670</name>
</trkpt>
<trkpt lat="48.927702" lon="8.664618">
<ele>374.5</ele>
<speed>5.2</speed>
<course>82.8</course>
<desc>Speed 5.2 km/h Distance 3.89 km</desc>
<time>2010-02-25T17:01:25.15</time>
<name>2671</name>
</trkpt>
<trkpt lat="48.927703" lon="8.664638">
<ele>375.0</ele>
<speed>5.4</speed>
<course>83.8</course>
<desc>Speed 5.4 km/h Distance 3.89 km</desc>
<time>2010-02-25T17:01:26.14</time>
<name>2672</name>
</trkpt>
<trkpt lat="48.927705" lon="8.664662">
<ele>375.0</ele>
<speed>5.8</speed>
<course>83.3</course>
<desc>Speed 5.8 km/h Distance 3.89 km</desc>
<time>2010-02-25T17:01:27.14</time>
<name>2673</name>
</trkpt>
<trkpt lat="48.927707" lon="8.664683">
<ele>375.0</ele>
<speed>5.5</speed>
<course>77.7</course>
<desc>Speed 5.5 km/h Distance 3.89 km</desc>
<time>2010-02-25T17:01:28.14</time>
<name>2674</name>
</trkpt>
<trkpt lat="48.927710" lon="8.664707">
<ele>375.5</ele>
<speed>5.3</speed>
<course>70.6</course>
<desc>Speed 5.3 km/h Distance 3.89 km</desc>
<time>2010-02-25T17:01:29.14</time>
<name>2675</name>
</trkpt>
<trkpt lat="48.927715" lon="8.664728">
<ele>375.0</ele>
<speed>5.1</speed>
<course>83.3</course>
<desc>Speed 5.1 km/h Distance 3.89 km</desc>
<time>2010-02-25T17:01:30.14</time>
<name>2676</name>
</trkpt>
<trkpt lat="48.927717" lon="8.664750">
<ele>375.0</ele>
<speed>5.7</speed>
<course>84.2</course>
<desc>Speed 5.7 km/h Distance 3.90 km</desc>
<time>2010-02-25T17:01:31.14</time>
<name>2677</name>
</trkpt>
<trkpt lat="48.927718" lon="8.664775">
<ele>375.0</ele>
<speed>6.1</speed>
<course>77.7</course>
<desc>Speed 6.1 km/h Distance 3.90 km</desc>
<time>2010-02-25T17:01:32.14</time>
<name>2678</name>
</trkpt>
<trkpt lat="48.927722" lon="8.664798">
<ele>375.0</ele>
<speed>5.9</speed>
<course>84.6</course>
<desc>Speed 5.9 km/h Distance 3.90 km</desc>
<time>2010-02-25T17:01:33.14</time>
<name>2679</name>
</trkpt>
<trkpt lat="48.927723" lon="8.664825">
<ele>375.0</ele>
<speed>5.9</speed>
<course>78.5</course>
<desc>Speed 5.9 km/h Distance 3.90 km</desc>
<time>2010-02-25T17:01:34.14</time>
<name>2680</name>
</trkpt>
<trkpt lat="48.927727" lon="8.664850">
<ele>375.0</ele>
<speed>6.1</speed>
<course>84.2</course>
<desc>Speed 6.1 km/h Distance 3.90 km</desc>
<time>2010-02-25T17:01:35.14</time>
<name>2681</name>
</trkpt>
<trkpt lat="48.927728" lon="8.664875">
<ele>375.0</ele>
<speed>5.9</speed>
<course>84.6</course>
<desc>Speed 5.9 km/h Distance 3.90 km</desc>
<time>2010-02-25T17:01:36.14</time>
<name>2682</name>
</trkpt>
<trkpt lat="48.927730" lon="8.664902">
<ele>375.5</ele>
<speed>6.0</speed>
<course>84.2</course>
<desc>Speed 6.0 km/h Distance 3.91 km</desc>
<time>2010-02-25T17:01:37.14</time>
<name>2683</name>
</trkpt>
<trkpt lat="48.927732" lon="8.664927">
<ele>375.5</ele>
<speed>6.1</speed>
<course>84.6</course>
<desc>Speed 6.1 km/h Distance 3.91 km</desc>
<time>2010-02-25T17:01:38.14</time>
<name>2684</name>
</trkpt>
<trkpt lat="48.927733" lon="8.664953">
<ele>375.5</ele>
<speed>6.3</speed>
<course>84.2</course>
<desc>Speed 6.3 km/h Distance 3.91 km</desc>
<time>2010-02-25T17:01:39.14</time>
<name>2685</name>
</trkpt>
<trkpt lat="48.927735" lon="8.664978">
<ele>375.5</ele>
<speed>6.0</speed>
<course>84.2</course>
<desc>Speed 6.0 km/h Distance 3.91 km</desc>
<time>2010-02-25T17:01:40.14</time>
<name>2686</name>
</trkpt>
<trkpt lat="48.927737" lon="8.665003">
<ele>375.5</ele>
<speed>6.2</speed>
<course>84.2</course>
<desc>Speed 6.2 km/h Distance 3.91 km</desc>
<time>2010-02-25T17:01:41.14</time>
<name>2687</name>
</trkpt>
<trkpt lat="48.927738" lon="8.665028">
<ele>375.5</ele>
<speed>6.2</speed>
<course>84.2</course>
<desc>Speed 6.2 km/h Distance 3.92 km</desc>
<time>2010-02-25T17:01:42.14</time>
<name>2688</name>
</trkpt>
<trkpt lat="48.927740" lon="8.665053">
<ele>375.5</ele>
<speed>6.1</speed>
<course>77.8</course>
<desc>Speed 6.1 km/h Distance 3.92 km</desc>
<time>2010-02-25T17:01:43.14</time>
<name>2689</name>
</trkpt>
<trkpt lat="48.927743" lon="8.665077">
<ele>375.5</ele>
<speed>5.9</speed>
<course>84.2</course>
<desc>Speed 5.9 km/h Distance 3.92 km</desc>
<time>2010-02-25T17:01:44.14</time>
<name>2690</name>
</trkpt>
<trkpt lat="48.927745" lon="8.665102">
<ele>375.5</ele>
<speed>6.2</speed>
<course>84.2</course>
<desc>Speed 6.2 km/h Distance 3.92 km</desc>
<time>2010-02-25T17:01:45.14</time>
<name>2691</name>
</trkpt>
<trkpt lat="48.927747" lon="8.665127">
<ele>375.0</ele>
<speed>6.0</speed>
<course>73.1</course>
<desc>Speed 6.0 km/h Distance 3.92 km</desc>
<time>2010-02-25T17:01:46.14</time>
<name>2692</name>
</trkpt>
<trkpt lat="48.927752" lon="8.665152">
<ele>375.5</ele>
<speed>6.1</speed>
<course>83.8</course>
<desc>Speed 6.1 km/h Distance 3.93 km</desc>
<time>2010-02-25T17:01:47.13</time>
<name>2693</name>
</trkpt>
<trkpt lat="48.927753" lon="8.665175">
<ele>375.5</ele>
<speed>6.2</speed>
<course>83.8</course>
<desc>Speed 6.2 km/h Distance 3.93 km</desc>
<time>2010-02-25T17:01:48.13</time>
<name>2694</name>
</trkpt>
<trkpt lat="48.927755" lon="8.665198">
<ele>375.5</ele>
<speed>6.0</speed>
<course>83.8</course>
<desc>Speed 6.0 km/h Distance 3.93 km</desc>
<time>2010-02-25T17:01:49.14</time>
<name>2695</name>
</trkpt>
<trkpt lat="48.927757" lon="8.665222">
<ele>375.0</ele>
<speed>6.0</speed>
<course>71.9</course>
<desc>Speed 6.0 km/h Distance 3.93 km</desc>
<time>2010-02-25T17:01:50.14</time>
<name>2696</name>
</trkpt>
<trkpt lat="48.927762" lon="8.665245">
<ele>375.0</ele>
<speed>6.0</speed>
<course>83.8</course>
<desc>Speed 6.0 km/h Distance 3.93 km</desc>
<time>2010-02-25T17:01:51.13</time>
<name>2697</name>
</trkpt>
<trkpt lat="48.927763" lon="8.665268">
<ele>375.0</ele>
<speed>6.0</speed>
<course>83.8</course>
<desc>Speed 6.0 km/h Distance 3.93 km</desc>
<time>2010-02-25T17:01:52.14</time>
<name>2698</name>
</trkpt>
<trkpt lat="48.927765" lon="8.665292">
<ele>375.0</ele>
<speed>6.0</speed>
<course>90.0</course>
<desc>Speed 6.0 km/h Distance 3.94 km</desc>
<time>2010-02-25T17:01:53.13</time>
<name>2699</name>
</trkpt>
<trkpt lat="48.927765" lon="8.665315">
<ele>375.5</ele>
<speed>6.2</speed>
<course>83.8</course>
<desc>Speed 6.2 km/h Distance 3.94 km</desc>
<time>2010-02-25T17:01:54.13</time>
<name>2700</name>
</trkpt>
<trkpt lat="48.927767" lon="8.665338">
<ele>375.5</ele>
<speed>6.1</speed>
<course>90.0</course>
<desc>Speed 6.1 km/h Distance 3.94 km</desc>
<time>2010-02-25T17:01:55.13</time>
<name>2701</name>
</trkpt>
<trkpt lat="48.927767" lon="8.665362">
<ele>375.0</ele>
<speed>6.0</speed>
<course>83.8</course>
<desc>Speed 6.0 km/h Distance 3.94 km</desc>
<time>2010-02-25T17:01:56.13</time>
<name>2702</name>
</trkpt>
<trkpt lat="48.927768" lon="8.665385">
<ele>375.0</ele>
<speed>6.1</speed>
<course>83.8</course>
<desc>Speed 6.1 km/h Distance 3.94 km</desc>
<time>2010-02-25T17:01:57.14</time>
<name>2703</name>
</trkpt>
<trkpt lat="48.927770" lon="8.665408">
<ele>375.5</ele>
<speed>6.2</speed>
<course>76.8</course>
<desc>Speed 6.2 km/h Distance 3.94 km</desc>
<time>2010-02-25T17:01:58.14</time>
<name>2704</name>
</trkpt>
<trkpt lat="48.927773" lon="8.665430">
<ele>375.5</ele>
<speed>6.0</speed>
<course>77.7</course>
<desc>Speed 6.0 km/h Distance 3.95 km</desc>
<time>2010-02-25T17:01:59.13</time>
<name>2705</name>
</trkpt>
<trkpt lat="48.927777" lon="8.665453">
<ele>375.5</ele>
<speed>6.1</speed>
<course>84.2</course>
<desc>Speed 6.1 km/h Distance 3.95 km</desc>
<time>2010-02-25T17:02:00.13</time>
<name>2706</name>
</trkpt>
<trkpt lat="48.927778" lon="8.665478">
<ele>375.5</ele>
<speed>6.2</speed>
<course>83.8</course>
<desc>Speed 6.2 km/h Distance 3.95 km</desc>
<time>2010-02-25T17:02:01.13</time>
<name>2707</name>
</trkpt>
<trkpt lat="48.927780" lon="8.665502">
<ele>375.5</ele>
<speed>6.1</speed>
<course>90.0</course>
<desc>Speed 6.1 km/h Distance 3.95 km</desc>
<time>2010-02-25T17:02:02.13</time>
<name>2708</name>
</trkpt>
<trkpt lat="48.927780" lon="8.665523">
<ele>375.5</ele>
<speed>5.9</speed>
<course>83.8</course>
<desc>Speed 5.9 km/h Distance 3.95 km</desc>
<time>2010-02-25T17:02:03.14</time>
<name>2709</name>
</trkpt>
<trkpt lat="48.927782" lon="8.665547">
<ele>376.0</ele>
<speed>5.9</speed>
<course>77.7</course>
<desc>Speed 5.9 km/h Distance 3.95 km</desc>
<time>2010-02-25T17:02:04.13</time>
<name>2710</name>
</trkpt>
<trkpt lat="48.927785" lon="8.665570">
<ele>376.0</ele>
<speed>6.2</speed>
<course>84.2</course>
<desc>Speed 6.2 km/h Distance 3.96 km</desc>
<time>2010-02-25T17:02:05.14</time>
<name>2711</name>
</trkpt>
<trkpt lat="48.927787" lon="8.665595">
<ele>376.0</ele>
<speed>6.3</speed>
<course>83.8</course>
<desc>Speed 6.3 km/h Distance 3.96 km</desc>
<time>2010-02-25T17:02:06.14</time>
<name>2712</name>
</trkpt>
<trkpt lat="48.927788" lon="8.665618">
<ele>376.0</ele>
<speed>6.1</speed>
<course>83.8</course>
<desc>Speed 6.1 km/h Distance 3.96 km</desc>
<time>2010-02-25T17:02:07.13</time>
<name>2713</name>
</trkpt>
<trkpt lat="48.927790" lon="8.665642">
<ele>376.0</ele>
<speed>6.0</speed>
<course>84.2</course>
<desc>Speed 6.0 km/h Distance 3.96 km</desc>
<time>2010-02-25T17:02:08.13</time>
<name>2714</name>
</trkpt>
<trkpt lat="48.927792" lon="8.665667">
<ele>376.0</ele>
<speed>6.2</speed>
<course>83.8</course>
<desc>Speed 6.2 km/h Distance 3.96 km</desc>
<time>2010-02-25T17:02:09.13</time>
<name>2715</name>
</trkpt>
<trkpt lat="48.927793" lon="8.665690">
<ele>375.5</ele>
<speed>6.2</speed>
<course>84.2</course>
<desc>Speed 6.2 km/h Distance 3.96 km</desc>
<time>2010-02-25T17:02:10.12</time>
<name>2716</name>
</trkpt>
<trkpt lat="48.927795" lon="8.665715">
<ele>375.5</ele>
<speed>6.2</speed>
<course>90.0</course>
<desc>Speed 6.2 km/h Distance 3.97 km</desc>
<time>2010-02-25T17:02:11.13</time>
<name>2717</name>
</trkpt>
<trkpt lat="48.927795" lon="8.665738">
<ele>375.5</ele>
<speed>6.4</speed>
<course>83.8</course>
<desc>Speed 6.4 km/h Distance 3.97 km</desc>
<time>2010-02-25T17:02:12.12</time>
<name>2718</name>
</trkpt>
<trkpt lat="48.927797" lon="8.665762">
<ele>375.5</ele>
<speed>6.1</speed>
<course>83.8</course>
<desc>Speed 6.1 km/h Distance 3.97 km</desc>
<time>2010-02-25T17:02:13.12</time>
<name>2719</name>
</trkpt>
<trkpt lat="48.927798" lon="8.665785">
<ele>375.0</ele>
<speed>5.9</speed>
<course>83.8</course>
<desc>Speed 5.9 km/h Distance 3.97 km</desc>
<time>2010-02-25T17:02:14.12</time>
<name>2720</name>
</trkpt>
<trkpt lat="48.927800" lon="8.665808">
<ele>375.0</ele>
<speed>6.0</speed>
<course>90.0</course>
<desc>Speed 6.0 km/h Distance 3.97 km</desc>
<time>2010-02-25T17:02:15.13</time>
<name>2721</name>
</trkpt>
<trkpt lat="48.927800" lon="8.665832">
<ele>375.0</ele>
<speed>6.2</speed>
<course>83.8</course>
<desc>Speed 6.2 km/h Distance 3.98 km</desc>
<time>2010-02-25T17:02:16.12</time>
<name>2722</name>
</trkpt>
<trkpt lat="48.927802" lon="8.665855">
<ele>374.5</ele>
<speed>6.2</speed>
<course>90.0</course>
<desc>Speed 6.2 km/h Distance 3.98 km</desc>
<time>2010-02-25T17:02:17.12</time>
<name>2723</name>
</trkpt>
<trkpt lat="48.927802" lon="8.665878">
<ele>374.5</ele>
<speed>6.1</speed>
<course>90.0</course>
<desc>Speed 6.1 km/h Distance 3.98 km</desc>
<time>2010-02-25T17:02:18.12</time>
<name>2724</name>
</trkpt>
<trkpt lat="48.927802" lon="8.665902">
<ele>374.5</ele>
<speed>6.3</speed>
<course>84.2</course>
<desc>Speed 6.3 km/h Distance 3.98 km</desc>
<time>2010-02-25T17:02:19.12</time>
<name>2725</name>
</trkpt>
<trkpt lat="48.927803" lon="8.665927">
<ele>374.5</ele>
<speed>6.2</speed>
<course>83.3</course>
<desc>Speed 6.2 km/h Distance 3.98 km</desc>
<time>2010-02-25T17:02:20.12</time>
<name>2726</name>
</trkpt>
<trkpt lat="48.927805" lon="8.665948">
<ele>374.5</ele>
<speed>6.0</speed>
<course>84.2</course>
<desc>Speed 6.0 km/h Distance 3.98 km</desc>
<time>2010-02-25T17:02:21.12</time>
<name>2727</name>
</trkpt>
<trkpt lat="48.927807" lon="8.665973">
<ele>374.5</ele>
<speed>6.1</speed>
<course>77.7</course>
<desc>Speed 6.1 km/h Distance 3.99 km</desc>
<time>2010-02-25T17:02:22.12</time>
<name>2728</name>
</trkpt>
<trkpt lat="48.927810" lon="8.665997">
<ele>374.5</ele>
<speed>6.1</speed>
<course>83.8</course>
<desc>Speed 6.1 km/h Distance 3.99 km</desc>
<time>2010-02-25T17:02:23.12</time>
<name>2729</name>
</trkpt>
<trkpt lat="48.927812" lon="8.666020">
<ele>374.5</ele>
<speed>6.0</speed>
<course>70.6</course>
<desc>Speed 6.0 km/h Distance 3.99 km</desc>
<time>2010-02-25T17:02:24.12</time>
<name>2730</name>
</trkpt>
<trkpt lat="48.927817" lon="8.666042">
<ele>375.0</ele>
<speed>6.0</speed>
<course>90.0</course>
<desc>Speed 6.0 km/h Distance 3.99 km</desc>
<time>2010-02-25T17:02:25.12</time>
<name>2731</name>
</trkpt>
<trkpt lat="48.927817" lon="8.666067">
<ele>375.0</ele>
<speed>6.1</speed>
<course>71.9</course>
<desc>Speed 6.1 km/h Distance 3.99 km</desc>
<time>2010-02-25T17:02:26.12</time>
<name>2732</name>
</trkpt>
<trkpt lat="48.927822" lon="8.666090">
<ele>375.0</ele>
<speed>6.1</speed>
<course>83.8</course>
<desc>Speed 6.1 km/h Distance 3.99 km</desc>
<time>2010-02-25T17:02:27.12</time>
<name>2733</name>
</trkpt>
<trkpt lat="48.927823" lon="8.666113">
<ele>375.0</ele>
<speed>6.0</speed>
<course>73.1</course>
<desc>Speed 6.0 km/h Distance 4.00 km</desc>
<time>2010-02-25T17:02:28.12</time>
<name>2734</name>
</trkpt>
<trkpt lat="48.927828" lon="8.666138">
<ele>375.5</ele>
<speed>6.3</speed>
<course>83.8</course>
<desc>Speed 6.3 km/h Distance 4.00 km</desc>
<time>2010-02-25T17:02:29.12</time>
<name>2735</name>
</trkpt>
<trkpt lat="48.927830" lon="8.666162">
<ele>375.5</ele>
<speed>6.4</speed>
<course>73.1</course>
<desc>Speed 6.4 km/h Distance 4.00 km</desc>
<time>2010-02-25T17:02:30.12</time>
<name>2736</name>
</trkpt>
<trkpt lat="48.927835" lon="8.666187">
<ele>375.5</ele>
<speed>6.3</speed>
<course>83.8</course>
<desc>Speed 6.3 km/h Distance 4.00 km</desc>
<time>2010-02-25T17:02:31.12</time>
<name>2737</name>
</trkpt>
<trkpt lat="48.927837" lon="8.666210">
<ele>376.0</ele>
<speed>6.2</speed>
<course>90.0</course>
<desc>Speed 6.2 km/h Distance 4.00 km</desc>
<time>2010-02-25T17:02:32.13</time>
<name>2738</name>
</trkpt>
<trkpt lat="48.927837" lon="8.666235">
<ele>376.0</ele>
<speed>6.3</speed>
<course>90.0</course>
<desc>Speed 6.3 km/h Distance 4.01 km</desc>
<time>2010-02-25T17:02:33.12</time>
<name>2739</name>
</trkpt>
<trkpt lat="48.927837" lon="8.666258">
<ele>376.0</ele>
<speed>6.2</speed>
<course>90.0</course>
<desc>Speed 6.2 km/h Distance 4.01 km</desc>
<time>2010-02-25T17:02:34.12</time>
<name>2740</name>
</trkpt>
<trkpt lat="48.927837" lon="8.666282">
<ele>376.0</ele>
<speed>6.0</speed>
<course>96.7</course>
<desc>Speed 6.0 km/h Distance 4.01 km</desc>
<time>2010-02-25T17:02:35.12</time>
<name>2741</name>
</trkpt>
<trkpt lat="48.927835" lon="8.666303">
<ele>376.0</ele>
<speed>6.0</speed>
<course>96.2</course>
<desc>Speed 6.0 km/h Distance 4.01 km</desc>
<time>2010-02-25T17:02:36.12</time>
<name>2742</name>
</trkpt>
<trkpt lat="48.927833" lon="8.666327">
<ele>376.0</ele>
<speed>6.0</speed>
<course>103.2</course>
<desc>Speed 6.0 km/h Distance 4.01 km</desc>
<time>2010-02-25T17:02:37.11</time>
<name>2743</name>
</trkpt>
<trkpt lat="48.927830" lon="8.666348">
<ele>376.0</ele>
<speed>5.9</speed>
<course>90.0</course>
<desc>Speed 5.9 km/h Distance 4.01 km</desc>
<time>2010-02-25T17:02:38.11</time>
<name>2744</name>
</trkpt>
<trkpt lat="48.927830" lon="8.666370">
<ele>376.0</ele>
<speed>5.8</speed>
<course>90.0</course>
<desc>Speed 5.8 km/h Distance 4.02 km</desc>
<time>2010-02-25T17:02:39.12</time>
<name>2745</name>
</trkpt>
<trkpt lat="48.927830" lon="8.666392">
<ele>376.5</ele>
<speed>5.7</speed>
<course>90.0</course>
<desc>Speed 5.7 km/h Distance 4.02 km</desc>
<time>2010-02-25T17:02:40.12</time>
<name>2746</name>
</trkpt>
<trkpt lat="48.927830" lon="8.666413">
<ele>376.5</ele>
<speed>5.9</speed>
<course>90.0</course>
<desc>Speed 5.9 km/h Distance 4.02 km</desc>
<time>2010-02-25T17:02:41.11</time>
<name>2747</name>
</trkpt>
<trkpt lat="48.927830" lon="8.666437">
<ele>377.0</ele>
<speed>5.9</speed>
<course>90.0</course>
<desc>Speed 5.9 km/h Distance 4.02 km</desc>
<time>2010-02-25T17:02:42.11</time>
<name>2748</name>
</trkpt>
<trkpt lat="48.927830" lon="8.666460">
<ele>377.0</ele>
<speed>5.9</speed>
<course>96.7</course>
<desc>Speed 5.9 km/h Distance 4.02 km</desc>
<time>2010-02-25T17:02:43.11</time>
<name>2749</name>
</trkpt>
<trkpt lat="48.927828" lon="8.666482">
<ele>377.0</ele>
<speed>5.9</speed>
<course>103.2</course>
<desc>Speed 5.9 km/h Distance 4.02 km</desc>
<time>2010-02-25T17:02:44.11</time>
<name>2750</name>
</trkpt>
<trkpt lat="48.927825" lon="8.666503">
<ele>377.0</ele>
<speed>5.8</speed>
<course>96.7</course>
<desc>Speed 5.8 km/h Distance 4.02 km</desc>
<time>2010-02-25T17:02:45.11</time>
<name>2751</name>
</trkpt>
<trkpt lat="48.927823" lon="8.666525">
<ele>377.5</ele>
<speed>5.7</speed>
<course>96.7</course>
<desc>Speed 5.7 km/h Distance 4.03 km</desc>
<time>2010-02-25T17:02:46.11</time>
<name>2752</name>
</trkpt>
<trkpt lat="48.927822" lon="8.666547">
<ele>377.5</ele>
<speed>5.8</speed>
<course>96.7</course>
<desc>Speed 5.8 km/h Distance 4.03 km</desc>
<time>2010-02-25T17:02:47.11</time>
<name>2753</name>
</trkpt>
<trkpt lat="48.927820" lon="8.666568">
<ele>378.0</ele>
<speed>5.9</speed>
<course>90.0</course>
<desc>Speed 5.9 km/h Distance 4.03 km</desc>
<time>2010-02-25T17:02:48.11</time>
<name>2754</name>
</trkpt>
<trkpt lat="48.927820" lon="8.666592">
<ele>378.0</ele>
<speed>6.0</speed>
<course>96.7</course>
<desc>Speed 6.0 km/h Distance 4.03 km</desc>
<time>2010-02-25T17:02:49.11</time>
<name>2755</name>
</trkpt>
<trkpt lat="48.927818" lon="8.666613">
<ele>378.0</ele>
<speed>5.9</speed>
<course>90.0</course>
<desc>Speed 5.9 km/h Distance 4.03 km</desc>
<time>2010-02-25T17:02:50.11</time>
<name>2756</name>
</trkpt>
<trkpt lat="48.927818" lon="8.666637">
<ele>378.0</ele>
<speed>6.1</speed>
<course>96.2</course>
<desc>Speed 6.1 km/h Distance 4.03 km</desc>
<time>2010-02-25T17:02:51.11</time>
<name>2757</name>
</trkpt>
<trkpt lat="48.927817" lon="8.666660">
<ele>378.0</ele>
<speed>6.0</speed>
<course>96.7</course>
<desc>Speed 6.0 km/h Distance 4.04 km</desc>
<time>2010-02-25T17:02:52.11</time>
<name>2758</name>
</trkpt>
<trkpt lat="48.927815" lon="8.666682">
<ele>378.0</ele>
<speed>5.8</speed>
<course>102.3</course>
<desc>Speed 5.8 km/h Distance 4.04 km</desc>
<time>2010-02-25T17:02:53.11</time>
<name>2759</name>
</trkpt>
<trkpt lat="48.927812" lon="8.666705">
<ele>378.0</ele>
<speed>5.8</speed>
<course>96.7</course>
<desc>Speed 5.8 km/h Distance 4.04 km</desc>
<time>2010-02-25T17:02:54.11</time>
<name>2760</name>
</trkpt>
<trkpt lat="48.927810" lon="8.666727">
<ele>378.0</ele>
<speed>5.9</speed>
<course>103.2</course>
<desc>Speed 5.9 km/h Distance 4.04 km</desc>
<time>2010-02-25T17:02:55.11</time>
<name>2761</name>
</trkpt>
<trkpt lat="48.927807" lon="8.666748">
<ele>378.0</ele>
<speed>6.0</speed>
<course>96.2</course>
<desc>Speed 6.0 km/h Distance 4.04 km</desc>
<time>2010-02-25T17:02:56.11</time>
<name>2762</name>
</trkpt>
<trkpt lat="48.927805" lon="8.666772">
<ele>378.0</ele>
<speed>5.9</speed>
<course>90.0</course>
<desc>Speed 5.9 km/h Distance 4.04 km</desc>
<time>2010-02-25T17:02:57.11</time>
<name>2763</name>
</trkpt>
<trkpt lat="48.927805" lon="8.666793">
<ele>378.0</ele>
<speed>5.9</speed>
<course>96.7</course>
<desc>Speed 5.9 km/h Distance 4.05 km</desc>
<time>2010-02-25T17:02:58.11</time>
<name>2764</name>
</trkpt>
<trkpt lat="48.927803" lon="8.666815">
<ele>378.0</ele>
<speed>5.9</speed>
<course>96.2</course>
<desc>Speed 5.9 km/h Distance 4.05 km</desc>
<time>2010-02-25T17:02:59.11</time>
<name>2765</name>
</trkpt>
<trkpt lat="48.927802" lon="8.666838">
<ele>378.0</ele>
<speed>5.9</speed>
<course>96.7</course>
<desc>Speed 5.9 km/h Distance 4.05 km</desc>
<time>2010-02-25T17:03:00.11</time>
<name>2766</name>
</trkpt>
<trkpt lat="48.927800" lon="8.666860">
<ele>378.0</ele>
<speed>5.9</speed>
<course>90.0</course>
<desc>Speed 5.9 km/h Distance 4.05 km</desc>
<time>2010-02-25T17:03:01.11</time>
<name>2767</name>
</trkpt>
<trkpt lat="48.927800" lon="8.666883">
<ele>378.5</ele>
<speed>6.0</speed>
<course>90.0</course>
<desc>Speed 6.0 km/h Distance 4.05 km</desc>
<time>2010-02-25T17:03:02.11</time>
<name>2768</name>
</trkpt>
<trkpt lat="48.927800" lon="8.666907">
<ele>378.5</ele>
<speed>5.9</speed>
<course>90.0</course>
<desc>Speed 5.9 km/h Distance 4.05 km</desc>
<time>2010-02-25T17:03:03.11</time>
<name>2769</name>
</trkpt>
<trkpt lat="48.927800" lon="8.666928">
<ele>378.5</ele>
<speed>6.0</speed>
<course>96.2</course>
<desc>Speed 6.0 km/h Distance 4.06 km</desc>
<time>2010-02-25T17:03:04.11</time>
<name>2770</name>
</trkpt>
<trkpt lat="48.927798" lon="8.666952">
<ele>378.5</ele>
<speed>5.9</speed>
<course>96.7</course>
<desc>Speed 5.9 km/h Distance 4.06 km</desc>
<time>2010-02-25T17:03:05.10</time>
<name>2771</name>
</trkpt>
<trkpt lat="48.927797" lon="8.666973">
<ele>379.0</ele>
<speed>6.0</speed>
<course>96.2</course>
<desc>Speed 6.0 km/h Distance 4.06 km</desc>
<time>2010-02-25T17:03:06.11</time>
<name>2772</name>
</trkpt>
<trkpt lat="48.927795" lon="8.666997">
<ele>378.5</ele>
<speed>6.0</speed>
<course>96.2</course>
<desc>Speed 6.0 km/h Distance 4.06 km</desc>
<time>2010-02-25T17:03:07.11</time>
<name>2773</name>
</trkpt>
<trkpt lat="48.927793" lon="8.667020">
<ele>378.5</ele>
<speed>6.0</speed>
<course>96.2</course>
<desc>Speed 6.0 km/h Distance 4.06 km</desc>
<time>2010-02-25T17:03:08.10</time>
<name>2774</name>
</trkpt>
<trkpt lat="48.927792" lon="8.667043">
<ele>379.0</ele>
<speed>6.2</speed>
<course>96.7</course>
<desc>Speed 6.2 km/h Distance 4.06 km</desc>
<time>2010-02-25T17:03:09.10</time>
<name>2775</name>
</trkpt>
<trkpt lat="48.927790" lon="8.667065">
<ele>379.0</ele>
<speed>5.9</speed>
<course>103.2</course>
<desc>Speed 5.9 km/h Distance 4.07 km</desc>
<time>2010-02-25T17:03:10.10</time>
<name>2776</name>
</trkpt>
<trkpt lat="48.927787" lon="8.667087">
<ele>379.5</ele>
<speed>5.9</speed>
<course>97.2</course>
<desc>Speed 5.9 km/h Distance 4.07 km</desc>
<time>2010-02-25T17:03:11.11</time>
<name>2777</name>
</trkpt>
<trkpt lat="48.927785" lon="8.667107">
<ele>379.0</ele>
<speed>5.8</speed>
<course>96.7</course>
<desc>Speed 5.8 km/h Distance 4.07 km</desc>
<time>2010-02-25T17:03:12.11</time>
<name>2778</name>
</trkpt>
<trkpt lat="48.927783" lon="8.667128">
<ele>379.0</ele>
<speed>5.8</speed>
<course>96.7</course>
<desc>Speed 5.8 km/h Distance 4.07 km</desc>
<time>2010-02-25T17:03:13.10</time>
<name>2779</name>
</trkpt>
<trkpt lat="48.927782" lon="8.667150">
<ele>379.0</ele>
<speed>5.7</speed>
<course>71.9</course>
<desc>Speed 5.7 km/h Distance 4.07 km</desc>
<time>2010-02-25T17:03:14.10</time>
<name>2780</name>
</trkpt>
<trkpt lat="48.927787" lon="8.667173">
<ele>380.0</ele>
<speed>5.7</speed>
<course>82.8</course>
<desc>Speed 5.7 km/h Distance 4.07 km</desc>
<time>2010-02-25T17:03:15.10</time>
<name>2781</name>
</trkpt>
<trkpt lat="48.927788" lon="8.667193">
<ele>380.5</ele>
<speed>5.6</speed>
<course>96.7</course>
<desc>Speed 5.6 km/h Distance 4.08 km</desc>
<time>2010-02-25T17:03:16.10</time>
<name>2782</name>
</trkpt>
<trkpt lat="48.927787" lon="8.667215">
<ele>380.5</ele>
<speed>5.7</speed>
<course>96.7</course>
<desc>Speed 5.7 km/h Distance 4.08 km</desc>
<time>2010-02-25T17:03:17.10</time>
<name>2783</name>
</trkpt>
<trkpt lat="48.927785" lon="8.667237">
<ele>381.0</ele>
<speed>5.8</speed>
<course>96.2</course>
<desc>Speed 5.8 km/h Distance 4.08 km</desc>
<time>2010-02-25T17:03:18.10</time>
<name>2784</name>
</trkpt>
<trkpt lat="48.927783" lon="8.667260">
<ele>380.5</ele>
<speed>5.9</speed>
<course>96.7</course>
<desc>Speed 5.9 km/h Distance 4.08 km</desc>
<time>2010-02-25T17:03:19.10</time>
<name>2785</name>
</trkpt>
<trkpt lat="48.927782" lon="8.667282">
<ele>381.0</ele>
<speed>5.7</speed>
<course>96.7</course>
<desc>Speed 5.7 km/h Distance 4.08 km</desc>
<time>2010-02-25T17:03:20.10</time>
<name>2786</name>
</trkpt>
<trkpt lat="48.927780" lon="8.667303">
<ele>381.0</ele>
<speed>5.8</speed>
<course>96.7</course>
<desc>Speed 5.8 km/h Distance 4.08 km</desc>
<time>2010-02-25T17:03:21.10</time>
<name>2787</name>
</trkpt>
<trkpt lat="48.927778" lon="8.667325">
<ele>381.5</ele>
<speed>5.9</speed>
<course>96.2</course>
<desc>Speed 5.9 km/h Distance 4.09 km</desc>
<time>2010-02-25T17:03:22.10</time>
<name>2788</name>
</trkpt>
<trkpt lat="48.927777" lon="8.667348">
<ele>381.5</ele>
<speed>5.9</speed>
<course>96.2</course>
<desc>Speed 5.9 km/h Distance 4.09 km</desc>
<time>2010-02-25T17:03:23.10</time>
<name>2789</name>
</trkpt>
<trkpt lat="48.927775" lon="8.667372">
<ele>381.5</ele>
<speed>5.9</speed>
<course>96.7</course>
<desc>Speed 5.9 km/h Distance 4.09 km</desc>
<time>2010-02-25T17:03:24.10</time>
<name>2790</name>
</trkpt>
<trkpt lat="48.927773" lon="8.667393">
<ele>381.5</ele>
<speed>6.0</speed>
<course>96.2</course>
<desc>Speed 6.0 km/h Distance 4.09 km</desc>
<time>2010-02-25T17:03:25.10</time>
<name>2791</name>
</trkpt>
<trkpt lat="48.927772" lon="8.667417">
<ele>382.0</ele>
<speed>5.9</speed>
<course>96.2</course>
<desc>Speed 5.9 km/h Distance 4.09 km</desc>
<time>2010-02-25T17:03:26.10</time>
<name>2792</name>
</trkpt>
<trkpt lat="48.927770" lon="8.667440">
<ele>382.0</ele>
<speed>5.9</speed>
<course>90.0</course>
<desc>Speed 5.9 km/h Distance 4.09 km</desc>
<time>2010-02-25T17:03:27.10</time>
<name>2793</name>
</trkpt>
<trkpt lat="48.927770" lon="8.667462">
<ele>382.0</ele>
<speed>5.9</speed>
<course>90.0</course>
<desc>Speed 5.9 km/h Distance 4.10 km</desc>
<time>2010-02-25T17:03:28.10</time>
<name>2794</name>
</trkpt>
<trkpt lat="48.927770" lon="8.667485">
<ele>382.0</ele>
<speed>6.0</speed>
<course>96.2</course>
<desc>Speed 6.0 km/h Distance 4.10 km</desc>
<time>2010-02-25T17:03:29.10</time>
<name>2795</name>
</trkpt>
<trkpt lat="48.927768" lon="8.667508">
<ele>382.5</ele>
<speed>5.9</speed>
<course>96.2</course>
<desc>Speed 5.9 km/h Distance 4.10 km</desc>
<time>2010-02-25T17:03:30.10</time>
<name>2796</name>
</trkpt>
<trkpt lat="48.927767" lon="8.667532">
<ele>382.5</ele>
<speed>5.9</speed>
<course>96.7</course>
<desc>Speed 5.9 km/h Distance 4.10 km</desc>
<time>2010-02-25T17:03:31.10</time>
<name>2797</name>
</trkpt>
<trkpt lat="48.927765" lon="8.667553">
<ele>382.5</ele>
<speed>6.0</speed>
<course>90.0</course>
<desc>Speed 6.0 km/h Distance 4.10 km</desc>
<time>2010-02-25T17:03:32.09</time>
<name>2798</name>
</trkpt>
<trkpt lat="48.927765" lon="8.667575">
<ele>382.5</ele>
<speed>5.9</speed>
<course>96.7</course>
<desc>Speed 5.9 km/h Distance 4.10 km</desc>
<time>2010-02-25T17:03:33.09</time>
<name>2799</name>
</trkpt>
<trkpt lat="48.927763" lon="8.667597">
<ele>383.0</ele>
<speed>5.9</speed>
<course>96.2</course>
<desc>Speed 5.9 km/h Distance 4.11 km</desc>
<time>2010-02-25T17:03:34.10</time>
<name>2800</name>
</trkpt>
<trkpt lat="48.927762" lon="8.667620">
<ele>382.5</ele>
<speed>6.0</speed>
<course>109.4</course>
<desc>Speed 6.0 km/h Distance 4.11 km</desc>
<time>2010-02-25T17:03:35.09</time>
<name>2801</name>
</trkpt>
<trkpt lat="48.927757" lon="8.667642">
<ele>383.0</ele>
<speed>5.9</speed>
<course>96.7</course>
<desc>Speed 5.9 km/h Distance 4.11 km</desc>
<time>2010-02-25T17:03:36.09</time>
<name>2802</name>
</trkpt>
<trkpt lat="48.927755" lon="8.667663">
<ele>383.0</ele>
<speed>6.0</speed>
<course>103.2</course>
<desc>Speed 6.0 km/h Distance 4.11 km</desc>
<time>2010-02-25T17:03:37.09</time>
<name>2803</name>
</trkpt>
<trkpt lat="48.927752" lon="8.667685">
<ele>383.0</ele>
<speed>6.0</speed>
<course>90.0</course>
<desc>Speed 6.0 km/h Distance 4.11 km</desc>
<time>2010-02-25T17:03:38.09</time>
<name>2804</name>
</trkpt>
<trkpt lat="48.927752" lon="8.667708">
<ele>383.5</ele>
<speed>6.1</speed>
<course>90.0</course>
<desc>Speed 6.1 km/h Distance 4.11 km</desc>
<time>2010-02-25T17:03:39.09</time>
<name>2805</name>
</trkpt>
<trkpt lat="48.927752" lon="8.667732">
<ele>384.0</ele>
<speed>6.0</speed>
<course>103.2</course>
<desc>Speed 6.0 km/h Distance 4.12 km</desc>
<time>2010-02-25T17:03:40.09</time>
<name>2806</name>
</trkpt>
<trkpt lat="48.927748" lon="8.667753">
<ele>384.0</ele>
<speed>5.9</speed>
<course>96.2</course>
<desc>Speed 5.9 km/h Distance 4.12 km</desc>
<time>2010-02-25T17:03:41.09</time>
<name>2807</name>
</trkpt>
<trkpt lat="48.927747" lon="8.667777">
<ele>383.5</ele>
<speed>6.1</speed>
<course>109.4</course>
<desc>Speed 6.1 km/h Distance 4.12 km</desc>
<time>2010-02-25T17:03:42.09</time>
<name>2808</name>
</trkpt>
<trkpt lat="48.927742" lon="8.667798">
<ele>383.5</ele>
<speed>6.0</speed>
<course>109.3</course>
<desc>Speed 6.0 km/h Distance 4.12 km</desc>
<time>2010-02-25T17:03:43.09</time>
<name>2809</name>
</trkpt>
<trkpt lat="48.927737" lon="8.667820">
<ele>383.5</ele>
<speed>5.9</speed>
<course>109.4</course>
<desc>Speed 5.9 km/h Distance 4.12 km</desc>
<time>2010-02-25T17:03:44.09</time>
<name>2810</name>
</trkpt>
<trkpt lat="48.927732" lon="8.667842">
<ele>383.5</ele>
<speed>6.2</speed>
<course>109.3</course>
<desc>Speed 6.2 km/h Distance 4.12 km</desc>
<time>2010-02-25T17:03:45.09</time>
<name>2811</name>
</trkpt>
<trkpt lat="48.927727" lon="8.667863">
<ele>383.5</ele>
<speed>5.9</speed>
<course>109.4</course>
<desc>Speed 5.9 km/h Distance 4.13 km</desc>
<time>2010-02-25T17:03:46.09</time>
<name>2812</name>
</trkpt>
<trkpt lat="48.927722" lon="8.667885">
<ele>383.5</ele>
<speed>6.1</speed>
<course>103.2</course>
<desc>Speed 6.1 km/h Distance 4.13 km</desc>
<time>2010-02-25T17:03:47.10</time>
<name>2813</name>
</trkpt>
<trkpt lat="48.927718" lon="8.667907">
<ele>383.5</ele>
<speed>6.1</speed>
<course>109.4</course>
<desc>Speed 6.1 km/h Distance 4.13 km</desc>
<time>2010-02-25T17:03:48.10</time>
<name>2814</name>
</trkpt>
<trkpt lat="48.927713" lon="8.667928">
<ele>383.5</ele>
<speed>6.0</speed>
<course>103.2</course>
<desc>Speed 6.0 km/h Distance 4.13 km</desc>
<time>2010-02-25T17:03:49.09</time>
<name>2815</name>
</trkpt>
<trkpt lat="48.927710" lon="8.667950">
<ele>383.5</ele>
<speed>5.9</speed>
<course>109.4</course>
<desc>Speed 5.9 km/h Distance 4.13 km</desc>
<time>2010-02-25T17:03:50.09</time>
<name>2816</name>
</trkpt>
<trkpt lat="48.927705" lon="8.667972">
<ele>383.5</ele>
<speed>6.1</speed>
<course>110.9</course>
<desc>Speed 6.1 km/h Distance 4.13 km</desc>
<time>2010-02-25T17:03:51.09</time>
<name>2817</name>
</trkpt>
<trkpt lat="48.927700" lon="8.667992">
<ele>383.5</ele>
<speed>6.0</speed>
<course>109.4</course>
<desc>Speed 6.0 km/h Distance 4.14 km</desc>
<time>2010-02-25T17:03:52.09</time>
<name>2818</name>
</trkpt>
<trkpt lat="48.927695" lon="8.668013">
<ele>383.5</ele>
<speed>5.9</speed>
<course>109.4</course>
<desc>Speed 5.9 km/h Distance 4.14 km</desc>
<time>2010-02-25T17:03:53.10</time>
<name>2819</name>
</trkpt>
<trkpt lat="48.927690" lon="8.668035">
<ele>383.5</ele>
<speed>5.9</speed>
<course>104.2</course>
<desc>Speed 5.9 km/h Distance 4.14 km</desc>
<time>2010-02-25T17:03:54.09</time>
<name>2820</name>
</trkpt>
<trkpt lat="48.927687" lon="8.668055">
<ele>383.5</ele>
<speed>5.7</speed>
<course>90.0</course>
<desc>Speed 5.7 km/h Distance 4.14 km</desc>
<time>2010-02-25T17:03:55.09</time>
<name>2821</name>
</trkpt>
<trkpt lat="48.927687" lon="8.668077">
<ele>384.0</ele>
<speed>5.9</speed>
<course>96.7</course>
<desc>Speed 5.9 km/h Distance 4.14 km</desc>
<time>2010-02-25T17:03:56.09</time>
<name>2822</name>
</trkpt>
<trkpt lat="48.927685" lon="8.668098">
<ele>384.0</ele>
<speed>5.9</speed>
<course>109.4</course>
<desc>Speed 5.9 km/h Distance 4.14 km</desc>
<time>2010-02-25T17:03:57.09</time>
<name>2823</name>
</trkpt>
<trkpt lat="48.927680" lon="8.668120">
<ele>384.0</ele>
<speed>5.8</speed>
<course>102.3</course>
<desc>Speed 5.8 km/h Distance 4.15 km</desc>
<time>2010-02-25T17:03:58.08</time>
<name>2824</name>
</trkpt>
<trkpt lat="48.927677" lon="8.668143">
<ele>383.5</ele>
<speed>6.1</speed>
<course>103.2</course>
<desc>Speed 6.1 km/h Distance 4.15 km</desc>
<time>2010-02-25T17:03:59.08</time>
<name>2825</name>
</trkpt>
<trkpt lat="48.927673" lon="8.668165">
<ele>383.5</ele>
<speed>6.0</speed>
<course>109.4</course>
<desc>Speed 6.0 km/h Distance 4.15 km</desc>
<time>2010-02-25T17:04:00.08</time>
<name>2826</name>
</trkpt>
<trkpt lat="48.927668" lon="8.668187">
<ele>384.0</ele>
<speed>6.0</speed>
<course>102.3</course>
<desc>Speed 6.0 km/h Distance 4.15 km</desc>
<time>2010-02-25T17:04:01.09</time>
<name>2827</name>
</trkpt>
<trkpt lat="48.927665" lon="8.668210">
<ele>384.0</ele>
<speed>6.0</speed>
<course>96.7</course>
<desc>Speed 6.0 km/h Distance 4.15 km</desc>
<time>2010-02-25T17:04:02.08</time>
<name>2828</name>
</trkpt>
<trkpt lat="48.927663" lon="8.668232">
<ele>384.0</ele>
<speed>6.1</speed>
<course>95.8</course>
<desc>Speed 6.1 km/h Distance 4.15 km</desc>
<time>2010-02-25T17:04:03.08</time>
<name>2829</name>
</trkpt>
<trkpt lat="48.927662" lon="8.668257">
<ele>384.0</ele>
<speed>6.1</speed>
<course>96.7</course>
<desc>Speed 6.1 km/h Distance 4.16 km</desc>
<time>2010-02-25T17:04:04.08</time>
<name>2830</name>
</trkpt>
<trkpt lat="48.927660" lon="8.668278">
<ele>384.5</ele>
<speed>5.9</speed>
<course>90.0</course>
<desc>Speed 5.9 km/h Distance 4.16 km</desc>
<time>2010-02-25T17:04:05.08</time>
<name>2831</name>
</trkpt>
<trkpt lat="48.927660" lon="8.668302">
<ele>384.5</ele>
<speed>5.8</speed>
<course>96.7</course>
<desc>Speed 5.8 km/h Distance 4.16 km</desc>
<time>2010-02-25T17:04:06.08</time>
<name>2832</name>
</trkpt>
<trkpt lat="48.927658" lon="8.668323">
<ele>384.5</ele>
<speed>6.0</speed>
<course>96.7</course>
<desc>Speed 6.0 km/h Distance 4.16 km</desc>
<time>2010-02-25T17:04:07.08</time>
<name>2833</name>
</trkpt>
<trkpt lat="48.927657" lon="8.668345">
<ele>384.5</ele>
<speed>5.9</speed>
<course>96.2</course>
<desc>Speed 5.9 km/h Distance 4.16 km</desc>
<time>2010-02-25T17:04:08.08</time>
<name>2834</name>
</trkpt>
<trkpt lat="48.927655" lon="8.668368">
<ele>385.0</ele>
<speed>6.0</speed>
<course>103.2</course>
<desc>Speed 6.0 km/h Distance 4.16 km</desc>
<time>2010-02-25T17:04:09.08</time>
<name>2835</name>
</trkpt>
<trkpt lat="48.927652" lon="8.668390">
<ele>384.5</ele>
<speed>5.9</speed>
<course>103.2</course>
<desc>Speed 5.9 km/h Distance 4.17 km</desc>
<time>2010-02-25T17:04:10.08</time>
<name>2836</name>
</trkpt>
<trkpt lat="48.927648" lon="8.668412">
<ele>385.0</ele>
<speed>5.9</speed>
<course>110.8</course>
<desc>Speed 5.9 km/h Distance 4.17 km</desc>
<time>2010-02-25T17:04:11.09</time>
<name>2837</name>
</trkpt>
<trkpt lat="48.927643" lon="8.668432">
<ele>384.5</ele>
<speed>5.8</speed>
<course>109.4</course>
<desc>Speed 5.8 km/h Distance 4.17 km</desc>
<time>2010-02-25T17:04:12.08</time>
<name>2838</name>
</trkpt>
<trkpt lat="48.927638" lon="8.668453">
<ele>385.0</ele>
<speed>5.8</speed>
<course>109.3</course>
<desc>Speed 5.8 km/h Distance 4.17 km</desc>
<time>2010-02-25T17:04:13.08</time>
<name>2839</name>
</trkpt>
<trkpt lat="48.927633" lon="8.668475">
<ele>385.0</ele>
<speed>6.0</speed>
<course>116.9</course>
<desc>Speed 6.0 km/h Distance 4.17 km</desc>
<time>2010-02-25T17:04:14.08</time>
<name>2840</name>
</trkpt>
<trkpt lat="48.927627" lon="8.668495">
<ele>384.5</ele>
<speed>6.0</speed>
<course>109.4</course>
<desc>Speed 6.0 km/h Distance 4.17 km</desc>
<time>2010-02-25T17:04:15.08</time>
<name>2841</name>
</trkpt>
<trkpt lat="48.927622" lon="8.668517">
<ele>384.5</ele>
<speed>6.1</speed>
<course>108.1</course>
<desc>Speed 6.1 km/h Distance 4.18 km</desc>
<time>2010-02-25T17:04:16.08</time>
<name>2842</name>
</trkpt>
<trkpt lat="48.927617" lon="8.668540">
<ele>385.0</ele>
<speed>6.1</speed>
<course>96.7</course>
<desc>Speed 6.1 km/h Distance 4.18 km</desc>
<time>2010-02-25T17:04:17.08</time>
<name>2843</name>
</trkpt>
<trkpt lat="48.927615" lon="8.668562">
<ele>385.0</ele>
<speed>5.8</speed>
<course>103.2</course>
<desc>Speed 5.8 km/h Distance 4.18 km</desc>
<time>2010-02-25T17:04:18.08</time>
<name>2844</name>
</trkpt>
<trkpt lat="48.927612" lon="8.668583">
<ele>385.0</ele>
<speed>5.7</speed>
<course>102.3</course>
<desc>Speed 5.7 km/h Distance 4.18 km</desc>
<time>2010-02-25T17:04:19.08</time>
<name>2845</name>
</trkpt>
<trkpt lat="48.927608" lon="8.668607">
<ele>385.0</ele>
<speed>6.2</speed>
<course>103.2</course>
<desc>Speed 6.2 km/h Distance 4.18 km</desc>
<time>2010-02-25T17:04:20.08</time>
<name>2846</name>
</trkpt>
<trkpt lat="48.927605" lon="8.668628">
<ele>385.5</ele>
<speed>5.9</speed>
<course>109.4</course>
<desc>Speed 5.9 km/h Distance 4.18 km</desc>
<time>2010-02-25T17:04:21.08</time>
<name>2847</name>
</trkpt>
<trkpt lat="48.927600" lon="8.668650">
<ele>385.0</ele>
<speed>6.2</speed>
<course>109.4</course>
<desc>Speed 6.2 km/h Distance 4.19 km</desc>
<time>2010-02-25T17:04:22.07</time>
<name>2848</name>
</trkpt>
<trkpt lat="48.927595" lon="8.668672">
<ele>385.5</ele>
<speed>5.9</speed>
<course>103.2</course>
<desc>Speed 5.9 km/h Distance 4.19 km</desc>
<time>2010-02-25T17:04:23.08</time>
<name>2849</name>
</trkpt>
<trkpt lat="48.927592" lon="8.668693">
<ele>385.5</ele>
<speed>5.9</speed>
<course>103.2</course>
<desc>Speed 5.9 km/h Distance 4.19 km</desc>
<time>2010-02-25T17:04:24.07</time>
<name>2850</name>
</trkpt>
<trkpt lat="48.927588" lon="8.668715">
<ele>385.5</ele>
<speed>6.0</speed>
<course>96.7</course>
<desc>Speed 6.0 km/h Distance 4.19 km</desc>
<time>2010-02-25T17:04:25.07</time>
<name>2851</name>
</trkpt>
<trkpt lat="48.927587" lon="8.668737">
<ele>386.0</ele>
<speed>6.0</speed>
<course>102.3</course>
<desc>Speed 6.0 km/h Distance 4.19 km</desc>
<time>2010-02-25T17:04:26.07</time>
<name>2852</name>
</trkpt>
<trkpt lat="48.927583" lon="8.668760">
<ele>386.0</ele>
<speed>6.2</speed>
<course>109.3</course>
<desc>Speed 6.2 km/h Distance 4.19 km</desc>
<time>2010-02-25T17:04:27.08</time>
<name>2853</name>
</trkpt>
<trkpt lat="48.927578" lon="8.668782">
<ele>386.0</ele>
<speed>6.3</speed>
<course>115.1</course>
<desc>Speed 6.3 km/h Distance 4.20 km</desc>
<time>2010-02-25T17:04:28.07</time>
<name>2854</name>
</trkpt>
<trkpt lat="48.927572" lon="8.668803">
<ele>386.0</ele>
<speed>6.3</speed>
<course>109.4</course>
<desc>Speed 6.3 km/h Distance 4.20 km</desc>
<time>2010-02-25T17:04:29.07</time>
<name>2855</name>
</trkpt>
<trkpt lat="48.927567" lon="8.668825">
<ele>386.0</ele>
<speed>6.1</speed>
<course>103.2</course>
<desc>Speed 6.1 km/h Distance 4.20 km</desc>
<time>2010-02-25T17:04:30.07</time>
<name>2856</name>
</trkpt>
<trkpt lat="48.927563" lon="8.668847">
<ele>386.0</ele>
<speed>5.9</speed>
<course>108.1</course>
<desc>Speed 5.9 km/h Distance 4.20 km</desc>
<time>2010-02-25T17:04:31.07</time>
<name>2857</name>
</trkpt>
<trkpt lat="48.927558" lon="8.668870">
<ele>386.0</ele>
<speed>6.0</speed>
<course>109.4</course>
<desc>Speed 6.0 km/h Distance 4.20 km</desc>
<time>2010-02-25T17:04:32.07</time>
<name>2858</name>
</trkpt>
<trkpt lat="48.927553" lon="8.668892">
<ele>386.0</ele>
<speed>6.2</speed>
<course>109.4</course>
<desc>Speed 6.2 km/h Distance 4.20 km</desc>
<time>2010-02-25T17:04:33.07</time>
<name>2859</name>
</trkpt>
<trkpt lat="48.927548" lon="8.668913">
<ele>386.0</ele>
<speed>6.1</speed>
<course>110.8</course>
<desc>Speed 6.1 km/h Distance 4.21 km</desc>
<time>2010-02-25T17:04:34.07</time>
<name>2860</name>
</trkpt>
<trkpt lat="48.927543" lon="8.668933">
<ele>386.0</ele>
<speed>5.9</speed>
<course>115.1</course>
<desc>Speed 5.9 km/h Distance 4.21 km</desc>
<time>2010-02-25T17:04:35.07</time>
<name>2861</name>
</trkpt>
<trkpt lat="48.927537" lon="8.668955">
<ele>386.0</ele>
<speed>6.1</speed>
<course>109.4</course>
<desc>Speed 6.1 km/h Distance 4.21 km</desc>
<time>2010-02-25T17:04:36.07</time>
<name>2862</name>
</trkpt>
<trkpt lat="48.927532" lon="8.668977">
<ele>386.0</ele>
<speed>6.1</speed>
<course>119.0</course>
<desc>Speed 6.1 km/h Distance 4.21 km</desc>
<time>2010-02-25T17:04:37.07</time>
<name>2863</name>
</trkpt>
<trkpt lat="48.927525" lon="8.668995">
<ele>386.0</ele>
<speed>5.9</speed>
<course>116.9</course>
<desc>Speed 5.9 km/h Distance 4.21 km</desc>
<time>2010-02-25T17:04:38.07</time>
<name>2864</name>
</trkpt>
<trkpt lat="48.927518" lon="8.669015">
<ele>386.0</ele>
<speed>6.0</speed>
<course>122.4</course>
<desc>Speed 6.0 km/h Distance 4.21 km</desc>
<time>2010-02-25T17:04:39.07</time>
<name>2865</name>
</trkpt>
<trkpt lat="48.927510" lon="8.669035">
<ele>386.0</ele>
<speed>6.0</speed>
<course>115.1</course>
<desc>Speed 6.0 km/h Distance 4.22 km</desc>
<time>2010-02-25T17:04:40.07</time>
<name>2866</name>
</trkpt>
<trkpt lat="48.927503" lon="8.669057">
<ele>386.0</ele>
<speed>6.1</speed>
<course>116.9</course>
<desc>Speed 6.1 km/h Distance 4.22 km</desc>
<time>2010-02-25T17:04:41.07</time>
<name>2867</name>
</trkpt>
<trkpt lat="48.927497" lon="8.669077">
<ele>386.0</ele>
<speed>6.1</speed>
<course>116.9</course>
<desc>Speed 6.1 km/h Distance 4.22 km</desc>
<time>2010-02-25T17:04:42.08</time>
<name>2868</name>
</trkpt>
<trkpt lat="48.927490" lon="8.669097">
<ele>386.0</ele>
<speed>5.9</speed>
<course>110.8</course>
<desc>Speed 5.9 km/h Distance 4.22 km</desc>
<time>2010-02-25T17:04:43.07</time>
<name>2869</name>
</trkpt>
<trkpt lat="48.927485" lon="8.669117">
<ele>386.0</ele>
<speed>5.9</speed>
<course>115.1</course>
<desc>Speed 5.9 km/h Distance 4.22 km</desc>
<time>2010-02-25T17:04:44.07</time>
<name>2870</name>
</trkpt>
<trkpt lat="48.927478" lon="8.669138">
<ele>386.0</ele>
<speed>6.0</speed>
<course>110.8</course>
<desc>Speed 6.0 km/h Distance 4.22 km</desc>
<time>2010-02-25T17:04:45.07</time>
<name>2871</name>
</trkpt>
<trkpt lat="48.927473" lon="8.669158">
<ele>386.0</ele>
<speed>6.1</speed>
<course>124.7</course>
<desc>Speed 6.1 km/h Distance 4.23 km</desc>
<time>2010-02-25T17:04:46.06</time>
<name>2872</name>
</trkpt>
<trkpt lat="48.927465" lon="8.669177">
<ele>386.0</ele>
<speed>5.9</speed>
<course>110.9</course>
<desc>Speed 5.9 km/h Distance 4.23 km</desc>
<time>2010-02-25T17:04:47.06</time>
<name>2873</name>
</trkpt>
<trkpt lat="48.927460" lon="8.669197">
<ele>386.0</ele>
<speed>5.8</speed>
<course>116.9</course>
<desc>Speed 5.8 km/h Distance 4.23 km</desc>
<time>2010-02-25T17:04:48.07</time>
<name>2874</name>
</trkpt>
<trkpt lat="48.927453" lon="8.669217">
<ele>386.0</ele>
<speed>5.9</speed>
<course>116.9</course>
<desc>Speed 5.9 km/h Distance 4.23 km</desc>
<time>2010-02-25T17:04:49.06</time>
<name>2875</name>
</trkpt>
<trkpt lat="48.927447" lon="8.669237">
<ele>386.5</ele>
<speed>5.9</speed>
<course>116.9</course>
<desc>Speed 5.9 km/h Distance 4.23 km</desc>
<time>2010-02-25T17:04:50.06</time>
<name>2876</name>
</trkpt>
<trkpt lat="48.927440" lon="8.669257">
<ele>386.5</ele>
<speed>6.0</speed>
<course>119.0</course>
<desc>Speed 6.0 km/h Distance 4.23 km</desc>
<time>2010-02-25T17:04:51.06</time>
<name>2877</name>
</trkpt>
<trkpt lat="48.927433" lon="8.669275">
<ele>386.5</ele>
<speed>5.9</speed>
<course>116.9</course>
<desc>Speed 5.9 km/h Distance 4.23 km</desc>
<time>2010-02-25T17:04:52.06</time>
<name>2878</name>
</trkpt>
<trkpt lat="48.927427" lon="8.669295">
<ele>386.5</ele>
<speed>5.8</speed>
<course>119.0</course>
<desc>Speed 5.8 km/h Distance 4.24 km</desc>
<time>2010-02-25T17:04:53.06</time>
<name>2879</name>
</trkpt>
<trkpt lat="48.927420" lon="8.669313">
<ele>386.5</ele>
<speed>6.0</speed>
<course>115.1</course>
<desc>Speed 6.0 km/h Distance 4.24 km</desc>
<time>2010-02-25T17:04:54.06</time>
<name>2880</name>
</trkpt>
<trkpt lat="48.927413" lon="8.669335">
<ele>386.5</ele>
<speed>6.2</speed>
<course>116.9</course>
<desc>Speed 6.2 km/h Distance 4.24 km</desc>
<time>2010-02-25T17:04:55.06</time>
<name>2881</name>
</trkpt>
<trkpt lat="48.927407" lon="8.669355">
<ele>386.5</ele>
<speed>6.0</speed>
<course>109.4</course>
<desc>Speed 6.0 km/h Distance 4.24 km</desc>
<time>2010-02-25T17:04:56.07</time>
<name>2882</name>
</trkpt>
<trkpt lat="48.927402" lon="8.669377">
<ele>386.5</ele>
<speed>6.0</speed>
<course>116.9</course>
<desc>Speed 6.0 km/h Distance 4.24 km</desc>
<time>2010-02-25T17:04:57.06</time>
<name>2883</name>
</trkpt>
<trkpt lat="48.927395" lon="8.669397">
<ele>386.5</ele>
<speed>6.0</speed>
<course>115.1</course>
<desc>Speed 6.0 km/h Distance 4.24 km</desc>
<time>2010-02-25T17:04:58.06</time>
<name>2884</name>
</trkpt>
<trkpt lat="48.927388" lon="8.669418">
<ele>386.5</ele>
<speed>6.1</speed>
<course>116.9</course>
<desc>Speed 6.1 km/h Distance 4.25 km</desc>
<time>2010-02-25T17:04:59.06</time>
<name>2885</name>
</trkpt>
<trkpt lat="48.927382" lon="8.669438">
<ele>386.5</ele>
<speed>6.2</speed>
<course>115.1</course>
<desc>Speed 6.2 km/h Distance 4.25 km</desc>
<time>2010-02-25T17:05:00.06</time>
<name>2886</name>
</trkpt>
<trkpt lat="48.927375" lon="8.669460">
<ele>387.0</ele>
<speed>6.0</speed>
<course>122.4</course>
<desc>Speed 6.0 km/h Distance 4.25 km</desc>
<time>2010-02-25T17:05:01.06</time>
<name>2887</name>
</trkpt>
<trkpt lat="48.927367" lon="8.669480">
<ele>387.0</ele>
<speed>6.2</speed>
<course>115.1</course>
<desc>Speed 6.2 km/h Distance 4.25 km</desc>
<time>2010-02-25T17:05:02.06</time>
<name>2888</name>
</trkpt>
<trkpt lat="48.927360" lon="8.669502">
<ele>387.0</ele>
<speed>6.2</speed>
<course>115.1</course>
<desc>Speed 6.2 km/h Distance 4.25 km</desc>
<time>2010-02-25T17:05:03.06</time>
<name>2889</name>
</trkpt>
<trkpt lat="48.927353" lon="8.669523">
<ele>387.0</ele>
<speed>6.1</speed>
<course>115.1</course>
<desc>Speed 6.1 km/h Distance 4.26 km</desc>
<time>2010-02-25T17:05:04.06</time>
<name>2890</name>
</trkpt>
<trkpt lat="48.927347" lon="8.669545">
<ele>387.0</ele>
<speed>6.2</speed>
<course>116.9</course>
<desc>Speed 6.2 km/h Distance 4.26 km</desc>
<time>2010-02-25T17:05:05.06</time>
<name>2891</name>
</trkpt>
<trkpt lat="48.927340" lon="8.669565">
<ele>387.0</ele>
<speed>6.4</speed>
<course>116.9</course>
<desc>Speed 6.4 km/h Distance 4.26 km</desc>
<time>2010-02-25T17:05:06.06</time>
<name>2892</name>
</trkpt>
<trkpt lat="48.927333" lon="8.669585">
<ele>386.5</ele>
<speed>6.2</speed>
<course>116.9</course>
<desc>Speed 6.2 km/h Distance 4.26 km</desc>
<time>2010-02-25T17:05:07.06</time>
<name>2893</name>
</trkpt>
<trkpt lat="48.927327" lon="8.669605">
<ele>386.5</ele>
<speed>6.0</speed>
<course>116.9</course>
<desc>Speed 6.0 km/h Distance 4.26 km</desc>
<time>2010-02-25T17:05:08.06</time>
<name>2894</name>
</trkpt>
<trkpt lat="48.927320" lon="8.669625">
<ele>386.5</ele>
<speed>6.0</speed>
<course>116.9</course>
<desc>Speed 6.0 km/h Distance 4.26 km</desc>
<time>2010-02-25T17:05:09.06</time>
<name>2895</name>
</trkpt>
<trkpt lat="48.927313" lon="8.669645">
<ele>387.0</ele>
<speed>6.0</speed>
<course>124.7</course>
<desc>Speed 6.0 km/h Distance 4.27 km</desc>
<time>2010-02-25T17:05:10.06</time>
<name>2896</name>
</trkpt>
<trkpt lat="48.927305" lon="8.669663">
<ele>386.5</ele>
<speed>6.0</speed>
<course>124.7</course>
<desc>Speed 6.0 km/h Distance 4.27 km</desc>
<time>2010-02-25T17:05:11.07</time>
<name>2897</name>
</trkpt>
<trkpt lat="48.927297" lon="8.669682">
<ele>386.5</ele>
<speed>5.9</speed>
<course>133.5</course>
<desc>Speed 5.9 km/h Distance 4.27 km</desc>
<time>2010-02-25T17:05:12.06</time>
<name>2898</name>
</trkpt>
<trkpt lat="48.927288" lon="8.669695">
<ele>387.0</ele>
<speed>4.8</speed>
<course>90.0</course>
<desc>Speed 4.8 km/h Distance 4.27 km</desc>
<time>2010-02-25T17:05:13.05</time>
<name>2899</name>
</trkpt>
<trkpt lat="48.927288" lon="8.669698">
<ele>387.0</ele>
<speed>0.8</speed>
<course>90.0</course>
<desc>Speed 0.8 km/h Distance 4.27 km</desc>
<time>2010-02-25T17:05:14.05</time>
<name>2900</name>
</trkpt>
<trkpt lat="48.927288" lon="8.669698">
<ele>387.0</ele>
<speed>0.3</speed>
<course>90.0</course>
<desc>Speed 0.3 km/h Distance 4.27 km</desc>
<time>2010-02-25T17:05:15.05</time>
<name>2901</name>
</trkpt>
<trkpt lat="48.927288" lon="8.669698">
<ele>387.0</ele>
<speed>0.3</speed>
<course>242.6</course>
<desc>Speed 0.3 km/h Distance 4.27 km</desc>
<time>2010-02-25T17:05:16.05</time>
<name>2902</name>
</trkpt>
<trkpt lat="48.927287" lon="8.669693">
<ele>387.0</ele>
<speed>1.3</speed>
<course>243.0</course>
<desc>Speed 1.3 km/h Distance 4.27 km</desc>
<time>2010-02-25T17:05:17.05</time>
<name>2903</name>
</trkpt>
<trkpt lat="48.927283" lon="8.669683">
<ele>387.0</ele>
<speed>2.9</speed>
<course>290.9</course>
<desc>Speed 2.9 km/h Distance 4.27 km</desc>
<time>2010-02-25T17:05:18.05</time>
<name>2904</name>
</trkpt>
<trkpt lat="48.927287" lon="8.669670">
<ele>387.0</ele>
<speed>3.5</speed>
<course>279.6</course>
<desc>Speed 3.5 km/h Distance 4.27 km</desc>
<time>2010-02-25T17:05:19.05</time>
<name>2905</name>
</trkpt>
<trkpt lat="48.927288" lon="8.669655">
<ele>387.0</ele>
<speed>4.1</speed>
<course>290.9</course>
<desc>Speed 4.1 km/h Distance 4.27 km</desc>
<time>2010-02-25T17:05:20.05</time>
<name>2906</name>
</trkpt>
<trkpt lat="48.927292" lon="8.669642">
<ele>387.0</ele>
<speed>3.9</speed>
<course>279.6</course>
<desc>Speed 3.9 km/h Distance 4.27 km</desc>
<time>2010-02-25T17:05:21.05</time>
<name>2907</name>
</trkpt>
<trkpt lat="48.927293" lon="8.669627">
<ele>387.0</ele>
<speed>3.9</speed>
<course>279.6</course>
<desc>Speed 3.9 km/h Distance 4.28 km</desc>
<time>2010-02-25T17:05:22.05</time>
<name>2908</name>
</trkpt>
<trkpt lat="48.927295" lon="8.669612">
<ele>387.0</ele>
<speed>4.0</speed>
<course>62.6</course>
<desc>Speed 4.0 km/h Distance 4.28 km</desc>
<time>2010-02-25T17:05:23.05</time>
<name>2909</name>
</trkpt>
<trkpt lat="48.927297" lon="8.669617">
<ele>387.0</ele>
<speed>1.7</speed>
<course>12.6</course>
<desc>Speed 1.7 km/h Distance 4.28 km</desc>
<time>2010-02-25T17:05:24.05</time>
<name>2910</name>
</trkpt>
<trkpt lat="48.927298" lon="8.669617">
<ele>387.0</ele>
<speed>0.4</speed>
<course>156.2</course>
<desc>Speed 0.4 km/h Distance 4.28 km</desc>
<time>2010-02-25T17:05:25.05</time>
<name>2911</name>
</trkpt>
<trkpt lat="48.927293" lon="8.669620">
<ele>387.0</ele>
<speed>1.7</speed>
<course>119.7</course>
<desc>Speed 1.7 km/h Distance 4.28 km</desc>
<time>2010-02-25T17:05:26.05</time>
<name>2912</name>
</trkpt>
<trkpt lat="48.927288" lon="8.669633">
<ele>387.0</ele>
<speed>4.1</speed>
<course>121.3</course>
<desc>Speed 4.1 km/h Distance 4.28 km</desc>
<time>2010-02-25T17:05:27.05</time>
<name>2913</name>
</trkpt>
<trkpt lat="48.927282" lon="8.669650">
<ele>387.0</ele>
<speed>5.2</speed>
<course>116.9</course>
<desc>Speed 5.2 km/h Distance 4.28 km</desc>
<time>2010-02-25T17:05:28.05</time>
<name>2914</name>
</trkpt>
<trkpt lat="48.927277" lon="8.669665">
<ele>387.0</ele>
<speed>4.7</speed>
<course>116.9</course>
<desc>Speed 4.7 km/h Distance 4.28 km</desc>
<time>2010-02-25T17:05:29.05</time>
<name>2915</name>
</trkpt>
<trkpt lat="48.927270" lon="8.669685">
<ele>387.0</ele>
<speed>5.9</speed>
<course>109.4</course>
<desc>Speed 5.9 km/h Distance 4.28 km</desc>
<time>2010-02-25T17:05:30.05</time>
<name>2916</name>
</trkpt>
<trkpt lat="48.927265" lon="8.669707">
<ele>387.0</ele>
<speed>6.0</speed>
<course>129.6</course>
<desc>Speed 6.0 km/h Distance 4.28 km</desc>
<time>2010-02-25T17:05:31.05</time>
<name>2917</name>
</trkpt>
<trkpt lat="48.927255" lon="8.669725">
<ele>387.0</ele>
<speed>6.1</speed>
<course>134.1</course>
<desc>Speed 6.1 km/h Distance 4.29 km</desc>
<time>2010-02-25T17:05:32.05</time>
<name>2918</name>
</trkpt>
<trkpt lat="48.927243" lon="8.669743">
<ele>387.0</ele>
<speed>6.2</speed>
<course>119.0</course>
<desc>Speed 6.2 km/h Distance 4.29 km</desc>
<time>2010-02-25T17:05:33.05</time>
<name>2919</name>
</trkpt>
<trkpt lat="48.927237" lon="8.669762">
<ele>386.5</ele>
<speed>5.8</speed>
<course>110.9</course>
<desc>Speed 5.8 km/h Distance 4.29 km</desc>
<time>2010-02-25T17:05:34.05</time>
<name>2920</name>
</trkpt>
<trkpt lat="48.927233" lon="8.669775">
<ele>386.5</ele>
<speed>3.5</speed>
<course>117.0</course>
<desc>Speed 3.5 km/h Distance 4.29 km</desc>
<time>2010-02-25T17:05:35.05</time>
<name>2921</name>
</trkpt>
<trkpt lat="48.927230" lon="8.669785">
<ele>386.5</ele>
<speed>2.9</speed>
<course>117.0</course>
<desc>Speed 2.9 km/h Distance 4.29 km</desc>
<time>2010-02-25T17:05:36.06</time>
<name>2922</name>
</trkpt>
<trkpt lat="48.927230" lon="8.669785">
<ele>386.5</ele>
<speed>0.4</speed>
<course>167.4</course>
<desc>Speed 0.4 km/h Distance 4.29 km</desc>
<time>2010-02-25T17:05:37.05</time>
<name>2923</name>
</trkpt>
<trkpt lat="48.927228" lon="8.669785">
<ele>387.0</ele>
<speed>0.8</speed>
<course>12.6</course>
<desc>Speed 0.8 km/h Distance 4.29 km</desc>
<time>2010-02-25T17:05:38.05</time>
<name>2924</name>
</trkpt>
<trkpt lat="48.927230" lon="8.669785">
<ele>387.0</ele>
<speed>0.6</speed>
<course>167.4</course>
<desc>Speed 0.6 km/h Distance 4.29 km</desc>
<time>2010-02-25T17:05:39.05</time>
<name>2925</name>
</trkpt>
<trkpt lat="48.927228" lon="8.669785">
<ele>387.0</ele>
<speed>1.0</speed>
<course>167.4</course>
<desc>Speed 1.0 km/h Distance 4.29 km</desc>
<time>2010-02-25T17:05:40.05</time>
<name>2926</name>
</trkpt>
<trkpt lat="48.927225" lon="8.669787">
<ele>386.5</ele>
<speed>1.6</speed>
<course>167.4</course>
<desc>Speed 1.6 km/h Distance 4.29 km</desc>
<time>2010-02-25T17:05:41.05</time>
<name>2927</name>
</trkpt>
<trkpt lat="48.927225" lon="8.669787">
<ele>387.0</ele>
<speed>0.2</speed>
<course>167.4</course>
<desc>Speed 0.2 km/h Distance 4.29 km</desc>
<time>2010-02-25T17:05:42.04</time>
<name>2928</name>
</trkpt>
<trkpt lat="48.927225" lon="8.669787">
<ele>387.0</ele>
<speed>0.5</speed>
<course>167.4</course>
<desc>Speed 0.5 km/h Distance 4.29 km</desc>
<time>2010-02-25T17:05:43.04</time>
<name>2929</name>
</trkpt>
<trkpt lat="48.927225" lon="8.669787">
<ele>387.0</ele>
<speed>0.3</speed>
<course>347.4</course>
<desc>Speed 0.3 km/h Distance 4.29 km</desc>
<time>2010-02-25T17:05:44.04</time>
<name>2930</name>
</trkpt>
<trkpt lat="48.927228" lon="8.669785">
<ele>387.0</ele>
<speed>1.1</speed>
<course>90.0</course>
<desc>Speed 1.1 km/h Distance 4.29 km</desc>
<time>2010-02-25T17:05:45.04</time>
<name>2931</name>
</trkpt>
<trkpt lat="48.927228" lon="8.669787">
<ele>387.0</ele>
<speed>0.4</speed>
<course>90.0</course>
<desc>Speed 0.4 km/h Distance 4.29 km</desc>
<time>2010-02-25T17:05:46.04</time>
<name>2932</name>
</trkpt>
<trkpt lat="48.927228" lon="8.669787">
<ele>387.0</ele>
<speed>0.1</speed>
<course>12.6</course>
<desc>Speed 0.1 km/h Distance 4.29 km</desc>
<time>2010-02-25T17:05:47.04</time>
<name>2933</name>
</trkpt>
<trkpt lat="48.927230" lon="8.669787">
<ele>387.0</ele>
<speed>0.3</speed>
<course>90.0</course>
<desc>Speed 0.3 km/h Distance 4.29 km</desc>
<time>2010-02-25T17:05:48.04</time>
<name>2934</name>
</trkpt>
<trkpt lat="48.927230" lon="8.669788">
<ele>387.0</ele>
<speed>0.4</speed>
<course>90.0</course>
<desc>Speed 0.4 km/h Distance 4.29 km</desc>
<time>2010-02-25T17:05:49.04</time>
<name>2935</name>
</trkpt>
<trkpt lat="48.927230" lon="8.669788">
<ele>387.0</ele>
<speed>0.5</speed>
<course>90.0</course>
<desc>Speed 0.5 km/h Distance 4.29 km</desc>
<time>2010-02-25T17:05:50.05</time>
<name>2936</name>
</trkpt>
<trkpt lat="48.927230" lon="8.669788">
<ele>387.0</ele>
<speed>0.2</speed>
<course>90.0</course>
<desc>Speed 0.2 km/h Distance 4.29 km</desc>
<time>2010-02-25T17:05:51.04</time>
<name>2937</name>
</trkpt>
<trkpt lat="48.927230" lon="8.669788">
<ele>387.0</ele>
<speed>0.2</speed>
<course>90.0</course>
<desc>Speed 0.2 km/h Distance 4.29 km</desc>
<time>2010-02-25T17:05:52.04</time>
<name>2938</name>
</trkpt>
<trkpt lat="48.927230" lon="8.669788">
<ele>387.0</ele>
<speed>0.1</speed>
<course>90.0</course>
<desc>Speed 0.1 km/h Distance 4.29 km</desc>
<time>2010-02-25T17:05:53.04</time>
<name>2939</name>
</trkpt>
<trkpt lat="48.927230" lon="8.669790">
<ele>387.0</ele>
<speed>0.4</speed>
<course>90.0</course>
<desc>Speed 0.4 km/h Distance 4.29 km</desc>
<time>2010-02-25T17:05:54.04</time>
<name>2940</name>
</trkpt>
<trkpt lat="48.927230" lon="8.669790">
<ele>387.0</ele>
<speed>0.3</speed>
<course>90.0</course>
<desc>Speed 0.3 km/h Distance 4.29 km</desc>
<time>2010-02-25T17:05:55.04</time>
<name>2941</name>
</trkpt>
<trkpt lat="48.927230" lon="8.669790">
<ele>387.0</ele>
<speed>0.0</speed>
<course>90.0</course>
<desc>Speed 0.0 km/h Distance 4.29 km</desc>
<time>2010-02-25T17:05:56.05</time>
<name>2942</name>
</trkpt>
<trkpt lat="48.927230" lon="8.669790">
<ele>387.0</ele>
<speed>0.4</speed>
<course>90.0</course>
<desc>Speed 0.4 km/h Distance 4.29 km</desc>
<time>2010-02-25T17:05:57.05</time>
<name>2943</name>
</trkpt>
<trkpt lat="48.927230" lon="8.669790">
<ele>387.0</ele>
<speed>0.4</speed>
<course>90.0</course>
<desc>Speed 0.4 km/h Distance 4.29 km</desc>
<time>2010-02-25T17:05:58.04</time>
<name>2944</name>
</trkpt>
<trkpt lat="48.927230" lon="8.669790">
<ele>387.0</ele>
<speed>0.4</speed>
<course>90.0</course>
<desc>Speed 0.4 km/h Distance 4.29 km</desc>
<time>2010-02-25T17:05:59.04</time>
<name>2945</name>
</trkpt>
<trkpt lat="48.927230" lon="8.669790">
<ele>387.0</ele>
<speed>0.2</speed>
<course>90.0</course>
<desc>Speed 0.2 km/h Distance 4.29 km</desc>
<time>2010-02-25T17:06:00.04</time>
<name>2946</name>
</trkpt>
<trkpt lat="48.927230" lon="8.669790">
<ele>387.0</ele>
<speed>0.3</speed>
<course>90.0</course>
<desc>Speed 0.3 km/h Distance 4.29 km</desc>
<time>2010-02-25T17:06:01.04</time>
<name>2947</name>
</trkpt>
<trkpt lat="48.927230" lon="8.669790">
<ele>387.0</ele>
<speed>0.3</speed>
<course>90.0</course>
<desc>Speed 0.3 km/h Distance 4.29 km</desc>
<time>2010-02-25T17:06:02.04</time>
<name>2948</name>
</trkpt>
<trkpt lat="48.927230" lon="8.669790">
<ele>387.0</ele>
<speed>0.1</speed>
<course>12.6</course>
<desc>Speed 0.1 km/h Distance 4.29 km</desc>
<time>2010-02-25T17:06:03.04</time>
<name>2949</name>
</trkpt>
<trkpt lat="48.927232" lon="8.669790">
<ele>387.0</ele>
<speed>0.2</speed>
<course>53.9</course>
<desc>Speed 0.2 km/h Distance 4.29 km</desc>
<time>2010-02-25T17:06:04.04</time>
<name>2950</name>
</trkpt>
<trkpt lat="48.927233" lon="8.669793">
<ele>387.0</ele>
<speed>0.8</speed>
<course>43.5</course>
<desc>Speed 0.8 km/h Distance 4.29 km</desc>
<time>2010-02-25T17:06:05.04</time>
<name>2951</name>
</trkpt>
<trkpt lat="48.927237" lon="8.669798">
<ele>387.0</ele>
<speed>1.3</speed>
<course>43.5</course>
<desc>Speed 1.3 km/h Distance 4.29 km</desc>
<time>2010-02-25T17:06:06.03</time>
<name>2952</name>
</trkpt>
<trkpt lat="48.927237" lon="8.669798">
<ele>387.0</ele>
<speed>0.1</speed>
<course>43.5</course>
<desc>Speed 0.1 km/h Distance 4.29 km</desc>
<time>2010-02-25T17:06:07.04</time>
<name>2953</name>
</trkpt>
<trkpt lat="48.927237" lon="8.669798">
<ele>387.0</ele>
<speed>0.2</speed>
<course>43.5</course>
<desc>Speed 0.2 km/h Distance 4.29 km</desc>
<time>2010-02-25T17:06:08.04</time>
<name>2954</name>
</trkpt>
<trkpt lat="48.927237" lon="8.669798">
<ele>387.0</ele>
<speed>0.2</speed>
<course>43.5</course>
<desc>Speed 0.2 km/h Distance 4.29 km</desc>
<time>2010-02-25T17:06:09.04</time>
<name>2955</name>
</trkpt>
<trkpt lat="48.927237" lon="8.669798">
<ele>387.0</ele>
<speed>0.3</speed>
<course>43.5</course>
<desc>Speed 0.3 km/h Distance 4.29 km</desc>
<time>2010-02-25T17:06:10.03</time>
<name>2956</name>
</trkpt>
<trkpt lat="48.927237" lon="8.669798">
<ele>387.0</ele>
<speed>0.4</speed>
<course>43.5</course>
<desc>Speed 0.4 km/h Distance 4.29 km</desc>
<time>2010-02-25T17:06:11.05</time>
<name>2957</name>
</trkpt>
<trkpt lat="48.927237" lon="8.669798">
<ele>387.0</ele>
<speed>0.3</speed>
<course>43.5</course>
<desc>Speed 0.3 km/h Distance 4.29 km</desc>
<time>2010-02-25T17:06:12.04</time>
<name>2958</name>
</trkpt>
<trkpt lat="48.927237" lon="8.669798">
<ele>387.0</ele>
<speed>0.2</speed>
<course>90.0</course>
<desc>Speed 0.2 km/h Distance 4.29 km</desc>
<time>2010-02-25T17:06:13.04</time>
<name>2959</name>
</trkpt>
<trkpt lat="48.927237" lon="8.669800">
<ele>387.0</ele>
<speed>0.3</speed>
<course>90.0</course>
<desc>Speed 0.3 km/h Distance 4.29 km</desc>
<time>2010-02-25T17:06:14.04</time>
<name>2960</name>
</trkpt>
<trkpt lat="48.927237" lon="8.669800">
<ele>387.0</ele>
<speed>0.3</speed>
<course>180.0</course>
<desc>Speed 0.3 km/h Distance 4.29 km</desc>
<time>2010-02-25T17:06:15.04</time>
<name>2961</name>
</trkpt>
<trkpt lat="48.927235" lon="8.669800">
<ele>387.0</ele>
<speed>0.1</speed>
<course>180.0</course>
<desc>Speed 0.1 km/h Distance 4.30 km</desc>
<time>2010-02-25T17:06:16.04</time>
<name>2962</name>
</trkpt>
<trkpt lat="48.927235" lon="8.669800">
<ele>387.0</ele>
<speed>0.2</speed>
<course>180.0</course>
<desc>Speed 0.2 km/h Distance 4.30 km</desc>
<time>2010-02-25T17:06:17.04</time>
<name>2963</name>
</trkpt>
<trkpt lat="48.927235" lon="8.669800">
<ele>387.0</ele>
<speed>0.3</speed>
<course>90.0</course>
<desc>Speed 0.3 km/h Distance 4.30 km</desc>
<time>2010-02-25T17:06:18.04</time>
<name>2964</name>
</trkpt>
<trkpt lat="48.927235" lon="8.669803">
<ele>387.0</ele>
<speed>0.9</speed>
<course>123.3</course>
<desc>Speed 0.9 km/h Distance 4.30 km</desc>
<time>2010-02-25T17:06:19.04</time>
<name>2965</name>
</trkpt>
<trkpt lat="48.927230" lon="8.669815">
<ele>387.0</ele>
<speed>3.6</speed>
<course>108.7</course>
<desc>Speed 3.6 km/h Distance 4.30 km</desc>
<time>2010-02-25T17:06:20.03</time>
<name>2966</name>
</trkpt>
<trkpt lat="48.927227" lon="8.669830">
<ele>387.0</ele>
<speed>4.4</speed>
<course>97.9</course>
<desc>Speed 4.4 km/h Distance 4.30 km</desc>
<time>2010-02-25T17:06:21.03</time>
<name>2967</name>
</trkpt>
<trkpt lat="48.927225" lon="8.669848">
<ele>387.0</ele>
<speed>4.8</speed>
<course>104.2</course>
<desc>Speed 4.8 km/h Distance 4.30 km</desc>
<time>2010-02-25T17:06:22.03</time>
<name>2968</name>
</trkpt>
<trkpt lat="48.927222" lon="8.669868">
<ele>387.0</ele>
<speed>5.5</speed>
<course>105.5</course>
<desc>Speed 5.5 km/h Distance 4.30 km</desc>
<time>2010-02-25T17:06:23.03</time>
<name>2969</name>
</trkpt>
<trkpt lat="48.927218" lon="8.669887">
<ele>387.0</ele>
<speed>5.0</speed>
<course>112.6</course>
<desc>Speed 5.0 km/h Distance 4.30 km</desc>
<time>2010-02-25T17:06:24.03</time>
<name>2970</name>
</trkpt>
<trkpt lat="48.927213" lon="8.669905">
<ele>387.0</ele>
<speed>5.5</speed>
<course>122.4</course>
<desc>Speed 5.5 km/h Distance 4.30 km</desc>
<time>2010-02-25T17:06:25.03</time>
<name>2971</name>
</trkpt>
<trkpt lat="48.927205" lon="8.669925">
<ele>387.0</ele>
<speed>6.2</speed>
<course>129.7</course>
<desc>Speed 6.2 km/h Distance 4.30 km</desc>
<time>2010-02-25T17:06:26.03</time>
<name>2972</name>
</trkpt>
<trkpt lat="48.927195" lon="8.669943">
<ele>387.0</ele>
<speed>6.5</speed>
<course>122.4</course>
<desc>Speed 6.5 km/h Distance 4.31 km</desc>
<time>2010-02-25T17:06:27.03</time>
<name>2973</name>
</trkpt>
<trkpt lat="48.927187" lon="8.669963">
<ele>387.0</ele>
<speed>6.2</speed>
<course>120.3</course>
<desc>Speed 6.2 km/h Distance 4.31 km</desc>
<time>2010-02-25T17:06:28.03</time>
<name>2974</name>
</trkpt>
<trkpt lat="48.927178" lon="8.669985">
<ele>387.0</ele>
<speed>6.6</speed>
<course>113.5</course>
<desc>Speed 6.6 km/h Distance 4.31 km</desc>
<time>2010-02-25T17:06:29.03</time>
<name>2975</name>
</trkpt>
<trkpt lat="48.927172" lon="8.670008">
<ele>386.5</ele>
<speed>6.6</speed>
<course>109.4</course>
<desc>Speed 6.6 km/h Distance 4.31 km</desc>
<time>2010-02-25T17:06:30.03</time>
<name>2976</name>
</trkpt>
<trkpt lat="48.927167" lon="8.670030">
<ele>387.0</ele>
<speed>6.2</speed>
<course>122.4</course>
<desc>Speed 6.2 km/h Distance 4.31 km</desc>
<time>2010-02-25T17:06:31.03</time>
<name>2977</name>
</trkpt>
<trkpt lat="48.927158" lon="8.670050">
<ele>387.0</ele>
<speed>6.4</speed>
<course>119.0</course>
<desc>Speed 6.4 km/h Distance 4.32 km</desc>
<time>2010-02-25T17:06:32.02</time>
<name>2978</name>
</trkpt>
<trkpt lat="48.927152" lon="8.670068">
<ele>387.0</ele>
<speed>5.9</speed>
<course>116.9</course>
<desc>Speed 5.9 km/h Distance 4.32 km</desc>
<time>2010-02-25T17:06:33.02</time>
<name>2979</name>
</trkpt>
<trkpt lat="48.927145" lon="8.670088">
<ele>387.0</ele>
<speed>6.0</speed>
<course>90.0</course>
<desc>Speed 6.0 km/h Distance 4.32 km</desc>
<time>2010-02-25T17:06:34.02</time>
<name>2980</name>
</trkpt>
<trkpt lat="48.927145" lon="8.670108">
<ele>387.0</ele>
<speed>5.6</speed>
<course>83.8</course>
<desc>Speed 5.6 km/h Distance 4.32 km</desc>
<time>2010-02-25T17:06:35.02</time>
<name>2981</name>
</trkpt>
<trkpt lat="48.927147" lon="8.670132">
<ele>387.0</ele>
<speed>6.0</speed>
<course>64.9</course>
<desc>Speed 6.0 km/h Distance 4.32 km</desc>
<time>2010-02-25T17:06:36.02</time>
<name>2982</name>
</trkpt>
<trkpt lat="48.927153" lon="8.670153">
<ele>386.5</ele>
<speed>6.0</speed>
<course>47.6</course>
<desc>Speed 6.0 km/h Distance 4.32 km</desc>
<time>2010-02-25T17:06:37.02</time>
<name>2983</name>
</trkpt>
<trkpt lat="48.927163" lon="8.670170">
<ele>386.5</ele>
<speed>5.7</speed>
<course>30.3</course>
<desc>Speed 5.7 km/h Distance 4.33 km</desc>
<time>2010-02-25T17:06:38.02</time>
<name>2984</name>
</trkpt>
<trkpt lat="48.927178" lon="8.670183">
<ele>386.5</ele>
<speed>5.9</speed>
<course>30.3</course>
<desc>Speed 5.9 km/h Distance 4.33 km</desc>
<time>2010-02-25T17:06:39.02</time>
<name>2985</name>
</trkpt>
<trkpt lat="48.927193" lon="8.670197">
<ele>386.0</ele>
<speed>6.3</speed>
<course>33.3</course>
<desc>Speed 6.3 km/h Distance 4.33 km</desc>
<time>2010-02-25T17:06:40.02</time>
<name>2986</name>
</trkpt>
<trkpt lat="48.927207" lon="8.670210">
<ele>385.5</ele>
<speed>6.1</speed>
<course>43.3</course>
<desc>Speed 6.1 km/h Distance 4.33 km</desc>
<time>2010-02-25T17:06:41.02</time>
<name>2987</name>
</trkpt>
<trkpt lat="48.927218" lon="8.670227">
<ele>385.0</ele>
<speed>6.1</speed>
<course>45.9</course>
<desc>Speed 6.1 km/h Distance 4.33 km</desc>
<time>2010-02-25T17:06:42.02</time>
<name>2988</name>
</trkpt>
<trkpt lat="48.927230" lon="8.670245">
<ele>385.0</ele>
<speed>6.4</speed>
<course>45.9</course>
<desc>Speed 6.4 km/h Distance 4.33 km</desc>
<time>2010-02-25T17:06:43.02</time>
<name>2989</name>
</trkpt>
<trkpt lat="48.927242" lon="8.670263">
<ele>385.0</ele>
<speed>6.4</speed>
<course>43.2</course>
<desc>Speed 6.4 km/h Distance 4.34 km</desc>
<time>2010-02-25T17:06:44.02</time>
<name>2990</name>
</trkpt>
<trkpt lat="48.927253" lon="8.670280">
<ele>385.0</ele>
<speed>6.2</speed>
<course>36.5</course>
<desc>Speed 6.2 km/h Distance 4.34 km</desc>
<time>2010-02-25T17:06:45.02</time>
<name>2991</name>
</trkpt>
<trkpt lat="48.927267" lon="8.670295">
<ele>385.0</ele>
<speed>6.0</speed>
<course>40.2</course>
<desc>Speed 6.0 km/h Distance 4.34 km</desc>
<time>2010-02-25T17:06:46.02</time>
<name>2992</name>
</trkpt>
<trkpt lat="48.927278" lon="8.670310">
<ele>385.0</ele>
<speed>6.2</speed>
<course>33.3</course>
<desc>Speed 6.2 km/h Distance 4.34 km</desc>
<time>2010-02-25T17:06:47.02</time>
<name>2993</name>
</trkpt>
<trkpt lat="48.927292" lon="8.670323">
<ele>384.5</ele>
<speed>6.0</speed>
<course>40.1</course>
<desc>Speed 6.0 km/h Distance 4.34 km</desc>
<time>2010-02-25T17:06:48.02</time>
<name>2994</name>
</trkpt>
<trkpt lat="48.927303" lon="8.670338">
<ele>384.5</ele>
<speed>6.0</speed>
<course>33.2</course>
<desc>Speed 6.0 km/h Distance 4.35 km</desc>
<time>2010-02-25T17:06:49.02</time>
<name>2995</name>
</trkpt>
<trkpt lat="48.927317" lon="8.670352">
<ele>384.5</ele>
<speed>6.0</speed>
<course>29.4</course>
<desc>Speed 6.0 km/h Distance 4.35 km</desc>
<time>2010-02-25T17:06:50.02</time>
<name>2996</name>
</trkpt>
<trkpt lat="48.927328" lon="8.670362">
<ele>385.0</ele>
<speed>5.1</speed>
<course>29.8</course>
<desc>Speed 5.1 km/h Distance 4.35 km</desc>
<time>2010-02-25T17:06:51.02</time>
<name>2997</name>
</trkpt>
<trkpt lat="48.927342" lon="8.670373">
<ele>385.0</ele>
<speed>6.4</speed>
<course>36.4</course>
<desc>Speed 6.4 km/h Distance 4.35 km</desc>
<time>2010-02-25T17:06:52.03</time>
<name>2998</name>
</trkpt>
<trkpt lat="48.927355" lon="8.670388">
<ele>384.5</ele>
<speed>6.3</speed>
<course>47.6</course>
<desc>Speed 6.3 km/h Distance 4.35 km</desc>
<time>2010-02-25T17:06:53.02</time>
<name>2999</name>
</trkpt>
<trkpt lat="48.927365" lon="8.670405">
<ele>384.5</ele>
<speed>6.1</speed>
<course>37.2</course>
<desc>Speed 6.1 km/h Distance 4.35 km</desc>
<time>2010-02-25T17:06:54.02</time>
<name>3000</name>
</trkpt>
<trkpt lat="48.927377" lon="8.670418">
<ele>384.5</ele>
<speed>6.1</speed>
<course>36.6</course>
<desc>Speed 6.1 km/h Distance 4.36 km</desc>
<time>2010-02-25T17:06:55.02</time>
<name>3001</name>
</trkpt>
<trkpt lat="48.927390" lon="8.670433">
<ele>384.5</ele>
<speed>6.4</speed>
<course>33.4</course>
<desc>Speed 6.4 km/h Distance 4.36 km</desc>
<time>2010-02-25T17:06:56.02</time>
<name>3002</name>
</trkpt>
<trkpt lat="48.927403" lon="8.670447">
<ele>384.5</ele>
<speed>6.2</speed>
<course>33.3</course>
<desc>Speed 6.2 km/h Distance 4.36 km</desc>
<time>2010-02-25T17:06:57.02</time>
<name>3003</name>
</trkpt>
<trkpt lat="48.927417" lon="8.670460">
<ele>384.0</ele>
<speed>6.4</speed>
<course>40.2</course>
<desc>Speed 6.4 km/h Distance 4.36 km</desc>
<time>2010-02-25T17:06:58.01</time>
<name>3004</name>
</trkpt>
<trkpt lat="48.927428" lon="8.670475">
<ele>384.0</ele>
<speed>6.3</speed>
<course>43.3</course>
<desc>Speed 6.3 km/h Distance 4.36 km</desc>
<time>2010-02-25T17:06:59.01</time>
<name>3005</name>
</trkpt>
<trkpt lat="48.927440" lon="8.670492">
<ele>384.0</ele>
<speed>6.3</speed>
<course>43.3</course>
<desc>Speed 6.3 km/h Distance 4.36 km</desc>
<time>2010-02-25T17:07:00.01</time>
<name>3006</name>
</trkpt>
<trkpt lat="48.927452" lon="8.670508">
<ele>383.5</ele>
<speed>6.1</speed>
<course>40.2</course>
<desc>Speed 6.1 km/h Distance 4.37 km</desc>
<time>2010-02-25T17:07:01.01</time>
<name>3007</name>
</trkpt>
<trkpt lat="48.927463" lon="8.670523">
<ele>383.5</ele>
<speed>5.9</speed>
<course>33.3</course>
<desc>Speed 5.9 km/h Distance 4.37 km</desc>
<time>2010-02-25T17:07:02.01</time>
<name>3008</name>
</trkpt>
<trkpt lat="48.927475" lon="8.670535">
<ele>383.0</ele>
<speed>6.0</speed>
<course>36.5</course>
<desc>Speed 6.0 km/h Distance 4.37 km</desc>
<time>2010-02-25T17:07:03.01</time>
<name>3009</name>
</trkpt>
<trkpt lat="48.927488" lon="8.670550">
<ele>383.0</ele>
<speed>6.2</speed>
<course>36.9</course>
<desc>Speed 6.2 km/h Distance 4.37 km</desc>
<time>2010-02-25T17:07:04.01</time>
<name>3010</name>
</trkpt>
<trkpt lat="48.927500" lon="8.670563">
<ele>383.0</ele>
<speed>5.8</speed>
<course>29.8</course>
<desc>Speed 5.8 km/h Distance 4.37 km</desc>
<time>2010-02-25T17:07:05.02</time>
<name>3011</name>
</trkpt>
<trkpt lat="48.927513" lon="8.670575">
<ele>383.0</ele>
<speed>5.9</speed>
<course>36.9</course>
<desc>Speed 5.9 km/h Distance 4.37 km</desc>
<time>2010-02-25T17:07:06.01</time>
<name>3012</name>
</trkpt>
<trkpt lat="48.927525" lon="8.670588">
<ele>382.5</ele>
<speed>6.2</speed>
<course>36.6</course>
<desc>Speed 6.2 km/h Distance 4.38 km</desc>
<time>2010-02-25T17:07:07.01</time>
<name>3013</name>
</trkpt>
<trkpt lat="48.927538" lon="8.670603">
<ele>382.5</ele>
<speed>5.9</speed>
<course>40.2</course>
<desc>Speed 5.9 km/h Distance 4.38 km</desc>
<time>2010-02-25T17:07:08.01</time>
<name>3014</name>
</trkpt>
<trkpt lat="48.927550" lon="8.670618">
<ele>382.5</ele>
<speed>6.0</speed>
<course>36.9</course>
<desc>Speed 6.0 km/h Distance 4.38 km</desc>
<time>2010-02-25T17:07:09.01</time>
<name>3015</name>
</trkpt>
<trkpt lat="48.927562" lon="8.670632">
<ele>382.0</ele>
<speed>6.0</speed>
<course>33.1</course>
<desc>Speed 6.0 km/h Distance 4.38 km</desc>
<time>2010-02-25T17:07:10.01</time>
<name>3016</name>
</trkpt>
<trkpt lat="48.927573" lon="8.670643">
<ele>382.0</ele>
<speed>5.7</speed>
<course>16.3</course>
<desc>Speed 5.7 km/h Distance 4.38 km</desc>
<time>2010-02-25T17:07:11.02</time>
<name>3017</name>
</trkpt>
<trkpt lat="48.927588" lon="8.670650">
<ele>382.0</ele>
<speed>6.0</speed>
<course>23.5</course>
<desc>Speed 6.0 km/h Distance 4.38 km</desc>
<time>2010-02-25T17:07:12.01</time>
<name>3018</name>
</trkpt>
<trkpt lat="48.927603" lon="8.670660">
<ele>381.5</ele>
<speed>6.3</speed>
<course>33.4</course>
<desc>Speed 6.3 km/h Distance 4.39 km</desc>
<time>2010-02-25T17:07:13.01</time>
<name>3019</name>
</trkpt>
<trkpt lat="48.927617" lon="8.670673">
<ele>381.5</ele>
<speed>6.2</speed>
<course>30.0</course>
<desc>Speed 6.2 km/h Distance 4.39 km</desc>
<time>2010-02-25T17:07:14.01</time>
<name>3020</name>
</trkpt>
<trkpt lat="48.927630" lon="8.670685">
<ele>381.5</ele>
<speed>6.3</speed>
<course>37.0</course>
<desc>Speed 6.3 km/h Distance 4.39 km</desc>
<time>2010-02-25T17:07:15.01</time>
<name>3021</name>
</trkpt>
<trkpt lat="48.927642" lon="8.670698">
<ele>381.0</ele>
<speed>5.9</speed>
<course>33.4</course>
<desc>Speed 5.9 km/h Distance 4.39 km</desc>
<time>2010-02-25T17:07:16.01</time>
<name>3022</name>
</trkpt>
<trkpt lat="48.927655" lon="8.670712">
<ele>381.0</ele>
<speed>6.1</speed>
<course>40.2</course>
<desc>Speed 6.1 km/h Distance 4.39 km</desc>
<time>2010-02-25T17:07:17.01</time>
<name>3023</name>
</trkpt>
<trkpt lat="48.927667" lon="8.670727">
<ele>381.0</ele>
<speed>6.0</speed>
<course>43.3</course>
<desc>Speed 6.0 km/h Distance 4.39 km</desc>
<time>2010-02-25T17:07:18.01</time>
<name>3024</name>
</trkpt>
<trkpt lat="48.927678" lon="8.670743">
<ele>380.5</ele>
<speed>6.2</speed>
<course>33.4</course>
<desc>Speed 6.2 km/h Distance 4.40 km</desc>
<time>2010-02-25T17:07:19.00</time>
<name>3025</name>
</trkpt>
<trkpt lat="48.927692" lon="8.670757">
<ele>380.5</ele>
<speed>6.3</speed>
<course>43.3</course>
<desc>Speed 6.3 km/h Distance 4.40 km</desc>
<time>2010-02-25T17:07:20.00</time>
<name>3026</name>
</trkpt>
<trkpt lat="48.927703" lon="8.670773">
<ele>380.5</ele>
<speed>5.9</speed>
<course>36.6</course>
<desc>Speed 5.9 km/h Distance 4.40 km</desc>
<time>2010-02-25T17:07:21.01</time>
<name>3027</name>
</trkpt>
<trkpt lat="48.927717" lon="8.670788">
<ele>380.5</ele>
<speed>6.3</speed>
<course>36.5</course>
<desc>Speed 6.3 km/h Distance 4.40 km</desc>
<time>2010-02-25T17:07:22.00</time>
<name>3028</name>
</trkpt>
<trkpt lat="48.927730" lon="8.670803">
<ele>380.5</ele>
<speed>6.3</speed>
<course>40.3</course>
<desc>Speed 6.3 km/h Distance 4.40 km</desc>
<time>2010-02-25T17:07:23.00</time>
<name>3029</name>
</trkpt>
<trkpt lat="48.927742" lon="8.670818">
<ele>380.5</ele>
<speed>6.2</speed>
<course>43.3</course>
<desc>Speed 6.2 km/h Distance 4.41 km</desc>
<time>2010-02-25T17:07:24.00</time>
<name>3030</name>
</trkpt>
<trkpt lat="48.927753" lon="8.670835">
<ele>380.0</ele>
<speed>6.3</speed>
<course>36.6</course>
<desc>Speed 6.3 km/h Distance 4.41 km</desc>
<time>2010-02-25T17:07:25.01</time>
<name>3031</name>
</trkpt>
<trkpt lat="48.927767" lon="8.670850">
<ele>380.0</ele>
<speed>6.6</speed>
<course>39.4</course>
<desc>Speed 6.6 km/h Distance 4.41 km</desc>
<time>2010-02-25T17:07:26.00</time>
<name>3032</name>
</trkpt>
<trkpt lat="48.927780" lon="8.670867">
<ele>379.5</ele>
<speed>6.4</speed>
<course>40.2</course>
<desc>Speed 6.4 km/h Distance 4.41 km</desc>
<time>2010-02-25T17:07:27.00</time>
<name>3033</name>
</trkpt>
<trkpt lat="48.927792" lon="8.670882">
<ele>379.5</ele>
<speed>6.5</speed>
<course>36.5</course>
<desc>Speed 6.5 km/h Distance 4.41 km</desc>
<time>2010-02-25T17:07:28.00</time>
<name>3034</name>
</trkpt>
<trkpt lat="48.927805" lon="8.670897">
<ele>379.0</ele>
<speed>6.4</speed>
<course>33.3</course>
<desc>Speed 6.4 km/h Distance 4.41 km</desc>
<time>2010-02-25T17:07:29.00</time>
<name>3035</name>
</trkpt>
<trkpt lat="48.927820" lon="8.670912">
<ele>378.5</ele>
<speed>6.5</speed>
<course>33.3</course>
<desc>Speed 6.5 km/h Distance 4.42 km</desc>
<time>2010-02-25T17:07:30.00</time>
<name>3036</name>
</trkpt>
<trkpt lat="48.927833" lon="8.670925">
<ele>378.5</ele>
<speed>6.3</speed>
<course>36.5</course>
<desc>Speed 6.3 km/h Distance 4.42 km</desc>
<time>2010-02-25T17:07:31.00</time>
<name>3037</name>
</trkpt>
<trkpt lat="48.927847" lon="8.670940">
<ele>378.0</ele>
<speed>6.3</speed>
<course>36.6</course>
<desc>Speed 6.3 km/h Distance 4.42 km</desc>
<time>2010-02-25T17:07:32.00</time>
<name>3038</name>
</trkpt>
<trkpt lat="48.927860" lon="8.670955">
<ele>378.0</ele>
<speed>6.5</speed>
<course>33.4</course>
<desc>Speed 6.5 km/h Distance 4.42 km</desc>
<time>2010-02-25T17:07:33.00</time>
<name>3039</name>
</trkpt>
<trkpt lat="48.927873" lon="8.670968">
<ele>377.5</ele>
<speed>6.3</speed>
<course>36.5</course>
<desc>Speed 6.3 km/h Distance 4.42 km</desc>
<time>2010-02-25T17:07:34.00</time>
<name>3040</name>
</trkpt>
<trkpt lat="48.927887" lon="8.670983">
<ele>377.5</ele>
<speed>6.4</speed>
<course>29.8</course>
<desc>Speed 6.4 km/h Distance 4.43 km</desc>
<time>2010-02-25T17:07:35.00</time>
<name>3041</name>
</trkpt>
<trkpt lat="48.927900" lon="8.670995">
<ele>377.5</ele>
<speed>6.4</speed>
<course>36.6</course>
<desc>Speed 6.4 km/h Distance 4.43 km</desc>
<time>2010-02-25T17:07:36.00</time>
<name>3042</name>
</trkpt>
<trkpt lat="48.927913" lon="8.671010">
<ele>377.0</ele>
<speed>6.6</speed>
<course>36.5</course>
<desc>Speed 6.6 km/h Distance 4.43 km</desc>
<time>2010-02-25T17:07:37.00</time>
<name>3043</name>
</trkpt>
<trkpt lat="48.927927" lon="8.671025">
<ele>376.5</ele>
<speed>6.5</speed>
<course>30.3</course>
<desc>Speed 6.5 km/h Distance 4.43 km</desc>
<time>2010-02-25T17:07:38.00</time>
<name>3044</name>
</trkpt>
<trkpt lat="48.927942" lon="8.671038">
<ele>376.5</ele>
<speed>6.4</speed>
<course>36.6</course>
<desc>Speed 6.4 km/h Distance 4.43 km</desc>
<time>2010-02-25T17:07:39.00</time>
<name>3045</name>
</trkpt>
<trkpt lat="48.927955" lon="8.671053">
<ele>376.0</ele>
<speed>6.4</speed>
<course>29.8</course>
<desc>Speed 6.4 km/h Distance 4.44 km</desc>
<time>2010-02-25T17:07:40.00</time>
<name>3046</name>
</trkpt>
<trkpt lat="48.927968" lon="8.671065">
<ele>376.0</ele>
<speed>6.5</speed>
<course>30.3</course>
<desc>Speed 6.5 km/h Distance 4.44 km</desc>
<time>2010-02-25T17:07:41.00</time>
<name>3047</name>
</trkpt>
<trkpt lat="48.927983" lon="8.671078">
<ele>375.5</ele>
<speed>6.4</speed>
<course>29.8</course>
<desc>Speed 6.4 km/h Distance 4.44 km</desc>
<time>2010-02-25T17:07:41.99</time>
<name>3048</name>
</trkpt>
<trkpt lat="48.927997" lon="8.671090">
<ele>375.5</ele>
<speed>6.2</speed>
<course>33.2</course>
<desc>Speed 6.2 km/h Distance 4.44 km</desc>
<time>2010-02-25T17:07:42.99</time>
<name>3049</name>
</trkpt>
<trkpt lat="48.928010" lon="8.671103">
<ele>375.0</ele>
<speed>5.9</speed>
<course>33.1</course>
<desc>Speed 5.9 km/h Distance 4.44 km</desc>
<time>2010-02-25T17:07:43.99</time>
<name>3050</name>
</trkpt>
<trkpt lat="48.928022" lon="8.671115">
<ele>375.0</ele>
<speed>5.8</speed>
<course>37.3</course>
<desc>Speed 5.8 km/h Distance 4.44 km</desc>
<time>2010-02-25T17:07:44.99</time>
<name>3051</name>
</trkpt>
<trkpt lat="48.928032" lon="8.671127">
<ele>374.5</ele>
<speed>4.8</speed>
<course>44.5</course>
<desc>Speed 4.8 km/h Distance 4.45 km</desc>
<time>2010-02-25T17:07:45.99</time>
<name>3052</name>
</trkpt>
<trkpt lat="48.928035" lon="8.671132">
<ele>374.5</ele>
<speed>2.1</speed>
<course>44.5</course>
<desc>Speed 2.1 km/h Distance 4.45 km</desc>
<time>2010-02-25T17:07:46.99</time>
<name>3053</name>
</trkpt>
<trkpt lat="48.928035" lon="8.671132">
<ele>374.5</ele>
<speed>0.2</speed>
<course>12.6</course>
<desc>Speed 0.2 km/h Distance 4.45 km</desc>
<time>2010-02-25T17:07:47.99</time>
<name>3054</name>
</trkpt>
<trkpt lat="48.928037" lon="8.671132">
<ele>374.5</ele>
<speed>0.2</speed>
<course>270.0</course>
<desc>Speed 0.2 km/h Distance 4.45 km</desc>
<time>2010-02-25T17:07:48.99</time>
<name>3055</name>
</trkpt>
<trkpt lat="48.928037" lon="8.671130">
<ele>374.5</ele>
<speed>0.2</speed>
<course>270.0</course>
<desc>Speed 0.2 km/h Distance 4.45 km</desc>
<time>2010-02-25T17:07:49.99</time>
<name>3056</name>
</trkpt>
<trkpt lat="48.928037" lon="8.671130">
<ele>374.5</ele>
<speed>0.2</speed>
<course>270.0</course>
<desc>Speed 0.2 km/h Distance 4.45 km</desc>
<time>2010-02-25T17:07:50.99</time>
<name>3057</name>
</trkpt>
<trkpt lat="48.928037" lon="8.671130">
<ele>374.5</ele>
<speed>0.2</speed>
<course>12.6</course>
<desc>Speed 0.2 km/h Distance 4.45 km</desc>
<time>2010-02-25T17:07:51.99</time>
<name>3058</name>
</trkpt>
<trkpt lat="48.928038" lon="8.671130">
<ele>374.5</ele>
<speed>0.2</speed>
<course>12.6</course>
<desc>Speed 0.2 km/h Distance 4.45 km</desc>
<time>2010-02-25T17:07:52.99</time>
<name>3059</name>
</trkpt>
<trkpt lat="48.928038" lon="8.671130">
<ele>374.5</ele>
<speed>0.2</speed>
<course>37.2</course>
<desc>Speed 0.2 km/h Distance 4.45 km</desc>
<time>2010-02-25T17:07:53.99</time>
<name>3060</name>
</trkpt>
<trkpt lat="48.928040" lon="8.671132">
<ele>374.5</ele>
<speed>0.8</speed>
<course>33.2</course>
<desc>Speed 0.8 km/h Distance 4.45 km</desc>
<time>2010-02-25T17:07:54.99</time>
<name>3061</name>
</trkpt>
<trkpt lat="48.928045" lon="8.671137">
<ele>374.5</ele>
<speed>2.3</speed>
<course>33.2</course>
<desc>Speed 2.3 km/h Distance 4.45 km</desc>
<time>2010-02-25T17:07:56.00</time>
<name>3062</name>
</trkpt>
<trkpt lat="48.928045" lon="8.671137">
<ele>374.5</ele>
<speed>0.2</speed>
<course>33.2</course>
<desc>Speed 0.2 km/h Distance 4.45 km</desc>
<time>2010-02-25T17:07:57.00</time>
<name>3063</name>
</trkpt>
<trkpt lat="48.928045" lon="8.671137">
<ele>374.5</ele>
<speed>0.3</speed>
<course>270.0</course>
<desc>Speed 0.3 km/h Distance 4.45 km</desc>
<time>2010-02-25T17:07:58.00</time>
<name>3064</name>
</trkpt>
<trkpt lat="48.928045" lon="8.671135">
<ele>374.5</ele>
<speed>0.1</speed>
<course>270.0</course>
<desc>Speed 0.1 km/h Distance 4.45 km</desc>
<time>2010-02-25T17:07:58.99</time>
<name>3065</name>
</trkpt>
<trkpt lat="48.928045" lon="8.671135">
<ele>374.5</ele>
<speed>0.4</speed>
<course>270.0</course>
<desc>Speed 0.4 km/h Distance 4.45 km</desc>
<time>2010-02-25T17:07:59.99</time>
<name>3066</name>
</trkpt>
<trkpt lat="48.928045" lon="8.671135">
<ele>374.5</ele>
<speed>0.4</speed>
<course>18.8</course>
<desc>Speed 0.4 km/h Distance 4.45 km</desc>
<time>2010-02-25T17:08:00.99</time>
<name>3067</name>
</trkpt>
<trkpt lat="48.928048" lon="8.671137">
<ele>374.5</ele>
<speed>1.1</speed>
<course>37.5</course>
<desc>Speed 1.1 km/h Distance 4.45 km</desc>
<time>2010-02-25T17:08:02.00</time>
<name>3068</name>
</trkpt>
<trkpt lat="48.928058" lon="8.671148">
<ele>374.5</ele>
<speed>4.8</speed>
<course>41.2</course>
<desc>Speed 4.8 km/h Distance 4.45 km</desc>
<time>2010-02-25T17:08:03.00</time>
<name>3069</name>
</trkpt>
<trkpt lat="48.928068" lon="8.671162">
<ele>374.5</ele>
<speed>6.0</speed>
<course>47.5</course>
<desc>Speed 6.0 km/h Distance 4.45 km</desc>
<time>2010-02-25T17:08:03.99</time>
<name>3070</name>
</trkpt>
<trkpt lat="48.928078" lon="8.671178">
<ele>374.0</ele>
<speed>5.9</speed>
<course>29.8</course>
<desc>Speed 5.9 km/h Distance 4.45 km</desc>
<time>2010-02-25T17:08:04.99</time>
<name>3071</name>
</trkpt>
<trkpt lat="48.928092" lon="8.671190">
<ele>374.0</ele>
<speed>5.9</speed>
<course>40.2</course>
<desc>Speed 5.9 km/h Distance 4.45 km</desc>
<time>2010-02-25T17:08:05.99</time>
<name>3072</name>
</trkpt>
<trkpt lat="48.928103" lon="8.671205">
<ele>374.0</ele>
<speed>6.1</speed>
<course>40.2</course>
<desc>Speed 6.1 km/h Distance 4.46 km</desc>
<time>2010-02-25T17:08:06.99</time>
<name>3073</name>
</trkpt>
<trkpt lat="48.928115" lon="8.671220">
<ele>373.5</ele>
<speed>6.0</speed>
<course>40.2</course>
<desc>Speed 6.0 km/h Distance 4.46 km</desc>
<time>2010-02-25T17:08:07.99</time>
<name>3074</name>
</trkpt>
<trkpt lat="48.928127" lon="8.671235">
<ele>373.5</ele>
<speed>5.9</speed>
<course>40.2</course>
<desc>Speed 5.9 km/h Distance 4.46 km</desc>
<time>2010-02-25T17:08:08.99</time>
<name>3075</name>
</trkpt>
<trkpt lat="48.928138" lon="8.671250">
<ele>373.0</ele>
<speed>6.0</speed>
<course>40.2</course>
<desc>Speed 6.0 km/h Distance 4.46 km</desc>
<time>2010-02-25T17:08:09.99</time>
<name>3076</name>
</trkpt>
<trkpt lat="48.928150" lon="8.671265">
<ele>373.0</ele>
<speed>6.1</speed>
<course>40.3</course>
<desc>Speed 6.1 km/h Distance 4.46 km</desc>
<time>2010-02-25T17:08:10.99</time>
<name>3077</name>
</trkpt>
<trkpt lat="48.928162" lon="8.671280">
<ele>373.0</ele>
<speed>6.1</speed>
<course>44.5</course>
<desc>Speed 6.1 km/h Distance 4.46 km</desc>
<time>2010-02-25T17:08:11.99</time>
<name>3078</name>
</trkpt>
<trkpt lat="48.928172" lon="8.671295">
<ele>373.0</ele>
<speed>5.9</speed>
<course>36.9</course>
<desc>Speed 5.9 km/h Distance 4.47 km</desc>
<time>2010-02-25T17:08:12.98</time>
<name>3079</name>
</trkpt>
<trkpt lat="48.928183" lon="8.671308">
<ele>372.5</ele>
<speed>5.8</speed>
<course>47.6</course>
<desc>Speed 5.8 km/h Distance 4.47 km</desc>
<time>2010-02-25T17:08:13.99</time>
<name>3080</name>
</trkpt>
<trkpt lat="48.928193" lon="8.671325">
<ele>372.5</ele>
<speed>6.0</speed>
<course>49.8</course>
<desc>Speed 6.0 km/h Distance 4.47 km</desc>
<time>2010-02-25T17:08:14.98</time>
<name>3081</name>
</trkpt>
<trkpt lat="48.928202" lon="8.671340">
<ele>372.5</ele>
<speed>5.2</speed>
<course>49.8</course>
<desc>Speed 5.2 km/h Distance 4.47 km</desc>
<time>2010-02-25T17:08:15.99</time>
<name>3082</name>
</trkpt>
<trkpt lat="48.928210" lon="8.671355">
<ele>372.0</ele>
<speed>4.9</speed>
<course>33.3</course>
<desc>Speed 4.9 km/h Distance 4.47 km</desc>
<time>2010-02-25T17:08:16.98</time>
<name>3083</name>
</trkpt>
<trkpt lat="48.928222" lon="8.671367">
<ele>372.0</ele>
<speed>5.5</speed>
<course>33.2</course>
<desc>Speed 5.5 km/h Distance 4.47 km</desc>
<time>2010-02-25T17:08:17.98</time>
<name>3084</name>
</trkpt>
<trkpt lat="48.928235" lon="8.671380">
<ele>372.0</ele>
<speed>6.2</speed>
<course>36.9</course>
<desc>Speed 6.2 km/h Distance 4.48 km</desc>
<time>2010-02-25T17:08:18.98</time>
<name>3085</name>
</trkpt>
<trkpt lat="48.928247" lon="8.671393">
<ele>372.0</ele>
<speed>6.0</speed>
<course>33.3</course>
<desc>Speed 6.0 km/h Distance 4.48 km</desc>
<time>2010-02-25T17:08:19.98</time>
<name>3086</name>
</trkpt>
<trkpt lat="48.928260" lon="8.671407">
<ele>371.5</ele>
<speed>6.1</speed>
<course>33.1</course>
<desc>Speed 6.1 km/h Distance 4.48 km</desc>
<time>2010-02-25T17:08:20.98</time>
<name>3087</name>
</trkpt>
<trkpt lat="48.928272" lon="8.671418">
<ele>371.0</ele>
<speed>5.8</speed>
<course>33.4</course>
<desc>Speed 5.8 km/h Distance 4.48 km</desc>
<time>2010-02-25T17:08:21.99</time>
<name>3088</name>
</trkpt>
<trkpt lat="48.928285" lon="8.671432">
<ele>371.0</ele>
<speed>6.1</speed>
<course>33.4</course>
<desc>Speed 6.1 km/h Distance 4.48 km</desc>
<time>2010-02-25T17:08:22.98</time>
<name>3089</name>
</trkpt>
<trkpt lat="48.928298" lon="8.671445">
<ele>370.5</ele>
<speed>5.9</speed>
<course>37.0</course>
<desc>Speed 5.9 km/h Distance 4.48 km</desc>
<time>2010-02-25T17:08:23.98</time>
<name>3090</name>
</trkpt>
<trkpt lat="48.928310" lon="8.671458">
<ele>370.5</ele>
<speed>5.9</speed>
<course>29.8</course>
<desc>Speed 5.9 km/h Distance 4.49 km</desc>
<time>2010-02-25T17:08:24.98</time>
<name>3091</name>
</trkpt>
<trkpt lat="48.928323" lon="8.671470">
<ele>370.0</ele>
<speed>6.0</speed>
<course>36.5</course>
<desc>Speed 6.0 km/h Distance 4.49 km</desc>
<time>2010-02-25T17:08:25.98</time>
<name>3092</name>
</trkpt>
<trkpt lat="48.928337" lon="8.671485">
<ele>369.5</ele>
<speed>6.1</speed>
<course>40.2</course>
<desc>Speed 6.1 km/h Distance 4.49 km</desc>
<time>2010-02-25T17:08:26.98</time>
<name>3093</name>
</trkpt>
<trkpt lat="48.928348" lon="8.671500">
<ele>369.0</ele>
<speed>5.8</speed>
<course>39.4</course>
<desc>Speed 5.8 km/h Distance 4.49 km</desc>
<time>2010-02-25T17:08:27.98</time>
<name>3094</name>
</trkpt>
<trkpt lat="48.928362" lon="8.671517">
<ele>368.5</ele>
<speed>6.1</speed>
<course>40.2</course>
<desc>Speed 6.1 km/h Distance 4.49 km</desc>
<time>2010-02-25T17:08:28.98</time>
<name>3095</name>
</trkpt>
<trkpt lat="48.928373" lon="8.671532">
<ele>368.0</ele>
<speed>6.4</speed>
<course>43.3</course>
<desc>Speed 6.4 km/h Distance 4.49 km</desc>
<time>2010-02-25T17:08:29.98</time>
<name>3096</name>
</trkpt>
<trkpt lat="48.928385" lon="8.671548">
<ele>368.0</ele>
<speed>6.2</speed>
<course>45.9</course>
<desc>Speed 6.2 km/h Distance 4.50 km</desc>
<time>2010-02-25T17:08:30.98</time>
<name>3097</name>
</trkpt>
<trkpt lat="48.928397" lon="8.671567">
<ele>367.5</ele>
<speed>6.3</speed>
<course>59.7</course>
<desc>Speed 6.3 km/h Distance 4.50 km</desc>
<time>2010-02-25T17:08:31.98</time>
<name>3098</name>
</trkpt>
<trkpt lat="48.928405" lon="8.671588">
<ele>367.0</ele>
<speed>6.1</speed>
<course>63.1</course>
<desc>Speed 6.1 km/h Distance 4.50 km</desc>
<time>2010-02-25T17:08:32.98</time>
<name>3099</name>
</trkpt>
<trkpt lat="48.928412" lon="8.671608">
<ele>366.5</ele>
<speed>6.0</speed>
<course>66.5</course>
<desc>Speed 6.0 km/h Distance 4.50 km</desc>
<time>2010-02-25T17:08:33.98</time>
<name>3100</name>
</trkpt>
<trkpt lat="48.928418" lon="8.671632">
<ele>366.0</ele>
<speed>6.3</speed>
<course>64.9</course>
<desc>Speed 6.3 km/h Distance 4.50 km</desc>
<time>2010-02-25T17:08:34.98</time>
<name>3101</name>
</trkpt>
<trkpt lat="48.928425" lon="8.671653">
<ele>366.0</ele>
<speed>6.4</speed>
<course>64.9</course>
<desc>Speed 6.4 km/h Distance 4.50 km</desc>
<time>2010-02-25T17:08:35.98</time>
<name>3102</name>
</trkpt>
<trkpt lat="48.928432" lon="8.671675">
<ele>365.5</ele>
<speed>6.1</speed>
<course>64.9</course>
<desc>Speed 6.1 km/h Distance 4.51 km</desc>
<time>2010-02-25T17:08:36.98</time>
<name>3103</name>
</trkpt>
<trkpt lat="48.928438" lon="8.671697">
<ele>365.0</ele>
<speed>6.3</speed>
<course>78.5</course>
<desc>Speed 6.3 km/h Distance 4.51 km</desc>
<time>2010-02-25T17:08:37.99</time>
<name>3104</name>
</trkpt>
<trkpt lat="48.928442" lon="8.671722">
<ele>364.5</ele>
<speed>6.4</speed>
<course>95.8</course>
<desc>Speed 6.4 km/h Distance 4.51 km</desc>
<time>2010-02-25T17:08:38.98</time>
<name>3105</name>
</trkpt>
<trkpt lat="48.928440" lon="8.671747">
<ele>364.5</ele>
<speed>6.3</speed>
<course>90.0</course>
<desc>Speed 6.3 km/h Distance 4.51 km</desc>
<time>2010-02-25T17:08:39.98</time>
<name>3106</name>
</trkpt>
<trkpt lat="48.928440" lon="8.671770">
<ele>364.0</ele>
<speed>5.4</speed>
<course>82.8</course>
<desc>Speed 5.4 km/h Distance 4.51 km</desc>
<time>2010-02-25T17:08:40.97</time>
<name>3107</name>
</trkpt>
<trkpt lat="48.928442" lon="8.671790">
<ele>364.5</ele>
<speed>5.3</speed>
<course>83.8</course>
<desc>Speed 5.3 km/h Distance 4.52 km</desc>
<time>2010-02-25T17:08:41.97</time>
<name>3108</name>
</trkpt>
<trkpt lat="48.928443" lon="8.671813">
<ele>364.5</ele>
<speed>6.1</speed>
<course>90.0</course>
<desc>Speed 6.1 km/h Distance 4.52 km</desc>
<time>2010-02-25T17:08:42.97</time>
<name>3109</name>
</trkpt>
<trkpt lat="48.928443" lon="8.671837">
<ele>364.0</ele>
<speed>6.1</speed>
<course>83.8</course>
<desc>Speed 6.1 km/h Distance 4.52 km</desc>
<time>2010-02-25T17:08:43.97</time>
<name>3110</name>
</trkpt>
<trkpt lat="48.928445" lon="8.671860">
<ele>364.0</ele>
<speed>5.9</speed>
<course>75.7</course>
<desc>Speed 5.9 km/h Distance 4.52 km</desc>
<time>2010-02-25T17:08:44.97</time>
<name>3111</name>
</trkpt>
<trkpt lat="48.928448" lon="8.671880">
<ele>364.0</ele>
<speed>5.4</speed>
<course>63.1</course>
<desc>Speed 5.4 km/h Distance 4.52 km</desc>
<time>2010-02-25T17:08:45.98</time>
<name>3112</name>
</trkpt>
<trkpt lat="48.928455" lon="8.671900">
<ele>364.0</ele>
<speed>5.9</speed>
<course>63.1</course>
<desc>Speed 5.9 km/h Distance 4.52 km</desc>
<time>2010-02-25T17:08:46.97</time>
<name>3113</name>
</trkpt>
<trkpt lat="48.928462" lon="8.671920">
<ele>363.5</ele>
<speed>5.7</speed>
<course>69.2</course>
<desc>Speed 5.7 km/h Distance 4.53 km</desc>
<time>2010-02-25T17:08:47.98</time>
<name>3114</name>
</trkpt>
<trkpt lat="48.928467" lon="8.671940">
<ele>363.5</ele>
<speed>5.5</speed>
<course>83.3</course>
<desc>Speed 5.5 km/h Distance 4.53 km</desc>
<time>2010-02-25T17:08:48.97</time>
<name>3115</name>
</trkpt>
<trkpt lat="48.928468" lon="8.671962">
<ele>363.5</ele>
<speed>5.8</speed>
<course>90.0</course>
<desc>Speed 5.8 km/h Distance 4.53 km</desc>
<time>2010-02-25T17:08:49.97</time>
<name>3116</name>
</trkpt>
<trkpt lat="48.928468" lon="8.671985">
<ele>363.5</ele>
<speed>6.1</speed>
<course>77.7</course>
<desc>Speed 6.1 km/h Distance 4.53 km</desc>
<time>2010-02-25T17:08:50.97</time>
<name>3117</name>
</trkpt>
<trkpt lat="48.928472" lon="8.672008">
<ele>363.5</ele>
<speed>6.0</speed>
<course>83.3</course>
<desc>Speed 6.0 km/h Distance 4.53 km</desc>
<time>2010-02-25T17:08:51.97</time>
<name>3118</name>
</trkpt>
<trkpt lat="48.928473" lon="8.672030">
<ele>363.5</ele>
<speed>5.9</speed>
<course>90.0</course>
<desc>Speed 5.9 km/h Distance 4.53 km</desc>
<time>2010-02-25T17:08:52.97</time>
<name>3119</name>
</trkpt>
<trkpt lat="48.928473" lon="8.672055">
<ele>363.5</ele>
<speed>6.1</speed>
<course>90.0</course>
<desc>Speed 6.1 km/h Distance 4.54 km</desc>
<time>2010-02-25T17:08:53.97</time>
<name>3120</name>
</trkpt>
<trkpt lat="48.928473" lon="8.672077">
<ele>363.5</ele>
<speed>5.8</speed>
<course>90.0</course>
<desc>Speed 5.8 km/h Distance 4.54 km</desc>
<time>2010-02-25T17:08:54.97</time>
<name>3121</name>
</trkpt>
<trkpt lat="48.928473" lon="8.672098">
<ele>363.5</ele>
<speed>5.6</speed>
<course>83.3</course>
<desc>Speed 5.6 km/h Distance 4.54 km</desc>
<time>2010-02-25T17:08:55.97</time>
<name>3122</name>
</trkpt>
<trkpt lat="48.928475" lon="8.672120">
<ele>363.5</ele>
<speed>5.5</speed>
<course>90.0</course>
<desc>Speed 5.5 km/h Distance 4.54 km</desc>
<time>2010-02-25T17:08:56.97</time>
<name>3123</name>
</trkpt>
<trkpt lat="48.928475" lon="8.672142">
<ele>363.5</ele>
<speed>5.6</speed>
<course>103.2</course>
<desc>Speed 5.6 km/h Distance 4.54 km</desc>
<time>2010-02-25T17:08:57.97</time>
<name>3124</name>
</trkpt>
<trkpt lat="48.928472" lon="8.672163">
<ele>363.5</ele>
<speed>5.7</speed>
<course>82.8</course>
<desc>Speed 5.7 km/h Distance 4.54 km</desc>
<time>2010-02-25T17:08:58.97</time>
<name>3125</name>
</trkpt>
<trkpt lat="48.928473" lon="8.672183">
<ele>363.5</ele>
<speed>5.5</speed>
<course>96.7</course>
<desc>Speed 5.5 km/h Distance 4.54 km</desc>
<time>2010-02-25T17:08:59.96</time>
<name>3126</name>
</trkpt>
<trkpt lat="48.928472" lon="8.672205">
<ele>363.0</ele>
<speed>5.5</speed>
<course>83.3</course>
<desc>Speed 5.5 km/h Distance 4.55 km</desc>
<time>2010-02-25T17:09:00.96</time>
<name>3127</name>
</trkpt>
<trkpt lat="48.928473" lon="8.672227">
<ele>363.0</ele>
<speed>5.6</speed>
<course>82.8</course>
<desc>Speed 5.6 km/h Distance 4.55 km</desc>
<time>2010-02-25T17:09:01.97</time>
<name>3128</name>
</trkpt>
<trkpt lat="48.928475" lon="8.672247">
<ele>363.0</ele>
<speed>5.4</speed>
<course>75.8</course>
<desc>Speed 5.4 km/h Distance 4.55 km</desc>
<time>2010-02-25T17:09:02.97</time>
<name>3129</name>
</trkpt>
<trkpt lat="48.928478" lon="8.672267">
<ele>363.0</ele>
<speed>5.2</speed>
<course>67.5</course>
<desc>Speed 5.2 km/h Distance 4.55 km</desc>
<time>2010-02-25T17:09:03.96</time>
<name>3130</name>
</trkpt>
<trkpt lat="48.928483" lon="8.672285">
<ele>363.0</ele>
<speed>5.0</speed>
<course>74.5</course>
<desc>Speed 5.0 km/h Distance 4.55 km</desc>
<time>2010-02-25T17:09:04.96</time>
<name>3131</name>
</trkpt>
<trkpt lat="48.928487" lon="8.672303">
<ele>363.0</ele>
<speed>5.0</speed>
<course>65.5</course>
<desc>Speed 5.0 km/h Distance 4.55 km</desc>
<time>2010-02-25T17:09:05.96</time>
<name>3132</name>
</trkpt>
<trkpt lat="48.928492" lon="8.672320">
<ele>363.0</ele>
<speed>4.9</speed>
<course>63.1</course>
<desc>Speed 4.9 km/h Distance 4.55 km</desc>
<time>2010-02-25T17:09:06.96</time>
<name>3133</name>
</trkpt>
<trkpt lat="48.928498" lon="8.672340">
<ele>362.5</ele>
<speed>5.4</speed>
<course>58.6</course>
<desc>Speed 5.4 km/h Distance 4.56 km</desc>
<time>2010-02-25T17:09:07.97</time>
<name>3134</name>
</trkpt>
<trkpt lat="48.928505" lon="8.672357">
<ele>362.5</ele>
<speed>5.2</speed>
<course>76.8</course>
<desc>Speed 5.2 km/h Distance 4.56 km</desc>
<time>2010-02-25T17:09:08.96</time>
<name>3135</name>
</trkpt>
<trkpt lat="48.928508" lon="8.672378">
<ele>362.5</ele>
<speed>5.8</speed>
<course>61.0</course>
<desc>Speed 5.8 km/h Distance 4.56 km</desc>
<time>2010-02-25T17:09:09.96</time>
<name>3136</name>
</trkpt>
<trkpt lat="48.928515" lon="8.672397">
<ele>362.5</ele>
<speed>5.3</speed>
<course>44.5</course>
<desc>Speed 5.3 km/h Distance 4.56 km</desc>
<time>2010-02-25T17:09:10.97</time>
<name>3137</name>
</trkpt>
<trkpt lat="48.928525" lon="8.672412">
<ele>362.5</ele>
<speed>5.2</speed>
<course>49.9</course>
<desc>Speed 5.2 km/h Distance 4.56 km</desc>
<time>2010-02-25T17:09:11.96</time>
<name>3138</name>
</trkpt>
<trkpt lat="48.928533" lon="8.672427">
<ele>362.5</ele>
<speed>5.0</speed>
<course>29.4</course>
<desc>Speed 5.0 km/h Distance 4.56 km</desc>
<time>2010-02-25T17:09:12.96</time>
<name>3139</name>
</trkpt>
<trkpt lat="48.928545" lon="8.672437">
<ele>362.0</ele>
<speed>5.4</speed>
<course>16.3</course>
<desc>Speed 5.4 km/h Distance 4.57 km</desc>
<time>2010-02-25T17:09:13.96</time>
<name>3140</name>
</trkpt>
<trkpt lat="48.928560" lon="8.672443">
<ele>361.0</ele>
<speed>6.0</speed>
<course>30.0</course>
<desc>Speed 6.0 km/h Distance 4.57 km</desc>
<time>2010-02-25T17:09:14.97</time>
<name>3141</name>
</trkpt>
<trkpt lat="48.928573" lon="8.672455">
<ele>360.5</ele>
<speed>5.4</speed>
<course>44.6</course>
<desc>Speed 5.4 km/h Distance 4.57 km</desc>
<time>2010-02-25T17:09:15.96</time>
<name>3142</name>
</trkpt>
<trkpt lat="48.928583" lon="8.672470">
<ele>360.0</ele>
<speed>5.5</speed>
<course>43.2</course>
<desc>Speed 5.5 km/h Distance 4.57 km</desc>
<time>2010-02-25T17:09:16.96</time>
<name>3143</name>
</trkpt>
<trkpt lat="48.928595" lon="8.672487">
<ele>360.0</ele>
<speed>5.5</speed>
<course>55.3</course>
<desc>Speed 5.5 km/h Distance 4.57 km</desc>
<time>2010-02-25T17:09:17.96</time>
<name>3144</name>
</trkpt>
<trkpt lat="48.928603" lon="8.672505">
<ele>359.5</ele>
<speed>5.4</speed>
<course>58.7</course>
<desc>Speed 5.4 km/h Distance 4.57 km</desc>
<time>2010-02-25T17:09:18.96</time>
<name>3145</name>
</trkpt>
<trkpt lat="48.928610" lon="8.672522">
<ele>359.5</ele>
<speed>5.3</speed>
<course>55.3</course>
<desc>Speed 5.3 km/h Distance 4.58 km</desc>
<time>2010-02-25T17:09:19.96</time>
<name>3146</name>
</trkpt>
<trkpt lat="48.928618" lon="8.672540">
<ele>359.5</ele>
<speed>5.5</speed>
<course>52.7</course>
<desc>Speed 5.5 km/h Distance 4.58 km</desc>
<time>2010-02-25T17:09:20.96</time>
<name>3147</name>
</trkpt>
<trkpt lat="48.928627" lon="8.672557">
<ele>359.5</ele>
<speed>5.1</speed>
<course>52.7</course>
<desc>Speed 5.1 km/h Distance 4.58 km</desc>
<time>2010-02-25T17:09:21.96</time>
<name>3148</name>
</trkpt>
<trkpt lat="48.928635" lon="8.672573">
<ele>359.5</ele>
<speed>5.3</speed>
<course>63.1</course>
<desc>Speed 5.3 km/h Distance 4.58 km</desc>
<time>2010-02-25T17:09:22.96</time>
<name>3149</name>
</trkpt>
<trkpt lat="48.928642" lon="8.672593">
<ele>359.5</ele>
<speed>5.6</speed>
<course>70.6</course>
<desc>Speed 5.6 km/h Distance 4.58 km</desc>
<time>2010-02-25T17:09:23.97</time>
<name>3150</name>
</trkpt>
<trkpt lat="48.928647" lon="8.672615">
<ele>359.5</ele>
<speed>5.8</speed>
<course>41.2</course>
<desc>Speed 5.8 km/h Distance 4.58 km</desc>
<time>2010-02-25T17:09:24.96</time>
<name>3151</name>
</trkpt>
<trkpt lat="48.928657" lon="8.672628">
<ele>359.5</ele>
<speed>5.3</speed>
<course>40.2</course>
<desc>Speed 5.3 km/h Distance 4.58 km</desc>
<time>2010-02-25T17:09:25.96</time>
<name>3152</name>
</trkpt>
<trkpt lat="48.928668" lon="8.672643">
<ele>359.5</ele>
<speed>4.9</speed>
<course>90.0</course>
<desc>Speed 4.9 km/h Distance 4.59 km</desc>
<time>2010-02-25T17:09:26.96</time>
<name>3153</name>
</trkpt>
<trkpt lat="48.928668" lon="8.672660">
<ele>359.5</ele>
<speed>4.7</speed>
<course>81.3</course>
<desc>Speed 4.7 km/h Distance 4.59 km</desc>
<time>2010-02-25T17:09:27.96</time>
<name>3154</name>
</trkpt>
<trkpt lat="48.928670" lon="8.672677">
<ele>360.0</ele>
<speed>4.6</speed>
<course>99.6</course>
<desc>Speed 4.6 km/h Distance 4.59 km</desc>
<time>2010-02-25T17:09:28.96</time>
<name>3155</name>
</trkpt>
<trkpt lat="48.928668" lon="8.672692">
<ele>360.0</ele>
<speed>4.3</speed>
<course>75.6</course>
<desc>Speed 4.3 km/h Distance 4.59 km</desc>
<time>2010-02-25T17:09:29.95</time>
<name>3156</name>
</trkpt>
<trkpt lat="48.928670" lon="8.672702">
<ele>360.0</ele>
<speed>3.1</speed>
<course>63.1</course>
<desc>Speed 3.1 km/h Distance 4.59 km</desc>
<time>2010-02-25T17:09:30.95</time>
<name>3157</name>
</trkpt>
<trkpt lat="48.928675" lon="8.672717">
<ele>360.5</ele>
<speed>4.5</speed>
<course>74.5</course>
<desc>Speed 4.5 km/h Distance 4.59 km</desc>
<time>2010-02-25T17:09:31.95</time>
<name>3158</name>
</trkpt>
<trkpt lat="48.928678" lon="8.672735">
<ele>360.5</ele>
<speed>4.8</speed>
<course>74.5</course>
<desc>Speed 4.8 km/h Distance 4.59 km</desc>
<time>2010-02-25T17:09:32.96</time>
<name>3159</name>
</trkpt>
<trkpt lat="48.928682" lon="8.672753">
<ele>360.5</ele>
<speed>5.2</speed>
<course>83.3</course>
<desc>Speed 5.2 km/h Distance 4.60 km</desc>
<time>2010-02-25T17:09:33.96</time>
<name>3160</name>
</trkpt>
<trkpt lat="48.928683" lon="8.672775">
<ele>361.0</ele>
<speed>5.4</speed>
<course>75.8</course>
<desc>Speed 5.4 km/h Distance 4.60 km</desc>
<time>2010-02-25T17:09:34.95</time>
<name>3161</name>
</trkpt>
<trkpt lat="48.928687" lon="8.672795">
<ele>361.0</ele>
<speed>5.3</speed>
<course>82.8</course>
<desc>Speed 5.3 km/h Distance 4.60 km</desc>
<time>2010-02-25T17:09:35.95</time>
<name>3162</name>
</trkpt>
<trkpt lat="48.928688" lon="8.672815">
<ele>361.0</ele>
<speed>5.3</speed>
<course>90.0</course>
<desc>Speed 5.3 km/h Distance 4.60 km</desc>
<time>2010-02-25T17:09:36.95</time>
<name>3163</name>
</trkpt>
<trkpt lat="48.928688" lon="8.672835">
<ele>361.0</ele>
<speed>5.3</speed>
<course>90.0</course>
<desc>Speed 5.3 km/h Distance 4.60 km</desc>
<time>2010-02-25T17:09:37.95</time>
<name>3164</name>
</trkpt>
<trkpt lat="48.928688" lon="8.672855">
<ele>361.0</ele>
<speed>5.1</speed>
<course>82.8</course>
<desc>Speed 5.1 km/h Distance 4.60 km</desc>
<time>2010-02-25T17:09:38.95</time>
<name>3165</name>
</trkpt>
<trkpt lat="48.928690" lon="8.672875">
<ele>361.5</ele>
<speed>5.3</speed>
<course>82.8</course>
<desc>Speed 5.3 km/h Distance 4.60 km</desc>
<time>2010-02-25T17:09:39.95</time>
<name>3166</name>
</trkpt>
<trkpt lat="48.928692" lon="8.672895">
<ele>361.5</ele>
<speed>5.2</speed>
<course>90.0</course>
<desc>Speed 5.2 km/h Distance 4.61 km</desc>
<time>2010-02-25T17:09:40.95</time>
<name>3167</name>
</trkpt>
<trkpt lat="48.928692" lon="8.672915">
<ele>361.5</ele>
<speed>5.3</speed>
<course>82.8</course>
<desc>Speed 5.3 km/h Distance 4.61 km</desc>
<time>2010-02-25T17:09:41.95</time>
<name>3168</name>
</trkpt>
<trkpt lat="48.928693" lon="8.672935">
<ele>361.5</ele>
<speed>5.1</speed>
<course>82.8</course>
<desc>Speed 5.1 km/h Distance 4.61 km</desc>
<time>2010-02-25T17:09:42.95</time>
<name>3169</name>
</trkpt>
<trkpt lat="48.928695" lon="8.672955">
<ele>361.5</ele>
<speed>5.5</speed>
<course>83.3</course>
<desc>Speed 5.5 km/h Distance 4.61 km</desc>
<time>2010-02-25T17:09:43.95</time>
<name>3170</name>
</trkpt>
<trkpt lat="48.928697" lon="8.672977">
<ele>361.5</ele>
<speed>5.4</speed>
<course>83.3</course>
<desc>Speed 5.4 km/h Distance 4.61 km</desc>
<time>2010-02-25T17:09:44.95</time>
<name>3171</name>
</trkpt>
<trkpt lat="48.928698" lon="8.672998">
<ele>361.5</ele>
<speed>5.7</speed>
<course>82.8</course>
<desc>Speed 5.7 km/h Distance 4.61 km</desc>
<time>2010-02-25T17:09:45.95</time>
<name>3172</name>
</trkpt>
<trkpt lat="48.928700" lon="8.673018">
<ele>361.5</ele>
<speed>5.1</speed>
<course>82.8</course>
<desc>Speed 5.1 km/h Distance 4.61 km</desc>
<time>2010-02-25T17:09:46.96</time>
<name>3173</name>
</trkpt>
<trkpt lat="48.928702" lon="8.673038">
<ele>361.5</ele>
<speed>5.4</speed>
<course>82.8</course>
<desc>Speed 5.4 km/h Distance 4.62 km</desc>
<time>2010-02-25T17:09:47.95</time>
<name>3174</name>
</trkpt>
<trkpt lat="48.928703" lon="8.673058">
<ele>361.5</ele>
<speed>5.5</speed>
<course>83.3</course>
<desc>Speed 5.5 km/h Distance 4.62 km</desc>
<time>2010-02-25T17:09:48.95</time>
<name>3175</name>
</trkpt>
<trkpt lat="48.928705" lon="8.673080">
<ele>361.5</ele>
<speed>5.5</speed>
<course>83.3</course>
<desc>Speed 5.5 km/h Distance 4.62 km</desc>
<time>2010-02-25T17:09:49.95</time>
<name>3176</name>
</trkpt>
<trkpt lat="48.928707" lon="8.673102">
<ele>361.5</ele>
<speed>5.8</speed>
<course>83.3</course>
<desc>Speed 5.8 km/h Distance 4.62 km</desc>
<time>2010-02-25T17:09:50.95</time>
<name>3177</name>
</trkpt>
<trkpt lat="48.928708" lon="8.673123">
<ele>361.5</ele>
<speed>5.6</speed>
<course>76.8</course>
<desc>Speed 5.6 km/h Distance 4.62 km</desc>
<time>2010-02-25T17:09:51.95</time>
<name>3178</name>
</trkpt>
<trkpt lat="48.928712" lon="8.673145">
<ele>361.5</ele>
<speed>5.6</speed>
<course>83.3</course>
<desc>Speed 5.6 km/h Distance 4.62 km</desc>
<time>2010-02-25T17:09:52.94</time>
<name>3179</name>
</trkpt>
<trkpt lat="48.928713" lon="8.673167">
<ele>362.0</ele>
<speed>5.7</speed>
<course>83.3</course>
<desc>Speed 5.7 km/h Distance 4.63 km</desc>
<time>2010-02-25T17:09:53.94</time>
<name>3180</name>
</trkpt>
<trkpt lat="48.928715" lon="8.673188">
<ele>361.5</ele>
<speed>5.4</speed>
<course>90.0</course>
<desc>Speed 5.4 km/h Distance 4.63 km</desc>
<time>2010-02-25T17:09:54.94</time>
<name>3181</name>
</trkpt>
<trkpt lat="48.928715" lon="8.673210">
<ele>361.5</ele>
<speed>5.5</speed>
<course>90.0</course>
<desc>Speed 5.5 km/h Distance 4.63 km</desc>
<time>2010-02-25T17:09:55.94</time>
<name>3182</name>
</trkpt>
<trkpt lat="48.928715" lon="8.673230">
<ele>361.5</ele>
<speed>5.5</speed>
<course>90.0</course>
<desc>Speed 5.5 km/h Distance 4.63 km</desc>
<time>2010-02-25T17:09:56.94</time>
<name>3183</name>
</trkpt>
<trkpt lat="48.928715" lon="8.673252">
<ele>361.5</ele>
<speed>5.6</speed>
<course>76.8</course>
<desc>Speed 5.6 km/h Distance 4.63 km</desc>
<time>2010-02-25T17:09:57.94</time>
<name>3184</name>
</trkpt>
<trkpt lat="48.928718" lon="8.673273">
<ele>361.5</ele>
<speed>5.7</speed>
<course>77.7</course>
<desc>Speed 5.7 km/h Distance 4.63 km</desc>
<time>2010-02-25T17:09:58.94</time>
<name>3185</name>
</trkpt>
<trkpt lat="48.928722" lon="8.673297">
<ele>361.5</ele>
<speed>5.8</speed>
<course>76.8</course>
<desc>Speed 5.8 km/h Distance 4.64 km</desc>
<time>2010-02-25T17:09:59.94</time>
<name>3186</name>
</trkpt>
<trkpt lat="48.928725" lon="8.673318">
<ele>361.5</ele>
<speed>5.7</speed>
<course>76.8</course>
<desc>Speed 5.7 km/h Distance 4.64 km</desc>
<time>2010-02-25T17:10:00.94</time>
<name>3187</name>
</trkpt>
<trkpt lat="48.928728" lon="8.673340">
<ele>361.5</ele>
<speed>5.8</speed>
<course>77.7</course>
<desc>Speed 5.8 km/h Distance 4.64 km</desc>
<time>2010-02-25T17:10:01.94</time>
<name>3188</name>
</trkpt>
<trkpt lat="48.928732" lon="8.673363">
<ele>361.5</ele>
<speed>5.8</speed>
<course>83.3</course>
<desc>Speed 5.8 km/h Distance 4.64 km</desc>
<time>2010-02-25T17:10:02.94</time>
<name>3189</name>
</trkpt>
<trkpt lat="48.928733" lon="8.673385">
<ele>362.0</ele>
<speed>5.7</speed>
<course>76.8</course>
<desc>Speed 5.7 km/h Distance 4.64 km</desc>
<time>2010-02-25T17:10:03.94</time>
<name>3190</name>
</trkpt>
<trkpt lat="48.928737" lon="8.673407">
<ele>362.0</ele>
<speed>5.5</speed>
<course>83.3</course>
<desc>Speed 5.5 km/h Distance 4.64 km</desc>
<time>2010-02-25T17:10:04.94</time>
<name>3191</name>
</trkpt>
<trkpt lat="48.928738" lon="8.673428">
<ele>362.0</ele>
<speed>5.6</speed>
<course>83.3</course>
<desc>Speed 5.6 km/h Distance 4.64 km</desc>
<time>2010-02-25T17:10:05.94</time>
<name>3192</name>
</trkpt>
<trkpt lat="48.928740" lon="8.673450">
<ele>362.0</ele>
<speed>5.6</speed>
<course>76.8</course>
<desc>Speed 5.6 km/h Distance 4.65 km</desc>
<time>2010-02-25T17:10:06.94</time>
<name>3193</name>
</trkpt>
<trkpt lat="48.928743" lon="8.673472">
<ele>362.0</ele>
<speed>5.7</speed>
<course>76.8</course>
<desc>Speed 5.7 km/h Distance 4.65 km</desc>
<time>2010-02-25T17:10:07.94</time>
<name>3194</name>
</trkpt>
<trkpt lat="48.928747" lon="8.673493">
<ele>362.5</ele>
<speed>5.6</speed>
<course>75.8</course>
<desc>Speed 5.6 km/h Distance 4.65 km</desc>
<time>2010-02-25T17:10:08.94</time>
<name>3195</name>
</trkpt>
<trkpt lat="48.928750" lon="8.673513">
<ele>362.5</ele>
<speed>5.5</speed>
<course>72.0</course>
<desc>Speed 5.5 km/h Distance 4.65 km</desc>
<time>2010-02-25T17:10:09.94</time>
<name>3196</name>
</trkpt>
<trkpt lat="48.928755" lon="8.673537">
<ele>362.5</ele>
<speed>5.7</speed>
<course>83.3</course>
<desc>Speed 5.7 km/h Distance 4.65 km</desc>
<time>2010-02-25T17:10:10.95</time>
<name>3197</name>
</trkpt>
<trkpt lat="48.928757" lon="8.673558">
<ele>362.5</ele>
<speed>5.9</speed>
<course>76.8</course>
<desc>Speed 5.9 km/h Distance 4.65 km</desc>
<time>2010-02-25T17:10:11.94</time>
<name>3198</name>
</trkpt>
<trkpt lat="48.928760" lon="8.673580">
<ele>362.5</ele>
<speed>5.9</speed>
<course>77.7</course>
<desc>Speed 5.9 km/h Distance 4.66 km</desc>
<time>2010-02-25T17:10:12.94</time>
<name>3199</name>
</trkpt>
<trkpt lat="48.928763" lon="8.673603">
<ele>362.5</ele>
<speed>5.8</speed>
<course>83.3</course>
<desc>Speed 5.8 km/h Distance 4.66 km</desc>
<time>2010-02-25T17:10:13.94</time>
<name>3200</name>
</trkpt>
<trkpt lat="48.928765" lon="8.673625">
<ele>362.5</ele>
<speed>5.8</speed>
<course>83.3</course>
<desc>Speed 5.8 km/h Distance 4.66 km</desc>
<time>2010-02-25T17:10:14.94</time>
<name>3201</name>
</trkpt>
<trkpt lat="48.928767" lon="8.673647">
<ele>363.0</ele>
<speed>5.6</speed>
<course>83.3</course>
<desc>Speed 5.6 km/h Distance 4.66 km</desc>
<time>2010-02-25T17:10:15.94</time>
<name>3202</name>
</trkpt>
<trkpt lat="48.928768" lon="8.673668">
<ele>363.0</ele>
<speed>5.7</speed>
<course>75.8</course>
<desc>Speed 5.7 km/h Distance 4.66 km</desc>
<time>2010-02-25T17:10:16.94</time>
<name>3203</name>
</trkpt>
<trkpt lat="48.928772" lon="8.673688">
<ele>363.0</ele>
<speed>5.7</speed>
<course>83.8</course>
<desc>Speed 5.7 km/h Distance 4.66 km</desc>
<time>2010-02-25T17:10:17.94</time>
<name>3204</name>
</trkpt>
<trkpt lat="48.928773" lon="8.673712">
<ele>363.0</ele>
<speed>6.0</speed>
<course>76.8</course>
<desc>Speed 6.0 km/h Distance 4.67 km</desc>
<time>2010-02-25T17:10:18.94</time>
<name>3205</name>
</trkpt>
<trkpt lat="48.928777" lon="8.673733">
<ele>363.0</ele>
<speed>5.8</speed>
<course>83.8</course>
<desc>Speed 5.8 km/h Distance 4.67 km</desc>
<time>2010-02-25T17:10:19.94</time>
<name>3206</name>
</trkpt>
<trkpt lat="48.928778" lon="8.673757">
<ele>363.0</ele>
<speed>5.8</speed>
<course>76.8</course>
<desc>Speed 5.8 km/h Distance 4.67 km</desc>
<time>2010-02-25T17:10:20.94</time>
<name>3207</name>
</trkpt>
<trkpt lat="48.928782" lon="8.673778">
<ele>363.0</ele>
<speed>6.1</speed>
<course>77.7</course>
<desc>Speed 6.1 km/h Distance 4.67 km</desc>
<time>2010-02-25T17:10:21.94</time>
<name>3208</name>
</trkpt>
<trkpt lat="48.928785" lon="8.673802">
<ele>363.0</ele>
<speed>5.8</speed>
<course>76.8</course>
<desc>Speed 5.8 km/h Distance 4.67 km</desc>
<time>2010-02-25T17:10:22.94</time>
<name>3209</name>
</trkpt>
<trkpt lat="48.928788" lon="8.673823">
<ele>363.0</ele>
<speed>5.7</speed>
<course>75.8</course>
<desc>Speed 5.7 km/h Distance 4.67 km</desc>
<time>2010-02-25T17:10:23.94</time>
<name>3210</name>
</trkpt>
<trkpt lat="48.928792" lon="8.673843">
<ele>363.0</ele>
<speed>5.7</speed>
<course>76.8</course>
<desc>Speed 5.7 km/h Distance 4.68 km</desc>
<time>2010-02-25T17:10:24.93</time>
<name>3211</name>
</trkpt>
<trkpt lat="48.928795" lon="8.673865">
<ele>363.0</ele>
<speed>5.7</speed>
<course>70.6</course>
<desc>Speed 5.7 km/h Distance 4.68 km</desc>
<time>2010-02-25T17:10:25.93</time>
<name>3212</name>
</trkpt>
<trkpt lat="48.928800" lon="8.673887">
<ele>363.0</ele>
<speed>5.6</speed>
<course>70.6</course>
<desc>Speed 5.6 km/h Distance 4.68 km</desc>
<time>2010-02-25T17:10:26.93</time>
<name>3213</name>
</trkpt>
<trkpt lat="48.928805" lon="8.673908">
<ele>363.5</ele>
<speed>5.7</speed>
<course>75.8</course>
<desc>Speed 5.7 km/h Distance 4.68 km</desc>
<time>2010-02-25T17:10:27.94</time>
<name>3214</name>
</trkpt>
<trkpt lat="48.928808" lon="8.673928">
<ele>363.5</ele>
<speed>5.4</speed>
<course>76.8</course>
<desc>Speed 5.4 km/h Distance 4.68 km</desc>
<time>2010-02-25T17:10:28.93</time>
<name>3215</name>
</trkpt>
<trkpt lat="48.928812" lon="8.673950">
<ele>363.5</ele>
<speed>5.8</speed>
<course>75.8</course>
<desc>Speed 5.8 km/h Distance 4.68 km</desc>
<time>2010-02-25T17:10:29.93</time>
<name>3216</name>
</trkpt>
<trkpt lat="48.928815" lon="8.673970">
<ele>363.5</ele>
<speed>5.7</speed>
<course>70.6</course>
<desc>Speed 5.7 km/h Distance 4.69 km</desc>
<time>2010-02-25T17:10:30.93</time>
<name>3217</name>
</trkpt>
<trkpt lat="48.928820" lon="8.673992">
<ele>363.5</ele>
<speed>5.5</speed>
<course>75.8</course>
<desc>Speed 5.5 km/h Distance 4.69 km</desc>
<time>2010-02-25T17:10:31.93</time>
<name>3218</name>
</trkpt>
<trkpt lat="48.928823" lon="8.674012">
<ele>363.5</ele>
<speed>5.5</speed>
<course>90.0</course>
<desc>Speed 5.5 km/h Distance 4.69 km</desc>
<time>2010-02-25T17:10:32.93</time>
<name>3219</name>
</trkpt>
<trkpt lat="48.928823" lon="8.674033">
<ele>363.5</ele>
<speed>5.8</speed>
<course>82.8</course>
<desc>Speed 5.8 km/h Distance 4.69 km</desc>
<time>2010-02-25T17:10:33.93</time>
<name>3220</name>
</trkpt>
<trkpt lat="48.928825" lon="8.674053">
<ele>363.5</ele>
<speed>5.4</speed>
<course>69.2</course>
<desc>Speed 5.4 km/h Distance 4.69 km</desc>
<time>2010-02-25T17:10:34.93</time>
<name>3221</name>
</trkpt>
<trkpt lat="48.928830" lon="8.674073">
<ele>363.5</ele>
<speed>5.4</speed>
<course>70.6</course>
<desc>Speed 5.4 km/h Distance 4.69 km</desc>
<time>2010-02-25T17:10:35.93</time>
<name>3222</name>
</trkpt>
<trkpt lat="48.928835" lon="8.674095">
<ele>363.0</ele>
<speed>5.8</speed>
<course>69.2</course>
<desc>Speed 5.8 km/h Distance 4.70 km</desc>
<time>2010-02-25T17:10:36.93</time>
<name>3223</name>
</trkpt>
<trkpt lat="48.928840" lon="8.674115">
<ele>363.0</ele>
<speed>5.7</speed>
<course>63.1</course>
<desc>Speed 5.7 km/h Distance 4.70 km</desc>
<time>2010-02-25T17:10:37.93</time>
<name>3224</name>
</trkpt>
<trkpt lat="48.928847" lon="8.674135">
<ele>363.0</ele>
<speed>5.5</speed>
<course>55.3</course>
<desc>Speed 5.5 km/h Distance 4.70 km</desc>
<time>2010-02-25T17:10:38.93</time>
<name>3225</name>
</trkpt>
<trkpt lat="48.928855" lon="8.674153">
<ele>363.0</ele>
<speed>5.5</speed>
<course>43.3</course>
<desc>Speed 5.5 km/h Distance 4.70 km</desc>
<time>2010-02-25T17:10:39.94</time>
<name>3226</name>
</trkpt>
<trkpt lat="48.928867" lon="8.674170">
<ele>363.0</ele>
<speed>5.7</speed>
<course>55.4</course>
<desc>Speed 5.7 km/h Distance 4.70 km</desc>
<time>2010-02-25T17:10:40.93</time>
<name>3227</name>
</trkpt>
<trkpt lat="48.928875" lon="8.674188">
<ele>362.5</ele>
<speed>5.3</speed>
<course>58.7</course>
<desc>Speed 5.3 km/h Distance 4.70 km</desc>
<time>2010-02-25T17:10:41.93</time>
<name>3228</name>
</trkpt>
<trkpt lat="48.928882" lon="8.674205">
<ele>362.5</ele>
<speed>5.1</speed>
<course>30.0</course>
<desc>Speed 5.1 km/h Distance 4.70 km</desc>
<time>2010-02-25T17:10:42.93</time>
<name>3229</name>
</trkpt>
<trkpt lat="48.928895" lon="8.674217">
<ele>362.0</ele>
<speed>5.7</speed>
<course>18.1</course>
<desc>Speed 5.7 km/h Distance 4.71 km</desc>
<time>2010-02-25T17:10:43.93</time>
<name>3230</name>
</trkpt>
<trkpt lat="48.928912" lon="8.674225">
<ele>362.0</ele>
<speed>5.9</speed>
<course>13.6</course>
<desc>Speed 5.9 km/h Distance 4.71 km</desc>
<time>2010-02-25T17:10:44.93</time>
<name>3231</name>
</trkpt>
<trkpt lat="48.928930" lon="8.674232">
<ele>362.0</ele>
<speed>6.0</speed>
<course>9.0</course>
<desc>Speed 6.0 km/h Distance 4.71 km</desc>
<time>2010-02-25T17:10:45.93</time>
<name>3232</name>
</trkpt>
<trkpt lat="48.928952" lon="8.674237">
<ele>362.5</ele>
<speed>6.0</speed>
<course>18.2</course>
<desc>Speed 6.0 km/h Distance 4.71 km</desc>
<time>2010-02-25T17:10:46.93</time>
<name>3233</name>
</trkpt>
<trkpt lat="48.928972" lon="8.674247">
<ele>362.5</ele>
<speed>6.2</speed>
<course>13.6</course>
<desc>Speed 6.2 km/h Distance 4.72 km</desc>
<time>2010-02-25T17:10:47.93</time>
<name>3234</name>
</trkpt>
<trkpt lat="48.928990" lon="8.674253">
<ele>362.5</ele>
<speed>6.0</speed>
<course>18.1</course>
<desc>Speed 6.0 km/h Distance 4.72 km</desc>
<time>2010-02-25T17:10:48.93</time>
<name>3235</name>
</trkpt>
<trkpt lat="48.929007" lon="8.674262">
<ele>362.5</ele>
<speed>5.9</speed>
<course>18.1</course>
<desc>Speed 5.9 km/h Distance 4.72 km</desc>
<time>2010-02-25T17:10:49.93</time>
<name>3236</name>
</trkpt>
<trkpt lat="48.929023" lon="8.674270">
<ele>363.0</ele>
<speed>6.0</speed>
<course>18.1</course>
<desc>Speed 6.0 km/h Distance 4.72 km</desc>
<time>2010-02-25T17:10:50.93</time>
<name>3237</name>
</trkpt>
<trkpt lat="48.929040" lon="8.674278">
<ele>363.0</ele>
<speed>6.2</speed>
<course>16.6</course>
<desc>Speed 6.2 km/h Distance 4.72 km</desc>
<time>2010-02-25T17:10:51.93</time>
<name>3238</name>
</trkpt>
<trkpt lat="48.929055" lon="8.674285">
<ele>363.0</ele>
<speed>5.7</speed>
<course>18.4</course>
<desc>Speed 5.7 km/h Distance 4.72 km</desc>
<time>2010-02-25T17:10:52.93</time>
<name>3239</name>
</trkpt>
<trkpt lat="48.929068" lon="8.674292">
<ele>363.0</ele>
<speed>5.7</speed>
<course>20.1</course>
<desc>Speed 5.7 km/h Distance 4.73 km</desc>
<time>2010-02-25T17:10:53.93</time>
<name>3240</name>
</trkpt>
<trkpt lat="48.929083" lon="8.674300">
<ele>363.0</ele>
<speed>5.7</speed>
<course>18.1</course>
<desc>Speed 5.7 km/h Distance 4.73 km</desc>
<time>2010-02-25T17:10:54.93</time>
<name>3241</name>
</trkpt>
<trkpt lat="48.929097" lon="8.674307">
<ele>363.0</ele>
<speed>5.7</speed>
<course>11.7</course>
<desc>Speed 5.7 km/h Distance 4.73 km</desc>
<time>2010-02-25T17:10:55.93</time>
<name>3242</name>
</trkpt>
<trkpt lat="48.929112" lon="8.674312">
<ele>363.0</ele>
<speed>5.9</speed>
<course>12.6</course>
<desc>Speed 5.9 km/h Distance 4.73 km</desc>
<time>2010-02-25T17:10:56.93</time>
<name>3243</name>
</trkpt>
<trkpt lat="48.929127" lon="8.674317">
<ele>362.5</ele>
<speed>5.8</speed>
<course>16.6</course>
<desc>Speed 5.8 km/h Distance 4.73 km</desc>
<time>2010-02-25T17:10:57.92</time>
<name>3244</name>
</trkpt>
<trkpt lat="48.929142" lon="8.674323">
<ele>362.5</ele>
<speed>6.0</speed>
<course>16.0</course>
<desc>Speed 6.0 km/h Distance 4.74 km</desc>
<time>2010-02-25T17:10:58.93</time>
<name>3245</name>
</trkpt>
<trkpt lat="48.929157" lon="8.674330">
<ele>362.5</ele>
<speed>6.0</speed>
<course>18.1</course>
<desc>Speed 6.0 km/h Distance 4.74 km</desc>
<time>2010-02-25T17:10:59.92</time>
<name>3246</name>
</trkpt>
<trkpt lat="48.929173" lon="8.674338">
<ele>362.5</ele>
<speed>6.2</speed>
<course>23.7</course>
<desc>Speed 6.2 km/h Distance 4.74 km</desc>
<time>2010-02-25T17:11:00.92</time>
<name>3247</name>
</trkpt>
<trkpt lat="48.929188" lon="8.674348">
<ele>362.5</ele>
<speed>6.0</speed>
<course>12.6</course>
<desc>Speed 6.0 km/h Distance 4.74 km</desc>
<time>2010-02-25T17:11:01.92</time>
<name>3248</name>
</trkpt>
<trkpt lat="48.929203" lon="8.674353">
<ele>362.0</ele>
<speed>6.0</speed>
<course>26.0</course>
<desc>Speed 6.0 km/h Distance 4.74 km</desc>
<time>2010-02-25T17:11:02.92</time>
<name>3249</name>
</trkpt>
<trkpt lat="48.929217" lon="8.674363">
<ele>362.0</ele>
<speed>6.0</speed>
<course>26.0</course>
<desc>Speed 6.0 km/h Distance 4.74 km</desc>
<time>2010-02-25T17:11:03.92</time>
<name>3250</name>
</trkpt>
<trkpt lat="48.929230" lon="8.674373">
<ele>362.0</ele>
<speed>5.9</speed>
<course>29.8</course>
<desc>Speed 5.9 km/h Distance 4.75 km</desc>
<time>2010-02-25T17:11:04.92</time>
<name>3251</name>
</trkpt>
<trkpt lat="48.929243" lon="8.674385">
<ele>361.5</ele>
<speed>6.0</speed>
<course>29.8</course>
<desc>Speed 6.0 km/h Distance 4.75 km</desc>
<time>2010-02-25T17:11:05.92</time>
<name>3252</name>
</trkpt>
<trkpt lat="48.929257" lon="8.674397">
<ele>361.5</ele>
<speed>5.9</speed>
<course>22.1</course>
<desc>Speed 5.9 km/h Distance 4.75 km</desc>
<time>2010-02-25T17:11:06.92</time>
<name>3253</name>
</trkpt>
<trkpt lat="48.929270" lon="8.674405">
<ele>361.5</ele>
<speed>5.8</speed>
<course>18.1</course>
<desc>Speed 5.8 km/h Distance 4.75 km</desc>
<time>2010-02-25T17:11:07.92</time>
<name>3254</name>
</trkpt>
<trkpt lat="48.929283" lon="8.674412">
<ele>361.5</ele>
<speed>5.8</speed>
<course>16.3</course>
<desc>Speed 5.8 km/h Distance 4.75 km</desc>
<time>2010-02-25T17:11:08.92</time>
<name>3255</name>
</trkpt>
<trkpt lat="48.929298" lon="8.674418">
<ele>361.0</ele>
<speed>5.8</speed>
<course>26.2</course>
<desc>Speed 5.8 km/h Distance 4.75 km</desc>
<time>2010-02-25T17:11:09.92</time>
<name>3256</name>
</trkpt>
<trkpt lat="48.929312" lon="8.674428">
<ele>361.0</ele>
<speed>5.8</speed>
<course>22.1</course>
<desc>Speed 5.8 km/h Distance 4.76 km</desc>
<time>2010-02-25T17:11:10.93</time>
<name>3257</name>
</trkpt>
<trkpt lat="48.929325" lon="8.674437">
<ele>360.5</ele>
<speed>5.8</speed>
<course>23.7</course>
<desc>Speed 5.8 km/h Distance 4.76 km</desc>
<time>2010-02-25T17:11:11.92</time>
<name>3258</name>
</trkpt>
<trkpt lat="48.929340" lon="8.674447">
<ele>360.5</ele>
<speed>6.0</speed>
<course>20.1</course>
<desc>Speed 6.0 km/h Distance 4.76 km</desc>
<time>2010-02-25T17:11:12.92</time>
<name>3259</name>
</trkpt>
<trkpt lat="48.929355" lon="8.674455">
<ele>360.0</ele>
<speed>6.2</speed>
<course>22.3</course>
<desc>Speed 6.2 km/h Distance 4.76 km</desc>
<time>2010-02-25T17:11:13.92</time>
<name>3260</name>
</trkpt>
<trkpt lat="48.929368" lon="8.674463">
<ele>360.0</ele>
<speed>5.7</speed>
<course>20.1</course>
<desc>Speed 5.7 km/h Distance 4.76 km</desc>
<time>2010-02-25T17:11:14.92</time>
<name>3261</name>
</trkpt>
<trkpt lat="48.929383" lon="8.674472">
<ele>360.0</ele>
<speed>6.0</speed>
<course>23.5</course>
<desc>Speed 6.0 km/h Distance 4.76 km</desc>
<time>2010-02-25T17:11:15.92</time>
<name>3262</name>
</trkpt>
<trkpt lat="48.929398" lon="8.674482">
<ele>359.5</ele>
<speed>6.0</speed>
<course>19.9</course>
<desc>Speed 6.0 km/h Distance 4.77 km</desc>
<time>2010-02-25T17:11:16.92</time>
<name>3263</name>
</trkpt>
<trkpt lat="48.929413" lon="8.674490">
<ele>359.5</ele>
<speed>6.0</speed>
<course>19.9</course>
<desc>Speed 6.0 km/h Distance 4.77 km</desc>
<time>2010-02-25T17:11:17.91</time>
<name>3264</name>
</trkpt>
<trkpt lat="48.929428" lon="8.674498">
<ele>359.5</ele>
<speed>6.1</speed>
<course>20.1</course>
<desc>Speed 6.1 km/h Distance 4.77 km</desc>
<time>2010-02-25T17:11:18.92</time>
<name>3265</name>
</trkpt>
<trkpt lat="48.929443" lon="8.674507">
<ele>359.5</ele>
<speed>6.1</speed>
<course>16.6</course>
<desc>Speed 6.1 km/h Distance 4.77 km</desc>
<time>2010-02-25T17:11:19.91</time>
<name>3266</name>
</trkpt>
<trkpt lat="48.929458" lon="8.674513">
<ele>359.5</ele>
<speed>6.2</speed>
<course>20.1</course>
<desc>Speed 6.2 km/h Distance 4.77 km</desc>
<time>2010-02-25T17:11:20.91</time>
<name>3267</name>
</trkpt>
<trkpt lat="48.929473" lon="8.674522">
<ele>359.5</ele>
<speed>5.9</speed>
<course>12.2</course>
<desc>Speed 5.9 km/h Distance 4.77 km</desc>
<time>2010-02-25T17:11:21.91</time>
<name>3268</name>
</trkpt>
<trkpt lat="48.929488" lon="8.674527">
<ele>359.0</ele>
<speed>6.2</speed>
<course>20.1</course>
<desc>Speed 6.2 km/h Distance 4.78 km</desc>
<time>2010-02-25T17:11:22.91</time>
<name>3269</name>
</trkpt>
<trkpt lat="48.929503" lon="8.674535">
<ele>359.0</ele>
<speed>5.9</speed>
<course>22.1</course>
<desc>Speed 5.9 km/h Distance 4.78 km</desc>
<time>2010-02-25T17:11:23.91</time>
<name>3270</name>
</trkpt>
<trkpt lat="48.929517" lon="8.674543">
<ele>359.0</ele>
<speed>5.8</speed>
<course>19.9</course>
<desc>Speed 5.8 km/h Distance 4.78 km</desc>
<time>2010-02-25T17:11:24.91</time>
<name>3271</name>
</trkpt>
<trkpt lat="48.929532" lon="8.674552">
<ele>359.0</ele>
<speed>6.1</speed>
<course>26.2</course>
<desc>Speed 6.1 km/h Distance 4.78 km</desc>
<time>2010-02-25T17:11:25.91</time>
<name>3272</name>
</trkpt>
<trkpt lat="48.929545" lon="8.674562">
<ele>359.0</ele>
<speed>5.9</speed>
<course>20.1</course>
<desc>Speed 5.9 km/h Distance 4.78 km</desc>
<time>2010-02-25T17:11:26.91</time>
<name>3273</name>
</trkpt>
<trkpt lat="48.929560" lon="8.674570">
<ele>359.0</ele>
<speed>6.0</speed>
<course>20.1</course>
<desc>Speed 6.0 km/h Distance 4.79 km</desc>
<time>2010-02-25T17:11:27.91</time>
<name>3274</name>
</trkpt>
<trkpt lat="48.929575" lon="8.674578">
<ele>358.5</ele>
<speed>6.3</speed>
<course>23.7</course>
<desc>Speed 6.3 km/h Distance 4.79 km</desc>
<time>2010-02-25T17:11:28.91</time>
<name>3275</name>
</trkpt>
<trkpt lat="48.929590" lon="8.674588">
<ele>358.5</ele>
<speed>6.1</speed>
<course>16.6</course>
<desc>Speed 6.1 km/h Distance 4.79 km</desc>
<time>2010-02-25T17:11:29.91</time>
<name>3276</name>
</trkpt>
<trkpt lat="48.929605" lon="8.674595">
<ele>358.0</ele>
<speed>6.1</speed>
<course>12.6</course>
<desc>Speed 6.1 km/h Distance 4.79 km</desc>
<time>2010-02-25T17:11:30.91</time>
<name>3277</name>
</trkpt>
<trkpt lat="48.929620" lon="8.674600">
<ele>357.5</ele>
<speed>6.1</speed>
<course>14.9</course>
<desc>Speed 6.1 km/h Distance 4.79 km</desc>
<time>2010-02-25T17:11:31.91</time>
<name>3278</name>
</trkpt>
<trkpt lat="48.929637" lon="8.674607">
<ele>357.5</ele>
<speed>6.1</speed>
<course>11.7</course>
<desc>Speed 6.1 km/h Distance 4.79 km</desc>
<time>2010-02-25T17:11:32.91</time>
<name>3279</name>
</trkpt>
<trkpt lat="48.929652" lon="8.674612">
<ele>357.5</ele>
<speed>6.1</speed>
<course>20.1</course>
<desc>Speed 6.1 km/h Distance 4.80 km</desc>
<time>2010-02-25T17:11:33.91</time>
<name>3280</name>
</trkpt>
<trkpt lat="48.929667" lon="8.674620">
<ele>357.0</ele>
<speed>6.2</speed>
<course>16.0</course>
<desc>Speed 6.2 km/h Distance 4.80 km</desc>
<time>2010-02-25T17:11:34.91</time>
<name>3281</name>
</trkpt>
<trkpt lat="48.929682" lon="8.674627">
<ele>357.0</ele>
<speed>6.1</speed>
<course>19.6</course>
<desc>Speed 6.1 km/h Distance 4.80 km</desc>
<time>2010-02-25T17:11:35.91</time>
<name>3282</name>
</trkpt>
<trkpt lat="48.929697" lon="8.674635">
<ele>356.5</ele>
<speed>6.1</speed>
<course>20.1</course>
<desc>Speed 6.1 km/h Distance 4.80 km</desc>
<time>2010-02-25T17:11:36.91</time>
<name>3283</name>
</trkpt>
<trkpt lat="48.929712" lon="8.674643">
<ele>356.0</ele>
<speed>6.2</speed>
<course>20.1</course>
<desc>Speed 6.2 km/h Distance 4.80 km</desc>
<time>2010-02-25T17:11:37.91</time>
<name>3284</name>
</trkpt>
<trkpt lat="48.929727" lon="8.674652">
<ele>355.5</ele>
<speed>6.0</speed>
<course>18.1</course>
<desc>Speed 6.0 km/h Distance 4.80 km</desc>
<time>2010-02-25T17:11:38.91</time>
<name>3285</name>
</trkpt>
<trkpt lat="48.929740" lon="8.674658">
<ele>355.5</ele>
<speed>6.1</speed>
<course>20.1</course>
<desc>Speed 6.1 km/h Distance 4.81 km</desc>
<time>2010-02-25T17:11:39.91</time>
<name>3286</name>
</trkpt>
<trkpt lat="48.929755" lon="8.674667">
<ele>355.0</ele>
<speed>6.0</speed>
<course>33.4</course>
<desc>Speed 6.0 km/h Distance 4.81 km</desc>
<time>2010-02-25T17:11:40.91</time>
<name>3287</name>
</trkpt>
<trkpt lat="48.929767" lon="8.674678">
<ele>354.5</ele>
<speed>5.8</speed>
<course>20.1</course>
<desc>Speed 5.8 km/h Distance 4.81 km</desc>
<time>2010-02-25T17:11:41.91</time>
<name>3288</name>
</trkpt>
<trkpt lat="48.929782" lon="8.674687">
<ele>354.5</ele>
<speed>5.8</speed>
<course>13.5</course>
<desc>Speed 5.8 km/h Distance 4.81 km</desc>
<time>2010-02-25T17:11:42.91</time>
<name>3289</name>
</trkpt>
<trkpt lat="48.929795" lon="8.674692">
<ele>354.0</ele>
<speed>5.9</speed>
<course>7.5</course>
<desc>Speed 5.9 km/h Distance 4.81 km</desc>
<time>2010-02-25T17:11:43.91</time>
<name>3290</name>
</trkpt>
<trkpt lat="48.929810" lon="8.674695">
<ele>353.5</ele>
<speed>5.9</speed>
<course>3.9</course>
<desc>Speed 5.9 km/h Distance 4.81 km</desc>
<time>2010-02-25T17:11:44.91</time>
<name>3291</name>
</trkpt>
<trkpt lat="48.929823" lon="8.674697">
<ele>353.5</ele>
<speed>5.5</speed>
<course>8.1</course>
<desc>Speed 5.5 km/h Distance 4.82 km</desc>
<time>2010-02-25T17:11:45.91</time>
<name>3292</name>
</trkpt>
<trkpt lat="48.929838" lon="8.674700">
<ele>353.5</ele>
<speed>5.8</speed>
<course>9.0</course>
<desc>Speed 5.8 km/h Distance 4.82 km</desc>
<time>2010-02-25T17:11:46.90</time>
<name>3293</name>
</trkpt>
<trkpt lat="48.929852" lon="8.674703">
<ele>353.0</ele>
<speed>5.7</speed>
<course>3.8</course>
<desc>Speed 5.7 km/h Distance 4.82 km</desc>
<time>2010-02-25T17:11:47.90</time>
<name>3294</name>
</trkpt>
<trkpt lat="48.929867" lon="8.674705">
<ele>353.0</ele>
<speed>5.7</speed>
<course>3.8</course>
<desc>Speed 5.7 km/h Distance 4.82 km</desc>
<time>2010-02-25T17:11:48.90</time>
<name>3295</name>
</trkpt>
<trkpt lat="48.929882" lon="8.674705">
<ele>352.5</ele>
<speed>5.5</speed>
<course>356.1</course>
<desc>Speed 5.5 km/h Distance 4.82 km</desc>
<time>2010-02-25T17:11:49.90</time>
<name>3296</name>
</trkpt>
<trkpt lat="48.929895" lon="8.674703">
<ele>352.0</ele>
<speed>5.4</speed>
<course>0.0</course>
<desc>Speed 5.4 km/h Distance 4.82 km</desc>
<time>2010-02-25T17:11:50.91</time>
<name>3297</name>
</trkpt>
<trkpt lat="48.929910" lon="8.674703">
<ele>351.5</ele>
<speed>5.9</speed>
<course>8.8</course>
<desc>Speed 5.9 km/h Distance 4.83 km</desc>
<time>2010-02-25T17:11:51.90</time>
<name>3298</name>
</trkpt>
<trkpt lat="48.929925" lon="8.674707">
<ele>351.5</ele>
<speed>6.1</speed>
<course>14.0</course>
<desc>Speed 6.1 km/h Distance 4.83 km</desc>
<time>2010-02-25T17:11:52.90</time>
<name>3299</name>
</trkpt>
<trkpt lat="48.929938" lon="8.674712">
<ele>351.0</ele>
<speed>5.3</speed>
<course>12.6</course>
<desc>Speed 5.3 km/h Distance 4.83 km</desc>
<time>2010-02-25T17:11:53.90</time>
<name>3300</name>
</trkpt>
<trkpt lat="48.929953" lon="8.674717">
<ele>350.0</ele>
<speed>6.0</speed>
<course>1.9</course>
<desc>Speed 6.0 km/h Distance 4.83 km</desc>
<time>2010-02-25T17:11:54.90</time>
<name>3301</name>
</trkpt>
<trkpt lat="48.929968" lon="8.674717">
<ele>349.5</ele>
<speed>5.8</speed>
<course>14.4</course>
<desc>Speed 5.8 km/h Distance 4.83 km</desc>
<time>2010-02-25T17:11:55.90</time>
<name>3302</name>
</trkpt>
<trkpt lat="48.929982" lon="8.674722">
<ele>349.5</ele>
<speed>5.4</speed>
<course>16.6</course>
<desc>Speed 5.4 km/h Distance 4.83 km</desc>
<time>2010-02-25T17:11:56.90</time>
<name>3303</name>
</trkpt>
<trkpt lat="48.929997" lon="8.674728">
<ele>349.5</ele>
<speed>6.0</speed>
<course>16.3</course>
<desc>Speed 6.0 km/h Distance 4.84 km</desc>
<time>2010-02-25T17:11:57.90</time>
<name>3304</name>
</trkpt>
<trkpt lat="48.930012" lon="8.674735">
<ele>349.0</ele>
<speed>5.7</speed>
<course>9.0</course>
<desc>Speed 5.7 km/h Distance 4.84 km</desc>
<time>2010-02-25T17:11:58.90</time>
<name>3305</name>
</trkpt>
<trkpt lat="48.930025" lon="8.674738">
<ele>349.0</ele>
<speed>5.4</speed>
<course>13.5</course>
<desc>Speed 5.4 km/h Distance 4.84 km</desc>
<time>2010-02-25T17:11:59.90</time>
<name>3306</name>
</trkpt>
<trkpt lat="48.930038" lon="8.674743">
<ele>349.5</ele>
<speed>5.2</speed>
<course>13.5</course>
<desc>Speed 5.2 km/h Distance 4.84 km</desc>
<time>2010-02-25T17:12:00.91</time>
<name>3307</name>
</trkpt>
<trkpt lat="48.930052" lon="8.674748">
<ele>350.0</ele>
<speed>4.8</speed>
<course>9.5</course>
<desc>Speed 4.8 km/h Distance 4.84 km</desc>
<time>2010-02-25T17:12:01.90</time>
<name>3308</name>
</trkpt>
<trkpt lat="48.930063" lon="8.674752">
<ele>349.0</ele>
<speed>4.9</speed>
<course>9.0</course>
<desc>Speed 4.9 km/h Distance 4.84 km</desc>
<time>2010-02-25T17:12:02.90</time>
<name>3309</name>
</trkpt>
<trkpt lat="48.930077" lon="8.674755">
<ele>349.5</ele>
<speed>4.9</speed>
<course>0.0</course>
<desc>Speed 4.9 km/h Distance 4.84 km</desc>
<time>2010-02-25T17:12:03.90</time>
<name>3310</name>
</trkpt>
<trkpt lat="48.930088" lon="8.674755">
<ele>349.5</ele>
<speed>4.6</speed>
<course>339.4</course>
<desc>Speed 4.6 km/h Distance 4.85 km</desc>
<time>2010-02-25T17:12:04.90</time>
<name>3311</name>
</trkpt>
<trkpt lat="48.930100" lon="8.674748">
<ele>349.5</ele>
<speed>4.5</speed>
<course>331.4</course>
<desc>Speed 4.5 km/h Distance 4.85 km</desc>
<time>2010-02-25T17:12:05.90</time>
<name>3312</name>
</trkpt>
<trkpt lat="48.930110" lon="8.674740">
<ele>349.5</ele>
<speed>4.9</speed>
<course>294.6</course>
<desc>Speed 4.9 km/h Distance 4.85 km</desc>
<time>2010-02-25T17:12:06.90</time>
<name>3313</name>
</trkpt>
<trkpt lat="48.930115" lon="8.674723">
<ele>351.0</ele>
<speed>5.0</speed>
<course>322.5</course>
<desc>Speed 5.0 km/h Distance 4.85 km</desc>
<time>2010-02-25T17:12:07.90</time>
<name>3314</name>
</trkpt>
<trkpt lat="48.930125" lon="8.674712">
<ele>351.0</ele>
<speed>4.3</speed>
<course>339.4</course>
<desc>Speed 4.3 km/h Distance 4.85 km</desc>
<time>2010-02-25T17:12:08.90</time>
<name>3315</name>
</trkpt>
<trkpt lat="48.930137" lon="8.674705">
<ele>349.5</ele>
<speed>4.7</speed>
<course>331.4</course>
<desc>Speed 4.7 km/h Distance 4.85 km</desc>
<time>2010-02-25T17:12:09.90</time>
<name>3316</name>
</trkpt>
<trkpt lat="48.930147" lon="8.674697">
<ele>349.5</ele>
<speed>4.4</speed>
<course>334.8</course>
<desc>Speed 4.4 km/h Distance 4.85 km</desc>
<time>2010-02-25T17:12:10.91</time>
<name>3317</name>
</trkpt>
<trkpt lat="48.930158" lon="8.674688">
<ele>349.0</ele>
<speed>4.8</speed>
<course>339.1</course>
<desc>Speed 4.8 km/h Distance 4.86 km</desc>
<time>2010-02-25T17:12:11.90</time>
<name>3318</name>
</trkpt>
<trkpt lat="48.930170" lon="8.674682">
<ele>348.0</ele>
<speed>5.0</speed>
<course>346.5</course>
<desc>Speed 5.0 km/h Distance 4.86 km</desc>
<time>2010-02-25T17:12:12.90</time>
<name>3319</name>
</trkpt>
<trkpt lat="48.930183" lon="8.674677">
<ele>348.0</ele>
<speed>5.1</speed>
<course>334.0</course>
<desc>Speed 5.1 km/h Distance 4.86 km</desc>
<time>2010-02-25T17:12:13.90</time>
<name>3320</name>
</trkpt>
<trkpt lat="48.930197" lon="8.674667">
<ele>348.5</ele>
<speed>5.5</speed>
<course>339.1</course>
<desc>Speed 5.5 km/h Distance 4.86 km</desc>
<time>2010-02-25T17:12:14.90</time>
<name>3321</name>
</trkpt>
<trkpt lat="48.930208" lon="8.674660">
<ele>348.5</ele>
<speed>4.5</speed>
<course>339.1</course>
<desc>Speed 4.5 km/h Distance 4.86 km</desc>
<time>2010-02-25T17:12:15.90</time>
<name>3322</name>
</trkpt>
<trkpt lat="48.930220" lon="8.674653">
<ele>348.5</ele>
<speed>5.0</speed>
<course>346.5</course>
<desc>Speed 5.0 km/h Distance 4.86 km</desc>
<time>2010-02-25T17:12:16.90</time>
<name>3323</name>
</trkpt>
<trkpt lat="48.930233" lon="8.674648">
<ele>348.0</ele>
<speed>4.9</speed>
<course>331.4</course>
<desc>Speed 4.9 km/h Distance 4.86 km</desc>
<time>2010-02-25T17:12:17.89</time>
<name>3324</name>
</trkpt>
<trkpt lat="48.930243" lon="8.674640">
<ele>348.5</ele>
<speed>4.2</speed>
<course>353.4</course>
<desc>Speed 4.2 km/h Distance 4.87 km</desc>
<time>2010-02-25T17:12:18.89</time>
<name>3325</name>
</trkpt>
<trkpt lat="48.930253" lon="8.674638">
<ele>348.0</ele>
<speed>4.2</speed>
<course>339.1</course>
<desc>Speed 4.2 km/h Distance 4.87 km</desc>
<time>2010-02-25T17:12:19.89</time>
<name>3326</name>
</trkpt>
<trkpt lat="48.930265" lon="8.674632">
<ele>347.5</ele>
<speed>4.8</speed>
<course>339.1</course>
<desc>Speed 4.8 km/h Distance 4.87 km</desc>
<time>2010-02-25T17:12:20.89</time>
<name>3327</name>
</trkpt>
<trkpt lat="48.930277" lon="8.674625">
<ele>347.0</ele>
<speed>4.6</speed>
<course>326.8</course>
<desc>Speed 4.6 km/h Distance 4.87 km</desc>
<time>2010-02-25T17:12:21.90</time>
<name>3328</name>
</trkpt>
<trkpt lat="48.930287" lon="8.674615">
<ele>347.5</ele>
<speed>5.0</speed>
<course>339.4</course>
<desc>Speed 5.0 km/h Distance 4.87 km</desc>
<time>2010-02-25T17:12:22.89</time>
<name>3329</name>
</trkpt>
<trkpt lat="48.930298" lon="8.674608">
<ele>347.0</ele>
<speed>4.5</speed>
<course>339.8</course>
<desc>Speed 4.5 km/h Distance 4.87 km</desc>
<time>2010-02-25T17:12:23.90</time>
<name>3330</name>
</trkpt>
<trkpt lat="48.930310" lon="8.674602">
<ele>346.5</ele>
<speed>4.7</speed>
<course>332.1</course>
<desc>Speed 4.7 km/h Distance 4.87 km</desc>
<time>2010-02-25T17:12:24.90</time>
<name>3331</name>
</trkpt>
<trkpt lat="48.930318" lon="8.674595">
<ele>346.5</ele>
<speed>3.9</speed>
<course>339.4</course>
<desc>Speed 3.9 km/h Distance 4.87 km</desc>
<time>2010-02-25T17:12:25.90</time>
<name>3332</name>
</trkpt>
<trkpt lat="48.930330" lon="8.674588">
<ele>346.5</ele>
<speed>4.4</speed>
<course>312.2</course>
<desc>Speed 4.4 km/h Distance 4.88 km</desc>
<time>2010-02-25T17:12:26.90</time>
<name>3333</name>
</trkpt>
<trkpt lat="48.930335" lon="8.674580">
<ele>346.5</ele>
<speed>3.0</speed>
<course>331.1</course>
<desc>Speed 3.0 km/h Distance 4.88 km</desc>
<time>2010-02-25T17:12:27.89</time>
<name>3334</name>
</trkpt>
<trkpt lat="48.930345" lon="8.674572">
<ele>346.5</ele>
<speed>4.0</speed>
<course>338.5</course>
<desc>Speed 4.0 km/h Distance 4.88 km</desc>
<time>2010-02-25T17:12:28.89</time>
<name>3335</name>
</trkpt>
<trkpt lat="48.930353" lon="8.674567">
<ele>346.5</ele>
<speed>3.1</speed>
<course>326.3</course>
<desc>Speed 3.1 km/h Distance 4.88 km</desc>
<time>2010-02-25T17:12:29.90</time>
<name>3336</name>
</trkpt>
<trkpt lat="48.930360" lon="8.674560">
<ele>346.5</ele>
<speed>2.8</speed>
<course>338.5</course>
<desc>Speed 2.8 km/h Distance 4.88 km</desc>
<time>2010-02-25T17:12:30.90</time>
<name>3337</name>
</trkpt>
<trkpt lat="48.930368" lon="8.674555">
<ele>346.0</ele>
<speed>3.3</speed>
<course>317.4</course>
<desc>Speed 3.3 km/h Distance 4.88 km</desc>
<time>2010-02-25T17:12:31.90</time>
<name>3338</name>
</trkpt>
<trkpt lat="48.930377" lon="8.674543">
<ele>346.0</ele>
<speed>4.0</speed>
<course>326.2</course>
<desc>Speed 4.0 km/h Distance 4.88 km</desc>
<time>2010-02-25T17:12:32.89</time>
<name>3339</name>
</trkpt>
<trkpt lat="48.930385" lon="8.674535">
<ele>346.0</ele>
<speed>3.7</speed>
<course>313.5</course>
<desc>Speed 3.7 km/h Distance 4.88 km</desc>
<time>2010-02-25T17:12:33.89</time>
<name>3340</name>
</trkpt>
<trkpt lat="48.930393" lon="8.674522">
<ele>345.0</ele>
<speed>4.1</speed>
<course>322.5</course>
<desc>Speed 4.1 km/h Distance 4.88 km</desc>
<time>2010-02-25T17:12:34.89</time>
<name>3341</name>
</trkpt>
<trkpt lat="48.930403" lon="8.674510">
<ele>345.0</ele>
<speed>4.2</speed>
<course>341.9</course>
<desc>Speed 4.2 km/h Distance 4.89 km</desc>
<time>2010-02-25T17:12:35.89</time>
<name>3342</name>
</trkpt>
<trkpt lat="48.930417" lon="8.674503">
<ele>343.5</ele>
<speed>3.7</speed>
<course>337.9</course>
<desc>Speed 3.7 km/h Distance 4.89 km</desc>
<time>2010-02-25T17:12:36.89</time>
<name>3343</name>
</trkpt>
<trkpt lat="48.930430" lon="8.674495">
<ele>342.5</ele>
<speed>4.3</speed>
<course>348.4</course>
<desc>Speed 4.3 km/h Distance 4.89 km</desc>
<time>2010-02-25T17:12:37.89</time>
<name>3344</name>
</trkpt>
<trkpt lat="48.930440" lon="8.674492">
<ele>342.0</ele>
<speed>3.3</speed>
<course>0.0</course>
<desc>Speed 3.3 km/h Distance 4.89 km</desc>
<time>2010-02-25T17:12:38.89</time>
<name>3345</name>
</trkpt>
<trkpt lat="48.930450" lon="8.674492">
<ele>341.5</ele>
<speed>3.2</speed>
<course>355.0</course>
<desc>Speed 3.2 km/h Distance 4.89 km</desc>
<time>2010-02-25T17:12:39.89</time>
<name>3346</name>
</trkpt>
<trkpt lat="48.930458" lon="8.674490">
<ele>340.5</ele>
<speed>2.5</speed>
<course>338.5</course>
<desc>Speed 2.5 km/h Distance 4.89 km</desc>
<time>2010-02-25T17:12:40.89</time>
<name>3347</name>
</trkpt>
<trkpt lat="48.930467" lon="8.674485">
<ele>340.5</ele>
<speed>3.1</speed>
<course>336.2</course>
<desc>Speed 3.1 km/h Distance 4.89 km</desc>
<time>2010-02-25T17:12:41.89</time>
<name>3348</name>
</trkpt>
<trkpt lat="48.930477" lon="8.674478">
<ele>341.0</ele>
<speed>3.3</speed>
<course>341.2</course>
<desc>Speed 3.3 km/h Distance 4.89 km</desc>
<time>2010-02-25T17:12:42.89</time>
<name>3349</name>
</trkpt>
<trkpt lat="48.930483" lon="8.674475">
<ele>341.0</ele>
<speed>3.2</speed>
<course>349.8</course>
<desc>Speed 3.2 km/h Distance 4.90 km</desc>
<time>2010-02-25T17:12:43.89</time>
<name>3350</name>
</trkpt>
<trkpt lat="48.930502" lon="8.674470">
<ele>341.0</ele>
<speed>7.2</speed>
<course>5.0</course>
<desc>Speed 7.2 km/h Distance 4.90 km</desc>
<time>2010-02-25T17:12:44.89</time>
<name>3351</name>
</trkpt>
<trkpt lat="48.930510" lon="8.674472">
<ele>340.5</ele>
<speed>3.3</speed>
<course>1.2</course>
<desc>Speed 3.3 km/h Distance 4.90 km</desc>
<time>2010-02-25T17:12:45.89</time>
<name>3352</name>
</trkpt>
<trkpt lat="48.930517" lon="8.674472">
<ele>340.0</ele>
<speed>2.7</speed>
<course>352.6</course>
<desc>Speed 2.7 km/h Distance 4.90 km</desc>
<time>2010-02-25T17:12:46.89</time>
<name>3353</name>
</trkpt>
<trkpt lat="48.930523" lon="8.674470">
<ele>339.5</ele>
<speed>2.5</speed>
<course>346.2</course>
<desc>Speed 2.5 km/h Distance 4.90 km</desc>
<time>2010-02-25T17:12:47.89</time>
<name>3354</name>
</trkpt>
<trkpt lat="48.930532" lon="8.674467">
<ele>339.5</ele>
<speed>3.6</speed>
<course>341.8</course>
<desc>Speed 3.6 km/h Distance 4.90 km</desc>
<time>2010-02-25T17:12:48.89</time>
<name>3355</name>
</trkpt>
<trkpt lat="48.930542" lon="8.674462">
<ele>339.5</ele>
<speed>3.7</speed>
<course>0.0</course>
<desc>Speed 3.7 km/h Distance 4.90 km</desc>
<time>2010-02-25T17:12:49.89</time>
<name>3356</name>
</trkpt>
<trkpt lat="48.930550" lon="8.674462">
<ele>339.5</ele>
<speed>2.7</speed>
<course>7.4</course>
<desc>Speed 2.7 km/h Distance 4.90 km</desc>
<time>2010-02-25T17:12:50.89</time>
<name>3357</name>
</trkpt>
<trkpt lat="48.930557" lon="8.674463">
<ele>338.5</ele>
<speed>2.4</speed>
<course>355.0</course>
<desc>Speed 2.4 km/h Distance 4.90 km</desc>
<time>2010-02-25T17:12:51.89</time>
<name>3358</name>
</trkpt>
<trkpt lat="48.930565" lon="8.674462">
<ele>338.0</ele>
<speed>2.6</speed>
<course>319.1</course>
<desc>Speed 2.6 km/h Distance 4.90 km</desc>
<time>2010-02-25T17:12:52.88</time>
<name>3359</name>
</trkpt>
<trkpt lat="48.930570" lon="8.674455">
<ele>339.0</ele>
<speed>2.6</speed>
<course>345.1</course>
<desc>Speed 2.6 km/h Distance 4.91 km</desc>
<time>2010-02-25T17:12:53.89</time>
<name>3360</name>
</trkpt>
<trkpt lat="48.930578" lon="8.674452">
<ele>338.0</ele>
<speed>2.6</speed>
<course>0.0</course>
<desc>Speed 2.6 km/h Distance 4.91 km</desc>
<time>2010-02-25T17:12:54.89</time>
<name>3361</name>
</trkpt>
<trkpt lat="48.930587" lon="8.674452">
<ele>338.0</ele>
<speed>3.1</speed>
<course>321.0</course>
<desc>Speed 3.1 km/h Distance 4.91 km</desc>
<time>2010-02-25T17:12:55.89</time>
<name>3362</name>
</trkpt>
<trkpt lat="48.930593" lon="8.674443">
<ele>338.5</ele>
<speed>2.9</speed>
<course>337.8</course>
<desc>Speed 2.9 km/h Distance 4.91 km</desc>
<time>2010-02-25T17:12:56.89</time>
<name>3363</name>
</trkpt>
<trkpt lat="48.930598" lon="8.674440">
<ele>339.0</ele>
<speed>2.4</speed>
<course>345.1</course>
<desc>Speed 2.4 km/h Distance 4.91 km</desc>
<time>2010-02-25T17:12:57.89</time>
<name>3364</name>
</trkpt>
<trkpt lat="48.930607" lon="8.674437">
<ele>338.5</ele>
<speed>3.0</speed>
<course>338.5</course>
<desc>Speed 3.0 km/h Distance 4.91 km</desc>
<time>2010-02-25T17:12:58.89</time>
<name>3365</name>
</trkpt>
<trkpt lat="48.930615" lon="8.674432">
<ele>338.5</ele>
<speed>2.9</speed>
<course>347.4</course>
<desc>Speed 2.9 km/h Distance 4.91 km</desc>
<time>2010-02-25T17:12:59.89</time>
<name>3366</name>
</trkpt>
<trkpt lat="48.930620" lon="8.674430">
<ele>338.5</ele>
<speed>2.1</speed>
<course>318.1</course>
<desc>Speed 2.1 km/h Distance 4.91 km</desc>
<time>2010-02-25T17:13:00.88</time>
<name>3367</name>
</trkpt>
<trkpt lat="48.930625" lon="8.674423">
<ele>339.0</ele>
<speed>2.3</speed>
<course>347.4</course>
<desc>Speed 2.3 km/h Distance 4.91 km</desc>
<time>2010-02-25T17:13:01.88</time>
<name>3368</name>
</trkpt>
<trkpt lat="48.930630" lon="8.674422">
<ele>339.5</ele>
<speed>2.5</speed>
<course>12.6</course>
<desc>Speed 2.5 km/h Distance 4.91 km</desc>
<time>2010-02-25T17:13:02.88</time>
<name>3369</name>
</trkpt>
<trkpt lat="48.930633" lon="8.674422">
<ele>340.0</ele>
<speed>1.7</speed>
<course>326.3</course>
<desc>Speed 1.7 km/h Distance 4.91 km</desc>
<time>2010-02-25T17:13:03.88</time>
<name>3370</name>
</trkpt>
<trkpt lat="48.930637" lon="8.674418">
<ele>340.0</ele>
<speed>1.4</speed>
<course>290.9</course>
<desc>Speed 1.4 km/h Distance 4.91 km</desc>
<time>2010-02-25T17:13:04.88</time>
<name>3371</name>
</trkpt>
<trkpt lat="48.930638" lon="8.674412">
<ele>340.5</ele>
<speed>1.0</speed>
<course>290.9</course>
<desc>Speed 1.0 km/h Distance 4.91 km</desc>
<time>2010-02-25T17:13:05.88</time>
<name>3372</name>
</trkpt>
<trkpt lat="48.930642" lon="8.674398">
<ele>341.5</ele>
<speed>2.6</speed>
<course>326.8</course>
<desc>Speed 2.6 km/h Distance 4.92 km</desc>
<time>2010-02-25T17:13:06.88</time>
<name>3373</name>
</trkpt>
<trkpt lat="48.930652" lon="8.674388">
<ele>341.0</ele>
<speed>4.0</speed>
<course>322.5</course>
<desc>Speed 4.0 km/h Distance 4.92 km</desc>
<time>2010-02-25T17:13:07.88</time>
<name>3374</name>
</trkpt>
<trkpt lat="48.930662" lon="8.674377">
<ele>340.5</ele>
<speed>4.1</speed>
<course>322.5</course>
<desc>Speed 4.1 km/h Distance 4.92 km</desc>
<time>2010-02-25T17:13:08.88</time>
<name>3375</name>
</trkpt>
<trkpt lat="48.930672" lon="8.674365">
<ele>339.5</ele>
<speed>4.0</speed>
<course>339.4</course>
<desc>Speed 4.0 km/h Distance 4.92 km</desc>
<time>2010-02-25T17:13:09.88</time>
<name>3376</name>
</trkpt>
<trkpt lat="48.930683" lon="8.674358">
<ele>339.5</ele>
<speed>4.2</speed>
<course>335.1</course>
<desc>Speed 4.2 km/h Distance 4.92 km</desc>
<time>2010-02-25T17:13:10.89</time>
<name>3377</name>
</trkpt>
<trkpt lat="48.930695" lon="8.674350">
<ele>339.0</ele>
<speed>4.0</speed>
<course>337.0</course>
<desc>Speed 4.0 km/h Distance 4.92 km</desc>
<time>2010-02-25T17:13:11.88</time>
<name>3378</name>
</trkpt>
<trkpt lat="48.930705" lon="8.674343">
<ele>338.5</ele>
<speed>3.7</speed>
<course>336.6</course>
<desc>Speed 3.7 km/h Distance 4.92 km</desc>
<time>2010-02-25T17:13:12.88</time>
<name>3379</name>
</trkpt>
<trkpt lat="48.930715" lon="8.674337">
<ele>339.0</ele>
<speed>4.0</speed>
<course>330.6</course>
<desc>Speed 4.0 km/h Distance 4.92 km</desc>
<time>2010-02-25T17:13:13.88</time>
<name>3380</name>
</trkpt>
<trkpt lat="48.930727" lon="8.674327">
<ele>338.5</ele>
<speed>3.9</speed>
<course>341.9</course>
<desc>Speed 3.9 km/h Distance 4.93 km</desc>
<time>2010-02-25T17:13:14.88</time>
<name>3381</name>
</trkpt>
<trkpt lat="48.930740" lon="8.674320">
<ele>337.5</ele>
<speed>4.0</speed>
<course>341.9</course>
<desc>Speed 4.0 km/h Distance 4.93 km</desc>
<time>2010-02-25T17:13:15.88</time>
<name>3382</name>
</trkpt>
<trkpt lat="48.930753" lon="8.674313">
<ele>337.0</ele>
<speed>3.9</speed>
<course>344.0</course>
<desc>Speed 3.9 km/h Distance 4.93 km</desc>
<time>2010-02-25T17:13:16.88</time>
<name>3383</name>
</trkpt>
<trkpt lat="48.930765" lon="8.674308">
<ele>336.5</ele>
<speed>3.7</speed>
<course>344.0</course>
<desc>Speed 3.7 km/h Distance 4.93 km</desc>
<time>2010-02-25T17:13:17.88</time>
<name>3384</name>
</trkpt>
<trkpt lat="48.930777" lon="8.674303">
<ele>336.0</ele>
<speed>4.0</speed>
<course>344.5</course>
<desc>Speed 4.0 km/h Distance 4.93 km</desc>
<time>2010-02-25T17:13:18.88</time>
<name>3385</name>
</trkpt>
<trkpt lat="48.930788" lon="8.674298">
<ele>335.5</ele>
<speed>4.2</speed>
<course>341.9</course>
<desc>Speed 4.2 km/h Distance 4.93 km</desc>
<time>2010-02-25T17:13:19.88</time>
<name>3386</name>
</trkpt>
<trkpt lat="48.930802" lon="8.674292">
<ele>335.5</ele>
<speed>4.5</speed>
<course>337.4</course>
<desc>Speed 4.5 km/h Distance 4.93 km</desc>
<time>2010-02-25T17:13:20.88</time>
<name>3387</name>
</trkpt>
<trkpt lat="48.930815" lon="8.674283">
<ele>335.0</ele>
<speed>4.4</speed>
<course>330.6</course>
<desc>Speed 4.4 km/h Distance 4.94 km</desc>
<time>2010-02-25T17:13:21.88</time>
<name>3388</name>
</trkpt>
<trkpt lat="48.930827" lon="8.674273">
<ele>335.0</ele>
<speed>4.1</speed>
<course>326.6</course>
<desc>Speed 4.1 km/h Distance 4.94 km</desc>
<time>2010-02-25T17:13:22.88</time>
<name>3389</name>
</trkpt>
<trkpt lat="48.930837" lon="8.674263">
<ele>335.0</ele>
<speed>4.0</speed>
<course>330.6</course>
<desc>Speed 4.0 km/h Distance 4.94 km</desc>
<time>2010-02-25T17:13:23.88</time>
<name>3390</name>
</trkpt>
<trkpt lat="48.930848" lon="8.674253">
<ele>335.0</ele>
<speed>4.1</speed>
<course>339.1</course>
<desc>Speed 4.1 km/h Distance 4.94 km</desc>
<time>2010-02-25T17:13:24.87</time>
<name>3391</name>
</trkpt>
<trkpt lat="48.930860" lon="8.674247">
<ele>335.5</ele>
<speed>4.4</speed>
<course>334.8</course>
<desc>Speed 4.4 km/h Distance 4.94 km</desc>
<time>2010-02-25T17:13:25.87</time>
<name>3392</name>
</trkpt>
<trkpt lat="48.930872" lon="8.674238">
<ele>335.0</ele>
<speed>4.1</speed>
<course>331.4</course>
<desc>Speed 4.1 km/h Distance 4.94 km</desc>
<time>2010-02-25T17:13:26.87</time>
<name>3393</name>
</trkpt>
<trkpt lat="48.930882" lon="8.674230">
<ele>335.0</ele>
<speed>4.1</speed>
<course>326.8</course>
<desc>Speed 4.1 km/h Distance 4.94 km</desc>
<time>2010-02-25T17:13:27.87</time>
<name>3394</name>
</trkpt>
<trkpt lat="48.930892" lon="8.674220">
<ele>335.5</ele>
<speed>4.3</speed>
<course>341.9</course>
<desc>Speed 4.3 km/h Distance 4.95 km</desc>
<time>2010-02-25T17:13:28.87</time>
<name>3395</name>
</trkpt>
<trkpt lat="48.930905" lon="8.674213">
<ele>335.5</ele>
<speed>4.4</speed>
<course>326.8</course>
<desc>Speed 4.4 km/h Distance 4.95 km</desc>
<time>2010-02-25T17:13:29.87</time>
<name>3396</name>
</trkpt>
<trkpt lat="48.930913" lon="8.674205">
<ele>335.5</ele>
<speed>4.1</speed>
<course>322.5</course>
<desc>Speed 4.1 km/h Distance 4.95 km</desc>
<time>2010-02-25T17:13:30.87</time>
<name>3397</name>
</trkpt>
<trkpt lat="48.930923" lon="8.674193">
<ele>335.5</ele>
<speed>4.2</speed>
<course>326.8</course>
<desc>Speed 4.2 km/h Distance 4.95 km</desc>
<time>2010-02-25T17:13:31.87</time>
<name>3398</name>
</trkpt>
<trkpt lat="48.930933" lon="8.674183">
<ele>336.0</ele>
<speed>4.5</speed>
<course>331.4</course>
<desc>Speed 4.5 km/h Distance 4.95 km</desc>
<time>2010-02-25T17:13:32.87</time>
<name>3399</name>
</trkpt>
<trkpt lat="48.930943" lon="8.674175">
<ele>335.5</ele>
<speed>4.0</speed>
<course>326.8</course>
<desc>Speed 4.0 km/h Distance 4.95 km</desc>
<time>2010-02-25T17:13:33.87</time>
<name>3400</name>
</trkpt>
<trkpt lat="48.930953" lon="8.674165">
<ele>336.0</ele>
<speed>4.1</speed>
<course>323.2</course>
<desc>Speed 4.1 km/h Distance 4.95 km</desc>
<time>2010-02-25T17:13:34.87</time>
<name>3401</name>
</trkpt>
<trkpt lat="48.930965" lon="8.674152">
<ele>337.0</ele>
<speed>4.5</speed>
<course>339.8</course>
<desc>Speed 4.5 km/h Distance 4.96 km</desc>
<time>2010-02-25T17:13:35.87</time>
<name>3402</name>
</trkpt>
<trkpt lat="48.930977" lon="8.674145">
<ele>337.0</ele>
<speed>4.4</speed>
<course>331.4</course>
<desc>Speed 4.4 km/h Distance 4.96 km</desc>
<time>2010-02-25T17:13:36.87</time>
<name>3403</name>
</trkpt>
<trkpt lat="48.930987" lon="8.674137">
<ele>337.0</ele>
<speed>4.2</speed>
<course>326.8</course>
<desc>Speed 4.2 km/h Distance 4.96 km</desc>
<time>2010-02-25T17:13:37.87</time>
<name>3404</name>
</trkpt>
<trkpt lat="48.930997" lon="8.674127">
<ele>338.0</ele>
<speed>4.2</speed>
<course>330.6</course>
<desc>Speed 4.2 km/h Distance 4.96 km</desc>
<time>2010-02-25T17:13:38.87</time>
<name>3405</name>
</trkpt>
<trkpt lat="48.931008" lon="8.674117">
<ele>338.0</ele>
<speed>4.6</speed>
<course>326.8</course>
<desc>Speed 4.6 km/h Distance 4.96 km</desc>
<time>2010-02-25T17:13:39.87</time>
<name>3406</name>
</trkpt>
<trkpt lat="48.931018" lon="8.674107">
<ele>338.0</ele>
<speed>4.6</speed>
<course>331.4</course>
<desc>Speed 4.6 km/h Distance 4.96 km</desc>
<time>2010-02-25T17:13:40.87</time>
<name>3407</name>
</trkpt>
<trkpt lat="48.931028" lon="8.674098">
<ele>338.5</ele>
<speed>4.0</speed>
<course>322.5</course>
<desc>Speed 4.0 km/h Distance 4.96 km</desc>
<time>2010-02-25T17:13:41.87</time>
<name>3408</name>
</trkpt>
<trkpt lat="48.931038" lon="8.674087">
<ele>338.5</ele>
<speed>4.2</speed>
<course>326.8</course>
<desc>Speed 4.2 km/h Distance 4.97 km</desc>
<time>2010-02-25T17:13:42.87</time>
<name>3409</name>
</trkpt>
<trkpt lat="48.931048" lon="8.674077">
<ele>339.0</ele>
<speed>4.2</speed>
<course>331.1</course>
<desc>Speed 4.2 km/h Distance 4.97 km</desc>
<time>2010-02-25T17:13:43.86</time>
<name>3410</name>
</trkpt>
<trkpt lat="48.931058" lon="8.674068">
<ele>339.5</ele>
<speed>4.6</speed>
<course>336.2</course>
<desc>Speed 4.6 km/h Distance 4.97 km</desc>
<time>2010-02-25T17:13:44.87</time>
<name>3411</name>
</trkpt>
<trkpt lat="48.931068" lon="8.674062">
<ele>340.0</ele>
<speed>4.1</speed>
<course>339.1</course>
<desc>Speed 4.1 km/h Distance 4.97 km</desc>
<time>2010-02-25T17:13:45.87</time>
<name>3412</name>
</trkpt>
<trkpt lat="48.931080" lon="8.674055">
<ele>340.5</ele>
<speed>4.2</speed>
<course>336.2</course>
<desc>Speed 4.2 km/h Distance 4.97 km</desc>
<time>2010-02-25T17:13:46.87</time>
<name>3413</name>
</trkpt>
<trkpt lat="48.931090" lon="8.674048">
<ele>340.5</ele>
<speed>4.0</speed>
<course>344.0</course>
<desc>Speed 4.0 km/h Distance 4.97 km</desc>
<time>2010-02-25T17:13:47.87</time>
<name>3414</name>
</trkpt>
<trkpt lat="48.931102" lon="8.674043">
<ele>341.0</ele>
<speed>4.6</speed>
<course>348.8</course>
<desc>Speed 4.6 km/h Distance 4.97 km</desc>
<time>2010-02-25T17:13:48.87</time>
<name>3415</name>
</trkpt>
<trkpt lat="48.931113" lon="8.674040">
<ele>341.0</ele>
<speed>4.2</speed>
<course>331.4</course>
<desc>Speed 4.2 km/h Distance 4.97 km</desc>
<time>2010-02-25T17:13:49.86</time>
<name>3416</name>
</trkpt>
<trkpt lat="48.931123" lon="8.674032">
<ele>341.5</ele>
<speed>3.5</speed>
<course>339.2</course>
<desc>Speed 3.5 km/h Distance 4.98 km</desc>
<time>2010-02-25T17:13:50.86</time>
<name>3417</name>
</trkpt>
<trkpt lat="48.931132" lon="8.674027">
<ele>341.5</ele>
<speed>3.6</speed>
<course>354.7</course>
<desc>Speed 3.6 km/h Distance 4.98 km</desc>
<time>2010-02-25T17:13:51.86</time>
<name>3418</name>
</trkpt>
<trkpt lat="48.931145" lon="8.674025">
<ele>342.0</ele>
<speed>4.6</speed>
<course>355.3</course>
<desc>Speed 4.6 km/h Distance 4.98 km</desc>
<time>2010-02-25T17:13:52.86</time>
<name>3419</name>
</trkpt>
<trkpt lat="48.931157" lon="8.674023">
<ele>342.5</ele>
<speed>4.4</speed>
<course>356.2</course>
<desc>Speed 4.4 km/h Distance 4.98 km</desc>
<time>2010-02-25T17:13:53.86</time>
<name>3420</name>
</trkpt>
<trkpt lat="48.931172" lon="8.674022">
<ele>343.5</ele>
<speed>4.1</speed>
<course>3.8</course>
<desc>Speed 4.1 km/h Distance 4.98 km</desc>
<time>2010-02-25T17:13:54.86</time>
<name>3421</name>
</trkpt>
<trkpt lat="48.931187" lon="8.674022">
<ele>345.0</ele>
<speed>3.6</speed>
<course>5.3</course>
<desc>Speed 3.6 km/h Distance 4.98 km</desc>
<time>2010-02-25T17:13:55.86</time>
<name>3422</name>
</trkpt>
<trkpt lat="48.931200" lon="8.674023">
<ele>346.0</ele>
<speed>4.4</speed>
<course>354.7</course>
<desc>Speed 4.4 km/h Distance 4.98 km</desc>
<time>2010-02-25T17:13:56.86</time>
<name>3423</name>
</trkpt>
<trkpt lat="48.931213" lon="8.674022">
<ele>346.5</ele>
<speed>4.4</speed>
<course>345.1</course>
<desc>Speed 4.4 km/h Distance 4.99 km</desc>
<time>2010-02-25T17:13:57.86</time>
<name>3424</name>
</trkpt>
<trkpt lat="48.931222" lon="8.674018">
<ele>346.5</ele>
<speed>3.9</speed>
<course>347.4</course>
<desc>Speed 3.9 km/h Distance 4.99 km</desc>
<time>2010-02-25T17:13:58.86</time>
<name>3425</name>
</trkpt>
<trkpt lat="48.931232" lon="8.674015">
<ele>346.5</ele>
<speed>4.0</speed>
<course>353.4</course>
<desc>Speed 4.0 km/h Distance 4.99 km</desc>
<time>2010-02-25T17:13:59.86</time>
<name>3426</name>
</trkpt>
<trkpt lat="48.931242" lon="8.674013">
<ele>346.5</ele>
<speed>3.7</speed>
<course>0.0</course>
<desc>Speed 3.7 km/h Distance 4.99 km</desc>
<time>2010-02-25T17:14:00.86</time>
<name>3427</name>
</trkpt>
<trkpt lat="48.931252" lon="8.674013">
<ele>346.5</ele>
<speed>3.5</speed>
<course>4.7</course>
<desc>Speed 3.5 km/h Distance 4.99 km</desc>
<time>2010-02-25T17:14:01.86</time>
<name>3428</name>
</trkpt>
<trkpt lat="48.931263" lon="8.674013">
<ele>347.0</ele>
<speed>3.4</speed>
<course>8.1</course>
<desc>Speed 3.4 km/h Distance 4.99 km</desc>
<time>2010-02-25T17:14:02.85</time>
<name>3429</name>
</trkpt>
<trkpt lat="48.931273" lon="8.674015">
<ele>347.5</ele>
<speed>3.9</speed>
<course>33.7</course>
<desc>Speed 3.9 km/h Distance 4.99 km</desc>
<time>2010-02-25T17:14:03.86</time>
<name>3430</name>
</trkpt>
<trkpt lat="48.931280" lon="8.674022">
<ele>348.5</ele>
<speed>3.1</speed>
<course>12.6</course>
<desc>Speed 3.1 km/h Distance 4.99 km</desc>
<time>2010-02-25T17:14:04.85</time>
<name>3431</name>
</trkpt>
<trkpt lat="48.931290" lon="8.674025">
<ele>349.0</ele>
<speed>4.0</speed>
<course>33.2</course>
<desc>Speed 4.0 km/h Distance 4.99 km</desc>
<time>2010-02-25T17:14:05.86</time>
<name>3432</name>
</trkpt>
<trkpt lat="48.931298" lon="8.674033">
<ele>350.0</ele>
<speed>4.1</speed>
<course>14.9</course>
<desc>Speed 4.1 km/h Distance 5.00 km</desc>
<time>2010-02-25T17:14:06.85</time>
<name>3433</name>
</trkpt>
<trkpt lat="48.931310" lon="8.674038">
<ele>351.0</ele>
<speed>3.7</speed>
<course>23.8</course>
<desc>Speed 3.7 km/h Distance 5.00 km</desc>
<time>2010-02-25T17:14:07.85</time>
<name>3434</name>
</trkpt>
<trkpt lat="48.931320" lon="8.674045">
<ele>351.5</ele>
<speed>3.3</speed>
<course>32.3</course>
<desc>Speed 3.3 km/h Distance 5.00 km</desc>
<time>2010-02-25T17:14:08.85</time>
<name>3435</name>
</trkpt>
<trkpt lat="48.931325" lon="8.674050">
<ele>351.5</ele>
<speed>2.8</speed>
<course>22.2</course>
<desc>Speed 2.8 km/h Distance 5.00 km</desc>
<time>2010-02-25T17:14:09.85</time>
<name>3436</name>
</trkpt>
<trkpt lat="48.931330" lon="8.674053">
<ele>351.5</ele>
<speed>2.0</speed>
<course>23.8</course>
<desc>Speed 2.0 km/h Distance 5.00 km</desc>
<time>2010-02-25T17:14:10.87</time>
<name>3437</name>
</trkpt>
<trkpt lat="48.931335" lon="8.674057">
<ele>352.0</ele>
<speed>2.2</speed>
<course>27.9</course>
<desc>Speed 2.2 km/h Distance 5.00 km</desc>
<time>2010-02-25T17:14:11.86</time>
<name>3438</name>
</trkpt>
<trkpt lat="48.931343" lon="8.674063">
<ele>352.5</ele>
<speed>4.0</speed>
<course>23.8</course>
<desc>Speed 4.0 km/h Distance 5.00 km</desc>
<time>2010-02-25T17:14:12.86</time>
<name>3439</name>
</trkpt>
<trkpt lat="48.931353" lon="8.674070">
<ele>352.5</ele>
<speed>4.0</speed>
<course>18.2</course>
<desc>Speed 4.0 km/h Distance 5.00 km</desc>
<time>2010-02-25T17:14:13.86</time>
<name>3440</name>
</trkpt>
<trkpt lat="48.931363" lon="8.674075">
<ele>352.5</ele>
<speed>3.7</speed>
<course>27.9</course>
<desc>Speed 3.7 km/h Distance 5.00 km</desc>
<time>2010-02-25T17:14:14.85</time>
<name>3441</name>
</trkpt>
<trkpt lat="48.931372" lon="8.674082">
<ele>353.0</ele>
<speed>3.8</speed>
<course>16.0</course>
<desc>Speed 3.8 km/h Distance 5.00 km</desc>
<time>2010-02-25T17:14:15.85</time>
<name>3442</name>
</trkpt>
<trkpt lat="48.931383" lon="8.674087">
<ele>353.5</ele>
<speed>3.5</speed>
<course>27.9</course>
<desc>Speed 3.5 km/h Distance 5.01 km</desc>
<time>2010-02-25T17:14:16.85</time>
<name>3443</name>
</trkpt>
<trkpt lat="48.931392" lon="8.674093">
<ele>353.5</ele>
<speed>3.5</speed>
<course>26.4</course>
<desc>Speed 3.5 km/h Distance 5.01 km</desc>
<time>2010-02-25T17:14:17.85</time>
<name>3444</name>
</trkpt>
<trkpt lat="48.931398" lon="8.674098">
<ele>354.0</ele>
<speed>3.2</speed>
<course>20.6</course>
<desc>Speed 3.2 km/h Distance 5.01 km</desc>
<time>2010-02-25T17:14:18.85</time>
<name>3445</name>
</trkpt>
<trkpt lat="48.931410" lon="8.674105">
<ele>354.5</ele>
<speed>4.4</speed>
<course>0.0</course>
<desc>Speed 4.4 km/h Distance 5.01 km</desc>
<time>2010-02-25T17:14:19.85</time>
<name>3446</name>
</trkpt>
<trkpt lat="48.931420" lon="8.674105">
<ele>354.5</ele>
<speed>4.0</speed>
<course>353.4</course>
<desc>Speed 4.0 km/h Distance 5.01 km</desc>
<time>2010-02-25T17:14:20.85</time>
<name>3447</name>
</trkpt>
<trkpt lat="48.931430" lon="8.674103">
<ele>355.5</ele>
<speed>3.2</speed>
<course>12.6</course>
<desc>Speed 3.2 km/h Distance 5.01 km</desc>
<time>2010-02-25T17:14:21.85</time>
<name>3448</name>
</trkpt>
<trkpt lat="48.931433" lon="8.674103">
<ele>355.5</ele>
<speed>1.5</speed>
<course>18.8</course>
<desc>Speed 1.5 km/h Distance 5.01 km</desc>
<time>2010-02-25T17:14:22.85</time>
<name>3449</name>
</trkpt>
<trkpt lat="48.931440" lon="8.674107">
<ele>356.0</ele>
<speed>2.5</speed>
<course>14.9</course>
<desc>Speed 2.5 km/h Distance 5.01 km</desc>
<time>2010-02-25T17:14:23.85</time>
<name>3450</name>
</trkpt>
<trkpt lat="48.931448" lon="8.674110">
<ele>356.5</ele>
<speed>2.8</speed>
<course>13.5</course>
<desc>Speed 2.8 km/h Distance 5.01 km</desc>
<time>2010-02-25T17:14:24.84</time>
<name>3451</name>
</trkpt>
<trkpt lat="48.931462" lon="8.674115">
<ele>357.0</ele>
<speed>3.4</speed>
<course>21.5</course>
<desc>Speed 3.4 km/h Distance 5.01 km</desc>
<time>2010-02-25T17:14:25.85</time>
<name>3452</name>
</trkpt>
<trkpt lat="48.931470" lon="8.674120">
<ele>357.5</ele>
<speed>3.4</speed>
<course>9.5</course>
<desc>Speed 3.4 km/h Distance 5.02 km</desc>
<time>2010-02-25T17:14:26.84</time>
<name>3453</name>
</trkpt>
<trkpt lat="48.931482" lon="8.674123">
<ele>358.0</ele>
<speed>4.2</speed>
<course>28.6</course>
<desc>Speed 4.2 km/h Distance 5.02 km</desc>
<time>2010-02-25T17:14:27.84</time>
<name>3454</name>
</trkpt>
<trkpt lat="48.931492" lon="8.674132">
<ele>358.5</ele>
<speed>4.2</speed>
<course>21.5</course>
<desc>Speed 4.2 km/h Distance 5.02 km</desc>
<time>2010-02-25T17:14:28.84</time>
<name>3455</name>
</trkpt>
<trkpt lat="48.931500" lon="8.674137">
<ele>358.5</ele>
<speed>3.0</speed>
<course>18.2</course>
<desc>Speed 3.0 km/h Distance 5.02 km</desc>
<time>2010-02-25T17:14:29.84</time>
<name>3456</name>
</trkpt>
<trkpt lat="48.931510" lon="8.674142">
<ele>359.0</ele>
<speed>3.5</speed>
<course>38.4</course>
<desc>Speed 3.5 km/h Distance 5.02 km</desc>
<time>2010-02-25T17:14:30.84</time>
<name>3457</name>
</trkpt>
<trkpt lat="48.931518" lon="8.674152">
<ele>359.5</ele>
<speed>3.8</speed>
<course>24.2</course>
<desc>Speed 3.8 km/h Distance 5.02 km</desc>
<time>2010-02-25T17:14:31.84</time>
<name>3458</name>
</trkpt>
<trkpt lat="48.931528" lon="8.674158">
<ele>360.0</ele>
<speed>3.6</speed>
<course>16.0</course>
<desc>Speed 3.6 km/h Distance 5.02 km</desc>
<time>2010-02-25T17:14:32.84</time>
<name>3459</name>
</trkpt>
<trkpt lat="48.931540" lon="8.674163">
<ele>360.5</ele>
<speed>3.7</speed>
<course>27.9</course>
<desc>Speed 3.7 km/h Distance 5.02 km</desc>
<time>2010-02-25T17:14:33.84</time>
<name>3460</name>
</trkpt>
<trkpt lat="48.931548" lon="8.674170">
<ele>361.5</ele>
<speed>3.3</speed>
<course>18.2</course>
<desc>Speed 3.3 km/h Distance 5.03 km</desc>
<time>2010-02-25T17:14:34.84</time>
<name>3461</name>
</trkpt>
<trkpt lat="48.931558" lon="8.674175">
<ele>361.5</ele>
<speed>3.6</speed>
<course>23.8</course>
<desc>Speed 3.6 km/h Distance 5.03 km</desc>
<time>2010-02-25T17:14:35.84</time>
<name>3462</name>
</trkpt>
<trkpt lat="48.931568" lon="8.674182">
<ele>362.0</ele>
<speed>3.5</speed>
<course>14.9</course>
<desc>Speed 3.5 km/h Distance 5.03 km</desc>
<time>2010-02-25T17:14:36.84</time>
<name>3463</name>
</trkpt>
<trkpt lat="48.931577" lon="8.674185">
<ele>362.5</ele>
<speed>3.4</speed>
<course>18.2</course>
<desc>Speed 3.4 km/h Distance 5.03 km</desc>
<time>2010-02-25T17:14:37.84</time>
<name>3464</name>
</trkpt>
<trkpt lat="48.931587" lon="8.674190">
<ele>363.0</ele>
<speed>3.2</speed>
<course>14.9</course>
<desc>Speed 3.2 km/h Distance 5.03 km</desc>
<time>2010-02-25T17:14:38.84</time>
<name>3465</name>
</trkpt>
<trkpt lat="48.931595" lon="8.674193">
<ele>364.0</ele>
<speed>3.3</speed>
<course>12.6</course>
<desc>Speed 3.3 km/h Distance 5.03 km</desc>
<time>2010-02-25T17:14:39.83</time>
<name>3466</name>
</trkpt>
<trkpt lat="48.931605" lon="8.674197">
<ele>364.0</ele>
<speed>3.5</speed>
<course>38.1</course>
<desc>Speed 3.5 km/h Distance 5.03 km</desc>
<time>2010-02-25T17:14:40.83</time>
<name>3467</name>
</trkpt>
<trkpt lat="48.931613" lon="8.674207">
<ele>364.5</ele>
<speed>3.6</speed>
<course>47.4</course>
<desc>Speed 3.6 km/h Distance 5.03 km</desc>
<time>2010-02-25T17:14:41.84</time>
<name>3468</name>
</trkpt>
<trkpt lat="48.931618" lon="8.674215">
<ele>364.5</ele>
<speed>3.0</speed>
<course>27.9</course>
<desc>Speed 3.0 km/h Distance 5.03 km</desc>
<time>2010-02-25T17:14:42.83</time>
<name>3469</name>
</trkpt>
<trkpt lat="48.931627" lon="8.674222">
<ele>365.0</ele>
<speed>3.2</speed>
<course>23.8</course>
<desc>Speed 3.2 km/h Distance 5.04 km</desc>
<time>2010-02-25T17:14:43.83</time>
<name>3470</name>
</trkpt>
<trkpt lat="48.931637" lon="8.674228">
<ele>365.0</ele>
<speed>3.8</speed>
<course>18.2</course>
<desc>Speed 3.8 km/h Distance 5.04 km</desc>
<time>2010-02-25T17:14:44.85</time>
<name>3471</name>
</trkpt>
<trkpt lat="48.931647" lon="8.674233">
<ele>365.0</ele>
<speed>3.6</speed>
<course>33.2</course>
<desc>Speed 3.6 km/h Distance 5.04 km</desc>
<time>2010-02-25T17:14:45.83</time>
<name>3472</name>
</trkpt>
<trkpt lat="48.931655" lon="8.674242">
<ele>365.0</ele>
<speed>3.7</speed>
<course>16.0</course>
<desc>Speed 3.7 km/h Distance 5.04 km</desc>
<time>2010-02-25T17:14:46.83</time>
<name>3473</name>
</trkpt>
<trkpt lat="48.931667" lon="8.674247">
<ele>365.5</ele>
<speed>3.9</speed>
<course>23.8</course>
<desc>Speed 3.9 km/h Distance 5.04 km</desc>
<time>2010-02-25T17:14:47.83</time>
<name>3474</name>
</trkpt>
<trkpt lat="48.931677" lon="8.674253">
<ele>366.0</ele>
<speed>3.5</speed>
<course>18.2</course>
<desc>Speed 3.5 km/h Distance 5.04 km</desc>
<time>2010-02-25T17:14:48.83</time>
<name>3475</name>
</trkpt>
<trkpt lat="48.931687" lon="8.674258">
<ele>366.0</ele>
<speed>3.9</speed>
<course>21.5</course>
<desc>Speed 3.9 km/h Distance 5.04 km</desc>
<time>2010-02-25T17:14:49.83</time>
<name>3476</name>
</trkpt>
<trkpt lat="48.931695" lon="8.674263">
<ele>366.0</ele>
<speed>3.2</speed>
<course>12.6</course>
<desc>Speed 3.2 km/h Distance 5.04 km</desc>
<time>2010-02-25T17:14:50.83</time>
<name>3477</name>
</trkpt>
<trkpt lat="48.931705" lon="8.674267">
<ele>366.5</ele>
<speed>3.6</speed>
<course>27.9</course>
<desc>Speed 3.6 km/h Distance 5.04 km</desc>
<time>2010-02-25T17:14:51.83</time>
<name>3478</name>
</trkpt>
<trkpt lat="48.931713" lon="8.674273">
<ele>366.5</ele>
<speed>3.6</speed>
<course>28.6</course>
<desc>Speed 3.6 km/h Distance 5.05 km</desc>
<time>2010-02-25T17:14:52.84</time>
<name>3479</name>
</trkpt>
<trkpt lat="48.931723" lon="8.674282">
<ele>367.0</ele>
<speed>3.7</speed>
<course>13.4</course>
<desc>Speed 3.7 km/h Distance 5.05 km</desc>
<time>2010-02-25T17:14:53.83</time>
<name>3480</name>
</trkpt>
<trkpt lat="48.931733" lon="8.674285">
<ele>367.5</ele>
<speed>3.7</speed>
<course>11.2</course>
<desc>Speed 3.7 km/h Distance 5.05 km</desc>
<time>2010-02-25T17:14:54.83</time>
<name>3481</name>
</trkpt>
<trkpt lat="48.931745" lon="8.674288">
<ele>367.5</ele>
<speed>3.7</speed>
<course>4.4</course>
<desc>Speed 3.7 km/h Distance 5.05 km</desc>
<time>2010-02-25T17:14:55.83</time>
<name>3482</name>
</trkpt>
<trkpt lat="48.931755" lon="8.674290">
<ele>368.0</ele>
<speed>3.7</speed>
<course>355.6</course>
<desc>Speed 3.7 km/h Distance 5.05 km</desc>
<time>2010-02-25T17:14:56.83</time>
<name>3483</name>
</trkpt>
<trkpt lat="48.931765" lon="8.674288">
<ele>368.0</ele>
<speed>3.6</speed>
<course>355.0</course>
<desc>Speed 3.6 km/h Distance 5.05 km</desc>
<time>2010-02-25T17:14:57.83</time>
<name>3484</name>
</trkpt>
<trkpt lat="48.931782" lon="8.674287">
<ele>368.0</ele>
<speed>3.4</speed>
<course>341.9</course>
<desc>Speed 3.4 km/h Distance 5.05 km</desc>
<time>2010-02-25T17:14:58.84</time>
<name>3485</name>
</trkpt>
<trkpt lat="48.931798" lon="8.674278">
<ele>368.0</ele>
<speed>3.4</speed>
<course>340.3</course>
<desc>Speed 3.4 km/h Distance 5.06 km</desc>
<time>2010-02-25T17:14:59.83</time>
<name>3486</name>
</trkpt>
<trkpt lat="48.931817" lon="8.674268">
<ele>367.5</ele>
<speed>3.8</speed>
<course>293.5</course>
<desc>Speed 3.8 km/h Distance 5.06 km</desc>
<time>2010-02-25T17:15:00.84</time>
<name>3487</name>
</trkpt>
<trkpt lat="48.931820" lon="8.674257">
<ele>367.0</ele>
<speed>3.5</speed>
<course>279.6</course>
<desc>Speed 3.5 km/h Distance 5.06 km</desc>
<time>2010-02-25T17:15:01.83</time>
<name>3488</name>
</trkpt>
<trkpt lat="48.931822" lon="8.674242">
<ele>366.5</ele>
<speed>3.7</speed>
<course>270.0</course>
<desc>Speed 3.7 km/h Distance 5.06 km</desc>
<time>2010-02-25T17:15:02.83</time>
<name>3489</name>
</trkpt>
<trkpt lat="48.931822" lon="8.674227">
<ele>366.5</ele>
<speed>3.9</speed>
<course>279.6</course>
<desc>Speed 3.9 km/h Distance 5.06 km</desc>
<time>2010-02-25T17:15:03.82</time>
<name>3490</name>
</trkpt>
<trkpt lat="48.931823" lon="8.674212">
<ele>366.0</ele>
<speed>3.9</speed>
<course>307.3</course>
<desc>Speed 3.9 km/h Distance 5.06 km</desc>
<time>2010-02-25T17:15:04.82</time>
<name>3491</name>
</trkpt>
<trkpt lat="48.931830" lon="8.674198">
<ele>366.5</ele>
<speed>3.9</speed>
<course>301.3</course>
<desc>Speed 3.9 km/h Distance 5.06 km</desc>
<time>2010-02-25T17:15:05.83</time>
<name>3492</name>
</trkpt>
<trkpt lat="48.931837" lon="8.674182">
<ele>366.5</ele>
<speed>4.2</speed>
<course>303.9</course>
<desc>Speed 4.2 km/h Distance 5.06 km</desc>
<time>2010-02-25T17:15:06.83</time>
<name>3493</name>
</trkpt>
<trkpt lat="48.931843" lon="8.674167">
<ele>366.5</ele>
<speed>3.7</speed>
<course>301.3</course>
<desc>Speed 3.7 km/h Distance 5.07 km</desc>
<time>2010-02-25T17:15:07.83</time>
<name>3494</name>
</trkpt>
<trkpt lat="48.931850" lon="8.674150">
<ele>367.0</ele>
<speed>4.3</speed>
<course>294.5</course>
<desc>Speed 4.3 km/h Distance 5.07 km</desc>
<time>2010-02-25T17:15:08.83</time>
<name>3495</name>
</trkpt>
<trkpt lat="48.931855" lon="8.674133">
<ele>367.5</ele>
<speed>4.4</speed>
<course>304.0</course>
<desc>Speed 4.4 km/h Distance 5.07 km</desc>
<time>2010-02-25T17:15:09.82</time>
<name>3496</name>
</trkpt>
<trkpt lat="48.931862" lon="8.674118">
<ele>367.0</ele>
<speed>3.9</speed>
<course>288.7</course>
<desc>Speed 3.9 km/h Distance 5.07 km</desc>
<time>2010-02-25T17:15:10.84</time>
<name>3497</name>
</trkpt>
<trkpt lat="48.931865" lon="8.674103">
<ele>366.5</ele>
<speed>3.7</speed>
<course>288.7</course>
<desc>Speed 3.7 km/h Distance 5.07 km</desc>
<time>2010-02-25T17:15:11.82</time>
<name>3498</name>
</trkpt>
<trkpt lat="48.931868" lon="8.674088">
<ele>366.0</ele>
<speed>3.7</speed>
<course>296.9</course>
<desc>Speed 3.7 km/h Distance 5.07 km</desc>
<time>2010-02-25T17:15:12.82</time>
<name>3499</name>
</trkpt>
<trkpt lat="48.931873" lon="8.674073">
<ele>366.0</ele>
<speed>4.1</speed>
<course>302.4</course>
<desc>Speed 4.1 km/h Distance 5.07 km</desc>
<time>2010-02-25T17:15:13.83</time>
<name>3500</name>
</trkpt>
<trkpt lat="48.931882" lon="8.674053">
<ele>365.5</ele>
<speed>4.5</speed>
<course>312.4</course>
<desc>Speed 4.5 km/h Distance 5.08 km</desc>
<time>2010-02-25T17:15:14.83</time>
<name>3501</name>
</trkpt>
<trkpt lat="48.931892" lon="8.674037">
<ele>365.0</ele>
<speed>4.5</speed>
<course>301.3</course>
<desc>Speed 4.5 km/h Distance 5.08 km</desc>
<time>2010-02-25T17:15:15.83</time>
<name>3502</name>
</trkpt>
<trkpt lat="48.931898" lon="8.674020">
<ele>364.5</ele>
<speed>4.2</speed>
<course>286.9</course>
<desc>Speed 4.2 km/h Distance 5.08 km</desc>
<time>2010-02-25T17:15:16.83</time>
<name>3503</name>
</trkpt>
<trkpt lat="48.931902" lon="8.674003">
<ele>364.5</ele>
<speed>4.2</speed>
<course>301.3</course>
<desc>Speed 4.2 km/h Distance 5.08 km</desc>
<time>2010-02-25T17:15:17.83</time>
<name>3504</name>
</trkpt>
<trkpt lat="48.931908" lon="8.673987">
<ele>364.5</ele>
<speed>3.9</speed>
<course>321.0</course>
<desc>Speed 3.9 km/h Distance 5.08 km</desc>
<time>2010-02-25T17:15:18.83</time>
<name>3505</name>
</trkpt>
<trkpt lat="48.931915" lon="8.673978">
<ele>363.5</ele>
<speed>2.9</speed>
<course>307.3</course>
<desc>Speed 2.9 km/h Distance 5.08 km</desc>
<time>2010-02-25T17:15:19.83</time>
<name>3506</name>
</trkpt>
<trkpt lat="48.931922" lon="8.673965">
<ele>362.0</ele>
<speed>3.3</speed>
<course>292.6</course>
<desc>Speed 3.3 km/h Distance 5.08 km</desc>
<time>2010-02-25T17:15:20.83</time>
<name>3507</name>
</trkpt>
<trkpt lat="48.931927" lon="8.673947">
<ele>361.5</ele>
<speed>4.2</speed>
<course>292.5</course>
<desc>Speed 4.2 km/h Distance 5.08 km</desc>
<time>2010-02-25T17:15:21.83</time>
<name>3508</name>
</trkpt>
<trkpt lat="48.931932" lon="8.673928">
<ele>362.0</ele>
<speed>4.2</speed>
<course>310.2</course>
<desc>Speed 4.2 km/h Distance 5.09 km</desc>
<time>2010-02-25T17:15:22.83</time>
<name>3509</name>
</trkpt>
<trkpt lat="48.931940" lon="8.673913">
<ele>361.0</ele>
<speed>4.2</speed>
<course>254.5</course>
<desc>Speed 4.2 km/h Distance 5.09 km</desc>
<time>2010-02-25T17:15:23.82</time>
<name>3510</name>
</trkpt>
<trkpt lat="48.931937" lon="8.673895">
<ele>363.0</ele>
<speed>5.2</speed>
<course>270.0</course>
<desc>Speed 5.2 km/h Distance 5.09 km</desc>
<time>2010-02-25T17:15:24.83</time>
<name>3511</name>
</trkpt>
<trkpt lat="48.931937" lon="8.673875">
<ele>364.5</ele>
<speed>4.9</speed>
<course>277.2</course>
<desc>Speed 4.9 km/h Distance 5.09 km</desc>
<time>2010-02-25T17:15:25.82</time>
<name>3512</name>
</trkpt>
<trkpt lat="48.931938" lon="8.673855">
<ele>365.0</ele>
<speed>5.0</speed>
<course>299.7</course>
<desc>Speed 5.0 km/h Distance 5.09 km</desc>
<time>2010-02-25T17:15:26.82</time>
<name>3513</name>
</trkpt>
<trkpt lat="48.931943" lon="8.673842">
<ele>365.0</ele>
<speed>3.8</speed>
<course>294.5</course>
<desc>Speed 3.8 km/h Distance 5.09 km</desc>
<time>2010-02-25T17:15:27.82</time>
<name>3514</name>
</trkpt>
<trkpt lat="48.931948" lon="8.673825">
<ele>364.5</ele>
<speed>4.1</speed>
<course>307.3</course>
<desc>Speed 4.1 km/h Distance 5.09 km</desc>
<time>2010-02-25T17:15:28.82</time>
<name>3515</name>
</trkpt>
<trkpt lat="48.931955" lon="8.673812">
<ele>363.5</ele>
<speed>4.1</speed>
<course>296.9</course>
<desc>Speed 4.1 km/h Distance 5.10 km</desc>
<time>2010-02-25T17:15:29.82</time>
<name>3516</name>
</trkpt>
<trkpt lat="48.931960" lon="8.673797">
<ele>364.5</ele>
<speed>3.6</speed>
<course>294.5</course>
<desc>Speed 3.6 km/h Distance 5.10 km</desc>
<time>2010-02-25T17:15:30.82</time>
<name>3517</name>
</trkpt>
<trkpt lat="48.931965" lon="8.673780">
<ele>364.5</ele>
<speed>4.4</speed>
<course>288.6</course>
<desc>Speed 4.4 km/h Distance 5.10 km</desc>
<time>2010-02-25T17:15:31.82</time>
<name>3518</name>
</trkpt>
<trkpt lat="48.931968" lon="8.673765">
<ele>365.0</ele>
<speed>3.1</speed>
<course>293.5</course>
<desc>Speed 3.1 km/h Distance 5.10 km</desc>
<time>2010-02-25T17:15:32.82</time>
<name>3519</name>
</trkpt>
<trkpt lat="48.931972" lon="8.673753">
<ele>365.0</ele>
<speed>2.9</speed>
<course>299.7</course>
<desc>Speed 2.9 km/h Distance 5.10 km</desc>
<time>2010-02-25T17:15:33.82</time>
<name>3520</name>
</trkpt>
<trkpt lat="48.931977" lon="8.673740">
<ele>365.0</ele>
<speed>3.5</speed>
<course>296.9</course>
<desc>Speed 3.5 km/h Distance 5.10 km</desc>
<time>2010-02-25T17:15:34.82</time>
<name>3521</name>
</trkpt>
<trkpt lat="48.931982" lon="8.673725">
<ele>365.0</ele>
<speed>3.8</speed>
<course>288.7</course>
<desc>Speed 3.8 km/h Distance 5.10 km</desc>
<time>2010-02-25T17:15:35.82</time>
<name>3522</name>
</trkpt>
<trkpt lat="48.931985" lon="8.673710">
<ele>364.5</ele>
<speed>4.0</speed>
<course>292.5</course>
<desc>Speed 4.0 km/h Distance 5.10 km</desc>
<time>2010-02-25T17:15:36.82</time>
<name>3523</name>
</trkpt>
<trkpt lat="48.931990" lon="8.673692">
<ele>364.5</ele>
<speed>4.6</speed>
<course>288.7</course>
<desc>Speed 4.6 km/h Distance 5.11 km</desc>
<time>2010-02-25T17:15:37.82</time>
<name>3524</name>
</trkpt>
<trkpt lat="48.931993" lon="8.673677">
<ele>365.0</ele>
<speed>4.0</speed>
<course>284.2</course>
<desc>Speed 4.0 km/h Distance 5.11 km</desc>
<time>2010-02-25T17:15:38.82</time>
<name>3525</name>
</trkpt>
<trkpt lat="48.931997" lon="8.673657">
<ele>366.5</ele>
<speed>4.1</speed>
<course>312.4</course>
<desc>Speed 4.1 km/h Distance 5.11 km</desc>
<time>2010-02-25T17:15:39.82</time>
<name>3526</name>
</trkpt>
<trkpt lat="48.932007" lon="8.673640">
<ele>368.0</ele>
<speed>3.9</speed>
<course>290.8</course>
<desc>Speed 3.9 km/h Distance 5.11 km</desc>
<time>2010-02-25T17:15:40.82</time>
<name>3527</name>
</trkpt>
<trkpt lat="48.932012" lon="8.673620">
<ele>368.5</ele>
<speed>4.9</speed>
<course>276.7</course>
<desc>Speed 4.9 km/h Distance 5.11 km</desc>
<time>2010-02-25T17:15:41.82</time>
<name>3528</name>
</trkpt>
<trkpt lat="48.932013" lon="8.673598">
<ele>369.5</ele>
<speed>5.6</speed>
<course>301.3</course>
<desc>Speed 5.6 km/h Distance 5.11 km</desc>
<time>2010-02-25T17:15:42.81</time>
<name>3529</name>
</trkpt>
<trkpt lat="48.932020" lon="8.673582">
<ele>369.5</ele>
<speed>4.3</speed>
<course>307.3</course>
<desc>Speed 4.3 km/h Distance 5.11 km</desc>
<time>2010-02-25T17:15:43.81</time>
<name>3530</name>
</trkpt>
<trkpt lat="48.932027" lon="8.673568">
<ele>368.5</ele>
<speed>3.4</speed>
<course>299.0</course>
<desc>Speed 3.4 km/h Distance 5.12 km</desc>
<time>2010-02-25T17:15:44.81</time>
<name>3531</name>
</trkpt>
<trkpt lat="48.932033" lon="8.673550">
<ele>368.0</ele>
<speed>4.3</speed>
<course>294.5</course>
<desc>Speed 4.3 km/h Distance 5.12 km</desc>
<time>2010-02-25T17:15:45.82</time>
<name>3532</name>
</trkpt>
<trkpt lat="48.932038" lon="8.673533">
<ele>367.5</ele>
<speed>4.0</speed>
<course>285.5</course>
<desc>Speed 4.0 km/h Distance 5.12 km</desc>
<time>2010-02-25T17:15:46.82</time>
<name>3533</name>
</trkpt>
<trkpt lat="48.932042" lon="8.673515">
<ele>368.0</ele>
<speed>4.3</speed>
<course>275.8</course>
<desc>Speed 4.3 km/h Distance 5.12 km</desc>
<time>2010-02-25T17:15:47.82</time>
<name>3534</name>
</trkpt>
<trkpt lat="48.932043" lon="8.673490">
<ele>369.0</ele>
<speed>5.8</speed>
<course>292.5</course>
<desc>Speed 5.8 km/h Distance 5.12 km</desc>
<time>2010-02-25T17:15:48.82</time>
<name>3535</name>
</trkpt>
<trkpt lat="48.932048" lon="8.673472">
<ele>369.5</ele>
<speed>5.1</speed>
<course>285.9</course>
<desc>Speed 5.1 km/h Distance 5.12 km</desc>
<time>2010-02-25T17:15:49.81</time>
<name>3536</name>
</trkpt>
<trkpt lat="48.932053" lon="8.673445">
<ele>370.5</ele>
<speed>6.4</speed>
<course>299.0</course>
<desc>Speed 6.4 km/h Distance 5.12 km</desc>
<time>2010-02-25T17:15:50.81</time>
<name>3537</name>
</trkpt>
<trkpt lat="48.932060" lon="8.673427">
<ele>370.0</ele>
<speed>4.4</speed>
<course>299.7</course>
<desc>Speed 4.4 km/h Distance 5.13 km</desc>
<time>2010-02-25T17:15:51.81</time>
<name>3538</name>
</trkpt>
<trkpt lat="48.932065" lon="8.673413">
<ele>369.5</ele>
<speed>3.6</speed>
<course>330.4</course>
<desc>Speed 3.6 km/h Distance 5.13 km</desc>
<time>2010-02-25T17:15:52.84</time>
<name>3539</name>
</trkpt>
<trkpt lat="48.932077" lon="8.673403">
<ele>369.0</ele>
<speed>3.7</speed>
<course>4.7</course>
<desc>Speed 3.7 km/h Distance 5.13 km</desc>
<time>2010-02-25T17:15:53.81</time>
<name>3540</name>
</trkpt>
<trkpt lat="48.932088" lon="8.673405">
<ele>367.0</ele>
<speed>3.7</speed>
<course>336.2</course>
<desc>Speed 3.7 km/h Distance 5.13 km</desc>
<time>2010-02-25T17:15:54.81</time>
<name>3541</name>
</trkpt>
<trkpt lat="48.932098" lon="8.673398">
<ele>365.5</ele>
<speed>3.6</speed>
<course>310.1</course>
<desc>Speed 3.6 km/h Distance 5.13 km</desc>
<time>2010-02-25T17:15:55.81</time>
<name>3542</name>
</trkpt>
<trkpt lat="48.932107" lon="8.673383">
<ele>365.0</ele>
<speed>4.3</speed>
<course>315.5</course>
<desc>Speed 4.3 km/h Distance 5.13 km</desc>
<time>2010-02-25T17:15:56.81</time>
<name>3543</name>
</trkpt>
<trkpt lat="48.932117" lon="8.673368">
<ele>364.5</ele>
<speed>4.0</speed>
<course>307.3</course>
<desc>Speed 4.0 km/h Distance 5.13 km</desc>
<time>2010-02-25T17:15:57.81</time>
<name>3544</name>
</trkpt>
<trkpt lat="48.932125" lon="8.673352">
<ele>364.0</ele>
<speed>4.2</speed>
<course>304.1</course>
<desc>Speed 4.2 km/h Distance 5.14 km</desc>
<time>2010-02-25T17:15:58.81</time>
<name>3545</name>
</trkpt>
<trkpt lat="48.932132" lon="8.673337">
<ele>363.5</ele>
<speed>3.9</speed>
<course>313.6</course>
<desc>Speed 3.9 km/h Distance 5.14 km</desc>
<time>2010-02-25T17:15:59.81</time>
<name>3546</name>
</trkpt>
<trkpt lat="48.932140" lon="8.673323">
<ele>362.0</ele>
<speed>4.0</speed>
<course>312.4</course>
<desc>Speed 4.0 km/h Distance 5.14 km</desc>
<time>2010-02-25T17:16:00.81</time>
<name>3547</name>
</trkpt>
<trkpt lat="48.932150" lon="8.673307">
<ele>361.5</ele>
<speed>4.5</speed>
<course>307.3</course>
<desc>Speed 4.5 km/h Distance 5.14 km</desc>
<time>2010-02-25T17:16:01.81</time>
<name>3548</name>
</trkpt>
<trkpt lat="48.932158" lon="8.673290">
<ele>361.5</ele>
<speed>4.0</speed>
<course>302.4</course>
<desc>Speed 4.0 km/h Distance 5.14 km</desc>
<time>2010-02-25T17:16:02.81</time>
<name>3549</name>
</trkpt>
<trkpt lat="48.932167" lon="8.673270">
<ele>362.0</ele>
<speed>4.1</speed>
<course>304.7</course>
<desc>Speed 4.1 km/h Distance 5.14 km</desc>
<time>2010-02-25T17:16:03.81</time>
<name>3550</name>
</trkpt>
<trkpt lat="48.932175" lon="8.673252">
<ele>361.5</ele>
<speed>4.5</speed>
<course>304.1</course>
<desc>Speed 4.5 km/h Distance 5.15 km</desc>
<time>2010-02-25T17:16:04.80</time>
<name>3551</name>
</trkpt>
<trkpt lat="48.932182" lon="8.673237">
<ele>361.5</ele>
<speed>4.3</speed>
<course>296.9</course>
<desc>Speed 4.3 km/h Distance 5.15 km</desc>
<time>2010-02-25T17:16:05.81</time>
<name>3552</name>
</trkpt>
<trkpt lat="48.932188" lon="8.673217">
<ele>362.5</ele>
<speed>4.9</speed>
<course>302.4</course>
<desc>Speed 4.9 km/h Distance 5.15 km</desc>
<time>2010-02-25T17:16:06.81</time>
<name>3553</name>
</trkpt>
<trkpt lat="48.932197" lon="8.673197">
<ele>362.5</ele>
<speed>4.5</speed>
<course>322.5</course>
<desc>Speed 4.5 km/h Distance 5.15 km</desc>
<time>2010-02-25T17:16:07.83</time>
<name>3554</name>
</trkpt>
<trkpt lat="48.932207" lon="8.673185">
<ele>361.0</ele>
<speed>3.6</speed>
<course>318.8</course>
<desc>Speed 3.6 km/h Distance 5.15 km</desc>
<time>2010-02-25T17:16:08.80</time>
<name>3555</name>
</trkpt>
<trkpt lat="48.932217" lon="8.673172">
<ele>360.0</ele>
<speed>3.7</speed>
<course>331.4</course>
<desc>Speed 3.7 km/h Distance 5.15 km</desc>
<time>2010-02-25T17:16:09.80</time>
<name>3556</name>
</trkpt>
<trkpt lat="48.932227" lon="8.673163">
<ele>358.5</ele>
<speed>3.7</speed>
<course>317.4</course>
<desc>Speed 3.7 km/h Distance 5.15 km</desc>
<time>2010-02-25T17:16:10.81</time>
<name>3557</name>
</trkpt>
<trkpt lat="48.932235" lon="8.673152">
<ele>357.5</ele>
<speed>4.1</speed>
<course>313.6</course>
<desc>Speed 4.1 km/h Distance 5.16 km</desc>
<time>2010-02-25T17:16:11.81</time>
<name>3558</name>
</trkpt>
<trkpt lat="48.932243" lon="8.673138">
<ele>357.0</ele>
<speed>4.5</speed>
<course>307.3</course>
<desc>Speed 4.5 km/h Distance 5.16 km</desc>
<time>2010-02-25T17:16:12.80</time>
<name>3559</name>
</trkpt>
<trkpt lat="48.932250" lon="8.673125">
<ele>356.0</ele>
<speed>4.5</speed>
<course>307.3</course>
<desc>Speed 4.5 km/h Distance 5.16 km</desc>
<time>2010-02-25T17:16:13.81</time>
<name>3560</name>
</trkpt>
<trkpt lat="48.932257" lon="8.673112">
<ele>356.0</ele>
<speed>4.1</speed>
<course>0.0</course>
<desc>Speed 4.1 km/h Distance 5.16 km</desc>
<time>2010-02-25T17:16:14.80</time>
<name>3561</name>
</trkpt>
<trkpt lat="48.932270" lon="8.673112">
<ele>355.5</ele>
<speed>3.9</speed>
<course>326.6</course>
<desc>Speed 3.9 km/h Distance 5.16 km</desc>
<time>2010-02-25T17:16:15.80</time>
<name>3562</name>
</trkpt>
<trkpt lat="48.932282" lon="8.673100">
<ele>354.0</ele>
<speed>3.8</speed>
<course>275.4</course>
<desc>Speed 3.8 km/h Distance 5.16 km</desc>
<time>2010-02-25T17:16:16.80</time>
<name>3563</name>
</trkpt>
<trkpt lat="48.932283" lon="8.673073">
<ele>355.0</ele>
<speed>5.3</speed>
<course>303.9</course>
<desc>Speed 5.3 km/h Distance 5.16 km</desc>
<time>2010-02-25T17:16:17.80</time>
<name>3564</name>
</trkpt>
<trkpt lat="48.932290" lon="8.673058">
<ele>354.5</ele>
<speed>4.1</speed>
<course>315.5</course>
<desc>Speed 4.1 km/h Distance 5.17 km</desc>
<time>2010-02-25T17:16:18.80</time>
<name>3565</name>
</trkpt>
<trkpt lat="48.932297" lon="8.673048">
<ele>353.5</ele>
<speed>3.2</speed>
<course>301.3</course>
<desc>Speed 3.2 km/h Distance 5.17 km</desc>
<time>2010-02-25T17:16:19.80</time>
<name>3566</name>
</trkpt>
<trkpt lat="48.932303" lon="8.673032">
<ele>352.0</ele>
<speed>4.2</speed>
<course>304.0</course>
<desc>Speed 4.2 km/h Distance 5.17 km</desc>
<time>2010-02-25T17:16:20.80</time>
<name>3567</name>
</trkpt>
<trkpt lat="48.932310" lon="8.673017">
<ele>352.0</ele>
<speed>4.5</speed>
<course>310.2</course>
<desc>Speed 4.5 km/h Distance 5.17 km</desc>
<time>2010-02-25T17:16:21.80</time>
<name>3568</name>
</trkpt>
<trkpt lat="48.932318" lon="8.673002">
<ele>351.5</ele>
<speed>4.9</speed>
<course>299.0</course>
<desc>Speed 4.9 km/h Distance 5.17 km</desc>
<time>2010-02-25T17:16:22.80</time>
<name>3569</name>
</trkpt>
<trkpt lat="48.932325" lon="8.672983">
<ele>352.0</ele>
<speed>5.0</speed>
<course>289.4</course>
<desc>Speed 5.0 km/h Distance 5.17 km</desc>
<time>2010-02-25T17:16:23.80</time>
<name>3570</name>
</trkpt>
<trkpt lat="48.932330" lon="8.672962">
<ele>351.5</ele>
<speed>4.0</speed>
<course>310.9</course>
<desc>Speed 4.0 km/h Distance 5.17 km</desc>
<time>2010-02-25T17:16:24.80</time>
<name>3571</name>
</trkpt>
<trkpt lat="48.932337" lon="8.672950">
<ele>350.5</ele>
<speed>3.9</speed>
<course>316.9</course>
<desc>Speed 3.9 km/h Distance 5.18 km</desc>
<time>2010-02-25T17:16:25.80</time>
<name>3572</name>
</trkpt>
<trkpt lat="48.932348" lon="8.672933">
<ele>350.5</ele>
<speed>4.3</speed>
<course>312.4</course>
<desc>Speed 4.3 km/h Distance 5.18 km</desc>
<time>2010-02-25T17:16:26.80</time>
<name>3573</name>
</trkpt>
<trkpt lat="48.932358" lon="8.672917">
<ele>350.0</ele>
<speed>4.0</speed>
<course>310.3</course>
<desc>Speed 4.0 km/h Distance 5.18 km</desc>
<time>2010-02-25T17:16:27.80</time>
<name>3574</name>
</trkpt>
<trkpt lat="48.932367" lon="8.672902">
<ele>349.0</ele>
<speed>4.0</speed>
<course>304.7</course>
<desc>Speed 4.0 km/h Distance 5.18 km</desc>
<time>2010-02-25T17:16:28.80</time>
<name>3575</name>
</trkpt>
<trkpt lat="48.932375" lon="8.672883">
<ele>349.0</ele>
<speed>4.4</speed>
<course>321.6</course>
<desc>Speed 4.4 km/h Distance 5.18 km</desc>
<time>2010-02-25T17:16:29.80</time>
<name>3576</name>
</trkpt>
<trkpt lat="48.932383" lon="8.672873">
<ele>347.5</ele>
<speed>3.4</speed>
<course>270.0</course>
<desc>Speed 3.4 km/h Distance 5.18 km</desc>
<time>2010-02-25T17:16:30.80</time>
<name>3577</name>
</trkpt>
<trkpt lat="48.932383" lon="8.672853">
<ele>349.5</ele>
<speed>2.5</speed>
<course>259.2</course>
<desc>Speed 2.5 km/h Distance 5.18 km</desc>
<time>2010-02-25T17:16:31.80</time>
<name>3578</name>
</trkpt>
<trkpt lat="48.932380" lon="8.672827">
<ele>352.0</ele>
<speed>1.8</speed>
<course>247.1</course>
<desc>Speed 1.8 km/h Distance 5.19 km</desc>
<time>2010-02-25T17:16:32.80</time>
<name>3579</name>
</trkpt>
<trkpt lat="48.932372" lon="8.672797">
<ele>355.0</ele>
<speed>2.1</speed>
<course>312.2</course>
<desc>Speed 2.1 km/h Distance 5.19 km</desc>
<time>2010-02-25T17:16:33.80</time>
<name>3580</name>
</trkpt>
<trkpt lat="48.932377" lon="8.672788">
<ele>354.0</ele>
<speed>1.2</speed>
<course>231.9</course>
<desc>Speed 1.2 km/h Distance 5.19 km</desc>
<time>2010-02-25T17:16:34.80</time>
<name>3581</name>
</trkpt>
<trkpt lat="48.932375" lon="8.672785">
<ele>354.5</ele>
<speed>0.7</speed>
<course>249.5</course>
<desc>Speed 0.7 km/h Distance 5.19 km</desc>
<time>2010-02-25T17:16:35.80</time>
<name>3582</name>
</trkpt>
<trkpt lat="48.932373" lon="8.672778">
<ele>355.0</ele>
<speed>0.4</speed>
<course>231.9</course>
<desc>Speed 0.4 km/h Distance 5.19 km</desc>
<time>2010-02-25T17:16:36.80</time>
<name>3583</name>
</trkpt>
<trkpt lat="48.932372" lon="8.672775">
<ele>355.5</ele>
<speed>1.0</speed>
<course>242.6</course>
<desc>Speed 1.0 km/h Distance 5.19 km</desc>
<time>2010-02-25T17:16:37.80</time>
<name>3584</name>
</trkpt>
<trkpt lat="48.932370" lon="8.672770">
<ele>355.5</ele>
<speed>1.1</speed>
<course>246.4</course>
<desc>Speed 1.1 km/h Distance 5.19 km</desc>
<time>2010-02-25T17:16:38.80</time>
<name>3585</name>
</trkpt>
<trkpt lat="48.932367" lon="8.672758">
<ele>357.5</ele>
<speed>0.4</speed>
<course>270.0</course>
<desc>Speed 0.4 km/h Distance 5.19 km</desc>
<time>2010-02-25T17:16:39.80</time>
<name>3586</name>
</trkpt>
<trkpt lat="48.932367" lon="8.672755">
<ele>357.5</ele>
<speed>0.6</speed>
<course>282.3</course>
<desc>Speed 0.6 km/h Distance 5.19 km</desc>
<time>2010-02-25T17:16:40.79</time>
<name>3587</name>
</trkpt>
<trkpt lat="48.932368" lon="8.672743">
<ele>358.0</ele>
<speed>2.5</speed>
<course>307.3</course>
<desc>Speed 2.5 km/h Distance 5.19 km</desc>
<time>2010-02-25T17:16:41.80</time>
<name>3588</name>
</trkpt>
<trkpt lat="48.932375" lon="8.672730">
<ele>358.0</ele>
<speed>3.2</speed>
<course>307.3</course>
<desc>Speed 3.2 km/h Distance 5.19 km</desc>
<time>2010-02-25T17:16:42.80</time>
<name>3589</name>
</trkpt>
<trkpt lat="48.932383" lon="8.672713">
<ele>357.5</ele>
<speed>3.9</speed>
<course>298.5</course>
<desc>Speed 3.9 km/h Distance 5.20 km</desc>
<time>2010-02-25T17:16:43.79</time>
<name>3590</name>
</trkpt>
<trkpt lat="48.932392" lon="8.672690">
<ele>357.5</ele>
<speed>4.4</speed>
<course>300.4</course>
<desc>Speed 4.4 km/h Distance 5.20 km</desc>
<time>2010-02-25T17:16:44.79</time>
<name>3591</name>
</trkpt>
<trkpt lat="48.932400" lon="8.672668">
<ele>357.5</ele>
<speed>3.9</speed>
<course>304.7</course>
<desc>Speed 3.9 km/h Distance 5.20 km</desc>
<time>2010-02-25T17:16:45.79</time>
<name>3592</name>
</trkpt>
<trkpt lat="48.932408" lon="8.672650">
<ele>358.0</ele>
<speed>4.2</speed>
<course>304.1</course>
<desc>Speed 4.2 km/h Distance 5.20 km</desc>
<time>2010-02-25T17:16:46.79</time>
<name>3593</name>
</trkpt>
<trkpt lat="48.932415" lon="8.672635">
<ele>357.5</ele>
<speed>4.6</speed>
<course>315.4</course>
<desc>Speed 4.6 km/h Distance 5.20 km</desc>
<time>2010-02-25T17:16:47.79</time>
<name>3594</name>
</trkpt>
<trkpt lat="48.932425" lon="8.672620">
<ele>357.0</ele>
<speed>4.4</speed>
<course>293.5</course>
<desc>Speed 4.4 km/h Distance 5.20 km</desc>
<time>2010-02-25T17:16:48.79</time>
<name>3595</name>
</trkpt>
<trkpt lat="48.932432" lon="8.672597">
<ele>357.0</ele>
<speed>5.3</speed>
<course>301.3</course>
<desc>Speed 5.3 km/h Distance 5.21 km</desc>
<time>2010-02-25T17:16:49.79</time>
<name>3596</name>
</trkpt>
<trkpt lat="48.932438" lon="8.672580">
<ele>357.0</ele>
<speed>4.6</speed>
<course>298.6</course>
<desc>Speed 4.6 km/h Distance 5.21 km</desc>
<time>2010-02-25T17:16:50.79</time>
<name>3597</name>
</trkpt>
<trkpt lat="48.932447" lon="8.672557">
<ele>356.5</ele>
<speed>5.1</speed>
<course>307.3</course>
<desc>Speed 5.1 km/h Distance 5.21 km</desc>
<time>2010-02-25T17:16:51.79</time>
<name>3598</name>
</trkpt>
<trkpt lat="48.932453" lon="8.672543">
<ele>356.0</ele>
<speed>4.2</speed>
<course>307.3</course>
<desc>Speed 4.2 km/h Distance 5.21 km</desc>
<time>2010-02-25T17:16:52.79</time>
<name>3599</name>
</trkpt>
<trkpt lat="48.932462" lon="8.672527">
<ele>355.5</ele>
<speed>4.5</speed>
<course>310.3</course>
<desc>Speed 4.5 km/h Distance 5.21 km</desc>
<time>2010-02-25T17:16:53.79</time>
<name>3600</name>
</trkpt>
<trkpt lat="48.932470" lon="8.672512">
<ele>355.5</ele>
<speed>4.4</speed>
<course>299.0</course>
<desc>Speed 4.4 km/h Distance 5.21 km</desc>
<time>2010-02-25T17:16:54.79</time>
<name>3601</name>
</trkpt>
<trkpt lat="48.932477" lon="8.672493">
<ele>355.5</ele>
<speed>4.9</speed>
<course>302.4</course>
<desc>Speed 4.9 km/h Distance 5.21 km</desc>
<time>2010-02-25T17:16:55.79</time>
<name>3602</name>
</trkpt>
<trkpt lat="48.932485" lon="8.672473">
<ele>355.5</ele>
<speed>4.9</speed>
<course>302.4</course>
<desc>Speed 4.9 km/h Distance 5.22 km</desc>
<time>2010-02-25T17:16:56.79</time>
<name>3603</name>
</trkpt>
<trkpt lat="48.932493" lon="8.672453">
<ele>355.5</ele>
<speed>4.6</speed>
<course>304.7</course>
<desc>Speed 4.6 km/h Distance 5.22 km</desc>
<time>2010-02-25T17:16:57.79</time>
<name>3604</name>
</trkpt>
<trkpt lat="48.932502" lon="8.672435">
<ele>355.5</ele>
<speed>4.4</speed>
<course>304.7</course>
<desc>Speed 4.4 km/h Distance 5.22 km</desc>
<time>2010-02-25T17:16:58.79</time>
<name>3605</name>
</trkpt>
<trkpt lat="48.932510" lon="8.672417">
<ele>355.5</ele>
<speed>4.9</speed>
<course>296.9</course>
<desc>Speed 4.9 km/h Distance 5.22 km</desc>
<time>2010-02-25T17:16:59.79</time>
<name>3606</name>
</trkpt>
<trkpt lat="48.932517" lon="8.672397">
<ele>355.5</ele>
<speed>5.0</speed>
<course>284.3</course>
<desc>Speed 5.0 km/h Distance 5.22 km</desc>
<time>2010-02-25T17:17:00.79</time>
<name>3607</name>
</trkpt>
<trkpt lat="48.932520" lon="8.672377">
<ele>354.5</ele>
<speed>4.7</speed>
<course>301.4</course>
<desc>Speed 4.7 km/h Distance 5.22 km</desc>
<time>2010-02-25T17:17:01.79</time>
<name>3608</name>
</trkpt>
<trkpt lat="48.932527" lon="8.672360">
<ele>354.5</ele>
<speed>4.8</speed>
<course>307.3</course>
<desc>Speed 4.8 km/h Distance 5.23 km</desc>
<time>2010-02-25T17:17:02.79</time>
<name>3609</name>
</trkpt>
<trkpt lat="48.932537" lon="8.672340">
<ele>354.5</ele>
<speed>5.3</speed>
<course>300.3</course>
<desc>Speed 5.3 km/h Distance 5.23 km</desc>
<time>2010-02-25T17:17:03.79</time>
<name>3610</name>
</trkpt>
<trkpt lat="48.932545" lon="8.672318">
<ele>353.5</ele>
<speed>4.9</speed>
<course>312.4</course>
<desc>Speed 4.9 km/h Distance 5.23 km</desc>
<time>2010-02-25T17:17:04.79</time>
<name>3611</name>
</trkpt>
<trkpt lat="48.932555" lon="8.672302">
<ele>353.5</ele>
<speed>4.4</speed>
<course>295.1</course>
<desc>Speed 4.4 km/h Distance 5.23 km</desc>
<time>2010-02-25T17:17:05.79</time>
<name>3612</name>
</trkpt>
<trkpt lat="48.932562" lon="8.672280">
<ele>353.5</ele>
<speed>5.1</speed>
<course>280.8</course>
<desc>Speed 5.1 km/h Distance 5.23 km</desc>
<time>2010-02-25T17:17:06.79</time>
<name>3613</name>
</trkpt>
<trkpt lat="48.932565" lon="8.672253">
<ele>354.0</ele>
<speed>5.6</speed>
<course>299.0</course>
<desc>Speed 5.6 km/h Distance 5.24 km</desc>
<time>2010-02-25T17:17:07.79</time>
<name>3614</name>
</trkpt>
<trkpt lat="48.932572" lon="8.672235">
<ele>353.5</ele>
<speed>4.2</speed>
<course>296.9</course>
<desc>Speed 4.2 km/h Distance 5.24 km</desc>
<time>2010-02-25T17:17:08.79</time>
<name>3615</name>
</trkpt>
<trkpt lat="48.932578" lon="8.672215">
<ele>353.5</ele>
<speed>4.9</speed>
<course>294.5</course>
<desc>Speed 4.9 km/h Distance 5.24 km</desc>
<time>2010-02-25T17:17:09.79</time>
<name>3616</name>
</trkpt>
<trkpt lat="48.932583" lon="8.672198">
<ele>353.0</ele>
<speed>4.8</speed>
<course>304.1</course>
<desc>Speed 4.8 km/h Distance 5.24 km</desc>
<time>2010-02-25T17:17:10.79</time>
<name>3617</name>
</trkpt>
<trkpt lat="48.932590" lon="8.672183">
<ele>353.0</ele>
<speed>4.7</speed>
<course>296.9</course>
<desc>Speed 4.7 km/h Distance 5.24 km</desc>
<time>2010-02-25T17:17:11.79</time>
<name>3618</name>
</trkpt>
<trkpt lat="48.932597" lon="8.672163">
<ele>353.0</ele>
<speed>4.4</speed>
<course>296.9</course>
<desc>Speed 4.4 km/h Distance 5.24 km</desc>
<time>2010-02-25T17:17:12.79</time>
<name>3619</name>
</trkpt>
<trkpt lat="48.932603" lon="8.672143">
<ele>353.5</ele>
<speed>4.5</speed>
<course>274.8</course>
<desc>Speed 4.5 km/h Distance 5.24 km</desc>
<time>2010-02-25T17:17:13.79</time>
<name>3620</name>
</trkpt>
<trkpt lat="48.932605" lon="8.672113">
<ele>354.5</ele>
<speed>6.6</speed>
<course>295.1</course>
<desc>Speed 6.6 km/h Distance 5.25 km</desc>
<time>2010-02-25T17:17:14.79</time>
<name>3621</name>
</trkpt>
<trkpt lat="48.932612" lon="8.672092">
<ele>355.0</ele>
<speed>5.0</speed>
<course>296.9</course>
<desc>Speed 5.0 km/h Distance 5.25 km</desc>
<time>2010-02-25T17:17:15.79</time>
<name>3622</name>
</trkpt>
<trkpt lat="48.932618" lon="8.672072">
<ele>354.5</ele>
<speed>4.8</speed>
<course>290.8</course>
<desc>Speed 4.8 km/h Distance 5.25 km</desc>
<time>2010-02-25T17:17:16.79</time>
<name>3623</name>
</trkpt>
<trkpt lat="48.932623" lon="8.672052">
<ele>355.0</ele>
<speed>4.8</speed>
<course>294.6</course>
<desc>Speed 4.8 km/h Distance 5.25 km</desc>
<time>2010-02-25T17:17:17.79</time>
<name>3624</name>
</trkpt>
<trkpt lat="48.932628" lon="8.672035">
<ele>354.5</ele>
<speed>3.9</speed>
<course>296.9</course>
<desc>Speed 3.9 km/h Distance 5.25 km</desc>
<time>2010-02-25T17:17:18.79</time>
<name>3625</name>
</trkpt>
<trkpt lat="48.932635" lon="8.672015">
<ele>354.5</ele>
<speed>4.5</speed>
<course>290.8</course>
<desc>Speed 4.5 km/h Distance 5.25 km</desc>
<time>2010-02-25T17:17:19.79</time>
<name>3626</name>
</trkpt>
<trkpt lat="48.932640" lon="8.671995">
<ele>355.0</ele>
<speed>4.5</speed>
<course>289.4</course>
<desc>Speed 4.5 km/h Distance 5.26 km</desc>
<time>2010-02-25T17:17:20.79</time>
<name>3627</name>
</trkpt>
<trkpt lat="48.932645" lon="8.671973">
<ele>355.0</ele>
<speed>4.8</speed>
<course>289.4</course>
<desc>Speed 4.8 km/h Distance 5.26 km</desc>
<time>2010-02-25T17:17:21.79</time>
<name>3628</name>
</trkpt>
<trkpt lat="48.932650" lon="8.671952">
<ele>354.5</ele>
<speed>4.7</speed>
<course>299.0</course>
<desc>Speed 4.7 km/h Distance 5.26 km</desc>
<time>2010-02-25T17:17:22.79</time>
<name>3629</name>
</trkpt>
<trkpt lat="48.932657" lon="8.671933">
<ele>354.5</ele>
<speed>5.1</speed>
<course>307.3</course>
<desc>Speed 5.1 km/h Distance 5.26 km</desc>
<time>2010-02-25T17:17:23.79</time>
<name>3630</name>
</trkpt>
<trkpt lat="48.932665" lon="8.671917">
<ele>354.0</ele>
<speed>4.4</speed>
<course>299.0</course>
<desc>Speed 4.4 km/h Distance 5.26 km</desc>
<time>2010-02-25T17:17:24.79</time>
<name>3631</name>
</trkpt>
<trkpt lat="48.932672" lon="8.671898">
<ele>353.5</ele>
<speed>4.8</speed>
<course>296.9</course>
<desc>Speed 4.8 km/h Distance 5.26 km</desc>
<time>2010-02-25T17:17:25.79</time>
<name>3632</name>
</trkpt>
<trkpt lat="48.932678" lon="8.671878">
<ele>352.5</ele>
<speed>4.6</speed>
<course>304.7</course>
<desc>Speed 4.6 km/h Distance 5.27 km</desc>
<time>2010-02-25T17:17:26.79</time>
<name>3633</name>
</trkpt>
<trkpt lat="48.932687" lon="8.671860">
<ele>352.5</ele>
<speed>5.0</speed>
<course>289.4</course>
<desc>Speed 5.0 km/h Distance 5.27 km</desc>
<time>2010-02-25T17:17:27.79</time>
<name>3634</name>
</trkpt>
<trkpt lat="48.932692" lon="8.671838">
<ele>352.0</ele>
<speed>5.1</speed>
<course>289.4</course>
<desc>Speed 5.1 km/h Distance 5.27 km</desc>
<time>2010-02-25T17:17:28.79</time>
<name>3635</name>
</trkpt>
<trkpt lat="48.932697" lon="8.671817">
<ele>352.5</ele>
<speed>4.9</speed>
<course>307.3</course>
<desc>Speed 4.9 km/h Distance 5.27 km</desc>
<time>2010-02-25T17:17:29.79</time>
<name>3636</name>
</trkpt>
<trkpt lat="48.932703" lon="8.671803">
<ele>351.5</ele>
<speed>3.6</speed>
<course>304.7</course>
<desc>Speed 3.6 km/h Distance 5.27 km</desc>
<time>2010-02-25T17:17:30.79</time>
<name>3637</name>
</trkpt>
<trkpt lat="48.932712" lon="8.671785">
<ele>351.0</ele>
<speed>5.0</speed>
<course>299.0</course>
<desc>Speed 5.0 km/h Distance 5.27 km</desc>
<time>2010-02-25T17:17:31.79</time>
<name>3638</name>
</trkpt>
<trkpt lat="48.932718" lon="8.671767">
<ele>350.5</ele>
<speed>4.7</speed>
<course>310.3</course>
<desc>Speed 4.7 km/h Distance 5.28 km</desc>
<time>2010-02-25T17:17:32.79</time>
<name>3639</name>
</trkpt>
<trkpt lat="48.932727" lon="8.671752">
<ele>350.5</ele>
<speed>4.5</speed>
<course>313.6</course>
<desc>Speed 4.5 km/h Distance 5.28 km</desc>
<time>2010-02-25T17:17:33.79</time>
<name>3640</name>
</trkpt>
<trkpt lat="48.932735" lon="8.671738">
<ele>349.5</ele>
<speed>4.3</speed>
<course>283.2</course>
<desc>Speed 4.3 km/h Distance 5.28 km</desc>
<time>2010-02-25T17:17:34.79</time>
<name>3641</name>
</trkpt>
<trkpt lat="48.932738" lon="8.671717">
<ele>349.0</ele>
<speed>4.6</speed>
<course>299.0</course>
<desc>Speed 4.6 km/h Distance 5.28 km</desc>
<time>2010-02-25T17:17:35.79</time>
<name>3642</name>
</trkpt>
<trkpt lat="48.932745" lon="8.671698">
<ele>349.0</ele>
<speed>5.3</speed>
<course>298.6</course>
<desc>Speed 5.3 km/h Distance 5.28 km</desc>
<time>2010-02-25T17:17:36.79</time>
<name>3643</name>
</trkpt>
<trkpt lat="48.932753" lon="8.671675">
<ele>348.5</ele>
<speed>5.2</speed>
<course>299.0</course>
<desc>Speed 5.2 km/h Distance 5.28 km</desc>
<time>2010-02-25T17:17:37.79</time>
<name>3644</name>
</trkpt>
<trkpt lat="48.932760" lon="8.671657">
<ele>348.0</ele>
<speed>4.6</speed>
<course>309.7</course>
<desc>Speed 4.6 km/h Distance 5.28 km</desc>
<time>2010-02-25T17:17:38.79</time>
<name>3645</name>
</trkpt>
<trkpt lat="48.932770" lon="8.671638">
<ele>347.0</ele>
<speed>4.6</speed>
<course>296.9</course>
<desc>Speed 4.6 km/h Distance 5.29 km</desc>
<time>2010-02-25T17:17:39.79</time>
<name>3646</name>
</trkpt>
<trkpt lat="48.932777" lon="8.671618">
<ele>346.0</ele>
<speed>5.2</speed>
<course>289.4</course>
<desc>Speed 5.2 km/h Distance 5.29 km</desc>
<time>2010-02-25T17:17:40.79</time>
<name>3647</name>
</trkpt>
<trkpt lat="48.932782" lon="8.671597">
<ele>345.0</ele>
<speed>4.9</speed>
<course>301.3</course>
<desc>Speed 4.9 km/h Distance 5.29 km</desc>
<time>2010-02-25T17:17:41.79</time>
<name>3648</name>
</trkpt>
<trkpt lat="48.932788" lon="8.671580">
<ele>344.0</ele>
<speed>4.3</speed>
<course>313.6</course>
<desc>Speed 4.3 km/h Distance 5.29 km</desc>
<time>2010-02-25T17:17:42.79</time>
<name>3649</name>
</trkpt>
<trkpt lat="48.932797" lon="8.671567">
<ele>343.5</ele>
<speed>4.4</speed>
<course>301.4</course>
<desc>Speed 4.4 km/h Distance 5.29 km</desc>
<time>2010-02-25T17:17:43.79</time>
<name>3650</name>
</trkpt>
<trkpt lat="48.932803" lon="8.671550">
<ele>343.0</ele>
<speed>5.0</speed>
<course>310.1</course>
<desc>Speed 5.0 km/h Distance 5.29 km</desc>
<time>2010-02-25T17:17:44.79</time>
<name>3651</name>
</trkpt>
<trkpt lat="48.932812" lon="8.671535">
<ele>342.0</ele>
<speed>4.6</speed>
<course>311.5</course>
<desc>Speed 4.6 km/h Distance 5.30 km</desc>
<time>2010-02-25T17:17:45.79</time>
<name>3652</name>
</trkpt>
<trkpt lat="48.932823" lon="8.671515">
<ele>341.0</ele>
<speed>5.6</speed>
<course>298.5</course>
<desc>Speed 5.6 km/h Distance 5.30 km</desc>
<time>2010-02-25T17:17:46.79</time>
<name>3653</name>
</trkpt>
<trkpt lat="48.932832" lon="8.671492">
<ele>340.0</ele>
<speed>5.7</speed>
<course>302.4</course>
<desc>Speed 5.7 km/h Distance 5.30 km</desc>
<time>2010-02-25T17:17:47.79</time>
<name>3654</name>
</trkpt>
<trkpt lat="48.932840" lon="8.671472">
<ele>339.5</ele>
<speed>5.1</speed>
<course>307.3</course>
<desc>Speed 5.1 km/h Distance 5.30 km</desc>
<time>2010-02-25T17:17:48.79</time>
<name>3655</name>
</trkpt>
<trkpt lat="48.932848" lon="8.671455">
<ele>339.0</ele>
<speed>4.9</speed>
<course>312.4</course>
<desc>Speed 4.9 km/h Distance 5.30 km</desc>
<time>2010-02-25T17:17:49.79</time>
<name>3656</name>
</trkpt>
<trkpt lat="48.932858" lon="8.671438">
<ele>338.5</ele>
<speed>5.0</speed>
<course>315.4</course>
<desc>Speed 5.0 km/h Distance 5.30 km</desc>
<time>2010-02-25T17:17:50.79</time>
<name>3657</name>
</trkpt>
<trkpt lat="48.932868" lon="8.671423">
<ele>338.0</ele>
<speed>5.1</speed>
<course>310.1</course>
<desc>Speed 5.1 km/h Distance 5.31 km</desc>
<time>2010-02-25T17:17:51.79</time>
<name>3658</name>
</trkpt>
<trkpt lat="48.932877" lon="8.671408">
<ele>338.0</ele>
<speed>4.9</speed>
<course>307.3</course>
<desc>Speed 4.9 km/h Distance 5.31 km</desc>
<time>2010-02-25T17:17:52.79</time>
<name>3659</name>
</trkpt>
<trkpt lat="48.932887" lon="8.671388">
<ele>338.0</ele>
<speed>5.7</speed>
<course>280.2</course>
<desc>Speed 5.7 km/h Distance 5.31 km</desc>
<time>2010-02-25T17:17:53.79</time>
<name>3660</name>
</trkpt>
<trkpt lat="48.932890" lon="8.671360">
<ele>338.5</ele>
<speed>5.8</speed>
<course>315.5</course>
<desc>Speed 5.8 km/h Distance 5.31 km</desc>
<time>2010-02-25T17:17:54.79</time>
<name>3661</name>
</trkpt>
<trkpt lat="48.932900" lon="8.671345">
<ele>337.5</ele>
<speed>4.5</speed>
<course>300.4</course>
<desc>Speed 4.5 km/h Distance 5.31 km</desc>
<time>2010-02-25T17:17:55.79</time>
<name>3662</name>
</trkpt>
<trkpt lat="48.932908" lon="8.671323">
<ele>338.0</ele>
<speed>5.3</speed>
<course>315.4</course>
<desc>Speed 5.3 km/h Distance 5.31 km</desc>
<time>2010-02-25T17:17:56.79</time>
<name>3663</name>
</trkpt>
<trkpt lat="48.932918" lon="8.671308">
<ele>338.0</ele>
<speed>5.0</speed>
<course>307.3</course>
<desc>Speed 5.0 km/h Distance 5.32 km</desc>
<time>2010-02-25T17:17:57.79</time>
<name>3664</name>
</trkpt>
<trkpt lat="48.932927" lon="8.671292">
<ele>337.5</ele>
<speed>4.9</speed>
<course>318.7</course>
<desc>Speed 4.9 km/h Distance 5.32 km</desc>
<time>2010-02-25T17:17:58.79</time>
<name>3665</name>
</trkpt>
<trkpt lat="48.932937" lon="8.671278">
<ele>337.5</ele>
<speed>4.5</speed>
<course>304.6</course>
<desc>Speed 4.5 km/h Distance 5.32 km</desc>
<time>2010-02-25T17:17:59.79</time>
<name>3666</name>
</trkpt>
<trkpt lat="48.932945" lon="8.671260">
<ele>337.0</ele>
<speed>4.4</speed>
<course>296.9</course>
<desc>Speed 4.4 km/h Distance 5.32 km</desc>
<time>2010-02-25T17:18:00.79</time>
<name>3667</name>
</trkpt>
<trkpt lat="48.932952" lon="8.671240">
<ele>336.5</ele>
<speed>4.6</speed>
<course>296.9</course>
<desc>Speed 4.6 km/h Distance 5.32 km</desc>
<time>2010-02-25T17:18:01.79</time>
<name>3668</name>
</trkpt>
<trkpt lat="48.932960" lon="8.671215">
<ele>336.0</ele>
<speed>5.0</speed>
<course>319.8</course>
<desc>Speed 5.0 km/h Distance 5.32 km</desc>
<time>2010-02-25T17:18:02.79</time>
<name>3669</name>
</trkpt>
<trkpt lat="48.932972" lon="8.671200">
<ele>336.0</ele>
<speed>5.4</speed>
<course>326.8</course>
<desc>Speed 5.4 km/h Distance 5.33 km</desc>
<time>2010-02-25T17:18:03.79</time>
<name>3670</name>
</trkpt>
<trkpt lat="48.932982" lon="8.671190">
<ele>335.5</ele>
<speed>4.8</speed>
<course>296.9</course>
<desc>Speed 4.8 km/h Distance 5.33 km</desc>
<time>2010-02-25T17:18:04.79</time>
<name>3671</name>
</trkpt>
<trkpt lat="48.932988" lon="8.671170">
<ele>337.0</ele>
<speed>5.4</speed>
<course>293.5</course>
<desc>Speed 5.4 km/h Distance 5.33 km</desc>
<time>2010-02-25T17:18:05.79</time>
<name>3672</name>
</trkpt>
<trkpt lat="48.932995" lon="8.671147">
<ele>337.5</ele>
<speed>4.9</speed>
<course>280.8</course>
<desc>Speed 4.9 km/h Distance 5.33 km</desc>
<time>2010-02-25T17:18:06.79</time>
<name>3673</name>
</trkpt>
<trkpt lat="48.932998" lon="8.671120">
<ele>338.5</ele>
<speed>6.0</speed>
<course>299.0</course>
<desc>Speed 6.0 km/h Distance 5.33 km</desc>
<time>2010-02-25T17:18:07.79</time>
<name>3674</name>
</trkpt>
<trkpt lat="48.933005" lon="8.671102">
<ele>338.5</ele>
<speed>4.8</speed>
<course>310.3</course>
<desc>Speed 4.8 km/h Distance 5.33 km</desc>
<time>2010-02-25T17:18:08.79</time>
<name>3675</name>
</trkpt>
<trkpt lat="48.933013" lon="8.671087">
<ele>338.5</ele>
<speed>4.6</speed>
<course>304.6</course>
<desc>Speed 4.6 km/h Distance 5.34 km</desc>
<time>2010-02-25T17:18:09.79</time>
<name>3676</name>
</trkpt>
<trkpt lat="48.933022" lon="8.671068">
<ele>338.5</ele>
<speed>5.5</speed>
<course>319.8</course>
<desc>Speed 5.5 km/h Distance 5.34 km</desc>
<time>2010-02-25T17:18:10.79</time>
<name>3677</name>
</trkpt>
<trkpt lat="48.933033" lon="8.671053">
<ele>338.0</ele>
<speed>5.1</speed>
<course>330.2</course>
<desc>Speed 5.1 km/h Distance 5.34 km</desc>
<time>2010-02-25T17:18:11.79</time>
<name>3678</name>
</trkpt>
<trkpt lat="48.933047" lon="8.671042">
<ele>336.5</ele>
<speed>5.1</speed>
<course>326.9</course>
<desc>Speed 5.1 km/h Distance 5.34 km</desc>
<time>2010-02-25T17:18:12.79</time>
<name>3679</name>
</trkpt>
<trkpt lat="48.933058" lon="8.671030">
<ele>335.0</ele>
<speed>4.4</speed>
<course>295.1</course>
<desc>Speed 4.4 km/h Distance 5.34 km</desc>
<time>2010-02-25T17:18:13.79</time>
<name>3680</name>
</trkpt>
<trkpt lat="48.933065" lon="8.671008">
<ele>334.5</ele>
<speed>4.5</speed>
<course>309.7</course>
<desc>Speed 4.5 km/h Distance 5.34 km</desc>
<time>2010-02-25T17:18:14.79</time>
<name>3681</name>
</trkpt>
<trkpt lat="48.933075" lon="8.670990">
<ele>335.0</ele>
<speed>5.3</speed>
<course>295.1</course>
<desc>Speed 5.3 km/h Distance 5.35 km</desc>
<time>2010-02-25T17:18:15.79</time>
<name>3682</name>
</trkpt>
<trkpt lat="48.933082" lon="8.670968">
<ele>335.0</ele>
<speed>5.3</speed>
<course>309.3</course>
<desc>Speed 5.3 km/h Distance 5.35 km</desc>
<time>2010-02-25T17:18:16.79</time>
<name>3683</name>
</trkpt>
<trkpt lat="48.933093" lon="8.670947">
<ele>334.5</ele>
<speed>5.5</speed>
<course>305.0</course>
<desc>Speed 5.5 km/h Distance 5.35 km</desc>
<time>2010-02-25T17:18:17.79</time>
<name>3684</name>
</trkpt>
<trkpt lat="48.933103" lon="8.670925">
<ele>335.0</ele>
<speed>5.4</speed>
<course>330.6</course>
<desc>Speed 5.4 km/h Distance 5.35 km</desc>
<time>2010-02-25T17:18:18.79</time>
<name>3685</name>
</trkpt>
<trkpt lat="48.933115" lon="8.670915">
<ele>335.0</ele>
<speed>5.3</speed>
<course>289.4</course>
<desc>Speed 5.3 km/h Distance 5.35 km</desc>
<time>2010-02-25T17:18:19.79</time>
<name>3686</name>
</trkpt>
<trkpt lat="48.933120" lon="8.670893">
<ele>336.0</ele>
<speed>5.8</speed>
<course>286.9</course>
<desc>Speed 5.8 km/h Distance 5.35 km</desc>
<time>2010-02-25T17:18:20.79</time>
<name>3687</name>
</trkpt>
<trkpt lat="48.933125" lon="8.670868">
<ele>338.0</ele>
<speed>6.3</speed>
<course>296.9</course>
<desc>Speed 6.3 km/h Distance 5.36 km</desc>
<time>2010-02-25T17:18:21.79</time>
<name>3688</name>
</trkpt>
<trkpt lat="48.933133" lon="8.670843">
<ele>339.0</ele>
<speed>5.9</speed>
<course>316.7</course>
<desc>Speed 5.9 km/h Distance 5.36 km</desc>
<time>2010-02-25T17:18:22.79</time>
<name>3689</name>
</trkpt>
<trkpt lat="48.933145" lon="8.670827">
<ele>338.5</ele>
<speed>5.2</speed>
<course>307.3</course>
<desc>Speed 5.2 km/h Distance 5.36 km</desc>
<time>2010-02-25T17:18:23.79</time>
<name>3690</name>
</trkpt>
<trkpt lat="48.933153" lon="8.670810">
<ele>339.5</ele>
<speed>4.7</speed>
<course>295.1</course>
<desc>Speed 4.7 km/h Distance 5.36 km</desc>
<time>2010-02-25T17:18:24.79</time>
<name>3691</name>
</trkpt>
<trkpt lat="48.933160" lon="8.670788">
<ele>340.0</ele>
<speed>5.1</speed>
<course>307.3</course>
<desc>Speed 5.1 km/h Distance 5.36 km</desc>
<time>2010-02-25T17:18:25.79</time>
<name>3692</name>
</trkpt>
<trkpt lat="48.933170" lon="8.670768">
<ele>339.5</ele>
<speed>5.6</speed>
<course>305.0</course>
<desc>Speed 5.6 km/h Distance 5.37 km</desc>
<time>2010-02-25T17:18:26.79</time>
<name>3693</name>
</trkpt>
<trkpt lat="48.933180" lon="8.670747">
<ele>339.5</ele>
<speed>5.3</speed>
<course>307.3</course>
<desc>Speed 5.3 km/h Distance 5.37 km</desc>
<time>2010-02-25T17:18:27.79</time>
<name>3694</name>
</trkpt>
<trkpt lat="48.933188" lon="8.670730">
<ele>340.0</ele>
<speed>5.4</speed>
<course>304.7</course>
<desc>Speed 5.4 km/h Distance 5.37 km</desc>
<time>2010-02-25T17:18:28.79</time>
<name>3695</name>
</trkpt>
<trkpt lat="48.933197" lon="8.670712">
<ele>340.5</ele>
<speed>5.3</speed>
<course>274.4</course>
<desc>Speed 5.3 km/h Distance 5.37 km</desc>
<time>2010-02-25T17:18:29.79</time>
<name>3696</name>
</trkpt>
<trkpt lat="48.933198" lon="8.670678">
<ele>342.0</ele>
<speed>6.2</speed>
<course>279.1</course>
<desc>Speed 6.2 km/h Distance 5.37 km</desc>
<time>2010-02-25T17:18:30.79</time>
<name>3697</name>
</trkpt>
<trkpt lat="48.933202" lon="8.670647">
<ele>344.0</ele>
<speed>6.5</speed>
<course>293.5</course>
<desc>Speed 6.5 km/h Distance 5.38 km</desc>
<time>2010-02-25T17:18:31.79</time>
<name>3698</name>
</trkpt>
<trkpt lat="48.933208" lon="8.670623">
<ele>345.5</ele>
<speed>5.5</speed>
<course>309.4</course>
<desc>Speed 5.5 km/h Distance 5.38 km</desc>
<time>2010-02-25T17:18:32.79</time>
<name>3699</name>
</trkpt>
<trkpt lat="48.933220" lon="8.670602">
<ele>346.0</ele>
<speed>5.8</speed>
<course>302.4</course>
<desc>Speed 5.8 km/h Distance 5.38 km</desc>
<time>2010-02-25T17:18:33.79</time>
<name>3700</name>
</trkpt>
<trkpt lat="48.933228" lon="8.670582">
<ele>346.5</ele>
<speed>5.0</speed>
<course>310.1</course>
<desc>Speed 5.0 km/h Distance 5.38 km</desc>
<time>2010-02-25T17:18:34.79</time>
<name>3701</name>
</trkpt>
<trkpt lat="48.933237" lon="8.670567">
<ele>347.0</ele>
<speed>4.8</speed>
<course>290.8</course>
<desc>Speed 4.8 km/h Distance 5.38 km</desc>
<time>2010-02-25T17:18:35.79</time>
<name>3702</name>
</trkpt>
<trkpt lat="48.933243" lon="8.670540">
<ele>348.5</ele>
<speed>6.2</speed>
<course>315.4</course>
<desc>Speed 6.2 km/h Distance 5.38 km</desc>
<time>2010-02-25T17:18:36.79</time>
<name>3703</name>
</trkpt>
<trkpt lat="48.933253" lon="8.670525">
<ele>348.5</ele>
<speed>4.8</speed>
<course>309.7</course>
<desc>Speed 4.8 km/h Distance 5.39 km</desc>
<time>2010-02-25T17:18:37.79</time>
<name>3704</name>
</trkpt>
<trkpt lat="48.933263" lon="8.670507">
<ele>348.5</ele>
<speed>4.8</speed>
<course>293.5</course>
<desc>Speed 4.8 km/h Distance 5.39 km</desc>
<time>2010-02-25T17:18:38.79</time>
<name>3705</name>
</trkpt>
<trkpt lat="48.933270" lon="8.670483">
<ele>349.0</ele>
<speed>5.1</speed>
<course>315.5</course>
<desc>Speed 5.1 km/h Distance 5.39 km</desc>
<time>2010-02-25T17:18:39.79</time>
<name>3706</name>
</trkpt>
<trkpt lat="48.933280" lon="8.670468">
<ele>349.0</ele>
<speed>5.2</speed>
<course>307.3</course>
<desc>Speed 5.2 km/h Distance 5.39 km</desc>
<time>2010-02-25T17:18:40.79</time>
<name>3707</name>
</trkpt>
<trkpt lat="48.933288" lon="8.670452">
<ele>349.5</ele>
<speed>4.4</speed>
<course>323.1</course>
<desc>Speed 4.4 km/h Distance 5.39 km</desc>
<time>2010-02-25T17:18:41.79</time>
<name>3708</name>
</trkpt>
<trkpt lat="48.933300" lon="8.670438">
<ele>350.0</ele>
<speed>4.6</speed>
<course>331.1</course>
<desc>Speed 4.6 km/h Distance 5.39 km</desc>
<time>2010-02-25T17:18:42.79</time>
<name>3709</name>
</trkpt>
<trkpt lat="48.933310" lon="8.670430">
<ele>350.0</ele>
<speed>4.6</speed>
<course>290.8</course>
<desc>Speed 4.6 km/h Distance 5.40 km</desc>
<time>2010-02-25T17:18:43.79</time>
<name>3710</name>
</trkpt>
<trkpt lat="48.933315" lon="8.670410">
<ele>351.5</ele>
<speed>5.4</speed>
<course>312.5</course>
<desc>Speed 5.4 km/h Distance 5.40 km</desc>
<time>2010-02-25T17:18:44.79</time>
<name>3711</name>
</trkpt>
<trkpt lat="48.933325" lon="8.670393">
<ele>351.0</ele>
<speed>5.1</speed>
<course>319.8</course>
<desc>Speed 5.1 km/h Distance 5.40 km</desc>
<time>2010-02-25T17:18:45.79</time>
<name>3712</name>
</trkpt>
<trkpt lat="48.933337" lon="8.670378">
<ele>350.5</ele>
<speed>4.9</speed>
<course>298.5</course>
<desc>Speed 4.9 km/h Distance 5.40 km</desc>
<time>2010-02-25T17:18:46.79</time>
<name>3713</name>
</trkpt>
<trkpt lat="48.933345" lon="8.670355">
<ele>351.0</ele>
<speed>5.0</speed>
<course>295.4</course>
<desc>Speed 5.0 km/h Distance 5.40 km</desc>
<time>2010-02-25T17:18:47.79</time>
<name>3714</name>
</trkpt>
<trkpt lat="48.933353" lon="8.670328">
<ele>353.0</ele>
<speed>5.9</speed>
<course>315.3</course>
<desc>Speed 5.9 km/h Distance 5.40 km</desc>
<time>2010-02-25T17:18:48.79</time>
<name>3715</name>
</trkpt>
<trkpt lat="48.933367" lon="8.670308">
<ele>354.0</ele>
<speed>5.4</speed>
<course>309.7</course>
<desc>Speed 5.4 km/h Distance 5.41 km</desc>
<time>2010-02-25T17:18:49.79</time>
<name>3716</name>
</trkpt>
<trkpt lat="48.933377" lon="8.670290">
<ele>354.5</ele>
<speed>4.8</speed>
<course>303.1</course>
<desc>Speed 4.8 km/h Distance 5.41 km</desc>
<time>2010-02-25T17:18:50.79</time>
<name>3717</name>
</trkpt>
<trkpt lat="48.933387" lon="8.670267">
<ele>355.0</ele>
<speed>5.9</speed>
<course>309.3</course>
<desc>Speed 5.9 km/h Distance 5.41 km</desc>
<time>2010-02-25T17:18:51.79</time>
<name>3718</name>
</trkpt>
<trkpt lat="48.933398" lon="8.670245">
<ele>355.5</ele>
<speed>5.2</speed>
<course>326.6</course>
<desc>Speed 5.2 km/h Distance 5.41 km</desc>
<time>2010-02-25T17:18:52.79</time>
<name>3719</name>
</trkpt>
<trkpt lat="48.933412" lon="8.670232">
<ele>355.0</ele>
<speed>5.2</speed>
<course>315.5</course>
<desc>Speed 5.2 km/h Distance 5.41 km</desc>
<time>2010-02-25T17:18:53.79</time>
<name>3720</name>
</trkpt>
<trkpt lat="48.933422" lon="8.670217">
<ele>354.5</ele>
<speed>5.3</speed>
<course>316.7</course>
<desc>Speed 5.3 km/h Distance 5.42 km</desc>
<time>2010-02-25T17:18:54.79</time>
<name>3721</name>
</trkpt>
<trkpt lat="48.933433" lon="8.670200">
<ele>354.5</ele>
<speed>5.3</speed>
<course>332.8</course>
<desc>Speed 5.3 km/h Distance 5.42 km</desc>
<time>2010-02-25T17:18:55.79</time>
<name>3722</name>
</trkpt>
<trkpt lat="48.933448" lon="8.670188">
<ele>354.0</ele>
<speed>5.7</speed>
<course>326.7</course>
<desc>Speed 5.7 km/h Distance 5.42 km</desc>
<time>2010-02-25T17:18:56.79</time>
<name>3723</name>
</trkpt>
<trkpt lat="48.933460" lon="8.670177">
<ele>353.0</ele>
<speed>4.7</speed>
<course>305.1</course>
<desc>Speed 4.7 km/h Distance 5.42 km</desc>
<time>2010-02-25T17:18:57.79</time>
<name>3724</name>
</trkpt>
<trkpt lat="48.933470" lon="8.670155">
<ele>352.5</ele>
<speed>5.3</speed>
<course>322.5</course>
<desc>Speed 5.3 km/h Distance 5.42 km</desc>
<time>2010-02-25T17:18:58.79</time>
<name>3725</name>
</trkpt>
<trkpt lat="48.933480" lon="8.670143">
<ele>351.0</ele>
<speed>4.1</speed>
<course>326.6</course>
<desc>Speed 4.1 km/h Distance 5.42 km</desc>
<time>2010-02-25T17:18:59.79</time>
<name>3726</name>
</trkpt>
<trkpt lat="48.933493" lon="8.670130">
<ele>350.5</ele>
<speed>5.3</speed>
<course>323.1</course>
<desc>Speed 5.3 km/h Distance 5.43 km</desc>
<time>2010-02-25T17:19:00.79</time>
<name>3727</name>
</trkpt>
<trkpt lat="48.933505" lon="8.670117">
<ele>350.0</ele>
<speed>5.5</speed>
<course>310.1</course>
<desc>Speed 5.5 km/h Distance 5.43 km</desc>
<time>2010-02-25T17:19:01.79</time>
<name>3728</name>
</trkpt>
<trkpt lat="48.933513" lon="8.670102">
<ele>349.5</ele>
<speed>4.6</speed>
<course>305.0</course>
<desc>Speed 4.6 km/h Distance 5.43 km</desc>
<time>2010-02-25T17:19:02.79</time>
<name>3729</name>
</trkpt>
<trkpt lat="48.933523" lon="8.670080">
<ele>350.5</ele>
<speed>4.8</speed>
<course>302.4</course>
<desc>Speed 4.8 km/h Distance 5.43 km</desc>
<time>2010-02-25T17:19:03.79</time>
<name>3730</name>
</trkpt>
<trkpt lat="48.933532" lon="8.670060">
<ele>350.5</ele>
<speed>5.0</speed>
<course>318.8</course>
<desc>Speed 5.0 km/h Distance 5.43 km</desc>
<time>2010-02-25T17:19:04.79</time>
<name>3731</name>
</trkpt>
<trkpt lat="48.933542" lon="8.670047">
<ele>350.5</ele>
<speed>5.0</speed>
<course>303.1</course>
<desc>Speed 5.0 km/h Distance 5.43 km</desc>
<time>2010-02-25T17:19:05.79</time>
<name>3732</name>
</trkpt>
<trkpt lat="48.933552" lon="8.670023">
<ele>350.5</ele>
<speed>5.4</speed>
<course>307.3</course>
<desc>Speed 5.4 km/h Distance 5.44 km</desc>
<time>2010-02-25T17:19:06.79</time>
<name>3733</name>
</trkpt>
<trkpt lat="48.933560" lon="8.670007">
<ele>350.5</ele>
<speed>5.3</speed>
<course>333.1</course>
<desc>Speed 5.3 km/h Distance 5.44 km</desc>
<time>2010-02-25T17:19:07.79</time>
<name>3734</name>
</trkpt>
<trkpt lat="48.933575" lon="8.669995">
<ele>350.5</ele>
<speed>5.4</speed>
<course>300.3</course>
<desc>Speed 5.4 km/h Distance 5.44 km</desc>
<time>2010-02-25T17:19:08.79</time>
<name>3735</name>
</trkpt>
<trkpt lat="48.933583" lon="8.669973">
<ele>350.5</ele>
<speed>5.3</speed>
<course>296.9</course>
<desc>Speed 5.3 km/h Distance 5.44 km</desc>
<time>2010-02-25T17:19:09.79</time>
<name>3736</name>
</trkpt>
<trkpt lat="48.933592" lon="8.669948">
<ele>350.5</ele>
<speed>5.4</speed>
<course>312.4</course>
<desc>Speed 5.4 km/h Distance 5.44 km</desc>
<time>2010-02-25T17:19:10.79</time>
<name>3737</name>
</trkpt>
<trkpt lat="48.933602" lon="8.669932">
<ele>350.5</ele>
<speed>5.3</speed>
<course>296.9</course>
<desc>Speed 5.3 km/h Distance 5.45 km</desc>
<time>2010-02-25T17:19:11.79</time>
<name>3738</name>
</trkpt>
<trkpt lat="48.933610" lon="8.669907">
<ele>351.5</ele>
<speed>5.4</speed>
<course>300.4</course>
<desc>Speed 5.4 km/h Distance 5.45 km</desc>
<time>2010-02-25T17:19:12.79</time>
<name>3739</name>
</trkpt>
<trkpt lat="48.933618" lon="8.669885">
<ele>351.5</ele>
<speed>4.5</speed>
<course>286.9</course>
<desc>Speed 4.5 km/h Distance 5.45 km</desc>
<time>2010-02-25T17:19:13.79</time>
<name>3740</name>
</trkpt>
<trkpt lat="48.933623" lon="8.669860">
<ele>352.0</ele>
<speed>5.4</speed>
<course>299.7</course>
<desc>Speed 5.4 km/h Distance 5.45 km</desc>
<time>2010-02-25T17:19:14.79</time>
<name>3741</name>
</trkpt>
<trkpt lat="48.933633" lon="8.669833">
<ele>352.5</ele>
<speed>5.5</speed>
<course>333.0</course>
<desc>Speed 5.5 km/h Distance 5.45 km</desc>
<time>2010-02-25T17:19:15.79</time>
<name>3742</name>
</trkpt>
<trkpt lat="48.933648" lon="8.669822">
<ele>351.0</ele>
<speed>5.0</speed>
<course>323.4</course>
<desc>Speed 5.0 km/h Distance 5.46 km</desc>
<time>2010-02-25T17:19:16.79</time>
<name>3743</name>
</trkpt>
<trkpt lat="48.933662" lon="8.669807">
<ele>350.5</ele>
<speed>5.1</speed>
<course>302.3</course>
<desc>Speed 5.1 km/h Distance 5.46 km</desc>
<time>2010-02-25T17:19:17.79</time>
<name>3744</name>
</trkpt>
<trkpt lat="48.933670" lon="8.669787">
<ele>351.0</ele>
<speed>5.3</speed>
<course>323.4</course>
<desc>Speed 5.3 km/h Distance 5.46 km</desc>
<time>2010-02-25T17:19:18.79</time>
<name>3745</name>
</trkpt>
<trkpt lat="48.933683" lon="8.669772">
<ele>352.0</ele>
<speed>5.0</speed>
<course>309.7</course>
<desc>Speed 5.0 km/h Distance 5.46 km</desc>
<time>2010-02-25T17:19:19.79</time>
<name>3746</name>
</trkpt>
<trkpt lat="48.933693" lon="8.669753">
<ele>353.0</ele>
<speed>5.0</speed>
<course>307.3</course>
<desc>Speed 5.0 km/h Distance 5.46 km</desc>
<time>2010-02-25T17:19:20.79</time>
<name>3747</name>
</trkpt>
<trkpt lat="48.933702" lon="8.669737">
<ele>353.0</ele>
<speed>5.0</speed>
<course>318.8</course>
<desc>Speed 5.0 km/h Distance 5.46 km</desc>
<time>2010-02-25T17:19:21.79</time>
<name>3748</name>
</trkpt>
<trkpt lat="48.933712" lon="8.669723">
<ele>353.0</ele>
<speed>4.9</speed>
<course>326.7</course>
<desc>Speed 4.9 km/h Distance 5.47 km</desc>
<time>2010-02-25T17:19:22.79</time>
<name>3749</name>
</trkpt>
<trkpt lat="48.933723" lon="8.669712">
<ele>352.0</ele>
<speed>4.8</speed>
<course>326.6</course>
<desc>Speed 4.8 km/h Distance 5.47 km</desc>
<time>2010-02-25T17:19:23.79</time>
<name>3750</name>
</trkpt>
<trkpt lat="48.933735" lon="8.669700">
<ele>352.0</ele>
<speed>4.9</speed>
<course>318.7</course>
<desc>Speed 4.9 km/h Distance 5.47 km</desc>
<time>2010-02-25T17:19:24.79</time>
<name>3751</name>
</trkpt>
<trkpt lat="48.933745" lon="8.669687">
<ele>352.0</ele>
<speed>4.7</speed>
<course>307.2</course>
<desc>Speed 4.7 km/h Distance 5.47 km</desc>
<time>2010-02-25T17:19:25.79</time>
<name>3752</name>
</trkpt>
<trkpt lat="48.933755" lon="8.669667">
<ele>353.5</ele>
<speed>5.3</speed>
<course>309.3</course>
<desc>Speed 5.3 km/h Distance 5.47 km</desc>
<time>2010-02-25T17:19:26.79</time>
<name>3753</name>
</trkpt>
<trkpt lat="48.933767" lon="8.669645">
<ele>355.0</ele>
<speed>5.6</speed>
<course>311.6</course>
<desc>Speed 5.6 km/h Distance 5.47 km</desc>
<time>2010-02-25T17:19:27.79</time>
<name>3754</name>
</trkpt>
<trkpt lat="48.933778" lon="8.669625">
<ele>356.0</ele>
<speed>5.2</speed>
<course>326.9</course>
<desc>Speed 5.2 km/h Distance 5.48 km</desc>
<time>2010-02-25T17:19:28.79</time>
<name>3755</name>
</trkpt>
<trkpt lat="48.933790" lon="8.669613">
<ele>356.0</ele>
<speed>5.1</speed>
<course>326.7</course>
<desc>Speed 5.1 km/h Distance 5.48 km</desc>
<time>2010-02-25T17:19:29.79</time>
<name>3756</name>
</trkpt>
<trkpt lat="48.933802" lon="8.669602">
<ele>355.5</ele>
<speed>5.0</speed>
<course>305.0</course>
<desc>Speed 5.0 km/h Distance 5.48 km</desc>
<time>2010-02-25T17:19:30.79</time>
<name>3757</name>
</trkpt>
<trkpt lat="48.933812" lon="8.669580">
<ele>356.5</ele>
<speed>5.4</speed>
<course>326.7</course>
<desc>Speed 5.4 km/h Distance 5.48 km</desc>
<time>2010-02-25T17:19:31.79</time>
<name>3758</name>
</trkpt>
<trkpt lat="48.933825" lon="8.669567">
<ele>356.0</ele>
<speed>4.9</speed>
<course>322.5</course>
<desc>Speed 4.9 km/h Distance 5.48 km</desc>
<time>2010-02-25T17:19:32.79</time>
<name>3759</name>
</trkpt>
<trkpt lat="48.933835" lon="8.669555">
<ele>355.5</ele>
<speed>4.4</speed>
<course>318.7</course>
<desc>Speed 4.4 km/h Distance 5.48 km</desc>
<time>2010-02-25T17:19:33.79</time>
<name>3760</name>
</trkpt>
<trkpt lat="48.933845" lon="8.669542">
<ele>356.0</ele>
<speed>4.9</speed>
<course>319.8</course>
<desc>Speed 4.9 km/h Distance 5.49 km</desc>
<time>2010-02-25T17:19:34.79</time>
<name>3761</name>
</trkpt>
<trkpt lat="48.933857" lon="8.669527">
<ele>354.5</ele>
<speed>4.8</speed>
<course>318.7</course>
<desc>Speed 4.8 km/h Distance 5.49 km</desc>
<time>2010-02-25T17:19:35.79</time>
<name>3762</name>
</trkpt>
<trkpt lat="48.933867" lon="8.669513">
<ele>355.0</ele>
<speed>4.2</speed>
<course>302.3</course>
<desc>Speed 4.2 km/h Distance 5.49 km</desc>
<time>2010-02-25T17:19:36.79</time>
<name>3763</name>
</trkpt>
<trkpt lat="48.933875" lon="8.669493">
<ele>355.0</ele>
<speed>5.0</speed>
<course>307.2</course>
<desc>Speed 5.0 km/h Distance 5.49 km</desc>
<time>2010-02-25T17:19:37.79</time>
<name>3764</name>
</trkpt>
<trkpt lat="48.933885" lon="8.669473">
<ele>355.0</ele>
<speed>5.3</speed>
<course>315.3</course>
<desc>Speed 5.3 km/h Distance 5.49 km</desc>
<time>2010-02-25T17:19:38.79</time>
<name>3765</name>
</trkpt>
<trkpt lat="48.933895" lon="8.669458">
<ele>355.0</ele>
<speed>4.6</speed>
<course>319.8</course>
<desc>Speed 4.6 km/h Distance 5.49 km</desc>
<time>2010-02-25T17:19:39.79</time>
<name>3766</name>
</trkpt>
<trkpt lat="48.933907" lon="8.669443">
<ele>355.0</ele>
<speed>5.4</speed>
<course>336.3</course>
<desc>Speed 5.4 km/h Distance 5.50 km</desc>
<time>2010-02-25T17:19:40.79</time>
<name>3767</name>
</trkpt>
<trkpt lat="48.933922" lon="8.669433">
<ele>353.5</ele>
<speed>4.8</speed>
<course>316.8</course>
<desc>Speed 4.8 km/h Distance 5.50 km</desc>
<time>2010-02-25T17:19:41.79</time>
<name>3768</name>
</trkpt>
<trkpt lat="48.933933" lon="8.669417">
<ele>352.5</ele>
<speed>5.1</speed>
<course>307.3</course>
<desc>Speed 5.1 km/h Distance 5.50 km</desc>
<time>2010-02-25T17:19:42.79</time>
<name>3769</name>
</trkpt>
<trkpt lat="48.933943" lon="8.669397">
<ele>352.0</ele>
<speed>4.7</speed>
<course>293.5</course>
<desc>Speed 4.7 km/h Distance 5.50 km</desc>
<time>2010-02-25T17:19:43.79</time>
<name>3770</name>
</trkpt>
<trkpt lat="48.933947" lon="8.669385">
<ele>350.5</ele>
<speed>2.6</speed>
<course>301.4</course>
<desc>Speed 2.6 km/h Distance 5.50 km</desc>
<time>2010-02-25T17:19:44.79</time>
<name>3771</name>
</trkpt>
<trkpt lat="48.933950" lon="8.669377">
<ele>351.0</ele>
<speed>2.1</speed>
<course>336.2</course>
<desc>Speed 2.1 km/h Distance 5.50 km</desc>
<time>2010-02-25T17:19:45.79</time>
<name>3772</name>
</trkpt>
<trkpt lat="48.933960" lon="8.669370">
<ele>351.5</ele>
<speed>4.4</speed>
<course>330.8</course>
<desc>Speed 4.4 km/h Distance 5.50 km</desc>
<time>2010-02-25T17:19:46.79</time>
<name>3773</name>
</trkpt>
<trkpt lat="48.933972" lon="8.669360">
<ele>351.5</ele>
<speed>4.4</speed>
<course>319.8</course>
<desc>Speed 4.4 km/h Distance 5.51 km</desc>
<time>2010-02-25T17:19:47.79</time>
<name>3774</name>
</trkpt>
<trkpt lat="48.933983" lon="8.669345">
<ele>352.0</ele>
<speed>5.0</speed>
<course>315.5</course>
<desc>Speed 5.0 km/h Distance 5.51 km</desc>
<time>2010-02-25T17:19:48.79</time>
<name>3775</name>
</trkpt>
<trkpt lat="48.933993" lon="8.669330">
<ele>352.0</ele>
<speed>4.5</speed>
<course>331.4</course>
<desc>Speed 4.5 km/h Distance 5.51 km</desc>
<time>2010-02-25T17:19:49.79</time>
<name>3776</name>
</trkpt>
<trkpt lat="48.934003" lon="8.669322">
<ele>352.5</ele>
<speed>4.1</speed>
<course>334.8</course>
<desc>Speed 4.1 km/h Distance 5.51 km</desc>
<time>2010-02-25T17:19:50.79</time>
<name>3777</name>
</trkpt>
<trkpt lat="48.934015" lon="8.669313">
<ele>352.5</ele>
<speed>4.6</speed>
<course>341.9</course>
<desc>Speed 4.6 km/h Distance 5.51 km</desc>
<time>2010-02-25T17:19:51.79</time>
<name>3778</name>
</trkpt>
<trkpt lat="48.934028" lon="8.669307">
<ele>352.5</ele>
<speed>4.9</speed>
<course>341.6</course>
<desc>Speed 4.9 km/h Distance 5.51 km</desc>
<time>2010-02-25T17:19:52.79</time>
<name>3779</name>
</trkpt>
<trkpt lat="48.934042" lon="8.669300">
<ele>352.0</ele>
<speed>5.0</speed>
<course>326.6</course>
<desc>Speed 5.0 km/h Distance 5.51 km</desc>
<time>2010-02-25T17:19:53.79</time>
<name>3780</name>
</trkpt>
<trkpt lat="48.934055" lon="8.669287">
<ele>352.5</ele>
<speed>5.1</speed>
<course>346.5</course>
<desc>Speed 5.1 km/h Distance 5.52 km</desc>
<time>2010-02-25T17:19:54.79</time>
<name>3781</name>
</trkpt>
<trkpt lat="48.934068" lon="8.669282">
<ele>352.0</ele>
<speed>4.8</speed>
<course>330.6</course>
<desc>Speed 4.8 km/h Distance 5.52 km</desc>
<time>2010-02-25T17:19:55.79</time>
<name>3782</name>
</trkpt>
<trkpt lat="48.934080" lon="8.669272">
<ele>352.0</ele>
<speed>5.0</speed>
<course>337.7</course>
<desc>Speed 5.0 km/h Distance 5.52 km</desc>
<time>2010-02-25T17:19:56.79</time>
<name>3783</name>
</trkpt>
<trkpt lat="48.934093" lon="8.669263">
<ele>351.5</ele>
<speed>4.8</speed>
<course>343.4</course>
<desc>Speed 4.8 km/h Distance 5.52 km</desc>
<time>2010-02-25T17:19:57.79</time>
<name>3784</name>
</trkpt>
<trkpt lat="48.934108" lon="8.669257">
<ele>351.0</ele>
<speed>5.5</speed>
<course>356.2</course>
<desc>Speed 5.5 km/h Distance 5.52 km</desc>
<time>2010-02-25T17:19:58.79</time>
<name>3785</name>
</trkpt>
<trkpt lat="48.934123" lon="8.669255">
<ele>350.5</ele>
<speed>4.8</speed>
<course>0.0</course>
<desc>Speed 4.8 km/h Distance 5.52 km</desc>
<time>2010-02-25T17:19:59.79</time>
<name>3786</name>
</trkpt>
<trkpt lat="48.934138" lon="8.669255">
<ele>350.0</ele>
<speed>4.8</speed>
<course>2.8</course>
<desc>Speed 4.8 km/h Distance 5.53 km</desc>
<time>2010-02-25T17:20:00.79</time>
<name>3787</name>
</trkpt>
<trkpt lat="48.934155" lon="8.669255">
<ele>349.5</ele>
<speed>4.6</speed>
<course>3.8</course>
<desc>Speed 4.6 km/h Distance 5.53 km</desc>
<time>2010-02-25T17:20:01.79</time>
<name>3788</name>
</trkpt>
<trkpt lat="48.934170" lon="8.669257">
<ele>349.5</ele>
<speed>5.5</speed>
<course>5.3</course>
<desc>Speed 5.5 km/h Distance 5.53 km</desc>
<time>2010-02-25T17:20:02.79</time>
<name>3789</name>
</trkpt>
<trkpt lat="48.934183" lon="8.669258">
<ele>349.0</ele>
<speed>4.8</speed>
<course>344.5</course>
<desc>Speed 4.8 km/h Distance 5.53 km</desc>
<time>2010-02-25T17:20:03.79</time>
<name>3790</name>
</trkpt>
<trkpt lat="48.934195" lon="8.669253">
<ele>349.5</ele>
<speed>4.9</speed>
<course>1.9</course>
<desc>Speed 4.9 km/h Distance 5.53 km</desc>
<time>2010-02-25T17:20:04.79</time>
<name>3791</name>
</trkpt>
<trkpt lat="48.934210" lon="8.669255">
<ele>348.5</ele>
<speed>4.8</speed>
<course>9.5</course>
<desc>Speed 4.8 km/h Distance 5.53 km</desc>
<time>2010-02-25T17:20:05.79</time>
<name>3792</name>
</trkpt>
<trkpt lat="48.934222" lon="8.669258">
<ele>348.0</ele>
<speed>4.5</speed>
<course>355.6</course>
<desc>Speed 4.5 km/h Distance 5.54 km</desc>
<time>2010-02-25T17:20:06.79</time>
<name>3793</name>
</trkpt>
<trkpt lat="48.934232" lon="8.669257">
<ele>347.0</ele>
<speed>4.2</speed>
<course>352.5</course>
<desc>Speed 4.2 km/h Distance 5.54 km</desc>
<time>2010-02-25T17:20:07.79</time>
<name>3794</name>
</trkpt>
<trkpt lat="48.934247" lon="8.669253">
<ele>347.5</ele>
<speed>5.0</speed>
<course>3.8</course>
<desc>Speed 5.0 km/h Distance 5.54 km</desc>
<time>2010-02-25T17:20:08.79</time>
<name>3795</name>
</trkpt>
<trkpt lat="48.934262" lon="8.669255">
<ele>348.0</ele>
<speed>5.1</speed>
<course>16.0</course>
<desc>Speed 5.1 km/h Distance 5.54 km</desc>
<time>2010-02-25T17:20:09.79</time>
<name>3796</name>
</trkpt>
<trkpt lat="48.934273" lon="8.669260">
<ele>347.5</ele>
<speed>4.8</speed>
<course>9.0</course>
<desc>Speed 4.8 km/h Distance 5.54 km</desc>
<time>2010-02-25T17:20:10.79</time>
<name>3797</name>
</trkpt>
<trkpt lat="48.934287" lon="8.669263">
<ele>347.0</ele>
<speed>4.9</speed>
<course>9.7</course>
<desc>Speed 4.9 km/h Distance 5.54 km</desc>
<time>2010-02-25T17:20:11.79</time>
<name>3798</name>
</trkpt>
<trkpt lat="48.934300" lon="8.669267">
<ele>347.0</ele>
<speed>4.3</speed>
<course>10.3</course>
<desc>Speed 4.3 km/h Distance 5.54 km</desc>
<time>2010-02-25T17:20:12.79</time>
<name>3799</name>
</trkpt>
<trkpt lat="48.934313" lon="8.669270">
<ele>346.5</ele>
<speed>4.2</speed>
<course>4.7</course>
<desc>Speed 4.2 km/h Distance 5.55 km</desc>
<time>2010-02-25T17:20:13.79</time>
<name>3800</name>
</trkpt>
<trkpt lat="48.934325" lon="8.669272">
<ele>347.0</ele>
<speed>4.5</speed>
<course>4.7</course>
<desc>Speed 4.5 km/h Distance 5.55 km</desc>
<time>2010-02-25T17:20:14.79</time>
<name>3801</name>
</trkpt>
<trkpt lat="48.934337" lon="8.669273">
<ele>347.5</ele>
<speed>4.3</speed>
<course>1.2</course>
<desc>Speed 4.3 km/h Distance 5.55 km</desc>
<time>2010-02-25T17:20:15.79</time>
<name>3802</name>
</trkpt>
<trkpt lat="48.934350" lon="8.669273">
<ele>347.0</ele>
<speed>4.8</speed>
<course>4.4</course>
<desc>Speed 4.8 km/h Distance 5.55 km</desc>
<time>2010-02-25T17:20:16.79</time>
<name>3803</name>
</trkpt>
<trkpt lat="48.934360" lon="8.669275">
<ele>346.0</ele>
<speed>4.4</speed>
<course>1.2</course>
<desc>Speed 4.4 km/h Distance 5.55 km</desc>
<time>2010-02-25T17:20:17.79</time>
<name>3804</name>
</trkpt>
<trkpt lat="48.934373" lon="8.669275">
<ele>346.0</ele>
<speed>5.0</speed>
<course>4.7</course>
<desc>Speed 5.0 km/h Distance 5.55 km</desc>
<time>2010-02-25T17:20:18.79</time>
<name>3805</name>
</trkpt>
<trkpt lat="48.934385" lon="8.669277">
<ele>346.5</ele>
<speed>4.5</speed>
<course>347.4</course>
<desc>Speed 4.5 km/h Distance 5.55 km</desc>
<time>2010-02-25T17:20:19.79</time>
<name>3806</name>
</trkpt>
<trkpt lat="48.934395" lon="8.669273">
<ele>346.5</ele>
<speed>4.0</speed>
<course>0.0</course>
<desc>Speed 4.0 km/h Distance 5.56 km</desc>
<time>2010-02-25T17:20:20.79</time>
<name>3807</name>
</trkpt>
<trkpt lat="48.934407" lon="8.669273">
<ele>346.5</ele>
<speed>4.5</speed>
<course>355.3</course>
<desc>Speed 4.5 km/h Distance 5.56 km</desc>
<time>2010-02-25T17:20:21.79</time>
<name>3808</name>
</trkpt>
<trkpt lat="48.934418" lon="8.669272">
<ele>346.5</ele>
<speed>4.4</speed>
<course>4.7</course>
<desc>Speed 4.4 km/h Distance 5.56 km</desc>
<time>2010-02-25T17:20:22.79</time>
<name>3809</name>
</trkpt>
<trkpt lat="48.934430" lon="8.669272">
<ele>346.5</ele>
<speed>4.4</speed>
<course>6.3</course>
<desc>Speed 4.4 km/h Distance 5.56 km</desc>
<time>2010-02-25T17:20:23.79</time>
<name>3810</name>
</trkpt>
<trkpt lat="48.934442" lon="8.669273">
<ele>347.0</ele>
<speed>4.4</speed>
<course>18.2</course>
<desc>Speed 4.4 km/h Distance 5.56 km</desc>
<time>2010-02-25T17:20:24.79</time>
<name>3811</name>
</trkpt>
<trkpt lat="48.934452" lon="8.669278">
<ele>347.0</ele>
<speed>4.8</speed>
<course>0.0</course>
<desc>Speed 4.8 km/h Distance 5.56 km</desc>
<time>2010-02-25T17:20:25.79</time>
<name>3812</name>
</trkpt>
<trkpt lat="48.934467" lon="8.669278">
<ele>347.5</ele>
<speed>4.5</speed>
<course>26.0</course>
<desc>Speed 4.5 km/h Distance 5.56 km</desc>
<time>2010-02-25T17:20:26.79</time>
<name>3813</name>
</trkpt>
<trkpt lat="48.934480" lon="8.669288">
<ele>347.0</ele>
<speed>6.1</speed>
<course>307.4</course>
<desc>Speed 6.1 km/h Distance 5.56 km</desc>
<time>2010-02-25T17:20:27.79</time>
<name>3814</name>
</trkpt>
<trkpt lat="48.934485" lon="8.669278">
<ele>349.5</ele>
<speed>4.3</speed>
<course>20.6</course>
<desc>Speed 4.3 km/h Distance 5.57 km</desc>
<time>2010-02-25T17:20:28.79</time>
<name>3815</name>
</trkpt>
<trkpt lat="48.934497" lon="8.669285">
<ele>350.0</ele>
<speed>4.7</speed>
<course>294.6</course>
<desc>Speed 4.7 km/h Distance 5.57 km</desc>
<time>2010-02-25T17:20:29.79</time>
<name>3816</name>
</trkpt>
<trkpt lat="48.934502" lon="8.669268">
<ele>352.5</ele>
<speed>4.2</speed>
<course>354.7</course>
<desc>Speed 4.2 km/h Distance 5.57 km</desc>
<time>2010-02-25T17:20:30.79</time>
<name>3817</name>
</trkpt>
<trkpt lat="48.934515" lon="8.669267">
<ele>355.0</ele>
<speed>3.9</speed>
<course>26.0</course>
<desc>Speed 3.9 km/h Distance 5.57 km</desc>
<time>2010-02-25T17:20:31.79</time>
<name>3818</name>
</trkpt>
<trkpt lat="48.934528" lon="8.669277">
<ele>354.5</ele>
<speed>5.4</speed>
<course>18.2</course>
<desc>Speed 5.4 km/h Distance 5.57 km</desc>
<time>2010-02-25T17:20:32.79</time>
<name>3819</name>
</trkpt>
<trkpt lat="48.934538" lon="8.669282">
<ele>354.5</ele>
<speed>3.9</speed>
<course>16.0</course>
<desc>Speed 3.9 km/h Distance 5.57 km</desc>
<time>2010-02-25T17:20:33.79</time>
<name>3820</name>
</trkpt>
<trkpt lat="48.934550" lon="8.669287">
<ele>355.0</ele>
<speed>4.7</speed>
<course>23.8</course>
<desc>Speed 4.7 km/h Distance 5.57 km</desc>
<time>2010-02-25T17:20:34.79</time>
<name>3821</name>
</trkpt>
<trkpt lat="48.934560" lon="8.669293">
<ele>355.5</ele>
<speed>4.6</speed>
<course>20.9</course>
<desc>Speed 4.6 km/h Distance 5.58 km</desc>
<time>2010-02-25T17:20:35.79</time>
<name>3822</name>
</trkpt>
<trkpt lat="48.934572" lon="8.669300">
<ele>355.0</ele>
<speed>5.0</speed>
<course>17.6</course>
<desc>Speed 5.0 km/h Distance 5.58 km</desc>
<time>2010-02-25T17:20:36.79</time>
<name>3823</name>
</trkpt>
<trkpt lat="48.934582" lon="8.669305">
<ele>355.0</ele>
<speed>4.1</speed>
<course>15.5</course>
<desc>Speed 4.1 km/h Distance 5.58 km</desc>
<time>2010-02-25T17:20:37.79</time>
<name>3824</name>
</trkpt>
<trkpt lat="48.934593" lon="8.669310">
<ele>355.0</ele>
<speed>4.4</speed>
<course>13.8</course>
<desc>Speed 4.4 km/h Distance 5.58 km</desc>
<time>2010-02-25T17:20:38.79</time>
<name>3825</name>
</trkpt>
<trkpt lat="48.934602" lon="8.669313">
<ele>356.0</ele>
<speed>4.7</speed>
<course>9.5</course>
<desc>Speed 4.7 km/h Distance 5.58 km</desc>
<time>2010-02-25T17:20:39.79</time>
<name>3826</name>
</trkpt>
<trkpt lat="48.934613" lon="8.669317">
<ele>356.5</ele>
<speed>5.3</speed>
<course>0.0</course>
<desc>Speed 5.3 km/h Distance 5.58 km</desc>
<time>2010-02-25T17:20:40.79</time>
<name>3827</name>
</trkpt>
<trkpt lat="48.934623" lon="8.669317">
<ele>357.5</ele>
<speed>4.6</speed>
<course>11.6</course>
<desc>Speed 4.6 km/h Distance 5.58 km</desc>
<time>2010-02-25T17:20:41.79</time>
<name>3828</name>
</trkpt>
<trkpt lat="48.934633" lon="8.669320">
<ele>358.5</ele>
<speed>5.1</speed>
<course>10.4</course>
<desc>Speed 5.1 km/h Distance 5.58 km</desc>
<time>2010-02-25T17:20:42.79</time>
<name>3829</name>
</trkpt>
<trkpt lat="48.934645" lon="8.669323">
<ele>359.0</ele>
<speed>5.3</speed>
<course>13.5</course>
<desc>Speed 5.3 km/h Distance 5.59 km</desc>
<time>2010-02-25T17:20:43.79</time>
<name>3830</name>
</trkpt>
<trkpt lat="48.934658" lon="8.669328">
<ele>359.5</ele>
<speed>4.8</speed>
<course>25.2</course>
<desc>Speed 4.8 km/h Distance 5.59 km</desc>
<time>2010-02-25T17:20:44.79</time>
<name>3831</name>
</trkpt>
<trkpt lat="48.934670" lon="8.669337">
<ele>360.0</ele>
<speed>5.0</speed>
<course>12.6</course>
<desc>Speed 5.0 km/h Distance 5.59 km</desc>
<time>2010-02-25T17:20:45.79</time>
<name>3832</name>
</trkpt>
<trkpt lat="48.934680" lon="8.669340">
<ele>360.5</ele>
<speed>4.0</speed>
<course>12.6</course>
<desc>Speed 4.0 km/h Distance 5.59 km</desc>
<time>2010-02-25T17:20:46.79</time>
<name>3833</name>
</trkpt>
<trkpt lat="48.934690" lon="8.669343">
<ele>361.0</ele>
<speed>4.1</speed>
<course>13.5</course>
<desc>Speed 4.1 km/h Distance 5.59 km</desc>
<time>2010-02-25T17:20:47.79</time>
<name>3834</name>
</trkpt>
<trkpt lat="48.934703" lon="8.669348">
<ele>360.5</ele>
<speed>4.8</speed>
<course>28.9</course>
<desc>Speed 4.8 km/h Distance 5.59 km</desc>
<time>2010-02-25T17:20:48.79</time>
<name>3835</name>
</trkpt>
<trkpt lat="48.934713" lon="8.669357">
<ele>360.5</ele>
<speed>3.9</speed>
<course>12.6</course>
<desc>Speed 3.9 km/h Distance 5.59 km</desc>
<time>2010-02-25T17:20:49.79</time>
<name>3836</name>
</trkpt>
<trkpt lat="48.934723" lon="8.669360">
<ele>361.5</ele>
<speed>3.6</speed>
<course>14.9</course>
<desc>Speed 3.6 km/h Distance 5.59 km</desc>
<time>2010-02-25T17:20:50.79</time>
<name>3837</name>
</trkpt>
<trkpt lat="48.934732" lon="8.669363">
<ele>362.5</ele>
<speed>3.6</speed>
<course>12.6</course>
<desc>Speed 3.6 km/h Distance 5.60 km</desc>
<time>2010-02-25T17:20:51.79</time>
<name>3838</name>
</trkpt>
<trkpt lat="48.934742" lon="8.669367">
<ele>364.0</ele>
<speed>4.0</speed>
<course>23.8</course>
<desc>Speed 4.0 km/h Distance 5.60 km</desc>
<time>2010-02-25T17:20:52.79</time>
<name>3839</name>
</trkpt>
<trkpt lat="48.934752" lon="8.669373">
<ele>364.5</ele>
<speed>4.0</speed>
<course>12.6</course>
<desc>Speed 4.0 km/h Distance 5.60 km</desc>
<time>2010-02-25T17:20:53.79</time>
<name>3840</name>
</trkpt>
<trkpt lat="48.934762" lon="8.669377">
<ele>364.5</ele>
<speed>4.5</speed>
<course>20.6</course>
<desc>Speed 4.5 km/h Distance 5.60 km</desc>
<time>2010-02-25T17:20:54.79</time>
<name>3841</name>
</trkpt>
<trkpt lat="48.934773" lon="8.669383">
<ele>365.0</ele>
<speed>4.5</speed>
<course>23.8</course>
<desc>Speed 4.5 km/h Distance 5.60 km</desc>
<time>2010-02-25T17:20:55.79</time>
<name>3842</name>
</trkpt>
<trkpt lat="48.934783" lon="8.669390">
<ele>365.5</ele>
<speed>4.4</speed>
<course>18.2</course>
<desc>Speed 4.4 km/h Distance 5.60 km</desc>
<time>2010-02-25T17:20:56.79</time>
<name>3843</name>
</trkpt>
<trkpt lat="48.934793" lon="8.669395">
<ele>366.0</ele>
<speed>4.5</speed>
<course>11.2</course>
<desc>Speed 4.5 km/h Distance 5.60 km</desc>
<time>2010-02-25T17:20:57.79</time>
<name>3844</name>
</trkpt>
<trkpt lat="48.934805" lon="8.669398">
<ele>366.5</ele>
<speed>4.5</speed>
<course>16.0</course>
<desc>Speed 4.5 km/h Distance 5.60 km</desc>
<time>2010-02-25T17:20:58.79</time>
<name>3845</name>
</trkpt>
<trkpt lat="48.934817" lon="8.669403">
<ele>366.5</ele>
<speed>4.5</speed>
<course>20.9</course>
<desc>Speed 4.5 km/h Distance 5.61 km</desc>
<time>2010-02-25T17:20:59.79</time>
<name>3846</name>
</trkpt>
<trkpt lat="48.934828" lon="8.669410">
<ele>367.0</ele>
<speed>4.1</speed>
<course>25.2</course>
<desc>Speed 4.1 km/h Distance 5.61 km</desc>
<time>2010-02-25T17:21:00.79</time>
<name>3847</name>
</trkpt>
<trkpt lat="48.934840" lon="8.669418">
<ele>368.0</ele>
<speed>4.9</speed>
<course>20.6</course>
<desc>Speed 4.9 km/h Distance 5.61 km</desc>
<time>2010-02-25T17:21:01.79</time>
<name>3848</name>
</trkpt>
<trkpt lat="48.934852" lon="8.669425">
<ele>368.0</ele>
<speed>4.5</speed>
<course>9.0</course>
<desc>Speed 4.5 km/h Distance 5.61 km</desc>
<time>2010-02-25T17:21:02.79</time>
<name>3849</name>
</trkpt>
<trkpt lat="48.934865" lon="8.669428">
<ele>368.0</ele>
<speed>4.6</speed>
<course>12.6</course>
<desc>Speed 4.6 km/h Distance 5.61 km</desc>
<time>2010-02-25T17:21:03.79</time>
<name>3850</name>
</trkpt>
<trkpt lat="48.934875" lon="8.669432">
<ele>368.5</ele>
<speed>4.0</speed>
<course>8.1</course>
<desc>Speed 4.0 km/h Distance 5.61 km</desc>
<time>2010-02-25T17:21:04.79</time>
<name>3851</name>
</trkpt>
<trkpt lat="48.934890" lon="8.669435">
<ele>368.5</ele>
<speed>4.6</speed>
<course>4.4</course>
<desc>Speed 4.6 km/h Distance 5.61 km</desc>
<time>2010-02-25T17:21:05.79</time>
<name>3852</name>
</trkpt>
<trkpt lat="48.934900" lon="8.669435">
<ele>368.5</ele>
<speed>3.9</speed>
<course>1.2</course>
<desc>Speed 3.9 km/h Distance 5.61 km</desc>
<time>2010-02-25T17:21:06.79</time>
<name>3853</name>
</trkpt>
<trkpt lat="48.934913" lon="8.669435">
<ele>368.5</ele>
<speed>4.2</speed>
<course>13.5</course>
<desc>Speed 4.2 km/h Distance 5.62 km</desc>
<time>2010-02-25T17:21:07.79</time>
<name>3854</name>
</trkpt>
<trkpt lat="48.934927" lon="8.669440">
<ele>368.5</ele>
<speed>4.9</speed>
<course>18.4</course>
<desc>Speed 4.9 km/h Distance 5.62 km</desc>
<time>2010-02-25T17:21:08.79</time>
<name>3855</name>
</trkpt>
<trkpt lat="48.934940" lon="8.669447">
<ele>368.0</ele>
<speed>4.8</speed>
<course>8.8</course>
<desc>Speed 4.8 km/h Distance 5.62 km</desc>
<time>2010-02-25T17:21:09.79</time>
<name>3856</name>
</trkpt>
<trkpt lat="48.934960" lon="8.669452">
<ele>367.5</ele>
<speed>4.7</speed>
<course>7.8</course>
<desc>Speed 4.7 km/h Distance 5.62 km</desc>
<time>2010-02-25T17:21:10.79</time>
<name>3857</name>
</trkpt>
<trkpt lat="48.934983" lon="8.669457">
<ele>367.5</ele>
<speed>5.1</speed>
<course>7.0</course>
<desc>Speed 5.1 km/h Distance 5.62 km</desc>
<time>2010-02-25T17:21:11.79</time>
<name>3858</name>
</trkpt>
<trkpt lat="48.935002" lon="8.669460">
<ele>366.0</ele>
<speed>4.8</speed>
<course>14.9</course>
<desc>Speed 4.8 km/h Distance 5.63 km</desc>
<time>2010-02-25T17:21:12.79</time>
<name>3859</name>
</trkpt>
<trkpt lat="48.935018" lon="8.669467">
<ele>365.0</ele>
<speed>4.7</speed>
<course>18.4</course>
<desc>Speed 4.7 km/h Distance 5.63 km</desc>
<time>2010-02-25T17:21:13.79</time>
<name>3860</name>
</trkpt>
<trkpt lat="48.935032" lon="8.669473">
<ele>365.0</ele>
<speed>4.9</speed>
<course>12.6</course>
<desc>Speed 4.9 km/h Distance 5.63 km</desc>
<time>2010-02-25T17:21:14.79</time>
<name>3861</name>
</trkpt>
<trkpt lat="48.935042" lon="8.669477">
<ele>365.5</ele>
<speed>4.1</speed>
<course>18.1</course>
<desc>Speed 4.1 km/h Distance 5.63 km</desc>
<time>2010-02-25T17:21:15.79</time>
<name>3862</name>
</trkpt>
<trkpt lat="48.935058" lon="8.669485">
<ele>365.0</ele>
<speed>5.5</speed>
<course>18.1</course>
<desc>Speed 5.5 km/h Distance 5.63 km</desc>
<time>2010-02-25T17:21:16.79</time>
<name>3863</name>
</trkpt>
<trkpt lat="48.935072" lon="8.669492">
<ele>364.5</ele>
<speed>4.9</speed>
<course>20.2</course>
<desc>Speed 4.9 km/h Distance 5.63 km</desc>
<time>2010-02-25T17:21:17.79</time>
<name>3864</name>
</trkpt>
<trkpt lat="48.935083" lon="8.669498">
<ele>364.0</ele>
<speed>4.6</speed>
<course>18.1</course>
<desc>Speed 4.6 km/h Distance 5.64 km</desc>
<time>2010-02-25T17:21:18.79</time>
<name>3865</name>
</trkpt>
<trkpt lat="48.935097" lon="8.669505">
<ele>364.0</ele>
<speed>4.3</speed>
<course>13.5</course>
<desc>Speed 4.3 km/h Distance 5.64 km</desc>
<time>2010-02-25T17:21:19.79</time>
<name>3866</name>
</trkpt>
<trkpt lat="48.935110" lon="8.669510">
<ele>363.5</ele>
<speed>4.6</speed>
<course>12.6</course>
<desc>Speed 4.6 km/h Distance 5.64 km</desc>
<time>2010-02-25T17:21:20.79</time>
<name>3867</name>
</trkpt>
<trkpt lat="48.935125" lon="8.669515">
<ele>362.5</ele>
<speed>4.5</speed>
<course>11.2</course>
<desc>Speed 4.5 km/h Distance 5.64 km</desc>
<time>2010-02-25T17:21:21.79</time>
<name>3868</name>
</trkpt>
<trkpt lat="48.935137" lon="8.669518">
<ele>362.0</ele>
<speed>3.9</speed>
<course>9.5</course>
<desc>Speed 3.9 km/h Distance 5.64 km</desc>
<time>2010-02-25T17:21:22.79</time>
<name>3869</name>
</trkpt>
<trkpt lat="48.935148" lon="8.669522">
<ele>363.0</ele>
<speed>4.1</speed>
<course>4.7</course>
<desc>Speed 4.1 km/h Distance 5.64 km</desc>
<time>2010-02-25T17:21:23.79</time>
<name>3870</name>
</trkpt>
<trkpt lat="48.935160" lon="8.669523">
<ele>363.5</ele>
<speed>3.8</speed>
<course>12.6</course>
<desc>Speed 3.8 km/h Distance 5.64 km</desc>
<time>2010-02-25T17:21:24.79</time>
<name>3871</name>
</trkpt>
<trkpt lat="48.935170" lon="8.669527">
<ele>363.5</ele>
<speed>3.9</speed>
<course>33.3</course>
<desc>Speed 3.9 km/h Distance 5.65 km</desc>
<time>2010-02-25T17:21:25.79</time>
<name>3872</name>
</trkpt>
<trkpt lat="48.935182" lon="8.669538">
<ele>363.5</ele>
<speed>4.8</speed>
<course>30.3</course>
<desc>Speed 4.8 km/h Distance 5.65 km</desc>
<time>2010-02-25T17:21:26.79</time>
<name>3873</name>
</trkpt>
<trkpt lat="48.935197" lon="8.669552">
<ele>362.5</ele>
<speed>6.6</speed>
<course>41.4</course>
<desc>Speed 6.6 km/h Distance 5.65 km</desc>
<time>2010-02-25T17:21:27.79</time>
<name>3874</name>
</trkpt>
<trkpt lat="48.935207" lon="8.669565">
<ele>362.0</ele>
<speed>5.1</speed>
<course>18.8</course>
<desc>Speed 5.1 km/h Distance 5.65 km</desc>
<time>2010-02-25T17:21:28.79</time>
<name>3875</name>
</trkpt>
<trkpt lat="48.935213" lon="8.669568">
<ele>362.0</ele>
<speed>2.6</speed>
<course>7.4</course>
<desc>Speed 2.6 km/h Distance 5.65 km</desc>
<time>2010-02-25T17:21:29.79</time>
<name>3876</name>
</trkpt>
<trkpt lat="48.935220" lon="8.669570">
<ele>362.5</ele>
<speed>2.3</speed>
<course>17.5</course>
<desc>Speed 2.3 km/h Distance 5.65 km</desc>
<time>2010-02-25T17:21:30.79</time>
<name>3877</name>
</trkpt>
<trkpt lat="48.935227" lon="8.669573">
<ele>362.0</ele>
<speed>2.4</speed>
<course>12.6</course>
<desc>Speed 2.4 km/h Distance 5.65 km</desc>
<time>2010-02-25T17:21:31.79</time>
<name>3878</name>
</trkpt>
<trkpt lat="48.935232" lon="8.669575">
<ele>361.5</ele>
<speed>2.2</speed>
<course>6.6</course>
<desc>Speed 2.2 km/h Distance 5.65 km</desc>
<time>2010-02-25T17:21:32.79</time>
<name>3879</name>
</trkpt>
<trkpt lat="48.935242" lon="8.669577">
<ele>361.0</ele>
<speed>2.8</speed>
<course>127.2</course>
<desc>Speed 2.8 km/h Distance 5.65 km</desc>
<time>2010-02-25T17:21:33.79</time>
<name>3880</name>
</trkpt>
<trkpt lat="48.935237" lon="8.669587">
<ele>360.5</ele>
<speed>3.6</speed>
<course>44.5</course>
<desc>Speed 3.6 km/h Distance 5.66 km</desc>
<time>2010-02-25T17:21:34.79</time>
<name>3881</name>
</trkpt>
<trkpt lat="48.935240" lon="8.669592">
<ele>360.0</ele>
<speed>0.3</speed>
<course>0.0</course>
<desc>Speed 0.3 km/h Distance 5.66 km</desc>
<time>2010-02-25T17:21:35.81</time>
<name>3882</name>
</trkpt>
<trkpt lat="48.935245" lon="8.669592">
<ele>360.0</ele>
<speed>1.4</speed>
<course>33.2</course>
<desc>Speed 1.4 km/h Distance 5.66 km</desc>
<time>2010-02-25T17:21:37.06</time>
<name>3883</name>
</trkpt>
<trkpt lat="48.935250" lon="8.669597">
<ele>360.0</ele>
<speed>1.5</speed>
<course>66.5</course>
<desc>Speed 1.5 km/h Distance 5.66 km</desc>
<time>2010-02-25T17:21:37.89</time>
<name>3884</name>
</trkpt>
<trkpt lat="48.935253" lon="8.669608">
<ele>357.5</ele>
<speed>1.5</speed>
<course>56.7</course>
<desc>Speed 1.5 km/h Distance 5.66 km</desc>
<time>2010-02-25T17:21:38.89</time>
<name>3885</name>
</trkpt>
<trkpt lat="48.935258" lon="8.669620">
<ele>355.5</ele>
<speed>1.1</speed>
<course>4.4</course>
<desc>Speed 1.1 km/h Distance 5.66 km</desc>
<time>2010-02-25T17:21:39.89</time>
<name>3886</name>
</trkpt>
<trkpt lat="48.935268" lon="8.669622">
<ele>355.0</ele>
<speed>3.0</speed>
<course>25.4</course>
<desc>Speed 3.0 km/h Distance 5.66 km</desc>
<time>2010-02-25T17:21:40.88</time>
<name>3887</name>
</trkpt>
<trkpt lat="48.935273" lon="8.669625">
<ele>353.0</ele>
<speed>0.9</speed>
<course>33.7</course>
<desc>Speed 0.9 km/h Distance 5.66 km</desc>
<time>2010-02-25T17:21:42.10</time>
<name>3888</name>
</trkpt>
<trkpt lat="48.935277" lon="8.669628">
<ele>352.5</ele>
<speed>0.5</speed>
<course>347.4</course>
<desc>Speed 0.5 km/h Distance 5.66 km</desc>
<time>2010-02-25T17:21:42.90</time>
<name>3889</name>
</trkpt>
<trkpt lat="48.935282" lon="8.669627">
<ele>352.0</ele>
<speed>0.4</speed>
<course>15.2</course>
<desc>Speed 0.4 km/h Distance 5.66 km</desc>
<time>2010-02-25T17:21:43.90</time>
<name>3890</name>
</trkpt>
<trkpt lat="48.935330" lon="8.669647">
<ele>350.5</ele>
<speed>6.0</speed>
<course>53.0</course>
<desc>Speed 6.0 km/h Distance 5.67 km</desc>
<time>2010-02-25T17:21:45.92</time>
<name>3891</name>
</trkpt>
<trkpt lat="48.935333" lon="8.669653">
<ele>351.0</ele>
<speed>1.9</speed>
<course>33.7</course>
<desc>Speed 1.9 km/h Distance 5.67 km</desc>
<time>2010-02-25T17:21:47.18</time>
<name>3892</name>
</trkpt>
<trkpt lat="48.935340" lon="8.669660">
<ele>350.5</ele>
<speed>1.5</speed>
<course>18.8</course>
<desc>Speed 1.5 km/h Distance 5.67 km</desc>
<time>2010-02-25T17:21:48.00</time>
<name>3893</name>
</trkpt>
<trkpt lat="48.935347" lon="8.669663">
<ele>350.5</ele>
<speed>0.9</speed>
<course>20.6</course>
<desc>Speed 0.9 km/h Distance 5.67 km</desc>
<time>2010-02-25T17:21:49.00</time>
<name>3894</name>
</trkpt>
<trkpt lat="48.935358" lon="8.669670">
<ele>350.5</ele>
<speed>1.0</speed>
<course>307.3</course>
<desc>Speed 1.0 km/h Distance 5.67 km</desc>
<time>2010-02-25T17:21:50.00</time>
<name>3895</name>
</trkpt>
<trkpt lat="48.935365" lon="8.669657">
<ele>350.0</ele>
<speed>4.7</speed>
<course>350.4</course>
<desc>Speed 4.7 km/h Distance 5.67 km</desc>
<time>2010-02-25T17:21:51.12</time>
<name>3896</name>
</trkpt>
<trkpt lat="48.935373" lon="8.669655">
<ele>349.5</ele>
<speed>1.4</speed>
<course>8.1</course>
<desc>Speed 1.4 km/h Distance 5.67 km</desc>
<time>2010-02-25T17:21:52.27</time>
<name>3897</name>
</trkpt>
<trkpt lat="48.935378" lon="8.669655">
<ele>349.5</ele>
<speed>0.7</speed>
<course>254.5</course>
<desc>Speed 0.7 km/h Distance 5.67 km</desc>
<time>2010-02-25T17:21:53.06</time>
<name>3898</name>
</trkpt>
<trkpt lat="48.935375" lon="8.669637">
<ele>349.5</ele>
<speed>6.4</speed>
<course>348.3</course>
<desc>Speed 6.4 km/h Distance 5.68 km</desc>
<time>2010-02-25T17:21:54.06</time>
<name>3899</name>
</trkpt>
<trkpt lat="48.935390" lon="8.669632">
<ele>349.5</ele>
<speed>1.2</speed>
<course>168.8</course>
<desc>Speed 1.2 km/h Distance 5.68 km</desc>
<time>2010-02-25T17:21:55.06</time>
<name>3900</name>
</trkpt>
<trkpt lat="48.935373" lon="8.669637">
<ele>349.5</ele>
<speed>7.7</speed>
<course>18.8</course>
<desc>Speed 7.7 km/h Distance 5.68 km</desc>
<time>2010-02-25T17:21:56.24</time>
<name>3901</name>
</trkpt>
<trkpt lat="48.935377" lon="8.669638">
<ele>349.0</ele>
<speed>0.4</speed>
<course>13.8</course>
<desc>Speed 0.4 km/h Distance 5.68 km</desc>
<time>2010-02-25T17:21:58.07</time>
<name>3902</name>
</trkpt>
<trkpt lat="48.935385" lon="8.669642">
<ele>348.0</ele>
<speed>1.4</speed>
<course>6.1</course>
<desc>Speed 1.4 km/h Distance 5.68 km</desc>
<time>2010-02-25T17:21:59.07</time>
<name>3903</name>
</trkpt>
<trkpt lat="48.935405" lon="8.669645">
<ele>346.0</ele>
<speed>6.3</speed>
<course>18.8</course>
<desc>Speed 6.3 km/h Distance 5.68 km</desc>
<time>2010-02-25T17:22:00.07</time>
<name>3904</name>
</trkpt>
<trkpt lat="48.935412" lon="8.669648">
<ele>345.0</ele>
<speed>1.6</speed>
<course>12.6</course>
<desc>Speed 1.6 km/h Distance 5.68 km</desc>
<time>2010-02-25T17:22:01.24</time>
<name>3905</name>
</trkpt>
<trkpt lat="48.935415" lon="8.669650">
<ele>345.0</ele>
<speed>1.1</speed>
<course>51.9</course>
<desc>Speed 1.1 km/h Distance 5.68 km</desc>
<time>2010-02-25T17:22:02.09</time>
<name>3906</name>
</trkpt>
<trkpt lat="48.935417" lon="8.669653">
<ele>345.5</ele>
<speed>1.1</speed>
<course>33.7</course>
<desc>Speed 1.1 km/h Distance 5.68 km</desc>
<time>2010-02-25T17:22:03.10</time>
<name>3907</name>
</trkpt>
<trkpt lat="48.935423" lon="8.669660">
<ele>345.0</ele>
<speed>1.2</speed>
<course>22.3</course>
<desc>Speed 1.2 km/h Distance 5.68 km</desc>
<time>2010-02-25T17:22:04.10</time>
<name>3908</name>
</trkpt>
<trkpt lat="48.935437" lon="8.669668">
<ele>345.5</ele>
<speed>2.2</speed>
<course>33.4</course>
<desc>Speed 2.2 km/h Distance 5.69 km</desc>
<time>2010-02-25T17:22:05.10</time>
<name>3909</name>
</trkpt>
<trkpt lat="48.935450" lon="8.669682">
<ele>345.5</ele>
<speed>2.0</speed>
<course>26.2</course>
<desc>Speed 2.0 km/h Distance 5.69 km</desc>
<time>2010-02-25T17:22:06.10</time>
<name>3910</name>
</trkpt>
<trkpt lat="48.935470" lon="8.669697">
<ele>347.5</ele>
<speed>2.3</speed>
<course>20.2</course>
<desc>Speed 2.3 km/h Distance 5.69 km</desc>
<time>2010-02-25T17:22:07.10</time>
<name>3911</name>
</trkpt>
<trkpt lat="48.935482" lon="8.669703">
<ele>348.0</ele>
<speed>3.0</speed>
<course>15.2</course>
<desc>Speed 3.0 km/h Distance 5.69 km</desc>
<time>2010-02-25T17:22:08.10</time>
<name>3912</name>
</trkpt>
<trkpt lat="48.935502" lon="8.669712">
<ele>348.0</ele>
<speed>5.0</speed>
<course>21.5</course>
<desc>Speed 5.0 km/h Distance 5.69 km</desc>
<time>2010-02-25T17:22:09.10</time>
<name>3913</name>
</trkpt>
<trkpt lat="48.935510" lon="8.669717">
<ele>347.5</ele>
<speed>2.2</speed>
<course>33.2</course>
<desc>Speed 2.2 km/h Distance 5.70 km</desc>
<time>2010-02-25T17:22:10.10</time>
<name>3914</name>
</trkpt>
<trkpt lat="48.935523" lon="8.669730">
<ele>345.0</ele>
<speed>1.4</speed>
<course>40.2</course>
<desc>Speed 1.4 km/h Distance 5.70 km</desc>
<time>2010-02-25T17:22:11.12</time>
<name>3915</name>
</trkpt>
<trkpt lat="48.935535" lon="8.669745">
<ele>343.0</ele>
<speed>2.4</speed>
<course>5.0</course>
<desc>Speed 2.4 km/h Distance 5.70 km</desc>
<time>2010-02-25T17:22:12.10</time>
<name>3916</name>
</trkpt>
<trkpt lat="48.935543" lon="8.669747">
<ele>343.0</ele>
<speed>0.3</speed>
<course>132.4</course>
<desc>Speed 0.3 km/h Distance 5.70 km</desc>
<time>2010-02-25T17:22:13.10</time>
<name>3917</name>
</trkpt>
<trkpt lat="48.935533" lon="8.669763">
<ele>345.0</ele>
<speed>1.9</speed>
<course>196.6</course>
<desc>Speed 1.9 km/h Distance 5.70 km</desc>
<time>2010-02-25T17:22:15.10</time>
<name>3918</name>
</trkpt>
<trkpt lat="48.935515" lon="8.669755">
<ele>345.5</ele>
<speed>10.6</speed>
<course>355.0</course>
<desc>Speed 10.6 km/h Distance 5.70 km</desc>
<time>2010-02-25T17:22:17.14</time>
<name>3919</name>
</trkpt>
<trkpt lat="48.935540" lon="8.669752">
<ele>346.0</ele>
<speed>5.2</speed>
<course>17.0</course>
<desc>Speed 5.2 km/h Distance 5.71 km</desc>
<time>2010-02-25T17:22:18.12</time>
<name>3920</name>
</trkpt>
<trkpt lat="48.935562" lon="8.669762">
<ele>346.0</ele>
<speed>4.9</speed>
<course>10.9</course>
<desc>Speed 4.9 km/h Distance 5.71 km</desc>
<time>2010-02-25T17:22:19.12</time>
<name>3921</name>
</trkpt>
<trkpt lat="48.935590" lon="8.669770">
<ele>346.5</ele>
<speed>5.0</speed>
<course>11.4</course>
<desc>Speed 5.0 km/h Distance 5.71 km</desc>
<time>2010-02-25T17:22:20.12</time>
<name>3922</name>
</trkpt>
<trkpt lat="48.935715" lon="8.669808">
<ele>349.0</ele>
<speed>4.3</speed>
<course>13.5</course>
<desc>Speed 4.3 km/h Distance 5.73 km</desc>
<time>2010-02-25T17:22:22.63</time>
<name>3923</name>
</trkpt>
<trkpt lat="48.935833" lon="8.669852">
<ele>350.5</ele>
<speed>2.7</speed>
<course>351.9</course>
<desc>Speed 2.7 km/h Distance 5.74 km</desc>
<time>2010-02-25T17:22:25.12</time>
<name>3924</name>
</trkpt>
<trkpt lat="48.935843" lon="8.669850">
<ele>351.0</ele>
<speed>3.3</speed>
<course>5.6</course>
<desc>Speed 3.3 km/h Distance 5.74 km</desc>
<time>2010-02-25T17:22:26.12</time>
<name>3925</name>
</trkpt>
<trkpt lat="48.935967" lon="8.669868">
<ele>349.0</ele>
<speed>3.6</speed>
<course>29.9</course>
<desc>Speed 3.6 km/h Distance 5.75 km</desc>
<time>2010-02-25T17:22:28.61</time>
<name>3926</name>
</trkpt>
<trkpt lat="48.936007" lon="8.669903">
<ele>349.0</ele>
<speed>2.4</speed>
<course>0.6</course>
<desc>Speed 2.4 km/h Distance 5.76 km</desc>
<time>2010-02-25T17:22:30.12</time>
<name>3927</name>
</trkpt>
<trkpt lat="48.936053" lon="8.669903">
<ele>348.0</ele>
<speed>4.5</speed>
<course>10.3</course>
<desc>Speed 4.5 km/h Distance 5.77 km</desc>
<time>2010-02-25T17:22:31.62</time>
<name>3928</name>
</trkpt>
<trkpt lat="48.936102" lon="8.669917">
<ele>347.0</ele>
<speed>3.9</speed>
<course>10.5</course>
<desc>Speed 3.9 km/h Distance 5.77 km</desc>
<time>2010-02-25T17:22:33.61</time>
<name>3929</name>
</trkpt>
<trkpt lat="48.936190" lon="8.669942">
<ele>348.5</ele>
<speed>4.0</speed>
<course>3.7</course>
<desc>Speed 4.0 km/h Distance 5.78 km</desc>
<time>2010-02-25T17:22:35.62</time>
<name>3930</name>
</trkpt>
<trkpt lat="48.936275" lon="8.669950">
<ele>350.5</ele>
<speed>4.3</speed>
<course>13.2</course>
<desc>Speed 4.3 km/h Distance 5.79 km</desc>
<time>2010-02-25T17:22:37.61</time>
<name>3931</name>
</trkpt>
<trkpt lat="48.936298" lon="8.669958">
<ele>349.0</ele>
<speed>4.8</speed>
<course>27.7</course>
<desc>Speed 4.8 km/h Distance 5.79 km</desc>
<time>2010-02-25T17:22:38.61</time>
<name>3932</name>
</trkpt>
<trkpt lat="48.936315" lon="8.669972">
<ele>349.0</ele>
<speed>4.3</speed>
<course>28.2</course>
<desc>Speed 4.3 km/h Distance 5.79 km</desc>
<time>2010-02-25T17:22:39.61</time>
<name>3933</name>
</trkpt>
<trkpt lat="48.936333" lon="8.669987">
<ele>349.0</ele>
<speed>3.4</speed>
<course>20.2</course>
<desc>Speed 3.4 km/h Distance 5.80 km</desc>
<time>2010-02-25T17:22:40.61</time>
<name>3934</name>
</trkpt>
<trkpt lat="48.936375" lon="8.670010">
<ele>349.5</ele>
<speed>5.3</speed>
<course>10.8</course>
<desc>Speed 5.3 km/h Distance 5.80 km</desc>
<time>2010-02-25T17:22:42.62</time>
<name>3935</name>
</trkpt>
<trkpt lat="48.936392" lon="8.670015">
<ele>349.5</ele>
<speed>4.8</speed>
<course>5.3</course>
<desc>Speed 4.8 km/h Distance 5.80 km</desc>
<time>2010-02-25T17:22:43.61</time>
<name>3936</name>
</trkpt>
<trkpt lat="48.936405" lon="8.670017">
<ele>350.0</ele>
<speed>4.8</speed>
<course>4.7</course>
<desc>Speed 4.8 km/h Distance 5.81 km</desc>
<time>2010-02-25T17:22:44.61</time>
<name>3937</name>
</trkpt>
<trkpt lat="48.936417" lon="8.670018">
<ele>349.5</ele>
<speed>4.6</speed>
<course>14.9</course>
<desc>Speed 4.6 km/h Distance 5.81 km</desc>
<time>2010-02-25T17:22:45.61</time>
<name>3938</name>
</trkpt>
<trkpt lat="48.936433" lon="8.670025">
<ele>349.5</ele>
<speed>5.2</speed>
<course>18.1</course>
<desc>Speed 5.2 km/h Distance 5.81 km</desc>
<time>2010-02-25T17:22:46.61</time>
<name>3939</name>
</trkpt>
<trkpt lat="48.936447" lon="8.670032">
<ele>349.0</ele>
<speed>3.9</speed>
<course>16.6</course>
<desc>Speed 3.9 km/h Distance 5.81 km</desc>
<time>2010-02-25T17:22:47.61</time>
<name>3940</name>
</trkpt>
<trkpt lat="48.936462" lon="8.670038">
<ele>348.5</ele>
<speed>3.7</speed>
<course>8.8</course>
<desc>Speed 3.7 km/h Distance 5.81 km</desc>
<time>2010-02-25T17:22:48.61</time>
<name>3941</name>
</trkpt>
<trkpt lat="48.936477" lon="8.670042">
<ele>349.5</ele>
<speed>3.9</speed>
<course>8.1</course>
<desc>Speed 3.9 km/h Distance 5.81 km</desc>
<time>2010-02-25T17:22:49.61</time>
<name>3942</name>
</trkpt>
<trkpt lat="48.936492" lon="8.670045">
<ele>349.5</ele>
<speed>4.4</speed>
<course>353.4</course>
<desc>Speed 4.4 km/h Distance 5.82 km</desc>
<time>2010-02-25T17:22:50.61</time>
<name>3943</name>
</trkpt>
<trkpt lat="48.936502" lon="8.670043">
<ele>349.0</ele>
<speed>3.7</speed>
<course>11.2</course>
<desc>Speed 3.7 km/h Distance 5.82 km</desc>
<time>2010-02-25T17:22:51.61</time>
<name>3944</name>
</trkpt>
<trkpt lat="48.936513" lon="8.670047">
<ele>348.5</ele>
<speed>4.4</speed>
<course>349.6</course>
<desc>Speed 4.4 km/h Distance 5.82 km</desc>
<time>2010-02-25T17:22:52.61</time>
<name>3945</name>
</trkpt>
<trkpt lat="48.936525" lon="8.670043">
<ele>348.5</ele>
<speed>3.8</speed>
<course>1.9</course>
<desc>Speed 3.8 km/h Distance 5.82 km</desc>
<time>2010-02-25T17:22:53.60</time>
<name>3946</name>
</trkpt>
<trkpt lat="48.936540" lon="8.670043">
<ele>348.5</ele>
<speed>4.1</speed>
<course>3.8</course>
<desc>Speed 4.1 km/h Distance 5.82 km</desc>
<time>2010-02-25T17:22:54.60</time>
<name>3947</name>
</trkpt>
<trkpt lat="48.936555" lon="8.670045">
<ele>348.5</ele>
<speed>4.6</speed>
<course>357.8</course>
<desc>Speed 4.6 km/h Distance 5.82 km</desc>
<time>2010-02-25T17:22:55.60</time>
<name>3948</name>
</trkpt>
<trkpt lat="48.936578" lon="8.670043">
<ele>349.0</ele>
<speed>4.0</speed>
<course>11.2</course>
<desc>Speed 4.0 km/h Distance 5.83 km</desc>
<time>2010-02-25T17:22:56.59</time>
<name>3949</name>
</trkpt>
<trkpt lat="48.936595" lon="8.670048">
<ele>350.0</ele>
<speed>4.2</speed>
<course>2.2</course>
<desc>Speed 4.2 km/h Distance 5.83 km</desc>
<time>2010-02-25T17:22:57.60</time>
<name>3950</name>
</trkpt>
<trkpt lat="48.936607" lon="8.670048">
<ele>350.0</ele>
<speed>4.5</speed>
<course>357.2</course>
<desc>Speed 4.5 km/h Distance 5.83 km</desc>
<time>2010-02-25T17:22:58.60</time>
<name>3951</name>
</trkpt>
<trkpt lat="48.936623" lon="8.670047">
<ele>350.5</ele>
<speed>4.0</speed>
<course>353.4</course>
<desc>Speed 4.0 km/h Distance 5.83 km</desc>
<time>2010-02-25T17:22:59.60</time>
<name>3952</name>
</trkpt>
<trkpt lat="48.936643" lon="8.670043">
<ele>350.0</ele>
<speed>5.3</speed>
<course>8.8</course>
<desc>Speed 5.3 km/h Distance 5.83 km</desc>
<time>2010-02-25T17:23:00.60</time>
<name>3953</name>
</trkpt>
<trkpt lat="48.936663" lon="8.670048">
<ele>350.5</ele>
<speed>4.8</speed>
<course>352.9</course>
<desc>Speed 4.8 km/h Distance 5.83 km</desc>
<time>2010-02-25T17:23:01.60</time>
<name>3954</name>
</trkpt>
<trkpt lat="48.936680" lon="8.670045">
<ele>351.0</ele>
<speed>4.9</speed>
<course>3.8</course>
<desc>Speed 4.9 km/h Distance 5.84 km</desc>
<time>2010-02-25T17:23:02.60</time>
<name>3955</name>
</trkpt>
<trkpt lat="48.936695" lon="8.670045">
<ele>350.5</ele>
<speed>4.5</speed>
<course>348.8</course>
<desc>Speed 4.5 km/h Distance 5.84 km</desc>
<time>2010-02-25T17:23:03.60</time>
<name>3956</name>
</trkpt>
<trkpt lat="48.936707" lon="8.670042">
<ele>350.0</ele>
<speed>4.0</speed>
<course>351.0</course>
<desc>Speed 4.0 km/h Distance 5.84 km</desc>
<time>2010-02-25T17:23:04.60</time>
<name>3957</name>
</trkpt>
<trkpt lat="48.936720" lon="8.670038">
<ele>350.0</ele>
<speed>4.7</speed>
<course>350.2</course>
<desc>Speed 4.7 km/h Distance 5.84 km</desc>
<time>2010-02-25T17:23:05.59</time>
<name>3958</name>
</trkpt>
<trkpt lat="48.936738" lon="8.670033">
<ele>349.0</ele>
<speed>3.0</speed>
<course>347.4</course>
<desc>Speed 3.0 km/h Distance 5.84 km</desc>
<time>2010-02-25T17:23:06.59</time>
<name>3959</name>
</trkpt>
<trkpt lat="48.936748" lon="8.670030">
<ele>349.0</ele>
<speed>3.9</speed>
<course>353.4</course>
<desc>Speed 3.9 km/h Distance 5.84 km</desc>
<time>2010-02-25T17:23:07.59</time>
<name>3960</name>
</trkpt>
<trkpt lat="48.936758" lon="8.670028">
<ele>349.0</ele>
<speed>3.7</speed>
<course>355.3</course>
<desc>Speed 3.7 km/h Distance 5.85 km</desc>
<time>2010-02-25T17:23:08.60</time>
<name>3961</name>
</trkpt>
<trkpt lat="48.936770" lon="8.670027">
<ele>349.5</ele>
<speed>3.6</speed>
<course>338.5</course>
<desc>Speed 3.6 km/h Distance 5.85 km</desc>
<time>2010-02-25T17:23:09.59</time>
<name>3962</name>
</trkpt>
<trkpt lat="48.936778" lon="8.670022">
<ele>350.0</ele>
<speed>3.5</speed>
<course>353.4</course>
<desc>Speed 3.5 km/h Distance 5.85 km</desc>
<time>2010-02-25T17:23:10.61</time>
<name>3963</name>
</trkpt>
<trkpt lat="48.936798" lon="8.670018">
<ele>349.5</ele>
<speed>3.7</speed>
<course>353.6</course>
<desc>Speed 3.7 km/h Distance 5.85 km</desc>
<time>2010-02-25T17:23:11.60</time>
<name>3964</name>
</trkpt>
<trkpt lat="48.936820" lon="8.670015">
<ele>350.5</ele>
<speed>2.3</speed>
<course>350.4</course>
<desc>Speed 2.3 km/h Distance 5.85 km</desc>
<time>2010-02-25T17:23:12.60</time>
<name>3965</name>
</trkpt>
<trkpt lat="48.936828" lon="8.670013">
<ele>350.0</ele>
<speed>3.1</speed>
<course>4.4</course>
<desc>Speed 3.1 km/h Distance 5.85 km</desc>
<time>2010-02-25T17:23:13.59</time>
<name>3966</name>
</trkpt>
<trkpt lat="48.936838" lon="8.670013">
<ele>350.5</ele>
<speed>2.8</speed>
<course>6.6</course>
<desc>Speed 2.8 km/h Distance 5.85 km</desc>
<time>2010-02-25T17:23:14.59</time>
<name>3967</name>
</trkpt>
<trkpt lat="48.936848" lon="8.670015">
<ele>350.5</ele>
<speed>3.2</speed>
<course>355.0</course>
<desc>Speed 3.2 km/h Distance 5.86 km</desc>
<time>2010-02-25T17:23:15.59</time>
<name>3968</name>
</trkpt>
<trkpt lat="48.936857" lon="8.670013">
<ele>351.0</ele>
<speed>2.3</speed>
<course>0.0</course>
<desc>Speed 2.3 km/h Distance 5.86 km</desc>
<time>2010-02-25T17:23:16.62</time>
<name>3969</name>
</trkpt>
<trkpt lat="48.936873" lon="8.670013">
<ele>353.5</ele>
<speed>4.1</speed>
<course>345.6</course>
<desc>Speed 4.1 km/h Distance 5.86 km</desc>
<time>2010-02-25T17:23:17.59</time>
<name>3970</name>
</trkpt>
<trkpt lat="48.936887" lon="8.670008">
<ele>354.0</ele>
<speed>5.3</speed>
<course>348.8</course>
<desc>Speed 5.3 km/h Distance 5.86 km</desc>
<time>2010-02-25T17:23:18.59</time>
<name>3971</name>
</trkpt>
<trkpt lat="48.936903" lon="8.670003">
<ele>355.0</ele>
<speed>5.9</speed>
<course>353.4</course>
<desc>Speed 5.9 km/h Distance 5.86 km</desc>
<time>2010-02-25T17:23:19.59</time>
<name>3972</name>
</trkpt>
<trkpt lat="48.936913" lon="8.670002">
<ele>355.0</ele>
<speed>3.1</speed>
<course>354.7</course>
<desc>Speed 3.1 km/h Distance 5.86 km</desc>
<time>2010-02-25T17:23:20.59</time>
<name>3973</name>
</trkpt>
<trkpt lat="48.936927" lon="8.670000">
<ele>355.5</ele>
<speed>3.1</speed>
<course>345.1</course>
<desc>Speed 3.1 km/h Distance 5.86 km</desc>
<time>2010-02-25T17:23:21.59</time>
<name>3974</name>
</trkpt>
<trkpt lat="48.936938" lon="8.669995">
<ele>355.0</ele>
<speed>3.9</speed>
<course>347.4</course>
<desc>Speed 3.9 km/h Distance 5.87 km</desc>
<time>2010-02-25T17:23:22.59</time>
<name>3975</name>
</trkpt>
<trkpt lat="48.936943" lon="8.669993">
<ele>354.5</ele>
<speed>2.0</speed>
<course>4.4</course>
<desc>Speed 2.0 km/h Distance 5.87 km</desc>
<time>2010-02-25T17:23:23.59</time>
<name>3976</name>
</trkpt>
<trkpt lat="48.936953" lon="8.669993">
<ele>355.0</ele>
<speed>3.2</speed>
<course>18.4</course>
<desc>Speed 3.2 km/h Distance 5.87 km</desc>
<time>2010-02-25T17:23:24.59</time>
<name>3977</name>
</trkpt>
<trkpt lat="48.936967" lon="8.670000">
<ele>354.0</ele>
<speed>3.8</speed>
<course>352.6</course>
<desc>Speed 3.8 km/h Distance 5.87 km</desc>
<time>2010-02-25T17:23:25.59</time>
<name>3978</name>
</trkpt>
<trkpt lat="48.936973" lon="8.669998">
<ele>354.5</ele>
<speed>1.5</speed>
<course>1.2</course>
<desc>Speed 1.5 km/h Distance 5.87 km</desc>
<time>2010-02-25T17:23:26.58</time>
<name>3979</name>
</trkpt>
<trkpt lat="48.936980" lon="8.669998">
<ele>354.5</ele>
<speed>0.3</speed>
<course>355.3</course>
<desc>Speed 0.3 km/h Distance 5.87 km</desc>
<time>2010-02-25T17:23:27.59</time>
<name>3980</name>
</trkpt>
<trkpt lat="48.936992" lon="8.669997">
<ele>354.5</ele>
<speed>1.2</speed>
<course>0.0</course>
<desc>Speed 1.2 km/h Distance 5.87 km</desc>
<time>2010-02-25T17:23:28.58</time>
<name>3981</name>
</trkpt>
<trkpt lat="48.937007" lon="8.669997">
<ele>353.5</ele>
<speed>2.6</speed>
<course>349.7</course>
<desc>Speed 2.6 km/h Distance 5.87 km</desc>
<time>2010-02-25T17:23:29.58</time>
<name>3982</name>
</trkpt>
<trkpt lat="48.937013" lon="8.669995">
<ele>353.5</ele>
<speed>2.0</speed>
<course>355.3</course>
<desc>Speed 2.0 km/h Distance 5.87 km</desc>
<time>2010-02-25T17:23:30.58</time>
<name>3983</name>
</trkpt>
<trkpt lat="48.937025" lon="8.669993">
<ele>355.0</ele>
<speed>4.6</speed>
<course>0.0</course>
<desc>Speed 4.6 km/h Distance 5.88 km</desc>
<time>2010-02-25T17:23:31.59</time>
<name>3984</name>
</trkpt>
<trkpt lat="48.937037" lon="8.669993">
<ele>355.0</ele>
<speed>3.7</speed>
<course>7.4</course>
<desc>Speed 3.7 km/h Distance 5.88 km</desc>
<time>2010-02-25T17:23:32.58</time>
<name>3985</name>
</trkpt>
<trkpt lat="48.937043" lon="8.669995">
<ele>355.5</ele>
<speed>2.9</speed>
<course>340.4</course>
<desc>Speed 2.9 km/h Distance 5.88 km</desc>
<time>2010-02-25T17:23:33.58</time>
<name>3986</name>
</trkpt>
<trkpt lat="48.937083" lon="8.669973">
<ele>355.5</ele>
<speed>4.9</speed>
<course>333.1</course>
<desc>Speed 4.9 km/h Distance 5.88 km</desc>
<time>2010-02-25T17:23:35.58</time>
<name>3987</name>
</trkpt>
<trkpt lat="48.937105" lon="8.669957">
<ele>356.5</ele>
<speed>4.5</speed>
<course>355.0</course>
<desc>Speed 4.5 km/h Distance 5.88 km</desc>
<time>2010-02-25T17:23:36.58</time>
<name>3988</name>
</trkpt>
<trkpt lat="48.937113" lon="8.669955">
<ele>357.0</ele>
<speed>2.7</speed>
<course>355.3</course>
<desc>Speed 2.7 km/h Distance 5.89 km</desc>
<time>2010-02-25T17:23:37.58</time>
<name>3989</name>
</trkpt>
<trkpt lat="48.937125" lon="8.669953">
<ele>357.5</ele>
<speed>4.4</speed>
<course>356.1</course>
<desc>Speed 4.4 km/h Distance 5.89 km</desc>
<time>2010-02-25T17:23:38.58</time>
<name>3990</name>
</trkpt>
<trkpt lat="48.937138" lon="8.669952">
<ele>357.0</ele>
<speed>5.3</speed>
<course>351.9</course>
<desc>Speed 5.3 km/h Distance 5.89 km</desc>
<time>2010-02-25T17:23:39.58</time>
<name>3991</name>
</trkpt>
<trkpt lat="48.937153" lon="8.669948">
<ele>357.0</ele>
<speed>3.7</speed>
<course>348.8</course>
<desc>Speed 3.7 km/h Distance 5.89 km</desc>
<time>2010-02-25T17:23:40.58</time>
<name>3992</name>
</trkpt>
<trkpt lat="48.937170" lon="8.669943">
<ele>356.0</ele>
<speed>4.6</speed>
<course>346.5</course>
<desc>Speed 4.6 km/h Distance 5.89 km</desc>
<time>2010-02-25T17:23:41.58</time>
<name>3993</name>
</trkpt>
<trkpt lat="48.937183" lon="8.669938">
<ele>356.5</ele>
<speed>5.0</speed>
<course>343.1</course>
<desc>Speed 5.0 km/h Distance 5.89 km</desc>
<time>2010-02-25T17:23:42.58</time>
<name>3994</name>
</trkpt>
<trkpt lat="48.937208" lon="8.669927">
<ele>356.0</ele>
<speed>4.1</speed>
<course>340.1</course>
<desc>Speed 4.1 km/h Distance 5.90 km</desc>
<time>2010-02-25T17:23:43.58</time>
<name>3995</name>
</trkpt>
<trkpt lat="48.937223" lon="8.669918">
<ele>354.5</ele>
<speed>3.7</speed>
<course>1.2</course>
<desc>Speed 3.7 km/h Distance 5.90 km</desc>
<time>2010-02-25T17:23:44.58</time>
<name>3996</name>
</trkpt>
<trkpt lat="48.937243" lon="8.669918">
<ele>355.5</ele>
<speed>3.5</speed>
<course>336.2</course>
<desc>Speed 3.5 km/h Distance 5.90 km</desc>
<time>2010-02-25T17:23:45.58</time>
<name>3997</name>
</trkpt>
<trkpt lat="48.937253" lon="8.669912">
<ele>356.0</ele>
<speed>3.2</speed>
<course>339.1</course>
<desc>Speed 3.2 km/h Distance 5.90 km</desc>
<time>2010-02-25T17:23:46.58</time>
<name>3998</name>
</trkpt>
<trkpt lat="48.937265" lon="8.669905">
<ele>355.5</ele>
<speed>3.5</speed>
<course>296.9</course>
<desc>Speed 3.5 km/h Distance 5.90 km</desc>
<time>2010-02-25T17:23:47.58</time>
<name>3999</name>
</trkpt>
<trkpt lat="48.937270" lon="8.669890">
<ele>357.5</ele>
<speed>4.2</speed>
<course>326.3</course>
<desc>Speed 4.2 km/h Distance 5.90 km</desc>
<time>2010-02-25T17:23:48.58</time>
<name>4000</name>
</trkpt>
<trkpt lat="48.937277" lon="8.669883">
<ele>358.5</ele>
<speed>3.0</speed>
<course>326.8</course>
<desc>Speed 3.0 km/h Distance 5.91 km</desc>
<time>2010-02-25T17:23:49.58</time>
<name>4001</name>
</trkpt>
<trkpt lat="48.937285" lon="8.669875">
<ele>357.0</ele>
<speed>2.9</speed>
<course>332.1</course>
<desc>Speed 2.9 km/h Distance 5.91 km</desc>
<time>2010-02-25T17:23:50.58</time>
<name>4002</name>
</trkpt>
<trkpt lat="48.937293" lon="8.669868">
<ele>355.5</ele>
<speed>2.2</speed>
<course>341.8</course>
<desc>Speed 2.2 km/h Distance 5.91 km</desc>
<time>2010-02-25T17:23:51.58</time>
<name>4003</name>
</trkpt>
<trkpt lat="48.937303" lon="8.669863">
<ele>355.0</ele>
<speed>3.9</speed>
<course>326.8</course>
<desc>Speed 3.9 km/h Distance 5.91 km</desc>
<time>2010-02-25T17:23:52.58</time>
<name>4004</name>
</trkpt>
<trkpt lat="48.937312" lon="8.669855">
<ele>355.5</ele>
<speed>3.5</speed>
<course>334.8</course>
<desc>Speed 3.5 km/h Distance 5.91 km</desc>
<time>2010-02-25T17:23:53.57</time>
<name>4005</name>
</trkpt>
<trkpt lat="48.937323" lon="8.669847">
<ele>357.5</ele>
<speed>3.8</speed>
<course>310.9</course>
<desc>Speed 3.8 km/h Distance 5.91 km</desc>
<time>2010-02-25T17:23:54.58</time>
<name>4006</name>
</trkpt>
<trkpt lat="48.937330" lon="8.669835">
<ele>358.0</ele>
<speed>2.4</speed>
<course>341.2</course>
<desc>Speed 2.4 km/h Distance 5.91 km</desc>
<time>2010-02-25T17:23:55.58</time>
<name>4007</name>
</trkpt>
<trkpt lat="48.937337" lon="8.669832">
<ele>357.5</ele>
<speed>1.4</speed>
<course>290.9</course>
<desc>Speed 1.4 km/h Distance 5.91 km</desc>
<time>2010-02-25T17:23:56.57</time>
<name>4008</name>
</trkpt>
<trkpt lat="48.937340" lon="8.669818">
<ele>358.0</ele>
<speed>2.8</speed>
<course>341.9</course>
<desc>Speed 2.8 km/h Distance 5.91 km</desc>
<time>2010-02-25T17:23:57.57</time>
<name>4009</name>
</trkpt>
<trkpt lat="48.937353" lon="8.669812">
<ele>358.0</ele>
<speed>3.5</speed>
<course>331.4</course>
<desc>Speed 3.5 km/h Distance 5.92 km</desc>
<time>2010-02-25T17:23:58.57</time>
<name>4010</name>
</trkpt>
<trkpt lat="48.937363" lon="8.669803">
<ele>358.5</ele>
<speed>3.3</speed>
<course>339.1</course>
<desc>Speed 3.3 km/h Distance 5.92 km</desc>
<time>2010-02-25T17:23:59.57</time>
<name>4011</name>
</trkpt>
<trkpt lat="48.937375" lon="8.669797">
<ele>357.0</ele>
<speed>3.3</speed>
<course>309.7</course>
<desc>Speed 3.3 km/h Distance 5.92 km</desc>
<time>2010-02-25T17:24:00.57</time>
<name>4012</name>
</trkpt>
<trkpt lat="48.937385" lon="8.669778">
<ele>356.0</ele>
<speed>3.0</speed>
<course>343.4</course>
<desc>Speed 3.0 km/h Distance 5.92 km</desc>
<time>2010-02-25T17:24:01.57</time>
<name>4013</name>
</trkpt>
<trkpt lat="48.937400" lon="8.669772">
<ele>354.0</ele>
<speed>3.0</speed>
<course>330.0</course>
<desc>Speed 3.0 km/h Distance 5.92 km</desc>
<time>2010-02-25T17:24:02.57</time>
<name>4014</name>
</trkpt>
<trkpt lat="48.937413" lon="8.669760">
<ele>354.5</ele>
<speed>4.4</speed>
<course>345.0</course>
<desc>Speed 4.4 km/h Distance 5.92 km</desc>
<time>2010-02-25T17:24:03.57</time>
<name>4015</name>
</trkpt>
<trkpt lat="48.937467" lon="8.669738">
<ele>350.5</ele>
<speed>5.0</speed>
<course>342.4</course>
<desc>Speed 5.0 km/h Distance 5.93 km</desc>
<time>2010-02-25T17:24:05.57</time>
<name>4016</name>
</trkpt>
<trkpt lat="48.937512" lon="8.669717">
<ele>348.5</ele>
<speed>3.3</speed>
<course>336.2</course>
<desc>Speed 3.3 km/h Distance 5.94 km</desc>
<time>2010-02-25T17:24:07.57</time>
<name>4017</name>
</trkpt>
<trkpt lat="48.937522" lon="8.669710">
<ele>348.5</ele>
<speed>3.6</speed>
<course>320.6</course>
<desc>Speed 3.6 km/h Distance 5.94 km</desc>
<time>2010-02-25T17:24:08.57</time>
<name>4018</name>
</trkpt>
<trkpt lat="48.937528" lon="8.669702">
<ele>348.0</ele>
<speed>2.6</speed>
<course>326.5</course>
<desc>Speed 2.6 km/h Distance 5.94 km</desc>
<time>2010-02-25T17:24:09.57</time>
<name>4019</name>
</trkpt>
<trkpt lat="48.937537" lon="8.669693">
<ele>346.0</ele>
<speed>2.3</speed>
<course>336.2</course>
<desc>Speed 2.3 km/h Distance 5.94 km</desc>
<time>2010-02-25T17:24:10.58</time>
<name>4020</name>
</trkpt>
<trkpt lat="48.937547" lon="8.669687">
<ele>345.5</ele>
<speed>3.0</speed>
<course>326.8</course>
<desc>Speed 3.0 km/h Distance 5.94 km</desc>
<time>2010-02-25T17:24:11.57</time>
<name>4021</name>
</trkpt>
<trkpt lat="48.937557" lon="8.669677">
<ele>345.5</ele>
<speed>4.2</speed>
<course>344.5</course>
<desc>Speed 4.2 km/h Distance 5.94 km</desc>
<time>2010-02-25T17:24:12.57</time>
<name>4022</name>
</trkpt>
<trkpt lat="48.937568" lon="8.669672">
<ele>345.0</ele>
<speed>4.1</speed>
<course>304.0</course>
<desc>Speed 4.1 km/h Distance 5.94 km</desc>
<time>2010-02-25T17:24:13.57</time>
<name>4023</name>
</trkpt>
<trkpt lat="48.937575" lon="8.669657">
<ele>344.5</ele>
<speed>4.1</speed>
<course>314.1</course>
<desc>Speed 4.1 km/h Distance 5.94 km</desc>
<time>2010-02-25T17:24:14.57</time>
<name>4024</name>
</trkpt>
<trkpt lat="48.937587" lon="8.669638">
<ele>346.0</ele>
<speed>4.9</speed>
<course>323.1</course>
<desc>Speed 4.9 km/h Distance 5.95 km</desc>
<time>2010-02-25T17:24:15.57</time>
<name>4025</name>
</trkpt>
<trkpt lat="48.937598" lon="8.669625">
<ele>346.5</ele>
<speed>4.1</speed>
<course>316.7</course>
<desc>Speed 4.1 km/h Distance 5.95 km</desc>
<time>2010-02-25T17:24:16.56</time>
<name>4026</name>
</trkpt>
<trkpt lat="48.937610" lon="8.669608">
<ele>346.0</ele>
<speed>4.5</speed>
<course>22.1</course>
<desc>Speed 4.5 km/h Distance 5.95 km</desc>
<time>2010-02-25T17:24:17.57</time>
<name>4027</name>
</trkpt>
<trkpt lat="48.937623" lon="8.669617">
<ele>344.5</ele>
<speed>3.8</speed>
<course>324.2</course>
<desc>Speed 3.8 km/h Distance 5.95 km</desc>
<time>2010-02-25T17:24:18.56</time>
<name>4028</name>
</trkpt>
<trkpt lat="48.937640" lon="8.669598">
<ele>343.0</ele>
<speed>5.5</speed>
<course>331.7</course>
<desc>Speed 5.5 km/h Distance 5.95 km</desc>
<time>2010-02-25T17:24:19.57</time>
<name>4029</name>
</trkpt>
<trkpt lat="48.937658" lon="8.669583">
<ele>341.0</ele>
<speed>4.6</speed>
<course>344.0</course>
<desc>Speed 4.6 km/h Distance 5.96 km</desc>
<time>2010-02-25T17:24:20.56</time>
<name>4030</name>
</trkpt>
<trkpt lat="48.937670" lon="8.669578">
<ele>341.0</ele>
<speed>3.9</speed>
<course>344.8</course>
<desc>Speed 3.9 km/h Distance 5.96 km</desc>
<time>2010-02-25T17:24:21.56</time>
<name>4031</name>
</trkpt>
<trkpt lat="48.937718" lon="8.669558">
<ele>340.5</ele>
<speed>4.4</speed>
<course>341.9</course>
<desc>Speed 4.4 km/h Distance 5.96 km</desc>
<time>2010-02-25T17:24:23.55</time>
<name>4032</name>
</trkpt>
<trkpt lat="48.937732" lon="8.669552">
<ele>341.0</ele>
<speed>4.4</speed>
<course>317.4</course>
<desc>Speed 4.4 km/h Distance 5.96 km</desc>
<time>2010-02-25T17:24:24.55</time>
<name>4033</name>
</trkpt>
<trkpt lat="48.937740" lon="8.669540">
<ele>342.5</ele>
<speed>3.1</speed>
<course>326.8</course>
<desc>Speed 3.1 km/h Distance 5.96 km</desc>
<time>2010-02-25T17:24:25.56</time>
<name>4034</name>
</trkpt>
<trkpt lat="48.937748" lon="8.669532">
<ele>342.5</ele>
<speed>3.4</speed>
<course>330.6</course>
<desc>Speed 3.4 km/h Distance 5.97 km</desc>
<time>2010-02-25T17:24:26.56</time>
<name>4035</name>
</trkpt>
<trkpt lat="48.937760" lon="8.669522">
<ele>342.0</ele>
<speed>4.5</speed>
<course>323.0</course>
<desc>Speed 4.5 km/h Distance 5.97 km</desc>
<time>2010-02-25T17:24:27.56</time>
<name>4036</name>
</trkpt>
<trkpt lat="48.937772" lon="8.669508">
<ele>342.0</ele>
<speed>4.1</speed>
<course>326.7</course>
<desc>Speed 4.1 km/h Distance 5.97 km</desc>
<time>2010-02-25T17:24:28.56</time>
<name>4037</name>
</trkpt>
<trkpt lat="48.937793" lon="8.669487">
<ele>348.5</ele>
<speed>3.6</speed>
<course>288.1</course>
<desc>Speed 3.6 km/h Distance 5.97 km</desc>
<time>2010-02-25T17:24:29.56</time>
<name>4038</name>
</trkpt>
<trkpt lat="48.937798" lon="8.669463">
<ele>350.0</ele>
<speed>6.2</speed>
<course>326.7</course>
<desc>Speed 6.2 km/h Distance 5.97 km</desc>
<time>2010-02-25T17:24:30.56</time>
<name>4039</name>
</trkpt>
<trkpt lat="48.937815" lon="8.669447">
<ele>351.0</ele>
<speed>3.9</speed>
<course>323.1</course>
<desc>Speed 3.9 km/h Distance 5.98 km</desc>
<time>2010-02-25T17:24:31.56</time>
<name>4040</name>
</trkpt>
<trkpt lat="48.937827" lon="8.669433">
<ele>352.5</ele>
<speed>3.6</speed>
<course>340.7</course>
<desc>Speed 3.6 km/h Distance 5.98 km</desc>
<time>2010-02-25T17:24:32.56</time>
<name>4041</name>
</trkpt>
<trkpt lat="48.937852" lon="8.669420">
<ele>351.0</ele>
<speed>3.3</speed>
<course>346.0</course>
<desc>Speed 3.3 km/h Distance 5.98 km</desc>
<time>2010-02-25T17:24:33.55</time>
<name>4042</name>
</trkpt>
<trkpt lat="48.937900" lon="8.669402">
<ele>347.5</ele>
<speed>3.1</speed>
<course>340.4</course>
<desc>Speed 3.1 km/h Distance 5.99 km</desc>
<time>2010-02-25T17:24:35.56</time>
<name>4043</name>
</trkpt>
<trkpt lat="48.937915" lon="8.669393">
<ele>346.0</ele>
<speed>3.0</speed>
<course>316.8</course>
<desc>Speed 3.0 km/h Distance 5.99 km</desc>
<time>2010-02-25T17:24:36.56</time>
<name>4044</name>
</trkpt>
<trkpt lat="48.937927" lon="8.669377">
<ele>345.5</ele>
<speed>3.4</speed>
<course>322.1</course>
<desc>Speed 3.4 km/h Distance 5.99 km</desc>
<time>2010-02-25T17:24:37.56</time>
<name>4045</name>
</trkpt>
<trkpt lat="48.937945" lon="8.669355">
<ele>347.5</ele>
<speed>4.2</speed>
<course>339.0</course>
<desc>Speed 4.2 km/h Distance 5.99 km</desc>
<time>2010-02-25T17:24:38.56</time>
<name>4046</name>
</trkpt>
<trkpt lat="48.937965" lon="8.669343">
<ele>347.5</ele>
<speed>3.8</speed>
<course>337.9</course>
<desc>Speed 3.8 km/h Distance 5.99 km</desc>
<time>2010-02-25T17:24:39.56</time>
<name>4047</name>
</trkpt>
<trkpt lat="48.937978" lon="8.669335">
<ele>346.5</ele>
<speed>4.4</speed>
<course>334.0</course>
<desc>Speed 4.4 km/h Distance 6.00 km</desc>
<time>2010-02-25T17:24:40.55</time>
<name>4048</name>
</trkpt>
<trkpt lat="48.937992" lon="8.669325">
<ele>345.5</ele>
<speed>4.0</speed>
<course>330.6</course>
<desc>Speed 4.0 km/h Distance 6.00 km</desc>
<time>2010-02-25T17:24:41.55</time>
<name>4049</name>
</trkpt>
<trkpt lat="48.938003" lon="8.669315">
<ele>344.5</ele>
<speed>3.6</speed>
<course>334.0</course>
<desc>Speed 3.6 km/h Distance 6.00 km</desc>
<time>2010-02-25T17:24:42.55</time>
<name>4050</name>
</trkpt>
<trkpt lat="48.938017" lon="8.669305">
<ele>343.0</ele>
<speed>4.6</speed>
<course>299.0</course>
<desc>Speed 4.6 km/h Distance 6.00 km</desc>
<time>2010-02-25T17:24:43.55</time>
<name>4051</name>
</trkpt>
<trkpt lat="48.938023" lon="8.669287">
<ele>343.5</ele>
<speed>3.1</speed>
<course>303.3</course>
<desc>Speed 3.1 km/h Distance 6.00 km</desc>
<time>2010-02-25T17:24:44.55</time>
<name>4052</name>
</trkpt>
<trkpt lat="48.938028" lon="8.669275">
<ele>343.5</ele>
<speed>3.3</speed>
<course>336.2</course>
<desc>Speed 3.3 km/h Distance 6.00 km</desc>
<time>2010-02-25T17:24:45.55</time>
<name>4053</name>
</trkpt>
<trkpt lat="48.938038" lon="8.669268">
<ele>342.5</ele>
<speed>3.6</speed>
<course>321.9</course>
<desc>Speed 3.6 km/h Distance 6.00 km</desc>
<time>2010-02-25T17:24:46.55</time>
<name>4054</name>
</trkpt>
<trkpt lat="48.938047" lon="8.669258">
<ele>341.5</ele>
<speed>3.6</speed>
<course>346.5</course>
<desc>Speed 3.6 km/h Distance 6.01 km</desc>
<time>2010-02-25T17:24:47.55</time>
<name>4055</name>
</trkpt>
<trkpt lat="48.938060" lon="8.669253">
<ele>340.5</ele>
<speed>3.5</speed>
<course>351.9</course>
<desc>Speed 3.5 km/h Distance 6.01 km</desc>
<time>2010-02-25T17:24:48.55</time>
<name>4056</name>
</trkpt>
<trkpt lat="48.938075" lon="8.669250">
<ele>338.5</ele>
<speed>3.0</speed>
<course>2.2</course>
<desc>Speed 3.0 km/h Distance 6.01 km</desc>
<time>2010-02-25T17:24:49.55</time>
<name>4057</name>
</trkpt>
<trkpt lat="48.938087" lon="8.669250">
<ele>337.0</ele>
<speed>2.6</speed>
<course>355.3</course>
<desc>Speed 2.6 km/h Distance 6.01 km</desc>
<time>2010-02-25T17:24:50.55</time>
<name>4058</name>
</trkpt>
<trkpt lat="48.938098" lon="8.669248">
<ele>336.5</ele>
<speed>3.1</speed>
<course>315.5</course>
<desc>Speed 3.1 km/h Distance 6.01 km</desc>
<time>2010-02-25T17:24:51.55</time>
<name>4059</name>
</trkpt>
<trkpt lat="48.938108" lon="8.669233">
<ele>336.0</ele>
<speed>4.2</speed>
<course>3.8</course>
<desc>Speed 4.2 km/h Distance 6.01 km</desc>
<time>2010-02-25T17:24:52.55</time>
<name>4060</name>
</trkpt>
<trkpt lat="48.938123" lon="8.669235">
<ele>334.0</ele>
<speed>4.0</speed>
<course>344.0</course>
<desc>Speed 4.0 km/h Distance 6.02 km</desc>
<time>2010-02-25T17:24:53.55</time>
<name>4061</name>
</trkpt>
<trkpt lat="48.938135" lon="8.669230">
<ele>332.0</ele>
<speed>3.9</speed>
<course>313.6</course>
<desc>Speed 3.9 km/h Distance 6.02 km</desc>
<time>2010-02-25T17:24:54.55</time>
<name>4062</name>
</trkpt>
<trkpt lat="48.938143" lon="8.669217">
<ele>330.5</ele>
<speed>3.6</speed>
<course>301.4</course>
<desc>Speed 3.6 km/h Distance 6.02 km</desc>
<time>2010-02-25T17:24:55.55</time>
<name>4063</name>
</trkpt>
<trkpt lat="48.938150" lon="8.669200">
<ele>332.0</ele>
<speed>4.4</speed>
<course>310.3</course>
<desc>Speed 4.4 km/h Distance 6.02 km</desc>
<time>2010-02-25T17:24:56.55</time>
<name>4064</name>
</trkpt>
<trkpt lat="48.938158" lon="8.669185">
<ele>334.5</ele>
<speed>3.4</speed>
<course>344.0</course>
<desc>Speed 3.4 km/h Distance 6.02 km</desc>
<time>2010-02-25T17:24:57.55</time>
<name>4065</name>
</trkpt>
<trkpt lat="48.938173" lon="8.669178">
<ele>334.0</ele>
<speed>3.1</speed>
<course>350.5</course>
<desc>Speed 3.1 km/h Distance 6.02 km</desc>
<time>2010-02-25T17:24:58.55</time>
<name>4066</name>
</trkpt>
<trkpt lat="48.938185" lon="8.669175">
<ele>333.0</ele>
<speed>2.4</speed>
<course>333.6</course>
<desc>Speed 2.4 km/h Distance 6.02 km</desc>
<time>2010-02-25T17:24:59.55</time>
<name>4067</name>
</trkpt>
<trkpt lat="48.938192" lon="8.669170">
<ele>331.0</ele>
<speed>1.5</speed>
<course>322.5</course>
<desc>Speed 1.5 km/h Distance 6.02 km</desc>
<time>2010-02-25T17:25:00.54</time>
<name>4068</name>
</trkpt>
<trkpt lat="48.938202" lon="8.669158">
<ele>330.0</ele>
<speed>2.2</speed>
<course>348.3</course>
<desc>Speed 2.2 km/h Distance 6.03 km</desc>
<time>2010-02-25T17:25:01.55</time>
<name>4069</name>
</trkpt>
<trkpt lat="48.938217" lon="8.669153">
<ele>329.5</ele>
<speed>4.1</speed>
<course>292.5</course>
<desc>Speed 4.1 km/h Distance 6.03 km</desc>
<time>2010-02-25T17:25:02.54</time>
<name>4070</name>
</trkpt>
<trkpt lat="48.938222" lon="8.669135">
<ele>329.5</ele>
<speed>3.9</speed>
<course>317.4</course>
<desc>Speed 3.9 km/h Distance 6.03 km</desc>
<time>2010-02-25T17:25:03.55</time>
<name>4071</name>
</trkpt>
<trkpt lat="48.938230" lon="8.669123">
<ele>329.5</ele>
<speed>3.5</speed>
<course>0.0</course>
<desc>Speed 3.5 km/h Distance 6.03 km</desc>
<time>2010-02-25T17:25:04.54</time>
<name>4072</name>
</trkpt>
<trkpt lat="48.938250" lon="8.669123">
<ele>328.0</ele>
<speed>4.5</speed>
<course>345.1</course>
<desc>Speed 4.5 km/h Distance 6.03 km</desc>
<time>2010-02-25T17:25:05.54</time>
<name>4073</name>
</trkpt>
<trkpt lat="48.938258" lon="8.669120">
<ele>327.5</ele>
<speed>2.6</speed>
<course>310.9</course>
<desc>Speed 2.6 km/h Distance 6.03 km</desc>
<time>2010-02-25T17:25:06.54</time>
<name>4074</name>
</trkpt>
<trkpt lat="48.938265" lon="8.669108">
<ele>329.5</ele>
<speed>3.5</speed>
<course>24.7</course>
<desc>Speed 3.5 km/h Distance 6.03 km</desc>
<time>2010-02-25T17:25:07.54</time>
<name>4075</name>
</trkpt>
<trkpt lat="48.938282" lon="8.669120">
<ele>329.5</ele>
<speed>6.9</speed>
<course>307.3</course>
<desc>Speed 6.9 km/h Distance 6.04 km</desc>
<time>2010-02-25T17:25:08.56</time>
<name>4076</name>
</trkpt>
<trkpt lat="48.938290" lon="8.669103">
<ele>330.0</ele>
<speed>4.7</speed>
<course>337.9</course>
<desc>Speed 4.7 km/h Distance 6.04 km</desc>
<time>2010-02-25T17:25:09.54</time>
<name>4077</name>
</trkpt>
<trkpt lat="48.938303" lon="8.669095">
<ele>330.0</ele>
<speed>3.6</speed>
<course>47.6</course>
<desc>Speed 3.6 km/h Distance 6.04 km</desc>
<time>2010-02-25T17:25:10.55</time>
<name>4078</name>
</trkpt>
<trkpt lat="48.938318" lon="8.669120">
<ele>329.0</ele>
<speed>8.1</speed>
<course>278.6</course>
<desc>Speed 8.1 km/h Distance 6.04 km</desc>
<time>2010-02-25T17:25:11.54</time>
<name>4079</name>
</trkpt>
<trkpt lat="48.938322" lon="8.669087">
<ele>331.0</ele>
<speed>6.8</speed>
<course>336.3</course>
<desc>Speed 6.8 km/h Distance 6.04 km</desc>
<time>2010-02-25T17:25:12.54</time>
<name>4080</name>
</trkpt>
<trkpt lat="48.938342" lon="8.669073">
<ele>331.5</ele>
<speed>4.0</speed>
<course>315.3</course>
<desc>Speed 4.0 km/h Distance 6.05 km</desc>
<time>2010-02-25T17:25:13.54</time>
<name>4081</name>
</trkpt>
<trkpt lat="48.938352" lon="8.669058">
<ele>331.5</ele>
<speed>3.9</speed>
<course>318.0</course>
<desc>Speed 3.9 km/h Distance 6.05 km</desc>
<time>2010-02-25T17:25:14.56</time>
<name>4082</name>
</trkpt>
<trkpt lat="48.938365" lon="8.669040">
<ele>333.0</ele>
<speed>4.3</speed>
<course>283.2</course>
<desc>Speed 4.3 km/h Distance 6.05 km</desc>
<time>2010-02-25T17:25:15.54</time>
<name>4083</name>
</trkpt>
<trkpt lat="48.938368" lon="8.669018">
<ele>333.5</ele>
<speed>2.9</speed>
<course>339.1</course>
<desc>Speed 2.9 km/h Distance 6.05 km</desc>
<time>2010-02-25T17:25:16.54</time>
<name>4084</name>
</trkpt>
<trkpt lat="48.938380" lon="8.669012">
<ele>332.0</ele>
<speed>3.1</speed>
<course>310.3</course>
<desc>Speed 3.1 km/h Distance 6.05 km</desc>
<time>2010-02-25T17:25:17.54</time>
<name>4085</name>
</trkpt>
<trkpt lat="48.938388" lon="8.668997">
<ele>332.5</ele>
<speed>3.7</speed>
<course>336.5</course>
<desc>Speed 3.7 km/h Distance 6.06 km</desc>
<time>2010-02-25T17:25:18.54</time>
<name>4086</name>
</trkpt>
<trkpt lat="48.938403" lon="8.668987">
<ele>333.0</ele>
<speed>4.6</speed>
<course>349.1</course>
<desc>Speed 4.6 km/h Distance 6.06 km</desc>
<time>2010-02-25T17:25:19.54</time>
<name>4087</name>
</trkpt>
<trkpt lat="48.938432" lon="8.668978">
<ele>330.0</ele>
<speed>4.9</speed>
<course>353.1</course>
<desc>Speed 4.9 km/h Distance 6.06 km</desc>
<time>2010-02-25T17:25:20.54</time>
<name>4088</name>
</trkpt>
<trkpt lat="48.938458" lon="8.668973">
<ele>327.5</ele>
<speed>3.6</speed>
<course>315.5</course>
<desc>Speed 3.6 km/h Distance 6.06 km</desc>
<time>2010-02-25T17:25:21.54</time>
<name>4089</name>
</trkpt>
<trkpt lat="48.938465" lon="8.668963">
<ele>327.0</ele>
<speed>2.6</speed>
<course>314.1</course>
<desc>Speed 2.6 km/h Distance 6.06 km</desc>
<time>2010-02-25T17:25:22.54</time>
<name>4090</name>
</trkpt>
<trkpt lat="48.938477" lon="8.668945">
<ele>326.0</ele>
<speed>2.6</speed>
<course>339.9</course>
<desc>Speed 2.6 km/h Distance 6.07 km</desc>
<time>2010-02-25T17:25:23.54</time>
<name>4091</name>
</trkpt>
<trkpt lat="48.938492" lon="8.668937">
<ele>324.0</ele>
<speed>3.9</speed>
<course>343.4</course>
<desc>Speed 3.9 km/h Distance 6.07 km</desc>
<time>2010-02-25T17:25:24.54</time>
<name>4092</name>
</trkpt>
<trkpt lat="48.938510" lon="8.668928">
<ele>322.5</ele>
<speed>4.4</speed>
<course>353.4</course>
<desc>Speed 4.4 km/h Distance 6.07 km</desc>
<time>2010-02-25T17:25:25.54</time>
<name>4093</name>
</trkpt>
<trkpt lat="48.938530" lon="8.668925">
<ele>321.0</ele>
<speed>3.1</speed>
<course>351.2</course>
<desc>Speed 3.1 km/h Distance 6.07 km</desc>
<time>2010-02-25T17:25:26.54</time>
<name>4094</name>
</trkpt>
<trkpt lat="48.938545" lon="8.668922">
<ele>321.0</ele>
<speed>4.6</speed>
<course>4.7</course>
<desc>Speed 4.6 km/h Distance 6.07 km</desc>
<time>2010-02-25T17:25:27.54</time>
<name>4095</name>
</trkpt>
<trkpt lat="48.938557" lon="8.668922">
<ele>318.5</ele>
<speed>3.2</speed>
<course>339.9</course>
<desc>Speed 3.2 km/h Distance 6.08 km</desc>
<time>2010-02-25T17:25:28.54</time>
<name>4096</name>
</trkpt>
<trkpt lat="48.938572" lon="8.668913">
<ele>316.5</ele>
<speed>4.0</speed>
<course>334.5</course>
<desc>Speed 4.0 km/h Distance 6.08 km</desc>
<time>2010-02-25T17:25:29.54</time>
<name>4097</name>
</trkpt>
<trkpt lat="48.938590" lon="8.668900">
<ele>314.0</ele>
<speed>4.3</speed>
<course>353.9</course>
<desc>Speed 4.3 km/h Distance 6.08 km</desc>
<time>2010-02-25T17:25:30.53</time>
<name>4098</name>
</trkpt>
<trkpt lat="48.938610" lon="8.668897">
<ele>311.0</ele>
<speed>3.5</speed>
<course>343.4</course>
<desc>Speed 3.5 km/h Distance 6.08 km</desc>
<time>2010-02-25T17:25:31.53</time>
<name>4099</name>
</trkpt>
<trkpt lat="48.938625" lon="8.668890">
<ele>311.5</ele>
<speed>4.2</speed>
<course>332.5</course>
<desc>Speed 4.2 km/h Distance 6.08 km</desc>
<time>2010-02-25T17:25:32.54</time>
<name>4100</name>
</trkpt>
<trkpt lat="48.938665" lon="8.668858">
<ele>310.0</ele>
<speed>4.1</speed>
<course>329.4</course>
<desc>Speed 4.1 km/h Distance 6.09 km</desc>
<time>2010-02-25T17:25:34.53</time>
<name>4101</name>
</trkpt>
<trkpt lat="48.938682" lon="8.668843">
<ele>309.5</ele>
<speed>4.1</speed>
<course>337.4</course>
<desc>Speed 4.1 km/h Distance 6.09 km</desc>
<time>2010-02-25T17:25:35.53</time>
<name>4102</name>
</trkpt>
<trkpt lat="48.938695" lon="8.668835">
<ele>307.5</ele>
<speed>5.4</speed>
<course>333.6</course>
<desc>Speed 5.4 km/h Distance 6.09 km</desc>
<time>2010-02-25T17:25:36.54</time>
<name>4103</name>
</trkpt>
<trkpt lat="48.938708" lon="8.668825">
<ele>308.0</ele>
<speed>3.7</speed>
<course>320.6</course>
<desc>Speed 3.7 km/h Distance 6.09 km</desc>
<time>2010-02-25T17:25:37.54</time>
<name>4104</name>
</trkpt>
<trkpt lat="48.938722" lon="8.668808">
<ele>307.5</ele>
<speed>4.3</speed>
<course>321.2</course>
<desc>Speed 4.3 km/h Distance 6.10 km</desc>
<time>2010-02-25T17:25:38.54</time>
<name>4105</name>
</trkpt>
<trkpt lat="48.938737" lon="8.668790">
<ele>307.0</ele>
<speed>5.4</speed>
<course>317.4</course>
<desc>Speed 5.4 km/h Distance 6.10 km</desc>
<time>2010-02-25T17:25:39.54</time>
<name>4106</name>
</trkpt>
<trkpt lat="48.938753" lon="8.668767">
<ele>307.5</ele>
<speed>5.8</speed>
<course>0.0</course>
<desc>Speed 5.8 km/h Distance 6.10 km</desc>
<time>2010-02-25T17:25:40.53</time>
<name>4107</name>
</trkpt>
<trkpt lat="48.938768" lon="8.668767">
<ele>305.5</ele>
<speed>4.2</speed>
<course>321.9</course>
<desc>Speed 4.2 km/h Distance 6.10 km</desc>
<time>2010-02-25T17:25:41.53</time>
<name>4108</name>
</trkpt>
<trkpt lat="48.938777" lon="8.668757">
<ele>304.0</ele>
<speed>3.6</speed>
<course>326.7</course>
<desc>Speed 3.6 km/h Distance 6.10 km</desc>
<time>2010-02-25T17:25:42.53</time>
<name>4109</name>
</trkpt>
<trkpt lat="48.938790" lon="8.668743">
<ele>305.0</ele>
<speed>4.1</speed>
<course>316.9</course>
<desc>Speed 4.1 km/h Distance 6.10 km</desc>
<time>2010-02-25T17:25:43.53</time>
<name>4110</name>
</trkpt>
<trkpt lat="48.938802" lon="8.668727">
<ele>304.5</ele>
<speed>4.4</speed>
<course>305.6</course>
<desc>Speed 4.4 km/h Distance 6.11 km</desc>
<time>2010-02-25T17:25:44.53</time>
<name>4111</name>
</trkpt>
<trkpt lat="48.938815" lon="8.668698">
<ele>305.5</ele>
<speed>6.4</speed>
<course>318.8</course>
<desc>Speed 6.4 km/h Distance 6.11 km</desc>
<time>2010-02-25T17:25:45.53</time>
<name>4112</name>
</trkpt>
<trkpt lat="48.938830" lon="8.668678">
<ele>306.0</ele>
<speed>4.3</speed>
<course>303.1</course>
<desc>Speed 4.3 km/h Distance 6.11 km</desc>
<time>2010-02-25T17:25:46.53</time>
<name>4113</name>
</trkpt>
<trkpt lat="48.938840" lon="8.668655">
<ele>305.5</ele>
<speed>4.1</speed>
<course>323.5</course>
<desc>Speed 4.1 km/h Distance 6.11 km</desc>
<time>2010-02-25T17:25:47.53</time>
<name>4114</name>
</trkpt>
<trkpt lat="48.938853" lon="8.668640">
<ele>304.0</ele>
<speed>4.2</speed>
<course>336.5</course>
<desc>Speed 4.2 km/h Distance 6.12 km</desc>
<time>2010-02-25T17:25:48.53</time>
<name>4115</name>
</trkpt>
<trkpt lat="48.938868" lon="8.668630">
<ele>304.5</ele>
<speed>4.1</speed>
<course>318.6</course>
<desc>Speed 4.1 km/h Distance 6.12 km</desc>
<time>2010-02-25T17:25:49.53</time>
<name>4116</name>
</trkpt>
<trkpt lat="48.938878" lon="8.668617">
<ele>303.5</ele>
<speed>4.3</speed>
<course>313.5</course>
<desc>Speed 4.3 km/h Distance 6.12 km</desc>
<time>2010-02-25T17:25:50.53</time>
<name>4117</name>
</trkpt>
<trkpt lat="48.938887" lon="8.668603">
<ele>302.5</ele>
<speed>4.5</speed>
<course>352.3</course>
<desc>Speed 4.5 km/h Distance 6.12 km</desc>
<time>2010-02-25T17:25:51.53</time>
<name>4118</name>
</trkpt>
<trkpt lat="48.938895" lon="8.668602">
<ele>301.0</ele>
<speed>2.3</speed>
<course>288.7</course>
<desc>Speed 2.3 km/h Distance 6.12 km</desc>
<time>2010-02-25T17:25:52.55</time>
<name>4119</name>
</trkpt>
<trkpt lat="48.938902" lon="8.668572">
<ele>304.0</ele>
<speed>4.0</speed>
<course>338.5</course>
<desc>Speed 4.0 km/h Distance 6.12 km</desc>
<time>2010-02-25T17:25:53.53</time>
<name>4120</name>
</trkpt>
<trkpt lat="48.938918" lon="8.668562">
<ele>302.5</ele>
<speed>4.8</speed>
<course>350.3</course>
<desc>Speed 4.8 km/h Distance 6.13 km</desc>
<time>2010-02-25T17:25:54.53</time>
<name>4121</name>
</trkpt>
<trkpt lat="48.938932" lon="8.668558">
<ele>301.0</ele>
<speed>2.8</speed>
<course>354.7</course>
<desc>Speed 2.8 km/h Distance 6.13 km</desc>
<time>2010-02-25T17:25:55.53</time>
<name>4122</name>
</trkpt>
<trkpt lat="48.938945" lon="8.668557">
<ele>300.0</ele>
<speed>4.7</speed>
<course>312.9</course>
<desc>Speed 4.7 km/h Distance 6.13 km</desc>
<time>2010-02-25T17:25:56.53</time>
<name>4123</name>
</trkpt>
<trkpt lat="48.938950" lon="8.668548">
<ele>300.5</ele>
<speed>1.8</speed>
<course>338.5</course>
<desc>Speed 1.8 km/h Distance 6.13 km</desc>
<time>2010-02-25T17:25:57.53</time>
<name>4124</name>
</trkpt>
<trkpt lat="48.938958" lon="8.668543">
<ele>299.0</ele>
<speed>2.5</speed>
<course>334.4</course>
<desc>Speed 2.5 km/h Distance 6.13 km</desc>
<time>2010-02-25T17:25:58.53</time>
<name>4125</name>
</trkpt>
<trkpt lat="48.938977" lon="8.668530">
<ele>297.5</ele>
<speed>6.3</speed>
<course>317.9</course>
<desc>Speed 6.3 km/h Distance 6.13 km</desc>
<time>2010-02-25T17:25:59.53</time>
<name>4126</name>
</trkpt>
<trkpt lat="48.938990" lon="8.668512">
<ele>298.0</ele>
<speed>4.6</speed>
<course>328.9</course>
<desc>Speed 4.6 km/h Distance 6.13 km</desc>
<time>2010-02-25T17:26:00.53</time>
<name>4127</name>
</trkpt>
<trkpt lat="48.939010" lon="8.668493">
<ele>298.0</ele>
<speed>5.4</speed>
<course>321.2</course>
<desc>Speed 5.4 km/h Distance 6.14 km</desc>
<time>2010-02-25T17:26:01.52</time>
<name>4128</name>
</trkpt>
<trkpt lat="48.939025" lon="8.668475">
<ele>296.0</ele>
<speed>4.7</speed>
<course>330.6</course>
<desc>Speed 4.7 km/h Distance 6.14 km</desc>
<time>2010-02-25T17:26:02.52</time>
<name>4129</name>
</trkpt>
<trkpt lat="48.939037" lon="8.668465">
<ele>296.5</ele>
<speed>4.5</speed>
<course>310.9</course>
<desc>Speed 4.5 km/h Distance 6.14 km</desc>
<time>2010-02-25T17:26:03.52</time>
<name>4130</name>
</trkpt>
<trkpt lat="48.939043" lon="8.668453">
<ele>297.5</ele>
<speed>3.6</speed>
<course>300.3</course>
<desc>Speed 3.6 km/h Distance 6.14 km</desc>
<time>2010-02-25T17:26:04.52</time>
<name>4131</name>
</trkpt>
<trkpt lat="48.939052" lon="8.668432">
<ele>299.0</ele>
<speed>5.1</speed>
<course>296.9</course>
<desc>Speed 5.1 km/h Distance 6.14 km</desc>
<time>2010-02-25T17:26:05.51</time>
<name>4132</name>
</trkpt>
<trkpt lat="48.939058" lon="8.668412">
<ele>299.0</ele>
<speed>4.1</speed>
<course>344.0</course>
<desc>Speed 4.1 km/h Distance 6.15 km</desc>
<time>2010-02-25T17:26:06.52</time>
<name>4133</name>
</trkpt>
<trkpt lat="48.939070" lon="8.668407">
<ele>298.5</ele>
<speed>4.9</speed>
<course>310.2</course>
<desc>Speed 4.9 km/h Distance 6.15 km</desc>
<time>2010-02-25T17:26:07.52</time>
<name>4134</name>
</trkpt>
<trkpt lat="48.939078" lon="8.668392">
<ele>298.0</ele>
<speed>3.2</speed>
<course>289.4</course>
<desc>Speed 3.2 km/h Distance 6.15 km</desc>
<time>2010-02-25T17:26:08.51</time>
<name>4135</name>
</trkpt>
<trkpt lat="48.939083" lon="8.668370">
<ele>296.5</ele>
<speed>2.7</speed>
<course>330.6</course>
<desc>Speed 2.7 km/h Distance 6.15 km</desc>
<time>2010-02-25T17:26:09.52</time>
<name>4136</name>
</trkpt>
<trkpt lat="48.939095" lon="8.668360">
<ele>297.0</ele>
<speed>3.3</speed>
<course>296.9</course>
<desc>Speed 3.3 km/h Distance 6.15 km</desc>
<time>2010-02-25T17:26:10.53</time>
<name>4137</name>
</trkpt>
<trkpt lat="48.939100" lon="8.668345">
<ele>297.5</ele>
<speed>3.5</speed>
<course>343.4</course>
<desc>Speed 3.5 km/h Distance 6.15 km</desc>
<time>2010-02-25T17:26:11.52</time>
<name>4138</name>
</trkpt>
<trkpt lat="48.939118" lon="8.668337">
<ele>294.5</ele>
<speed>4.0</speed>
<course>339.9</course>
<desc>Speed 4.0 km/h Distance 6.15 km</desc>
<time>2010-02-25T17:26:12.52</time>
<name>4139</name>
</trkpt>
<trkpt lat="48.939133" lon="8.668328">
<ele>295.0</ele>
<speed>4.8</speed>
<course>346.8</course>
<desc>Speed 4.8 km/h Distance 6.16 km</desc>
<time>2010-02-25T17:26:13.52</time>
<name>4140</name>
</trkpt>
<trkpt lat="48.939157" lon="8.668320">
<ele>292.5</ele>
<speed>4.1</speed>
<course>330.6</course>
<desc>Speed 4.1 km/h Distance 6.16 km</desc>
<time>2010-02-25T17:26:14.52</time>
<name>4141</name>
</trkpt>
<trkpt lat="48.939168" lon="8.668310">
<ele>291.5</ele>
<speed>4.6</speed>
<course>320.6</course>
<desc>Speed 4.6 km/h Distance 6.16 km</desc>
<time>2010-02-25T17:26:15.52</time>
<name>4142</name>
</trkpt>
<trkpt lat="48.939188" lon="8.668285">
<ele>296.5</ele>
<speed>4.6</speed>
<course>337.9</course>
<desc>Speed 4.6 km/h Distance 6.16 km</desc>
<time>2010-02-25T17:26:16.52</time>
<name>4143</name>
</trkpt>
<trkpt lat="48.939202" lon="8.668277">
<ele>295.5</ele>
<speed>3.9</speed>
<course>335.3</course>
<desc>Speed 3.9 km/h Distance 6.16 km</desc>
<time>2010-02-25T17:26:17.52</time>
<name>4144</name>
</trkpt>
<trkpt lat="48.939218" lon="8.668265">
<ele>294.0</ele>
<speed>4.1</speed>
<course>293.5</course>
<desc>Speed 4.1 km/h Distance 6.17 km</desc>
<time>2010-02-25T17:26:18.52</time>
<name>4145</name>
</trkpt>
<trkpt lat="48.939225" lon="8.668242">
<ele>293.0</ele>
<speed>3.9</speed>
<course>283.5</course>
<desc>Speed 3.9 km/h Distance 6.17 km</desc>
<time>2010-02-25T17:26:19.52</time>
<name>4146</name>
</trkpt>
<trkpt lat="48.939230" lon="8.668210">
<ele>294.0</ele>
<speed>3.7</speed>
<course>287.8</course>
<desc>Speed 3.7 km/h Distance 6.17 km</desc>
<time>2010-02-25T17:26:20.52</time>
<name>4147</name>
</trkpt>
<trkpt lat="48.939237" lon="8.668178">
<ele>294.0</ele>
<speed>3.9</speed>
<course>303.1</course>
<desc>Speed 3.9 km/h Distance 6.17 km</desc>
<time>2010-02-25T17:26:21.52</time>
<name>4148</name>
</trkpt>
<trkpt lat="48.939242" lon="8.668167">
<ele>294.0</ele>
<speed>2.5</speed>
<course>310.3</course>
<desc>Speed 2.5 km/h Distance 6.17 km</desc>
<time>2010-02-25T17:26:22.52</time>
<name>4149</name>
</trkpt>
<trkpt lat="48.939250" lon="8.668152">
<ele>293.5</ele>
<speed>3.7</speed>
<course>337.9</course>
<desc>Speed 3.7 km/h Distance 6.18 km</desc>
<time>2010-02-25T17:26:23.52</time>
<name>4150</name>
</trkpt>
<trkpt lat="48.939263" lon="8.668143">
<ele>294.0</ele>
<speed>4.4</speed>
<course>307.3</course>
<desc>Speed 4.4 km/h Distance 6.18 km</desc>
<time>2010-02-25T17:26:24.52</time>
<name>4151</name>
</trkpt>
<trkpt lat="48.939295" lon="8.668080">
<ele>301.0</ele>
<speed>5.3</speed>
<course>329.3</course>
<desc>Speed 5.3 km/h Distance 6.18 km</desc>
<time>2010-02-25T17:26:26.51</time>
<name>4152</name>
</trkpt>
<trkpt lat="48.939312" lon="8.668065">
<ele>299.5</ele>
<speed>4.7</speed>
<course>334.5</course>
<desc>Speed 4.7 km/h Distance 6.19 km</desc>
<time>2010-02-25T17:26:27.51</time>
<name>4153</name>
</trkpt>
<trkpt lat="48.939330" lon="8.668052">
<ele>299.0</ele>
<speed>4.7</speed>
<course>341.9</course>
<desc>Speed 4.7 km/h Distance 6.19 km</desc>
<time>2010-02-25T17:26:28.51</time>
<name>4154</name>
</trkpt>
<trkpt lat="48.939343" lon="8.668045">
<ele>298.0</ele>
<speed>3.4</speed>
<course>337.9</course>
<desc>Speed 3.4 km/h Distance 6.19 km</desc>
<time>2010-02-25T17:26:29.51</time>
<name>4155</name>
</trkpt>
<trkpt lat="48.939357" lon="8.668037">
<ele>297.0</ele>
<speed>2.9</speed>
<course>356.1</course>
<desc>Speed 2.9 km/h Distance 6.19 km</desc>
<time>2010-02-25T17:26:30.51</time>
<name>4156</name>
</trkpt>
<trkpt lat="48.939370" lon="8.668035">
<ele>297.0</ele>
<speed>4.1</speed>
<course>339.8</course>
<desc>Speed 4.1 km/h Distance 6.19 km</desc>
<time>2010-02-25T17:26:31.51</time>
<name>4157</name>
</trkpt>
<trkpt lat="48.939382" lon="8.668028">
<ele>295.5</ele>
<speed>3.1</speed>
<course>356.1</course>
<desc>Speed 3.1 km/h Distance 6.19 km</desc>
<time>2010-02-25T17:26:32.52</time>
<name>4158</name>
</trkpt>
<trkpt lat="48.939395" lon="8.668027">
<ele>293.5</ele>
<speed>2.8</speed>
<course>2.8</course>
<desc>Speed 2.8 km/h Distance 6.20 km</desc>
<time>2010-02-25T17:26:33.51</time>
<name>4159</name>
</trkpt>
<trkpt lat="48.939412" lon="8.668027">
<ele>291.5</ele>
<speed>2.6</speed>
<course>344.7</course>
<desc>Speed 2.6 km/h Distance 6.20 km</desc>
<time>2010-02-25T17:26:34.51</time>
<name>4160</name>
</trkpt>
<trkpt lat="48.939432" lon="8.668018">
<ele>289.0</ele>
<speed>3.3</speed>
<course>320.6</course>
<desc>Speed 3.3 km/h Distance 6.20 km</desc>
<time>2010-02-25T17:26:35.51</time>
<name>4161</name>
</trkpt>
<trkpt lat="48.939445" lon="8.668002">
<ele>290.0</ele>
<speed>5.7</speed>
<course>344.0</course>
<desc>Speed 5.7 km/h Distance 6.20 km</desc>
<time>2010-02-25T17:26:36.51</time>
<name>4162</name>
</trkpt>
<trkpt lat="48.939460" lon="8.667995">
<ele>289.0</ele>
<speed>4.4</speed>
<course>320.6</course>
<desc>Speed 4.4 km/h Distance 6.20 km</desc>
<time>2010-02-25T17:26:37.51</time>
<name>4163</name>
</trkpt>
<trkpt lat="48.939467" lon="8.667987">
<ele>288.0</ele>
<speed>1.5</speed>
<course>348.4</course>
<desc>Speed 1.5 km/h Distance 6.20 km</desc>
<time>2010-02-25T17:26:38.51</time>
<name>4164</name>
</trkpt>
<trkpt lat="48.939477" lon="8.667983">
<ele>287.5</ele>
<speed>0.4</speed>
<course>299.8</course>
<desc>Speed 0.4 km/h Distance 6.21 km</desc>
<time>2010-02-25T17:26:39.51</time>
<name>4165</name>
</trkpt>
<trkpt lat="48.939482" lon="8.667970">
<ele>286.5</ele>
<speed>1.3</speed>
<course>295.4</course>
<desc>Speed 1.3 km/h Distance 6.21 km</desc>
<time>2010-02-25T17:26:40.51</time>
<name>4166</name>
</trkpt>
<trkpt lat="48.939490" lon="8.667943">
<ele>287.5</ele>
<speed>3.3</speed>
<course>333.0</course>
<desc>Speed 3.3 km/h Distance 6.21 km</desc>
<time>2010-02-25T17:26:41.50</time>
<name>4167</name>
</trkpt>
<trkpt lat="48.939505" lon="8.667932">
<ele>286.0</ele>
<speed>2.3</speed>
<course>343.7</course>
<desc>Speed 2.3 km/h Distance 6.21 km</desc>
<time>2010-02-25T17:26:42.51</time>
<name>4168</name>
</trkpt>
<trkpt lat="48.939520" lon="8.667925">
<ele>285.0</ele>
<speed>3.0</speed>
<course>325.9</course>
<desc>Speed 3.0 km/h Distance 6.21 km</desc>
<time>2010-02-25T17:26:43.51</time>
<name>4169</name>
</trkpt>
<trkpt lat="48.939572" lon="8.667872">
<ele>295.0</ele>
<speed>4.4</speed>
<course>315.5</course>
<desc>Speed 4.4 km/h Distance 6.22 km</desc>
<time>2010-02-25T17:26:45.51</time>
<name>4170</name>
</trkpt>
<trkpt lat="48.939582" lon="8.667857">
<ele>295.5</ele>
<speed>5.4</speed>
<course>345.1</course>
<desc>Speed 5.4 km/h Distance 6.22 km</desc>
<time>2010-02-25T17:26:46.51</time>
<name>4171</name>
</trkpt>
<trkpt lat="48.939598" lon="8.667850">
<ele>294.5</ele>
<speed>5.1</speed>
<course>323.4</course>
<desc>Speed 5.1 km/h Distance 6.22 km</desc>
<time>2010-02-25T17:26:47.51</time>
<name>4172</name>
</trkpt>
<trkpt lat="48.939612" lon="8.667835">
<ele>294.5</ele>
<speed>4.8</speed>
<course>304.7</course>
<desc>Speed 4.8 km/h Distance 6.22 km</desc>
<time>2010-02-25T17:26:48.51</time>
<name>4173</name>
</trkpt>
<trkpt lat="48.939628" lon="8.667798">
<ele>303.0</ele>
<speed>4.3</speed>
<course>309.7</course>
<desc>Speed 4.3 km/h Distance 6.23 km</desc>
<time>2010-02-25T17:26:49.51</time>
<name>4174</name>
</trkpt>
<trkpt lat="48.939638" lon="8.667780">
<ele>305.0</ele>
<speed>4.8</speed>
<course>305.4</course>
<desc>Speed 4.8 km/h Distance 6.23 km</desc>
<time>2010-02-25T17:26:50.51</time>
<name>4175</name>
</trkpt>
<trkpt lat="48.939650" lon="8.667755">
<ele>307.0</ele>
<speed>5.3</speed>
<course>281.4</course>
<desc>Speed 5.3 km/h Distance 6.23 km</desc>
<time>2010-02-25T17:26:51.51</time>
<name>4176</name>
</trkpt>
<trkpt lat="48.939662" lon="8.667667">
<ele>311.5</ele>
<speed>4.9</speed>
<course>295.4</course>
<desc>Speed 4.9 km/h Distance 6.24 km</desc>
<time>2010-02-25T17:26:53.51</time>
<name>4177</name>
</trkpt>
<trkpt lat="48.939670" lon="8.667640">
<ele>311.0</ele>
<speed>4.4</speed>
<course>289.9</course>
<desc>Speed 4.4 km/h Distance 6.24 km</desc>
<time>2010-02-25T17:26:54.51</time>
<name>4178</name>
</trkpt>
<trkpt lat="48.939678" lon="8.667605">
<ele>311.0</ele>
<speed>4.4</speed>
<course>305.6</course>
<desc>Speed 4.4 km/h Distance 6.24 km</desc>
<time>2010-02-25T17:26:55.51</time>
<name>4179</name>
</trkpt>
<trkpt lat="48.939692" lon="8.667577">
<ele>309.5</ele>
<speed>4.8</speed>
<course>319.9</course>
<desc>Speed 4.8 km/h Distance 6.25 km</desc>
<time>2010-02-25T17:26:56.51</time>
<name>4180</name>
</trkpt>
<trkpt lat="48.939703" lon="8.667562">
<ele>310.5</ele>
<speed>4.9</speed>
<course>334.8</course>
<desc>Speed 4.9 km/h Distance 6.25 km</desc>
<time>2010-02-25T17:26:57.51</time>
<name>4181</name>
</trkpt>
<trkpt lat="48.939715" lon="8.667553">
<ele>310.5</ele>
<speed>3.8</speed>
<course>323.4</course>
<desc>Speed 3.8 km/h Distance 6.25 km</desc>
<time>2010-02-25T17:26:58.50</time>
<name>4182</name>
</trkpt>
<trkpt lat="48.939728" lon="8.667538">
<ele>310.0</ele>
<speed>5.0</speed>
<course>326.7</course>
<desc>Speed 5.0 km/h Distance 6.25 km</desc>
<time>2010-02-25T17:26:59.50</time>
<name>4183</name>
</trkpt>
<trkpt lat="48.939742" lon="8.667525">
<ele>310.0</ele>
<speed>4.4</speed>
<course>323.5</course>
<desc>Speed 4.4 km/h Distance 6.25 km</desc>
<time>2010-02-25T17:27:00.50</time>
<name>4184</name>
</trkpt>
<trkpt lat="48.939755" lon="8.667510">
<ele>311.5</ele>
<speed>4.4</speed>
<course>302.4</course>
<desc>Speed 4.4 km/h Distance 6.25 km</desc>
<time>2010-02-25T17:27:01.50</time>
<name>4185</name>
</trkpt>
<trkpt lat="48.939763" lon="8.667490">
<ele>312.5</ele>
<speed>5.7</speed>
<course>326.6</course>
<desc>Speed 5.7 km/h Distance 6.26 km</desc>
<time>2010-02-25T17:27:02.50</time>
<name>4186</name>
</trkpt>
<trkpt lat="48.939777" lon="8.667477">
<ele>312.0</ele>
<speed>4.7</speed>
<course>330.6</course>
<desc>Speed 4.7 km/h Distance 6.26 km</desc>
<time>2010-02-25T17:27:03.50</time>
<name>4187</name>
</trkpt>
<trkpt lat="48.939788" lon="8.667467">
<ele>311.5</ele>
<speed>4.0</speed>
<course>304.0</course>
<desc>Speed 4.0 km/h Distance 6.26 km</desc>
<time>2010-02-25T17:27:04.50</time>
<name>4188</name>
</trkpt>
<trkpt lat="48.939795" lon="8.667452">
<ele>310.5</ele>
<speed>3.0</speed>
<course>307.3</course>
<desc>Speed 3.0 km/h Distance 6.26 km</desc>
<time>2010-02-25T17:27:05.51</time>
<name>4189</name>
</trkpt>
<trkpt lat="48.939803" lon="8.667435">
<ele>309.0</ele>
<speed>4.0</speed>
<course>326.6</course>
<desc>Speed 4.0 km/h Distance 6.26 km</desc>
<time>2010-02-25T17:27:06.50</time>
<name>4190</name>
</trkpt>
<trkpt lat="48.939813" lon="8.667425">
<ele>307.5</ele>
<speed>4.2</speed>
<course>303.1</course>
<desc>Speed 4.2 km/h Distance 6.26 km</desc>
<time>2010-02-25T17:27:07.50</time>
<name>4191</name>
</trkpt>
<trkpt lat="48.939823" lon="8.667402">
<ele>305.5</ele>
<speed>3.7</speed>
<course>349.8</course>
<desc>Speed 3.7 km/h Distance 6.27 km</desc>
<time>2010-02-25T17:27:08.49</time>
<name>4192</name>
</trkpt>
<trkpt lat="48.939842" lon="8.667397">
<ele>304.0</ele>
<speed>4.4</speed>
<course>339.1</course>
<desc>Speed 4.4 km/h Distance 6.27 km</desc>
<time>2010-02-25T17:27:09.50</time>
<name>4193</name>
</trkpt>
<trkpt lat="48.939853" lon="8.667390">
<ele>303.0</ele>
<speed>2.8</speed>
<course>343.4</course>
<desc>Speed 2.8 km/h Distance 6.27 km</desc>
<time>2010-02-25T17:27:10.51</time>
<name>4194</name>
</trkpt>
<trkpt lat="48.939868" lon="8.667383">
<ele>301.0</ele>
<speed>3.7</speed>
<course>340.3</course>
<desc>Speed 3.7 km/h Distance 6.27 km</desc>
<time>2010-02-25T17:27:11.50</time>
<name>4195</name>
</trkpt>
<trkpt lat="48.939887" lon="8.667373">
<ele>299.0</ele>
<speed>4.2</speed>
<course>322.5</course>
<desc>Speed 4.2 km/h Distance 6.27 km</desc>
<time>2010-02-25T17:27:12.50</time>
<name>4196</name>
</trkpt>
<trkpt lat="48.939897" lon="8.667362">
<ele>299.5</ele>
<speed>4.4</speed>
<course>337.4</course>
<desc>Speed 4.4 km/h Distance 6.27 km</desc>
<time>2010-02-25T17:27:13.50</time>
<name>4197</name>
</trkpt>
<trkpt lat="48.939910" lon="8.667353">
<ele>299.0</ele>
<speed>3.9</speed>
<course>0.0</course>
<desc>Speed 3.9 km/h Distance 6.28 km</desc>
<time>2010-02-25T17:27:14.50</time>
<name>4198</name>
</trkpt>
<trkpt lat="48.939918" lon="8.667353">
<ele>298.5</ele>
<speed>2.9</speed>
<course>326.7</course>
<desc>Speed 2.9 km/h Distance 6.28 km</desc>
<time>2010-02-25T17:27:15.50</time>
<name>4199</name>
</trkpt>
<trkpt lat="48.939932" lon="8.667340">
<ele>300.0</ele>
<speed>4.6</speed>
<course>333.8</course>
<desc>Speed 4.6 km/h Distance 6.28 km</desc>
<time>2010-02-25T17:27:16.50</time>
<name>4200</name>
</trkpt>
<trkpt lat="48.939945" lon="8.667330">
<ele>299.5</ele>
<speed>5.0</speed>
<course>329.1</course>
<desc>Speed 5.0 km/h Distance 6.28 km</desc>
<time>2010-02-25T17:27:17.51</time>
<name>4201</name>
</trkpt>
<trkpt lat="48.939963" lon="8.667313">
<ele>298.0</ele>
<speed>5.1</speed>
<course>330.2</course>
<desc>Speed 5.1 km/h Distance 6.28 km</desc>
<time>2010-02-25T17:27:18.50</time>
<name>4202</name>
</trkpt>
<trkpt lat="48.939977" lon="8.667302">
<ele>297.5</ele>
<speed>4.2</speed>
<course>323.0</course>
<desc>Speed 4.2 km/h Distance 6.28 km</desc>
<time>2010-02-25T17:27:19.50</time>
<name>4203</name>
</trkpt>
<trkpt lat="48.939988" lon="8.667288">
<ele>297.5</ele>
<speed>3.8</speed>
<course>326.5</course>
<desc>Speed 3.8 km/h Distance 6.29 km</desc>
<time>2010-02-25T17:27:20.50</time>
<name>4204</name>
</trkpt>
<trkpt lat="48.940003" lon="8.667273">
<ele>297.5</ele>
<speed>3.7</speed>
<course>321.6</course>
<desc>Speed 3.7 km/h Distance 6.29 km</desc>
<time>2010-02-25T17:27:21.50</time>
<name>4205</name>
</trkpt>
<trkpt lat="48.940012" lon="8.667263">
<ele>299.0</ele>
<speed>4.1</speed>
<course>289.7</course>
<desc>Speed 4.1 km/h Distance 6.29 km</desc>
<time>2010-02-25T17:27:22.50</time>
<name>4206</name>
</trkpt>
<trkpt lat="48.940018" lon="8.667235">
<ele>299.0</ele>
<speed>3.1</speed>
<course>334.6</course>
<desc>Speed 3.1 km/h Distance 6.29 km</desc>
<time>2010-02-25T17:27:23.50</time>
<name>4207</name>
</trkpt>
<trkpt lat="48.940030" lon="8.667227">
<ele>299.0</ele>
<speed>4.0</speed>
<course>315.5</course>
<desc>Speed 4.0 km/h Distance 6.29 km</desc>
<time>2010-02-25T17:27:24.50</time>
<name>4208</name>
</trkpt>
<trkpt lat="48.940043" lon="8.667207">
<ele>299.5</ele>
<speed>5.2</speed>
<course>333.1</course>
<desc>Speed 5.2 km/h Distance 6.29 km</desc>
<time>2010-02-25T17:27:25.50</time>
<name>4209</name>
</trkpt>
<trkpt lat="48.940058" lon="8.667195">
<ele>300.0</ele>
<speed>4.6</speed>
<course>315.5</course>
<desc>Speed 4.6 km/h Distance 6.30 km</desc>
<time>2010-02-25T17:27:26.50</time>
<name>4210</name>
</trkpt>
<trkpt lat="48.940065" lon="8.667185">
<ele>299.5</ele>
<speed>3.3</speed>
<course>317.8</course>
<desc>Speed 3.3 km/h Distance 6.30 km</desc>
<time>2010-02-25T17:27:27.50</time>
<name>4211</name>
</trkpt>
<trkpt lat="48.940078" lon="8.667167">
<ele>299.5</ele>
<speed>4.0</speed>
<course>339.8</course>
<desc>Speed 4.0 km/h Distance 6.30 km</desc>
<time>2010-02-25T17:27:28.50</time>
<name>4212</name>
</trkpt>
<trkpt lat="48.940090" lon="8.667160">
<ele>299.5</ele>
<speed>4.0</speed>
<course>337.9</course>
<desc>Speed 4.0 km/h Distance 6.30 km</desc>
<time>2010-02-25T17:27:29.50</time>
<name>4213</name>
</trkpt>
<trkpt lat="48.940103" lon="8.667152">
<ele>299.5</ele>
<speed>4.5</speed>
<course>299.7</course>
<desc>Speed 4.5 km/h Distance 6.30 km</desc>
<time>2010-02-25T17:27:30.49</time>
<name>4214</name>
</trkpt>
<trkpt lat="48.940113" lon="8.667125">
<ele>301.5</ele>
<speed>5.3</speed>
<course>326.8</course>
<desc>Speed 5.3 km/h Distance 6.31 km</desc>
<time>2010-02-25T17:27:31.49</time>
<name>4215</name>
</trkpt>
<trkpt lat="48.940122" lon="8.667117">
<ele>301.5</ele>
<speed>3.7</speed>
<course>332.1</course>
<desc>Speed 3.7 km/h Distance 6.31 km</desc>
<time>2010-02-25T17:27:32.50</time>
<name>4216</name>
</trkpt>
<trkpt lat="48.940130" lon="8.667110">
<ele>300.5</ele>
<speed>3.0</speed>
<course>333.6</course>
<desc>Speed 3.0 km/h Distance 6.31 km</desc>
<time>2010-02-25T17:27:33.49</time>
<name>4217</name>
</trkpt>
<trkpt lat="48.940137" lon="8.667105">
<ele>299.5</ele>
<speed>2.7</speed>
<course>347.4</course>
<desc>Speed 2.7 km/h Distance 6.31 km</desc>
<time>2010-02-25T17:27:34.49</time>
<name>4218</name>
</trkpt>
<trkpt lat="48.940147" lon="8.667102">
<ele>299.0</ele>
<speed>3.4</speed>
<course>346.2</course>
<desc>Speed 3.4 km/h Distance 6.31 km</desc>
<time>2010-02-25T17:27:35.49</time>
<name>4219</name>
</trkpt>
<trkpt lat="48.940155" lon="8.667098">
<ele>298.0</ele>
<speed>2.7</speed>
<course>332.1</course>
<desc>Speed 2.7 km/h Distance 6.31 km</desc>
<time>2010-02-25T17:27:36.50</time>
<name>4220</name>
</trkpt>
<trkpt lat="48.940163" lon="8.667092">
<ele>297.5</ele>
<speed>3.7</speed>
<course>340.3</course>
<desc>Speed 3.7 km/h Distance 6.31 km</desc>
<time>2010-02-25T17:27:37.50</time>
<name>4221</name>
</trkpt>
<trkpt lat="48.940182" lon="8.667082">
<ele>299.5</ele>
<speed>4.0</speed>
<course>304.7</course>
<desc>Speed 4.0 km/h Distance 6.31 km</desc>
<time>2010-02-25T17:27:38.50</time>
<name>4222</name>
</trkpt>
<trkpt lat="48.940190" lon="8.667063">
<ele>299.0</ele>
<speed>4.9</speed>
<course>7.0</course>
<desc>Speed 4.9 km/h Distance 6.32 km</desc>
<time>2010-02-25T17:27:39.50</time>
<name>4223</name>
</trkpt>
<trkpt lat="48.940208" lon="8.667067">
<ele>297.5</ele>
<speed>3.6</speed>
<course>321.2</course>
<desc>Speed 3.6 km/h Distance 6.32 km</desc>
<time>2010-02-25T17:27:40.50</time>
<name>4224</name>
</trkpt>
<trkpt lat="48.940223" lon="8.667048">
<ele>297.0</ele>
<speed>3.7</speed>
<course>292.9</course>
<desc>Speed 3.7 km/h Distance 6.32 km</desc>
<time>2010-02-25T17:27:41.50</time>
<name>4225</name>
</trkpt>
<trkpt lat="48.940232" lon="8.667018">
<ele>301.0</ele>
<speed>4.9</speed>
<course>303.7</course>
<desc>Speed 4.9 km/h Distance 6.32 km</desc>
<time>2010-02-25T17:27:42.49</time>
<name>4226</name>
</trkpt>
<trkpt lat="48.940243" lon="8.666992">
<ele>305.0</ele>
<speed>3.7</speed>
<course>286.3</course>
<desc>Speed 3.7 km/h Distance 6.32 km</desc>
<time>2010-02-25T17:27:43.50</time>
<name>4227</name>
</trkpt>
<trkpt lat="48.940260" lon="8.666905">
<ele>305.0</ele>
<speed>3.9</speed>
<course>341.8</course>
<desc>Speed 3.9 km/h Distance 6.33 km</desc>
<time>2010-02-25T17:27:45.49</time>
<name>4228</name>
</trkpt>
<trkpt lat="48.940280" lon="8.666895">
<ele>303.5</ele>
<speed>4.4</speed>
<course>346.4</course>
<desc>Speed 4.4 km/h Distance 6.33 km</desc>
<time>2010-02-25T17:27:46.49</time>
<name>4229</name>
</trkpt>
<trkpt lat="48.940298" lon="8.666888">
<ele>303.0</ele>
<speed>4.0</speed>
<course>309.6</course>
<desc>Speed 4.0 km/h Distance 6.33 km</desc>
<time>2010-02-25T17:27:47.49</time>
<name>4230</name>
</trkpt>
<trkpt lat="48.940330" lon="8.666830">
<ele>301.5</ele>
<speed>4.2</speed>
<course>276.4</course>
<desc>Speed 4.2 km/h Distance 6.34 km</desc>
<time>2010-02-25T17:27:49.49</time>
<name>4231</name>
</trkpt>
<trkpt lat="48.940337" lon="8.666740">
<ele>307.0</ele>
<speed>4.2</speed>
<course>336.6</course>
<desc>Speed 4.2 km/h Distance 6.35 km</desc>
<time>2010-02-25T17:27:51.49</time>
<name>4232</name>
</trkpt>
<trkpt lat="48.940347" lon="8.666733">
<ele>305.0</ele>
<speed>3.4</speed>
<course>2.8</course>
<desc>Speed 3.4 km/h Distance 6.35 km</desc>
<time>2010-02-25T17:27:52.49</time>
<name>4233</name>
</trkpt>
<trkpt lat="48.940363" lon="8.666733">
<ele>303.0</ele>
<speed>4.9</speed>
<course>331.4</course>
<desc>Speed 4.9 km/h Distance 6.35 km</desc>
<time>2010-02-25T17:27:53.49</time>
<name>4234</name>
</trkpt>
<trkpt lat="48.940373" lon="8.666725">
<ele>302.5</ele>
<speed>4.5</speed>
<course>322.5</course>
<desc>Speed 4.5 km/h Distance 6.35 km</desc>
<time>2010-02-25T17:27:54.49</time>
<name>4235</name>
</trkpt>
<trkpt lat="48.940383" lon="8.666713">
<ele>303.5</ele>
<speed>4.1</speed>
<course>285.0</course>
<desc>Speed 4.1 km/h Distance 6.35 km</desc>
<time>2010-02-25T17:27:55.49</time>
<name>4236</name>
</trkpt>
<trkpt lat="48.940388" lon="8.666685">
<ele>305.5</ele>
<speed>5.4</speed>
<course>298.5</course>
<desc>Speed 5.4 km/h Distance 6.36 km</desc>
<time>2010-02-25T17:27:56.49</time>
<name>4237</name>
</trkpt>
<trkpt lat="48.940397" lon="8.666662">
<ele>307.5</ele>
<speed>4.4</speed>
<course>344.0</course>
<desc>Speed 4.4 km/h Distance 6.36 km</desc>
<time>2010-02-25T17:27:57.49</time>
<name>4238</name>
</trkpt>
<trkpt lat="48.940408" lon="8.666657">
<ele>307.0</ele>
<speed>3.9</speed>
<course>319.5</course>
<desc>Speed 3.9 km/h Distance 6.36 km</desc>
<time>2010-02-25T17:27:58.49</time>
<name>4239</name>
</trkpt>
<trkpt lat="48.940425" lon="8.666635">
<ele>310.5</ele>
<speed>4.4</speed>
<course>356.3</course>
<desc>Speed 4.4 km/h Distance 6.36 km</desc>
<time>2010-02-25T17:27:59.49</time>
<name>4240</name>
</trkpt>
<trkpt lat="48.940443" lon="8.666633">
<ele>308.0</ele>
<speed>4.6</speed>
<course>323.1</course>
<desc>Speed 4.6 km/h Distance 6.36 km</desc>
<time>2010-02-25T17:28:00.49</time>
<name>4241</name>
</trkpt>
<trkpt lat="48.940455" lon="8.666620">
<ele>307.5</ele>
<speed>4.4</speed>
<course>312.4</course>
<desc>Speed 4.4 km/h Distance 6.36 km</desc>
<time>2010-02-25T17:28:01.48</time>
<name>4242</name>
</trkpt>
<trkpt lat="48.940465" lon="8.666603">
<ele>309.0</ele>
<speed>4.2</speed>
<course>312.4</course>
<desc>Speed 4.2 km/h Distance 6.37 km</desc>
<time>2010-02-25T17:28:02.49</time>
<name>4243</name>
</trkpt>
<trkpt lat="48.940475" lon="8.666587">
<ele>309.5</ele>
<speed>5.2</speed>
<course>315.5</course>
<desc>Speed 5.2 km/h Distance 6.37 km</desc>
<time>2010-02-25T17:28:03.49</time>
<name>4244</name>
</trkpt>
<trkpt lat="48.940482" lon="8.666577">
<ele>310.0</ele>
<speed>3.2</speed>
<course>296.9</course>
<desc>Speed 3.2 km/h Distance 6.37 km</desc>
<time>2010-02-25T17:28:04.48</time>
<name>4245</name>
</trkpt>
<trkpt lat="48.940488" lon="8.666557">
<ele>310.5</ele>
<speed>3.1</speed>
<course>354.7</course>
<desc>Speed 3.1 km/h Distance 6.37 km</desc>
<time>2010-02-25T17:28:05.49</time>
<name>4246</name>
</trkpt>
<trkpt lat="48.940502" lon="8.666555">
<ele>309.0</ele>
<speed>2.6</speed>
<course>329.6</course>
<desc>Speed 2.6 km/h Distance 6.37 km</desc>
<time>2010-02-25T17:28:06.49</time>
<name>4247</name>
</trkpt>
<trkpt lat="48.940517" lon="8.666542">
<ele>309.0</ele>
<speed>3.7</speed>
<course>313.5</course>
<desc>Speed 3.7 km/h Distance 6.37 km</desc>
<time>2010-02-25T17:28:07.48</time>
<name>4248</name>
</trkpt>
<trkpt lat="48.940525" lon="8.666528">
<ele>309.5</ele>
<speed>4.2</speed>
<course>275.8</course>
<desc>Speed 4.2 km/h Distance 6.38 km</desc>
<time>2010-02-25T17:28:08.48</time>
<name>4249</name>
</trkpt>
<trkpt lat="48.940527" lon="8.666503">
<ele>311.0</ele>
<speed>5.1</speed>
<course>326.8</course>
<desc>Speed 5.1 km/h Distance 6.38 km</desc>
<time>2010-02-25T17:28:09.48</time>
<name>4250</name>
</trkpt>
<trkpt lat="48.940535" lon="8.666495">
<ele>310.0</ele>
<speed>2.8</speed>
<course>296.9</course>
<desc>Speed 2.8 km/h Distance 6.38 km</desc>
<time>2010-02-25T17:28:10.49</time>
<name>4251</name>
</trkpt>
<trkpt lat="48.940542" lon="8.666475">
<ele>311.0</ele>
<speed>3.8</speed>
<course>318.0</course>
<desc>Speed 3.8 km/h Distance 6.38 km</desc>
<time>2010-02-25T17:28:11.48</time>
<name>4252</name>
</trkpt>
<trkpt lat="48.940555" lon="8.666457">
<ele>314.0</ele>
<speed>4.4</speed>
<course>315.5</course>
<desc>Speed 4.4 km/h Distance 6.38 km</desc>
<time>2010-02-25T17:28:12.48</time>
<name>4253</name>
</trkpt>
<trkpt lat="48.940568" lon="8.666437">
<ele>317.0</ele>
<speed>4.2</speed>
<course>345.1</course>
<desc>Speed 4.2 km/h Distance 6.38 km</desc>
<time>2010-02-25T17:28:13.48</time>
<name>4254</name>
</trkpt>
<trkpt lat="48.940585" lon="8.666430">
<ele>315.5</ele>
<speed>4.4</speed>
<course>340.1</course>
<desc>Speed 4.4 km/h Distance 6.39 km</desc>
<time>2010-02-25T17:28:14.48</time>
<name>4255</name>
</trkpt>
<trkpt lat="48.940600" lon="8.666422">
<ele>314.0</ele>
<speed>3.6</speed>
<course>336.3</course>
<desc>Speed 3.6 km/h Distance 6.39 km</desc>
<time>2010-02-25T17:28:15.48</time>
<name>4256</name>
</trkpt>
<trkpt lat="48.940615" lon="8.666412">
<ele>313.5</ele>
<speed>3.5</speed>
<course>303.1</course>
<desc>Speed 3.5 km/h Distance 6.39 km</desc>
<time>2010-02-25T17:28:16.48</time>
<name>4257</name>
</trkpt>
<trkpt lat="48.940620" lon="8.666400">
<ele>313.0</ele>
<speed>3.0</speed>
<course>321.9</course>
<desc>Speed 3.0 km/h Distance 6.39 km</desc>
<time>2010-02-25T17:28:17.47</time>
<name>4258</name>
</trkpt>
<trkpt lat="48.940628" lon="8.666390">
<ele>312.0</ele>
<speed>3.4</speed>
<course>305.4</course>
<desc>Speed 3.4 km/h Distance 6.39 km</desc>
<time>2010-02-25T17:28:18.48</time>
<name>4259</name>
</trkpt>
<trkpt lat="48.940640" lon="8.666365">
<ele>311.5</ele>
<speed>6.4</speed>
<course>336.3</course>
<desc>Speed 6.4 km/h Distance 6.39 km</desc>
<time>2010-02-25T17:28:19.48</time>
<name>4260</name>
</trkpt>
<trkpt lat="48.940655" lon="8.666355">
<ele>310.5</ele>
<speed>5.2</speed>
<course>267.9</course>
<desc>Speed 5.2 km/h Distance 6.40 km</desc>
<time>2010-02-25T17:28:20.48</time>
<name>4261</name>
</trkpt>
<trkpt lat="48.940652" lon="8.666217">
<ele>320.5</ele>
<speed>3.3</speed>
<course>335.1</course>
<desc>Speed 3.3 km/h Distance 6.41 km</desc>
<time>2010-02-25T17:28:22.48</time>
<name>4262</name>
</trkpt>
<trkpt lat="48.940663" lon="8.666208">
<ele>319.5</ele>
<speed>3.6</speed>
<course>332.8</course>
<desc>Speed 3.6 km/h Distance 6.41 km</desc>
<time>2010-02-25T17:28:23.48</time>
<name>4263</name>
</trkpt>
<trkpt lat="48.940678" lon="8.666197">
<ele>318.0</ele>
<speed>5.0</speed>
<course>280.0</course>
<desc>Speed 5.0 km/h Distance 6.41 km</desc>
<time>2010-02-25T17:28:24.48</time>
<name>4264</name>
</trkpt>
<trkpt lat="48.940688" lon="8.666110">
<ele>324.0</ele>
<speed>4.7</speed>
<course>337.9</course>
<desc>Speed 4.7 km/h Distance 6.42 km</desc>
<time>2010-02-25T17:28:26.47</time>
<name>4265</name>
</trkpt>
<trkpt lat="48.940702" lon="8.666102">
<ele>324.5</ele>
<speed>4.5</speed>
<course>326.7</course>
<desc>Speed 4.5 km/h Distance 6.42 km</desc>
<time>2010-02-25T17:28:27.47</time>
<name>4266</name>
</trkpt>
<trkpt lat="48.940713" lon="8.666090">
<ele>326.0</ele>
<speed>4.2</speed>
<course>341.9</course>
<desc>Speed 4.2 km/h Distance 6.42 km</desc>
<time>2010-02-25T17:28:28.47</time>
<name>4267</name>
</trkpt>
<trkpt lat="48.940727" lon="8.666083">
<ele>325.0</ele>
<speed>4.5</speed>
<course>341.8</course>
<desc>Speed 4.5 km/h Distance 6.42 km</desc>
<time>2010-02-25T17:28:29.48</time>
<name>4268</name>
</trkpt>
<trkpt lat="48.940737" lon="8.666078">
<ele>324.0</ele>
<speed>2.7</speed>
<course>341.2</course>
<desc>Speed 2.7 km/h Distance 6.42 km</desc>
<time>2010-02-25T17:28:30.48</time>
<name>4269</name>
</trkpt>
<trkpt lat="48.940750" lon="8.666072">
<ele>323.5</ele>
<speed>3.0</speed>
<course>325.8</course>
<desc>Speed 3.0 km/h Distance 6.42 km</desc>
<time>2010-02-25T17:28:31.47</time>
<name>4270</name>
</trkpt>
<trkpt lat="48.940798" lon="8.666022">
<ele>320.5</ele>
<speed>4.0</speed>
<course>345.8</course>
<desc>Speed 4.0 km/h Distance 6.43 km</desc>
<time>2010-02-25T17:28:33.48</time>
<name>4271</name>
</trkpt>
<trkpt lat="48.940820" lon="8.666013">
<ele>318.5</ele>
<speed>5.7</speed>
<course>282.9</course>
<desc>Speed 5.7 km/h Distance 6.43 km</desc>
<time>2010-02-25T17:28:34.48</time>
<name>4272</name>
</trkpt>
<trkpt lat="48.940825" lon="8.665980">
<ele>322.0</ele>
<speed>4.5</speed>
<course>349.8</course>
<desc>Speed 4.5 km/h Distance 6.43 km</desc>
<time>2010-02-25T17:28:35.47</time>
<name>4273</name>
</trkpt>
<trkpt lat="48.940843" lon="8.665975">
<ele>321.0</ele>
<speed>6.6</speed>
<course>337.7</course>
<desc>Speed 6.6 km/h Distance 6.44 km</desc>
<time>2010-02-25T17:28:36.47</time>
<name>4274</name>
</trkpt>
<trkpt lat="48.940857" lon="8.665967">
<ele>321.0</ele>
<speed>4.3</speed>
<course>0.0</course>
<desc>Speed 4.3 km/h Distance 6.44 km</desc>
<time>2010-02-25T17:28:37.47</time>
<name>4275</name>
</trkpt>
<trkpt lat="48.940867" lon="8.665967">
<ele>321.5</ele>
<speed>5.2</speed>
<course>352.6</course>
<desc>Speed 5.2 km/h Distance 6.44 km</desc>
<time>2010-02-25T17:28:38.47</time>
<name>4276</name>
</trkpt>
<trkpt lat="48.940873" lon="8.665965">
<ele>323.0</ele>
<speed>4.5</speed>
<course>4.7</course>
<desc>Speed 4.5 km/h Distance 6.44 km</desc>
<time>2010-02-25T17:28:39.47</time>
<name>4277</name>
</trkpt>
<trkpt lat="48.940885" lon="8.665967">
<ele>323.0</ele>
<speed>5.2</speed>
<course>12.6</course>
<desc>Speed 5.2 km/h Distance 6.44 km</desc>
<time>2010-02-25T17:28:40.47</time>
<name>4278</name>
</trkpt>
<trkpt lat="48.940895" lon="8.665970">
<ele>323.5</ele>
<speed>4.5</speed>
<course>20.9</course>
<desc>Speed 4.5 km/h Distance 6.44 km</desc>
<time>2010-02-25T17:28:41.46</time>
<name>4279</name>
</trkpt>
<trkpt lat="48.940907" lon="8.665977">
<ele>324.0</ele>
<speed>5.0</speed>
<course>21.5</course>
<desc>Speed 5.0 km/h Distance 6.44 km</desc>
<time>2010-02-25T17:28:42.47</time>
<name>4280</name>
</trkpt>
<trkpt lat="48.940915" lon="8.665982">
<ele>324.5</ele>
<speed>4.1</speed>
<course>27.9</course>
<desc>Speed 4.1 km/h Distance 6.44 km</desc>
<time>2010-02-25T17:28:43.47</time>
<name>4281</name>
</trkpt>
<trkpt lat="48.940923" lon="8.665988">
<ele>324.5</ele>
<speed>4.1</speed>
<course>25.4</course>
<desc>Speed 4.1 km/h Distance 6.45 km</desc>
<time>2010-02-25T17:28:44.47</time>
<name>4282</name>
</trkpt>
<trkpt lat="48.940928" lon="8.665992">
<ele>324.5</ele>
<speed>3.5</speed>
<course>38.4</course>
<desc>Speed 3.5 km/h Distance 6.45 km</desc>
<time>2010-02-25T17:28:45.47</time>
<name>4283</name>
</trkpt>
<trkpt lat="48.940937" lon="8.666002">
<ele>325.0</ele>
<speed>4.7</speed>
<course>33.8</course>
<desc>Speed 4.7 km/h Distance 6.45 km</desc>
<time>2010-02-25T17:28:46.47</time>
<name>4284</name>
</trkpt>
<trkpt lat="48.940945" lon="8.666010">
<ele>325.0</ele>
<speed>5.1</speed>
<course>33.7</course>
<desc>Speed 5.1 km/h Distance 6.45 km</desc>
<time>2010-02-25T17:28:47.46</time>
<name>4285</name>
</trkpt>
<trkpt lat="48.940955" lon="8.666020">
<ele>325.5</ele>
<speed>5.4</speed>
<course>33.4</course>
<desc>Speed 5.4 km/h Distance 6.45 km</desc>
<time>2010-02-25T17:28:48.46</time>
<name>4286</name>
</trkpt>
<trkpt lat="48.940965" lon="8.666030">
<ele>325.5</ele>
<speed>5.0</speed>
<course>41.3</course>
<desc>Speed 5.0 km/h Distance 6.45 km</desc>
<time>2010-02-25T17:28:49.46</time>
<name>4287</name>
</trkpt>
<trkpt lat="48.940975" lon="8.666043">
<ele>326.0</ele>
<speed>5.4</speed>
<course>37.5</course>
<desc>Speed 5.4 km/h Distance 6.45 km</desc>
<time>2010-02-25T17:28:50.46</time>
<name>4288</name>
</trkpt>
<trkpt lat="48.940985" lon="8.666055">
<ele>326.0</ele>
<speed>5.2</speed>
<course>42.6</course>
<desc>Speed 5.2 km/h Distance 6.45 km</desc>
<time>2010-02-25T17:28:51.46</time>
<name>4289</name>
</trkpt>
<trkpt lat="48.940993" lon="8.666067">
<ele>326.5</ele>
<speed>5.1</speed>
<course>357.5</course>
<desc>Speed 5.1 km/h Distance 6.46 km</desc>
<time>2010-02-25T17:28:52.46</time>
<name>4290</name>
</trkpt>
<trkpt lat="48.941012" lon="8.666065">
<ele>327.5</ele>
<speed>5.8</speed>
<course>42.6</course>
<desc>Speed 5.8 km/h Distance 6.46 km</desc>
<time>2010-02-25T17:28:53.45</time>
<name>4291</name>
</trkpt>
<trkpt lat="48.941020" lon="8.666077">
<ele>328.5</ele>
<speed>4.9</speed>
<course>33.4</course>
<desc>Speed 4.9 km/h Distance 6.46 km</desc>
<time>2010-02-25T17:28:54.45</time>
<name>4292</name>
</trkpt>
<trkpt lat="48.941030" lon="8.666087">
<ele>329.0</ele>
<speed>5.2</speed>
<course>42.6</course>
<desc>Speed 5.2 km/h Distance 6.46 km</desc>
<time>2010-02-25T17:28:55.45</time>
<name>4293</name>
</trkpt>
<trkpt lat="48.941038" lon="8.666098">
<ele>329.5</ele>
<speed>5.0</speed>
<course>29.8</course>
<desc>Speed 5.0 km/h Distance 6.46 km</desc>
<time>2010-02-25T17:28:56.45</time>
<name>4294</name>
</trkpt>
<trkpt lat="48.941052" lon="8.666110">
<ele>330.0</ele>
<speed>5.9</speed>
<course>48.9</course>
<desc>Speed 5.9 km/h Distance 6.46 km</desc>
<time>2010-02-25T17:28:57.46</time>
<name>4295</name>
</trkpt>
<trkpt lat="48.941058" lon="8.666122">
<ele>330.0</ele>
<speed>4.5</speed>
<course>71.4</course>
<desc>Speed 4.5 km/h Distance 6.46 km</desc>
<time>2010-02-25T17:28:58.45</time>
<name>4296</name>
</trkpt>
<trkpt lat="48.941062" lon="8.666137">
<ele>329.5</ele>
<speed>4.1</speed>
<course>33.2</course>
<desc>Speed 4.1 km/h Distance 6.47 km</desc>
<time>2010-02-25T17:28:59.46</time>
<name>4297</name>
</trkpt>
<trkpt lat="48.941072" lon="8.666147">
<ele>329.5</ele>
<speed>4.9</speed>
<course>37.5</course>
<desc>Speed 4.9 km/h Distance 6.47 km</desc>
<time>2010-02-25T17:29:00.45</time>
<name>4298</name>
</trkpt>
<trkpt lat="48.941082" lon="8.666158">
<ele>331.0</ele>
<speed>5.2</speed>
<course>37.5</course>
<desc>Speed 5.2 km/h Distance 6.47 km</desc>
<time>2010-02-25T17:29:01.45</time>
<name>4299</name>
</trkpt>
<trkpt lat="48.941092" lon="8.666170">
<ele>332.0</ele>
<speed>5.1</speed>
<course>37.5</course>
<desc>Speed 5.1 km/h Distance 6.47 km</desc>
<time>2010-02-25T17:29:02.45</time>
<name>4300</name>
</trkpt>
<trkpt lat="48.941102" lon="8.666182">
<ele>332.5</ele>
<speed>5.1</speed>
<course>28.6</course>
<desc>Speed 5.1 km/h Distance 6.47 km</desc>
<time>2010-02-25T17:29:03.45</time>
<name>4301</name>
</trkpt>
<trkpt lat="48.941112" lon="8.666190">
<ele>332.5</ele>
<speed>4.1</speed>
<course>18.1</course>
<desc>Speed 4.1 km/h Distance 6.47 km</desc>
<time>2010-02-25T17:29:04.46</time>
<name>4302</name>
</trkpt>
<trkpt lat="48.941125" lon="8.666197">
<ele>332.5</ele>
<speed>4.7</speed>
<course>33.2</course>
<desc>Speed 4.7 km/h Distance 6.47 km</desc>
<time>2010-02-25T17:29:05.46</time>
<name>4303</name>
</trkpt>
<trkpt lat="48.941135" lon="8.666207">
<ele>332.5</ele>
<speed>4.2</speed>
<course>29.4</course>
<desc>Speed 4.2 km/h Distance 6.48 km</desc>
<time>2010-02-25T17:29:06.45</time>
<name>4304</name>
</trkpt>
<trkpt lat="48.941147" lon="8.666217">
<ele>333.5</ele>
<speed>5.4</speed>
<course>40.2</course>
<desc>Speed 5.4 km/h Distance 6.48 km</desc>
<time>2010-02-25T17:29:07.45</time>
<name>4305</name>
</trkpt>
<trkpt lat="48.941158" lon="8.666232">
<ele>334.0</ele>
<speed>5.7</speed>
<course>7.4</course>
<desc>Speed 5.7 km/h Distance 6.48 km</desc>
<time>2010-02-25T17:29:08.45</time>
<name>4306</name>
</trkpt>
<trkpt lat="48.941183" lon="8.666237">
<ele>334.5</ele>
<speed>5.6</speed>
<course>36.5</course>
<desc>Speed 5.6 km/h Distance 6.48 km</desc>
<time>2010-02-25T17:29:09.46</time>
<name>4307</name>
</trkpt>
<trkpt lat="48.941197" lon="8.666252">
<ele>335.0</ele>
<speed>5.6</speed>
<course>33.4</course>
<desc>Speed 5.6 km/h Distance 6.48 km</desc>
<time>2010-02-25T17:29:10.46</time>
<name>4308</name>
</trkpt>
<trkpt lat="48.941210" lon="8.666265">
<ele>336.0</ele>
<speed>5.8</speed>
<course>24.7</course>
<desc>Speed 5.8 km/h Distance 6.48 km</desc>
<time>2010-02-25T17:29:11.45</time>
<name>4309</name>
</trkpt>
<trkpt lat="48.941227" lon="8.666277">
<ele>337.0</ele>
<speed>5.6</speed>
<course>20.1</course>
<desc>Speed 5.6 km/h Distance 6.49 km</desc>
<time>2010-02-25T17:29:12.45</time>
<name>4310</name>
</trkpt>
<trkpt lat="48.941242" lon="8.666285">
<ele>338.0</ele>
<speed>5.5</speed>
<course>19.7</course>
<desc>Speed 5.5 km/h Distance 6.49 km</desc>
<time>2010-02-25T17:29:13.45</time>
<name>4311</name>
</trkpt>
<trkpt lat="48.941260" lon="8.666295">
<ele>338.5</ele>
<speed>5.7</speed>
<course>26.2</course>
<desc>Speed 5.7 km/h Distance 6.49 km</desc>
<time>2010-02-25T17:29:14.46</time>
<name>4312</name>
</trkpt>
<trkpt lat="48.941273" lon="8.666305">
<ele>339.0</ele>
<speed>5.5</speed>
<course>20.1</course>
<desc>Speed 5.5 km/h Distance 6.49 km</desc>
<time>2010-02-25T17:29:15.45</time>
<name>4313</name>
</trkpt>
<trkpt lat="48.941288" lon="8.666313">
<ele>339.0</ele>
<speed>4.9</speed>
<course>26.2</course>
<desc>Speed 4.9 km/h Distance 6.49 km</desc>
<time>2010-02-25T17:29:16.45</time>
<name>4314</name>
</trkpt>
<trkpt lat="48.941302" lon="8.666323">
<ele>339.5</ele>
<speed>5.4</speed>
<course>26.2</course>
<desc>Speed 5.4 km/h Distance 6.50 km</desc>
<time>2010-02-25T17:29:17.45</time>
<name>4315</name>
</trkpt>
<trkpt lat="48.941315" lon="8.666333">
<ele>339.5</ele>
<speed>5.0</speed>
<course>33.2</course>
<desc>Speed 5.0 km/h Distance 6.50 km</desc>
<time>2010-02-25T17:29:18.45</time>
<name>4316</name>
</trkpt>
<trkpt lat="48.941325" lon="8.666343">
<ele>341.0</ele>
<speed>4.2</speed>
<course>23.7</course>
<desc>Speed 4.2 km/h Distance 6.50 km</desc>
<time>2010-02-25T17:29:19.45</time>
<name>4317</name>
</trkpt>
<trkpt lat="48.941340" lon="8.666353">
<ele>341.5</ele>
<speed>5.3</speed>
<course>33.3</course>
<desc>Speed 5.3 km/h Distance 6.50 km</desc>
<time>2010-02-25T17:29:20.45</time>
<name>4318</name>
</trkpt>
<trkpt lat="48.941352" lon="8.666365">
<ele>341.5</ele>
<speed>4.6</speed>
<course>33.2</course>
<desc>Speed 4.6 km/h Distance 6.50 km</desc>
<time>2010-02-25T17:29:21.44</time>
<name>4319</name>
</trkpt>
<trkpt lat="48.941362" lon="8.666375">
<ele>341.5</ele>
<speed>4.9</speed>
<course>46.4</course>
<desc>Speed 4.9 km/h Distance 6.50 km</desc>
<time>2010-02-25T17:29:22.44</time>
<name>4320</name>
</trkpt>
<trkpt lat="48.941370" lon="8.666388">
<ele>342.0</ele>
<speed>4.6</speed>
<course>60.3</course>
<desc>Speed 4.6 km/h Distance 6.50 km</desc>
<time>2010-02-25T17:29:23.45</time>
<name>4321</name>
</trkpt>
<trkpt lat="48.941375" lon="8.666402">
<ele>342.0</ele>
<speed>4.2</speed>
<course>25.2</course>
<desc>Speed 4.2 km/h Distance 6.51 km</desc>
<time>2010-02-25T17:29:24.44</time>
<name>4322</name>
</trkpt>
<trkpt lat="48.941387" lon="8.666410">
<ele>342.5</ele>
<speed>4.8</speed>
<course>46.5</course>
<desc>Speed 4.8 km/h Distance 6.51 km</desc>
<time>2010-02-25T17:29:25.45</time>
<name>4323</name>
</trkpt>
<trkpt lat="48.941395" lon="8.666423">
<ele>342.5</ele>
<speed>4.8</speed>
<course>33.3</course>
<desc>Speed 4.8 km/h Distance 6.51 km</desc>
<time>2010-02-25T17:29:26.44</time>
<name>4324</name>
</trkpt>
<trkpt lat="48.941407" lon="8.666435">
<ele>342.5</ele>
<speed>4.4</speed>
<course>33.2</course>
<desc>Speed 4.4 km/h Distance 6.51 km</desc>
<time>2010-02-25T17:29:27.44</time>
<name>4325</name>
</trkpt>
<trkpt lat="48.941417" lon="8.666445">
<ele>344.0</ele>
<speed>4.6</speed>
<course>33.2</course>
<desc>Speed 4.6 km/h Distance 6.51 km</desc>
<time>2010-02-25T17:29:28.44</time>
<name>4326</name>
</trkpt>
<trkpt lat="48.941427" lon="8.666455">
<ele>345.0</ele>
<speed>4.5</speed>
<course>29.8</course>
<desc>Speed 4.5 km/h Distance 6.51 km</desc>
<time>2010-02-25T17:29:29.44</time>
<name>4327</name>
</trkpt>
<trkpt lat="48.941440" lon="8.666467">
<ele>345.0</ele>
<speed>5.1</speed>
<course>42.6</course>
<desc>Speed 5.1 km/h Distance 6.51 km</desc>
<time>2010-02-25T17:29:30.45</time>
<name>4328</name>
</trkpt>
<trkpt lat="48.941448" lon="8.666478">
<ele>345.5</ele>
<speed>4.0</speed>
<course>29.4</course>
<desc>Speed 4.0 km/h Distance 6.52 km</desc>
<time>2010-02-25T17:29:31.45</time>
<name>4329</name>
</trkpt>
<trkpt lat="48.941460" lon="8.666488">
<ele>346.0</ele>
<speed>4.6</speed>
<course>6.1</course>
<desc>Speed 4.6 km/h Distance 6.52 km</desc>
<time>2010-02-25T17:29:32.45</time>
<name>4330</name>
</trkpt>
<trkpt lat="48.941480" lon="8.666492">
<ele>346.5</ele>
<speed>4.5</speed>
<course>6.5</course>
<desc>Speed 4.5 km/h Distance 6.52 km</desc>
<time>2010-02-25T17:29:33.45</time>
<name>4331</name>
</trkpt>
<trkpt lat="48.941498" lon="8.666495">
<ele>347.5</ele>
<speed>4.6</speed>
<course>29.4</course>
<desc>Speed 4.6 km/h Distance 6.52 km</desc>
<time>2010-02-25T17:29:34.45</time>
<name>4332</name>
</trkpt>
<trkpt lat="48.941510" lon="8.666505">
<ele>348.5</ele>
<speed>4.5</speed>
<course>33.2</course>
<desc>Speed 4.5 km/h Distance 6.52 km</desc>
<time>2010-02-25T17:29:35.45</time>
<name>4333</name>
</trkpt>
<trkpt lat="48.941520" lon="8.666515">
<ele>349.5</ele>
<speed>4.7</speed>
<course>22.1</course>
<desc>Speed 4.7 km/h Distance 6.52 km</desc>
<time>2010-02-25T17:29:36.45</time>
<name>4334</name>
</trkpt>
<trkpt lat="48.941533" lon="8.666523">
<ele>349.5</ele>
<speed>4.1</speed>
<course>25.2</course>
<desc>Speed 4.1 km/h Distance 6.53 km</desc>
<time>2010-02-25T17:29:37.44</time>
<name>4335</name>
</trkpt>
<trkpt lat="48.941545" lon="8.666532">
<ele>348.5</ele>
<speed>3.7</speed>
<course>29.4</course>
<desc>Speed 3.7 km/h Distance 6.53 km</desc>
<time>2010-02-25T17:29:38.45</time>
<name>4336</name>
</trkpt>
<trkpt lat="48.941557" lon="8.666542">
<ele>348.5</ele>
<speed>4.7</speed>
<course>25.2</course>
<desc>Speed 4.7 km/h Distance 6.53 km</desc>
<time>2010-02-25T17:29:39.45</time>
<name>4337</name>
</trkpt>
<trkpt lat="48.941568" lon="8.666550">
<ele>349.5</ele>
<speed>4.6</speed>
<course>37.5</course>
<desc>Speed 4.6 km/h Distance 6.53 km</desc>
<time>2010-02-25T17:29:40.44</time>
<name>4338</name>
</trkpt>
<trkpt lat="48.941578" lon="8.666562">
<ele>350.5</ele>
<speed>5.2</speed>
<course>37.5</course>
<desc>Speed 5.2 km/h Distance 6.53 km</desc>
<time>2010-02-25T17:29:41.44</time>
<name>4339</name>
</trkpt>
<trkpt lat="48.941588" lon="8.666573">
<ele>350.5</ele>
<speed>4.5</speed>
<course>29.0</course>
<desc>Speed 4.5 km/h Distance 6.53 km</desc>
<time>2010-02-25T17:29:42.44</time>
<name>4340</name>
</trkpt>
<trkpt lat="48.941600" lon="8.666583">
<ele>350.5</ele>
<speed>5.0</speed>
<course>33.2</course>
<desc>Speed 5.0 km/h Distance 6.53 km</desc>
<time>2010-02-25T17:29:43.44</time>
<name>4341</name>
</trkpt>
<trkpt lat="48.941610" lon="8.666593">
<ele>350.5</ele>
<speed>4.5</speed>
<course>19.7</course>
<desc>Speed 4.5 km/h Distance 6.54 km</desc>
<time>2010-02-25T17:29:44.43</time>
<name>4342</name>
</trkpt>
<trkpt lat="48.941628" lon="8.666603">
<ele>349.5</ele>
<speed>6.6</speed>
<course>36.9</course>
<desc>Speed 6.6 km/h Distance 6.54 km</desc>
<time>2010-02-25T17:29:45.43</time>
<name>4343</name>
</trkpt>
<trkpt lat="48.941640" lon="8.666617">
<ele>349.5</ele>
<speed>5.1</speed>
<course>21.5</course>
<desc>Speed 5.1 km/h Distance 6.54 km</desc>
<time>2010-02-25T17:29:46.43</time>
<name>4344</name>
</trkpt>
<trkpt lat="48.941657" lon="8.666627">
<ele>349.5</ele>
<speed>6.4</speed>
<course>27.0</course>
<desc>Speed 6.4 km/h Distance 6.54 km</desc>
<time>2010-02-25T17:29:47.43</time>
<name>4345</name>
</trkpt>
<trkpt lat="48.941672" lon="8.666638">
<ele>349.5</ele>
<speed>5.5</speed>
<course>18.1</course>
<desc>Speed 5.5 km/h Distance 6.54 km</desc>
<time>2010-02-25T17:29:48.43</time>
<name>4346</name>
</trkpt>
<trkpt lat="48.941685" lon="8.666645">
<ele>349.5</ele>
<speed>4.8</speed>
<course>25.2</course>
<desc>Speed 4.8 km/h Distance 6.55 km</desc>
<time>2010-02-25T17:29:49.43</time>
<name>4347</name>
</trkpt>
<trkpt lat="48.941697" lon="8.666653">
<ele>350.0</ele>
<speed>4.4</speed>
<course>28.6</course>
<desc>Speed 4.4 km/h Distance 6.55 km</desc>
<time>2010-02-25T17:29:50.43</time>
<name>4348</name>
</trkpt>
<trkpt lat="48.941707" lon="8.666662">
<ele>350.0</ele>
<speed>3.7</speed>
<course>29.4</course>
<desc>Speed 3.7 km/h Distance 6.55 km</desc>
<time>2010-02-25T17:29:51.43</time>
<name>4349</name>
</trkpt>
<trkpt lat="48.941718" lon="8.666672">
<ele>349.5</ele>
<speed>4.5</speed>
<course>21.5</course>
<desc>Speed 4.5 km/h Distance 6.55 km</desc>
<time>2010-02-25T17:29:52.43</time>
<name>4350</name>
</trkpt>
<trkpt lat="48.941735" lon="8.666682">
<ele>349.5</ele>
<speed>5.8</speed>
<course>46.6</course>
<desc>Speed 5.8 km/h Distance 6.55 km</desc>
<time>2010-02-25T17:29:53.43</time>
<name>4351</name>
</trkpt>
<trkpt lat="48.941743" lon="8.666695">
<ele>348.5</ele>
<speed>4.3</speed>
<course>56.1</course>
<desc>Speed 4.3 km/h Distance 6.55 km</desc>
<time>2010-02-25T17:29:54.43</time>
<name>4352</name>
</trkpt>
<trkpt lat="48.941750" lon="8.666710">
<ele>348.0</ele>
<speed>4.3</speed>
<course>67.5</course>
<desc>Speed 4.3 km/h Distance 6.55 km</desc>
<time>2010-02-25T17:29:55.43</time>
<name>4353</name>
</trkpt>
<trkpt lat="48.941755" lon="8.666728">
<ele>347.0</ele>
<speed>4.8</speed>
<course>58.7</course>
<desc>Speed 4.8 km/h Distance 6.56 km</desc>
<time>2010-02-25T17:29:56.43</time>
<name>4354</name>
</trkpt>
<trkpt lat="48.941762" lon="8.666745">
<ele>346.5</ele>
<speed>4.6</speed>
<course>109.4</course>
<desc>Speed 4.6 km/h Distance 6.56 km</desc>
<time>2010-02-25T17:29:57.43</time>
<name>4355</name>
</trkpt>
<trkpt lat="48.941757" lon="8.666767">
<ele>348.0</ele>
<speed>6.7</speed>
<course>49.7</course>
<desc>Speed 6.7 km/h Distance 6.56 km</desc>
<time>2010-02-25T17:29:58.43</time>
<name>4356</name>
</trkpt>
<trkpt lat="48.941765" lon="8.666782">
<ele>347.5</ele>
<speed>4.6</speed>
<course>18.4</course>
<desc>Speed 4.6 km/h Distance 6.56 km</desc>
<time>2010-02-25T17:29:59.43</time>
<name>4357</name>
</trkpt>
<trkpt lat="48.941778" lon="8.666788">
<ele>348.0</ele>
<speed>4.7</speed>
<course>12.2</course>
<desc>Speed 4.7 km/h Distance 6.56 km</desc>
<time>2010-02-25T17:30:00.42</time>
<name>4358</name>
</trkpt>
<trkpt lat="48.941793" lon="8.666793">
<ele>348.0</ele>
<speed>5.1</speed>
<course>8.8</course>
<desc>Speed 5.1 km/h Distance 6.56 km</desc>
<time>2010-02-25T17:30:01.43</time>
<name>4359</name>
</trkpt>
<trkpt lat="48.941808" lon="8.666797">
<ele>348.0</ele>
<speed>5.3</speed>
<course>12.2</course>
<desc>Speed 5.3 km/h Distance 6.57 km</desc>
<time>2010-02-25T17:30:02.43</time>
<name>4360</name>
</trkpt>
<trkpt lat="48.941823" lon="8.666802">
<ele>348.0</ele>
<speed>4.9</speed>
<course>8.1</course>
<desc>Speed 4.9 km/h Distance 6.57 km</desc>
<time>2010-02-25T17:30:03.43</time>
<name>4361</name>
</trkpt>
<trkpt lat="48.941838" lon="8.666805">
<ele>348.0</ele>
<speed>4.5</speed>
<course>355.4</course>
<desc>Speed 4.5 km/h Distance 6.57 km</desc>
<time>2010-02-25T17:30:04.43</time>
<name>4362</name>
</trkpt>
<trkpt lat="48.941878" lon="8.666800">
<ele>347.0</ele>
<speed>2.8</speed>
<course>355.0</course>
<desc>Speed 2.8 km/h Distance 6.57 km</desc>
<time>2010-02-25T17:30:06.43</time>
<name>4363</name>
</trkpt>
<trkpt lat="48.941887" lon="8.666798">
<ele>346.0</ele>
<speed>1.2</speed>
<course>347.4</course>
<desc>Speed 1.2 km/h Distance 6.57 km</desc>
<time>2010-02-25T17:30:07.42</time>
<name>4364</name>
</trkpt>
<trkpt lat="48.941902" lon="8.666793">
<ele>344.0</ele>
<speed>4.0</speed>
<course>353.0</course>
<desc>Speed 4.0 km/h Distance 6.58 km</desc>
<time>2010-02-25T17:30:08.42</time>
<name>4365</name>
</trkpt>
<trkpt lat="48.941920" lon="8.666790">
<ele>343.0</ele>
<speed>5.3</speed>
<course>0.0</course>
<desc>Speed 5.3 km/h Distance 6.58 km</desc>
<time>2010-02-25T17:30:09.43</time>
<name>4366</name>
</trkpt>
<trkpt lat="48.941938" lon="8.666790">
<ele>344.0</ele>
<speed>4.2</speed>
<course>9.0</course>
<desc>Speed 4.2 km/h Distance 6.58 km</desc>
<time>2010-02-25T17:30:10.44</time>
<name>4367</name>
</trkpt>
<trkpt lat="48.941952" lon="8.666793">
<ele>344.5</ele>
<speed>4.9</speed>
<course>0.0</course>
<desc>Speed 4.9 km/h Distance 6.58 km</desc>
<time>2010-02-25T17:30:11.42</time>
<name>4368</name>
</trkpt>
<trkpt lat="48.941973" lon="8.666793">
<ele>346.0</ele>
<speed>4.8</speed>
<course>353.6</course>
<desc>Speed 4.8 km/h Distance 6.58 km</desc>
<time>2010-02-25T17:30:12.42</time>
<name>4369</name>
</trkpt>
<trkpt lat="48.942002" lon="8.666788">
<ele>344.5</ele>
<speed>7.5</speed>
<course>348.6</course>
<desc>Speed 7.5 km/h Distance 6.59 km</desc>
<time>2010-02-25T17:30:13.43</time>
<name>4370</name>
</trkpt>
<trkpt lat="48.942023" lon="8.666782">
<ele>344.0</ele>
<speed>8.4</speed>
<course>2.5</course>
<desc>Speed 8.4 km/h Distance 6.59 km</desc>
<time>2010-02-25T17:30:14.43</time>
<name>4371</name>
</trkpt>
<trkpt lat="48.942042" lon="8.666782">
<ele>344.0</ele>
<speed>5.4</speed>
<course>357.8</course>
<desc>Speed 5.4 km/h Distance 6.59 km</desc>
<time>2010-02-25T17:30:15.43</time>
<name>4372</name>
</trkpt>
<trkpt lat="48.942068" lon="8.666780">
<ele>342.5</ele>
<speed>6.3</speed>
<course>9.5</course>
<desc>Speed 6.3 km/h Distance 6.59 km</desc>
<time>2010-02-25T17:30:16.43</time>
<name>4373</name>
</trkpt>
<trkpt lat="48.942080" lon="8.666783">
<ele>343.0</ele>
<speed>4.3</speed>
<course>5.3</course>
<desc>Speed 4.3 km/h Distance 6.60 km</desc>
<time>2010-02-25T17:30:17.42</time>
<name>4374</name>
</trkpt>
<trkpt lat="48.942093" lon="8.666785">
<ele>343.0</ele>
<speed>3.8</speed>
<course>18.4</course>
<desc>Speed 3.8 km/h Distance 6.60 km</desc>
<time>2010-02-25T17:30:18.42</time>
<name>4375</name>
</trkpt>
<trkpt lat="48.942107" lon="8.666792">
<ele>344.0</ele>
<speed>4.4</speed>
<course>12.2</course>
<desc>Speed 4.4 km/h Distance 6.60 km</desc>
<time>2010-02-25T17:30:19.42</time>
<name>4376</name>
</trkpt>
<trkpt lat="48.942122" lon="8.666797">
<ele>344.0</ele>
<speed>4.6</speed>
<course>339.1</course>
<desc>Speed 4.6 km/h Distance 6.60 km</desc>
<time>2010-02-25T17:30:20.41</time>
<name>4377</name>
</trkpt>
<trkpt lat="48.942133" lon="8.666790">
<ele>344.5</ele>
<speed>4.7</speed>
<course>351.0</course>
<desc>Speed 4.7 km/h Distance 6.60 km</desc>
<time>2010-02-25T17:30:21.42</time>
<name>4378</name>
</trkpt>
<trkpt lat="48.942147" lon="8.666787">
<ele>344.0</ele>
<speed>5.4</speed>
<course>356.1</course>
<desc>Speed 5.4 km/h Distance 6.60 km</desc>
<time>2010-02-25T17:30:22.41</time>
<name>4379</name>
</trkpt>
<trkpt lat="48.942160" lon="8.666785">
<ele>343.0</ele>
<speed>5.0</speed>
<course>345.1</course>
<desc>Speed 5.0 km/h Distance 6.60 km</desc>
<time>2010-02-25T17:30:23.42</time>
<name>4380</name>
</trkpt>
<trkpt lat="48.942172" lon="8.666780">
<ele>342.0</ele>
<speed>4.6</speed>
<course>0.0</course>
<desc>Speed 4.6 km/h Distance 6.61 km</desc>
<time>2010-02-25T17:30:24.42</time>
<name>4381</name>
</trkpt>
<trkpt lat="48.942185" lon="8.666780">
<ele>341.5</ele>
<speed>5.4</speed>
<course>0.0</course>
<desc>Speed 5.4 km/h Distance 6.61 km</desc>
<time>2010-02-25T17:30:25.42</time>
<name>4382</name>
</trkpt>
<trkpt lat="48.942200" lon="8.666780">
<ele>341.0</ele>
<speed>5.6</speed>
<course>9.2</course>
<desc>Speed 5.6 km/h Distance 6.61 km</desc>
<time>2010-02-25T17:30:26.42</time>
<name>4383</name>
</trkpt>
<trkpt lat="48.942220" lon="8.666785">
<ele>341.0</ele>
<speed>5.8</speed>
<course>10.4</course>
<desc>Speed 5.8 km/h Distance 6.61 km</desc>
<time>2010-02-25T17:30:27.41</time>
<name>4384</name>
</trkpt>
<trkpt lat="48.942232" lon="8.666788">
<ele>341.0</ele>
<speed>4.9</speed>
<course>18.1</course>
<desc>Speed 4.9 km/h Distance 6.61 km</desc>
<time>2010-02-25T17:30:28.42</time>
<name>4385</name>
</trkpt>
<trkpt lat="48.942245" lon="8.666795">
<ele>341.0</ele>
<speed>5.5</speed>
<course>0.0</course>
<desc>Speed 5.5 km/h Distance 6.61 km</desc>
<time>2010-02-25T17:30:29.42</time>
<name>4386</name>
</trkpt>
<trkpt lat="48.942262" lon="8.666795">
<ele>340.0</ele>
<speed>4.6</speed>
<course>1.9</course>
<desc>Speed 4.6 km/h Distance 6.62 km</desc>
<time>2010-02-25T17:30:30.42</time>
<name>4387</name>
</trkpt>
<trkpt lat="48.942277" lon="8.666795">
<ele>338.5</ele>
<speed>5.0</speed>
<course>0.0</course>
<desc>Speed 5.0 km/h Distance 6.62 km</desc>
<time>2010-02-25T17:30:31.41</time>
<name>4388</name>
</trkpt>
<trkpt lat="48.942292" lon="8.666795">
<ele>338.0</ele>
<speed>4.6</speed>
<course>3.7</course>
<desc>Speed 4.6 km/h Distance 6.62 km</desc>
<time>2010-02-25T17:30:32.41</time>
<name>4389</name>
</trkpt>
<trkpt lat="48.942310" lon="8.666797">
<ele>336.5</ele>
<speed>5.1</speed>
<course>2.8</course>
<desc>Speed 5.1 km/h Distance 6.62 km</desc>
<time>2010-02-25T17:30:33.41</time>
<name>4390</name>
</trkpt>
<trkpt lat="48.942327" lon="8.666798">
<ele>336.0</ele>
<speed>4.7</speed>
<course>0.0</course>
<desc>Speed 4.7 km/h Distance 6.62 km</desc>
<time>2010-02-25T17:30:34.41</time>
<name>4391</name>
</trkpt>
<trkpt lat="48.942347" lon="8.666798">
<ele>335.5</ele>
<speed>5.2</speed>
<course>3.2</course>
<desc>Speed 5.2 km/h Distance 6.63 km</desc>
<time>2010-02-25T17:30:35.41</time>
<name>4392</name>
</trkpt>
<trkpt lat="48.942368" lon="8.666800">
<ele>335.0</ele>
<speed>6.4</speed>
<course>3.9</course>
<desc>Speed 6.4 km/h Distance 6.63 km</desc>
<time>2010-02-25T17:30:36.42</time>
<name>4393</name>
</trkpt>
<trkpt lat="48.942382" lon="8.666802">
<ele>335.0</ele>
<speed>4.8</speed>
<course>1.9</course>
<desc>Speed 4.8 km/h Distance 6.63 km</desc>
<time>2010-02-25T17:30:37.41</time>
<name>4394</name>
</trkpt>
<trkpt lat="48.942397" lon="8.666802">
<ele>334.5</ele>
<speed>5.5</speed>
<course>9.0</course>
<desc>Speed 5.5 km/h Distance 6.63 km</desc>
<time>2010-02-25T17:30:38.41</time>
<name>4395</name>
</trkpt>
<trkpt lat="48.942410" lon="8.666805">
<ele>335.0</ele>
<speed>5.3</speed>
<course>3.8</course>
<desc>Speed 5.3 km/h Distance 6.63 km</desc>
<time>2010-02-25T17:30:39.41</time>
<name>4396</name>
</trkpt>
<trkpt lat="48.942425" lon="8.666807">
<ele>335.5</ele>
<speed>5.7</speed>
<course>1.2</course>
<desc>Speed 5.7 km/h Distance 6.63 km</desc>
<time>2010-02-25T17:30:40.41</time>
<name>4397</name>
</trkpt>
<trkpt lat="48.942438" lon="8.666807">
<ele>336.5</ele>
<speed>5.1</speed>
<course>0.0</course>
<desc>Speed 5.1 km/h Distance 6.64 km</desc>
<time>2010-02-25T17:30:41.41</time>
<name>4398</name>
</trkpt>
<trkpt lat="48.942453" lon="8.666807">
<ele>336.5</ele>
<speed>5.5</speed>
<course>15.5</course>
<desc>Speed 5.5 km/h Distance 6.64 km</desc>
<time>2010-02-25T17:30:42.41</time>
<name>4399</name>
</trkpt>
<trkpt lat="48.942465" lon="8.666812">
<ele>336.5</ele>
<speed>3.6</speed>
<course>16.0</course>
<desc>Speed 3.6 km/h Distance 6.64 km</desc>
<time>2010-02-25T17:30:43.41</time>
<name>4400</name>
</trkpt>
<trkpt lat="48.942477" lon="8.666817">
<ele>336.0</ele>
<speed>3.1</speed>
<course>6.6</course>
<desc>Speed 3.1 km/h Distance 6.64 km</desc>
<time>2010-02-25T17:30:44.41</time>
<name>4401</name>
</trkpt>
<trkpt lat="48.942487" lon="8.666818">
<ele>335.5</ele>
<speed>2.2</speed>
<course>12.6</course>
<desc>Speed 2.2 km/h Distance 6.64 km</desc>
<time>2010-02-25T17:30:45.41</time>
<name>4402</name>
</trkpt>
<trkpt lat="48.942490" lon="8.666820">
<ele>335.5</ele>
<speed>1.4</speed>
<course>11.6</course>
<desc>Speed 1.4 km/h Distance 6.64 km</desc>
<time>2010-02-25T17:30:46.41</time>
<name>4403</name>
</trkpt>
<trkpt lat="48.942500" lon="8.666823">
<ele>335.5</ele>
<speed>2.8</speed>
<course>4.1</course>
<desc>Speed 2.8 km/h Distance 6.64 km</desc>
<time>2010-02-25T17:30:47.41</time>
<name>4404</name>
</trkpt>
<trkpt lat="48.942517" lon="8.666825">
<ele>335.5</ele>
<speed>5.2</speed>
<course>2.8</course>
<desc>Speed 5.2 km/h Distance 6.64 km</desc>
<time>2010-02-25T17:30:48.41</time>
<name>4405</name>
</trkpt>
<trkpt lat="48.942533" lon="8.666825">
<ele>335.5</ele>
<speed>5.7</speed>
<course>8.7</course>
<desc>Speed 5.7 km/h Distance 6.65 km</desc>
<time>2010-02-25T17:30:49.41</time>
<name>4406</name>
</trkpt>
<trkpt lat="48.942555" lon="8.666830">
<ele>334.5</ele>
<speed>5.4</speed>
<course>2.7</course>
<desc>Speed 5.4 km/h Distance 6.65 km</desc>
<time>2010-02-25T17:30:50.40</time>
<name>4407</name>
</trkpt>
<trkpt lat="48.942575" lon="8.666832">
<ele>333.5</ele>
<speed>4.7</speed>
<course>355.0</course>
<desc>Speed 4.7 km/h Distance 6.65 km</desc>
<time>2010-02-25T17:30:51.41</time>
<name>4408</name>
</trkpt>
<trkpt lat="48.942600" lon="8.666828">
<ele>333.0</ele>
<speed>6.7</speed>
<course>354.1</course>
<desc>Speed 6.7 km/h Distance 6.65 km</desc>
<time>2010-02-25T17:30:52.40</time>
<name>4409</name>
</trkpt>
<trkpt lat="48.942622" lon="8.666825">
<ele>333.0</ele>
<speed>4.8</speed>
<course>352.5</course>
<desc>Speed 4.8 km/h Distance 6.66 km</desc>
<time>2010-02-25T17:30:53.41</time>
<name>4410</name>
</trkpt>
<trkpt lat="48.942637" lon="8.666822">
<ele>332.0</ele>
<speed>4.4</speed>
<course>338.5</course>
<desc>Speed 4.4 km/h Distance 6.66 km</desc>
<time>2010-02-25T17:30:54.41</time>
<name>4411</name>
</trkpt>
<trkpt lat="48.942653" lon="8.666812">
<ele>332.5</ele>
<speed>5.4</speed>
<course>338.5</course>
<desc>Speed 5.4 km/h Distance 6.66 km</desc>
<time>2010-02-25T17:30:55.40</time>
<name>4412</name>
</trkpt>
<trkpt lat="48.942670" lon="8.666802">
<ele>333.0</ele>
<speed>5.4</speed>
<course>339.9</course>
<desc>Speed 5.4 km/h Distance 6.66 km</desc>
<time>2010-02-25T17:30:56.40</time>
<name>4413</name>
</trkpt>
<trkpt lat="48.942685" lon="8.666793">
<ele>332.0</ele>
<speed>4.0</speed>
<course>350.2</course>
<desc>Speed 4.0 km/h Distance 6.66 km</desc>
<time>2010-02-25T17:30:57.41</time>
<name>4414</name>
</trkpt>
<trkpt lat="48.942703" lon="8.666788">
<ele>332.5</ele>
<speed>4.9</speed>
<course>352.9</course>
<desc>Speed 4.9 km/h Distance 6.67 km</desc>
<time>2010-02-25T17:30:58.40</time>
<name>4415</name>
</trkpt>
<trkpt lat="48.942720" lon="8.666785">
<ele>332.5</ele>
<speed>4.9</speed>
<course>356.3</course>
<desc>Speed 4.9 km/h Distance 6.67 km</desc>
<time>2010-02-25T17:30:59.39</time>
<name>4416</name>
</trkpt>
<trkpt lat="48.942738" lon="8.666783">
<ele>332.5</ele>
<speed>5.2</speed>
<course>341.6</course>
<desc>Speed 5.2 km/h Distance 6.67 km</desc>
<time>2010-02-25T17:31:00.39</time>
<name>4417</name>
</trkpt>
<trkpt lat="48.942752" lon="8.666777">
<ele>333.0</ele>
<speed>5.2</speed>
<course>2.5</course>
<desc>Speed 5.2 km/h Distance 6.67 km</desc>
<time>2010-02-25T17:31:01.40</time>
<name>4418</name>
</trkpt>
<trkpt lat="48.942770" lon="8.666778">
<ele>331.0</ele>
<speed>6.4</speed>
<course>347.4</course>
<desc>Speed 6.4 km/h Distance 6.67 km</desc>
<time>2010-02-25T17:31:02.40</time>
<name>4419</name>
</trkpt>
<trkpt lat="48.942785" lon="8.666773">
<ele>330.5</ele>
<speed>5.4</speed>
<course>351.0</course>
<desc>Speed 5.4 km/h Distance 6.68 km</desc>
<time>2010-02-25T17:31:03.40</time>
<name>4420</name>
</trkpt>
<trkpt lat="48.942798" lon="8.666770">
<ele>329.0</ele>
<speed>4.2</speed>
<course>337.7</course>
<desc>Speed 4.2 km/h Distance 6.68 km</desc>
<time>2010-02-25T17:31:04.40</time>
<name>4421</name>
</trkpt>
<trkpt lat="48.942812" lon="8.666762">
<ele>330.0</ele>
<speed>5.4</speed>
<course>351.2</course>
<desc>Speed 5.4 km/h Distance 6.68 km</desc>
<time>2010-02-25T17:31:05.40</time>
<name>4422</name>
</trkpt>
<trkpt lat="48.942827" lon="8.666758">
<ele>330.0</ele>
<speed>5.0</speed>
<course>341.9</course>
<desc>Speed 5.0 km/h Distance 6.68 km</desc>
<time>2010-02-25T17:31:06.40</time>
<name>4423</name>
</trkpt>
<trkpt lat="48.942853" lon="8.666745">
<ele>329.0</ele>
<speed>10.0</speed>
<course>3.8</course>
<desc>Speed 10.0 km/h Distance 6.68 km</desc>
<time>2010-02-25T17:31:07.40</time>
<name>4424</name>
</trkpt>
<trkpt lat="48.942868" lon="8.666747">
<ele>329.5</ele>
<speed>5.8</speed>
<course>341.9</course>
<desc>Speed 5.8 km/h Distance 6.69 km</desc>
<time>2010-02-25T17:31:08.40</time>
<name>4425</name>
</trkpt>
<trkpt lat="48.942882" lon="8.666740">
<ele>329.5</ele>
<speed>5.1</speed>
<course>336.2</course>
<desc>Speed 5.1 km/h Distance 6.69 km</desc>
<time>2010-02-25T17:31:09.55</time>
<name>4426</name>
</trkpt>
<trkpt lat="48.942892" lon="8.666733">
<ele>330.0</ele>
<speed>4.5</speed>
<course>331.4</course>
<desc>Speed 4.5 km/h Distance 6.69 km</desc>
<time>2010-02-25T17:31:10.41</time>
<name>4427</name>
</trkpt>
<trkpt lat="48.942902" lon="8.666725">
<ele>330.0</ele>
<speed>4.1</speed>
<course>341.9</course>
<desc>Speed 4.1 km/h Distance 6.69 km</desc>
<time>2010-02-25T17:31:11.40</time>
<name>4428</name>
</trkpt>
<trkpt lat="48.942915" lon="8.666718">
<ele>331.5</ele>
<speed>4.9</speed>
<course>342.2</course>
<desc>Speed 4.9 km/h Distance 6.69 km</desc>
<time>2010-02-25T17:31:12.63</time>
<name>4429</name>
</trkpt>
<trkpt lat="48.942928" lon="8.666712">
<ele>331.0</ele>
<speed>5.2</speed>
<course>297.0</course>
<desc>Speed 5.2 km/h Distance 6.69 km</desc>
<time>2010-02-25T17:31:13.39</time>
<name>4430</name>
</trkpt>
<trkpt lat="48.942932" lon="8.666702">
<ele>331.0</ele>
<speed>2.2</speed>
<course>293.5</course>
<desc>Speed 2.2 km/h Distance 6.69 km</desc>
<time>2010-02-25T17:31:14.39</time>
<name>4431</name>
</trkpt>
<trkpt lat="48.942935" lon="8.666690">
<ele>330.5</ele>
<speed>3.0</speed>
<course>322.5</course>
<desc>Speed 3.0 km/h Distance 6.69 km</desc>
<time>2010-02-25T17:31:15.39</time>
<name>4432</name>
</trkpt>
<trkpt lat="48.942945" lon="8.666678">
<ele>331.0</ele>
<speed>3.2</speed>
<course>318.8</course>
<desc>Speed 3.2 km/h Distance 6.70 km</desc>
<time>2010-02-25T17:31:16.41</time>
<name>4433</name>
</trkpt>
<trkpt lat="48.942955" lon="8.666665">
<ele>332.0</ele>
<speed>3.0</speed>
<course>326.7</course>
<desc>Speed 3.0 km/h Distance 6.70 km</desc>
<time>2010-02-25T17:31:17.61</time>
<name>4434</name>
</trkpt>
<trkpt lat="48.942968" lon="8.666652">
<ele>333.5</ele>
<speed>4.6</speed>
<course>316.8</course>
<desc>Speed 4.6 km/h Distance 6.70 km</desc>
<time>2010-02-25T17:31:18.38</time>
<name>4435</name>
</trkpt>
<trkpt lat="48.942980" lon="8.666635">
<ele>334.0</ele>
<speed>4.1</speed>
<course>316.7</course>
<desc>Speed 4.1 km/h Distance 6.70 km</desc>
<time>2010-02-25T17:31:19.39</time>
<name>4436</name>
</trkpt>
<trkpt lat="48.942992" lon="8.666618">
<ele>334.5</ele>
<speed>3.5</speed>
<course>312.4</course>
<desc>Speed 3.5 km/h Distance 6.70 km</desc>
<time>2010-02-25T17:31:20.38</time>
<name>4437</name>
</trkpt>
<trkpt lat="48.943002" lon="8.666602">
<ele>335.0</ele>
<speed>4.9</speed>
<course>315.4</course>
<desc>Speed 4.9 km/h Distance 6.70 km</desc>
<time>2010-02-25T17:31:21.38</time>
<name>4438</name>
</trkpt>
<trkpt lat="48.943012" lon="8.666587">
<ele>334.5</ele>
<speed>4.5</speed>
<course>323.1</course>
<desc>Speed 4.5 km/h Distance 6.71 km</desc>
<time>2010-02-25T17:31:22.60</time>
<name>4439</name>
</trkpt>
<trkpt lat="48.943023" lon="8.666573">
<ele>334.0</ele>
<speed>5.2</speed>
<course>330.2</course>
<desc>Speed 5.2 km/h Distance 6.71 km</desc>
<time>2010-02-25T17:31:23.38</time>
<name>4440</name>
</trkpt>
<trkpt lat="48.943037" lon="8.666562">
<ele>333.0</ele>
<speed>4.5</speed>
<course>332.8</course>
<desc>Speed 4.5 km/h Distance 6.71 km</desc>
<time>2010-02-25T17:31:24.38</time>
<name>4441</name>
</trkpt>
<trkpt lat="48.943052" lon="8.666550">
<ele>333.0</ele>
<speed>5.1</speed>
<course>333.6</course>
<desc>Speed 5.1 km/h Distance 6.71 km</desc>
<time>2010-02-25T17:31:25.37</time>
<name>4442</name>
</trkpt>
<trkpt lat="48.943065" lon="8.666540">
<ele>332.5</ele>
<speed>5.1</speed>
<course>322.5</course>
<desc>Speed 5.1 km/h Distance 6.71 km</desc>
<time>2010-02-25T17:31:26.37</time>
<name>4443</name>
</trkpt>
<trkpt lat="48.943075" lon="8.666528">
<ele>332.0</ele>
<speed>4.0</speed>
<course>302.4</course>
<desc>Speed 4.0 km/h Distance 6.71 km</desc>
<time>2010-02-25T17:31:27.59</time>
<name>4444</name>
</trkpt>
<trkpt lat="48.943083" lon="8.666508">
<ele>332.5</ele>
<speed>6.0</speed>
<course>326.6</course>
<desc>Speed 6.0 km/h Distance 6.72 km</desc>
<time>2010-02-25T17:31:28.37</time>
<name>4445</name>
</trkpt>
<trkpt lat="48.943093" lon="8.666498">
<ele>332.0</ele>
<speed>3.4</speed>
<course>303.1</course>
<desc>Speed 3.4 km/h Distance 6.72 km</desc>
<time>2010-02-25T17:31:29.37</time>
<name>4446</name>
</trkpt>
<trkpt lat="48.943098" lon="8.666487">
<ele>332.0</ele>
<speed>2.9</speed>
<course>299.7</course>
<desc>Speed 2.9 km/h Distance 6.72 km</desc>
<time>2010-02-25T17:31:30.37</time>
<name>4447</name>
</trkpt>
<trkpt lat="48.943103" lon="8.666473">
<ele>331.5</ele>
<speed>2.9</speed>
<course>299.7</course>
<desc>Speed 2.9 km/h Distance 6.72 km</desc>
<time>2010-02-25T17:31:31.37</time>
<name>4448</name>
</trkpt>
</trkseg>
</trk>
</gpx>
